<?xml version="1.0" encoding="UTF-8"?>
<gpx version="1.1" creator="https://www.youtrack.es" xsi:schemaLocation="http://www.topografix.com/GPX/1/1 http://www.topografix.com/GPX/1/1/gpx.xsd http://www.garmin.com/xmlschemas/GpxExtensions/v3 http://www.garmin.com/xmlschemas/GpxExtensionsv3.xsd http://www.garmin.com/xmlschemas/TrackPointExtension/v1 http://www.garmin.com/xmlschemas/TrackPointExtensionv1.xsd" xmlns:gpxtpx="http://www.garmin.com/xmlschemas/TrackPointExtension/v1" xmlns:gpxx="http://www.garmin.com/xmlschemas/GpxExtensions/v3" xmlns:xsi="http://www.w3.org/2001/XMLSchema-instance">
  <metadata>
    <link href="https://www.youtrack.es">
      <text>YouTrack.es</text>
    </link>
    <time>2026-05-08T02:27:46Z</time>
  </metadata>
  <trk>
    <src>https://www.youtrack.es</src>
    <link href="https://www.youtrack.es/ruta/2458-camino-sanabres--ourense-castro-do-ozon">
      <text>YouTrack.es</text>
    </link>
    <trkseg>
      <trkpt lat="42.349805" lon="-7.87160333">
        <ele>139.0</ele>
        <time>2018-10-03T06:10:02.000Z</time>
      </trkpt>
      <trkpt lat="42.349805" lon="-7.87160333">
        <ele>139.0</ele>
        <time>2018-10-03T06:10:03.000Z</time>
      </trkpt>
      <trkpt lat="42.349805" lon="-7.87160333">
        <ele>139.0</ele>
        <time>2018-10-03T06:10:04.000Z</time>
      </trkpt>
      <trkpt lat="42.349805" lon="-7.87160333">
        <ele>139.0</ele>
        <time>2018-10-03T06:10:05.000Z</time>
      </trkpt>
      <trkpt lat="42.34980667" lon="-7.871585">
        <ele>141.0</ele>
        <time>2018-10-03T06:10:06.000Z</time>
      </trkpt>
      <trkpt lat="42.349805" lon="-7.87158333">
        <ele>141.0</ele>
        <time>2018-10-03T06:10:07.000Z</time>
      </trkpt>
      <trkpt lat="42.34980833" lon="-7.87158333">
        <ele>142.0</ele>
        <time>2018-10-03T06:10:08.000Z</time>
      </trkpt>
      <trkpt lat="42.34981167" lon="-7.87158333">
        <ele>143.0</ele>
        <time>2018-10-03T06:10:09.000Z</time>
      </trkpt>
      <trkpt lat="42.34982" lon="-7.87158833">
        <ele>144.0</ele>
        <time>2018-10-03T06:10:10.000Z</time>
      </trkpt>
      <trkpt lat="42.34983" lon="-7.87159">
        <ele>144.0</ele>
        <time>2018-10-03T06:10:11.000Z</time>
      </trkpt>
      <trkpt lat="42.34984167" lon="-7.87158833">
        <ele>144.0</ele>
        <time>2018-10-03T06:10:12.000Z</time>
      </trkpt>
      <trkpt lat="42.34985333" lon="-7.871585">
        <ele>145.0</ele>
        <time>2018-10-03T06:10:13.000Z</time>
      </trkpt>
      <trkpt lat="42.349865" lon="-7.87158167">
        <ele>145.0</ele>
        <time>2018-10-03T06:10:14.000Z</time>
      </trkpt>
      <trkpt lat="42.34987667" lon="-7.87157333">
        <ele>145.0</ele>
        <time>2018-10-03T06:10:15.000Z</time>
      </trkpt>
      <trkpt lat="42.34989" lon="-7.87156167">
        <ele>144.0</ele>
        <time>2018-10-03T06:10:16.000Z</time>
      </trkpt>
      <trkpt lat="42.34990333" lon="-7.87154833">
        <ele>144.0</ele>
        <time>2018-10-03T06:10:17.000Z</time>
      </trkpt>
      <trkpt lat="42.34991167" lon="-7.87153333">
        <ele>145.0</ele>
        <time>2018-10-03T06:10:18.000Z</time>
      </trkpt>
      <trkpt lat="42.34991833" lon="-7.87151667">
        <ele>145.0</ele>
        <time>2018-10-03T06:10:19.000Z</time>
      </trkpt>
      <trkpt lat="42.34992" lon="-7.8715">
        <ele>145.0</ele>
        <time>2018-10-03T06:10:20.000Z</time>
      </trkpt>
      <trkpt lat="42.34992167" lon="-7.87148333">
        <ele>146.0</ele>
        <time>2018-10-03T06:10:21.000Z</time>
      </trkpt>
      <trkpt lat="42.349925" lon="-7.87146333">
        <ele>146.0</ele>
        <time>2018-10-03T06:10:22.000Z</time>
      </trkpt>
      <trkpt lat="42.34992833" lon="-7.87144833">
        <ele>146.0</ele>
        <time>2018-10-03T06:10:23.000Z</time>
      </trkpt>
      <trkpt lat="42.34993" lon="-7.87143167">
        <ele>146.0</ele>
        <time>2018-10-03T06:10:24.000Z</time>
      </trkpt>
      <trkpt lat="42.34993167" lon="-7.87141167">
        <ele>146.0</ele>
        <time>2018-10-03T06:10:25.000Z</time>
      </trkpt>
      <trkpt lat="42.34993333" lon="-7.87139167">
        <ele>147.0</ele>
        <time>2018-10-03T06:10:26.000Z</time>
      </trkpt>
      <trkpt lat="42.34993833" lon="-7.87136833">
        <ele>146.0</ele>
        <time>2018-10-03T06:10:27.000Z</time>
      </trkpt>
      <trkpt lat="42.34994167" lon="-7.87134667">
        <ele>146.0</ele>
        <time>2018-10-03T06:10:28.000Z</time>
      </trkpt>
      <trkpt lat="42.34994667" lon="-7.871325">
        <ele>146.0</ele>
        <time>2018-10-03T06:10:29.000Z</time>
      </trkpt>
      <trkpt lat="42.34994833" lon="-7.87130167">
        <ele>146.0</ele>
        <time>2018-10-03T06:10:30.000Z</time>
      </trkpt>
      <trkpt lat="42.34995" lon="-7.87127833">
        <ele>147.0</ele>
        <time>2018-10-03T06:10:31.000Z</time>
      </trkpt>
      <trkpt lat="42.34994667" lon="-7.871255">
        <ele>147.0</ele>
        <time>2018-10-03T06:10:32.000Z</time>
      </trkpt>
      <trkpt lat="42.349945" lon="-7.87123">
        <ele>147.0</ele>
        <time>2018-10-03T06:10:33.000Z</time>
      </trkpt>
      <trkpt lat="42.34994333" lon="-7.87120667">
        <ele>148.0</ele>
        <time>2018-10-03T06:10:34.000Z</time>
      </trkpt>
      <trkpt lat="42.34994167" lon="-7.871185">
        <ele>148.0</ele>
        <time>2018-10-03T06:10:35.000Z</time>
      </trkpt>
      <trkpt lat="42.34993667" lon="-7.87116667">
        <ele>149.0</ele>
        <time>2018-10-03T06:10:36.000Z</time>
      </trkpt>
      <trkpt lat="42.34993167" lon="-7.87114667">
        <ele>149.0</ele>
        <time>2018-10-03T06:10:37.000Z</time>
      </trkpt>
      <trkpt lat="42.34992833" lon="-7.87112833">
        <ele>150.0</ele>
        <time>2018-10-03T06:10:38.000Z</time>
      </trkpt>
      <trkpt lat="42.349925" lon="-7.87110667">
        <ele>150.0</ele>
        <time>2018-10-03T06:10:39.000Z</time>
      </trkpt>
      <trkpt lat="42.34992333" lon="-7.871085">
        <ele>151.0</ele>
        <time>2018-10-03T06:10:40.000Z</time>
      </trkpt>
      <trkpt lat="42.34992" lon="-7.871065">
        <ele>151.0</ele>
        <time>2018-10-03T06:10:41.000Z</time>
      </trkpt>
      <trkpt lat="42.34991833" lon="-7.871045">
        <ele>151.0</ele>
        <time>2018-10-03T06:10:42.000Z</time>
      </trkpt>
      <trkpt lat="42.34991833" lon="-7.87102333">
        <ele>152.0</ele>
        <time>2018-10-03T06:10:43.000Z</time>
      </trkpt>
      <trkpt lat="42.34991833" lon="-7.87100167">
        <ele>152.0</ele>
        <time>2018-10-03T06:10:44.000Z</time>
      </trkpt>
      <trkpt lat="42.34992167" lon="-7.87098">
        <ele>152.0</ele>
        <time>2018-10-03T06:10:45.000Z</time>
      </trkpt>
      <trkpt lat="42.34992333" lon="-7.87095833">
        <ele>153.0</ele>
        <time>2018-10-03T06:10:46.000Z</time>
      </trkpt>
      <trkpt lat="42.34992333" lon="-7.870935">
        <ele>153.0</ele>
        <time>2018-10-03T06:10:47.000Z</time>
      </trkpt>
      <trkpt lat="42.34992333" lon="-7.87091">
        <ele>153.0</ele>
        <time>2018-10-03T06:10:48.000Z</time>
      </trkpt>
      <trkpt lat="42.34992833" lon="-7.87088333">
        <ele>153.0</ele>
        <time>2018-10-03T06:10:49.000Z</time>
      </trkpt>
      <trkpt lat="42.34993" lon="-7.87085833">
        <ele>153.0</ele>
        <time>2018-10-03T06:10:50.000Z</time>
      </trkpt>
      <trkpt lat="42.349935" lon="-7.87083333">
        <ele>153.0</ele>
        <time>2018-10-03T06:10:51.000Z</time>
      </trkpt>
      <trkpt lat="42.34993833" lon="-7.87080833">
        <ele>152.0</ele>
        <time>2018-10-03T06:10:52.000Z</time>
      </trkpt>
      <trkpt lat="42.349945" lon="-7.870785">
        <ele>152.0</ele>
        <time>2018-10-03T06:10:53.000Z</time>
      </trkpt>
      <trkpt lat="42.34995" lon="-7.87076167">
        <ele>152.0</ele>
        <time>2018-10-03T06:10:54.000Z</time>
      </trkpt>
      <trkpt lat="42.34995167" lon="-7.870735">
        <ele>152.0</ele>
        <time>2018-10-03T06:10:55.000Z</time>
      </trkpt>
      <trkpt lat="42.34995333" lon="-7.87071">
        <ele>152.0</ele>
        <time>2018-10-03T06:10:56.000Z</time>
      </trkpt>
      <trkpt lat="42.349955" lon="-7.87068333">
        <ele>151.0</ele>
        <time>2018-10-03T06:10:57.000Z</time>
      </trkpt>
      <trkpt lat="42.34995667" lon="-7.87065667">
        <ele>151.0</ele>
        <time>2018-10-03T06:10:58.000Z</time>
      </trkpt>
      <trkpt lat="42.34995833" lon="-7.87063333">
        <ele>151.0</ele>
        <time>2018-10-03T06:10:59.000Z</time>
      </trkpt>
      <trkpt lat="42.34996" lon="-7.87061">
        <ele>151.0</ele>
        <time>2018-10-03T06:11:00.000Z</time>
      </trkpt>
      <trkpt lat="42.34996" lon="-7.87058667">
        <ele>151.0</ele>
        <time>2018-10-03T06:11:01.000Z</time>
      </trkpt>
      <trkpt lat="42.34995667" lon="-7.87056167">
        <ele>151.0</ele>
        <time>2018-10-03T06:11:02.000Z</time>
      </trkpt>
      <trkpt lat="42.349955" lon="-7.87053333">
        <ele>151.0</ele>
        <time>2018-10-03T06:11:03.000Z</time>
      </trkpt>
      <trkpt lat="42.349955" lon="-7.87051">
        <ele>151.0</ele>
        <time>2018-10-03T06:11:04.000Z</time>
      </trkpt>
      <trkpt lat="42.34994667" lon="-7.87048667">
        <ele>151.0</ele>
        <time>2018-10-03T06:11:05.000Z</time>
      </trkpt>
      <trkpt lat="42.34993833" lon="-7.87046333">
        <ele>151.0</ele>
        <time>2018-10-03T06:11:06.000Z</time>
      </trkpt>
      <trkpt lat="42.34993167" lon="-7.87044">
        <ele>151.0</ele>
        <time>2018-10-03T06:11:07.000Z</time>
      </trkpt>
      <trkpt lat="42.34992833" lon="-7.87041667">
        <ele>151.0</ele>
        <time>2018-10-03T06:11:08.000Z</time>
      </trkpt>
      <trkpt lat="42.34992333" lon="-7.870395">
        <ele>151.0</ele>
        <time>2018-10-03T06:11:09.000Z</time>
      </trkpt>
      <trkpt lat="42.34991833" lon="-7.87036667">
        <ele>150.0</ele>
        <time>2018-10-03T06:11:10.000Z</time>
      </trkpt>
      <trkpt lat="42.349915" lon="-7.87033833">
        <ele>150.0</ele>
        <time>2018-10-03T06:11:11.000Z</time>
      </trkpt>
      <trkpt lat="42.349915" lon="-7.87031167">
        <ele>150.0</ele>
        <time>2018-10-03T06:11:12.000Z</time>
      </trkpt>
      <trkpt lat="42.349915" lon="-7.87028667">
        <ele>150.0</ele>
        <time>2018-10-03T06:11:13.000Z</time>
      </trkpt>
      <trkpt lat="42.34991667" lon="-7.87026167">
        <ele>150.0</ele>
        <time>2018-10-03T06:11:14.000Z</time>
      </trkpt>
      <trkpt lat="42.34992167" lon="-7.87023333">
        <ele>150.0</ele>
        <time>2018-10-03T06:11:15.000Z</time>
      </trkpt>
      <trkpt lat="42.34992333" lon="-7.87020667">
        <ele>150.0</ele>
        <time>2018-10-03T06:11:16.000Z</time>
      </trkpt>
      <trkpt lat="42.34992167" lon="-7.87018">
        <ele>149.0</ele>
        <time>2018-10-03T06:11:17.000Z</time>
      </trkpt>
      <trkpt lat="42.34992333" lon="-7.87015167">
        <ele>149.0</ele>
        <time>2018-10-03T06:11:18.000Z</time>
      </trkpt>
      <trkpt lat="42.34992333" lon="-7.870125">
        <ele>149.0</ele>
        <time>2018-10-03T06:11:19.000Z</time>
      </trkpt>
      <trkpt lat="42.34991833" lon="-7.870095">
        <ele>148.0</ele>
        <time>2018-10-03T06:11:20.000Z</time>
      </trkpt>
      <trkpt lat="42.349915" lon="-7.87006333">
        <ele>148.0</ele>
        <time>2018-10-03T06:11:21.000Z</time>
      </trkpt>
      <trkpt lat="42.349915" lon="-7.87003333">
        <ele>148.0</ele>
        <time>2018-10-03T06:11:22.000Z</time>
      </trkpt>
      <trkpt lat="42.34991667" lon="-7.87000333">
        <ele>147.0</ele>
        <time>2018-10-03T06:11:23.000Z</time>
      </trkpt>
      <trkpt lat="42.34992167" lon="-7.869975">
        <ele>147.0</ele>
        <time>2018-10-03T06:11:24.000Z</time>
      </trkpt>
      <trkpt lat="42.34992167" lon="-7.86994833">
        <ele>147.0</ele>
        <time>2018-10-03T06:11:25.000Z</time>
      </trkpt>
      <trkpt lat="42.34992333" lon="-7.86992167">
        <ele>146.0</ele>
        <time>2018-10-03T06:11:26.000Z</time>
      </trkpt>
      <trkpt lat="42.349925" lon="-7.86989167">
        <ele>146.0</ele>
        <time>2018-10-03T06:11:27.000Z</time>
      </trkpt>
      <trkpt lat="42.349925" lon="-7.86986">
        <ele>146.0</ele>
        <time>2018-10-03T06:11:28.000Z</time>
      </trkpt>
      <trkpt lat="42.34992667" lon="-7.86983">
        <ele>146.0</ele>
        <time>2018-10-03T06:11:29.000Z</time>
      </trkpt>
      <trkpt lat="42.34993" lon="-7.86980333">
        <ele>145.0</ele>
        <time>2018-10-03T06:11:30.000Z</time>
      </trkpt>
      <trkpt lat="42.34993333" lon="-7.86977667">
        <ele>145.0</ele>
        <time>2018-10-03T06:11:31.000Z</time>
      </trkpt>
      <trkpt lat="42.34993667" lon="-7.86975">
        <ele>145.0</ele>
        <time>2018-10-03T06:11:32.000Z</time>
      </trkpt>
      <trkpt lat="42.34993667" lon="-7.86972333">
        <ele>145.0</ele>
        <time>2018-10-03T06:11:33.000Z</time>
      </trkpt>
      <trkpt lat="42.34993667" lon="-7.86970167">
        <ele>145.0</ele>
        <time>2018-10-03T06:11:34.000Z</time>
      </trkpt>
      <trkpt lat="42.34993833" lon="-7.86967833">
        <ele>145.0</ele>
        <time>2018-10-03T06:11:35.000Z</time>
      </trkpt>
      <trkpt lat="42.34993667" lon="-7.86965667">
        <ele>145.0</ele>
        <time>2018-10-03T06:11:36.000Z</time>
      </trkpt>
      <trkpt lat="42.349935" lon="-7.86963167">
        <ele>145.0</ele>
        <time>2018-10-03T06:11:37.000Z</time>
      </trkpt>
      <trkpt lat="42.34993167" lon="-7.86960833">
        <ele>145.0</ele>
        <time>2018-10-03T06:11:38.000Z</time>
      </trkpt>
      <trkpt lat="42.34993" lon="-7.86958667">
        <ele>145.0</ele>
        <time>2018-10-03T06:11:39.000Z</time>
      </trkpt>
      <trkpt lat="42.34993" lon="-7.86956833">
        <ele>145.0</ele>
        <time>2018-10-03T06:11:40.000Z</time>
      </trkpt>
      <trkpt lat="42.34992667" lon="-7.86955167">
        <ele>145.0</ele>
        <time>2018-10-03T06:11:41.000Z</time>
      </trkpt>
      <trkpt lat="42.349925" lon="-7.86953">
        <ele>146.0</ele>
        <time>2018-10-03T06:11:42.000Z</time>
      </trkpt>
      <trkpt lat="42.34992167" lon="-7.86950833">
        <ele>146.0</ele>
        <time>2018-10-03T06:11:43.000Z</time>
      </trkpt>
      <trkpt lat="42.34991833" lon="-7.86948833">
        <ele>146.0</ele>
        <time>2018-10-03T06:11:44.000Z</time>
      </trkpt>
      <trkpt lat="42.349915" lon="-7.86946833">
        <ele>146.0</ele>
        <time>2018-10-03T06:11:45.000Z</time>
      </trkpt>
      <trkpt lat="42.34991333" lon="-7.86944833">
        <ele>146.0</ele>
        <time>2018-10-03T06:11:46.000Z</time>
      </trkpt>
      <trkpt lat="42.34991333" lon="-7.869425">
        <ele>147.0</ele>
        <time>2018-10-03T06:11:47.000Z</time>
      </trkpt>
      <trkpt lat="42.349915" lon="-7.86940333">
        <ele>147.0</ele>
        <time>2018-10-03T06:11:48.000Z</time>
      </trkpt>
      <trkpt lat="42.349915" lon="-7.86938333">
        <ele>147.0</ele>
        <time>2018-10-03T06:11:49.000Z</time>
      </trkpt>
      <trkpt lat="42.349915" lon="-7.86936333">
        <ele>147.0</ele>
        <time>2018-10-03T06:11:50.000Z</time>
      </trkpt>
      <trkpt lat="42.34991667" lon="-7.86934167">
        <ele>147.0</ele>
        <time>2018-10-03T06:11:51.000Z</time>
      </trkpt>
      <trkpt lat="42.34991833" lon="-7.86932">
        <ele>147.0</ele>
        <time>2018-10-03T06:11:52.000Z</time>
      </trkpt>
      <trkpt lat="42.34992167" lon="-7.86929333">
        <ele>147.0</ele>
        <time>2018-10-03T06:11:53.000Z</time>
      </trkpt>
      <trkpt lat="42.34992667" lon="-7.869265">
        <ele>148.0</ele>
        <time>2018-10-03T06:11:54.000Z</time>
      </trkpt>
      <trkpt lat="42.34993167" lon="-7.86924">
        <ele>148.0</ele>
        <time>2018-10-03T06:11:55.000Z</time>
      </trkpt>
      <trkpt lat="42.349935" lon="-7.86921833">
        <ele>148.0</ele>
        <time>2018-10-03T06:11:56.000Z</time>
      </trkpt>
      <trkpt lat="42.34993667" lon="-7.869195">
        <ele>148.0</ele>
        <time>2018-10-03T06:11:57.000Z</time>
      </trkpt>
      <trkpt lat="42.34994" lon="-7.86917">
        <ele>148.0</ele>
        <time>2018-10-03T06:11:58.000Z</time>
      </trkpt>
      <trkpt lat="42.34994333" lon="-7.86914">
        <ele>148.0</ele>
        <time>2018-10-03T06:11:59.000Z</time>
      </trkpt>
      <trkpt lat="42.349945" lon="-7.86910833">
        <ele>148.0</ele>
        <time>2018-10-03T06:12:00.000Z</time>
      </trkpt>
      <trkpt lat="42.349945" lon="-7.86908167">
        <ele>148.0</ele>
        <time>2018-10-03T06:12:01.000Z</time>
      </trkpt>
      <trkpt lat="42.34994667" lon="-7.869055">
        <ele>148.0</ele>
        <time>2018-10-03T06:12:02.000Z</time>
      </trkpt>
      <trkpt lat="42.34995" lon="-7.86902833">
        <ele>148.0</ele>
        <time>2018-10-03T06:12:03.000Z</time>
      </trkpt>
      <trkpt lat="42.34995333" lon="-7.869">
        <ele>148.0</ele>
        <time>2018-10-03T06:12:04.000Z</time>
      </trkpt>
      <trkpt lat="42.34995333" lon="-7.86897167">
        <ele>148.0</ele>
        <time>2018-10-03T06:12:05.000Z</time>
      </trkpt>
      <trkpt lat="42.34995333" lon="-7.868945">
        <ele>148.0</ele>
        <time>2018-10-03T06:12:06.000Z</time>
      </trkpt>
      <trkpt lat="42.34995333" lon="-7.86891833">
        <ele>148.0</ele>
        <time>2018-10-03T06:12:07.000Z</time>
      </trkpt>
      <trkpt lat="42.34995667" lon="-7.868895">
        <ele>148.0</ele>
        <time>2018-10-03T06:12:08.000Z</time>
      </trkpt>
      <trkpt lat="42.349955" lon="-7.868875">
        <ele>148.0</ele>
        <time>2018-10-03T06:12:09.000Z</time>
      </trkpt>
      <trkpt lat="42.349955" lon="-7.868855">
        <ele>149.0</ele>
        <time>2018-10-03T06:12:10.000Z</time>
      </trkpt>
      <trkpt lat="42.34995333" lon="-7.868835">
        <ele>149.0</ele>
        <time>2018-10-03T06:12:11.000Z</time>
      </trkpt>
      <trkpt lat="42.34995167" lon="-7.86881833">
        <ele>149.0</ele>
        <time>2018-10-03T06:12:12.000Z</time>
      </trkpt>
      <trkpt lat="42.34995167" lon="-7.86879833">
        <ele>149.0</ele>
        <time>2018-10-03T06:12:13.000Z</time>
      </trkpt>
      <trkpt lat="42.34995167" lon="-7.86877833">
        <ele>149.0</ele>
        <time>2018-10-03T06:12:14.000Z</time>
      </trkpt>
      <trkpt lat="42.34995" lon="-7.86875833">
        <ele>149.0</ele>
        <time>2018-10-03T06:12:15.000Z</time>
      </trkpt>
      <trkpt lat="42.34995167" lon="-7.86873667">
        <ele>150.0</ele>
        <time>2018-10-03T06:12:16.000Z</time>
      </trkpt>
      <trkpt lat="42.34995333" lon="-7.86871333">
        <ele>150.0</ele>
        <time>2018-10-03T06:12:17.000Z</time>
      </trkpt>
      <trkpt lat="42.34995333" lon="-7.86869667">
        <ele>150.0</ele>
        <time>2018-10-03T06:12:18.000Z</time>
      </trkpt>
      <trkpt lat="42.34995167" lon="-7.86868">
        <ele>150.0</ele>
        <time>2018-10-03T06:12:19.000Z</time>
      </trkpt>
      <trkpt lat="42.34995167" lon="-7.868665">
        <ele>151.0</ele>
        <time>2018-10-03T06:12:20.000Z</time>
      </trkpt>
      <trkpt lat="42.34994833" lon="-7.86865">
        <ele>151.0</ele>
        <time>2018-10-03T06:12:21.000Z</time>
      </trkpt>
      <trkpt lat="42.34994667" lon="-7.868635">
        <ele>151.0</ele>
        <time>2018-10-03T06:12:22.000Z</time>
      </trkpt>
      <trkpt lat="42.34994333" lon="-7.86862">
        <ele>151.0</ele>
        <time>2018-10-03T06:12:23.000Z</time>
      </trkpt>
      <trkpt lat="42.34993667" lon="-7.868605">
        <ele>152.0</ele>
        <time>2018-10-03T06:12:24.000Z</time>
      </trkpt>
      <trkpt lat="42.34992833" lon="-7.86858667">
        <ele>152.0</ele>
        <time>2018-10-03T06:12:25.000Z</time>
      </trkpt>
      <trkpt lat="42.34992" lon="-7.86856833">
        <ele>152.0</ele>
        <time>2018-10-03T06:12:26.000Z</time>
      </trkpt>
      <trkpt lat="42.34991167" lon="-7.86854667">
        <ele>152.0</ele>
        <time>2018-10-03T06:12:27.000Z</time>
      </trkpt>
      <trkpt lat="42.34990333" lon="-7.868525">
        <ele>153.0</ele>
        <time>2018-10-03T06:12:28.000Z</time>
      </trkpt>
      <trkpt lat="42.34989667" lon="-7.868505">
        <ele>153.0</ele>
        <time>2018-10-03T06:12:29.000Z</time>
      </trkpt>
      <trkpt lat="42.34989" lon="-7.86848667">
        <ele>153.0</ele>
        <time>2018-10-03T06:12:30.000Z</time>
      </trkpt>
      <trkpt lat="42.34988667" lon="-7.86846667">
        <ele>153.0</ele>
        <time>2018-10-03T06:12:31.000Z</time>
      </trkpt>
      <trkpt lat="42.34988333" lon="-7.868445">
        <ele>154.0</ele>
        <time>2018-10-03T06:12:32.000Z</time>
      </trkpt>
      <trkpt lat="42.34988333" lon="-7.86842">
        <ele>154.0</ele>
        <time>2018-10-03T06:12:33.000Z</time>
      </trkpt>
      <trkpt lat="42.34988333" lon="-7.86839333">
        <ele>154.0</ele>
        <time>2018-10-03T06:12:34.000Z</time>
      </trkpt>
      <trkpt lat="42.34988667" lon="-7.86836833">
        <ele>154.0</ele>
        <time>2018-10-03T06:12:35.000Z</time>
      </trkpt>
      <trkpt lat="42.34989" lon="-7.86834167">
        <ele>154.0</ele>
        <time>2018-10-03T06:12:36.000Z</time>
      </trkpt>
      <trkpt lat="42.34989333" lon="-7.86831333">
        <ele>154.0</ele>
        <time>2018-10-03T06:12:37.000Z</time>
      </trkpt>
      <trkpt lat="42.34989667" lon="-7.86828333">
        <ele>154.0</ele>
        <time>2018-10-03T06:12:38.000Z</time>
      </trkpt>
      <trkpt lat="42.3499" lon="-7.86825167">
        <ele>155.0</ele>
        <time>2018-10-03T06:12:39.000Z</time>
      </trkpt>
      <trkpt lat="42.34990167" lon="-7.86821833">
        <ele>155.0</ele>
        <time>2018-10-03T06:12:40.000Z</time>
      </trkpt>
      <trkpt lat="42.34990333" lon="-7.86819">
        <ele>155.0</ele>
        <time>2018-10-03T06:12:41.000Z</time>
      </trkpt>
      <trkpt lat="42.34990667" lon="-7.86816">
        <ele>155.0</ele>
        <time>2018-10-03T06:12:42.000Z</time>
      </trkpt>
      <trkpt lat="42.34990833" lon="-7.86812833">
        <ele>155.0</ele>
        <time>2018-10-03T06:12:43.000Z</time>
      </trkpt>
      <trkpt lat="42.34991" lon="-7.8681">
        <ele>155.0</ele>
        <time>2018-10-03T06:12:44.000Z</time>
      </trkpt>
      <trkpt lat="42.349915" lon="-7.868075">
        <ele>155.0</ele>
        <time>2018-10-03T06:12:45.000Z</time>
      </trkpt>
      <trkpt lat="42.34991833" lon="-7.86804833">
        <ele>155.0</ele>
        <time>2018-10-03T06:12:46.000Z</time>
      </trkpt>
      <trkpt lat="42.34992" lon="-7.868025">
        <ele>155.0</ele>
        <time>2018-10-03T06:12:47.000Z</time>
      </trkpt>
      <trkpt lat="42.34992" lon="-7.86800167">
        <ele>155.0</ele>
        <time>2018-10-03T06:12:48.000Z</time>
      </trkpt>
      <trkpt lat="42.34991833" lon="-7.86797667">
        <ele>155.0</ele>
        <time>2018-10-03T06:12:49.000Z</time>
      </trkpt>
      <trkpt lat="42.34991833" lon="-7.86795333">
        <ele>155.0</ele>
        <time>2018-10-03T06:12:50.000Z</time>
      </trkpt>
      <trkpt lat="42.34992" lon="-7.86793">
        <ele>155.0</ele>
        <time>2018-10-03T06:12:51.000Z</time>
      </trkpt>
      <trkpt lat="42.34992333" lon="-7.86790667">
        <ele>155.0</ele>
        <time>2018-10-03T06:12:52.000Z</time>
      </trkpt>
      <trkpt lat="42.34993" lon="-7.867885">
        <ele>155.0</ele>
        <time>2018-10-03T06:12:53.000Z</time>
      </trkpt>
      <trkpt lat="42.349935" lon="-7.86786167">
        <ele>155.0</ele>
        <time>2018-10-03T06:12:54.000Z</time>
      </trkpt>
      <trkpt lat="42.34994167" lon="-7.86783833">
        <ele>155.0</ele>
        <time>2018-10-03T06:12:55.000Z</time>
      </trkpt>
      <trkpt lat="42.34995167" lon="-7.86781667">
        <ele>155.0</ele>
        <time>2018-10-03T06:12:56.000Z</time>
      </trkpt>
      <trkpt lat="42.34995667" lon="-7.86779167">
        <ele>155.0</ele>
        <time>2018-10-03T06:12:57.000Z</time>
      </trkpt>
      <trkpt lat="42.34996" lon="-7.86776833">
        <ele>156.0</ele>
        <time>2018-10-03T06:12:58.000Z</time>
      </trkpt>
      <trkpt lat="42.34996167" lon="-7.867745">
        <ele>156.0</ele>
        <time>2018-10-03T06:12:59.000Z</time>
      </trkpt>
      <trkpt lat="42.34996" lon="-7.86772167">
        <ele>156.0</ele>
        <time>2018-10-03T06:13:00.000Z</time>
      </trkpt>
      <trkpt lat="42.34995167" lon="-7.8677">
        <ele>155.0</ele>
        <time>2018-10-03T06:13:01.000Z</time>
      </trkpt>
      <trkpt lat="42.34993833" lon="-7.867685">
        <ele>155.0</ele>
        <time>2018-10-03T06:13:02.000Z</time>
      </trkpt>
      <trkpt lat="42.34992167" lon="-7.867675">
        <ele>155.0</ele>
        <time>2018-10-03T06:13:03.000Z</time>
      </trkpt>
      <trkpt lat="42.34990167" lon="-7.86766833">
        <ele>155.0</ele>
        <time>2018-10-03T06:13:04.000Z</time>
      </trkpt>
      <trkpt lat="42.34988333" lon="-7.86766167">
        <ele>155.0</ele>
        <time>2018-10-03T06:13:05.000Z</time>
      </trkpt>
      <trkpt lat="42.34986333" lon="-7.86765333">
        <ele>155.0</ele>
        <time>2018-10-03T06:13:06.000Z</time>
      </trkpt>
      <trkpt lat="42.34984333" lon="-7.86764667">
        <ele>154.0</ele>
        <time>2018-10-03T06:13:07.000Z</time>
      </trkpt>
      <trkpt lat="42.34982833" lon="-7.86764167">
        <ele>154.0</ele>
        <time>2018-10-03T06:13:08.000Z</time>
      </trkpt>
      <trkpt lat="42.34981333" lon="-7.867635">
        <ele>154.0</ele>
        <time>2018-10-03T06:13:09.000Z</time>
      </trkpt>
      <trkpt lat="42.34980333" lon="-7.867625">
        <ele>154.0</ele>
        <time>2018-10-03T06:13:10.000Z</time>
      </trkpt>
      <trkpt lat="42.34979333" lon="-7.86760667">
        <ele>153.0</ele>
        <time>2018-10-03T06:13:11.000Z</time>
      </trkpt>
      <trkpt lat="42.34978667" lon="-7.86758167">
        <ele>153.0</ele>
        <time>2018-10-03T06:13:12.000Z</time>
      </trkpt>
      <trkpt lat="42.34978333" lon="-7.86756">
        <ele>152.0</ele>
        <time>2018-10-03T06:13:13.000Z</time>
      </trkpt>
      <trkpt lat="42.34978333" lon="-7.86753333">
        <ele>152.0</ele>
        <time>2018-10-03T06:13:14.000Z</time>
      </trkpt>
      <trkpt lat="42.34978167" lon="-7.86751">
        <ele>151.0</ele>
        <time>2018-10-03T06:13:15.000Z</time>
      </trkpt>
      <trkpt lat="42.34978333" lon="-7.867485">
        <ele>151.0</ele>
        <time>2018-10-03T06:13:16.000Z</time>
      </trkpt>
      <trkpt lat="42.349785" lon="-7.86746167">
        <ele>150.0</ele>
        <time>2018-10-03T06:13:17.000Z</time>
      </trkpt>
      <trkpt lat="42.34978833" lon="-7.867435">
        <ele>150.0</ele>
        <time>2018-10-03T06:13:18.000Z</time>
      </trkpt>
      <trkpt lat="42.34979167" lon="-7.86741">
        <ele>149.0</ele>
        <time>2018-10-03T06:13:19.000Z</time>
      </trkpt>
      <trkpt lat="42.34978833" lon="-7.86738333">
        <ele>148.0</ele>
        <time>2018-10-03T06:13:20.000Z</time>
      </trkpt>
      <trkpt lat="42.34978667" lon="-7.86736167">
        <ele>147.0</ele>
        <time>2018-10-03T06:13:21.000Z</time>
      </trkpt>
      <trkpt lat="42.349785" lon="-7.86733667">
        <ele>147.0</ele>
        <time>2018-10-03T06:13:22.000Z</time>
      </trkpt>
      <trkpt lat="42.349785" lon="-7.867315">
        <ele>146.0</ele>
        <time>2018-10-03T06:13:23.000Z</time>
      </trkpt>
      <trkpt lat="42.349785" lon="-7.86729333">
        <ele>146.0</ele>
        <time>2018-10-03T06:13:24.000Z</time>
      </trkpt>
      <trkpt lat="42.34978333" lon="-7.86727167">
        <ele>145.0</ele>
        <time>2018-10-03T06:13:25.000Z</time>
      </trkpt>
      <trkpt lat="42.34978" lon="-7.86724667">
        <ele>145.0</ele>
        <time>2018-10-03T06:13:26.000Z</time>
      </trkpt>
      <trkpt lat="42.349775" lon="-7.86722167">
        <ele>144.0</ele>
        <time>2018-10-03T06:13:27.000Z</time>
      </trkpt>
      <trkpt lat="42.34977167" lon="-7.86719667">
        <ele>144.0</ele>
        <time>2018-10-03T06:13:28.000Z</time>
      </trkpt>
      <trkpt lat="42.34976833" lon="-7.86717333">
        <ele>144.0</ele>
        <time>2018-10-03T06:13:29.000Z</time>
      </trkpt>
      <trkpt lat="42.34976333" lon="-7.86715">
        <ele>143.0</ele>
        <time>2018-10-03T06:13:30.000Z</time>
      </trkpt>
      <trkpt lat="42.34975667" lon="-7.86712333">
        <ele>143.0</ele>
        <time>2018-10-03T06:13:31.000Z</time>
      </trkpt>
      <trkpt lat="42.34975" lon="-7.86709833">
        <ele>143.0</ele>
        <time>2018-10-03T06:13:32.000Z</time>
      </trkpt>
      <trkpt lat="42.349745" lon="-7.867075">
        <ele>142.0</ele>
        <time>2018-10-03T06:13:33.000Z</time>
      </trkpt>
      <trkpt lat="42.34974" lon="-7.86705333">
        <ele>142.0</ele>
        <time>2018-10-03T06:13:34.000Z</time>
      </trkpt>
      <trkpt lat="42.34973667" lon="-7.867035">
        <ele>142.0</ele>
        <time>2018-10-03T06:13:35.000Z</time>
      </trkpt>
      <trkpt lat="42.349735" lon="-7.86701667">
        <ele>142.0</ele>
        <time>2018-10-03T06:13:36.000Z</time>
      </trkpt>
      <trkpt lat="42.34973333" lon="-7.86699667">
        <ele>142.0</ele>
        <time>2018-10-03T06:13:37.000Z</time>
      </trkpt>
      <trkpt lat="42.34973" lon="-7.866975">
        <ele>142.0</ele>
        <time>2018-10-03T06:13:38.000Z</time>
      </trkpt>
      <trkpt lat="42.34972833" lon="-7.86695333">
        <ele>142.0</ele>
        <time>2018-10-03T06:13:39.000Z</time>
      </trkpt>
      <trkpt lat="42.34972667" lon="-7.86693333">
        <ele>142.0</ele>
        <time>2018-10-03T06:13:40.000Z</time>
      </trkpt>
      <trkpt lat="42.349725" lon="-7.86691833">
        <ele>142.0</ele>
        <time>2018-10-03T06:13:41.000Z</time>
      </trkpt>
      <trkpt lat="42.349725" lon="-7.86690833">
        <ele>142.0</ele>
        <time>2018-10-03T06:13:42.000Z</time>
      </trkpt>
      <trkpt lat="42.34972667" lon="-7.8669">
        <ele>143.0</ele>
        <time>2018-10-03T06:13:43.000Z</time>
      </trkpt>
      <trkpt lat="42.34972667" lon="-7.86689333">
        <ele>143.0</ele>
        <time>2018-10-03T06:13:44.000Z</time>
      </trkpt>
      <trkpt lat="42.349725" lon="-7.86688667">
        <ele>143.0</ele>
        <time>2018-10-03T06:13:45.000Z</time>
      </trkpt>
      <trkpt lat="42.34972333" lon="-7.86688">
        <ele>143.0</ele>
        <time>2018-10-03T06:13:46.000Z</time>
      </trkpt>
      <trkpt lat="42.34972" lon="-7.866875">
        <ele>143.0</ele>
        <time>2018-10-03T06:13:47.000Z</time>
      </trkpt>
      <trkpt lat="42.349715" lon="-7.86687333">
        <ele>143.0</ele>
        <time>2018-10-03T06:13:48.000Z</time>
      </trkpt>
      <trkpt lat="42.34971" lon="-7.86687">
        <ele>143.0</ele>
        <time>2018-10-03T06:13:49.000Z</time>
      </trkpt>
      <trkpt lat="42.34970833" lon="-7.86687">
        <ele>143.0</ele>
        <time>2018-10-03T06:13:50.000Z</time>
      </trkpt>
      <trkpt lat="42.34970333" lon="-7.86687">
        <ele>144.0</ele>
        <time>2018-10-03T06:13:51.000Z</time>
      </trkpt>
      <trkpt lat="42.34969833" lon="-7.86687">
        <ele>144.0</ele>
        <time>2018-10-03T06:13:52.000Z</time>
      </trkpt>
      <trkpt lat="42.34969333" lon="-7.86687">
        <ele>144.0</ele>
        <time>2018-10-03T06:13:53.000Z</time>
      </trkpt>
      <trkpt lat="42.34968833" lon="-7.86687">
        <ele>144.0</ele>
        <time>2018-10-03T06:13:54.000Z</time>
      </trkpt>
      <trkpt lat="42.34968333" lon="-7.86687333">
        <ele>144.0</ele>
        <time>2018-10-03T06:13:55.000Z</time>
      </trkpt>
      <trkpt lat="42.34967667" lon="-7.86687667">
        <ele>144.0</ele>
        <time>2018-10-03T06:13:56.000Z</time>
      </trkpt>
      <trkpt lat="42.34967" lon="-7.86688167">
        <ele>144.0</ele>
        <time>2018-10-03T06:13:57.000Z</time>
      </trkpt>
      <trkpt lat="42.34966167" lon="-7.86688667">
        <ele>144.0</ele>
        <time>2018-10-03T06:13:58.000Z</time>
      </trkpt>
      <trkpt lat="42.349655" lon="-7.86689">
        <ele>144.0</ele>
        <time>2018-10-03T06:13:59.000Z</time>
      </trkpt>
      <trkpt lat="42.34964833" lon="-7.866895">
        <ele>144.0</ele>
        <time>2018-10-03T06:14:00.000Z</time>
      </trkpt>
      <trkpt lat="42.34964167" lon="-7.866895">
        <ele>144.0</ele>
        <time>2018-10-03T06:14:01.000Z</time>
      </trkpt>
      <trkpt lat="42.34963833" lon="-7.86689">
        <ele>144.0</ele>
        <time>2018-10-03T06:14:02.000Z</time>
      </trkpt>
      <trkpt lat="42.34963833" lon="-7.86687667">
        <ele>144.0</ele>
        <time>2018-10-03T06:14:03.000Z</time>
      </trkpt>
      <trkpt lat="42.349645" lon="-7.86686667">
        <ele>144.0</ele>
        <time>2018-10-03T06:14:04.000Z</time>
      </trkpt>
      <trkpt lat="42.34965667" lon="-7.86686">
        <ele>144.0</ele>
        <time>2018-10-03T06:14:05.000Z</time>
      </trkpt>
      <trkpt lat="42.34967" lon="-7.86685667">
        <ele>144.0</ele>
        <time>2018-10-03T06:14:06.000Z</time>
      </trkpt>
      <trkpt lat="42.34968333" lon="-7.86685333">
        <ele>144.0</ele>
        <time>2018-10-03T06:14:07.000Z</time>
      </trkpt>
      <trkpt lat="42.34969833" lon="-7.86685">
        <ele>145.0</ele>
        <time>2018-10-03T06:14:08.000Z</time>
      </trkpt>
      <trkpt lat="42.34971167" lon="-7.86684833">
        <ele>145.0</ele>
        <time>2018-10-03T06:14:09.000Z</time>
      </trkpt>
      <trkpt lat="42.34972333" lon="-7.86684833">
        <ele>145.0</ele>
        <time>2018-10-03T06:14:10.000Z</time>
      </trkpt>
      <trkpt lat="42.34973833" lon="-7.86684333">
        <ele>145.0</ele>
        <time>2018-10-03T06:14:11.000Z</time>
      </trkpt>
      <trkpt lat="42.34975333" lon="-7.866835">
        <ele>145.0</ele>
        <time>2018-10-03T06:14:12.000Z</time>
      </trkpt>
      <trkpt lat="42.34976667" lon="-7.86683">
        <ele>146.0</ele>
        <time>2018-10-03T06:14:13.000Z</time>
      </trkpt>
      <trkpt lat="42.34978167" lon="-7.86682333">
        <ele>146.0</ele>
        <time>2018-10-03T06:14:14.000Z</time>
      </trkpt>
      <trkpt lat="42.34979833" lon="-7.86681833">
        <ele>146.0</ele>
        <time>2018-10-03T06:14:15.000Z</time>
      </trkpt>
      <trkpt lat="42.34981333" lon="-7.86681">
        <ele>146.0</ele>
        <time>2018-10-03T06:14:16.000Z</time>
      </trkpt>
      <trkpt lat="42.34982667" lon="-7.866805">
        <ele>146.0</ele>
        <time>2018-10-03T06:14:17.000Z</time>
      </trkpt>
      <trkpt lat="42.34984167" lon="-7.8668">
        <ele>147.0</ele>
        <time>2018-10-03T06:14:18.000Z</time>
      </trkpt>
      <trkpt lat="42.34985667" lon="-7.86679333">
        <ele>147.0</ele>
        <time>2018-10-03T06:14:19.000Z</time>
      </trkpt>
      <trkpt lat="42.34987333" lon="-7.866785">
        <ele>147.0</ele>
        <time>2018-10-03T06:14:20.000Z</time>
      </trkpt>
      <trkpt lat="42.34988833" lon="-7.86677833">
        <ele>147.0</ele>
        <time>2018-10-03T06:14:21.000Z</time>
      </trkpt>
      <trkpt lat="42.34990167" lon="-7.86677">
        <ele>147.0</ele>
        <time>2018-10-03T06:14:22.000Z</time>
      </trkpt>
      <trkpt lat="42.34991833" lon="-7.86676333">
        <ele>147.0</ele>
        <time>2018-10-03T06:14:23.000Z</time>
      </trkpt>
      <trkpt lat="42.349935" lon="-7.86675667">
        <ele>147.0</ele>
        <time>2018-10-03T06:14:24.000Z</time>
      </trkpt>
      <trkpt lat="42.34995333" lon="-7.86675167">
        <ele>147.0</ele>
        <time>2018-10-03T06:14:25.000Z</time>
      </trkpt>
      <trkpt lat="42.34997167" lon="-7.86674667">
        <ele>148.0</ele>
        <time>2018-10-03T06:14:26.000Z</time>
      </trkpt>
      <trkpt lat="42.34998833" lon="-7.86674167">
        <ele>148.0</ele>
        <time>2018-10-03T06:14:27.000Z</time>
      </trkpt>
      <trkpt lat="42.35000667" lon="-7.866735">
        <ele>148.0</ele>
        <time>2018-10-03T06:14:28.000Z</time>
      </trkpt>
      <trkpt lat="42.350025" lon="-7.86672667">
        <ele>148.0</ele>
        <time>2018-10-03T06:14:29.000Z</time>
      </trkpt>
      <trkpt lat="42.35004333" lon="-7.86671667">
        <ele>148.0</ele>
        <time>2018-10-03T06:14:30.000Z</time>
      </trkpt>
      <trkpt lat="42.35006167" lon="-7.86671">
        <ele>147.0</ele>
        <time>2018-10-03T06:14:31.000Z</time>
      </trkpt>
      <trkpt lat="42.35007667" lon="-7.86670333">
        <ele>147.0</ele>
        <time>2018-10-03T06:14:32.000Z</time>
      </trkpt>
      <trkpt lat="42.35009" lon="-7.86669667">
        <ele>147.0</ele>
        <time>2018-10-03T06:14:33.000Z</time>
      </trkpt>
      <trkpt lat="42.35010333" lon="-7.86668833">
        <ele>147.0</ele>
        <time>2018-10-03T06:14:34.000Z</time>
      </trkpt>
      <trkpt lat="42.350115" lon="-7.86667667">
        <ele>147.0</ele>
        <time>2018-10-03T06:14:35.000Z</time>
      </trkpt>
      <trkpt lat="42.35013" lon="-7.86666667">
        <ele>147.0</ele>
        <time>2018-10-03T06:14:36.000Z</time>
      </trkpt>
      <trkpt lat="42.35014333" lon="-7.86666167">
        <ele>147.0</ele>
        <time>2018-10-03T06:14:37.000Z</time>
      </trkpt>
      <trkpt lat="42.35015667" lon="-7.86666">
        <ele>147.0</ele>
        <time>2018-10-03T06:14:38.000Z</time>
      </trkpt>
      <trkpt lat="42.35016833" lon="-7.86666">
        <ele>148.0</ele>
        <time>2018-10-03T06:14:39.000Z</time>
      </trkpt>
      <trkpt lat="42.35018" lon="-7.86665833">
        <ele>148.0</ele>
        <time>2018-10-03T06:14:40.000Z</time>
      </trkpt>
      <trkpt lat="42.35019167" lon="-7.86665667">
        <ele>148.0</ele>
        <time>2018-10-03T06:14:41.000Z</time>
      </trkpt>
      <trkpt lat="42.35020333" lon="-7.86665">
        <ele>148.0</ele>
        <time>2018-10-03T06:14:42.000Z</time>
      </trkpt>
      <trkpt lat="42.350215" lon="-7.86664333">
        <ele>148.0</ele>
        <time>2018-10-03T06:14:43.000Z</time>
      </trkpt>
      <trkpt lat="42.35022667" lon="-7.86663833">
        <ele>148.0</ele>
        <time>2018-10-03T06:14:44.000Z</time>
      </trkpt>
      <trkpt lat="42.35024" lon="-7.86663667">
        <ele>148.0</ele>
        <time>2018-10-03T06:14:45.000Z</time>
      </trkpt>
      <trkpt lat="42.350255" lon="-7.86663333">
        <ele>149.0</ele>
        <time>2018-10-03T06:14:46.000Z</time>
      </trkpt>
      <trkpt lat="42.35027333" lon="-7.866635">
        <ele>149.0</ele>
        <time>2018-10-03T06:14:47.000Z</time>
      </trkpt>
      <trkpt lat="42.35029167" lon="-7.866635">
        <ele>149.0</ele>
        <time>2018-10-03T06:14:48.000Z</time>
      </trkpt>
      <trkpt lat="42.35031" lon="-7.86663333">
        <ele>149.0</ele>
        <time>2018-10-03T06:14:49.000Z</time>
      </trkpt>
      <trkpt lat="42.35032833" lon="-7.86663667">
        <ele>149.0</ele>
        <time>2018-10-03T06:14:50.000Z</time>
      </trkpt>
      <trkpt lat="42.35034667" lon="-7.86663833">
        <ele>149.0</ele>
        <time>2018-10-03T06:14:51.000Z</time>
      </trkpt>
      <trkpt lat="42.35036333" lon="-7.86664333">
        <ele>149.0</ele>
        <time>2018-10-03T06:14:52.000Z</time>
      </trkpt>
      <trkpt lat="42.350385" lon="-7.86664667">
        <ele>149.0</ele>
        <time>2018-10-03T06:14:53.000Z</time>
      </trkpt>
      <trkpt lat="42.350405" lon="-7.86665167">
        <ele>149.0</ele>
        <time>2018-10-03T06:14:54.000Z</time>
      </trkpt>
      <trkpt lat="42.35043" lon="-7.866655">
        <ele>149.0</ele>
        <time>2018-10-03T06:14:55.000Z</time>
      </trkpt>
      <trkpt lat="42.35045333" lon="-7.86665833">
        <ele>150.0</ele>
        <time>2018-10-03T06:14:56.000Z</time>
      </trkpt>
      <trkpt lat="42.35047833" lon="-7.86665833">
        <ele>150.0</ele>
        <time>2018-10-03T06:14:57.000Z</time>
      </trkpt>
      <trkpt lat="42.3505" lon="-7.86666167">
        <ele>150.0</ele>
        <time>2018-10-03T06:14:58.000Z</time>
      </trkpt>
      <trkpt lat="42.35051833" lon="-7.86666333">
        <ele>150.0</ele>
        <time>2018-10-03T06:14:59.000Z</time>
      </trkpt>
      <trkpt lat="42.350535" lon="-7.86666333">
        <ele>150.0</ele>
        <time>2018-10-03T06:15:00.000Z</time>
      </trkpt>
      <trkpt lat="42.35054833" lon="-7.86666333">
        <ele>150.0</ele>
        <time>2018-10-03T06:15:01.000Z</time>
      </trkpt>
      <trkpt lat="42.35056167" lon="-7.86666167">
        <ele>150.0</ele>
        <time>2018-10-03T06:15:02.000Z</time>
      </trkpt>
      <trkpt lat="42.35057333" lon="-7.86666">
        <ele>150.0</ele>
        <time>2018-10-03T06:15:03.000Z</time>
      </trkpt>
      <trkpt lat="42.35058333" lon="-7.86665667">
        <ele>151.0</ele>
        <time>2018-10-03T06:15:04.000Z</time>
      </trkpt>
      <trkpt lat="42.35058833" lon="-7.86665167">
        <ele>151.0</ele>
        <time>2018-10-03T06:15:05.000Z</time>
      </trkpt>
      <trkpt lat="42.35059" lon="-7.86664667">
        <ele>151.0</ele>
        <time>2018-10-03T06:15:06.000Z</time>
      </trkpt>
      <trkpt lat="42.35059" lon="-7.86664">
        <ele>151.0</ele>
        <time>2018-10-03T06:15:07.000Z</time>
      </trkpt>
      <trkpt lat="42.35058833" lon="-7.866635">
        <ele>152.0</ele>
        <time>2018-10-03T06:15:08.000Z</time>
      </trkpt>
      <trkpt lat="42.35058833" lon="-7.86663167">
        <ele>152.0</ele>
        <time>2018-10-03T06:15:09.000Z</time>
      </trkpt>
      <trkpt lat="42.35058833" lon="-7.86662667">
        <ele>152.0</ele>
        <time>2018-10-03T06:15:10.000Z</time>
      </trkpt>
      <trkpt lat="42.35058833" lon="-7.86662333">
        <ele>152.0</ele>
        <time>2018-10-03T06:15:11.000Z</time>
      </trkpt>
      <trkpt lat="42.35058833" lon="-7.86662167">
        <ele>153.0</ele>
        <time>2018-10-03T06:15:12.000Z</time>
      </trkpt>
      <trkpt lat="42.35058667" lon="-7.86662">
        <ele>153.0</ele>
        <time>2018-10-03T06:15:13.000Z</time>
      </trkpt>
      <trkpt lat="42.35058667" lon="-7.86661667">
        <ele>153.0</ele>
        <time>2018-10-03T06:15:14.000Z</time>
      </trkpt>
      <trkpt lat="42.35058667" lon="-7.86661667">
        <ele>153.0</ele>
        <time>2018-10-03T06:15:15.000Z</time>
      </trkpt>
      <trkpt lat="42.35058667" lon="-7.86661167">
        <ele>153.0</ele>
        <time>2018-10-03T06:15:16.000Z</time>
      </trkpt>
      <trkpt lat="42.350585" lon="-7.86661">
        <ele>154.0</ele>
        <time>2018-10-03T06:15:17.000Z</time>
      </trkpt>
      <trkpt lat="42.350585" lon="-7.86660667">
        <ele>154.0</ele>
        <time>2018-10-03T06:15:18.000Z</time>
      </trkpt>
      <trkpt lat="42.350585" lon="-7.866605">
        <ele>154.0</ele>
        <time>2018-10-03T06:15:19.000Z</time>
      </trkpt>
      <trkpt lat="42.350585" lon="-7.86660333">
        <ele>154.0</ele>
        <time>2018-10-03T06:15:20.000Z</time>
      </trkpt>
      <trkpt lat="42.350585" lon="-7.86660167">
        <ele>154.0</ele>
        <time>2018-10-03T06:15:21.000Z</time>
      </trkpt>
      <trkpt lat="42.35058667" lon="-7.8666">
        <ele>154.0</ele>
        <time>2018-10-03T06:15:22.000Z</time>
      </trkpt>
      <trkpt lat="42.35058833" lon="-7.86659667">
        <ele>154.0</ele>
        <time>2018-10-03T06:15:23.000Z</time>
      </trkpt>
      <trkpt lat="42.35059" lon="-7.866595">
        <ele>154.0</ele>
        <time>2018-10-03T06:15:24.000Z</time>
      </trkpt>
      <trkpt lat="42.35059" lon="-7.86659333">
        <ele>154.0</ele>
        <time>2018-10-03T06:15:25.000Z</time>
      </trkpt>
      <trkpt lat="42.35059167" lon="-7.86659167">
        <ele>154.0</ele>
        <time>2018-10-03T06:15:26.000Z</time>
      </trkpt>
      <trkpt lat="42.35059333" lon="-7.86659167">
        <ele>154.0</ele>
        <time>2018-10-03T06:15:27.000Z</time>
      </trkpt>
      <trkpt lat="42.35059333" lon="-7.86658833">
        <ele>154.0</ele>
        <time>2018-10-03T06:15:28.000Z</time>
      </trkpt>
      <trkpt lat="42.350595" lon="-7.86658667">
        <ele>154.0</ele>
        <time>2018-10-03T06:15:29.000Z</time>
      </trkpt>
      <trkpt lat="42.350595" lon="-7.866585">
        <ele>154.0</ele>
        <time>2018-10-03T06:15:30.000Z</time>
      </trkpt>
      <trkpt lat="42.35059667" lon="-7.86658333">
        <ele>154.0</ele>
        <time>2018-10-03T06:15:31.000Z</time>
      </trkpt>
      <trkpt lat="42.35059833" lon="-7.86658333">
        <ele>155.0</ele>
        <time>2018-10-03T06:15:32.000Z</time>
      </trkpt>
      <trkpt lat="42.3506" lon="-7.86658167">
        <ele>155.0</ele>
        <time>2018-10-03T06:15:33.000Z</time>
      </trkpt>
      <trkpt lat="42.35060167" lon="-7.86658167">
        <ele>155.0</ele>
        <time>2018-10-03T06:15:34.000Z</time>
      </trkpt>
      <trkpt lat="42.350605" lon="-7.86658167">
        <ele>155.0</ele>
        <time>2018-10-03T06:15:35.000Z</time>
      </trkpt>
      <trkpt lat="42.350605" lon="-7.86657833">
        <ele>155.0</ele>
        <time>2018-10-03T06:15:36.000Z</time>
      </trkpt>
      <trkpt lat="42.35060667" lon="-7.86657833">
        <ele>155.0</ele>
        <time>2018-10-03T06:15:37.000Z</time>
      </trkpt>
      <trkpt lat="42.35060667" lon="-7.86657833">
        <ele>155.0</ele>
        <time>2018-10-03T06:15:38.000Z</time>
      </trkpt>
      <trkpt lat="42.35060833" lon="-7.86657667">
        <ele>155.0</ele>
        <time>2018-10-03T06:15:39.000Z</time>
      </trkpt>
      <trkpt lat="42.35061" lon="-7.86657333">
        <ele>155.0</ele>
        <time>2018-10-03T06:15:40.000Z</time>
      </trkpt>
      <trkpt lat="42.35061167" lon="-7.86657333">
        <ele>155.0</ele>
        <time>2018-10-03T06:15:41.000Z</time>
      </trkpt>
      <trkpt lat="42.35061167" lon="-7.86657167">
        <ele>155.0</ele>
        <time>2018-10-03T06:15:42.000Z</time>
      </trkpt>
      <trkpt lat="42.35061333" lon="-7.86657">
        <ele>155.0</ele>
        <time>2018-10-03T06:15:43.000Z</time>
      </trkpt>
      <trkpt lat="42.35061333" lon="-7.86657">
        <ele>155.0</ele>
        <time>2018-10-03T06:15:44.000Z</time>
      </trkpt>
      <trkpt lat="42.35061833" lon="-7.86656667">
        <ele>156.0</ele>
        <time>2018-10-03T06:15:45.000Z</time>
      </trkpt>
      <trkpt lat="42.35062167" lon="-7.86656333">
        <ele>156.0</ele>
        <time>2018-10-03T06:15:46.000Z</time>
      </trkpt>
      <trkpt lat="42.35062833" lon="-7.86656167">
        <ele>156.0</ele>
        <time>2018-10-03T06:15:47.000Z</time>
      </trkpt>
      <trkpt lat="42.350635" lon="-7.86656">
        <ele>156.0</ele>
        <time>2018-10-03T06:15:48.000Z</time>
      </trkpt>
      <trkpt lat="42.35064333" lon="-7.866555">
        <ele>156.0</ele>
        <time>2018-10-03T06:15:49.000Z</time>
      </trkpt>
      <trkpt lat="42.35065167" lon="-7.86654833">
        <ele>155.0</ele>
        <time>2018-10-03T06:15:50.000Z</time>
      </trkpt>
      <trkpt lat="42.35066167" lon="-7.86654">
        <ele>155.0</ele>
        <time>2018-10-03T06:15:51.000Z</time>
      </trkpt>
      <trkpt lat="42.35067167" lon="-7.86653">
        <ele>155.0</ele>
        <time>2018-10-03T06:15:52.000Z</time>
      </trkpt>
      <trkpt lat="42.35068" lon="-7.86651667">
        <ele>155.0</ele>
        <time>2018-10-03T06:15:53.000Z</time>
      </trkpt>
      <trkpt lat="42.35068667" lon="-7.86650333">
        <ele>155.0</ele>
        <time>2018-10-03T06:15:54.000Z</time>
      </trkpt>
      <trkpt lat="42.35069167" lon="-7.86648833">
        <ele>155.0</ele>
        <time>2018-10-03T06:15:55.000Z</time>
      </trkpt>
      <trkpt lat="42.35069667" lon="-7.86647333">
        <ele>155.0</ele>
        <time>2018-10-03T06:15:56.000Z</time>
      </trkpt>
      <trkpt lat="42.3507" lon="-7.86646">
        <ele>155.0</ele>
        <time>2018-10-03T06:15:57.000Z</time>
      </trkpt>
      <trkpt lat="42.35070667" lon="-7.86645">
        <ele>155.0</ele>
        <time>2018-10-03T06:15:58.000Z</time>
      </trkpt>
      <trkpt lat="42.350715" lon="-7.86643833">
        <ele>155.0</ele>
        <time>2018-10-03T06:15:59.000Z</time>
      </trkpt>
      <trkpt lat="42.35072333" lon="-7.86643">
        <ele>155.0</ele>
        <time>2018-10-03T06:16:00.000Z</time>
      </trkpt>
      <trkpt lat="42.35073167" lon="-7.86642167">
        <ele>156.0</ele>
        <time>2018-10-03T06:16:01.000Z</time>
      </trkpt>
      <trkpt lat="42.35074333" lon="-7.86640667">
        <ele>156.0</ele>
        <time>2018-10-03T06:16:02.000Z</time>
      </trkpt>
      <trkpt lat="42.35075667" lon="-7.86639167">
        <ele>156.0</ele>
        <time>2018-10-03T06:16:03.000Z</time>
      </trkpt>
      <trkpt lat="42.35077167" lon="-7.86637833">
        <ele>156.0</ele>
        <time>2018-10-03T06:16:04.000Z</time>
      </trkpt>
      <trkpt lat="42.35079" lon="-7.86636667">
        <ele>156.0</ele>
        <time>2018-10-03T06:16:05.000Z</time>
      </trkpt>
      <trkpt lat="42.35081167" lon="-7.86635667">
        <ele>156.0</ele>
        <time>2018-10-03T06:16:06.000Z</time>
      </trkpt>
      <trkpt lat="42.350835" lon="-7.86634667">
        <ele>156.0</ele>
        <time>2018-10-03T06:16:07.000Z</time>
      </trkpt>
      <trkpt lat="42.35085667" lon="-7.866335">
        <ele>156.0</ele>
        <time>2018-10-03T06:16:08.000Z</time>
      </trkpt>
      <trkpt lat="42.35087833" lon="-7.86632333">
        <ele>156.0</ele>
        <time>2018-10-03T06:16:09.000Z</time>
      </trkpt>
      <trkpt lat="42.3509" lon="-7.86631">
        <ele>156.0</ele>
        <time>2018-10-03T06:16:10.000Z</time>
      </trkpt>
      <trkpt lat="42.35091833" lon="-7.8663">
        <ele>156.0</ele>
        <time>2018-10-03T06:16:11.000Z</time>
      </trkpt>
      <trkpt lat="42.35093833" lon="-7.86628667">
        <ele>156.0</ele>
        <time>2018-10-03T06:16:12.000Z</time>
      </trkpt>
      <trkpt lat="42.350955" lon="-7.86627167">
        <ele>156.0</ele>
        <time>2018-10-03T06:16:13.000Z</time>
      </trkpt>
      <trkpt lat="42.35097" lon="-7.86625833">
        <ele>156.0</ele>
        <time>2018-10-03T06:16:14.000Z</time>
      </trkpt>
      <trkpt lat="42.350985" lon="-7.86624667">
        <ele>156.0</ele>
        <time>2018-10-03T06:16:15.000Z</time>
      </trkpt>
      <trkpt lat="42.35099833" lon="-7.866235">
        <ele>156.0</ele>
        <time>2018-10-03T06:16:16.000Z</time>
      </trkpt>
      <trkpt lat="42.35101" lon="-7.86622167">
        <ele>156.0</ele>
        <time>2018-10-03T06:16:17.000Z</time>
      </trkpt>
      <trkpt lat="42.351025" lon="-7.86621">
        <ele>156.0</ele>
        <time>2018-10-03T06:16:18.000Z</time>
      </trkpt>
      <trkpt lat="42.35103833" lon="-7.86619667">
        <ele>156.0</ele>
        <time>2018-10-03T06:16:19.000Z</time>
      </trkpt>
      <trkpt lat="42.35105167" lon="-7.866185">
        <ele>156.0</ele>
        <time>2018-10-03T06:16:20.000Z</time>
      </trkpt>
      <trkpt lat="42.35106333" lon="-7.86617333">
        <ele>156.0</ele>
        <time>2018-10-03T06:16:21.000Z</time>
      </trkpt>
      <trkpt lat="42.35107667" lon="-7.86616333">
        <ele>156.0</ele>
        <time>2018-10-03T06:16:22.000Z</time>
      </trkpt>
      <trkpt lat="42.35109" lon="-7.86615333">
        <ele>156.0</ele>
        <time>2018-10-03T06:16:23.000Z</time>
      </trkpt>
      <trkpt lat="42.351105" lon="-7.86614333">
        <ele>156.0</ele>
        <time>2018-10-03T06:16:24.000Z</time>
      </trkpt>
      <trkpt lat="42.35111833" lon="-7.86613167">
        <ele>156.0</ele>
        <time>2018-10-03T06:16:25.000Z</time>
      </trkpt>
      <trkpt lat="42.35113333" lon="-7.86612333">
        <ele>156.0</ele>
        <time>2018-10-03T06:16:26.000Z</time>
      </trkpt>
      <trkpt lat="42.351145" lon="-7.866115">
        <ele>156.0</ele>
        <time>2018-10-03T06:16:27.000Z</time>
      </trkpt>
      <trkpt lat="42.35115833" lon="-7.86611">
        <ele>157.0</ele>
        <time>2018-10-03T06:16:28.000Z</time>
      </trkpt>
      <trkpt lat="42.35117667" lon="-7.866105">
        <ele>157.0</ele>
        <time>2018-10-03T06:16:29.000Z</time>
      </trkpt>
      <trkpt lat="42.35119333" lon="-7.86609833">
        <ele>157.0</ele>
        <time>2018-10-03T06:16:30.000Z</time>
      </trkpt>
      <trkpt lat="42.351205" lon="-7.86609667">
        <ele>157.0</ele>
        <time>2018-10-03T06:16:31.000Z</time>
      </trkpt>
      <trkpt lat="42.35121833" lon="-7.86609833">
        <ele>157.0</ele>
        <time>2018-10-03T06:16:32.000Z</time>
      </trkpt>
      <trkpt lat="42.35123333" lon="-7.86609833">
        <ele>157.0</ele>
        <time>2018-10-03T06:16:33.000Z</time>
      </trkpt>
      <trkpt lat="42.35125" lon="-7.8661">
        <ele>158.0</ele>
        <time>2018-10-03T06:16:34.000Z</time>
      </trkpt>
      <trkpt lat="42.35126667" lon="-7.866105">
        <ele>158.0</ele>
        <time>2018-10-03T06:16:35.000Z</time>
      </trkpt>
      <trkpt lat="42.351285" lon="-7.86610667">
        <ele>158.0</ele>
        <time>2018-10-03T06:16:36.000Z</time>
      </trkpt>
      <trkpt lat="42.35129833" lon="-7.86611">
        <ele>158.0</ele>
        <time>2018-10-03T06:16:37.000Z</time>
      </trkpt>
      <trkpt lat="42.351315" lon="-7.866115">
        <ele>158.0</ele>
        <time>2018-10-03T06:16:38.000Z</time>
      </trkpt>
      <trkpt lat="42.351335" lon="-7.86611667">
        <ele>158.0</ele>
        <time>2018-10-03T06:16:39.000Z</time>
      </trkpt>
      <trkpt lat="42.35135333" lon="-7.86611">
        <ele>158.0</ele>
        <time>2018-10-03T06:16:40.000Z</time>
      </trkpt>
      <trkpt lat="42.35137167" lon="-7.866105">
        <ele>158.0</ele>
        <time>2018-10-03T06:16:41.000Z</time>
      </trkpt>
      <trkpt lat="42.35138833" lon="-7.86609667">
        <ele>159.0</ele>
        <time>2018-10-03T06:16:42.000Z</time>
      </trkpt>
      <trkpt lat="42.35140333" lon="-7.86608667">
        <ele>159.0</ele>
        <time>2018-10-03T06:16:43.000Z</time>
      </trkpt>
      <trkpt lat="42.35141667" lon="-7.86607667">
        <ele>159.0</ele>
        <time>2018-10-03T06:16:44.000Z</time>
      </trkpt>
      <trkpt lat="42.35143167" lon="-7.86606833">
        <ele>159.0</ele>
        <time>2018-10-03T06:16:45.000Z</time>
      </trkpt>
      <trkpt lat="42.35144667" lon="-7.86605667">
        <ele>159.0</ele>
        <time>2018-10-03T06:16:46.000Z</time>
      </trkpt>
      <trkpt lat="42.35146167" lon="-7.86604">
        <ele>159.0</ele>
        <time>2018-10-03T06:16:47.000Z</time>
      </trkpt>
      <trkpt lat="42.35147333" lon="-7.866025">
        <ele>159.0</ele>
        <time>2018-10-03T06:16:48.000Z</time>
      </trkpt>
      <trkpt lat="42.35148667" lon="-7.86600833">
        <ele>159.0</ele>
        <time>2018-10-03T06:16:49.000Z</time>
      </trkpt>
      <trkpt lat="42.35150167" lon="-7.865995">
        <ele>159.0</ele>
        <time>2018-10-03T06:16:50.000Z</time>
      </trkpt>
      <trkpt lat="42.35151667" lon="-7.86598333">
        <ele>159.0</ele>
        <time>2018-10-03T06:16:51.000Z</time>
      </trkpt>
      <trkpt lat="42.35152833" lon="-7.86597333">
        <ele>159.0</ele>
        <time>2018-10-03T06:16:52.000Z</time>
      </trkpt>
      <trkpt lat="42.35154" lon="-7.86596333">
        <ele>159.0</ele>
        <time>2018-10-03T06:16:53.000Z</time>
      </trkpt>
      <trkpt lat="42.35155333" lon="-7.86595167">
        <ele>159.0</ele>
        <time>2018-10-03T06:16:54.000Z</time>
      </trkpt>
      <trkpt lat="42.35156333" lon="-7.86594167">
        <ele>159.0</ele>
        <time>2018-10-03T06:16:55.000Z</time>
      </trkpt>
      <trkpt lat="42.35157167" lon="-7.86593167">
        <ele>159.0</ele>
        <time>2018-10-03T06:16:56.000Z</time>
      </trkpt>
      <trkpt lat="42.35158333" lon="-7.86592167">
        <ele>159.0</ele>
        <time>2018-10-03T06:16:57.000Z</time>
      </trkpt>
      <trkpt lat="42.351595" lon="-7.86591167">
        <ele>160.0</ele>
        <time>2018-10-03T06:16:58.000Z</time>
      </trkpt>
      <trkpt lat="42.35160833" lon="-7.86590333">
        <ele>160.0</ele>
        <time>2018-10-03T06:16:59.000Z</time>
      </trkpt>
      <trkpt lat="42.35162333" lon="-7.865895">
        <ele>160.0</ele>
        <time>2018-10-03T06:17:00.000Z</time>
      </trkpt>
      <trkpt lat="42.35163833" lon="-7.86588667">
        <ele>160.0</ele>
        <time>2018-10-03T06:17:01.000Z</time>
      </trkpt>
      <trkpt lat="42.35165167" lon="-7.86587667">
        <ele>160.0</ele>
        <time>2018-10-03T06:17:02.000Z</time>
      </trkpt>
      <trkpt lat="42.35166667" lon="-7.86587">
        <ele>161.0</ele>
        <time>2018-10-03T06:17:03.000Z</time>
      </trkpt>
      <trkpt lat="42.35167833" lon="-7.86586667">
        <ele>161.0</ele>
        <time>2018-10-03T06:17:04.000Z</time>
      </trkpt>
      <trkpt lat="42.35169167" lon="-7.86586">
        <ele>161.0</ele>
        <time>2018-10-03T06:17:05.000Z</time>
      </trkpt>
      <trkpt lat="42.35170333" lon="-7.86585333">
        <ele>161.0</ele>
        <time>2018-10-03T06:17:06.000Z</time>
      </trkpt>
      <trkpt lat="42.35171833" lon="-7.865845">
        <ele>162.0</ele>
        <time>2018-10-03T06:17:07.000Z</time>
      </trkpt>
      <trkpt lat="42.35173167" lon="-7.865835">
        <ele>162.0</ele>
        <time>2018-10-03T06:17:08.000Z</time>
      </trkpt>
      <trkpt lat="42.35174667" lon="-7.865825">
        <ele>162.0</ele>
        <time>2018-10-03T06:17:09.000Z</time>
      </trkpt>
      <trkpt lat="42.35176" lon="-7.865815">
        <ele>162.0</ele>
        <time>2018-10-03T06:17:10.000Z</time>
      </trkpt>
      <trkpt lat="42.35177" lon="-7.86580667">
        <ele>162.0</ele>
        <time>2018-10-03T06:17:11.000Z</time>
      </trkpt>
      <trkpt lat="42.35178167" lon="-7.86579833">
        <ele>162.0</ele>
        <time>2018-10-03T06:17:12.000Z</time>
      </trkpt>
      <trkpt lat="42.351795" lon="-7.86579333">
        <ele>163.0</ele>
        <time>2018-10-03T06:17:13.000Z</time>
      </trkpt>
      <trkpt lat="42.35180667" lon="-7.86578667">
        <ele>163.0</ele>
        <time>2018-10-03T06:17:14.000Z</time>
      </trkpt>
      <trkpt lat="42.35181667" lon="-7.86578333">
        <ele>163.0</ele>
        <time>2018-10-03T06:17:15.000Z</time>
      </trkpt>
      <trkpt lat="42.35182167" lon="-7.86578">
        <ele>163.0</ele>
        <time>2018-10-03T06:17:16.000Z</time>
      </trkpt>
      <trkpt lat="42.35183" lon="-7.86577333">
        <ele>163.0</ele>
        <time>2018-10-03T06:17:17.000Z</time>
      </trkpt>
      <trkpt lat="42.35184167" lon="-7.86576833">
        <ele>164.0</ele>
        <time>2018-10-03T06:17:18.000Z</time>
      </trkpt>
      <trkpt lat="42.351855" lon="-7.86576667">
        <ele>164.0</ele>
        <time>2018-10-03T06:17:19.000Z</time>
      </trkpt>
      <trkpt lat="42.351875" lon="-7.86576333">
        <ele>164.0</ele>
        <time>2018-10-03T06:17:20.000Z</time>
      </trkpt>
      <trkpt lat="42.35189" lon="-7.86576">
        <ele>164.0</ele>
        <time>2018-10-03T06:17:21.000Z</time>
      </trkpt>
      <trkpt lat="42.35190667" lon="-7.86575167">
        <ele>164.0</ele>
        <time>2018-10-03T06:17:22.000Z</time>
      </trkpt>
      <trkpt lat="42.35192167" lon="-7.86574167">
        <ele>164.0</ele>
        <time>2018-10-03T06:17:23.000Z</time>
      </trkpt>
      <trkpt lat="42.351935" lon="-7.86572833">
        <ele>164.0</ele>
        <time>2018-10-03T06:17:24.000Z</time>
      </trkpt>
      <trkpt lat="42.35195" lon="-7.86571833">
        <ele>164.0</ele>
        <time>2018-10-03T06:17:25.000Z</time>
      </trkpt>
      <trkpt lat="42.35196833" lon="-7.86571">
        <ele>164.0</ele>
        <time>2018-10-03T06:17:26.000Z</time>
      </trkpt>
      <trkpt lat="42.35198833" lon="-7.86570167">
        <ele>164.0</ele>
        <time>2018-10-03T06:17:27.000Z</time>
      </trkpt>
      <trkpt lat="42.35200833" lon="-7.865695">
        <ele>164.0</ele>
        <time>2018-10-03T06:17:28.000Z</time>
      </trkpt>
      <trkpt lat="42.35203" lon="-7.86568333">
        <ele>164.0</ele>
        <time>2018-10-03T06:17:29.000Z</time>
      </trkpt>
      <trkpt lat="42.35204667" lon="-7.86567">
        <ele>164.0</ele>
        <time>2018-10-03T06:17:30.000Z</time>
      </trkpt>
      <trkpt lat="42.35206333" lon="-7.86565833">
        <ele>164.0</ele>
        <time>2018-10-03T06:17:31.000Z</time>
      </trkpt>
      <trkpt lat="42.35208167" lon="-7.86564667">
        <ele>164.0</ele>
        <time>2018-10-03T06:17:32.000Z</time>
      </trkpt>
      <trkpt lat="42.35210167" lon="-7.86563833">
        <ele>165.0</ele>
        <time>2018-10-03T06:17:33.000Z</time>
      </trkpt>
      <trkpt lat="42.35212167" lon="-7.86562833">
        <ele>165.0</ele>
        <time>2018-10-03T06:17:34.000Z</time>
      </trkpt>
      <trkpt lat="42.35214167" lon="-7.86561833">
        <ele>165.0</ele>
        <time>2018-10-03T06:17:35.000Z</time>
      </trkpt>
      <trkpt lat="42.352155" lon="-7.86560667">
        <ele>165.0</ele>
        <time>2018-10-03T06:17:36.000Z</time>
      </trkpt>
      <trkpt lat="42.352165" lon="-7.8656">
        <ele>165.0</ele>
        <time>2018-10-03T06:17:37.000Z</time>
      </trkpt>
      <trkpt lat="42.352175" lon="-7.86559167">
        <ele>165.0</ele>
        <time>2018-10-03T06:17:38.000Z</time>
      </trkpt>
      <trkpt lat="42.35218667" lon="-7.86558333">
        <ele>165.0</ele>
        <time>2018-10-03T06:17:39.000Z</time>
      </trkpt>
      <trkpt lat="42.35219833" lon="-7.86557667">
        <ele>165.0</ele>
        <time>2018-10-03T06:17:40.000Z</time>
      </trkpt>
      <trkpt lat="42.35221333" lon="-7.86557333">
        <ele>166.0</ele>
        <time>2018-10-03T06:17:41.000Z</time>
      </trkpt>
      <trkpt lat="42.35222667" lon="-7.86556833">
        <ele>166.0</ele>
        <time>2018-10-03T06:17:42.000Z</time>
      </trkpt>
      <trkpt lat="42.35223833" lon="-7.865565">
        <ele>166.0</ele>
        <time>2018-10-03T06:17:43.000Z</time>
      </trkpt>
      <trkpt lat="42.35224833" lon="-7.86556333">
        <ele>166.0</ele>
        <time>2018-10-03T06:17:44.000Z</time>
      </trkpt>
      <trkpt lat="42.35225833" lon="-7.865565">
        <ele>166.0</ele>
        <time>2018-10-03T06:17:45.000Z</time>
      </trkpt>
      <trkpt lat="42.35226833" lon="-7.865565">
        <ele>167.0</ele>
        <time>2018-10-03T06:17:46.000Z</time>
      </trkpt>
      <trkpt lat="42.35227833" lon="-7.86556333">
        <ele>167.0</ele>
        <time>2018-10-03T06:17:47.000Z</time>
      </trkpt>
      <trkpt lat="42.35228833" lon="-7.865565">
        <ele>167.0</ele>
        <time>2018-10-03T06:17:48.000Z</time>
      </trkpt>
      <trkpt lat="42.35230167" lon="-7.86556167">
        <ele>168.0</ele>
        <time>2018-10-03T06:17:49.000Z</time>
      </trkpt>
      <trkpt lat="42.352315" lon="-7.86555667">
        <ele>168.0</ele>
        <time>2018-10-03T06:17:50.000Z</time>
      </trkpt>
      <trkpt lat="42.35233167" lon="-7.86555333">
        <ele>169.0</ele>
        <time>2018-10-03T06:17:51.000Z</time>
      </trkpt>
      <trkpt lat="42.35234833" lon="-7.86554833">
        <ele>169.0</ele>
        <time>2018-10-03T06:17:52.000Z</time>
      </trkpt>
      <trkpt lat="42.35237" lon="-7.86554167">
        <ele>169.0</ele>
        <time>2018-10-03T06:17:53.000Z</time>
      </trkpt>
      <trkpt lat="42.35239" lon="-7.86553667">
        <ele>170.0</ele>
        <time>2018-10-03T06:17:54.000Z</time>
      </trkpt>
      <trkpt lat="42.35241" lon="-7.86553">
        <ele>170.0</ele>
        <time>2018-10-03T06:17:55.000Z</time>
      </trkpt>
      <trkpt lat="42.35242833" lon="-7.86552333">
        <ele>170.0</ele>
        <time>2018-10-03T06:17:56.000Z</time>
      </trkpt>
      <trkpt lat="42.352445" lon="-7.865515">
        <ele>171.0</ele>
        <time>2018-10-03T06:17:57.000Z</time>
      </trkpt>
      <trkpt lat="42.35246167" lon="-7.86551">
        <ele>171.0</ele>
        <time>2018-10-03T06:17:58.000Z</time>
      </trkpt>
      <trkpt lat="42.35247833" lon="-7.86550333">
        <ele>172.0</ele>
        <time>2018-10-03T06:17:59.000Z</time>
      </trkpt>
      <trkpt lat="42.35249333" lon="-7.86549333">
        <ele>172.0</ele>
        <time>2018-10-03T06:18:00.000Z</time>
      </trkpt>
      <trkpt lat="42.35250833" lon="-7.86548167">
        <ele>172.0</ele>
        <time>2018-10-03T06:18:01.000Z</time>
      </trkpt>
      <trkpt lat="42.352525" lon="-7.86547167">
        <ele>173.0</ele>
        <time>2018-10-03T06:18:02.000Z</time>
      </trkpt>
      <trkpt lat="42.35253833" lon="-7.865465">
        <ele>173.0</ele>
        <time>2018-10-03T06:18:03.000Z</time>
      </trkpt>
      <trkpt lat="42.352555" lon="-7.86545667">
        <ele>173.0</ele>
        <time>2018-10-03T06:18:04.000Z</time>
      </trkpt>
      <trkpt lat="42.35257167" lon="-7.86544833">
        <ele>174.0</ele>
        <time>2018-10-03T06:18:05.000Z</time>
      </trkpt>
      <trkpt lat="42.35258833" lon="-7.86544333">
        <ele>174.0</ele>
        <time>2018-10-03T06:18:06.000Z</time>
      </trkpt>
      <trkpt lat="42.35260333" lon="-7.865435">
        <ele>174.0</ele>
        <time>2018-10-03T06:18:07.000Z</time>
      </trkpt>
      <trkpt lat="42.35262" lon="-7.86542333">
        <ele>174.0</ele>
        <time>2018-10-03T06:18:08.000Z</time>
      </trkpt>
      <trkpt lat="42.35263667" lon="-7.86541333">
        <ele>174.0</ele>
        <time>2018-10-03T06:18:09.000Z</time>
      </trkpt>
      <trkpt lat="42.35265167" lon="-7.86540667">
        <ele>175.0</ele>
        <time>2018-10-03T06:18:10.000Z</time>
      </trkpt>
      <trkpt lat="42.35266667" lon="-7.86540167">
        <ele>175.0</ele>
        <time>2018-10-03T06:18:11.000Z</time>
      </trkpt>
      <trkpt lat="42.35268167" lon="-7.865395">
        <ele>175.0</ele>
        <time>2018-10-03T06:18:12.000Z</time>
      </trkpt>
      <trkpt lat="42.35269167" lon="-7.86538667">
        <ele>175.0</ele>
        <time>2018-10-03T06:18:13.000Z</time>
      </trkpt>
      <trkpt lat="42.35270167" lon="-7.86538">
        <ele>175.0</ele>
        <time>2018-10-03T06:18:14.000Z</time>
      </trkpt>
      <trkpt lat="42.35271333" lon="-7.86537167">
        <ele>175.0</ele>
        <time>2018-10-03T06:18:15.000Z</time>
      </trkpt>
      <trkpt lat="42.352725" lon="-7.86536333">
        <ele>176.0</ele>
        <time>2018-10-03T06:18:16.000Z</time>
      </trkpt>
      <trkpt lat="42.35273833" lon="-7.86535333">
        <ele>176.0</ele>
        <time>2018-10-03T06:18:17.000Z</time>
      </trkpt>
      <trkpt lat="42.35275" lon="-7.86534833">
        <ele>176.0</ele>
        <time>2018-10-03T06:18:18.000Z</time>
      </trkpt>
      <trkpt lat="42.35276167" lon="-7.86534667">
        <ele>176.0</ele>
        <time>2018-10-03T06:18:19.000Z</time>
      </trkpt>
      <trkpt lat="42.35277667" lon="-7.865345">
        <ele>176.0</ele>
        <time>2018-10-03T06:18:20.000Z</time>
      </trkpt>
      <trkpt lat="42.35279167" lon="-7.865345">
        <ele>177.0</ele>
        <time>2018-10-03T06:18:21.000Z</time>
      </trkpt>
      <trkpt lat="42.35280333" lon="-7.86534667">
        <ele>177.0</ele>
        <time>2018-10-03T06:18:22.000Z</time>
      </trkpt>
      <trkpt lat="42.35281667" lon="-7.865345">
        <ele>177.0</ele>
        <time>2018-10-03T06:18:23.000Z</time>
      </trkpt>
      <trkpt lat="42.35283333" lon="-7.86533833">
        <ele>177.0</ele>
        <time>2018-10-03T06:18:24.000Z</time>
      </trkpt>
      <trkpt lat="42.35285333" lon="-7.865335">
        <ele>177.0</ele>
        <time>2018-10-03T06:18:25.000Z</time>
      </trkpt>
      <trkpt lat="42.35287333" lon="-7.86533333">
        <ele>177.0</ele>
        <time>2018-10-03T06:18:26.000Z</time>
      </trkpt>
      <trkpt lat="42.35289" lon="-7.86533167">
        <ele>178.0</ele>
        <time>2018-10-03T06:18:27.000Z</time>
      </trkpt>
      <trkpt lat="42.35290333" lon="-7.86533167">
        <ele>178.0</ele>
        <time>2018-10-03T06:18:28.000Z</time>
      </trkpt>
      <trkpt lat="42.35291833" lon="-7.86532667">
        <ele>178.0</ele>
        <time>2018-10-03T06:18:29.000Z</time>
      </trkpt>
      <trkpt lat="42.35293667" lon="-7.86532167">
        <ele>178.0</ele>
        <time>2018-10-03T06:18:30.000Z</time>
      </trkpt>
      <trkpt lat="42.352955" lon="-7.86531833">
        <ele>178.0</ele>
        <time>2018-10-03T06:18:31.000Z</time>
      </trkpt>
      <trkpt lat="42.35297333" lon="-7.86531333">
        <ele>178.0</ele>
        <time>2018-10-03T06:18:32.000Z</time>
      </trkpt>
      <trkpt lat="42.35299167" lon="-7.86530667">
        <ele>179.0</ele>
        <time>2018-10-03T06:18:33.000Z</time>
      </trkpt>
      <trkpt lat="42.35301" lon="-7.86530167">
        <ele>179.0</ele>
        <time>2018-10-03T06:18:34.000Z</time>
      </trkpt>
      <trkpt lat="42.35302667" lon="-7.86529667">
        <ele>179.0</ele>
        <time>2018-10-03T06:18:35.000Z</time>
      </trkpt>
      <trkpt lat="42.35304333" lon="-7.86529167">
        <ele>179.0</ele>
        <time>2018-10-03T06:18:36.000Z</time>
      </trkpt>
      <trkpt lat="42.35306" lon="-7.865285">
        <ele>179.0</ele>
        <time>2018-10-03T06:18:37.000Z</time>
      </trkpt>
      <trkpt lat="42.35307667" lon="-7.86528">
        <ele>179.0</ele>
        <time>2018-10-03T06:18:38.000Z</time>
      </trkpt>
      <trkpt lat="42.35309167" lon="-7.86527667">
        <ele>179.0</ele>
        <time>2018-10-03T06:18:39.000Z</time>
      </trkpt>
      <trkpt lat="42.35310667" lon="-7.86527167">
        <ele>180.0</ele>
        <time>2018-10-03T06:18:40.000Z</time>
      </trkpt>
      <trkpt lat="42.35312333" lon="-7.86526833">
        <ele>180.0</ele>
        <time>2018-10-03T06:18:41.000Z</time>
      </trkpt>
      <trkpt lat="42.35314" lon="-7.865265">
        <ele>180.0</ele>
        <time>2018-10-03T06:18:42.000Z</time>
      </trkpt>
      <trkpt lat="42.353155" lon="-7.86526167">
        <ele>180.0</ele>
        <time>2018-10-03T06:18:43.000Z</time>
      </trkpt>
      <trkpt lat="42.35317333" lon="-7.865255">
        <ele>180.0</ele>
        <time>2018-10-03T06:18:44.000Z</time>
      </trkpt>
      <trkpt lat="42.35319167" lon="-7.86525167">
        <ele>180.0</ele>
        <time>2018-10-03T06:18:45.000Z</time>
      </trkpt>
      <trkpt lat="42.35321" lon="-7.86524667">
        <ele>180.0</ele>
        <time>2018-10-03T06:18:46.000Z</time>
      </trkpt>
      <trkpt lat="42.35322333" lon="-7.86524167">
        <ele>180.0</ele>
        <time>2018-10-03T06:18:47.000Z</time>
      </trkpt>
      <trkpt lat="42.35323667" lon="-7.865235">
        <ele>181.0</ele>
        <time>2018-10-03T06:18:48.000Z</time>
      </trkpt>
      <trkpt lat="42.35325333" lon="-7.86522833">
        <ele>181.0</ele>
        <time>2018-10-03T06:18:49.000Z</time>
      </trkpt>
      <trkpt lat="42.35327167" lon="-7.865225">
        <ele>181.0</ele>
        <time>2018-10-03T06:18:50.000Z</time>
      </trkpt>
      <trkpt lat="42.35329167" lon="-7.86522167">
        <ele>181.0</ele>
        <time>2018-10-03T06:18:51.000Z</time>
      </trkpt>
      <trkpt lat="42.35330833" lon="-7.86522">
        <ele>181.0</ele>
        <time>2018-10-03T06:18:52.000Z</time>
      </trkpt>
      <trkpt lat="42.35332667" lon="-7.86521833">
        <ele>182.0</ele>
        <time>2018-10-03T06:18:53.000Z</time>
      </trkpt>
      <trkpt lat="42.35335" lon="-7.86521333">
        <ele>182.0</ele>
        <time>2018-10-03T06:18:54.000Z</time>
      </trkpt>
      <trkpt lat="42.35337667" lon="-7.86521167">
        <ele>182.0</ele>
        <time>2018-10-03T06:18:55.000Z</time>
      </trkpt>
      <trkpt lat="42.35340167" lon="-7.86521167">
        <ele>182.0</ele>
        <time>2018-10-03T06:18:56.000Z</time>
      </trkpt>
      <trkpt lat="42.35342833" lon="-7.86521667">
        <ele>183.0</ele>
        <time>2018-10-03T06:18:57.000Z</time>
      </trkpt>
      <trkpt lat="42.35345333" lon="-7.86522667">
        <ele>183.0</ele>
        <time>2018-10-03T06:18:58.000Z</time>
      </trkpt>
      <trkpt lat="42.35347833" lon="-7.86524">
        <ele>183.0</ele>
        <time>2018-10-03T06:18:59.000Z</time>
      </trkpt>
      <trkpt lat="42.35350167" lon="-7.86525333">
        <ele>183.0</ele>
        <time>2018-10-03T06:19:00.000Z</time>
      </trkpt>
      <trkpt lat="42.353525" lon="-7.86526667">
        <ele>183.0</ele>
        <time>2018-10-03T06:19:01.000Z</time>
      </trkpt>
      <trkpt lat="42.35354667" lon="-7.86528333">
        <ele>183.0</ele>
        <time>2018-10-03T06:19:02.000Z</time>
      </trkpt>
      <trkpt lat="42.35356667" lon="-7.8653">
        <ele>182.0</ele>
        <time>2018-10-03T06:19:03.000Z</time>
      </trkpt>
      <trkpt lat="42.35358667" lon="-7.865315">
        <ele>182.0</ele>
        <time>2018-10-03T06:19:04.000Z</time>
      </trkpt>
      <trkpt lat="42.35360667" lon="-7.86532333">
        <ele>182.0</ele>
        <time>2018-10-03T06:19:05.000Z</time>
      </trkpt>
      <trkpt lat="42.35363" lon="-7.86532833">
        <ele>181.0</ele>
        <time>2018-10-03T06:19:06.000Z</time>
      </trkpt>
      <trkpt lat="42.35365" lon="-7.86533667">
        <ele>181.0</ele>
        <time>2018-10-03T06:19:07.000Z</time>
      </trkpt>
      <trkpt lat="42.35366833" lon="-7.86534333">
        <ele>181.0</ele>
        <time>2018-10-03T06:19:08.000Z</time>
      </trkpt>
      <trkpt lat="42.35368333" lon="-7.86534833">
        <ele>181.0</ele>
        <time>2018-10-03T06:19:09.000Z</time>
      </trkpt>
      <trkpt lat="42.35370167" lon="-7.86535">
        <ele>181.0</ele>
        <time>2018-10-03T06:19:10.000Z</time>
      </trkpt>
      <trkpt lat="42.353715" lon="-7.86535">
        <ele>181.0</ele>
        <time>2018-10-03T06:19:11.000Z</time>
      </trkpt>
      <trkpt lat="42.35372833" lon="-7.86535">
        <ele>181.0</ele>
        <time>2018-10-03T06:19:12.000Z</time>
      </trkpt>
      <trkpt lat="42.35373833" lon="-7.865345">
        <ele>181.0</ele>
        <time>2018-10-03T06:19:13.000Z</time>
      </trkpt>
      <trkpt lat="42.35374833" lon="-7.86534">
        <ele>181.0</ele>
        <time>2018-10-03T06:19:14.000Z</time>
      </trkpt>
      <trkpt lat="42.35375667" lon="-7.86533833">
        <ele>181.0</ele>
        <time>2018-10-03T06:19:15.000Z</time>
      </trkpt>
      <trkpt lat="42.35376333" lon="-7.86533333">
        <ele>181.0</ele>
        <time>2018-10-03T06:19:16.000Z</time>
      </trkpt>
      <trkpt lat="42.35377167" lon="-7.86532833">
        <ele>181.0</ele>
        <time>2018-10-03T06:19:17.000Z</time>
      </trkpt>
      <trkpt lat="42.35378333" lon="-7.86532333">
        <ele>181.0</ele>
        <time>2018-10-03T06:19:18.000Z</time>
      </trkpt>
      <trkpt lat="42.35379333" lon="-7.86531833">
        <ele>181.0</ele>
        <time>2018-10-03T06:19:19.000Z</time>
      </trkpt>
      <trkpt lat="42.35380333" lon="-7.865315">
        <ele>181.0</ele>
        <time>2018-10-03T06:19:20.000Z</time>
      </trkpt>
      <trkpt lat="42.35381667" lon="-7.86531167">
        <ele>181.0</ele>
        <time>2018-10-03T06:19:21.000Z</time>
      </trkpt>
      <trkpt lat="42.35383167" lon="-7.86530667">
        <ele>182.0</ele>
        <time>2018-10-03T06:19:22.000Z</time>
      </trkpt>
      <trkpt lat="42.35384667" lon="-7.86530167">
        <ele>182.0</ele>
        <time>2018-10-03T06:19:23.000Z</time>
      </trkpt>
      <trkpt lat="42.35386167" lon="-7.86529667">
        <ele>182.0</ele>
        <time>2018-10-03T06:19:24.000Z</time>
      </trkpt>
      <trkpt lat="42.35387667" lon="-7.86529167">
        <ele>182.0</ele>
        <time>2018-10-03T06:19:25.000Z</time>
      </trkpt>
      <trkpt lat="42.35388833" lon="-7.86528833">
        <ele>182.0</ele>
        <time>2018-10-03T06:19:26.000Z</time>
      </trkpt>
      <trkpt lat="42.3539" lon="-7.865285">
        <ele>183.0</ele>
        <time>2018-10-03T06:19:27.000Z</time>
      </trkpt>
      <trkpt lat="42.35391833" lon="-7.86528333">
        <ele>183.0</ele>
        <time>2018-10-03T06:19:28.000Z</time>
      </trkpt>
      <trkpt lat="42.353935" lon="-7.86528">
        <ele>183.0</ele>
        <time>2018-10-03T06:19:29.000Z</time>
      </trkpt>
      <trkpt lat="42.35395333" lon="-7.86527667">
        <ele>183.0</ele>
        <time>2018-10-03T06:19:30.000Z</time>
      </trkpt>
      <trkpt lat="42.35397167" lon="-7.86527333">
        <ele>184.0</ele>
        <time>2018-10-03T06:19:31.000Z</time>
      </trkpt>
      <trkpt lat="42.35399167" lon="-7.86527">
        <ele>184.0</ele>
        <time>2018-10-03T06:19:32.000Z</time>
      </trkpt>
      <trkpt lat="42.35401167" lon="-7.86526833">
        <ele>184.0</ele>
        <time>2018-10-03T06:19:33.000Z</time>
      </trkpt>
      <trkpt lat="42.35403333" lon="-7.865265">
        <ele>184.0</ele>
        <time>2018-10-03T06:19:34.000Z</time>
      </trkpt>
      <trkpt lat="42.35405333" lon="-7.86526167">
        <ele>184.0</ele>
        <time>2018-10-03T06:19:35.000Z</time>
      </trkpt>
      <trkpt lat="42.35407167" lon="-7.86526333">
        <ele>185.0</ele>
        <time>2018-10-03T06:19:36.000Z</time>
      </trkpt>
      <trkpt lat="42.35408833" lon="-7.865265">
        <ele>185.0</ele>
        <time>2018-10-03T06:19:37.000Z</time>
      </trkpt>
      <trkpt lat="42.35410667" lon="-7.86526667">
        <ele>185.0</ele>
        <time>2018-10-03T06:19:38.000Z</time>
      </trkpt>
      <trkpt lat="42.35412167" lon="-7.86526833">
        <ele>185.0</ele>
        <time>2018-10-03T06:19:39.000Z</time>
      </trkpt>
      <trkpt lat="42.35413667" lon="-7.86526833">
        <ele>185.0</ele>
        <time>2018-10-03T06:19:40.000Z</time>
      </trkpt>
      <trkpt lat="42.35415167" lon="-7.86527">
        <ele>186.0</ele>
        <time>2018-10-03T06:19:41.000Z</time>
      </trkpt>
      <trkpt lat="42.35417" lon="-7.86527333">
        <ele>186.0</ele>
        <time>2018-10-03T06:19:42.000Z</time>
      </trkpt>
      <trkpt lat="42.35419167" lon="-7.865275">
        <ele>186.0</ele>
        <time>2018-10-03T06:19:43.000Z</time>
      </trkpt>
      <trkpt lat="42.35421333" lon="-7.86527333">
        <ele>186.0</ele>
        <time>2018-10-03T06:19:44.000Z</time>
      </trkpt>
      <trkpt lat="42.35423667" lon="-7.86527">
        <ele>187.0</ele>
        <time>2018-10-03T06:19:45.000Z</time>
      </trkpt>
      <trkpt lat="42.35426" lon="-7.865265">
        <ele>187.0</ele>
        <time>2018-10-03T06:19:46.000Z</time>
      </trkpt>
      <trkpt lat="42.35428667" lon="-7.86526">
        <ele>187.0</ele>
        <time>2018-10-03T06:19:47.000Z</time>
      </trkpt>
      <trkpt lat="42.35431333" lon="-7.86525667">
        <ele>188.0</ele>
        <time>2018-10-03T06:19:48.000Z</time>
      </trkpt>
      <trkpt lat="42.35433667" lon="-7.86525667">
        <ele>188.0</ele>
        <time>2018-10-03T06:19:49.000Z</time>
      </trkpt>
      <trkpt lat="42.35436167" lon="-7.86526">
        <ele>188.0</ele>
        <time>2018-10-03T06:19:50.000Z</time>
      </trkpt>
      <trkpt lat="42.35438333" lon="-7.86526333">
        <ele>189.0</ele>
        <time>2018-10-03T06:19:51.000Z</time>
      </trkpt>
      <trkpt lat="42.35440667" lon="-7.86526667">
        <ele>189.0</ele>
        <time>2018-10-03T06:19:52.000Z</time>
      </trkpt>
      <trkpt lat="42.35442833" lon="-7.86527667">
        <ele>189.0</ele>
        <time>2018-10-03T06:19:53.000Z</time>
      </trkpt>
      <trkpt lat="42.35444833" lon="-7.86528833">
        <ele>190.0</ele>
        <time>2018-10-03T06:19:54.000Z</time>
      </trkpt>
      <trkpt lat="42.35446833" lon="-7.86530167">
        <ele>190.0</ele>
        <time>2018-10-03T06:19:55.000Z</time>
      </trkpt>
      <trkpt lat="42.35449167" lon="-7.86531833">
        <ele>190.0</ele>
        <time>2018-10-03T06:19:56.000Z</time>
      </trkpt>
      <trkpt lat="42.354515" lon="-7.86533333">
        <ele>190.0</ele>
        <time>2018-10-03T06:19:57.000Z</time>
      </trkpt>
      <trkpt lat="42.35454" lon="-7.86534333">
        <ele>190.0</ele>
        <time>2018-10-03T06:19:58.000Z</time>
      </trkpt>
      <trkpt lat="42.35457" lon="-7.86535167">
        <ele>190.0</ele>
        <time>2018-10-03T06:19:59.000Z</time>
      </trkpt>
      <trkpt lat="42.35459667" lon="-7.86535667">
        <ele>190.0</ele>
        <time>2018-10-03T06:20:00.000Z</time>
      </trkpt>
      <trkpt lat="42.35462" lon="-7.86536667">
        <ele>190.0</ele>
        <time>2018-10-03T06:20:01.000Z</time>
      </trkpt>
      <trkpt lat="42.35464167" lon="-7.86537833">
        <ele>189.0</ele>
        <time>2018-10-03T06:20:02.000Z</time>
      </trkpt>
      <trkpt lat="42.35466" lon="-7.86539167">
        <ele>189.0</ele>
        <time>2018-10-03T06:20:03.000Z</time>
      </trkpt>
      <trkpt lat="42.35468167" lon="-7.86540333">
        <ele>188.0</ele>
        <time>2018-10-03T06:20:04.000Z</time>
      </trkpt>
      <trkpt lat="42.35470167" lon="-7.86541333">
        <ele>187.0</ele>
        <time>2018-10-03T06:20:05.000Z</time>
      </trkpt>
      <trkpt lat="42.35472333" lon="-7.86542">
        <ele>187.0</ele>
        <time>2018-10-03T06:20:06.000Z</time>
      </trkpt>
      <trkpt lat="42.35474167" lon="-7.865425">
        <ele>186.0</ele>
        <time>2018-10-03T06:20:07.000Z</time>
      </trkpt>
      <trkpt lat="42.35476167" lon="-7.86543167">
        <ele>186.0</ele>
        <time>2018-10-03T06:20:08.000Z</time>
      </trkpt>
      <trkpt lat="42.35478333" lon="-7.86543667">
        <ele>186.0</ele>
        <time>2018-10-03T06:20:09.000Z</time>
      </trkpt>
      <trkpt lat="42.35480667" lon="-7.86544333">
        <ele>185.0</ele>
        <time>2018-10-03T06:20:10.000Z</time>
      </trkpt>
      <trkpt lat="42.35483" lon="-7.86545">
        <ele>185.0</ele>
        <time>2018-10-03T06:20:11.000Z</time>
      </trkpt>
      <trkpt lat="42.35485" lon="-7.86545333">
        <ele>185.0</ele>
        <time>2018-10-03T06:20:12.000Z</time>
      </trkpt>
      <trkpt lat="42.35486833" lon="-7.86546">
        <ele>185.0</ele>
        <time>2018-10-03T06:20:13.000Z</time>
      </trkpt>
      <trkpt lat="42.35488667" lon="-7.86546167">
        <ele>185.0</ele>
        <time>2018-10-03T06:20:14.000Z</time>
      </trkpt>
      <trkpt lat="42.354905" lon="-7.865465">
        <ele>184.0</ele>
        <time>2018-10-03T06:20:15.000Z</time>
      </trkpt>
      <trkpt lat="42.35492333" lon="-7.865465">
        <ele>184.0</ele>
        <time>2018-10-03T06:20:16.000Z</time>
      </trkpt>
      <trkpt lat="42.35494333" lon="-7.86546333">
        <ele>184.0</ele>
        <time>2018-10-03T06:20:17.000Z</time>
      </trkpt>
      <trkpt lat="42.35496333" lon="-7.86546333">
        <ele>184.0</ele>
        <time>2018-10-03T06:20:18.000Z</time>
      </trkpt>
      <trkpt lat="42.35497833" lon="-7.865465">
        <ele>184.0</ele>
        <time>2018-10-03T06:20:19.000Z</time>
      </trkpt>
      <trkpt lat="42.354995" lon="-7.865465">
        <ele>184.0</ele>
        <time>2018-10-03T06:20:20.000Z</time>
      </trkpt>
      <trkpt lat="42.35501167" lon="-7.86546333">
        <ele>184.0</ele>
        <time>2018-10-03T06:20:21.000Z</time>
      </trkpt>
      <trkpt lat="42.35502667" lon="-7.86545833">
        <ele>184.0</ele>
        <time>2018-10-03T06:20:22.000Z</time>
      </trkpt>
      <trkpt lat="42.35504167" lon="-7.86545833">
        <ele>184.0</ele>
        <time>2018-10-03T06:20:23.000Z</time>
      </trkpt>
      <trkpt lat="42.35505833" lon="-7.86545833">
        <ele>184.0</ele>
        <time>2018-10-03T06:20:24.000Z</time>
      </trkpt>
      <trkpt lat="42.355075" lon="-7.86545667">
        <ele>185.0</ele>
        <time>2018-10-03T06:20:25.000Z</time>
      </trkpt>
      <trkpt lat="42.35509333" lon="-7.86545333">
        <ele>185.0</ele>
        <time>2018-10-03T06:20:26.000Z</time>
      </trkpt>
      <trkpt lat="42.35511167" lon="-7.86545167">
        <ele>185.0</ele>
        <time>2018-10-03T06:20:27.000Z</time>
      </trkpt>
      <trkpt lat="42.35512333" lon="-7.86545167">
        <ele>185.0</ele>
        <time>2018-10-03T06:20:28.000Z</time>
      </trkpt>
      <trkpt lat="42.35513667" lon="-7.86545333">
        <ele>185.0</ele>
        <time>2018-10-03T06:20:29.000Z</time>
      </trkpt>
      <trkpt lat="42.35515167" lon="-7.86545333">
        <ele>186.0</ele>
        <time>2018-10-03T06:20:30.000Z</time>
      </trkpt>
      <trkpt lat="42.355165" lon="-7.86545333">
        <ele>186.0</ele>
        <time>2018-10-03T06:20:31.000Z</time>
      </trkpt>
      <trkpt lat="42.35517667" lon="-7.865455">
        <ele>186.0</ele>
        <time>2018-10-03T06:20:32.000Z</time>
      </trkpt>
      <trkpt lat="42.35519333" lon="-7.86545833">
        <ele>186.0</ele>
        <time>2018-10-03T06:20:33.000Z</time>
      </trkpt>
      <trkpt lat="42.35521167" lon="-7.86545833">
        <ele>186.0</ele>
        <time>2018-10-03T06:20:34.000Z</time>
      </trkpt>
      <trkpt lat="42.35522667" lon="-7.86546167">
        <ele>186.0</ele>
        <time>2018-10-03T06:20:35.000Z</time>
      </trkpt>
      <trkpt lat="42.35524167" lon="-7.865465">
        <ele>186.0</ele>
        <time>2018-10-03T06:20:36.000Z</time>
      </trkpt>
      <trkpt lat="42.35525667" lon="-7.865465">
        <ele>186.0</ele>
        <time>2018-10-03T06:20:37.000Z</time>
      </trkpt>
      <trkpt lat="42.35527" lon="-7.865465">
        <ele>186.0</ele>
        <time>2018-10-03T06:20:38.000Z</time>
      </trkpt>
      <trkpt lat="42.355285" lon="-7.865465">
        <ele>186.0</ele>
        <time>2018-10-03T06:20:39.000Z</time>
      </trkpt>
      <trkpt lat="42.35530167" lon="-7.865465">
        <ele>186.0</ele>
        <time>2018-10-03T06:20:40.000Z</time>
      </trkpt>
      <trkpt lat="42.35531333" lon="-7.86546667">
        <ele>187.0</ele>
        <time>2018-10-03T06:20:41.000Z</time>
      </trkpt>
      <trkpt lat="42.355325" lon="-7.86546833">
        <ele>187.0</ele>
        <time>2018-10-03T06:20:42.000Z</time>
      </trkpt>
      <trkpt lat="42.35533333" lon="-7.86547">
        <ele>187.0</ele>
        <time>2018-10-03T06:20:43.000Z</time>
      </trkpt>
      <trkpt lat="42.35534167" lon="-7.86547">
        <ele>187.0</ele>
        <time>2018-10-03T06:20:44.000Z</time>
      </trkpt>
      <trkpt lat="42.35535" lon="-7.86546833">
        <ele>187.0</ele>
        <time>2018-10-03T06:20:45.000Z</time>
      </trkpt>
      <trkpt lat="42.35535667" lon="-7.865465">
        <ele>187.0</ele>
        <time>2018-10-03T06:20:46.000Z</time>
      </trkpt>
      <trkpt lat="42.35536333" lon="-7.86546333">
        <ele>188.0</ele>
        <time>2018-10-03T06:20:47.000Z</time>
      </trkpt>
      <trkpt lat="42.35537" lon="-7.86546">
        <ele>188.0</ele>
        <time>2018-10-03T06:20:48.000Z</time>
      </trkpt>
      <trkpt lat="42.35537333" lon="-7.86545667">
        <ele>188.0</ele>
        <time>2018-10-03T06:20:49.000Z</time>
      </trkpt>
      <trkpt lat="42.35537833" lon="-7.86545167">
        <ele>188.0</ele>
        <time>2018-10-03T06:20:50.000Z</time>
      </trkpt>
      <trkpt lat="42.35538167" lon="-7.86544333">
        <ele>188.0</ele>
        <time>2018-10-03T06:20:51.000Z</time>
      </trkpt>
      <trkpt lat="42.355385" lon="-7.86543833">
        <ele>188.0</ele>
        <time>2018-10-03T06:20:52.000Z</time>
      </trkpt>
      <trkpt lat="42.35539" lon="-7.86543333">
        <ele>188.0</ele>
        <time>2018-10-03T06:20:53.000Z</time>
      </trkpt>
      <trkpt lat="42.35539667" lon="-7.86543167">
        <ele>188.0</ele>
        <time>2018-10-03T06:20:54.000Z</time>
      </trkpt>
      <trkpt lat="42.35540667" lon="-7.86543">
        <ele>188.0</ele>
        <time>2018-10-03T06:20:55.000Z</time>
      </trkpt>
      <trkpt lat="42.35541833" lon="-7.86542833">
        <ele>188.0</ele>
        <time>2018-10-03T06:20:56.000Z</time>
      </trkpt>
      <trkpt lat="42.35543" lon="-7.86542667">
        <ele>188.0</ele>
        <time>2018-10-03T06:20:57.000Z</time>
      </trkpt>
      <trkpt lat="42.35544" lon="-7.86542167">
        <ele>188.0</ele>
        <time>2018-10-03T06:20:58.000Z</time>
      </trkpt>
      <trkpt lat="42.35545333" lon="-7.86541833">
        <ele>188.0</ele>
        <time>2018-10-03T06:20:59.000Z</time>
      </trkpt>
      <trkpt lat="42.35546667" lon="-7.86541333">
        <ele>188.0</ele>
        <time>2018-10-03T06:21:00.000Z</time>
      </trkpt>
      <trkpt lat="42.35548167" lon="-7.86540833">
        <ele>188.0</ele>
        <time>2018-10-03T06:21:01.000Z</time>
      </trkpt>
      <trkpt lat="42.35549667" lon="-7.86540333">
        <ele>188.0</ele>
        <time>2018-10-03T06:21:02.000Z</time>
      </trkpt>
      <trkpt lat="42.35551" lon="-7.86539333">
        <ele>188.0</ele>
        <time>2018-10-03T06:21:03.000Z</time>
      </trkpt>
      <trkpt lat="42.355525" lon="-7.865385">
        <ele>189.0</ele>
        <time>2018-10-03T06:21:04.000Z</time>
      </trkpt>
      <trkpt lat="42.35554333" lon="-7.86537833">
        <ele>189.0</ele>
        <time>2018-10-03T06:21:05.000Z</time>
      </trkpt>
      <trkpt lat="42.35556" lon="-7.86537167">
        <ele>189.0</ele>
        <time>2018-10-03T06:21:06.000Z</time>
      </trkpt>
      <trkpt lat="42.35557667" lon="-7.86536833">
        <ele>189.0</ele>
        <time>2018-10-03T06:21:07.000Z</time>
      </trkpt>
      <trkpt lat="42.355595" lon="-7.865365">
        <ele>189.0</ele>
        <time>2018-10-03T06:21:08.000Z</time>
      </trkpt>
      <trkpt lat="42.35561333" lon="-7.86536167">
        <ele>190.0</ele>
        <time>2018-10-03T06:21:09.000Z</time>
      </trkpt>
      <trkpt lat="42.35563333" lon="-7.86535833">
        <ele>190.0</ele>
        <time>2018-10-03T06:21:10.000Z</time>
      </trkpt>
      <trkpt lat="42.355655" lon="-7.865355">
        <ele>190.0</ele>
        <time>2018-10-03T06:21:11.000Z</time>
      </trkpt>
      <trkpt lat="42.35567667" lon="-7.865355">
        <ele>190.0</ele>
        <time>2018-10-03T06:21:12.000Z</time>
      </trkpt>
      <trkpt lat="42.355705" lon="-7.865355">
        <ele>191.0</ele>
        <time>2018-10-03T06:21:13.000Z</time>
      </trkpt>
      <trkpt lat="42.355735" lon="-7.86535667">
        <ele>191.0</ele>
        <time>2018-10-03T06:21:14.000Z</time>
      </trkpt>
      <trkpt lat="42.355765" lon="-7.86535833">
        <ele>191.0</ele>
        <time>2018-10-03T06:21:15.000Z</time>
      </trkpt>
      <trkpt lat="42.35579333" lon="-7.86536167">
        <ele>191.0</ele>
        <time>2018-10-03T06:21:16.000Z</time>
      </trkpt>
      <trkpt lat="42.35582" lon="-7.86536333">
        <ele>191.0</ele>
        <time>2018-10-03T06:21:17.000Z</time>
      </trkpt>
      <trkpt lat="42.35584667" lon="-7.86536333">
        <ele>192.0</ele>
        <time>2018-10-03T06:21:18.000Z</time>
      </trkpt>
      <trkpt lat="42.35586833" lon="-7.86536">
        <ele>192.0</ele>
        <time>2018-10-03T06:21:19.000Z</time>
      </trkpt>
      <trkpt lat="42.35589167" lon="-7.86536">
        <ele>192.0</ele>
        <time>2018-10-03T06:21:20.000Z</time>
      </trkpt>
      <trkpt lat="42.355915" lon="-7.86536">
        <ele>192.0</ele>
        <time>2018-10-03T06:21:21.000Z</time>
      </trkpt>
      <trkpt lat="42.35594" lon="-7.86536">
        <ele>193.0</ele>
        <time>2018-10-03T06:21:22.000Z</time>
      </trkpt>
      <trkpt lat="42.355965" lon="-7.86536">
        <ele>193.0</ele>
        <time>2018-10-03T06:21:23.000Z</time>
      </trkpt>
      <trkpt lat="42.35599" lon="-7.86535833">
        <ele>193.0</ele>
        <time>2018-10-03T06:21:24.000Z</time>
      </trkpt>
      <trkpt lat="42.356015" lon="-7.86535667">
        <ele>193.0</ele>
        <time>2018-10-03T06:21:25.000Z</time>
      </trkpt>
      <trkpt lat="42.35604167" lon="-7.86535667">
        <ele>193.0</ele>
        <time>2018-10-03T06:21:26.000Z</time>
      </trkpt>
      <trkpt lat="42.35606667" lon="-7.86535667">
        <ele>194.0</ele>
        <time>2018-10-03T06:21:27.000Z</time>
      </trkpt>
      <trkpt lat="42.35609167" lon="-7.86535667">
        <ele>194.0</ele>
        <time>2018-10-03T06:21:28.000Z</time>
      </trkpt>
      <trkpt lat="42.35611667" lon="-7.865355">
        <ele>194.0</ele>
        <time>2018-10-03T06:21:29.000Z</time>
      </trkpt>
      <trkpt lat="42.35614167" lon="-7.86535667">
        <ele>194.0</ele>
        <time>2018-10-03T06:21:30.000Z</time>
      </trkpt>
      <trkpt lat="42.35616667" lon="-7.86535667">
        <ele>194.0</ele>
        <time>2018-10-03T06:21:31.000Z</time>
      </trkpt>
      <trkpt lat="42.35618667" lon="-7.86535667">
        <ele>195.0</ele>
        <time>2018-10-03T06:21:32.000Z</time>
      </trkpt>
      <trkpt lat="42.356205" lon="-7.86535833">
        <ele>195.0</ele>
        <time>2018-10-03T06:21:33.000Z</time>
      </trkpt>
      <trkpt lat="42.35622167" lon="-7.86536167">
        <ele>195.0</ele>
        <time>2018-10-03T06:21:34.000Z</time>
      </trkpt>
      <trkpt lat="42.35624" lon="-7.86536167">
        <ele>195.0</ele>
        <time>2018-10-03T06:21:35.000Z</time>
      </trkpt>
      <trkpt lat="42.35625833" lon="-7.86536167">
        <ele>196.0</ele>
        <time>2018-10-03T06:21:36.000Z</time>
      </trkpt>
      <trkpt lat="42.356275" lon="-7.86536167">
        <ele>196.0</ele>
        <time>2018-10-03T06:21:37.000Z</time>
      </trkpt>
      <trkpt lat="42.35629333" lon="-7.86535833">
        <ele>196.0</ele>
        <time>2018-10-03T06:21:38.000Z</time>
      </trkpt>
      <trkpt lat="42.35631333" lon="-7.86535667">
        <ele>196.0</ele>
        <time>2018-10-03T06:21:39.000Z</time>
      </trkpt>
      <trkpt lat="42.35633333" lon="-7.86535667">
        <ele>197.0</ele>
        <time>2018-10-03T06:21:40.000Z</time>
      </trkpt>
      <trkpt lat="42.35635667" lon="-7.86535333">
        <ele>197.0</ele>
        <time>2018-10-03T06:21:41.000Z</time>
      </trkpt>
      <trkpt lat="42.35637833" lon="-7.86535333">
        <ele>197.0</ele>
        <time>2018-10-03T06:21:42.000Z</time>
      </trkpt>
      <trkpt lat="42.35639833" lon="-7.86535333">
        <ele>198.0</ele>
        <time>2018-10-03T06:21:43.000Z</time>
      </trkpt>
      <trkpt lat="42.35642167" lon="-7.86535667">
        <ele>198.0</ele>
        <time>2018-10-03T06:21:44.000Z</time>
      </trkpt>
      <trkpt lat="42.35644" lon="-7.86535833">
        <ele>198.0</ele>
        <time>2018-10-03T06:21:45.000Z</time>
      </trkpt>
      <trkpt lat="42.35646" lon="-7.86536">
        <ele>198.0</ele>
        <time>2018-10-03T06:21:46.000Z</time>
      </trkpt>
      <trkpt lat="42.35647667" lon="-7.86536">
        <ele>199.0</ele>
        <time>2018-10-03T06:21:47.000Z</time>
      </trkpt>
      <trkpt lat="42.356495" lon="-7.86536">
        <ele>199.0</ele>
        <time>2018-10-03T06:21:48.000Z</time>
      </trkpt>
      <trkpt lat="42.35651667" lon="-7.86536">
        <ele>199.0</ele>
        <time>2018-10-03T06:21:49.000Z</time>
      </trkpt>
      <trkpt lat="42.356535" lon="-7.86536167">
        <ele>199.0</ele>
        <time>2018-10-03T06:21:50.000Z</time>
      </trkpt>
      <trkpt lat="42.35655333" lon="-7.865365">
        <ele>200.0</ele>
        <time>2018-10-03T06:21:51.000Z</time>
      </trkpt>
      <trkpt lat="42.35656667" lon="-7.86536667">
        <ele>200.0</ele>
        <time>2018-10-03T06:21:52.000Z</time>
      </trkpt>
      <trkpt lat="42.35658" lon="-7.86536667">
        <ele>200.0</ele>
        <time>2018-10-03T06:21:53.000Z</time>
      </trkpt>
      <trkpt lat="42.356595" lon="-7.865365">
        <ele>200.0</ele>
        <time>2018-10-03T06:21:54.000Z</time>
      </trkpt>
      <trkpt lat="42.35661" lon="-7.86536333">
        <ele>200.0</ele>
        <time>2018-10-03T06:21:55.000Z</time>
      </trkpt>
      <trkpt lat="42.35662667" lon="-7.86536">
        <ele>200.0</ele>
        <time>2018-10-03T06:21:56.000Z</time>
      </trkpt>
      <trkpt lat="42.35664333" lon="-7.86535833">
        <ele>200.0</ele>
        <time>2018-10-03T06:21:57.000Z</time>
      </trkpt>
      <trkpt lat="42.35665833" lon="-7.86535833">
        <ele>200.0</ele>
        <time>2018-10-03T06:21:58.000Z</time>
      </trkpt>
      <trkpt lat="42.356675" lon="-7.86535833">
        <ele>200.0</ele>
        <time>2018-10-03T06:21:59.000Z</time>
      </trkpt>
      <trkpt lat="42.35669167" lon="-7.86536">
        <ele>200.0</ele>
        <time>2018-10-03T06:22:00.000Z</time>
      </trkpt>
      <trkpt lat="42.35671" lon="-7.86536167">
        <ele>201.0</ele>
        <time>2018-10-03T06:22:01.000Z</time>
      </trkpt>
      <trkpt lat="42.35678833" lon="-7.86530833">
        <ele>201.0</ele>
        <time>2018-10-03T06:22:02.000Z</time>
      </trkpt>
      <trkpt lat="42.35678" lon="-7.86530667">
        <ele>201.0</ele>
        <time>2018-10-03T06:22:03.000Z</time>
      </trkpt>
      <trkpt lat="42.35677667" lon="-7.86531">
        <ele>200.0</ele>
        <time>2018-10-03T06:22:04.000Z</time>
      </trkpt>
      <trkpt lat="42.35677333" lon="-7.86531333">
        <ele>200.0</ele>
        <time>2018-10-03T06:22:05.000Z</time>
      </trkpt>
      <trkpt lat="42.35677167" lon="-7.86531833">
        <ele>199.0</ele>
        <time>2018-10-03T06:22:06.000Z</time>
      </trkpt>
      <trkpt lat="42.35677333" lon="-7.86532167">
        <ele>198.0</ele>
        <time>2018-10-03T06:22:07.000Z</time>
      </trkpt>
      <trkpt lat="42.35677833" lon="-7.86532333">
        <ele>198.0</ele>
        <time>2018-10-03T06:22:08.000Z</time>
      </trkpt>
      <trkpt lat="42.356785" lon="-7.86532333">
        <ele>197.0</ele>
        <time>2018-10-03T06:22:09.000Z</time>
      </trkpt>
      <trkpt lat="42.35679167" lon="-7.865325">
        <ele>197.0</ele>
        <time>2018-10-03T06:22:10.000Z</time>
      </trkpt>
      <trkpt lat="42.35679667" lon="-7.865325">
        <ele>196.0</ele>
        <time>2018-10-03T06:22:11.000Z</time>
      </trkpt>
      <trkpt lat="42.3568" lon="-7.865325">
        <ele>196.0</ele>
        <time>2018-10-03T06:22:12.000Z</time>
      </trkpt>
      <trkpt lat="42.35680333" lon="-7.86532333">
        <ele>195.0</ele>
        <time>2018-10-03T06:22:13.000Z</time>
      </trkpt>
      <trkpt lat="42.35680833" lon="-7.86531833">
        <ele>194.0</ele>
        <time>2018-10-03T06:22:14.000Z</time>
      </trkpt>
      <trkpt lat="42.35681" lon="-7.86531667">
        <ele>193.0</ele>
        <time>2018-10-03T06:22:15.000Z</time>
      </trkpt>
      <trkpt lat="42.35681167" lon="-7.86531833">
        <ele>193.0</ele>
        <time>2018-10-03T06:22:16.000Z</time>
      </trkpt>
      <trkpt lat="42.356815" lon="-7.865325">
        <ele>192.0</ele>
        <time>2018-10-03T06:22:17.000Z</time>
      </trkpt>
      <trkpt lat="42.35682" lon="-7.86533833">
        <ele>192.0</ele>
        <time>2018-10-03T06:22:18.000Z</time>
      </trkpt>
      <trkpt lat="42.35682667" lon="-7.86535333">
        <ele>192.0</ele>
        <time>2018-10-03T06:22:19.000Z</time>
      </trkpt>
      <trkpt lat="42.35683833" lon="-7.86536667">
        <ele>191.0</ele>
        <time>2018-10-03T06:22:20.000Z</time>
      </trkpt>
      <trkpt lat="42.35684833" lon="-7.865375">
        <ele>191.0</ele>
        <time>2018-10-03T06:22:21.000Z</time>
      </trkpt>
      <trkpt lat="42.35685667" lon="-7.865385">
        <ele>191.0</ele>
        <time>2018-10-03T06:22:22.000Z</time>
      </trkpt>
      <trkpt lat="42.35686667" lon="-7.865395">
        <ele>191.0</ele>
        <time>2018-10-03T06:22:23.000Z</time>
      </trkpt>
      <trkpt lat="42.35687667" lon="-7.86540833">
        <ele>190.0</ele>
        <time>2018-10-03T06:22:24.000Z</time>
      </trkpt>
      <trkpt lat="42.35688833" lon="-7.86542167">
        <ele>190.0</ele>
        <time>2018-10-03T06:22:25.000Z</time>
      </trkpt>
      <trkpt lat="42.3569" lon="-7.86543167">
        <ele>190.0</ele>
        <time>2018-10-03T06:22:26.000Z</time>
      </trkpt>
      <trkpt lat="42.35691167" lon="-7.86544">
        <ele>190.0</ele>
        <time>2018-10-03T06:22:27.000Z</time>
      </trkpt>
      <trkpt lat="42.35692167" lon="-7.86544667">
        <ele>190.0</ele>
        <time>2018-10-03T06:22:28.000Z</time>
      </trkpt>
      <trkpt lat="42.35693167" lon="-7.86545333">
        <ele>190.0</ele>
        <time>2018-10-03T06:22:29.000Z</time>
      </trkpt>
      <trkpt lat="42.356945" lon="-7.86545833">
        <ele>190.0</ele>
        <time>2018-10-03T06:22:30.000Z</time>
      </trkpt>
      <trkpt lat="42.356955" lon="-7.86546167">
        <ele>190.0</ele>
        <time>2018-10-03T06:22:31.000Z</time>
      </trkpt>
      <trkpt lat="42.35696667" lon="-7.865465">
        <ele>190.0</ele>
        <time>2018-10-03T06:22:32.000Z</time>
      </trkpt>
      <trkpt lat="42.35698667" lon="-7.86546667">
        <ele>190.0</ele>
        <time>2018-10-03T06:22:33.000Z</time>
      </trkpt>
      <trkpt lat="42.35700667" lon="-7.86547">
        <ele>190.0</ele>
        <time>2018-10-03T06:22:34.000Z</time>
      </trkpt>
      <trkpt lat="42.35702833" lon="-7.865475">
        <ele>190.0</ele>
        <time>2018-10-03T06:22:35.000Z</time>
      </trkpt>
      <trkpt lat="42.35705167" lon="-7.86548167">
        <ele>190.0</ele>
        <time>2018-10-03T06:22:36.000Z</time>
      </trkpt>
      <trkpt lat="42.35707" lon="-7.865485">
        <ele>190.0</ele>
        <time>2018-10-03T06:22:37.000Z</time>
      </trkpt>
      <trkpt lat="42.35708667" lon="-7.86548667">
        <ele>189.0</ele>
        <time>2018-10-03T06:22:38.000Z</time>
      </trkpt>
      <trkpt lat="42.35710333" lon="-7.86548833">
        <ele>189.0</ele>
        <time>2018-10-03T06:22:39.000Z</time>
      </trkpt>
      <trkpt lat="42.35712167" lon="-7.86548833">
        <ele>189.0</ele>
        <time>2018-10-03T06:22:40.000Z</time>
      </trkpt>
      <trkpt lat="42.35714333" lon="-7.86549">
        <ele>189.0</ele>
        <time>2018-10-03T06:22:41.000Z</time>
      </trkpt>
      <trkpt lat="42.357165" lon="-7.86549">
        <ele>189.0</ele>
        <time>2018-10-03T06:22:42.000Z</time>
      </trkpt>
      <trkpt lat="42.35718667" lon="-7.86549167">
        <ele>189.0</ele>
        <time>2018-10-03T06:22:43.000Z</time>
      </trkpt>
      <trkpt lat="42.35720667" lon="-7.86549167">
        <ele>188.0</ele>
        <time>2018-10-03T06:22:44.000Z</time>
      </trkpt>
      <trkpt lat="42.357225" lon="-7.865495">
        <ele>188.0</ele>
        <time>2018-10-03T06:22:45.000Z</time>
      </trkpt>
      <trkpt lat="42.357245" lon="-7.865495">
        <ele>188.0</ele>
        <time>2018-10-03T06:22:46.000Z</time>
      </trkpt>
      <trkpt lat="42.35726333" lon="-7.865495">
        <ele>188.0</ele>
        <time>2018-10-03T06:22:47.000Z</time>
      </trkpt>
      <trkpt lat="42.35728333" lon="-7.865495">
        <ele>187.0</ele>
        <time>2018-10-03T06:22:48.000Z</time>
      </trkpt>
      <trkpt lat="42.35730167" lon="-7.86549333">
        <ele>187.0</ele>
        <time>2018-10-03T06:22:49.000Z</time>
      </trkpt>
      <trkpt lat="42.35732" lon="-7.86549333">
        <ele>187.0</ele>
        <time>2018-10-03T06:22:50.000Z</time>
      </trkpt>
      <trkpt lat="42.35733833" lon="-7.86549333">
        <ele>186.0</ele>
        <time>2018-10-03T06:22:51.000Z</time>
      </trkpt>
      <trkpt lat="42.35735667" lon="-7.86549333">
        <ele>186.0</ele>
        <time>2018-10-03T06:22:52.000Z</time>
      </trkpt>
      <trkpt lat="42.35737333" lon="-7.86549333">
        <ele>186.0</ele>
        <time>2018-10-03T06:22:53.000Z</time>
      </trkpt>
      <trkpt lat="42.35739" lon="-7.865495">
        <ele>185.0</ele>
        <time>2018-10-03T06:22:54.000Z</time>
      </trkpt>
      <trkpt lat="42.35740833" lon="-7.86549833">
        <ele>185.0</ele>
        <time>2018-10-03T06:22:55.000Z</time>
      </trkpt>
      <trkpt lat="42.357425" lon="-7.86550167">
        <ele>185.0</ele>
        <time>2018-10-03T06:22:56.000Z</time>
      </trkpt>
      <trkpt lat="42.357445" lon="-7.86550333">
        <ele>185.0</ele>
        <time>2018-10-03T06:22:57.000Z</time>
      </trkpt>
      <trkpt lat="42.35746333" lon="-7.86550333">
        <ele>184.0</ele>
        <time>2018-10-03T06:22:58.000Z</time>
      </trkpt>
      <trkpt lat="42.35748" lon="-7.86550167">
        <ele>184.0</ele>
        <time>2018-10-03T06:22:59.000Z</time>
      </trkpt>
      <trkpt lat="42.35749667" lon="-7.86550333">
        <ele>184.0</ele>
        <time>2018-10-03T06:23:00.000Z</time>
      </trkpt>
      <trkpt lat="42.35751333" lon="-7.86550333">
        <ele>184.0</ele>
        <time>2018-10-03T06:23:01.000Z</time>
      </trkpt>
      <trkpt lat="42.35752833" lon="-7.865505">
        <ele>183.0</ele>
        <time>2018-10-03T06:23:02.000Z</time>
      </trkpt>
      <trkpt lat="42.357545" lon="-7.86550333">
        <ele>183.0</ele>
        <time>2018-10-03T06:23:03.000Z</time>
      </trkpt>
      <trkpt lat="42.35756167" lon="-7.86550333">
        <ele>183.0</ele>
        <time>2018-10-03T06:23:04.000Z</time>
      </trkpt>
      <trkpt lat="42.35758" lon="-7.86550333">
        <ele>183.0</ele>
        <time>2018-10-03T06:23:05.000Z</time>
      </trkpt>
      <trkpt lat="42.35760167" lon="-7.86550333">
        <ele>182.0</ele>
        <time>2018-10-03T06:23:06.000Z</time>
      </trkpt>
      <trkpt lat="42.35762333" lon="-7.86550333">
        <ele>182.0</ele>
        <time>2018-10-03T06:23:07.000Z</time>
      </trkpt>
      <trkpt lat="42.35764667" lon="-7.86550167">
        <ele>182.0</ele>
        <time>2018-10-03T06:23:08.000Z</time>
      </trkpt>
      <trkpt lat="42.35766833" lon="-7.86550167">
        <ele>182.0</ele>
        <time>2018-10-03T06:23:09.000Z</time>
      </trkpt>
      <trkpt lat="42.35769333" lon="-7.86550167">
        <ele>181.0</ele>
        <time>2018-10-03T06:23:10.000Z</time>
      </trkpt>
      <trkpt lat="42.357715" lon="-7.86550333">
        <ele>181.0</ele>
        <time>2018-10-03T06:23:11.000Z</time>
      </trkpt>
      <trkpt lat="42.35773833" lon="-7.865505">
        <ele>181.0</ele>
        <time>2018-10-03T06:23:12.000Z</time>
      </trkpt>
      <trkpt lat="42.35775667" lon="-7.86550667">
        <ele>180.0</ele>
        <time>2018-10-03T06:23:13.000Z</time>
      </trkpt>
      <trkpt lat="42.357775" lon="-7.86551167">
        <ele>180.0</ele>
        <time>2018-10-03T06:23:14.000Z</time>
      </trkpt>
      <trkpt lat="42.35779167" lon="-7.865515">
        <ele>179.0</ele>
        <time>2018-10-03T06:23:15.000Z</time>
      </trkpt>
      <trkpt lat="42.35781" lon="-7.86552167">
        <ele>179.0</ele>
        <time>2018-10-03T06:23:16.000Z</time>
      </trkpt>
      <trkpt lat="42.35782833" lon="-7.865525">
        <ele>179.0</ele>
        <time>2018-10-03T06:23:17.000Z</time>
      </trkpt>
      <trkpt lat="42.35784667" lon="-7.86552833">
        <ele>179.0</ele>
        <time>2018-10-03T06:23:18.000Z</time>
      </trkpt>
      <trkpt lat="42.35786333" lon="-7.86553167">
        <ele>178.0</ele>
        <time>2018-10-03T06:23:19.000Z</time>
      </trkpt>
      <trkpt lat="42.35787833" lon="-7.865535">
        <ele>178.0</ele>
        <time>2018-10-03T06:23:20.000Z</time>
      </trkpt>
      <trkpt lat="42.35789167" lon="-7.86554">
        <ele>178.0</ele>
        <time>2018-10-03T06:23:21.000Z</time>
      </trkpt>
      <trkpt lat="42.35790833" lon="-7.86554333">
        <ele>178.0</ele>
        <time>2018-10-03T06:23:22.000Z</time>
      </trkpt>
      <trkpt lat="42.35792667" lon="-7.86554667">
        <ele>178.0</ele>
        <time>2018-10-03T06:23:23.000Z</time>
      </trkpt>
      <trkpt lat="42.35794333" lon="-7.86555">
        <ele>178.0</ele>
        <time>2018-10-03T06:23:24.000Z</time>
      </trkpt>
      <trkpt lat="42.35796" lon="-7.86555333">
        <ele>179.0</ele>
        <time>2018-10-03T06:23:25.000Z</time>
      </trkpt>
      <trkpt lat="42.35797333" lon="-7.86555667">
        <ele>179.0</ele>
        <time>2018-10-03T06:23:26.000Z</time>
      </trkpt>
      <trkpt lat="42.35798833" lon="-7.86555833">
        <ele>179.0</ele>
        <time>2018-10-03T06:23:27.000Z</time>
      </trkpt>
      <trkpt lat="42.35800333" lon="-7.86556167">
        <ele>179.0</ele>
        <time>2018-10-03T06:23:28.000Z</time>
      </trkpt>
      <trkpt lat="42.35801833" lon="-7.865565">
        <ele>180.0</ele>
        <time>2018-10-03T06:23:29.000Z</time>
      </trkpt>
      <trkpt lat="42.358035" lon="-7.86556667">
        <ele>180.0</ele>
        <time>2018-10-03T06:23:30.000Z</time>
      </trkpt>
      <trkpt lat="42.358055" lon="-7.86556333">
        <ele>181.0</ele>
        <time>2018-10-03T06:23:31.000Z</time>
      </trkpt>
      <trkpt lat="42.35807333" lon="-7.86556">
        <ele>181.0</ele>
        <time>2018-10-03T06:23:32.000Z</time>
      </trkpt>
      <trkpt lat="42.35809" lon="-7.86555833">
        <ele>182.0</ele>
        <time>2018-10-03T06:23:33.000Z</time>
      </trkpt>
      <trkpt lat="42.35810833" lon="-7.86555333">
        <ele>182.0</ele>
        <time>2018-10-03T06:23:34.000Z</time>
      </trkpt>
      <trkpt lat="42.358125" lon="-7.86555">
        <ele>182.0</ele>
        <time>2018-10-03T06:23:35.000Z</time>
      </trkpt>
      <trkpt lat="42.35814" lon="-7.86555">
        <ele>183.0</ele>
        <time>2018-10-03T06:23:36.000Z</time>
      </trkpt>
      <trkpt lat="42.35815333" lon="-7.86554667">
        <ele>183.0</ele>
        <time>2018-10-03T06:23:37.000Z</time>
      </trkpt>
      <trkpt lat="42.35816667" lon="-7.86554167">
        <ele>184.0</ele>
        <time>2018-10-03T06:23:38.000Z</time>
      </trkpt>
      <trkpt lat="42.35816833" lon="-7.86553833">
        <ele>184.0</ele>
        <time>2018-10-03T06:23:39.000Z</time>
      </trkpt>
      <trkpt lat="42.35817" lon="-7.86553667">
        <ele>183.0</ele>
        <time>2018-10-03T06:23:40.000Z</time>
      </trkpt>
      <trkpt lat="42.35817" lon="-7.86553667">
        <ele>183.0</ele>
        <time>2018-10-03T06:23:41.000Z</time>
      </trkpt>
      <trkpt lat="42.35817" lon="-7.86553667">
        <ele>184.0</ele>
        <time>2018-10-03T06:23:42.000Z</time>
      </trkpt>
      <trkpt lat="42.35817" lon="-7.865535">
        <ele>184.0</ele>
        <time>2018-10-03T06:23:43.000Z</time>
      </trkpt>
      <trkpt lat="42.35817" lon="-7.865535">
        <ele>184.0</ele>
        <time>2018-10-03T06:23:44.000Z</time>
      </trkpt>
      <trkpt lat="42.35817167" lon="-7.865535">
        <ele>184.0</ele>
        <time>2018-10-03T06:23:45.000Z</time>
      </trkpt>
      <trkpt lat="42.35817167" lon="-7.865535">
        <ele>184.0</ele>
        <time>2018-10-03T06:23:46.000Z</time>
      </trkpt>
      <trkpt lat="42.35817333" lon="-7.86553167">
        <ele>184.0</ele>
        <time>2018-10-03T06:23:47.000Z</time>
      </trkpt>
      <trkpt lat="42.35818" lon="-7.86551833">
        <ele>183.0</ele>
        <time>2018-10-03T06:23:48.000Z</time>
      </trkpt>
      <trkpt lat="42.35819" lon="-7.86550333">
        <ele>183.0</ele>
        <time>2018-10-03T06:23:49.000Z</time>
      </trkpt>
      <trkpt lat="42.35820167" lon="-7.86548667">
        <ele>183.0</ele>
        <time>2018-10-03T06:23:50.000Z</time>
      </trkpt>
      <trkpt lat="42.35821667" lon="-7.86547333">
        <ele>183.0</ele>
        <time>2018-10-03T06:23:51.000Z</time>
      </trkpt>
      <trkpt lat="42.35823333" lon="-7.86546">
        <ele>183.0</ele>
        <time>2018-10-03T06:23:52.000Z</time>
      </trkpt>
      <trkpt lat="42.35824833" lon="-7.86544833">
        <ele>183.0</ele>
        <time>2018-10-03T06:23:53.000Z</time>
      </trkpt>
      <trkpt lat="42.35826" lon="-7.86543333">
        <ele>183.0</ele>
        <time>2018-10-03T06:23:54.000Z</time>
      </trkpt>
      <trkpt lat="42.35827" lon="-7.86541667">
        <ele>182.0</ele>
        <time>2018-10-03T06:23:55.000Z</time>
      </trkpt>
      <trkpt lat="42.35828167" lon="-7.8654">
        <ele>182.0</ele>
        <time>2018-10-03T06:23:56.000Z</time>
      </trkpt>
      <trkpt lat="42.35829167" lon="-7.86538">
        <ele>182.0</ele>
        <time>2018-10-03T06:23:57.000Z</time>
      </trkpt>
      <trkpt lat="42.35830167" lon="-7.86535833">
        <ele>182.0</ele>
        <time>2018-10-03T06:23:58.000Z</time>
      </trkpt>
      <trkpt lat="42.35831167" lon="-7.86533833">
        <ele>181.0</ele>
        <time>2018-10-03T06:23:59.000Z</time>
      </trkpt>
      <trkpt lat="42.35831833" lon="-7.86531833">
        <ele>181.0</ele>
        <time>2018-10-03T06:24:00.000Z</time>
      </trkpt>
      <trkpt lat="42.35832667" lon="-7.8653">
        <ele>181.0</ele>
        <time>2018-10-03T06:24:01.000Z</time>
      </trkpt>
      <trkpt lat="42.35833667" lon="-7.86528167">
        <ele>181.0</ele>
        <time>2018-10-03T06:24:02.000Z</time>
      </trkpt>
      <trkpt lat="42.35834833" lon="-7.86526833">
        <ele>180.0</ele>
        <time>2018-10-03T06:24:03.000Z</time>
      </trkpt>
      <trkpt lat="42.35835833" lon="-7.86525333">
        <ele>180.0</ele>
        <time>2018-10-03T06:24:04.000Z</time>
      </trkpt>
      <trkpt lat="42.35837" lon="-7.86524">
        <ele>180.0</ele>
        <time>2018-10-03T06:24:05.000Z</time>
      </trkpt>
      <trkpt lat="42.35838167" lon="-7.86522333">
        <ele>180.0</ele>
        <time>2018-10-03T06:24:06.000Z</time>
      </trkpt>
      <trkpt lat="42.35839667" lon="-7.86520833">
        <ele>180.0</ele>
        <time>2018-10-03T06:24:07.000Z</time>
      </trkpt>
      <trkpt lat="42.35841" lon="-7.86519333">
        <ele>180.0</ele>
        <time>2018-10-03T06:24:08.000Z</time>
      </trkpt>
      <trkpt lat="42.35842667" lon="-7.86518167">
        <ele>179.0</ele>
        <time>2018-10-03T06:24:09.000Z</time>
      </trkpt>
      <trkpt lat="42.35844333" lon="-7.86517167">
        <ele>179.0</ele>
        <time>2018-10-03T06:24:10.000Z</time>
      </trkpt>
      <trkpt lat="42.35846333" lon="-7.86516167">
        <ele>179.0</ele>
        <time>2018-10-03T06:24:11.000Z</time>
      </trkpt>
      <trkpt lat="42.35848167" lon="-7.86515333">
        <ele>178.0</ele>
        <time>2018-10-03T06:24:12.000Z</time>
      </trkpt>
      <trkpt lat="42.3585" lon="-7.865145">
        <ele>178.0</ele>
        <time>2018-10-03T06:24:13.000Z</time>
      </trkpt>
      <trkpt lat="42.35851833" lon="-7.865135">
        <ele>178.0</ele>
        <time>2018-10-03T06:24:14.000Z</time>
      </trkpt>
      <trkpt lat="42.35853667" lon="-7.86512667">
        <ele>178.0</ele>
        <time>2018-10-03T06:24:15.000Z</time>
      </trkpt>
      <trkpt lat="42.35855333" lon="-7.86511833">
        <ele>177.0</ele>
        <time>2018-10-03T06:24:16.000Z</time>
      </trkpt>
      <trkpt lat="42.35857" lon="-7.86511333">
        <ele>177.0</ele>
        <time>2018-10-03T06:24:17.000Z</time>
      </trkpt>
      <trkpt lat="42.358585" lon="-7.865105">
        <ele>177.0</ele>
        <time>2018-10-03T06:24:18.000Z</time>
      </trkpt>
      <trkpt lat="42.35860167" lon="-7.8651">
        <ele>177.0</ele>
        <time>2018-10-03T06:24:19.000Z</time>
      </trkpt>
      <trkpt lat="42.35861667" lon="-7.86509667">
        <ele>177.0</ele>
        <time>2018-10-03T06:24:20.000Z</time>
      </trkpt>
      <trkpt lat="42.35863167" lon="-7.865095">
        <ele>176.0</ele>
        <time>2018-10-03T06:24:21.000Z</time>
      </trkpt>
      <trkpt lat="42.35864667" lon="-7.86509333">
        <ele>176.0</ele>
        <time>2018-10-03T06:24:22.000Z</time>
      </trkpt>
      <trkpt lat="42.35866333" lon="-7.86508667">
        <ele>176.0</ele>
        <time>2018-10-03T06:24:23.000Z</time>
      </trkpt>
      <trkpt lat="42.35868167" lon="-7.865075">
        <ele>176.0</ele>
        <time>2018-10-03T06:24:24.000Z</time>
      </trkpt>
      <trkpt lat="42.35869833" lon="-7.865065">
        <ele>175.0</ele>
        <time>2018-10-03T06:24:25.000Z</time>
      </trkpt>
      <trkpt lat="42.358715" lon="-7.86505667">
        <ele>175.0</ele>
        <time>2018-10-03T06:24:26.000Z</time>
      </trkpt>
      <trkpt lat="42.35873" lon="-7.86504667">
        <ele>175.0</ele>
        <time>2018-10-03T06:24:27.000Z</time>
      </trkpt>
      <trkpt lat="42.35874833" lon="-7.86503833">
        <ele>174.0</ele>
        <time>2018-10-03T06:24:28.000Z</time>
      </trkpt>
      <trkpt lat="42.35876" lon="-7.86503167">
        <ele>174.0</ele>
        <time>2018-10-03T06:24:29.000Z</time>
      </trkpt>
      <trkpt lat="42.35877333" lon="-7.86502833">
        <ele>174.0</ele>
        <time>2018-10-03T06:24:30.000Z</time>
      </trkpt>
      <trkpt lat="42.35879" lon="-7.86502333">
        <ele>174.0</ele>
        <time>2018-10-03T06:24:31.000Z</time>
      </trkpt>
      <trkpt lat="42.35880667" lon="-7.86502">
        <ele>174.0</ele>
        <time>2018-10-03T06:24:32.000Z</time>
      </trkpt>
      <trkpt lat="42.35882167" lon="-7.865015">
        <ele>173.0</ele>
        <time>2018-10-03T06:24:33.000Z</time>
      </trkpt>
      <trkpt lat="42.35883667" lon="-7.86501">
        <ele>173.0</ele>
        <time>2018-10-03T06:24:34.000Z</time>
      </trkpt>
      <trkpt lat="42.35885167" lon="-7.86500833">
        <ele>173.0</ele>
        <time>2018-10-03T06:24:35.000Z</time>
      </trkpt>
      <trkpt lat="42.358865" lon="-7.86500167">
        <ele>173.0</ele>
        <time>2018-10-03T06:24:36.000Z</time>
      </trkpt>
      <trkpt lat="42.35888167" lon="-7.864995">
        <ele>173.0</ele>
        <time>2018-10-03T06:24:37.000Z</time>
      </trkpt>
      <trkpt lat="42.35889833" lon="-7.86498833">
        <ele>173.0</ele>
        <time>2018-10-03T06:24:38.000Z</time>
      </trkpt>
      <trkpt lat="42.35891333" lon="-7.86498167">
        <ele>173.0</ele>
        <time>2018-10-03T06:24:39.000Z</time>
      </trkpt>
      <trkpt lat="42.35892833" lon="-7.86497333">
        <ele>173.0</ele>
        <time>2018-10-03T06:24:40.000Z</time>
      </trkpt>
      <trkpt lat="42.358945" lon="-7.86496667">
        <ele>173.0</ele>
        <time>2018-10-03T06:24:41.000Z</time>
      </trkpt>
      <trkpt lat="42.35896" lon="-7.86495833">
        <ele>173.0</ele>
        <time>2018-10-03T06:24:42.000Z</time>
      </trkpt>
      <trkpt lat="42.35898" lon="-7.86494667">
        <ele>173.0</ele>
        <time>2018-10-03T06:24:43.000Z</time>
      </trkpt>
      <trkpt lat="42.35899833" lon="-7.864935">
        <ele>173.0</ele>
        <time>2018-10-03T06:24:44.000Z</time>
      </trkpt>
      <trkpt lat="42.35901833" lon="-7.864925">
        <ele>173.0</ele>
        <time>2018-10-03T06:24:45.000Z</time>
      </trkpt>
      <trkpt lat="42.35903833" lon="-7.86491833">
        <ele>173.0</ele>
        <time>2018-10-03T06:24:46.000Z</time>
      </trkpt>
      <trkpt lat="42.35905833" lon="-7.86491">
        <ele>173.0</ele>
        <time>2018-10-03T06:24:47.000Z</time>
      </trkpt>
      <trkpt lat="42.35908167" lon="-7.86490333">
        <ele>173.0</ele>
        <time>2018-10-03T06:24:48.000Z</time>
      </trkpt>
      <trkpt lat="42.3591" lon="-7.864895">
        <ele>173.0</ele>
        <time>2018-10-03T06:24:49.000Z</time>
      </trkpt>
      <trkpt lat="42.35911333" lon="-7.86488333">
        <ele>173.0</ele>
        <time>2018-10-03T06:24:50.000Z</time>
      </trkpt>
      <trkpt lat="42.35912833" lon="-7.86487">
        <ele>173.0</ele>
        <time>2018-10-03T06:24:51.000Z</time>
      </trkpt>
      <trkpt lat="42.35914667" lon="-7.86485667">
        <ele>173.0</ele>
        <time>2018-10-03T06:24:52.000Z</time>
      </trkpt>
      <trkpt lat="42.35916333" lon="-7.864845">
        <ele>173.0</ele>
        <time>2018-10-03T06:24:53.000Z</time>
      </trkpt>
      <trkpt lat="42.35918" lon="-7.864835">
        <ele>173.0</ele>
        <time>2018-10-03T06:24:54.000Z</time>
      </trkpt>
      <trkpt lat="42.35919333" lon="-7.86482667">
        <ele>172.0</ele>
        <time>2018-10-03T06:24:55.000Z</time>
      </trkpt>
      <trkpt lat="42.35920667" lon="-7.864815">
        <ele>172.0</ele>
        <time>2018-10-03T06:24:56.000Z</time>
      </trkpt>
      <trkpt lat="42.35922167" lon="-7.86480667">
        <ele>172.0</ele>
        <time>2018-10-03T06:24:57.000Z</time>
      </trkpt>
      <trkpt lat="42.35923667" lon="-7.86480167">
        <ele>172.0</ele>
        <time>2018-10-03T06:24:58.000Z</time>
      </trkpt>
      <trkpt lat="42.35925" lon="-7.86479167">
        <ele>172.0</ele>
        <time>2018-10-03T06:24:59.000Z</time>
      </trkpt>
      <trkpt lat="42.35926333" lon="-7.86478667">
        <ele>172.0</ele>
        <time>2018-10-03T06:25:00.000Z</time>
      </trkpt>
      <trkpt lat="42.359275" lon="-7.86478167">
        <ele>172.0</ele>
        <time>2018-10-03T06:25:01.000Z</time>
      </trkpt>
      <trkpt lat="42.359285" lon="-7.864775">
        <ele>171.0</ele>
        <time>2018-10-03T06:25:02.000Z</time>
      </trkpt>
      <trkpt lat="42.3593" lon="-7.864765">
        <ele>171.0</ele>
        <time>2018-10-03T06:25:03.000Z</time>
      </trkpt>
      <trkpt lat="42.35931333" lon="-7.86475667">
        <ele>171.0</ele>
        <time>2018-10-03T06:25:04.000Z</time>
      </trkpt>
      <trkpt lat="42.35932667" lon="-7.86475">
        <ele>170.0</ele>
        <time>2018-10-03T06:25:05.000Z</time>
      </trkpt>
      <trkpt lat="42.35933833" lon="-7.86474667">
        <ele>170.0</ele>
        <time>2018-10-03T06:25:06.000Z</time>
      </trkpt>
      <trkpt lat="42.35934667" lon="-7.86474833">
        <ele>169.0</ele>
        <time>2018-10-03T06:25:07.000Z</time>
      </trkpt>
      <trkpt lat="42.35935333" lon="-7.86474833">
        <ele>169.0</ele>
        <time>2018-10-03T06:25:08.000Z</time>
      </trkpt>
      <trkpt lat="42.359355" lon="-7.86474833">
        <ele>169.0</ele>
        <time>2018-10-03T06:25:09.000Z</time>
      </trkpt>
      <trkpt lat="42.359355" lon="-7.86474833">
        <ele>169.0</ele>
        <time>2018-10-03T06:25:10.000Z</time>
      </trkpt>
      <trkpt lat="42.359355" lon="-7.86474667">
        <ele>168.0</ele>
        <time>2018-10-03T06:25:11.000Z</time>
      </trkpt>
      <trkpt lat="42.35935667" lon="-7.86474667">
        <ele>168.0</ele>
        <time>2018-10-03T06:25:12.000Z</time>
      </trkpt>
      <trkpt lat="42.35935667" lon="-7.864745">
        <ele>168.0</ele>
        <time>2018-10-03T06:25:13.000Z</time>
      </trkpt>
      <trkpt lat="42.35935667" lon="-7.864745">
        <ele>168.0</ele>
        <time>2018-10-03T06:25:14.000Z</time>
      </trkpt>
      <trkpt lat="42.35935667" lon="-7.864745">
        <ele>168.0</ele>
        <time>2018-10-03T06:25:15.000Z</time>
      </trkpt>
      <trkpt lat="42.35935667" lon="-7.864745">
        <ele>168.0</ele>
        <time>2018-10-03T06:25:16.000Z</time>
      </trkpt>
      <trkpt lat="42.359355" lon="-7.86474167">
        <ele>167.0</ele>
        <time>2018-10-03T06:25:17.000Z</time>
      </trkpt>
      <trkpt lat="42.359355" lon="-7.86473333">
        <ele>167.0</ele>
        <time>2018-10-03T06:25:18.000Z</time>
      </trkpt>
      <trkpt lat="42.35935667" lon="-7.86472167">
        <ele>167.0</ele>
        <time>2018-10-03T06:25:19.000Z</time>
      </trkpt>
      <trkpt lat="42.35936" lon="-7.86471167">
        <ele>167.0</ele>
        <time>2018-10-03T06:25:20.000Z</time>
      </trkpt>
      <trkpt lat="42.35937" lon="-7.86469833">
        <ele>167.0</ele>
        <time>2018-10-03T06:25:21.000Z</time>
      </trkpt>
      <trkpt lat="42.35937833" lon="-7.86468667">
        <ele>167.0</ele>
        <time>2018-10-03T06:25:22.000Z</time>
      </trkpt>
      <trkpt lat="42.359385" lon="-7.86467667">
        <ele>167.0</ele>
        <time>2018-10-03T06:25:23.000Z</time>
      </trkpt>
      <trkpt lat="42.35939667" lon="-7.86466667">
        <ele>167.0</ele>
        <time>2018-10-03T06:25:24.000Z</time>
      </trkpt>
      <trkpt lat="42.35940833" lon="-7.86465667">
        <ele>167.0</ele>
        <time>2018-10-03T06:25:25.000Z</time>
      </trkpt>
      <trkpt lat="42.35942333" lon="-7.86464167">
        <ele>167.0</ele>
        <time>2018-10-03T06:25:26.000Z</time>
      </trkpt>
      <trkpt lat="42.35943667" lon="-7.86462333">
        <ele>167.0</ele>
        <time>2018-10-03T06:25:27.000Z</time>
      </trkpt>
      <trkpt lat="42.35944833" lon="-7.86460667">
        <ele>167.0</ele>
        <time>2018-10-03T06:25:28.000Z</time>
      </trkpt>
      <trkpt lat="42.35946" lon="-7.86459167">
        <ele>167.0</ele>
        <time>2018-10-03T06:25:29.000Z</time>
      </trkpt>
      <trkpt lat="42.35947167" lon="-7.86457833">
        <ele>167.0</ele>
        <time>2018-10-03T06:25:30.000Z</time>
      </trkpt>
      <trkpt lat="42.35948667" lon="-7.864565">
        <ele>167.0</ele>
        <time>2018-10-03T06:25:31.000Z</time>
      </trkpt>
      <trkpt lat="42.3595" lon="-7.86455167">
        <ele>167.0</ele>
        <time>2018-10-03T06:25:32.000Z</time>
      </trkpt>
      <trkpt lat="42.35951667" lon="-7.86454167">
        <ele>166.0</ele>
        <time>2018-10-03T06:25:33.000Z</time>
      </trkpt>
      <trkpt lat="42.35953167" lon="-7.86453167">
        <ele>166.0</ele>
        <time>2018-10-03T06:25:34.000Z</time>
      </trkpt>
      <trkpt lat="42.359545" lon="-7.86452">
        <ele>166.0</ele>
        <time>2018-10-03T06:25:35.000Z</time>
      </trkpt>
      <trkpt lat="42.359555" lon="-7.864505">
        <ele>165.0</ele>
        <time>2018-10-03T06:25:36.000Z</time>
      </trkpt>
      <trkpt lat="42.35956667" lon="-7.86448667">
        <ele>165.0</ele>
        <time>2018-10-03T06:25:37.000Z</time>
      </trkpt>
      <trkpt lat="42.35957833" lon="-7.86446667">
        <ele>165.0</ele>
        <time>2018-10-03T06:25:38.000Z</time>
      </trkpt>
      <trkpt lat="42.35959167" lon="-7.86444833">
        <ele>164.0</ele>
        <time>2018-10-03T06:25:39.000Z</time>
      </trkpt>
      <trkpt lat="42.35960667" lon="-7.86442833">
        <ele>164.0</ele>
        <time>2018-10-03T06:25:40.000Z</time>
      </trkpt>
      <trkpt lat="42.35962333" lon="-7.86440833">
        <ele>164.0</ele>
        <time>2018-10-03T06:25:41.000Z</time>
      </trkpt>
      <trkpt lat="42.35964" lon="-7.86438833">
        <ele>163.0</ele>
        <time>2018-10-03T06:25:42.000Z</time>
      </trkpt>
      <trkpt lat="42.35965833" lon="-7.86437167">
        <ele>163.0</ele>
        <time>2018-10-03T06:25:43.000Z</time>
      </trkpt>
      <trkpt lat="42.35967333" lon="-7.86435333">
        <ele>163.0</ele>
        <time>2018-10-03T06:25:44.000Z</time>
      </trkpt>
      <trkpt lat="42.35968833" lon="-7.86433333">
        <ele>163.0</ele>
        <time>2018-10-03T06:25:45.000Z</time>
      </trkpt>
      <trkpt lat="42.359705" lon="-7.86431333">
        <ele>162.0</ele>
        <time>2018-10-03T06:25:46.000Z</time>
      </trkpt>
      <trkpt lat="42.35971667" lon="-7.86429667">
        <ele>162.0</ele>
        <time>2018-10-03T06:25:47.000Z</time>
      </trkpt>
      <trkpt lat="42.35973167" lon="-7.86427833">
        <ele>162.0</ele>
        <time>2018-10-03T06:25:48.000Z</time>
      </trkpt>
      <trkpt lat="42.35974667" lon="-7.86425833">
        <ele>161.0</ele>
        <time>2018-10-03T06:25:49.000Z</time>
      </trkpt>
      <trkpt lat="42.35976333" lon="-7.86423667">
        <ele>161.0</ele>
        <time>2018-10-03T06:25:50.000Z</time>
      </trkpt>
      <trkpt lat="42.35978167" lon="-7.86421833">
        <ele>161.0</ele>
        <time>2018-10-03T06:25:51.000Z</time>
      </trkpt>
      <trkpt lat="42.3598" lon="-7.86420167">
        <ele>160.0</ele>
        <time>2018-10-03T06:25:52.000Z</time>
      </trkpt>
      <trkpt lat="42.35982" lon="-7.86418333">
        <ele>160.0</ele>
        <time>2018-10-03T06:25:53.000Z</time>
      </trkpt>
      <trkpt lat="42.35984" lon="-7.86416167">
        <ele>159.0</ele>
        <time>2018-10-03T06:25:54.000Z</time>
      </trkpt>
      <trkpt lat="42.35985333" lon="-7.86414167">
        <ele>159.0</ele>
        <time>2018-10-03T06:25:55.000Z</time>
      </trkpt>
      <trkpt lat="42.35986833" lon="-7.86412333">
        <ele>158.0</ele>
        <time>2018-10-03T06:25:56.000Z</time>
      </trkpt>
      <trkpt lat="42.35988167" lon="-7.86410833">
        <ele>158.0</ele>
        <time>2018-10-03T06:25:57.000Z</time>
      </trkpt>
      <trkpt lat="42.35989167" lon="-7.86409667">
        <ele>158.0</ele>
        <time>2018-10-03T06:25:58.000Z</time>
      </trkpt>
      <trkpt lat="42.35990167" lon="-7.86408833">
        <ele>158.0</ele>
        <time>2018-10-03T06:25:59.000Z</time>
      </trkpt>
      <trkpt lat="42.35991333" lon="-7.86407833">
        <ele>158.0</ele>
        <time>2018-10-03T06:26:00.000Z</time>
      </trkpt>
      <trkpt lat="42.35992667" lon="-7.86406833">
        <ele>158.0</ele>
        <time>2018-10-03T06:26:01.000Z</time>
      </trkpt>
      <trkpt lat="42.35994" lon="-7.86406">
        <ele>158.0</ele>
        <time>2018-10-03T06:26:02.000Z</time>
      </trkpt>
      <trkpt lat="42.35995333" lon="-7.86405167">
        <ele>157.0</ele>
        <time>2018-10-03T06:26:03.000Z</time>
      </trkpt>
      <trkpt lat="42.35997167" lon="-7.86404">
        <ele>157.0</ele>
        <time>2018-10-03T06:26:04.000Z</time>
      </trkpt>
      <trkpt lat="42.35998833" lon="-7.86402667">
        <ele>157.0</ele>
        <time>2018-10-03T06:26:05.000Z</time>
      </trkpt>
      <trkpt lat="42.36000333" lon="-7.86401667">
        <ele>156.0</ele>
        <time>2018-10-03T06:26:06.000Z</time>
      </trkpt>
      <trkpt lat="42.36001833" lon="-7.86400833">
        <ele>156.0</ele>
        <time>2018-10-03T06:26:07.000Z</time>
      </trkpt>
      <trkpt lat="42.36003333" lon="-7.86399833">
        <ele>156.0</ele>
        <time>2018-10-03T06:26:08.000Z</time>
      </trkpt>
      <trkpt lat="42.36005" lon="-7.86399">
        <ele>156.0</ele>
        <time>2018-10-03T06:26:09.000Z</time>
      </trkpt>
      <trkpt lat="42.360065" lon="-7.86398167">
        <ele>156.0</ele>
        <time>2018-10-03T06:26:10.000Z</time>
      </trkpt>
      <trkpt lat="42.36008" lon="-7.863975">
        <ele>156.0</ele>
        <time>2018-10-03T06:26:11.000Z</time>
      </trkpt>
      <trkpt lat="42.36009333" lon="-7.863965">
        <ele>156.0</ele>
        <time>2018-10-03T06:26:12.000Z</time>
      </trkpt>
      <trkpt lat="42.36010833" lon="-7.863955">
        <ele>156.0</ele>
        <time>2018-10-03T06:26:13.000Z</time>
      </trkpt>
      <trkpt lat="42.36012333" lon="-7.863945">
        <ele>156.0</ele>
        <time>2018-10-03T06:26:14.000Z</time>
      </trkpt>
      <trkpt lat="42.36013667" lon="-7.863935">
        <ele>156.0</ele>
        <time>2018-10-03T06:26:15.000Z</time>
      </trkpt>
      <trkpt lat="42.36014667" lon="-7.86392667">
        <ele>156.0</ele>
        <time>2018-10-03T06:26:16.000Z</time>
      </trkpt>
      <trkpt lat="42.36015833" lon="-7.86391833">
        <ele>156.0</ele>
        <time>2018-10-03T06:26:17.000Z</time>
      </trkpt>
      <trkpt lat="42.36017333" lon="-7.863905">
        <ele>156.0</ele>
        <time>2018-10-03T06:26:18.000Z</time>
      </trkpt>
      <trkpt lat="42.36019" lon="-7.86389">
        <ele>156.0</ele>
        <time>2018-10-03T06:26:19.000Z</time>
      </trkpt>
      <trkpt lat="42.36020833" lon="-7.86387667">
        <ele>156.0</ele>
        <time>2018-10-03T06:26:20.000Z</time>
      </trkpt>
      <trkpt lat="42.360225" lon="-7.863865">
        <ele>156.0</ele>
        <time>2018-10-03T06:26:21.000Z</time>
      </trkpt>
      <trkpt lat="42.36024167" lon="-7.86385167">
        <ele>156.0</ele>
        <time>2018-10-03T06:26:22.000Z</time>
      </trkpt>
      <trkpt lat="42.360255" lon="-7.86383833">
        <ele>156.0</ele>
        <time>2018-10-03T06:26:23.000Z</time>
      </trkpt>
      <trkpt lat="42.36027" lon="-7.86382167">
        <ele>157.0</ele>
        <time>2018-10-03T06:26:24.000Z</time>
      </trkpt>
      <trkpt lat="42.360285" lon="-7.86380833">
        <ele>157.0</ele>
        <time>2018-10-03T06:26:25.000Z</time>
      </trkpt>
      <trkpt lat="42.36029667" lon="-7.86379333">
        <ele>157.0</ele>
        <time>2018-10-03T06:26:26.000Z</time>
      </trkpt>
      <trkpt lat="42.36030833" lon="-7.86377833">
        <ele>157.0</ele>
        <time>2018-10-03T06:26:27.000Z</time>
      </trkpt>
      <trkpt lat="42.36031833" lon="-7.86376167">
        <ele>157.0</ele>
        <time>2018-10-03T06:26:28.000Z</time>
      </trkpt>
      <trkpt lat="42.36032667" lon="-7.863745">
        <ele>157.0</ele>
        <time>2018-10-03T06:26:29.000Z</time>
      </trkpt>
      <trkpt lat="42.36033667" lon="-7.86372667">
        <ele>157.0</ele>
        <time>2018-10-03T06:26:30.000Z</time>
      </trkpt>
      <trkpt lat="42.36034667" lon="-7.86370833">
        <ele>157.0</ele>
        <time>2018-10-03T06:26:31.000Z</time>
      </trkpt>
      <trkpt lat="42.36035667" lon="-7.86369">
        <ele>157.0</ele>
        <time>2018-10-03T06:26:32.000Z</time>
      </trkpt>
      <trkpt lat="42.36037" lon="-7.86366833">
        <ele>157.0</ele>
        <time>2018-10-03T06:26:33.000Z</time>
      </trkpt>
      <trkpt lat="42.36038333" lon="-7.863645">
        <ele>157.0</ele>
        <time>2018-10-03T06:26:34.000Z</time>
      </trkpt>
      <trkpt lat="42.36039833" lon="-7.86362167">
        <ele>158.0</ele>
        <time>2018-10-03T06:26:35.000Z</time>
      </trkpt>
      <trkpt lat="42.36041333" lon="-7.86360333">
        <ele>157.0</ele>
        <time>2018-10-03T06:26:36.000Z</time>
      </trkpt>
      <trkpt lat="42.36042667" lon="-7.86358333">
        <ele>157.0</ele>
        <time>2018-10-03T06:26:37.000Z</time>
      </trkpt>
      <trkpt lat="42.36044" lon="-7.86356333">
        <ele>157.0</ele>
        <time>2018-10-03T06:26:38.000Z</time>
      </trkpt>
      <trkpt lat="42.36045333" lon="-7.86354">
        <ele>158.0</ele>
        <time>2018-10-03T06:26:39.000Z</time>
      </trkpt>
      <trkpt lat="42.36046333" lon="-7.86351667">
        <ele>158.0</ele>
        <time>2018-10-03T06:26:40.000Z</time>
      </trkpt>
      <trkpt lat="42.36047333" lon="-7.86349667">
        <ele>158.0</ele>
        <time>2018-10-03T06:26:41.000Z</time>
      </trkpt>
      <trkpt lat="42.36048333" lon="-7.86347667">
        <ele>158.0</ele>
        <time>2018-10-03T06:26:42.000Z</time>
      </trkpt>
      <trkpt lat="42.36049333" lon="-7.86345833">
        <ele>158.0</ele>
        <time>2018-10-03T06:26:43.000Z</time>
      </trkpt>
      <trkpt lat="42.36050667" lon="-7.863435">
        <ele>158.0</ele>
        <time>2018-10-03T06:26:44.000Z</time>
      </trkpt>
      <trkpt lat="42.36051833" lon="-7.86341167">
        <ele>159.0</ele>
        <time>2018-10-03T06:26:45.000Z</time>
      </trkpt>
      <trkpt lat="42.36053167" lon="-7.86339167">
        <ele>159.0</ele>
        <time>2018-10-03T06:26:46.000Z</time>
      </trkpt>
      <trkpt lat="42.36054333" lon="-7.863375">
        <ele>159.0</ele>
        <time>2018-10-03T06:26:47.000Z</time>
      </trkpt>
      <trkpt lat="42.36055667" lon="-7.86335833">
        <ele>159.0</ele>
        <time>2018-10-03T06:26:48.000Z</time>
      </trkpt>
      <trkpt lat="42.36057" lon="-7.86334333">
        <ele>159.0</ele>
        <time>2018-10-03T06:26:49.000Z</time>
      </trkpt>
      <trkpt lat="42.36058667" lon="-7.86332333">
        <ele>159.0</ele>
        <time>2018-10-03T06:26:50.000Z</time>
      </trkpt>
      <trkpt lat="42.3606" lon="-7.86330333">
        <ele>159.0</ele>
        <time>2018-10-03T06:26:51.000Z</time>
      </trkpt>
      <trkpt lat="42.360615" lon="-7.863285">
        <ele>160.0</ele>
        <time>2018-10-03T06:26:52.000Z</time>
      </trkpt>
      <trkpt lat="42.36062667" lon="-7.86326667">
        <ele>160.0</ele>
        <time>2018-10-03T06:26:53.000Z</time>
      </trkpt>
      <trkpt lat="42.36062833" lon="-7.863265">
        <ele>160.0</ele>
        <time>2018-10-03T06:26:54.000Z</time>
      </trkpt>
      <trkpt lat="42.36063" lon="-7.86326167">
        <ele>160.0</ele>
        <time>2018-10-03T06:26:55.000Z</time>
      </trkpt>
      <trkpt lat="42.36063833" lon="-7.86324833">
        <ele>160.0</ele>
        <time>2018-10-03T06:26:56.000Z</time>
      </trkpt>
      <trkpt lat="42.36065" lon="-7.86323">
        <ele>160.0</ele>
        <time>2018-10-03T06:26:57.000Z</time>
      </trkpt>
      <trkpt lat="42.36066167" lon="-7.86321333">
        <ele>160.0</ele>
        <time>2018-10-03T06:26:58.000Z</time>
      </trkpt>
      <trkpt lat="42.36067333" lon="-7.86319833">
        <ele>160.0</ele>
        <time>2018-10-03T06:26:59.000Z</time>
      </trkpt>
      <trkpt lat="42.36068667" lon="-7.86318">
        <ele>160.0</ele>
        <time>2018-10-03T06:27:00.000Z</time>
      </trkpt>
      <trkpt lat="42.36070167" lon="-7.86316">
        <ele>160.0</ele>
        <time>2018-10-03T06:27:01.000Z</time>
      </trkpt>
      <trkpt lat="42.360715" lon="-7.86314167">
        <ele>161.0</ele>
        <time>2018-10-03T06:27:02.000Z</time>
      </trkpt>
      <trkpt lat="42.36073" lon="-7.86312333">
        <ele>161.0</ele>
        <time>2018-10-03T06:27:03.000Z</time>
      </trkpt>
      <trkpt lat="42.36074333" lon="-7.86311167">
        <ele>161.0</ele>
        <time>2018-10-03T06:27:04.000Z</time>
      </trkpt>
      <trkpt lat="42.360755" lon="-7.86309833">
        <ele>161.0</ele>
        <time>2018-10-03T06:27:05.000Z</time>
      </trkpt>
      <trkpt lat="42.36077" lon="-7.863085">
        <ele>161.0</ele>
        <time>2018-10-03T06:27:06.000Z</time>
      </trkpt>
      <trkpt lat="42.36078333" lon="-7.86307167">
        <ele>161.0</ele>
        <time>2018-10-03T06:27:07.000Z</time>
      </trkpt>
      <trkpt lat="42.3608" lon="-7.863055">
        <ele>161.0</ele>
        <time>2018-10-03T06:27:08.000Z</time>
      </trkpt>
      <trkpt lat="42.360815" lon="-7.86304333">
        <ele>161.0</ele>
        <time>2018-10-03T06:27:09.000Z</time>
      </trkpt>
      <trkpt lat="42.36083333" lon="-7.86303333">
        <ele>161.0</ele>
        <time>2018-10-03T06:27:10.000Z</time>
      </trkpt>
      <trkpt lat="42.36084833" lon="-7.86302333">
        <ele>161.0</ele>
        <time>2018-10-03T06:27:11.000Z</time>
      </trkpt>
      <trkpt lat="42.36086167" lon="-7.86301333">
        <ele>161.0</ele>
        <time>2018-10-03T06:27:12.000Z</time>
      </trkpt>
      <trkpt lat="42.36087667" lon="-7.86300833">
        <ele>161.0</ele>
        <time>2018-10-03T06:27:13.000Z</time>
      </trkpt>
      <trkpt lat="42.36089333" lon="-7.863">
        <ele>161.0</ele>
        <time>2018-10-03T06:27:14.000Z</time>
      </trkpt>
      <trkpt lat="42.36091" lon="-7.86299333">
        <ele>161.0</ele>
        <time>2018-10-03T06:27:15.000Z</time>
      </trkpt>
      <trkpt lat="42.36092667" lon="-7.86298667">
        <ele>161.0</ele>
        <time>2018-10-03T06:27:16.000Z</time>
      </trkpt>
      <trkpt lat="42.360945" lon="-7.86298">
        <ele>161.0</ele>
        <time>2018-10-03T06:27:17.000Z</time>
      </trkpt>
      <trkpt lat="42.36096333" lon="-7.862975">
        <ele>161.0</ele>
        <time>2018-10-03T06:27:18.000Z</time>
      </trkpt>
      <trkpt lat="42.36098167" lon="-7.86296667">
        <ele>161.0</ele>
        <time>2018-10-03T06:27:19.000Z</time>
      </trkpt>
      <trkpt lat="42.36099833" lon="-7.86295833">
        <ele>161.0</ele>
        <time>2018-10-03T06:27:20.000Z</time>
      </trkpt>
      <trkpt lat="42.36101667" lon="-7.86295">
        <ele>161.0</ele>
        <time>2018-10-03T06:27:21.000Z</time>
      </trkpt>
      <trkpt lat="42.36103333" lon="-7.86294333">
        <ele>161.0</ele>
        <time>2018-10-03T06:27:22.000Z</time>
      </trkpt>
      <trkpt lat="42.36105" lon="-7.86293667">
        <ele>161.0</ele>
        <time>2018-10-03T06:27:23.000Z</time>
      </trkpt>
      <trkpt lat="42.36106667" lon="-7.86293">
        <ele>161.0</ele>
        <time>2018-10-03T06:27:24.000Z</time>
      </trkpt>
      <trkpt lat="42.36108333" lon="-7.86292167">
        <ele>161.0</ele>
        <time>2018-10-03T06:27:25.000Z</time>
      </trkpt>
      <trkpt lat="42.3611" lon="-7.86291667">
        <ele>161.0</ele>
        <time>2018-10-03T06:27:26.000Z</time>
      </trkpt>
      <trkpt lat="42.36111667" lon="-7.86291">
        <ele>161.0</ele>
        <time>2018-10-03T06:27:27.000Z</time>
      </trkpt>
      <trkpt lat="42.36113167" lon="-7.862905">
        <ele>161.0</ele>
        <time>2018-10-03T06:27:28.000Z</time>
      </trkpt>
      <trkpt lat="42.36114667" lon="-7.8629">
        <ele>161.0</ele>
        <time>2018-10-03T06:27:29.000Z</time>
      </trkpt>
      <trkpt lat="42.36116167" lon="-7.862895">
        <ele>161.0</ele>
        <time>2018-10-03T06:27:30.000Z</time>
      </trkpt>
      <trkpt lat="42.36117833" lon="-7.86289167">
        <ele>161.0</ele>
        <time>2018-10-03T06:27:31.000Z</time>
      </trkpt>
      <trkpt lat="42.361195" lon="-7.86288333">
        <ele>161.0</ele>
        <time>2018-10-03T06:27:32.000Z</time>
      </trkpt>
      <trkpt lat="42.36121" lon="-7.86287833">
        <ele>161.0</ele>
        <time>2018-10-03T06:27:33.000Z</time>
      </trkpt>
      <trkpt lat="42.36122667" lon="-7.862875">
        <ele>161.0</ele>
        <time>2018-10-03T06:27:34.000Z</time>
      </trkpt>
      <trkpt lat="42.36124333" lon="-7.86286833">
        <ele>161.0</ele>
        <time>2018-10-03T06:27:35.000Z</time>
      </trkpt>
      <trkpt lat="42.36126" lon="-7.86286333">
        <ele>161.0</ele>
        <time>2018-10-03T06:27:36.000Z</time>
      </trkpt>
      <trkpt lat="42.36127833" lon="-7.862855">
        <ele>161.0</ele>
        <time>2018-10-03T06:27:37.000Z</time>
      </trkpt>
      <trkpt lat="42.361295" lon="-7.86284667">
        <ele>161.0</ele>
        <time>2018-10-03T06:27:38.000Z</time>
      </trkpt>
      <trkpt lat="42.36131167" lon="-7.86284">
        <ele>161.0</ele>
        <time>2018-10-03T06:27:39.000Z</time>
      </trkpt>
      <trkpt lat="42.36132833" lon="-7.86283167">
        <ele>161.0</ele>
        <time>2018-10-03T06:27:40.000Z</time>
      </trkpt>
      <trkpt lat="42.361345" lon="-7.86282333">
        <ele>161.0</ele>
        <time>2018-10-03T06:27:41.000Z</time>
      </trkpt>
      <trkpt lat="42.36136" lon="-7.86282">
        <ele>161.0</ele>
        <time>2018-10-03T06:27:42.000Z</time>
      </trkpt>
      <trkpt lat="42.36137333" lon="-7.86281667">
        <ele>161.0</ele>
        <time>2018-10-03T06:27:43.000Z</time>
      </trkpt>
      <trkpt lat="42.36138833" lon="-7.862815">
        <ele>161.0</ele>
        <time>2018-10-03T06:27:44.000Z</time>
      </trkpt>
      <trkpt lat="42.36140333" lon="-7.86281333">
        <ele>161.0</ele>
        <time>2018-10-03T06:27:45.000Z</time>
      </trkpt>
      <trkpt lat="42.36142" lon="-7.86280667">
        <ele>161.0</ele>
        <time>2018-10-03T06:27:46.000Z</time>
      </trkpt>
      <trkpt lat="42.36144" lon="-7.86279833">
        <ele>161.0</ele>
        <time>2018-10-03T06:27:47.000Z</time>
      </trkpt>
      <trkpt lat="42.36145833" lon="-7.86279333">
        <ele>161.0</ele>
        <time>2018-10-03T06:27:48.000Z</time>
      </trkpt>
      <trkpt lat="42.361475" lon="-7.86278833">
        <ele>161.0</ele>
        <time>2018-10-03T06:27:49.000Z</time>
      </trkpt>
      <trkpt lat="42.36149167" lon="-7.862785">
        <ele>162.0</ele>
        <time>2018-10-03T06:27:50.000Z</time>
      </trkpt>
      <trkpt lat="42.36150833" lon="-7.86278167">
        <ele>162.0</ele>
        <time>2018-10-03T06:27:51.000Z</time>
      </trkpt>
      <trkpt lat="42.361525" lon="-7.86277833">
        <ele>162.0</ele>
        <time>2018-10-03T06:27:52.000Z</time>
      </trkpt>
      <trkpt lat="42.36154167" lon="-7.86277333">
        <ele>162.0</ele>
        <time>2018-10-03T06:27:53.000Z</time>
      </trkpt>
      <trkpt lat="42.36155833" lon="-7.86277">
        <ele>162.0</ele>
        <time>2018-10-03T06:27:54.000Z</time>
      </trkpt>
      <trkpt lat="42.36157333" lon="-7.86276667">
        <ele>162.0</ele>
        <time>2018-10-03T06:27:55.000Z</time>
      </trkpt>
      <trkpt lat="42.36158833" lon="-7.862765">
        <ele>162.0</ele>
        <time>2018-10-03T06:27:56.000Z</time>
      </trkpt>
      <trkpt lat="42.361605" lon="-7.86276167">
        <ele>162.0</ele>
        <time>2018-10-03T06:27:57.000Z</time>
      </trkpt>
      <trkpt lat="42.36162167" lon="-7.86276">
        <ele>162.0</ele>
        <time>2018-10-03T06:27:58.000Z</time>
      </trkpt>
      <trkpt lat="42.36163833" lon="-7.86275667">
        <ele>162.0</ele>
        <time>2018-10-03T06:27:59.000Z</time>
      </trkpt>
      <trkpt lat="42.36165333" lon="-7.86275667">
        <ele>162.0</ele>
        <time>2018-10-03T06:28:00.000Z</time>
      </trkpt>
      <trkpt lat="42.36167167" lon="-7.86275667">
        <ele>162.0</ele>
        <time>2018-10-03T06:28:01.000Z</time>
      </trkpt>
      <trkpt lat="42.36168833" lon="-7.86275667">
        <ele>162.0</ele>
        <time>2018-10-03T06:28:02.000Z</time>
      </trkpt>
      <trkpt lat="42.36170667" lon="-7.86275833">
        <ele>162.0</ele>
        <time>2018-10-03T06:28:03.000Z</time>
      </trkpt>
      <trkpt lat="42.36172333" lon="-7.86276">
        <ele>163.0</ele>
        <time>2018-10-03T06:28:04.000Z</time>
      </trkpt>
      <trkpt lat="42.36174167" lon="-7.86275833">
        <ele>163.0</ele>
        <time>2018-10-03T06:28:05.000Z</time>
      </trkpt>
      <trkpt lat="42.36175833" lon="-7.86275667">
        <ele>163.0</ele>
        <time>2018-10-03T06:28:06.000Z</time>
      </trkpt>
      <trkpt lat="42.361775" lon="-7.862755">
        <ele>163.0</ele>
        <time>2018-10-03T06:28:07.000Z</time>
      </trkpt>
      <trkpt lat="42.36179167" lon="-7.86275167">
        <ele>164.0</ele>
        <time>2018-10-03T06:28:08.000Z</time>
      </trkpt>
      <trkpt lat="42.36180833" lon="-7.86274667">
        <ele>164.0</ele>
        <time>2018-10-03T06:28:09.000Z</time>
      </trkpt>
      <trkpt lat="42.36182167" lon="-7.86274333">
        <ele>164.0</ele>
        <time>2018-10-03T06:28:10.000Z</time>
      </trkpt>
      <trkpt lat="42.361835" lon="-7.86274167">
        <ele>164.0</ele>
        <time>2018-10-03T06:28:11.000Z</time>
      </trkpt>
      <trkpt lat="42.36184833" lon="-7.86274">
        <ele>164.0</ele>
        <time>2018-10-03T06:28:12.000Z</time>
      </trkpt>
      <trkpt lat="42.36186167" lon="-7.86274">
        <ele>164.0</ele>
        <time>2018-10-03T06:28:13.000Z</time>
      </trkpt>
      <trkpt lat="42.361875" lon="-7.86274">
        <ele>164.0</ele>
        <time>2018-10-03T06:28:14.000Z</time>
      </trkpt>
      <trkpt lat="42.36189167" lon="-7.86273667">
        <ele>164.0</ele>
        <time>2018-10-03T06:28:15.000Z</time>
      </trkpt>
      <trkpt lat="42.36190667" lon="-7.86273667">
        <ele>164.0</ele>
        <time>2018-10-03T06:28:16.000Z</time>
      </trkpt>
      <trkpt lat="42.361925" lon="-7.86273333">
        <ele>164.0</ele>
        <time>2018-10-03T06:28:17.000Z</time>
      </trkpt>
      <trkpt lat="42.36194167" lon="-7.86273">
        <ele>164.0</ele>
        <time>2018-10-03T06:28:18.000Z</time>
      </trkpt>
      <trkpt lat="42.36196" lon="-7.86272833">
        <ele>164.0</ele>
        <time>2018-10-03T06:28:19.000Z</time>
      </trkpt>
      <trkpt lat="42.36198" lon="-7.862725">
        <ele>164.0</ele>
        <time>2018-10-03T06:28:20.000Z</time>
      </trkpt>
      <trkpt lat="42.36200167" lon="-7.86272">
        <ele>164.0</ele>
        <time>2018-10-03T06:28:21.000Z</time>
      </trkpt>
      <trkpt lat="42.36202167" lon="-7.86271667">
        <ele>164.0</ele>
        <time>2018-10-03T06:28:22.000Z</time>
      </trkpt>
      <trkpt lat="42.36204167" lon="-7.862715">
        <ele>164.0</ele>
        <time>2018-10-03T06:28:23.000Z</time>
      </trkpt>
      <trkpt lat="42.36206167" lon="-7.86271167">
        <ele>164.0</ele>
        <time>2018-10-03T06:28:24.000Z</time>
      </trkpt>
      <trkpt lat="42.36208167" lon="-7.86271">
        <ele>164.0</ele>
        <time>2018-10-03T06:28:25.000Z</time>
      </trkpt>
      <trkpt lat="42.3621" lon="-7.86270833">
        <ele>165.0</ele>
        <time>2018-10-03T06:28:26.000Z</time>
      </trkpt>
      <trkpt lat="42.36211667" lon="-7.86270833">
        <ele>165.0</ele>
        <time>2018-10-03T06:28:27.000Z</time>
      </trkpt>
      <trkpt lat="42.36213167" lon="-7.86270833">
        <ele>165.0</ele>
        <time>2018-10-03T06:28:28.000Z</time>
      </trkpt>
      <trkpt lat="42.362145" lon="-7.86270833">
        <ele>165.0</ele>
        <time>2018-10-03T06:28:29.000Z</time>
      </trkpt>
      <trkpt lat="42.36216167" lon="-7.86271">
        <ele>165.0</ele>
        <time>2018-10-03T06:28:30.000Z</time>
      </trkpt>
      <trkpt lat="42.36218" lon="-7.86271">
        <ele>165.0</ele>
        <time>2018-10-03T06:28:31.000Z</time>
      </trkpt>
      <trkpt lat="42.36219833" lon="-7.86271">
        <ele>165.0</ele>
        <time>2018-10-03T06:28:32.000Z</time>
      </trkpt>
      <trkpt lat="42.362215" lon="-7.86271">
        <ele>166.0</ele>
        <time>2018-10-03T06:28:33.000Z</time>
      </trkpt>
      <trkpt lat="42.36223333" lon="-7.86271167">
        <ele>166.0</ele>
        <time>2018-10-03T06:28:34.000Z</time>
      </trkpt>
      <trkpt lat="42.36224833" lon="-7.86271333">
        <ele>166.0</ele>
        <time>2018-10-03T06:28:35.000Z</time>
      </trkpt>
      <trkpt lat="42.36226333" lon="-7.86271333">
        <ele>166.0</ele>
        <time>2018-10-03T06:28:36.000Z</time>
      </trkpt>
      <trkpt lat="42.36228" lon="-7.86271333">
        <ele>166.0</ele>
        <time>2018-10-03T06:28:37.000Z</time>
      </trkpt>
      <trkpt lat="42.362295" lon="-7.862715">
        <ele>167.0</ele>
        <time>2018-10-03T06:28:38.000Z</time>
      </trkpt>
      <trkpt lat="42.36231167" lon="-7.86271833">
        <ele>167.0</ele>
        <time>2018-10-03T06:28:39.000Z</time>
      </trkpt>
      <trkpt lat="42.36232667" lon="-7.86272">
        <ele>167.0</ele>
        <time>2018-10-03T06:28:40.000Z</time>
      </trkpt>
      <trkpt lat="42.36233833" lon="-7.86272">
        <ele>167.0</ele>
        <time>2018-10-03T06:28:41.000Z</time>
      </trkpt>
      <trkpt lat="42.36234833" lon="-7.86271833">
        <ele>168.0</ele>
        <time>2018-10-03T06:28:42.000Z</time>
      </trkpt>
      <trkpt lat="42.36235667" lon="-7.86271667">
        <ele>168.0</ele>
        <time>2018-10-03T06:28:43.000Z</time>
      </trkpt>
      <trkpt lat="42.36236167" lon="-7.862715">
        <ele>167.0</ele>
        <time>2018-10-03T06:28:44.000Z</time>
      </trkpt>
      <trkpt lat="42.36236667" lon="-7.862715">
        <ele>167.0</ele>
        <time>2018-10-03T06:28:45.000Z</time>
      </trkpt>
      <trkpt lat="42.36236833" lon="-7.86271333">
        <ele>167.0</ele>
        <time>2018-10-03T06:28:46.000Z</time>
      </trkpt>
      <trkpt lat="42.36236667" lon="-7.86271333">
        <ele>167.0</ele>
        <time>2018-10-03T06:28:47.000Z</time>
      </trkpt>
      <trkpt lat="42.36236667" lon="-7.862715">
        <ele>167.0</ele>
        <time>2018-10-03T06:28:48.000Z</time>
      </trkpt>
      <trkpt lat="42.36236833" lon="-7.86271333">
        <ele>167.0</ele>
        <time>2018-10-03T06:28:49.000Z</time>
      </trkpt>
      <trkpt lat="42.36237" lon="-7.86271333">
        <ele>167.0</ele>
        <time>2018-10-03T06:28:50.000Z</time>
      </trkpt>
      <trkpt lat="42.36237" lon="-7.86271333">
        <ele>167.0</ele>
        <time>2018-10-03T06:28:51.000Z</time>
      </trkpt>
      <trkpt lat="42.36237167" lon="-7.86271333">
        <ele>167.0</ele>
        <time>2018-10-03T06:28:52.000Z</time>
      </trkpt>
      <trkpt lat="42.36237167" lon="-7.862715">
        <ele>167.0</ele>
        <time>2018-10-03T06:28:53.000Z</time>
      </trkpt>
      <trkpt lat="42.36237667" lon="-7.862715">
        <ele>167.0</ele>
        <time>2018-10-03T06:28:54.000Z</time>
      </trkpt>
      <trkpt lat="42.36238333" lon="-7.86271333">
        <ele>167.0</ele>
        <time>2018-10-03T06:28:55.000Z</time>
      </trkpt>
      <trkpt lat="42.36239167" lon="-7.86270833">
        <ele>167.0</ele>
        <time>2018-10-03T06:28:56.000Z</time>
      </trkpt>
      <trkpt lat="42.3624" lon="-7.86270333">
        <ele>167.0</ele>
        <time>2018-10-03T06:28:57.000Z</time>
      </trkpt>
      <trkpt lat="42.36241" lon="-7.8627">
        <ele>167.0</ele>
        <time>2018-10-03T06:28:58.000Z</time>
      </trkpt>
      <trkpt lat="42.36242167" lon="-7.86269333">
        <ele>167.0</ele>
        <time>2018-10-03T06:28:59.000Z</time>
      </trkpt>
      <trkpt lat="42.36243833" lon="-7.862685">
        <ele>167.0</ele>
        <time>2018-10-03T06:29:00.000Z</time>
      </trkpt>
      <trkpt lat="42.36245833" lon="-7.86268">
        <ele>167.0</ele>
        <time>2018-10-03T06:29:01.000Z</time>
      </trkpt>
      <trkpt lat="42.36247667" lon="-7.86267333">
        <ele>167.0</ele>
        <time>2018-10-03T06:29:02.000Z</time>
      </trkpt>
      <trkpt lat="42.36249333" lon="-7.86267">
        <ele>167.0</ele>
        <time>2018-10-03T06:29:03.000Z</time>
      </trkpt>
      <trkpt lat="42.36251" lon="-7.86266667">
        <ele>167.0</ele>
        <time>2018-10-03T06:29:04.000Z</time>
      </trkpt>
      <trkpt lat="42.36252667" lon="-7.86266">
        <ele>167.0</ele>
        <time>2018-10-03T06:29:05.000Z</time>
      </trkpt>
      <trkpt lat="42.362545" lon="-7.86265667">
        <ele>167.0</ele>
        <time>2018-10-03T06:29:06.000Z</time>
      </trkpt>
      <trkpt lat="42.36256333" lon="-7.86265167">
        <ele>168.0</ele>
        <time>2018-10-03T06:29:07.000Z</time>
      </trkpt>
      <trkpt lat="42.36258" lon="-7.86264833">
        <ele>168.0</ele>
        <time>2018-10-03T06:29:08.000Z</time>
      </trkpt>
      <trkpt lat="42.36259667" lon="-7.86264333">
        <ele>168.0</ele>
        <time>2018-10-03T06:29:09.000Z</time>
      </trkpt>
      <trkpt lat="42.36261333" lon="-7.86264">
        <ele>168.0</ele>
        <time>2018-10-03T06:29:10.000Z</time>
      </trkpt>
      <trkpt lat="42.36263" lon="-7.86263667">
        <ele>168.0</ele>
        <time>2018-10-03T06:29:11.000Z</time>
      </trkpt>
      <trkpt lat="42.36264833" lon="-7.86263">
        <ele>168.0</ele>
        <time>2018-10-03T06:29:12.000Z</time>
      </trkpt>
      <trkpt lat="42.36266667" lon="-7.86262333">
        <ele>169.0</ele>
        <time>2018-10-03T06:29:13.000Z</time>
      </trkpt>
      <trkpt lat="42.36268333" lon="-7.86261833">
        <ele>169.0</ele>
        <time>2018-10-03T06:29:14.000Z</time>
      </trkpt>
      <trkpt lat="42.36270167" lon="-7.86261333">
        <ele>169.0</ele>
        <time>2018-10-03T06:29:15.000Z</time>
      </trkpt>
      <trkpt lat="42.36271833" lon="-7.86260833">
        <ele>169.0</ele>
        <time>2018-10-03T06:29:16.000Z</time>
      </trkpt>
      <trkpt lat="42.362735" lon="-7.86260167">
        <ele>169.0</ele>
        <time>2018-10-03T06:29:17.000Z</time>
      </trkpt>
      <trkpt lat="42.36275167" lon="-7.862595">
        <ele>170.0</ele>
        <time>2018-10-03T06:29:18.000Z</time>
      </trkpt>
      <trkpt lat="42.36276833" lon="-7.86258667">
        <ele>170.0</ele>
        <time>2018-10-03T06:29:19.000Z</time>
      </trkpt>
      <trkpt lat="42.36278333" lon="-7.86257833">
        <ele>170.0</ele>
        <time>2018-10-03T06:29:20.000Z</time>
      </trkpt>
      <trkpt lat="42.3628" lon="-7.86257167">
        <ele>170.0</ele>
        <time>2018-10-03T06:29:21.000Z</time>
      </trkpt>
      <trkpt lat="42.362815" lon="-7.86256167">
        <ele>170.0</ele>
        <time>2018-10-03T06:29:22.000Z</time>
      </trkpt>
      <trkpt lat="42.36282833" lon="-7.86255333">
        <ele>170.0</ele>
        <time>2018-10-03T06:29:23.000Z</time>
      </trkpt>
      <trkpt lat="42.36284167" lon="-7.86254667">
        <ele>171.0</ele>
        <time>2018-10-03T06:29:24.000Z</time>
      </trkpt>
      <trkpt lat="42.362855" lon="-7.86253833">
        <ele>171.0</ele>
        <time>2018-10-03T06:29:25.000Z</time>
      </trkpt>
      <trkpt lat="42.36286667" lon="-7.86253333">
        <ele>171.0</ele>
        <time>2018-10-03T06:29:26.000Z</time>
      </trkpt>
      <trkpt lat="42.36287833" lon="-7.86252667">
        <ele>171.0</ele>
        <time>2018-10-03T06:29:27.000Z</time>
      </trkpt>
      <trkpt lat="42.36289167" lon="-7.86251667">
        <ele>172.0</ele>
        <time>2018-10-03T06:29:28.000Z</time>
      </trkpt>
      <trkpt lat="42.36290333" lon="-7.86250833">
        <ele>172.0</ele>
        <time>2018-10-03T06:29:29.000Z</time>
      </trkpt>
      <trkpt lat="42.36291333" lon="-7.86249667">
        <ele>172.0</ele>
        <time>2018-10-03T06:29:30.000Z</time>
      </trkpt>
      <trkpt lat="42.362925" lon="-7.86248333">
        <ele>172.0</ele>
        <time>2018-10-03T06:29:31.000Z</time>
      </trkpt>
      <trkpt lat="42.36293833" lon="-7.86246667">
        <ele>172.0</ele>
        <time>2018-10-03T06:29:32.000Z</time>
      </trkpt>
      <trkpt lat="42.36295333" lon="-7.86245">
        <ele>173.0</ele>
        <time>2018-10-03T06:29:33.000Z</time>
      </trkpt>
      <trkpt lat="42.36297" lon="-7.86243667">
        <ele>173.0</ele>
        <time>2018-10-03T06:29:34.000Z</time>
      </trkpt>
      <trkpt lat="42.36298333" lon="-7.86242667">
        <ele>173.0</ele>
        <time>2018-10-03T06:29:35.000Z</time>
      </trkpt>
      <trkpt lat="42.36299833" lon="-7.862415">
        <ele>174.0</ele>
        <time>2018-10-03T06:29:36.000Z</time>
      </trkpt>
      <trkpt lat="42.36301667" lon="-7.86239833">
        <ele>174.0</ele>
        <time>2018-10-03T06:29:37.000Z</time>
      </trkpt>
      <trkpt lat="42.36303167" lon="-7.862385">
        <ele>174.0</ele>
        <time>2018-10-03T06:29:38.000Z</time>
      </trkpt>
      <trkpt lat="42.363045" lon="-7.86237">
        <ele>174.0</ele>
        <time>2018-10-03T06:29:39.000Z</time>
      </trkpt>
      <trkpt lat="42.36306333" lon="-7.86235667">
        <ele>174.0</ele>
        <time>2018-10-03T06:29:40.000Z</time>
      </trkpt>
      <trkpt lat="42.36308" lon="-7.86234167">
        <ele>174.0</ele>
        <time>2018-10-03T06:29:41.000Z</time>
      </trkpt>
      <trkpt lat="42.36309333" lon="-7.86232667">
        <ele>175.0</ele>
        <time>2018-10-03T06:29:42.000Z</time>
      </trkpt>
      <trkpt lat="42.36311" lon="-7.86231">
        <ele>175.0</ele>
        <time>2018-10-03T06:29:43.000Z</time>
      </trkpt>
      <trkpt lat="42.36312333" lon="-7.86229167">
        <ele>175.0</ele>
        <time>2018-10-03T06:29:44.000Z</time>
      </trkpt>
      <trkpt lat="42.36313667" lon="-7.862275">
        <ele>175.0</ele>
        <time>2018-10-03T06:29:45.000Z</time>
      </trkpt>
      <trkpt lat="42.36315167" lon="-7.86226167">
        <ele>175.0</ele>
        <time>2018-10-03T06:29:46.000Z</time>
      </trkpt>
      <trkpt lat="42.363165" lon="-7.86225">
        <ele>175.0</ele>
        <time>2018-10-03T06:29:47.000Z</time>
      </trkpt>
      <trkpt lat="42.36317833" lon="-7.86224333">
        <ele>175.0</ele>
        <time>2018-10-03T06:29:48.000Z</time>
      </trkpt>
      <trkpt lat="42.36319167" lon="-7.86223333">
        <ele>175.0</ele>
        <time>2018-10-03T06:29:49.000Z</time>
      </trkpt>
      <trkpt lat="42.36320333" lon="-7.86221833">
        <ele>175.0</ele>
        <time>2018-10-03T06:29:50.000Z</time>
      </trkpt>
      <trkpt lat="42.36321167" lon="-7.8622">
        <ele>176.0</ele>
        <time>2018-10-03T06:29:51.000Z</time>
      </trkpt>
      <trkpt lat="42.36322333" lon="-7.86218333">
        <ele>176.0</ele>
        <time>2018-10-03T06:29:52.000Z</time>
      </trkpt>
      <trkpt lat="42.363235" lon="-7.86217">
        <ele>176.0</ele>
        <time>2018-10-03T06:29:53.000Z</time>
      </trkpt>
      <trkpt lat="42.36324833" lon="-7.86216167">
        <ele>176.0</ele>
        <time>2018-10-03T06:29:54.000Z</time>
      </trkpt>
      <trkpt lat="42.36326" lon="-7.86215">
        <ele>176.0</ele>
        <time>2018-10-03T06:29:55.000Z</time>
      </trkpt>
      <trkpt lat="42.363275" lon="-7.86214">
        <ele>176.0</ele>
        <time>2018-10-03T06:29:56.000Z</time>
      </trkpt>
      <trkpt lat="42.36328667" lon="-7.86212833">
        <ele>176.0</ele>
        <time>2018-10-03T06:29:57.000Z</time>
      </trkpt>
      <trkpt lat="42.36330167" lon="-7.86211333">
        <ele>176.0</ele>
        <time>2018-10-03T06:29:58.000Z</time>
      </trkpt>
      <trkpt lat="42.36331667" lon="-7.8621">
        <ele>176.0</ele>
        <time>2018-10-03T06:29:59.000Z</time>
      </trkpt>
      <trkpt lat="42.36333167" lon="-7.86208833">
        <ele>176.0</ele>
        <time>2018-10-03T06:30:00.000Z</time>
      </trkpt>
      <trkpt lat="42.36334833" lon="-7.86208167">
        <ele>177.0</ele>
        <time>2018-10-03T06:30:01.000Z</time>
      </trkpt>
      <trkpt lat="42.363365" lon="-7.86208">
        <ele>177.0</ele>
        <time>2018-10-03T06:30:02.000Z</time>
      </trkpt>
      <trkpt lat="42.36338333" lon="-7.86207833">
        <ele>177.0</ele>
        <time>2018-10-03T06:30:03.000Z</time>
      </trkpt>
      <trkpt lat="42.3634" lon="-7.86207833">
        <ele>177.0</ele>
        <time>2018-10-03T06:30:04.000Z</time>
      </trkpt>
      <trkpt lat="42.36341667" lon="-7.86207833">
        <ele>177.0</ele>
        <time>2018-10-03T06:30:05.000Z</time>
      </trkpt>
      <trkpt lat="42.36343167" lon="-7.86208167">
        <ele>177.0</ele>
        <time>2018-10-03T06:30:06.000Z</time>
      </trkpt>
      <trkpt lat="42.363445" lon="-7.86208667">
        <ele>177.0</ele>
        <time>2018-10-03T06:30:07.000Z</time>
      </trkpt>
      <trkpt lat="42.36345833" lon="-7.86209333">
        <ele>177.0</ele>
        <time>2018-10-03T06:30:08.000Z</time>
      </trkpt>
      <trkpt lat="42.363475" lon="-7.86209833">
        <ele>177.0</ele>
        <time>2018-10-03T06:30:09.000Z</time>
      </trkpt>
      <trkpt lat="42.36349167" lon="-7.86210667">
        <ele>177.0</ele>
        <time>2018-10-03T06:30:10.000Z</time>
      </trkpt>
      <trkpt lat="42.36350667" lon="-7.86211333">
        <ele>177.0</ele>
        <time>2018-10-03T06:30:11.000Z</time>
      </trkpt>
      <trkpt lat="42.36352333" lon="-7.86212">
        <ele>178.0</ele>
        <time>2018-10-03T06:30:12.000Z</time>
      </trkpt>
      <trkpt lat="42.36353833" lon="-7.86212833">
        <ele>178.0</ele>
        <time>2018-10-03T06:30:13.000Z</time>
      </trkpt>
      <trkpt lat="42.36355333" lon="-7.86213667">
        <ele>178.0</ele>
        <time>2018-10-03T06:30:14.000Z</time>
      </trkpt>
      <trkpt lat="42.36357" lon="-7.86214333">
        <ele>178.0</ele>
        <time>2018-10-03T06:30:15.000Z</time>
      </trkpt>
      <trkpt lat="42.36358667" lon="-7.86215">
        <ele>178.0</ele>
        <time>2018-10-03T06:30:16.000Z</time>
      </trkpt>
      <trkpt lat="42.36360167" lon="-7.862155">
        <ele>178.0</ele>
        <time>2018-10-03T06:30:17.000Z</time>
      </trkpt>
      <trkpt lat="42.36361667" lon="-7.86216167">
        <ele>179.0</ele>
        <time>2018-10-03T06:30:18.000Z</time>
      </trkpt>
      <trkpt lat="42.36363167" lon="-7.86216667">
        <ele>179.0</ele>
        <time>2018-10-03T06:30:19.000Z</time>
      </trkpt>
      <trkpt lat="42.36364833" lon="-7.86217">
        <ele>179.0</ele>
        <time>2018-10-03T06:30:20.000Z</time>
      </trkpt>
      <trkpt lat="42.363665" lon="-7.86217333">
        <ele>179.0</ele>
        <time>2018-10-03T06:30:21.000Z</time>
      </trkpt>
      <trkpt lat="42.36368" lon="-7.862175">
        <ele>179.0</ele>
        <time>2018-10-03T06:30:22.000Z</time>
      </trkpt>
      <trkpt lat="42.36369667" lon="-7.862175">
        <ele>179.0</ele>
        <time>2018-10-03T06:30:23.000Z</time>
      </trkpt>
      <trkpt lat="42.36371333" lon="-7.862175">
        <ele>179.0</ele>
        <time>2018-10-03T06:30:24.000Z</time>
      </trkpt>
      <trkpt lat="42.36372833" lon="-7.86218">
        <ele>179.0</ele>
        <time>2018-10-03T06:30:25.000Z</time>
      </trkpt>
      <trkpt lat="42.363745" lon="-7.86218333">
        <ele>179.0</ele>
        <time>2018-10-03T06:30:26.000Z</time>
      </trkpt>
      <trkpt lat="42.36376167" lon="-7.862185">
        <ele>179.0</ele>
        <time>2018-10-03T06:30:27.000Z</time>
      </trkpt>
      <trkpt lat="42.36377833" lon="-7.86218833">
        <ele>179.0</ele>
        <time>2018-10-03T06:30:28.000Z</time>
      </trkpt>
      <trkpt lat="42.36379333" lon="-7.86218833">
        <ele>179.0</ele>
        <time>2018-10-03T06:30:29.000Z</time>
      </trkpt>
      <trkpt lat="42.36381333" lon="-7.86218833">
        <ele>179.0</ele>
        <time>2018-10-03T06:30:30.000Z</time>
      </trkpt>
      <trkpt lat="42.36383" lon="-7.86219167">
        <ele>179.0</ele>
        <time>2018-10-03T06:30:31.000Z</time>
      </trkpt>
      <trkpt lat="42.363845" lon="-7.862195">
        <ele>179.0</ele>
        <time>2018-10-03T06:30:32.000Z</time>
      </trkpt>
      <trkpt lat="42.36386" lon="-7.86219667">
        <ele>179.0</ele>
        <time>2018-10-03T06:30:33.000Z</time>
      </trkpt>
      <trkpt lat="42.363875" lon="-7.8622">
        <ele>180.0</ele>
        <time>2018-10-03T06:30:34.000Z</time>
      </trkpt>
      <trkpt lat="42.36389333" lon="-7.8622">
        <ele>180.0</ele>
        <time>2018-10-03T06:30:35.000Z</time>
      </trkpt>
      <trkpt lat="42.36391333" lon="-7.86220167">
        <ele>180.0</ele>
        <time>2018-10-03T06:30:36.000Z</time>
      </trkpt>
      <trkpt lat="42.36393333" lon="-7.86220333">
        <ele>180.0</ele>
        <time>2018-10-03T06:30:37.000Z</time>
      </trkpt>
      <trkpt lat="42.36395" lon="-7.862205">
        <ele>180.0</ele>
        <time>2018-10-03T06:30:38.000Z</time>
      </trkpt>
      <trkpt lat="42.363965" lon="-7.86220833">
        <ele>180.0</ele>
        <time>2018-10-03T06:30:39.000Z</time>
      </trkpt>
      <trkpt lat="42.36398" lon="-7.86221167">
        <ele>180.0</ele>
        <time>2018-10-03T06:30:40.000Z</time>
      </trkpt>
      <trkpt lat="42.36399667" lon="-7.86221333">
        <ele>180.0</ele>
        <time>2018-10-03T06:30:41.000Z</time>
      </trkpt>
      <trkpt lat="42.364015" lon="-7.86221167">
        <ele>180.0</ele>
        <time>2018-10-03T06:30:42.000Z</time>
      </trkpt>
      <trkpt lat="42.36403" lon="-7.86221333">
        <ele>180.0</ele>
        <time>2018-10-03T06:30:43.000Z</time>
      </trkpt>
      <trkpt lat="42.36404667" lon="-7.862215">
        <ele>181.0</ele>
        <time>2018-10-03T06:30:44.000Z</time>
      </trkpt>
      <trkpt lat="42.36406167" lon="-7.86221667">
        <ele>181.0</ele>
        <time>2018-10-03T06:30:45.000Z</time>
      </trkpt>
      <trkpt lat="42.36408" lon="-7.86221667">
        <ele>181.0</ele>
        <time>2018-10-03T06:30:46.000Z</time>
      </trkpt>
      <trkpt lat="42.3641" lon="-7.862215">
        <ele>181.0</ele>
        <time>2018-10-03T06:30:47.000Z</time>
      </trkpt>
      <trkpt lat="42.36412" lon="-7.86221167">
        <ele>181.0</ele>
        <time>2018-10-03T06:30:48.000Z</time>
      </trkpt>
      <trkpt lat="42.36414167" lon="-7.86221">
        <ele>181.0</ele>
        <time>2018-10-03T06:30:49.000Z</time>
      </trkpt>
      <trkpt lat="42.36416167" lon="-7.86220833">
        <ele>182.0</ele>
        <time>2018-10-03T06:30:50.000Z</time>
      </trkpt>
      <trkpt lat="42.36417833" lon="-7.86220833">
        <ele>182.0</ele>
        <time>2018-10-03T06:30:51.000Z</time>
      </trkpt>
      <trkpt lat="42.364195" lon="-7.86220833">
        <ele>182.0</ele>
        <time>2018-10-03T06:30:52.000Z</time>
      </trkpt>
      <trkpt lat="42.36421167" lon="-7.86220833">
        <ele>182.0</ele>
        <time>2018-10-03T06:30:53.000Z</time>
      </trkpt>
      <trkpt lat="42.36423" lon="-7.86220667">
        <ele>182.0</ele>
        <time>2018-10-03T06:30:54.000Z</time>
      </trkpt>
      <trkpt lat="42.36424667" lon="-7.862205">
        <ele>182.0</ele>
        <time>2018-10-03T06:30:55.000Z</time>
      </trkpt>
      <trkpt lat="42.36426" lon="-7.86220333">
        <ele>182.0</ele>
        <time>2018-10-03T06:30:56.000Z</time>
      </trkpt>
      <trkpt lat="42.36427667" lon="-7.86220167">
        <ele>183.0</ele>
        <time>2018-10-03T06:30:57.000Z</time>
      </trkpt>
      <trkpt lat="42.36429333" lon="-7.86220167">
        <ele>183.0</ele>
        <time>2018-10-03T06:30:58.000Z</time>
      </trkpt>
      <trkpt lat="42.36431" lon="-7.86220333">
        <ele>183.0</ele>
        <time>2018-10-03T06:30:59.000Z</time>
      </trkpt>
      <trkpt lat="42.36432667" lon="-7.86220167">
        <ele>183.0</ele>
        <time>2018-10-03T06:31:00.000Z</time>
      </trkpt>
      <trkpt lat="42.36434333" lon="-7.86220333">
        <ele>183.0</ele>
        <time>2018-10-03T06:31:01.000Z</time>
      </trkpt>
      <trkpt lat="42.36436333" lon="-7.86220333">
        <ele>184.0</ele>
        <time>2018-10-03T06:31:02.000Z</time>
      </trkpt>
      <trkpt lat="42.36438167" lon="-7.862205">
        <ele>184.0</ele>
        <time>2018-10-03T06:31:03.000Z</time>
      </trkpt>
      <trkpt lat="42.36439667" lon="-7.86220667">
        <ele>184.0</ele>
        <time>2018-10-03T06:31:04.000Z</time>
      </trkpt>
      <trkpt lat="42.36441333" lon="-7.86220667">
        <ele>184.0</ele>
        <time>2018-10-03T06:31:05.000Z</time>
      </trkpt>
      <trkpt lat="42.36443167" lon="-7.862205">
        <ele>184.0</ele>
        <time>2018-10-03T06:31:06.000Z</time>
      </trkpt>
      <trkpt lat="42.36444833" lon="-7.862205">
        <ele>184.0</ele>
        <time>2018-10-03T06:31:07.000Z</time>
      </trkpt>
      <trkpt lat="42.36446667" lon="-7.862205">
        <ele>184.0</ele>
        <time>2018-10-03T06:31:08.000Z</time>
      </trkpt>
      <trkpt lat="42.36448667" lon="-7.86220333">
        <ele>184.0</ele>
        <time>2018-10-03T06:31:09.000Z</time>
      </trkpt>
      <trkpt lat="42.36450333" lon="-7.86220167">
        <ele>184.0</ele>
        <time>2018-10-03T06:31:10.000Z</time>
      </trkpt>
      <trkpt lat="42.36451833" lon="-7.8622">
        <ele>184.0</ele>
        <time>2018-10-03T06:31:11.000Z</time>
      </trkpt>
      <trkpt lat="42.36453" lon="-7.86219667">
        <ele>184.0</ele>
        <time>2018-10-03T06:31:12.000Z</time>
      </trkpt>
      <trkpt lat="42.364545" lon="-7.86219333">
        <ele>185.0</ele>
        <time>2018-10-03T06:31:13.000Z</time>
      </trkpt>
      <trkpt lat="42.36456" lon="-7.862185">
        <ele>185.0</ele>
        <time>2018-10-03T06:31:14.000Z</time>
      </trkpt>
      <trkpt lat="42.36457667" lon="-7.86217833">
        <ele>185.0</ele>
        <time>2018-10-03T06:31:15.000Z</time>
      </trkpt>
      <trkpt lat="42.36459" lon="-7.86217">
        <ele>185.0</ele>
        <time>2018-10-03T06:31:16.000Z</time>
      </trkpt>
      <trkpt lat="42.364605" lon="-7.86216">
        <ele>184.0</ele>
        <time>2018-10-03T06:31:17.000Z</time>
      </trkpt>
      <trkpt lat="42.36462" lon="-7.86215333">
        <ele>184.0</ele>
        <time>2018-10-03T06:31:18.000Z</time>
      </trkpt>
      <trkpt lat="42.36463167" lon="-7.86214333">
        <ele>184.0</ele>
        <time>2018-10-03T06:31:19.000Z</time>
      </trkpt>
      <trkpt lat="42.36464333" lon="-7.862135">
        <ele>184.0</ele>
        <time>2018-10-03T06:31:20.000Z</time>
      </trkpt>
      <trkpt lat="42.36465667" lon="-7.862125">
        <ele>185.0</ele>
        <time>2018-10-03T06:31:21.000Z</time>
      </trkpt>
      <trkpt lat="42.36467167" lon="-7.86211667">
        <ele>185.0</ele>
        <time>2018-10-03T06:31:22.000Z</time>
      </trkpt>
      <trkpt lat="42.364685" lon="-7.86210833">
        <ele>185.0</ele>
        <time>2018-10-03T06:31:23.000Z</time>
      </trkpt>
      <trkpt lat="42.3647" lon="-7.86209833">
        <ele>185.0</ele>
        <time>2018-10-03T06:31:24.000Z</time>
      </trkpt>
      <trkpt lat="42.36471667" lon="-7.86208667">
        <ele>185.0</ele>
        <time>2018-10-03T06:31:25.000Z</time>
      </trkpt>
      <trkpt lat="42.36473167" lon="-7.86207333">
        <ele>185.0</ele>
        <time>2018-10-03T06:31:26.000Z</time>
      </trkpt>
      <trkpt lat="42.36474833" lon="-7.86206">
        <ele>185.0</ele>
        <time>2018-10-03T06:31:27.000Z</time>
      </trkpt>
      <trkpt lat="42.36476333" lon="-7.86205">
        <ele>185.0</ele>
        <time>2018-10-03T06:31:28.000Z</time>
      </trkpt>
      <trkpt lat="42.36477833" lon="-7.86204167">
        <ele>185.0</ele>
        <time>2018-10-03T06:31:29.000Z</time>
      </trkpt>
      <trkpt lat="42.36479167" lon="-7.862035">
        <ele>185.0</ele>
        <time>2018-10-03T06:31:30.000Z</time>
      </trkpt>
      <trkpt lat="42.364805" lon="-7.862025">
        <ele>185.0</ele>
        <time>2018-10-03T06:31:31.000Z</time>
      </trkpt>
      <trkpt lat="42.36481833" lon="-7.862015">
        <ele>186.0</ele>
        <time>2018-10-03T06:31:32.000Z</time>
      </trkpt>
      <trkpt lat="42.36483333" lon="-7.862">
        <ele>186.0</ele>
        <time>2018-10-03T06:31:33.000Z</time>
      </trkpt>
      <trkpt lat="42.36484833" lon="-7.86198833">
        <ele>186.0</ele>
        <time>2018-10-03T06:31:34.000Z</time>
      </trkpt>
      <trkpt lat="42.364865" lon="-7.861975">
        <ele>186.0</ele>
        <time>2018-10-03T06:31:35.000Z</time>
      </trkpt>
      <trkpt lat="42.36487833" lon="-7.861965">
        <ele>186.0</ele>
        <time>2018-10-03T06:31:36.000Z</time>
      </trkpt>
      <trkpt lat="42.36489333" lon="-7.86195333">
        <ele>186.0</ele>
        <time>2018-10-03T06:31:37.000Z</time>
      </trkpt>
      <trkpt lat="42.36491" lon="-7.86195">
        <ele>186.0</ele>
        <time>2018-10-03T06:31:38.000Z</time>
      </trkpt>
      <trkpt lat="42.36492833" lon="-7.861945">
        <ele>186.0</ele>
        <time>2018-10-03T06:31:39.000Z</time>
      </trkpt>
      <trkpt lat="42.36494833" lon="-7.86193833">
        <ele>186.0</ele>
        <time>2018-10-03T06:31:40.000Z</time>
      </trkpt>
      <trkpt lat="42.36496833" lon="-7.86193167">
        <ele>186.0</ele>
        <time>2018-10-03T06:31:41.000Z</time>
      </trkpt>
      <trkpt lat="42.36499" lon="-7.86192333">
        <ele>187.0</ele>
        <time>2018-10-03T06:31:42.000Z</time>
      </trkpt>
      <trkpt lat="42.36500833" lon="-7.86191833">
        <ele>187.0</ele>
        <time>2018-10-03T06:31:43.000Z</time>
      </trkpt>
      <trkpt lat="42.36502667" lon="-7.861915">
        <ele>187.0</ele>
        <time>2018-10-03T06:31:44.000Z</time>
      </trkpt>
      <trkpt lat="42.36504333" lon="-7.86191333">
        <ele>187.0</ele>
        <time>2018-10-03T06:31:45.000Z</time>
      </trkpt>
      <trkpt lat="42.36506167" lon="-7.86191167">
        <ele>187.0</ele>
        <time>2018-10-03T06:31:46.000Z</time>
      </trkpt>
      <trkpt lat="42.36508167" lon="-7.86190667">
        <ele>187.0</ele>
        <time>2018-10-03T06:31:47.000Z</time>
      </trkpt>
      <trkpt lat="42.3651" lon="-7.86190333">
        <ele>187.0</ele>
        <time>2018-10-03T06:31:48.000Z</time>
      </trkpt>
      <trkpt lat="42.36512167" lon="-7.86189667">
        <ele>187.0</ele>
        <time>2018-10-03T06:31:49.000Z</time>
      </trkpt>
      <trkpt lat="42.36514" lon="-7.86189167">
        <ele>187.0</ele>
        <time>2018-10-03T06:31:50.000Z</time>
      </trkpt>
      <trkpt lat="42.36515833" lon="-7.86188667">
        <ele>188.0</ele>
        <time>2018-10-03T06:31:51.000Z</time>
      </trkpt>
      <trkpt lat="42.365175" lon="-7.861885">
        <ele>188.0</ele>
        <time>2018-10-03T06:31:52.000Z</time>
      </trkpt>
      <trkpt lat="42.36519" lon="-7.861885">
        <ele>188.0</ele>
        <time>2018-10-03T06:31:53.000Z</time>
      </trkpt>
      <trkpt lat="42.36520833" lon="-7.86188167">
        <ele>188.0</ele>
        <time>2018-10-03T06:31:54.000Z</time>
      </trkpt>
      <trkpt lat="42.36523" lon="-7.86187833">
        <ele>188.0</ele>
        <time>2018-10-03T06:31:55.000Z</time>
      </trkpt>
      <trkpt lat="42.36525" lon="-7.861875">
        <ele>188.0</ele>
        <time>2018-10-03T06:31:56.000Z</time>
      </trkpt>
      <trkpt lat="42.36527" lon="-7.86187333">
        <ele>188.0</ele>
        <time>2018-10-03T06:31:57.000Z</time>
      </trkpt>
      <trkpt lat="42.36528667" lon="-7.861875">
        <ele>189.0</ele>
        <time>2018-10-03T06:31:58.000Z</time>
      </trkpt>
      <trkpt lat="42.36530333" lon="-7.86187667">
        <ele>189.0</ele>
        <time>2018-10-03T06:31:59.000Z</time>
      </trkpt>
      <trkpt lat="42.36532" lon="-7.86188">
        <ele>189.0</ele>
        <time>2018-10-03T06:32:00.000Z</time>
      </trkpt>
      <trkpt lat="42.365335" lon="-7.86188167">
        <ele>189.0</ele>
        <time>2018-10-03T06:32:01.000Z</time>
      </trkpt>
      <trkpt lat="42.36535167" lon="-7.86188333">
        <ele>189.0</ele>
        <time>2018-10-03T06:32:02.000Z</time>
      </trkpt>
      <trkpt lat="42.36537" lon="-7.86188667">
        <ele>190.0</ele>
        <time>2018-10-03T06:32:03.000Z</time>
      </trkpt>
      <trkpt lat="42.36538667" lon="-7.86189">
        <ele>190.0</ele>
        <time>2018-10-03T06:32:04.000Z</time>
      </trkpt>
      <trkpt lat="42.36540167" lon="-7.861895">
        <ele>190.0</ele>
        <time>2018-10-03T06:32:05.000Z</time>
      </trkpt>
      <trkpt lat="42.36541667" lon="-7.86189833">
        <ele>190.0</ele>
        <time>2018-10-03T06:32:06.000Z</time>
      </trkpt>
      <trkpt lat="42.36543167" lon="-7.86190333">
        <ele>190.0</ele>
        <time>2018-10-03T06:32:07.000Z</time>
      </trkpt>
      <trkpt lat="42.365445" lon="-7.86191167">
        <ele>190.0</ele>
        <time>2018-10-03T06:32:08.000Z</time>
      </trkpt>
      <trkpt lat="42.36545833" lon="-7.86192">
        <ele>191.0</ele>
        <time>2018-10-03T06:32:09.000Z</time>
      </trkpt>
      <trkpt lat="42.36546667" lon="-7.86193167">
        <ele>191.0</ele>
        <time>2018-10-03T06:32:10.000Z</time>
      </trkpt>
      <trkpt lat="42.36547333" lon="-7.86194167">
        <ele>191.0</ele>
        <time>2018-10-03T06:32:11.000Z</time>
      </trkpt>
      <trkpt lat="42.36548" lon="-7.86195333">
        <ele>191.0</ele>
        <time>2018-10-03T06:32:12.000Z</time>
      </trkpt>
      <trkpt lat="42.36548833" lon="-7.861965">
        <ele>192.0</ele>
        <time>2018-10-03T06:32:13.000Z</time>
      </trkpt>
      <trkpt lat="42.36549667" lon="-7.86197667">
        <ele>192.0</ele>
        <time>2018-10-03T06:32:14.000Z</time>
      </trkpt>
      <trkpt lat="42.36550667" lon="-7.86198833">
        <ele>192.0</ele>
        <time>2018-10-03T06:32:15.000Z</time>
      </trkpt>
      <trkpt lat="42.36551667" lon="-7.862">
        <ele>192.0</ele>
        <time>2018-10-03T06:32:16.000Z</time>
      </trkpt>
      <trkpt lat="42.365525" lon="-7.86201167">
        <ele>192.0</ele>
        <time>2018-10-03T06:32:17.000Z</time>
      </trkpt>
      <trkpt lat="42.36553333" lon="-7.86202167">
        <ele>192.0</ele>
        <time>2018-10-03T06:32:18.000Z</time>
      </trkpt>
      <trkpt lat="42.365545" lon="-7.86203167">
        <ele>193.0</ele>
        <time>2018-10-03T06:32:19.000Z</time>
      </trkpt>
      <trkpt lat="42.36555667" lon="-7.86204333">
        <ele>193.0</ele>
        <time>2018-10-03T06:32:20.000Z</time>
      </trkpt>
      <trkpt lat="42.36556833" lon="-7.86205333">
        <ele>193.0</ele>
        <time>2018-10-03T06:32:21.000Z</time>
      </trkpt>
      <trkpt lat="42.36557667" lon="-7.86206">
        <ele>193.0</ele>
        <time>2018-10-03T06:32:22.000Z</time>
      </trkpt>
      <trkpt lat="42.36558833" lon="-7.86206333">
        <ele>193.0</ele>
        <time>2018-10-03T06:32:23.000Z</time>
      </trkpt>
      <trkpt lat="42.36560167" lon="-7.86206">
        <ele>194.0</ele>
        <time>2018-10-03T06:32:24.000Z</time>
      </trkpt>
      <trkpt lat="42.365615" lon="-7.86205833">
        <ele>194.0</ele>
        <time>2018-10-03T06:32:25.000Z</time>
      </trkpt>
      <trkpt lat="42.36562833" lon="-7.86205167">
        <ele>194.0</ele>
        <time>2018-10-03T06:32:26.000Z</time>
      </trkpt>
      <trkpt lat="42.36564167" lon="-7.86204167">
        <ele>194.0</ele>
        <time>2018-10-03T06:32:27.000Z</time>
      </trkpt>
      <trkpt lat="42.36565667" lon="-7.86203167">
        <ele>194.0</ele>
        <time>2018-10-03T06:32:28.000Z</time>
      </trkpt>
      <trkpt lat="42.36567" lon="-7.86202167">
        <ele>194.0</ele>
        <time>2018-10-03T06:32:29.000Z</time>
      </trkpt>
      <trkpt lat="42.36568167" lon="-7.86201167">
        <ele>194.0</ele>
        <time>2018-10-03T06:32:30.000Z</time>
      </trkpt>
      <trkpt lat="42.365695" lon="-7.86200167">
        <ele>194.0</ele>
        <time>2018-10-03T06:32:31.000Z</time>
      </trkpt>
      <trkpt lat="42.365705" lon="-7.86199">
        <ele>194.0</ele>
        <time>2018-10-03T06:32:32.000Z</time>
      </trkpt>
      <trkpt lat="42.365715" lon="-7.86197833">
        <ele>195.0</ele>
        <time>2018-10-03T06:32:33.000Z</time>
      </trkpt>
      <trkpt lat="42.36572667" lon="-7.86196833">
        <ele>195.0</ele>
        <time>2018-10-03T06:32:34.000Z</time>
      </trkpt>
      <trkpt lat="42.36573667" lon="-7.86195667">
        <ele>195.0</ele>
        <time>2018-10-03T06:32:35.000Z</time>
      </trkpt>
      <trkpt lat="42.36574833" lon="-7.86194167">
        <ele>195.0</ele>
        <time>2018-10-03T06:32:36.000Z</time>
      </trkpt>
      <trkpt lat="42.36576167" lon="-7.86193">
        <ele>196.0</ele>
        <time>2018-10-03T06:32:37.000Z</time>
      </trkpt>
      <trkpt lat="42.36577333" lon="-7.86192">
        <ele>196.0</ele>
        <time>2018-10-03T06:32:38.000Z</time>
      </trkpt>
      <trkpt lat="42.36578833" lon="-7.86191167">
        <ele>196.0</ele>
        <time>2018-10-03T06:32:39.000Z</time>
      </trkpt>
      <trkpt lat="42.36580167" lon="-7.86190333">
        <ele>197.0</ele>
        <time>2018-10-03T06:32:40.000Z</time>
      </trkpt>
      <trkpt lat="42.365815" lon="-7.861895">
        <ele>197.0</ele>
        <time>2018-10-03T06:32:41.000Z</time>
      </trkpt>
      <trkpt lat="42.36582833" lon="-7.86188833">
        <ele>198.0</ele>
        <time>2018-10-03T06:32:42.000Z</time>
      </trkpt>
      <trkpt lat="42.36584" lon="-7.861885">
        <ele>198.0</ele>
        <time>2018-10-03T06:32:43.000Z</time>
      </trkpt>
      <trkpt lat="42.36585167" lon="-7.86188333">
        <ele>198.0</ele>
        <time>2018-10-03T06:32:44.000Z</time>
      </trkpt>
      <trkpt lat="42.36586333" lon="-7.86188333">
        <ele>198.0</ele>
        <time>2018-10-03T06:32:45.000Z</time>
      </trkpt>
      <trkpt lat="42.36587833" lon="-7.86188333">
        <ele>199.0</ele>
        <time>2018-10-03T06:32:46.000Z</time>
      </trkpt>
      <trkpt lat="42.36589667" lon="-7.86188333">
        <ele>199.0</ele>
        <time>2018-10-03T06:32:47.000Z</time>
      </trkpt>
      <trkpt lat="42.365915" lon="-7.86188333">
        <ele>199.0</ele>
        <time>2018-10-03T06:32:48.000Z</time>
      </trkpt>
      <trkpt lat="42.36593333" lon="-7.861885">
        <ele>200.0</ele>
        <time>2018-10-03T06:32:49.000Z</time>
      </trkpt>
      <trkpt lat="42.36594833" lon="-7.861885">
        <ele>200.0</ele>
        <time>2018-10-03T06:32:50.000Z</time>
      </trkpt>
      <trkpt lat="42.36596333" lon="-7.86188667">
        <ele>200.0</ele>
        <time>2018-10-03T06:32:51.000Z</time>
      </trkpt>
      <trkpt lat="42.36598" lon="-7.86189">
        <ele>200.0</ele>
        <time>2018-10-03T06:32:52.000Z</time>
      </trkpt>
      <trkpt lat="42.36599833" lon="-7.86189167">
        <ele>201.0</ele>
        <time>2018-10-03T06:32:53.000Z</time>
      </trkpt>
      <trkpt lat="42.366015" lon="-7.86189167">
        <ele>201.0</ele>
        <time>2018-10-03T06:32:54.000Z</time>
      </trkpt>
      <trkpt lat="42.36603333" lon="-7.86189333">
        <ele>201.0</ele>
        <time>2018-10-03T06:32:55.000Z</time>
      </trkpt>
      <trkpt lat="42.36605167" lon="-7.86189333">
        <ele>201.0</ele>
        <time>2018-10-03T06:32:56.000Z</time>
      </trkpt>
      <trkpt lat="42.36606833" lon="-7.86189667">
        <ele>202.0</ele>
        <time>2018-10-03T06:32:57.000Z</time>
      </trkpt>
      <trkpt lat="42.366085" lon="-7.86189667">
        <ele>202.0</ele>
        <time>2018-10-03T06:32:58.000Z</time>
      </trkpt>
      <trkpt lat="42.36609833" lon="-7.8619">
        <ele>202.0</ele>
        <time>2018-10-03T06:32:59.000Z</time>
      </trkpt>
      <trkpt lat="42.36611167" lon="-7.86190167">
        <ele>202.0</ele>
        <time>2018-10-03T06:33:00.000Z</time>
      </trkpt>
      <trkpt lat="42.36612833" lon="-7.86190167">
        <ele>202.0</ele>
        <time>2018-10-03T06:33:01.000Z</time>
      </trkpt>
      <trkpt lat="42.36614667" lon="-7.86190333">
        <ele>202.0</ele>
        <time>2018-10-03T06:33:02.000Z</time>
      </trkpt>
      <trkpt lat="42.36616333" lon="-7.86190333">
        <ele>203.0</ele>
        <time>2018-10-03T06:33:03.000Z</time>
      </trkpt>
      <trkpt lat="42.36618" lon="-7.861905">
        <ele>203.0</ele>
        <time>2018-10-03T06:33:04.000Z</time>
      </trkpt>
      <trkpt lat="42.366195" lon="-7.86190333">
        <ele>203.0</ele>
        <time>2018-10-03T06:33:05.000Z</time>
      </trkpt>
      <trkpt lat="42.36620833" lon="-7.8619">
        <ele>203.0</ele>
        <time>2018-10-03T06:33:06.000Z</time>
      </trkpt>
      <trkpt lat="42.36622167" lon="-7.86189333">
        <ele>203.0</ele>
        <time>2018-10-03T06:33:07.000Z</time>
      </trkpt>
      <trkpt lat="42.36623333" lon="-7.86188833">
        <ele>203.0</ele>
        <time>2018-10-03T06:33:08.000Z</time>
      </trkpt>
      <trkpt lat="42.36624333" lon="-7.86188">
        <ele>204.0</ele>
        <time>2018-10-03T06:33:09.000Z</time>
      </trkpt>
      <trkpt lat="42.36625667" lon="-7.86187">
        <ele>204.0</ele>
        <time>2018-10-03T06:33:10.000Z</time>
      </trkpt>
      <trkpt lat="42.36626667" lon="-7.86186">
        <ele>204.0</ele>
        <time>2018-10-03T06:33:11.000Z</time>
      </trkpt>
      <trkpt lat="42.36627833" lon="-7.86185">
        <ele>204.0</ele>
        <time>2018-10-03T06:33:12.000Z</time>
      </trkpt>
      <trkpt lat="42.36629167" lon="-7.86183833">
        <ele>205.0</ele>
        <time>2018-10-03T06:33:13.000Z</time>
      </trkpt>
      <trkpt lat="42.366305" lon="-7.86182667">
        <ele>205.0</ele>
        <time>2018-10-03T06:33:14.000Z</time>
      </trkpt>
      <trkpt lat="42.36632" lon="-7.86181333">
        <ele>205.0</ele>
        <time>2018-10-03T06:33:15.000Z</time>
      </trkpt>
      <trkpt lat="42.36633333" lon="-7.8618">
        <ele>205.0</ele>
        <time>2018-10-03T06:33:16.000Z</time>
      </trkpt>
      <trkpt lat="42.36634667" lon="-7.86178333">
        <ele>206.0</ele>
        <time>2018-10-03T06:33:17.000Z</time>
      </trkpt>
      <trkpt lat="42.36636" lon="-7.86176833">
        <ele>206.0</ele>
        <time>2018-10-03T06:33:18.000Z</time>
      </trkpt>
      <trkpt lat="42.36637167" lon="-7.86175667">
        <ele>206.0</ele>
        <time>2018-10-03T06:33:19.000Z</time>
      </trkpt>
      <trkpt lat="42.36638333" lon="-7.86174333">
        <ele>207.0</ele>
        <time>2018-10-03T06:33:20.000Z</time>
      </trkpt>
      <trkpt lat="42.36639667" lon="-7.86173333">
        <ele>207.0</ele>
        <time>2018-10-03T06:33:21.000Z</time>
      </trkpt>
      <trkpt lat="42.36641" lon="-7.86172333">
        <ele>207.0</ele>
        <time>2018-10-03T06:33:22.000Z</time>
      </trkpt>
      <trkpt lat="42.36642167" lon="-7.86171167">
        <ele>207.0</ele>
        <time>2018-10-03T06:33:23.000Z</time>
      </trkpt>
      <trkpt lat="42.36643333" lon="-7.8617">
        <ele>207.0</ele>
        <time>2018-10-03T06:33:24.000Z</time>
      </trkpt>
      <trkpt lat="42.36644667" lon="-7.86169">
        <ele>208.0</ele>
        <time>2018-10-03T06:33:25.000Z</time>
      </trkpt>
      <trkpt lat="42.36645833" lon="-7.86167833">
        <ele>208.0</ele>
        <time>2018-10-03T06:33:26.000Z</time>
      </trkpt>
      <trkpt lat="42.36647333" lon="-7.861665">
        <ele>208.0</ele>
        <time>2018-10-03T06:33:27.000Z</time>
      </trkpt>
      <trkpt lat="42.36648833" lon="-7.86165333">
        <ele>208.0</ele>
        <time>2018-10-03T06:33:28.000Z</time>
      </trkpt>
      <trkpt lat="42.366505" lon="-7.86164333">
        <ele>209.0</ele>
        <time>2018-10-03T06:33:29.000Z</time>
      </trkpt>
      <trkpt lat="42.36651833" lon="-7.86163667">
        <ele>209.0</ele>
        <time>2018-10-03T06:33:30.000Z</time>
      </trkpt>
      <trkpt lat="42.36653167" lon="-7.86162833">
        <ele>209.0</ele>
        <time>2018-10-03T06:33:31.000Z</time>
      </trkpt>
      <trkpt lat="42.366545" lon="-7.86161667">
        <ele>209.0</ele>
        <time>2018-10-03T06:33:32.000Z</time>
      </trkpt>
      <trkpt lat="42.36655833" lon="-7.86161">
        <ele>209.0</ele>
        <time>2018-10-03T06:33:33.000Z</time>
      </trkpt>
      <trkpt lat="42.36657" lon="-7.861605">
        <ele>210.0</ele>
        <time>2018-10-03T06:33:34.000Z</time>
      </trkpt>
      <trkpt lat="42.36658333" lon="-7.86160333">
        <ele>210.0</ele>
        <time>2018-10-03T06:33:35.000Z</time>
      </trkpt>
      <trkpt lat="42.36659833" lon="-7.86160333">
        <ele>210.0</ele>
        <time>2018-10-03T06:33:36.000Z</time>
      </trkpt>
      <trkpt lat="42.36661333" lon="-7.86160333">
        <ele>210.0</ele>
        <time>2018-10-03T06:33:37.000Z</time>
      </trkpt>
      <trkpt lat="42.36663167" lon="-7.86160167">
        <ele>210.0</ele>
        <time>2018-10-03T06:33:38.000Z</time>
      </trkpt>
      <trkpt lat="42.36664833" lon="-7.8616">
        <ele>210.0</ele>
        <time>2018-10-03T06:33:39.000Z</time>
      </trkpt>
      <trkpt lat="42.36666333" lon="-7.86159833">
        <ele>210.0</ele>
        <time>2018-10-03T06:33:40.000Z</time>
      </trkpt>
      <trkpt lat="42.366675" lon="-7.86159667">
        <ele>210.0</ele>
        <time>2018-10-03T06:33:41.000Z</time>
      </trkpt>
      <trkpt lat="42.36668833" lon="-7.86159667">
        <ele>210.0</ele>
        <time>2018-10-03T06:33:42.000Z</time>
      </trkpt>
      <trkpt lat="42.3667" lon="-7.861595">
        <ele>210.0</ele>
        <time>2018-10-03T06:33:43.000Z</time>
      </trkpt>
      <trkpt lat="42.36671333" lon="-7.86159">
        <ele>210.0</ele>
        <time>2018-10-03T06:33:44.000Z</time>
      </trkpt>
      <trkpt lat="42.36672833" lon="-7.86158667">
        <ele>210.0</ele>
        <time>2018-10-03T06:33:45.000Z</time>
      </trkpt>
      <trkpt lat="42.36674333" lon="-7.86158">
        <ele>210.0</ele>
        <time>2018-10-03T06:33:46.000Z</time>
      </trkpt>
      <trkpt lat="42.36675833" lon="-7.861575">
        <ele>210.0</ele>
        <time>2018-10-03T06:33:47.000Z</time>
      </trkpt>
      <trkpt lat="42.36677333" lon="-7.86157167">
        <ele>210.0</ele>
        <time>2018-10-03T06:33:48.000Z</time>
      </trkpt>
      <trkpt lat="42.36679" lon="-7.86156667">
        <ele>210.0</ele>
        <time>2018-10-03T06:33:49.000Z</time>
      </trkpt>
      <trkpt lat="42.36680667" lon="-7.86156">
        <ele>210.0</ele>
        <time>2018-10-03T06:33:50.000Z</time>
      </trkpt>
      <trkpt lat="42.36682667" lon="-7.86155167">
        <ele>210.0</ele>
        <time>2018-10-03T06:33:51.000Z</time>
      </trkpt>
      <trkpt lat="42.36684333" lon="-7.86154333">
        <ele>210.0</ele>
        <time>2018-10-03T06:33:52.000Z</time>
      </trkpt>
      <trkpt lat="42.36686167" lon="-7.861535">
        <ele>210.0</ele>
        <time>2018-10-03T06:33:53.000Z</time>
      </trkpt>
      <trkpt lat="42.36688" lon="-7.86153">
        <ele>211.0</ele>
        <time>2018-10-03T06:33:54.000Z</time>
      </trkpt>
      <trkpt lat="42.36689833" lon="-7.861525">
        <ele>211.0</ele>
        <time>2018-10-03T06:33:55.000Z</time>
      </trkpt>
      <trkpt lat="42.366915" lon="-7.86152167">
        <ele>211.0</ele>
        <time>2018-10-03T06:33:56.000Z</time>
      </trkpt>
      <trkpt lat="42.36693167" lon="-7.86151833">
        <ele>211.0</ele>
        <time>2018-10-03T06:33:57.000Z</time>
      </trkpt>
      <trkpt lat="42.36694833" lon="-7.86151333">
        <ele>211.0</ele>
        <time>2018-10-03T06:33:58.000Z</time>
      </trkpt>
      <trkpt lat="42.36696333" lon="-7.86151">
        <ele>211.0</ele>
        <time>2018-10-03T06:33:59.000Z</time>
      </trkpt>
      <trkpt lat="42.36697833" lon="-7.86150333">
        <ele>211.0</ele>
        <time>2018-10-03T06:34:00.000Z</time>
      </trkpt>
      <trkpt lat="42.36699333" lon="-7.8615">
        <ele>212.0</ele>
        <time>2018-10-03T06:34:01.000Z</time>
      </trkpt>
      <trkpt lat="42.36700833" lon="-7.86149333">
        <ele>212.0</ele>
        <time>2018-10-03T06:34:02.000Z</time>
      </trkpt>
      <trkpt lat="42.36702167" lon="-7.86149167">
        <ele>212.0</ele>
        <time>2018-10-03T06:34:03.000Z</time>
      </trkpt>
      <trkpt lat="42.36703667" lon="-7.86148667">
        <ele>212.0</ele>
        <time>2018-10-03T06:34:04.000Z</time>
      </trkpt>
      <trkpt lat="42.36705167" lon="-7.86148333">
        <ele>212.0</ele>
        <time>2018-10-03T06:34:05.000Z</time>
      </trkpt>
      <trkpt lat="42.36706667" lon="-7.86147667">
        <ele>212.0</ele>
        <time>2018-10-03T06:34:06.000Z</time>
      </trkpt>
      <trkpt lat="42.36708167" lon="-7.86147167">
        <ele>212.0</ele>
        <time>2018-10-03T06:34:07.000Z</time>
      </trkpt>
      <trkpt lat="42.3671" lon="-7.86146333">
        <ele>213.0</ele>
        <time>2018-10-03T06:34:08.000Z</time>
      </trkpt>
      <trkpt lat="42.36711833" lon="-7.861455">
        <ele>213.0</ele>
        <time>2018-10-03T06:34:09.000Z</time>
      </trkpt>
      <trkpt lat="42.36713333" lon="-7.86144833">
        <ele>213.0</ele>
        <time>2018-10-03T06:34:10.000Z</time>
      </trkpt>
      <trkpt lat="42.36714833" lon="-7.861445">
        <ele>213.0</ele>
        <time>2018-10-03T06:34:11.000Z</time>
      </trkpt>
      <trkpt lat="42.36716333" lon="-7.86144">
        <ele>213.0</ele>
        <time>2018-10-03T06:34:12.000Z</time>
      </trkpt>
      <trkpt lat="42.36717833" lon="-7.861435">
        <ele>213.0</ele>
        <time>2018-10-03T06:34:13.000Z</time>
      </trkpt>
      <trkpt lat="42.36719167" lon="-7.86143">
        <ele>213.0</ele>
        <time>2018-10-03T06:34:14.000Z</time>
      </trkpt>
      <trkpt lat="42.367205" lon="-7.86142333">
        <ele>213.0</ele>
        <time>2018-10-03T06:34:15.000Z</time>
      </trkpt>
      <trkpt lat="42.36721833" lon="-7.86141833">
        <ele>213.0</ele>
        <time>2018-10-03T06:34:16.000Z</time>
      </trkpt>
      <trkpt lat="42.36723167" lon="-7.86141167">
        <ele>213.0</ele>
        <time>2018-10-03T06:34:17.000Z</time>
      </trkpt>
      <trkpt lat="42.367245" lon="-7.861405">
        <ele>214.0</ele>
        <time>2018-10-03T06:34:18.000Z</time>
      </trkpt>
      <trkpt lat="42.36725833" lon="-7.86139667">
        <ele>214.0</ele>
        <time>2018-10-03T06:34:19.000Z</time>
      </trkpt>
      <trkpt lat="42.36727333" lon="-7.86139">
        <ele>214.0</ele>
        <time>2018-10-03T06:34:20.000Z</time>
      </trkpt>
      <trkpt lat="42.36728833" lon="-7.861385">
        <ele>214.0</ele>
        <time>2018-10-03T06:34:21.000Z</time>
      </trkpt>
      <trkpt lat="42.3673" lon="-7.86137833">
        <ele>214.0</ele>
        <time>2018-10-03T06:34:22.000Z</time>
      </trkpt>
      <trkpt lat="42.36731333" lon="-7.86137667">
        <ele>215.0</ele>
        <time>2018-10-03T06:34:23.000Z</time>
      </trkpt>
      <trkpt lat="42.367325" lon="-7.86137167">
        <ele>215.0</ele>
        <time>2018-10-03T06:34:24.000Z</time>
      </trkpt>
      <trkpt lat="42.367335" lon="-7.86136333">
        <ele>215.0</ele>
        <time>2018-10-03T06:34:25.000Z</time>
      </trkpt>
      <trkpt lat="42.367345" lon="-7.861355">
        <ele>215.0</ele>
        <time>2018-10-03T06:34:26.000Z</time>
      </trkpt>
      <trkpt lat="42.367355" lon="-7.861345">
        <ele>215.0</ele>
        <time>2018-10-03T06:34:27.000Z</time>
      </trkpt>
      <trkpt lat="42.36736333" lon="-7.86133833">
        <ele>215.0</ele>
        <time>2018-10-03T06:34:28.000Z</time>
      </trkpt>
      <trkpt lat="42.367375" lon="-7.86133">
        <ele>216.0</ele>
        <time>2018-10-03T06:34:29.000Z</time>
      </trkpt>
      <trkpt lat="42.367385" lon="-7.86132167">
        <ele>216.0</ele>
        <time>2018-10-03T06:34:30.000Z</time>
      </trkpt>
      <trkpt lat="42.367395" lon="-7.86131333">
        <ele>216.0</ele>
        <time>2018-10-03T06:34:31.000Z</time>
      </trkpt>
      <trkpt lat="42.36740833" lon="-7.861305">
        <ele>216.0</ele>
        <time>2018-10-03T06:34:32.000Z</time>
      </trkpt>
      <trkpt lat="42.36742167" lon="-7.86129833">
        <ele>216.0</ele>
        <time>2018-10-03T06:34:33.000Z</time>
      </trkpt>
      <trkpt lat="42.367435" lon="-7.86128833">
        <ele>216.0</ele>
        <time>2018-10-03T06:34:34.000Z</time>
      </trkpt>
      <trkpt lat="42.36744667" lon="-7.86127833">
        <ele>216.0</ele>
        <time>2018-10-03T06:34:35.000Z</time>
      </trkpt>
      <trkpt lat="42.36746" lon="-7.861265">
        <ele>216.0</ele>
        <time>2018-10-03T06:34:36.000Z</time>
      </trkpt>
      <trkpt lat="42.36747333" lon="-7.86125333">
        <ele>216.0</ele>
        <time>2018-10-03T06:34:37.000Z</time>
      </trkpt>
      <trkpt lat="42.36748833" lon="-7.86124167">
        <ele>216.0</ele>
        <time>2018-10-03T06:34:38.000Z</time>
      </trkpt>
      <trkpt lat="42.3675" lon="-7.86123333">
        <ele>216.0</ele>
        <time>2018-10-03T06:34:39.000Z</time>
      </trkpt>
      <trkpt lat="42.36751" lon="-7.861225">
        <ele>217.0</ele>
        <time>2018-10-03T06:34:40.000Z</time>
      </trkpt>
      <trkpt lat="42.36752167" lon="-7.86122">
        <ele>217.0</ele>
        <time>2018-10-03T06:34:41.000Z</time>
      </trkpt>
      <trkpt lat="42.36753" lon="-7.86121667">
        <ele>217.0</ele>
        <time>2018-10-03T06:34:42.000Z</time>
      </trkpt>
      <trkpt lat="42.36753667" lon="-7.86121">
        <ele>217.0</ele>
        <time>2018-10-03T06:34:43.000Z</time>
      </trkpt>
      <trkpt lat="42.36754667" lon="-7.86120333">
        <ele>217.0</ele>
        <time>2018-10-03T06:34:44.000Z</time>
      </trkpt>
      <trkpt lat="42.36755833" lon="-7.86119667">
        <ele>218.0</ele>
        <time>2018-10-03T06:34:45.000Z</time>
      </trkpt>
      <trkpt lat="42.36757333" lon="-7.86118667">
        <ele>218.0</ele>
        <time>2018-10-03T06:34:46.000Z</time>
      </trkpt>
      <trkpt lat="42.36759167" lon="-7.86117833">
        <ele>218.0</ele>
        <time>2018-10-03T06:34:47.000Z</time>
      </trkpt>
      <trkpt lat="42.36760667" lon="-7.86116833">
        <ele>218.0</ele>
        <time>2018-10-03T06:34:48.000Z</time>
      </trkpt>
      <trkpt lat="42.36762333" lon="-7.86115833">
        <ele>219.0</ele>
        <time>2018-10-03T06:34:49.000Z</time>
      </trkpt>
      <trkpt lat="42.36764" lon="-7.86114833">
        <ele>219.0</ele>
        <time>2018-10-03T06:34:50.000Z</time>
      </trkpt>
      <trkpt lat="42.36765333" lon="-7.86113833">
        <ele>220.0</ele>
        <time>2018-10-03T06:34:51.000Z</time>
      </trkpt>
      <trkpt lat="42.36766667" lon="-7.86113">
        <ele>220.0</ele>
        <time>2018-10-03T06:34:52.000Z</time>
      </trkpt>
      <trkpt lat="42.36767833" lon="-7.86112">
        <ele>221.0</ele>
        <time>2018-10-03T06:34:53.000Z</time>
      </trkpt>
      <trkpt lat="42.36769333" lon="-7.86111">
        <ele>221.0</ele>
        <time>2018-10-03T06:34:54.000Z</time>
      </trkpt>
      <trkpt lat="42.36771167" lon="-7.86109833">
        <ele>221.0</ele>
        <time>2018-10-03T06:34:55.000Z</time>
      </trkpt>
      <trkpt lat="42.36773167" lon="-7.86108833">
        <ele>222.0</ele>
        <time>2018-10-03T06:34:56.000Z</time>
      </trkpt>
      <trkpt lat="42.36774667" lon="-7.86108">
        <ele>222.0</ele>
        <time>2018-10-03T06:34:57.000Z</time>
      </trkpt>
      <trkpt lat="42.36775833" lon="-7.86107">
        <ele>223.0</ele>
        <time>2018-10-03T06:34:58.000Z</time>
      </trkpt>
      <trkpt lat="42.36777167" lon="-7.86106">
        <ele>223.0</ele>
        <time>2018-10-03T06:34:59.000Z</time>
      </trkpt>
      <trkpt lat="42.36778667" lon="-7.86105167">
        <ele>224.0</ele>
        <time>2018-10-03T06:35:00.000Z</time>
      </trkpt>
      <trkpt lat="42.36780167" lon="-7.86104333">
        <ele>224.0</ele>
        <time>2018-10-03T06:35:01.000Z</time>
      </trkpt>
      <trkpt lat="42.36781667" lon="-7.86103333">
        <ele>225.0</ele>
        <time>2018-10-03T06:35:02.000Z</time>
      </trkpt>
      <trkpt lat="42.36783167" lon="-7.861025">
        <ele>225.0</ele>
        <time>2018-10-03T06:35:03.000Z</time>
      </trkpt>
      <trkpt lat="42.36784667" lon="-7.861015">
        <ele>226.0</ele>
        <time>2018-10-03T06:35:04.000Z</time>
      </trkpt>
      <trkpt lat="42.36786" lon="-7.861005">
        <ele>226.0</ele>
        <time>2018-10-03T06:35:05.000Z</time>
      </trkpt>
      <trkpt lat="42.367875" lon="-7.86099667">
        <ele>226.0</ele>
        <time>2018-10-03T06:35:06.000Z</time>
      </trkpt>
      <trkpt lat="42.36789" lon="-7.86098667">
        <ele>226.0</ele>
        <time>2018-10-03T06:35:07.000Z</time>
      </trkpt>
      <trkpt lat="42.36790333" lon="-7.86097833">
        <ele>227.0</ele>
        <time>2018-10-03T06:35:08.000Z</time>
      </trkpt>
      <trkpt lat="42.36791667" lon="-7.86096833">
        <ele>227.0</ele>
        <time>2018-10-03T06:35:09.000Z</time>
      </trkpt>
      <trkpt lat="42.367925" lon="-7.86095833">
        <ele>227.0</ele>
        <time>2018-10-03T06:35:10.000Z</time>
      </trkpt>
      <trkpt lat="42.367935" lon="-7.86095">
        <ele>228.0</ele>
        <time>2018-10-03T06:35:11.000Z</time>
      </trkpt>
      <trkpt lat="42.36794833" lon="-7.86094">
        <ele>228.0</ele>
        <time>2018-10-03T06:35:12.000Z</time>
      </trkpt>
      <trkpt lat="42.36796333" lon="-7.86093167">
        <ele>228.0</ele>
        <time>2018-10-03T06:35:13.000Z</time>
      </trkpt>
      <trkpt lat="42.36797667" lon="-7.86092167">
        <ele>229.0</ele>
        <time>2018-10-03T06:35:14.000Z</time>
      </trkpt>
      <trkpt lat="42.36798833" lon="-7.86091333">
        <ele>229.0</ele>
        <time>2018-10-03T06:35:15.000Z</time>
      </trkpt>
      <trkpt lat="42.36799667" lon="-7.86090333">
        <ele>229.0</ele>
        <time>2018-10-03T06:35:16.000Z</time>
      </trkpt>
      <trkpt lat="42.368005" lon="-7.86089667">
        <ele>229.0</ele>
        <time>2018-10-03T06:35:17.000Z</time>
      </trkpt>
      <trkpt lat="42.36801" lon="-7.86089">
        <ele>230.0</ele>
        <time>2018-10-03T06:35:18.000Z</time>
      </trkpt>
      <trkpt lat="42.36801833" lon="-7.86088167">
        <ele>230.0</ele>
        <time>2018-10-03T06:35:19.000Z</time>
      </trkpt>
      <trkpt lat="42.368025" lon="-7.86087333">
        <ele>230.0</ele>
        <time>2018-10-03T06:35:20.000Z</time>
      </trkpt>
      <trkpt lat="42.36803333" lon="-7.86086667">
        <ele>231.0</ele>
        <time>2018-10-03T06:35:21.000Z</time>
      </trkpt>
      <trkpt lat="42.36804167" lon="-7.86085833">
        <ele>231.0</ele>
        <time>2018-10-03T06:35:22.000Z</time>
      </trkpt>
      <trkpt lat="42.36805167" lon="-7.86084833">
        <ele>231.0</ele>
        <time>2018-10-03T06:35:23.000Z</time>
      </trkpt>
      <trkpt lat="42.36805833" lon="-7.86084">
        <ele>231.0</ele>
        <time>2018-10-03T06:35:24.000Z</time>
      </trkpt>
      <trkpt lat="42.368065" lon="-7.86083">
        <ele>232.0</ele>
        <time>2018-10-03T06:35:25.000Z</time>
      </trkpt>
      <trkpt lat="42.36807167" lon="-7.86082">
        <ele>232.0</ele>
        <time>2018-10-03T06:35:26.000Z</time>
      </trkpt>
      <trkpt lat="42.36808" lon="-7.86081167">
        <ele>232.0</ele>
        <time>2018-10-03T06:35:27.000Z</time>
      </trkpt>
      <trkpt lat="42.36808667" lon="-7.8608">
        <ele>232.0</ele>
        <time>2018-10-03T06:35:28.000Z</time>
      </trkpt>
      <trkpt lat="42.368095" lon="-7.86078833">
        <ele>233.0</ele>
        <time>2018-10-03T06:35:29.000Z</time>
      </trkpt>
      <trkpt lat="42.36810167" lon="-7.86077833">
        <ele>233.0</ele>
        <time>2018-10-03T06:35:30.000Z</time>
      </trkpt>
      <trkpt lat="42.36811" lon="-7.86076667">
        <ele>233.0</ele>
        <time>2018-10-03T06:35:31.000Z</time>
      </trkpt>
      <trkpt lat="42.368115" lon="-7.86075333">
        <ele>233.0</ele>
        <time>2018-10-03T06:35:32.000Z</time>
      </trkpt>
      <trkpt lat="42.36812167" lon="-7.86074167">
        <ele>234.0</ele>
        <time>2018-10-03T06:35:33.000Z</time>
      </trkpt>
      <trkpt lat="42.36812667" lon="-7.86073">
        <ele>234.0</ele>
        <time>2018-10-03T06:35:34.000Z</time>
      </trkpt>
      <trkpt lat="42.36813667" lon="-7.86071833">
        <ele>235.0</ele>
        <time>2018-10-03T06:35:35.000Z</time>
      </trkpt>
      <trkpt lat="42.368145" lon="-7.86070833">
        <ele>236.0</ele>
        <time>2018-10-03T06:35:36.000Z</time>
      </trkpt>
      <trkpt lat="42.36815333" lon="-7.86069833">
        <ele>236.0</ele>
        <time>2018-10-03T06:35:37.000Z</time>
      </trkpt>
      <trkpt lat="42.36816333" lon="-7.86069167">
        <ele>237.0</ele>
        <time>2018-10-03T06:35:38.000Z</time>
      </trkpt>
      <trkpt lat="42.36816833" lon="-7.86067833">
        <ele>238.0</ele>
        <time>2018-10-03T06:35:39.000Z</time>
      </trkpt>
      <trkpt lat="42.36817833" lon="-7.86066667">
        <ele>238.0</ele>
        <time>2018-10-03T06:35:40.000Z</time>
      </trkpt>
      <trkpt lat="42.36818667" lon="-7.86066">
        <ele>239.0</ele>
        <time>2018-10-03T06:35:41.000Z</time>
      </trkpt>
      <trkpt lat="42.36819167" lon="-7.86065167">
        <ele>239.0</ele>
        <time>2018-10-03T06:35:42.000Z</time>
      </trkpt>
      <trkpt lat="42.36819833" lon="-7.86063833">
        <ele>240.0</ele>
        <time>2018-10-03T06:35:43.000Z</time>
      </trkpt>
      <trkpt lat="42.36820167" lon="-7.86062667">
        <ele>240.0</ele>
        <time>2018-10-03T06:35:44.000Z</time>
      </trkpt>
      <trkpt lat="42.36820333" lon="-7.86061333">
        <ele>241.0</ele>
        <time>2018-10-03T06:35:45.000Z</time>
      </trkpt>
      <trkpt lat="42.36820167" lon="-7.8606">
        <ele>241.0</ele>
        <time>2018-10-03T06:35:46.000Z</time>
      </trkpt>
      <trkpt lat="42.3682" lon="-7.860585">
        <ele>241.0</ele>
        <time>2018-10-03T06:35:47.000Z</time>
      </trkpt>
      <trkpt lat="42.36819833" lon="-7.86056833">
        <ele>242.0</ele>
        <time>2018-10-03T06:35:48.000Z</time>
      </trkpt>
      <trkpt lat="42.36819667" lon="-7.86055333">
        <ele>242.0</ele>
        <time>2018-10-03T06:35:49.000Z</time>
      </trkpt>
      <trkpt lat="42.36819667" lon="-7.86054333">
        <ele>242.0</ele>
        <time>2018-10-03T06:35:50.000Z</time>
      </trkpt>
      <trkpt lat="42.368195" lon="-7.86054">
        <ele>242.0</ele>
        <time>2018-10-03T06:35:51.000Z</time>
      </trkpt>
      <trkpt lat="42.36819667" lon="-7.860535">
        <ele>242.0</ele>
        <time>2018-10-03T06:35:52.000Z</time>
      </trkpt>
      <trkpt lat="42.36820333" lon="-7.86053167">
        <ele>242.0</ele>
        <time>2018-10-03T06:35:53.000Z</time>
      </trkpt>
      <trkpt lat="42.36821333" lon="-7.86053833">
        <ele>243.0</ele>
        <time>2018-10-03T06:35:54.000Z</time>
      </trkpt>
      <trkpt lat="42.36822667" lon="-7.860545">
        <ele>242.0</ele>
        <time>2018-10-03T06:35:55.000Z</time>
      </trkpt>
      <trkpt lat="42.36824167" lon="-7.86055167">
        <ele>242.0</ele>
        <time>2018-10-03T06:35:56.000Z</time>
      </trkpt>
      <trkpt lat="42.36825333" lon="-7.86056">
        <ele>242.0</ele>
        <time>2018-10-03T06:35:57.000Z</time>
      </trkpt>
      <trkpt lat="42.368265" lon="-7.86056833">
        <ele>242.0</ele>
        <time>2018-10-03T06:35:58.000Z</time>
      </trkpt>
      <trkpt lat="42.36827833" lon="-7.86057667">
        <ele>242.0</ele>
        <time>2018-10-03T06:35:59.000Z</time>
      </trkpt>
      <trkpt lat="42.36829" lon="-7.860585">
        <ele>242.0</ele>
        <time>2018-10-03T06:36:00.000Z</time>
      </trkpt>
      <trkpt lat="42.36830167" lon="-7.86059">
        <ele>242.0</ele>
        <time>2018-10-03T06:36:01.000Z</time>
      </trkpt>
      <trkpt lat="42.36831" lon="-7.86059833">
        <ele>242.0</ele>
        <time>2018-10-03T06:36:02.000Z</time>
      </trkpt>
      <trkpt lat="42.36832167" lon="-7.86060833">
        <ele>242.0</ele>
        <time>2018-10-03T06:36:03.000Z</time>
      </trkpt>
      <trkpt lat="42.36833333" lon="-7.86061667">
        <ele>242.0</ele>
        <time>2018-10-03T06:36:04.000Z</time>
      </trkpt>
      <trkpt lat="42.36834667" lon="-7.860625">
        <ele>242.0</ele>
        <time>2018-10-03T06:36:05.000Z</time>
      </trkpt>
      <trkpt lat="42.36835667" lon="-7.860635">
        <ele>242.0</ele>
        <time>2018-10-03T06:36:06.000Z</time>
      </trkpt>
      <trkpt lat="42.36836667" lon="-7.860645">
        <ele>242.0</ele>
        <time>2018-10-03T06:36:07.000Z</time>
      </trkpt>
      <trkpt lat="42.36837667" lon="-7.86065667">
        <ele>242.0</ele>
        <time>2018-10-03T06:36:08.000Z</time>
      </trkpt>
      <trkpt lat="42.36838667" lon="-7.86066667">
        <ele>242.0</ele>
        <time>2018-10-03T06:36:09.000Z</time>
      </trkpt>
      <trkpt lat="42.36839833" lon="-7.86067667">
        <ele>242.0</ele>
        <time>2018-10-03T06:36:10.000Z</time>
      </trkpt>
      <trkpt lat="42.36840833" lon="-7.86068667">
        <ele>242.0</ele>
        <time>2018-10-03T06:36:11.000Z</time>
      </trkpt>
      <trkpt lat="42.36841833" lon="-7.86069833">
        <ele>242.0</ele>
        <time>2018-10-03T06:36:12.000Z</time>
      </trkpt>
      <trkpt lat="42.36843" lon="-7.86070833">
        <ele>242.0</ele>
        <time>2018-10-03T06:36:13.000Z</time>
      </trkpt>
      <trkpt lat="42.36844167" lon="-7.86071667">
        <ele>243.0</ele>
        <time>2018-10-03T06:36:14.000Z</time>
      </trkpt>
      <trkpt lat="42.36845333" lon="-7.860725">
        <ele>243.0</ele>
        <time>2018-10-03T06:36:15.000Z</time>
      </trkpt>
      <trkpt lat="42.36846333" lon="-7.86073667">
        <ele>243.0</ele>
        <time>2018-10-03T06:36:16.000Z</time>
      </trkpt>
      <trkpt lat="42.36847167" lon="-7.86074667">
        <ele>243.0</ele>
        <time>2018-10-03T06:36:17.000Z</time>
      </trkpt>
      <trkpt lat="42.36848333" lon="-7.86075833">
        <ele>243.0</ele>
        <time>2018-10-03T06:36:18.000Z</time>
      </trkpt>
      <trkpt lat="42.36849167" lon="-7.86076833">
        <ele>244.0</ele>
        <time>2018-10-03T06:36:19.000Z</time>
      </trkpt>
      <trkpt lat="42.36850167" lon="-7.86077667">
        <ele>244.0</ele>
        <time>2018-10-03T06:36:20.000Z</time>
      </trkpt>
      <trkpt lat="42.36851333" lon="-7.86078167">
        <ele>244.0</ele>
        <time>2018-10-03T06:36:21.000Z</time>
      </trkpt>
      <trkpt lat="42.36852667" lon="-7.86078833">
        <ele>244.0</ele>
        <time>2018-10-03T06:36:22.000Z</time>
      </trkpt>
      <trkpt lat="42.36853833" lon="-7.86079333">
        <ele>245.0</ele>
        <time>2018-10-03T06:36:23.000Z</time>
      </trkpt>
      <trkpt lat="42.36854833" lon="-7.86080167">
        <ele>245.0</ele>
        <time>2018-10-03T06:36:24.000Z</time>
      </trkpt>
      <trkpt lat="42.36856" lon="-7.86080667">
        <ele>245.0</ele>
        <time>2018-10-03T06:36:25.000Z</time>
      </trkpt>
      <trkpt lat="42.36857" lon="-7.86081">
        <ele>245.0</ele>
        <time>2018-10-03T06:36:26.000Z</time>
      </trkpt>
      <trkpt lat="42.36857833" lon="-7.86081">
        <ele>245.0</ele>
        <time>2018-10-03T06:36:27.000Z</time>
      </trkpt>
      <trkpt lat="42.36858" lon="-7.86081">
        <ele>245.0</ele>
        <time>2018-10-03T06:36:28.000Z</time>
      </trkpt>
      <trkpt lat="42.36858333" lon="-7.86081167">
        <ele>245.0</ele>
        <time>2018-10-03T06:36:29.000Z</time>
      </trkpt>
      <trkpt lat="42.36858833" lon="-7.86081167">
        <ele>245.0</ele>
        <time>2018-10-03T06:36:30.000Z</time>
      </trkpt>
      <trkpt lat="42.36859333" lon="-7.86081333">
        <ele>245.0</ele>
        <time>2018-10-03T06:36:31.000Z</time>
      </trkpt>
      <trkpt lat="42.36859667" lon="-7.86081667">
        <ele>245.0</ele>
        <time>2018-10-03T06:36:32.000Z</time>
      </trkpt>
      <trkpt lat="42.368605" lon="-7.86081333">
        <ele>245.0</ele>
        <time>2018-10-03T06:36:33.000Z</time>
      </trkpt>
      <trkpt lat="42.36861667" lon="-7.86081">
        <ele>246.0</ele>
        <time>2018-10-03T06:36:34.000Z</time>
      </trkpt>
      <trkpt lat="42.368625" lon="-7.86080167">
        <ele>246.0</ele>
        <time>2018-10-03T06:36:35.000Z</time>
      </trkpt>
      <trkpt lat="42.36863667" lon="-7.860795">
        <ele>246.0</ele>
        <time>2018-10-03T06:36:36.000Z</time>
      </trkpt>
      <trkpt lat="42.36864833" lon="-7.86079167">
        <ele>246.0</ele>
        <time>2018-10-03T06:36:37.000Z</time>
      </trkpt>
      <trkpt lat="42.36866" lon="-7.86078333">
        <ele>246.0</ele>
        <time>2018-10-03T06:36:38.000Z</time>
      </trkpt>
      <trkpt lat="42.36867" lon="-7.86077167">
        <ele>246.0</ele>
        <time>2018-10-03T06:36:39.000Z</time>
      </trkpt>
      <trkpt lat="42.36868" lon="-7.86076">
        <ele>246.0</ele>
        <time>2018-10-03T06:36:40.000Z</time>
      </trkpt>
      <trkpt lat="42.36868667" lon="-7.86075">
        <ele>246.0</ele>
        <time>2018-10-03T06:36:41.000Z</time>
      </trkpt>
      <trkpt lat="42.368695" lon="-7.86074167">
        <ele>247.0</ele>
        <time>2018-10-03T06:36:42.000Z</time>
      </trkpt>
      <trkpt lat="42.368705" lon="-7.86073">
        <ele>247.0</ele>
        <time>2018-10-03T06:36:43.000Z</time>
      </trkpt>
      <trkpt lat="42.368715" lon="-7.86072">
        <ele>247.0</ele>
        <time>2018-10-03T06:36:44.000Z</time>
      </trkpt>
      <trkpt lat="42.36872167" lon="-7.86071167">
        <ele>247.0</ele>
        <time>2018-10-03T06:36:45.000Z</time>
      </trkpt>
      <trkpt lat="42.36872833" lon="-7.86070667">
        <ele>247.0</ele>
        <time>2018-10-03T06:36:46.000Z</time>
      </trkpt>
      <trkpt lat="42.36873667" lon="-7.86069667">
        <ele>247.0</ele>
        <time>2018-10-03T06:36:47.000Z</time>
      </trkpt>
      <trkpt lat="42.368745" lon="-7.86068667">
        <ele>247.0</ele>
        <time>2018-10-03T06:36:48.000Z</time>
      </trkpt>
      <trkpt lat="42.36875333" lon="-7.860675">
        <ele>247.0</ele>
        <time>2018-10-03T06:36:49.000Z</time>
      </trkpt>
      <trkpt lat="42.36876167" lon="-7.860665">
        <ele>247.0</ele>
        <time>2018-10-03T06:36:50.000Z</time>
      </trkpt>
      <trkpt lat="42.36877" lon="-7.86065333">
        <ele>247.0</ele>
        <time>2018-10-03T06:36:51.000Z</time>
      </trkpt>
      <trkpt lat="42.36877833" lon="-7.86063833">
        <ele>247.0</ele>
        <time>2018-10-03T06:36:52.000Z</time>
      </trkpt>
      <trkpt lat="42.36878333" lon="-7.860625">
        <ele>248.0</ele>
        <time>2018-10-03T06:36:53.000Z</time>
      </trkpt>
      <trkpt lat="42.36879" lon="-7.86061333">
        <ele>248.0</ele>
        <time>2018-10-03T06:36:54.000Z</time>
      </trkpt>
      <trkpt lat="42.36879667" lon="-7.86060167">
        <ele>248.0</ele>
        <time>2018-10-03T06:36:55.000Z</time>
      </trkpt>
      <trkpt lat="42.36880333" lon="-7.86059">
        <ele>248.0</ele>
        <time>2018-10-03T06:36:56.000Z</time>
      </trkpt>
      <trkpt lat="42.36881" lon="-7.86057667">
        <ele>248.0</ele>
        <time>2018-10-03T06:36:57.000Z</time>
      </trkpt>
      <trkpt lat="42.368815" lon="-7.86056333">
        <ele>248.0</ele>
        <time>2018-10-03T06:36:58.000Z</time>
      </trkpt>
      <trkpt lat="42.36882167" lon="-7.86055">
        <ele>248.0</ele>
        <time>2018-10-03T06:36:59.000Z</time>
      </trkpt>
      <trkpt lat="42.36882833" lon="-7.86053667">
        <ele>248.0</ele>
        <time>2018-10-03T06:37:00.000Z</time>
      </trkpt>
      <trkpt lat="42.36883667" lon="-7.860525">
        <ele>248.0</ele>
        <time>2018-10-03T06:37:01.000Z</time>
      </trkpt>
      <trkpt lat="42.36884333" lon="-7.86051333">
        <ele>248.0</ele>
        <time>2018-10-03T06:37:02.000Z</time>
      </trkpt>
      <trkpt lat="42.36885333" lon="-7.8605">
        <ele>248.0</ele>
        <time>2018-10-03T06:37:03.000Z</time>
      </trkpt>
      <trkpt lat="42.36886" lon="-7.86048667">
        <ele>248.0</ele>
        <time>2018-10-03T06:37:04.000Z</time>
      </trkpt>
      <trkpt lat="42.36887" lon="-7.86047333">
        <ele>249.0</ele>
        <time>2018-10-03T06:37:05.000Z</time>
      </trkpt>
      <trkpt lat="42.36887667" lon="-7.86046">
        <ele>249.0</ele>
        <time>2018-10-03T06:37:06.000Z</time>
      </trkpt>
      <trkpt lat="42.36888333" lon="-7.86044833">
        <ele>249.0</ele>
        <time>2018-10-03T06:37:07.000Z</time>
      </trkpt>
      <trkpt lat="42.36888833" lon="-7.860435">
        <ele>249.0</ele>
        <time>2018-10-03T06:37:08.000Z</time>
      </trkpt>
      <trkpt lat="42.36889167" lon="-7.86041833">
        <ele>249.0</ele>
        <time>2018-10-03T06:37:09.000Z</time>
      </trkpt>
      <trkpt lat="42.368895" lon="-7.86040333">
        <ele>249.0</ele>
        <time>2018-10-03T06:37:10.000Z</time>
      </trkpt>
      <trkpt lat="42.3689" lon="-7.86038833">
        <ele>249.0</ele>
        <time>2018-10-03T06:37:11.000Z</time>
      </trkpt>
      <trkpt lat="42.368905" lon="-7.86037">
        <ele>249.0</ele>
        <time>2018-10-03T06:37:12.000Z</time>
      </trkpt>
      <trkpt lat="42.36890833" lon="-7.86035333">
        <ele>249.0</ele>
        <time>2018-10-03T06:37:13.000Z</time>
      </trkpt>
      <trkpt lat="42.36891167" lon="-7.86034">
        <ele>250.0</ele>
        <time>2018-10-03T06:37:14.000Z</time>
      </trkpt>
      <trkpt lat="42.36891833" lon="-7.86032833">
        <ele>250.0</ele>
        <time>2018-10-03T06:37:15.000Z</time>
      </trkpt>
      <trkpt lat="42.368925" lon="-7.86031333">
        <ele>250.0</ele>
        <time>2018-10-03T06:37:16.000Z</time>
      </trkpt>
      <trkpt lat="42.36893" lon="-7.86030167">
        <ele>250.0</ele>
        <time>2018-10-03T06:37:17.000Z</time>
      </trkpt>
      <trkpt lat="42.368935" lon="-7.86029">
        <ele>251.0</ele>
        <time>2018-10-03T06:37:18.000Z</time>
      </trkpt>
      <trkpt lat="42.36893833" lon="-7.86028">
        <ele>251.0</ele>
        <time>2018-10-03T06:37:19.000Z</time>
      </trkpt>
      <trkpt lat="42.36894333" lon="-7.86027">
        <ele>251.0</ele>
        <time>2018-10-03T06:37:20.000Z</time>
      </trkpt>
      <trkpt lat="42.36895" lon="-7.86025833">
        <ele>252.0</ele>
        <time>2018-10-03T06:37:21.000Z</time>
      </trkpt>
      <trkpt lat="42.36895667" lon="-7.860245">
        <ele>252.0</ele>
        <time>2018-10-03T06:37:22.000Z</time>
      </trkpt>
      <trkpt lat="42.36896167" lon="-7.86023">
        <ele>253.0</ele>
        <time>2018-10-03T06:37:23.000Z</time>
      </trkpt>
      <trkpt lat="42.36897" lon="-7.860215">
        <ele>253.0</ele>
        <time>2018-10-03T06:37:24.000Z</time>
      </trkpt>
      <trkpt lat="42.368975" lon="-7.86019833">
        <ele>254.0</ele>
        <time>2018-10-03T06:37:25.000Z</time>
      </trkpt>
      <trkpt lat="42.36898333" lon="-7.86018333">
        <ele>254.0</ele>
        <time>2018-10-03T06:37:26.000Z</time>
      </trkpt>
      <trkpt lat="42.36899167" lon="-7.86016667">
        <ele>255.0</ele>
        <time>2018-10-03T06:37:27.000Z</time>
      </trkpt>
      <trkpt lat="42.369" lon="-7.86015167">
        <ele>255.0</ele>
        <time>2018-10-03T06:37:28.000Z</time>
      </trkpt>
      <trkpt lat="42.36901333" lon="-7.86013667">
        <ele>256.0</ele>
        <time>2018-10-03T06:37:29.000Z</time>
      </trkpt>
      <trkpt lat="42.369025" lon="-7.86012333">
        <ele>256.0</ele>
        <time>2018-10-03T06:37:30.000Z</time>
      </trkpt>
      <trkpt lat="42.36903333" lon="-7.86010833">
        <ele>257.0</ele>
        <time>2018-10-03T06:37:31.000Z</time>
      </trkpt>
      <trkpt lat="42.36904" lon="-7.86009167">
        <ele>258.0</ele>
        <time>2018-10-03T06:37:32.000Z</time>
      </trkpt>
      <trkpt lat="42.36904667" lon="-7.86007667">
        <ele>258.0</ele>
        <time>2018-10-03T06:37:33.000Z</time>
      </trkpt>
      <trkpt lat="42.369055" lon="-7.86006">
        <ele>259.0</ele>
        <time>2018-10-03T06:37:34.000Z</time>
      </trkpt>
      <trkpt lat="42.36906167" lon="-7.86004667">
        <ele>260.0</ele>
        <time>2018-10-03T06:37:35.000Z</time>
      </trkpt>
      <trkpt lat="42.36907" lon="-7.86003167">
        <ele>260.0</ele>
        <time>2018-10-03T06:37:36.000Z</time>
      </trkpt>
      <trkpt lat="42.36908" lon="-7.86001667">
        <ele>261.0</ele>
        <time>2018-10-03T06:37:37.000Z</time>
      </trkpt>
      <trkpt lat="42.36909" lon="-7.86000167">
        <ele>261.0</ele>
        <time>2018-10-03T06:37:38.000Z</time>
      </trkpt>
      <trkpt lat="42.3691" lon="-7.85998833">
        <ele>262.0</ele>
        <time>2018-10-03T06:37:39.000Z</time>
      </trkpt>
      <trkpt lat="42.36911" lon="-7.85997333">
        <ele>263.0</ele>
        <time>2018-10-03T06:37:40.000Z</time>
      </trkpt>
      <trkpt lat="42.36912" lon="-7.85995833">
        <ele>263.0</ele>
        <time>2018-10-03T06:37:41.000Z</time>
      </trkpt>
      <trkpt lat="42.36913" lon="-7.859945">
        <ele>264.0</ele>
        <time>2018-10-03T06:37:42.000Z</time>
      </trkpt>
      <trkpt lat="42.36914" lon="-7.85993333">
        <ele>264.0</ele>
        <time>2018-10-03T06:37:43.000Z</time>
      </trkpt>
      <trkpt lat="42.36915" lon="-7.85992333">
        <ele>265.0</ele>
        <time>2018-10-03T06:37:44.000Z</time>
      </trkpt>
      <trkpt lat="42.36915833" lon="-7.85991167">
        <ele>265.0</ele>
        <time>2018-10-03T06:37:45.000Z</time>
      </trkpt>
      <trkpt lat="42.36916833" lon="-7.85990167">
        <ele>265.0</ele>
        <time>2018-10-03T06:37:46.000Z</time>
      </trkpt>
      <trkpt lat="42.36918" lon="-7.85989333">
        <ele>266.0</ele>
        <time>2018-10-03T06:37:47.000Z</time>
      </trkpt>
      <trkpt lat="42.36919" lon="-7.85988667">
        <ele>266.0</ele>
        <time>2018-10-03T06:37:48.000Z</time>
      </trkpt>
      <trkpt lat="42.36920167" lon="-7.85987833">
        <ele>266.0</ele>
        <time>2018-10-03T06:37:49.000Z</time>
      </trkpt>
      <trkpt lat="42.36921167" lon="-7.859875">
        <ele>266.0</ele>
        <time>2018-10-03T06:37:50.000Z</time>
      </trkpt>
      <trkpt lat="42.36922333" lon="-7.85986833">
        <ele>266.0</ele>
        <time>2018-10-03T06:37:51.000Z</time>
      </trkpt>
      <trkpt lat="42.36923333" lon="-7.859865">
        <ele>267.0</ele>
        <time>2018-10-03T06:37:52.000Z</time>
      </trkpt>
      <trkpt lat="42.36924333" lon="-7.85986167">
        <ele>267.0</ele>
        <time>2018-10-03T06:37:53.000Z</time>
      </trkpt>
      <trkpt lat="42.36925167" lon="-7.85986167">
        <ele>267.0</ele>
        <time>2018-10-03T06:37:54.000Z</time>
      </trkpt>
      <trkpt lat="42.36926" lon="-7.85986333">
        <ele>267.0</ele>
        <time>2018-10-03T06:37:55.000Z</time>
      </trkpt>
      <trkpt lat="42.36927" lon="-7.859865">
        <ele>267.0</ele>
        <time>2018-10-03T06:37:56.000Z</time>
      </trkpt>
      <trkpt lat="42.36928167" lon="-7.85986333">
        <ele>267.0</ele>
        <time>2018-10-03T06:37:57.000Z</time>
      </trkpt>
      <trkpt lat="42.36929333" lon="-7.85986167">
        <ele>267.0</ele>
        <time>2018-10-03T06:37:58.000Z</time>
      </trkpt>
      <trkpt lat="42.36930333" lon="-7.85986333">
        <ele>267.0</ele>
        <time>2018-10-03T06:37:59.000Z</time>
      </trkpt>
      <trkpt lat="42.369315" lon="-7.85986167">
        <ele>267.0</ele>
        <time>2018-10-03T06:38:00.000Z</time>
      </trkpt>
      <trkpt lat="42.36932667" lon="-7.85986167">
        <ele>267.0</ele>
        <time>2018-10-03T06:38:01.000Z</time>
      </trkpt>
      <trkpt lat="42.36933833" lon="-7.85985667">
        <ele>267.0</ele>
        <time>2018-10-03T06:38:02.000Z</time>
      </trkpt>
      <trkpt lat="42.36934833" lon="-7.859855">
        <ele>267.0</ele>
        <time>2018-10-03T06:38:03.000Z</time>
      </trkpt>
      <trkpt lat="42.36935833" lon="-7.859855">
        <ele>267.0</ele>
        <time>2018-10-03T06:38:04.000Z</time>
      </trkpt>
      <trkpt lat="42.36937" lon="-7.859855">
        <ele>267.0</ele>
        <time>2018-10-03T06:38:05.000Z</time>
      </trkpt>
      <trkpt lat="42.36938" lon="-7.85985333">
        <ele>267.0</ele>
        <time>2018-10-03T06:38:06.000Z</time>
      </trkpt>
      <trkpt lat="42.36939167" lon="-7.85985167">
        <ele>267.0</ele>
        <time>2018-10-03T06:38:07.000Z</time>
      </trkpt>
      <trkpt lat="42.36940167" lon="-7.85985333">
        <ele>267.0</ele>
        <time>2018-10-03T06:38:08.000Z</time>
      </trkpt>
      <trkpt lat="42.36941" lon="-7.85985667">
        <ele>267.0</ele>
        <time>2018-10-03T06:38:09.000Z</time>
      </trkpt>
      <trkpt lat="42.36941833" lon="-7.85985833">
        <ele>267.0</ele>
        <time>2018-10-03T06:38:10.000Z</time>
      </trkpt>
      <trkpt lat="42.36943" lon="-7.85986167">
        <ele>267.0</ele>
        <time>2018-10-03T06:38:11.000Z</time>
      </trkpt>
      <trkpt lat="42.36944" lon="-7.85986167">
        <ele>267.0</ele>
        <time>2018-10-03T06:38:12.000Z</time>
      </trkpt>
      <trkpt lat="42.36945167" lon="-7.85986167">
        <ele>267.0</ele>
        <time>2018-10-03T06:38:13.000Z</time>
      </trkpt>
      <trkpt lat="42.36946333" lon="-7.859865">
        <ele>267.0</ele>
        <time>2018-10-03T06:38:14.000Z</time>
      </trkpt>
      <trkpt lat="42.369475" lon="-7.85986667">
        <ele>267.0</ele>
        <time>2018-10-03T06:38:15.000Z</time>
      </trkpt>
      <trkpt lat="42.36948667" lon="-7.85986833">
        <ele>268.0</ele>
        <time>2018-10-03T06:38:16.000Z</time>
      </trkpt>
      <trkpt lat="42.36949833" lon="-7.85987167">
        <ele>268.0</ele>
        <time>2018-10-03T06:38:17.000Z</time>
      </trkpt>
      <trkpt lat="42.36951" lon="-7.859875">
        <ele>268.0</ele>
        <time>2018-10-03T06:38:18.000Z</time>
      </trkpt>
      <trkpt lat="42.36952167" lon="-7.85987667">
        <ele>268.0</ele>
        <time>2018-10-03T06:38:19.000Z</time>
      </trkpt>
      <trkpt lat="42.36953667" lon="-7.85987833">
        <ele>268.0</ele>
        <time>2018-10-03T06:38:20.000Z</time>
      </trkpt>
      <trkpt lat="42.36955" lon="-7.85988333">
        <ele>268.0</ele>
        <time>2018-10-03T06:38:21.000Z</time>
      </trkpt>
      <trkpt lat="42.36956333" lon="-7.85988667">
        <ele>268.0</ele>
        <time>2018-10-03T06:38:22.000Z</time>
      </trkpt>
      <trkpt lat="42.369575" lon="-7.85989">
        <ele>268.0</ele>
        <time>2018-10-03T06:38:23.000Z</time>
      </trkpt>
      <trkpt lat="42.36958667" lon="-7.859895">
        <ele>269.0</ele>
        <time>2018-10-03T06:38:24.000Z</time>
      </trkpt>
      <trkpt lat="42.3696" lon="-7.85989667">
        <ele>269.0</ele>
        <time>2018-10-03T06:38:25.000Z</time>
      </trkpt>
      <trkpt lat="42.36961333" lon="-7.8599">
        <ele>269.0</ele>
        <time>2018-10-03T06:38:26.000Z</time>
      </trkpt>
      <trkpt lat="42.36962667" lon="-7.85990167">
        <ele>269.0</ele>
        <time>2018-10-03T06:38:27.000Z</time>
      </trkpt>
      <trkpt lat="42.36963833" lon="-7.85990333">
        <ele>269.0</ele>
        <time>2018-10-03T06:38:28.000Z</time>
      </trkpt>
      <trkpt lat="42.36965167" lon="-7.85990667">
        <ele>269.0</ele>
        <time>2018-10-03T06:38:29.000Z</time>
      </trkpt>
      <trkpt lat="42.36966667" lon="-7.85991">
        <ele>269.0</ele>
        <time>2018-10-03T06:38:30.000Z</time>
      </trkpt>
      <trkpt lat="42.36968" lon="-7.85991167">
        <ele>269.0</ele>
        <time>2018-10-03T06:38:31.000Z</time>
      </trkpt>
      <trkpt lat="42.36969167" lon="-7.859915">
        <ele>269.0</ele>
        <time>2018-10-03T06:38:32.000Z</time>
      </trkpt>
      <trkpt lat="42.36970333" lon="-7.85991667">
        <ele>269.0</ele>
        <time>2018-10-03T06:38:33.000Z</time>
      </trkpt>
      <trkpt lat="42.36971833" lon="-7.85992">
        <ele>270.0</ele>
        <time>2018-10-03T06:38:34.000Z</time>
      </trkpt>
      <trkpt lat="42.36972833" lon="-7.85992333">
        <ele>270.0</ele>
        <time>2018-10-03T06:38:35.000Z</time>
      </trkpt>
      <trkpt lat="42.36974167" lon="-7.85992667">
        <ele>270.0</ele>
        <time>2018-10-03T06:38:36.000Z</time>
      </trkpt>
      <trkpt lat="42.369755" lon="-7.85992833">
        <ele>270.0</ele>
        <time>2018-10-03T06:38:37.000Z</time>
      </trkpt>
      <trkpt lat="42.36976833" lon="-7.85993">
        <ele>270.0</ele>
        <time>2018-10-03T06:38:38.000Z</time>
      </trkpt>
      <trkpt lat="42.36978167" lon="-7.85993333">
        <ele>270.0</ele>
        <time>2018-10-03T06:38:39.000Z</time>
      </trkpt>
      <trkpt lat="42.369795" lon="-7.85993667">
        <ele>270.0</ele>
        <time>2018-10-03T06:38:40.000Z</time>
      </trkpt>
      <trkpt lat="42.36980667" lon="-7.85994333">
        <ele>270.0</ele>
        <time>2018-10-03T06:38:41.000Z</time>
      </trkpt>
      <trkpt lat="42.36981667" lon="-7.85995">
        <ele>270.0</ele>
        <time>2018-10-03T06:38:42.000Z</time>
      </trkpt>
      <trkpt lat="42.36982833" lon="-7.85995667">
        <ele>270.0</ele>
        <time>2018-10-03T06:38:43.000Z</time>
      </trkpt>
      <trkpt lat="42.36984" lon="-7.859965">
        <ele>271.0</ele>
        <time>2018-10-03T06:38:44.000Z</time>
      </trkpt>
      <trkpt lat="42.36985333" lon="-7.85997167">
        <ele>271.0</ele>
        <time>2018-10-03T06:38:45.000Z</time>
      </trkpt>
      <trkpt lat="42.369865" lon="-7.85997667">
        <ele>271.0</ele>
        <time>2018-10-03T06:38:46.000Z</time>
      </trkpt>
      <trkpt lat="42.36987667" lon="-7.85998333">
        <ele>271.0</ele>
        <time>2018-10-03T06:38:47.000Z</time>
      </trkpt>
      <trkpt lat="42.36989167" lon="-7.85998833">
        <ele>271.0</ele>
        <time>2018-10-03T06:38:48.000Z</time>
      </trkpt>
      <trkpt lat="42.36990667" lon="-7.85999">
        <ele>271.0</ele>
        <time>2018-10-03T06:38:49.000Z</time>
      </trkpt>
      <trkpt lat="42.36992167" lon="-7.859995">
        <ele>271.0</ele>
        <time>2018-10-03T06:38:50.000Z</time>
      </trkpt>
      <trkpt lat="42.369935" lon="-7.86">
        <ele>271.0</ele>
        <time>2018-10-03T06:38:51.000Z</time>
      </trkpt>
      <trkpt lat="42.36995" lon="-7.86000167">
        <ele>271.0</ele>
        <time>2018-10-03T06:38:52.000Z</time>
      </trkpt>
      <trkpt lat="42.36996667" lon="-7.860005">
        <ele>271.0</ele>
        <time>2018-10-03T06:38:53.000Z</time>
      </trkpt>
      <trkpt lat="42.36997833" lon="-7.86000833">
        <ele>271.0</ele>
        <time>2018-10-03T06:38:54.000Z</time>
      </trkpt>
      <trkpt lat="42.36999167" lon="-7.86001333">
        <ele>271.0</ele>
        <time>2018-10-03T06:38:55.000Z</time>
      </trkpt>
      <trkpt lat="42.370005" lon="-7.86001833">
        <ele>272.0</ele>
        <time>2018-10-03T06:38:56.000Z</time>
      </trkpt>
      <trkpt lat="42.37001833" lon="-7.86002667">
        <ele>272.0</ele>
        <time>2018-10-03T06:38:57.000Z</time>
      </trkpt>
      <trkpt lat="42.37003167" lon="-7.86003333">
        <ele>272.0</ele>
        <time>2018-10-03T06:38:58.000Z</time>
      </trkpt>
      <trkpt lat="42.37004667" lon="-7.86004">
        <ele>272.0</ele>
        <time>2018-10-03T06:38:59.000Z</time>
      </trkpt>
      <trkpt lat="42.37005833" lon="-7.86004333">
        <ele>272.0</ele>
        <time>2018-10-03T06:39:00.000Z</time>
      </trkpt>
      <trkpt lat="42.37006833" lon="-7.86005">
        <ele>272.0</ele>
        <time>2018-10-03T06:39:01.000Z</time>
      </trkpt>
      <trkpt lat="42.37008" lon="-7.860055">
        <ele>272.0</ele>
        <time>2018-10-03T06:39:02.000Z</time>
      </trkpt>
      <trkpt lat="42.37009" lon="-7.86006167">
        <ele>273.0</ele>
        <time>2018-10-03T06:39:03.000Z</time>
      </trkpt>
      <trkpt lat="42.37010167" lon="-7.86007">
        <ele>273.0</ele>
        <time>2018-10-03T06:39:04.000Z</time>
      </trkpt>
      <trkpt lat="42.37011333" lon="-7.86008">
        <ele>273.0</ele>
        <time>2018-10-03T06:39:05.000Z</time>
      </trkpt>
      <trkpt lat="42.37012333" lon="-7.86008833">
        <ele>273.0</ele>
        <time>2018-10-03T06:39:06.000Z</time>
      </trkpt>
      <trkpt lat="42.370135" lon="-7.860095">
        <ele>273.0</ele>
        <time>2018-10-03T06:39:07.000Z</time>
      </trkpt>
      <trkpt lat="42.37014667" lon="-7.8601">
        <ele>273.0</ele>
        <time>2018-10-03T06:39:08.000Z</time>
      </trkpt>
      <trkpt lat="42.37015833" lon="-7.860105">
        <ele>274.0</ele>
        <time>2018-10-03T06:39:09.000Z</time>
      </trkpt>
      <trkpt lat="42.37017167" lon="-7.86010667">
        <ele>274.0</ele>
        <time>2018-10-03T06:39:10.000Z</time>
      </trkpt>
      <trkpt lat="42.37018167" lon="-7.86011">
        <ele>274.0</ele>
        <time>2018-10-03T06:39:11.000Z</time>
      </trkpt>
      <trkpt lat="42.37019167" lon="-7.86010833">
        <ele>274.0</ele>
        <time>2018-10-03T06:39:12.000Z</time>
      </trkpt>
      <trkpt lat="42.3702" lon="-7.86010833">
        <ele>274.0</ele>
        <time>2018-10-03T06:39:13.000Z</time>
      </trkpt>
      <trkpt lat="42.37021" lon="-7.86010667">
        <ele>274.0</ele>
        <time>2018-10-03T06:39:14.000Z</time>
      </trkpt>
      <trkpt lat="42.37022" lon="-7.860105">
        <ele>275.0</ele>
        <time>2018-10-03T06:39:15.000Z</time>
      </trkpt>
      <trkpt lat="42.37023" lon="-7.86010167">
        <ele>275.0</ele>
        <time>2018-10-03T06:39:16.000Z</time>
      </trkpt>
      <trkpt lat="42.37023667" lon="-7.86009833">
        <ele>275.0</ele>
        <time>2018-10-03T06:39:17.000Z</time>
      </trkpt>
      <trkpt lat="42.370245" lon="-7.860095">
        <ele>275.0</ele>
        <time>2018-10-03T06:39:18.000Z</time>
      </trkpt>
      <trkpt lat="42.37025333" lon="-7.86009">
        <ele>275.0</ele>
        <time>2018-10-03T06:39:19.000Z</time>
      </trkpt>
      <trkpt lat="42.37026333" lon="-7.86008333">
        <ele>275.0</ele>
        <time>2018-10-03T06:39:20.000Z</time>
      </trkpt>
      <trkpt lat="42.37027167" lon="-7.860075">
        <ele>275.0</ele>
        <time>2018-10-03T06:39:21.000Z</time>
      </trkpt>
      <trkpt lat="42.37028" lon="-7.86006667">
        <ele>276.0</ele>
        <time>2018-10-03T06:39:22.000Z</time>
      </trkpt>
      <trkpt lat="42.37028833" lon="-7.86005833">
        <ele>276.0</ele>
        <time>2018-10-03T06:39:23.000Z</time>
      </trkpt>
      <trkpt lat="42.370295" lon="-7.86004833">
        <ele>276.0</ele>
        <time>2018-10-03T06:39:24.000Z</time>
      </trkpt>
      <trkpt lat="42.37030333" lon="-7.86003667">
        <ele>276.0</ele>
        <time>2018-10-03T06:39:25.000Z</time>
      </trkpt>
      <trkpt lat="42.37031167" lon="-7.86002667">
        <ele>276.0</ele>
        <time>2018-10-03T06:39:26.000Z</time>
      </trkpt>
      <trkpt lat="42.37031833" lon="-7.860015">
        <ele>276.0</ele>
        <time>2018-10-03T06:39:27.000Z</time>
      </trkpt>
      <trkpt lat="42.370325" lon="-7.86000167">
        <ele>276.0</ele>
        <time>2018-10-03T06:39:28.000Z</time>
      </trkpt>
      <trkpt lat="42.37033333" lon="-7.85998833">
        <ele>276.0</ele>
        <time>2018-10-03T06:39:29.000Z</time>
      </trkpt>
      <trkpt lat="42.37033833" lon="-7.859975">
        <ele>276.0</ele>
        <time>2018-10-03T06:39:30.000Z</time>
      </trkpt>
      <trkpt lat="42.370345" lon="-7.85996167">
        <ele>277.0</ele>
        <time>2018-10-03T06:39:31.000Z</time>
      </trkpt>
      <trkpt lat="42.37035" lon="-7.85994833">
        <ele>277.0</ele>
        <time>2018-10-03T06:39:32.000Z</time>
      </trkpt>
      <trkpt lat="42.37035333" lon="-7.85993167">
        <ele>277.0</ele>
        <time>2018-10-03T06:39:33.000Z</time>
      </trkpt>
      <trkpt lat="42.37035833" lon="-7.85991667">
        <ele>277.0</ele>
        <time>2018-10-03T06:39:34.000Z</time>
      </trkpt>
      <trkpt lat="42.37036167" lon="-7.85990167">
        <ele>277.0</ele>
        <time>2018-10-03T06:39:35.000Z</time>
      </trkpt>
      <trkpt lat="42.37036667" lon="-7.859885">
        <ele>277.0</ele>
        <time>2018-10-03T06:39:36.000Z</time>
      </trkpt>
      <trkpt lat="42.37037" lon="-7.85986667">
        <ele>277.0</ele>
        <time>2018-10-03T06:39:37.000Z</time>
      </trkpt>
      <trkpt lat="42.37037333" lon="-7.85984833">
        <ele>277.0</ele>
        <time>2018-10-03T06:39:38.000Z</time>
      </trkpt>
      <trkpt lat="42.370375" lon="-7.85983">
        <ele>277.0</ele>
        <time>2018-10-03T06:39:39.000Z</time>
      </trkpt>
      <trkpt lat="42.37037833" lon="-7.85981167">
        <ele>277.0</ele>
        <time>2018-10-03T06:39:40.000Z</time>
      </trkpt>
      <trkpt lat="42.37038167" lon="-7.85979333">
        <ele>278.0</ele>
        <time>2018-10-03T06:39:41.000Z</time>
      </trkpt>
      <trkpt lat="42.37038333" lon="-7.85977667">
        <ele>278.0</ele>
        <time>2018-10-03T06:39:42.000Z</time>
      </trkpt>
      <trkpt lat="42.370385" lon="-7.85976">
        <ele>278.0</ele>
        <time>2018-10-03T06:39:43.000Z</time>
      </trkpt>
      <trkpt lat="42.37038667" lon="-7.85974333">
        <ele>278.0</ele>
        <time>2018-10-03T06:39:44.000Z</time>
      </trkpt>
      <trkpt lat="42.37039" lon="-7.85972667">
        <ele>278.0</ele>
        <time>2018-10-03T06:39:45.000Z</time>
      </trkpt>
      <trkpt lat="42.37039" lon="-7.85970833">
        <ele>278.0</ele>
        <time>2018-10-03T06:39:46.000Z</time>
      </trkpt>
      <trkpt lat="42.37039167" lon="-7.85969">
        <ele>278.0</ele>
        <time>2018-10-03T06:39:47.000Z</time>
      </trkpt>
      <trkpt lat="42.37039167" lon="-7.85967">
        <ele>278.0</ele>
        <time>2018-10-03T06:39:48.000Z</time>
      </trkpt>
      <trkpt lat="42.37039167" lon="-7.85965333">
        <ele>279.0</ele>
        <time>2018-10-03T06:39:49.000Z</time>
      </trkpt>
      <trkpt lat="42.37039" lon="-7.859635">
        <ele>279.0</ele>
        <time>2018-10-03T06:39:50.000Z</time>
      </trkpt>
      <trkpt lat="42.37039167" lon="-7.85961833">
        <ele>279.0</ele>
        <time>2018-10-03T06:39:51.000Z</time>
      </trkpt>
      <trkpt lat="42.37039167" lon="-7.8596">
        <ele>279.0</ele>
        <time>2018-10-03T06:39:52.000Z</time>
      </trkpt>
      <trkpt lat="42.37039333" lon="-7.85958167">
        <ele>280.0</ele>
        <time>2018-10-03T06:39:53.000Z</time>
      </trkpt>
      <trkpt lat="42.37039667" lon="-7.859565">
        <ele>280.0</ele>
        <time>2018-10-03T06:39:54.000Z</time>
      </trkpt>
      <trkpt lat="42.37040167" lon="-7.85954667">
        <ele>280.0</ele>
        <time>2018-10-03T06:39:55.000Z</time>
      </trkpt>
      <trkpt lat="42.37040667" lon="-7.85952833">
        <ele>280.0</ele>
        <time>2018-10-03T06:39:56.000Z</time>
      </trkpt>
      <trkpt lat="42.37041167" lon="-7.85951333">
        <ele>280.0</ele>
        <time>2018-10-03T06:39:57.000Z</time>
      </trkpt>
      <trkpt lat="42.37041833" lon="-7.85949333">
        <ele>281.0</ele>
        <time>2018-10-03T06:39:58.000Z</time>
      </trkpt>
      <trkpt lat="42.37042167" lon="-7.859475">
        <ele>281.0</ele>
        <time>2018-10-03T06:39:59.000Z</time>
      </trkpt>
      <trkpt lat="42.37042833" lon="-7.85945667">
        <ele>281.0</ele>
        <time>2018-10-03T06:40:00.000Z</time>
      </trkpt>
      <trkpt lat="42.37043333" lon="-7.85944">
        <ele>281.0</ele>
        <time>2018-10-03T06:40:01.000Z</time>
      </trkpt>
      <trkpt lat="42.37044" lon="-7.85942">
        <ele>281.0</ele>
        <time>2018-10-03T06:40:02.000Z</time>
      </trkpt>
      <trkpt lat="42.370445" lon="-7.85940333">
        <ele>282.0</ele>
        <time>2018-10-03T06:40:03.000Z</time>
      </trkpt>
      <trkpt lat="42.37045" lon="-7.859385">
        <ele>282.0</ele>
        <time>2018-10-03T06:40:04.000Z</time>
      </trkpt>
      <trkpt lat="42.37046" lon="-7.85937167">
        <ele>282.0</ele>
        <time>2018-10-03T06:40:05.000Z</time>
      </trkpt>
      <trkpt lat="42.37047" lon="-7.859355">
        <ele>282.0</ele>
        <time>2018-10-03T06:40:06.000Z</time>
      </trkpt>
      <trkpt lat="42.37048167" lon="-7.859345">
        <ele>283.0</ele>
        <time>2018-10-03T06:40:07.000Z</time>
      </trkpt>
      <trkpt lat="42.37049333" lon="-7.85933833">
        <ele>283.0</ele>
        <time>2018-10-03T06:40:08.000Z</time>
      </trkpt>
      <trkpt lat="42.37050833" lon="-7.859335">
        <ele>283.0</ele>
        <time>2018-10-03T06:40:09.000Z</time>
      </trkpt>
      <trkpt lat="42.37052167" lon="-7.859335">
        <ele>283.0</ele>
        <time>2018-10-03T06:40:10.000Z</time>
      </trkpt>
      <trkpt lat="42.37053667" lon="-7.85934167">
        <ele>284.0</ele>
        <time>2018-10-03T06:40:11.000Z</time>
      </trkpt>
      <trkpt lat="42.37055" lon="-7.85935">
        <ele>284.0</ele>
        <time>2018-10-03T06:40:12.000Z</time>
      </trkpt>
      <trkpt lat="42.37056" lon="-7.85936167">
        <ele>284.0</ele>
        <time>2018-10-03T06:40:13.000Z</time>
      </trkpt>
      <trkpt lat="42.37056833" lon="-7.859375">
        <ele>284.0</ele>
        <time>2018-10-03T06:40:14.000Z</time>
      </trkpt>
      <trkpt lat="42.37057667" lon="-7.85939">
        <ele>285.0</ele>
        <time>2018-10-03T06:40:15.000Z</time>
      </trkpt>
      <trkpt lat="42.370585" lon="-7.859405">
        <ele>285.0</ele>
        <time>2018-10-03T06:40:16.000Z</time>
      </trkpt>
      <trkpt lat="42.37059" lon="-7.85942333">
        <ele>285.0</ele>
        <time>2018-10-03T06:40:17.000Z</time>
      </trkpt>
      <trkpt lat="42.37059167" lon="-7.85944">
        <ele>285.0</ele>
        <time>2018-10-03T06:40:18.000Z</time>
      </trkpt>
      <trkpt lat="42.37059167" lon="-7.85945667">
        <ele>285.0</ele>
        <time>2018-10-03T06:40:19.000Z</time>
      </trkpt>
      <trkpt lat="42.37059167" lon="-7.85947333">
        <ele>285.0</ele>
        <time>2018-10-03T06:40:20.000Z</time>
      </trkpt>
      <trkpt lat="42.37059333" lon="-7.85949167">
        <ele>285.0</ele>
        <time>2018-10-03T06:40:21.000Z</time>
      </trkpt>
      <trkpt lat="42.370595" lon="-7.85951">
        <ele>286.0</ele>
        <time>2018-10-03T06:40:22.000Z</time>
      </trkpt>
      <trkpt lat="42.37059667" lon="-7.859525">
        <ele>286.0</ele>
        <time>2018-10-03T06:40:23.000Z</time>
      </trkpt>
      <trkpt lat="42.37059667" lon="-7.85954">
        <ele>286.0</ele>
        <time>2018-10-03T06:40:24.000Z</time>
      </trkpt>
      <trkpt lat="42.370595" lon="-7.85955667">
        <ele>286.0</ele>
        <time>2018-10-03T06:40:25.000Z</time>
      </trkpt>
      <trkpt lat="42.37059667" lon="-7.85957667">
        <ele>286.0</ele>
        <time>2018-10-03T06:40:26.000Z</time>
      </trkpt>
      <trkpt lat="42.37059667" lon="-7.85959167">
        <ele>286.0</ele>
        <time>2018-10-03T06:40:27.000Z</time>
      </trkpt>
      <trkpt lat="42.370595" lon="-7.85960833">
        <ele>286.0</ele>
        <time>2018-10-03T06:40:28.000Z</time>
      </trkpt>
      <trkpt lat="42.37059333" lon="-7.85962667">
        <ele>286.0</ele>
        <time>2018-10-03T06:40:29.000Z</time>
      </trkpt>
      <trkpt lat="42.37059333" lon="-7.85964333">
        <ele>287.0</ele>
        <time>2018-10-03T06:40:30.000Z</time>
      </trkpt>
      <trkpt lat="42.37059333" lon="-7.85966167">
        <ele>287.0</ele>
        <time>2018-10-03T06:40:31.000Z</time>
      </trkpt>
      <trkpt lat="42.37059333" lon="-7.85968">
        <ele>287.0</ele>
        <time>2018-10-03T06:40:32.000Z</time>
      </trkpt>
      <trkpt lat="42.370595" lon="-7.85969833">
        <ele>287.0</ele>
        <time>2018-10-03T06:40:33.000Z</time>
      </trkpt>
      <trkpt lat="42.370595" lon="-7.85971667">
        <ele>287.0</ele>
        <time>2018-10-03T06:40:34.000Z</time>
      </trkpt>
      <trkpt lat="42.37059667" lon="-7.859735">
        <ele>287.0</ele>
        <time>2018-10-03T06:40:35.000Z</time>
      </trkpt>
      <trkpt lat="42.37059667" lon="-7.859755">
        <ele>288.0</ele>
        <time>2018-10-03T06:40:36.000Z</time>
      </trkpt>
      <trkpt lat="42.37059667" lon="-7.85977167">
        <ele>288.0</ele>
        <time>2018-10-03T06:40:37.000Z</time>
      </trkpt>
      <trkpt lat="42.3706" lon="-7.85979167">
        <ele>288.0</ele>
        <time>2018-10-03T06:40:38.000Z</time>
      </trkpt>
      <trkpt lat="42.37060167" lon="-7.85981333">
        <ele>288.0</ele>
        <time>2018-10-03T06:40:39.000Z</time>
      </trkpt>
      <trkpt lat="42.37060667" lon="-7.85983167">
        <ele>289.0</ele>
        <time>2018-10-03T06:40:40.000Z</time>
      </trkpt>
      <trkpt lat="42.37061" lon="-7.85985167">
        <ele>289.0</ele>
        <time>2018-10-03T06:40:41.000Z</time>
      </trkpt>
      <trkpt lat="42.37061333" lon="-7.85987167">
        <ele>289.0</ele>
        <time>2018-10-03T06:40:42.000Z</time>
      </trkpt>
      <trkpt lat="42.37061833" lon="-7.85989">
        <ele>289.0</ele>
        <time>2018-10-03T06:40:43.000Z</time>
      </trkpt>
      <trkpt lat="42.37062333" lon="-7.85990833">
        <ele>290.0</ele>
        <time>2018-10-03T06:40:44.000Z</time>
      </trkpt>
      <trkpt lat="42.37062833" lon="-7.85992667">
        <ele>290.0</ele>
        <time>2018-10-03T06:40:45.000Z</time>
      </trkpt>
      <trkpt lat="42.37063667" lon="-7.85994333">
        <ele>290.0</ele>
        <time>2018-10-03T06:40:46.000Z</time>
      </trkpt>
      <trkpt lat="42.37064667" lon="-7.85995667">
        <ele>290.0</ele>
        <time>2018-10-03T06:40:47.000Z</time>
      </trkpt>
      <trkpt lat="42.370655" lon="-7.85997">
        <ele>290.0</ele>
        <time>2018-10-03T06:40:48.000Z</time>
      </trkpt>
      <trkpt lat="42.37066333" lon="-7.85998333">
        <ele>291.0</ele>
        <time>2018-10-03T06:40:49.000Z</time>
      </trkpt>
      <trkpt lat="42.37067167" lon="-7.85999833">
        <ele>291.0</ele>
        <time>2018-10-03T06:40:50.000Z</time>
      </trkpt>
      <trkpt lat="42.37068" lon="-7.86001333">
        <ele>291.0</ele>
        <time>2018-10-03T06:40:51.000Z</time>
      </trkpt>
      <trkpt lat="42.37069" lon="-7.86002667">
        <ele>291.0</ele>
        <time>2018-10-03T06:40:52.000Z</time>
      </trkpt>
      <trkpt lat="42.370695" lon="-7.86004">
        <ele>292.0</ele>
        <time>2018-10-03T06:40:53.000Z</time>
      </trkpt>
      <trkpt lat="42.370705" lon="-7.86005167">
        <ele>292.0</ele>
        <time>2018-10-03T06:40:54.000Z</time>
      </trkpt>
      <trkpt lat="42.370715" lon="-7.86006">
        <ele>292.0</ele>
        <time>2018-10-03T06:40:55.000Z</time>
      </trkpt>
      <trkpt lat="42.37072" lon="-7.86007">
        <ele>292.0</ele>
        <time>2018-10-03T06:40:56.000Z</time>
      </trkpt>
      <trkpt lat="42.37072667" lon="-7.86008167">
        <ele>292.0</ele>
        <time>2018-10-03T06:40:57.000Z</time>
      </trkpt>
      <trkpt lat="42.37073167" lon="-7.860095">
        <ele>292.0</ele>
        <time>2018-10-03T06:40:58.000Z</time>
      </trkpt>
      <trkpt lat="42.37074" lon="-7.86010667">
        <ele>292.0</ele>
        <time>2018-10-03T06:40:59.000Z</time>
      </trkpt>
      <trkpt lat="42.37074667" lon="-7.86011833">
        <ele>293.0</ele>
        <time>2018-10-03T06:41:00.000Z</time>
      </trkpt>
      <trkpt lat="42.370755" lon="-7.86012833">
        <ele>293.0</ele>
        <time>2018-10-03T06:41:01.000Z</time>
      </trkpt>
      <trkpt lat="42.370765" lon="-7.86013833">
        <ele>293.0</ele>
        <time>2018-10-03T06:41:02.000Z</time>
      </trkpt>
      <trkpt lat="42.37077167" lon="-7.86015">
        <ele>293.0</ele>
        <time>2018-10-03T06:41:03.000Z</time>
      </trkpt>
      <trkpt lat="42.37078" lon="-7.86016">
        <ele>293.0</ele>
        <time>2018-10-03T06:41:04.000Z</time>
      </trkpt>
      <trkpt lat="42.37078667" lon="-7.86016833">
        <ele>293.0</ele>
        <time>2018-10-03T06:41:05.000Z</time>
      </trkpt>
      <trkpt lat="42.37079333" lon="-7.86017833">
        <ele>293.0</ele>
        <time>2018-10-03T06:41:06.000Z</time>
      </trkpt>
      <trkpt lat="42.3708" lon="-7.86019">
        <ele>294.0</ele>
        <time>2018-10-03T06:41:07.000Z</time>
      </trkpt>
      <trkpt lat="42.370805" lon="-7.86020333">
        <ele>294.0</ele>
        <time>2018-10-03T06:41:08.000Z</time>
      </trkpt>
      <trkpt lat="42.37081167" lon="-7.860215">
        <ele>294.0</ele>
        <time>2018-10-03T06:41:09.000Z</time>
      </trkpt>
      <trkpt lat="42.37082" lon="-7.860225">
        <ele>294.0</ele>
        <time>2018-10-03T06:41:10.000Z</time>
      </trkpt>
      <trkpt lat="42.37082833" lon="-7.860235">
        <ele>294.0</ele>
        <time>2018-10-03T06:41:11.000Z</time>
      </trkpt>
      <trkpt lat="42.37083833" lon="-7.86024333">
        <ele>294.0</ele>
        <time>2018-10-03T06:41:12.000Z</time>
      </trkpt>
      <trkpt lat="42.37084667" lon="-7.86025333">
        <ele>295.0</ele>
        <time>2018-10-03T06:41:13.000Z</time>
      </trkpt>
      <trkpt lat="42.37085333" lon="-7.860265">
        <ele>295.0</ele>
        <time>2018-10-03T06:41:14.000Z</time>
      </trkpt>
      <trkpt lat="42.37086" lon="-7.860275">
        <ele>295.0</ele>
        <time>2018-10-03T06:41:15.000Z</time>
      </trkpt>
      <trkpt lat="42.37086833" lon="-7.86028333">
        <ele>295.0</ele>
        <time>2018-10-03T06:41:16.000Z</time>
      </trkpt>
      <trkpt lat="42.37087833" lon="-7.86029333">
        <ele>296.0</ele>
        <time>2018-10-03T06:41:17.000Z</time>
      </trkpt>
      <trkpt lat="42.37088833" lon="-7.86030167">
        <ele>296.0</ele>
        <time>2018-10-03T06:41:18.000Z</time>
      </trkpt>
      <trkpt lat="42.37089833" lon="-7.86030833">
        <ele>296.0</ele>
        <time>2018-10-03T06:41:19.000Z</time>
      </trkpt>
      <trkpt lat="42.37091167" lon="-7.860315">
        <ele>296.0</ele>
        <time>2018-10-03T06:41:20.000Z</time>
      </trkpt>
      <trkpt lat="42.370925" lon="-7.86032">
        <ele>296.0</ele>
        <time>2018-10-03T06:41:21.000Z</time>
      </trkpt>
      <trkpt lat="42.37094" lon="-7.860325">
        <ele>296.0</ele>
        <time>2018-10-03T06:41:22.000Z</time>
      </trkpt>
      <trkpt lat="42.37095167" lon="-7.86033">
        <ele>297.0</ele>
        <time>2018-10-03T06:41:23.000Z</time>
      </trkpt>
      <trkpt lat="42.37096333" lon="-7.86033833">
        <ele>297.0</ele>
        <time>2018-10-03T06:41:24.000Z</time>
      </trkpt>
      <trkpt lat="42.37097667" lon="-7.86034333">
        <ele>297.0</ele>
        <time>2018-10-03T06:41:25.000Z</time>
      </trkpt>
      <trkpt lat="42.37098667" lon="-7.86035">
        <ele>297.0</ele>
        <time>2018-10-03T06:41:26.000Z</time>
      </trkpt>
      <trkpt lat="42.37099833" lon="-7.86035667">
        <ele>297.0</ele>
        <time>2018-10-03T06:41:27.000Z</time>
      </trkpt>
      <trkpt lat="42.37101" lon="-7.860365">
        <ele>297.0</ele>
        <time>2018-10-03T06:41:28.000Z</time>
      </trkpt>
      <trkpt lat="42.37102" lon="-7.86037167">
        <ele>297.0</ele>
        <time>2018-10-03T06:41:29.000Z</time>
      </trkpt>
      <trkpt lat="42.37103" lon="-7.86037833">
        <ele>298.0</ele>
        <time>2018-10-03T06:41:30.000Z</time>
      </trkpt>
      <trkpt lat="42.37104167" lon="-7.86038667">
        <ele>298.0</ele>
        <time>2018-10-03T06:41:31.000Z</time>
      </trkpt>
      <trkpt lat="42.37105667" lon="-7.86039">
        <ele>298.0</ele>
        <time>2018-10-03T06:41:32.000Z</time>
      </trkpt>
      <trkpt lat="42.37107" lon="-7.860395">
        <ele>298.0</ele>
        <time>2018-10-03T06:41:33.000Z</time>
      </trkpt>
      <trkpt lat="42.37108167" lon="-7.86040167">
        <ele>298.0</ele>
        <time>2018-10-03T06:41:34.000Z</time>
      </trkpt>
      <trkpt lat="42.37109333" lon="-7.86040667">
        <ele>298.0</ele>
        <time>2018-10-03T06:41:35.000Z</time>
      </trkpt>
      <trkpt lat="42.37110333" lon="-7.86041167">
        <ele>298.0</ele>
        <time>2018-10-03T06:41:36.000Z</time>
      </trkpt>
      <trkpt lat="42.37111333" lon="-7.86041833">
        <ele>298.0</ele>
        <time>2018-10-03T06:41:37.000Z</time>
      </trkpt>
      <trkpt lat="42.371125" lon="-7.86042333">
        <ele>298.0</ele>
        <time>2018-10-03T06:41:38.000Z</time>
      </trkpt>
      <trkpt lat="42.371135" lon="-7.86042833">
        <ele>299.0</ele>
        <time>2018-10-03T06:41:39.000Z</time>
      </trkpt>
      <trkpt lat="42.371145" lon="-7.86043167">
        <ele>299.0</ele>
        <time>2018-10-03T06:41:40.000Z</time>
      </trkpt>
      <trkpt lat="42.371155" lon="-7.860435">
        <ele>299.0</ele>
        <time>2018-10-03T06:41:41.000Z</time>
      </trkpt>
      <trkpt lat="42.37116833" lon="-7.860435">
        <ele>299.0</ele>
        <time>2018-10-03T06:41:42.000Z</time>
      </trkpt>
      <trkpt lat="42.37117833" lon="-7.860435">
        <ele>299.0</ele>
        <time>2018-10-03T06:41:43.000Z</time>
      </trkpt>
      <trkpt lat="42.37118833" lon="-7.860435">
        <ele>300.0</ele>
        <time>2018-10-03T06:41:44.000Z</time>
      </trkpt>
      <trkpt lat="42.37119833" lon="-7.860435">
        <ele>300.0</ele>
        <time>2018-10-03T06:41:45.000Z</time>
      </trkpt>
      <trkpt lat="42.37120833" lon="-7.860435">
        <ele>300.0</ele>
        <time>2018-10-03T06:41:46.000Z</time>
      </trkpt>
      <trkpt lat="42.37121333" lon="-7.860435">
        <ele>300.0</ele>
        <time>2018-10-03T06:41:47.000Z</time>
      </trkpt>
      <trkpt lat="42.371225" lon="-7.86043667">
        <ele>300.0</ele>
        <time>2018-10-03T06:41:48.000Z</time>
      </trkpt>
      <trkpt lat="42.37123833" lon="-7.86043667">
        <ele>301.0</ele>
        <time>2018-10-03T06:41:49.000Z</time>
      </trkpt>
      <trkpt lat="42.37125333" lon="-7.860435">
        <ele>301.0</ele>
        <time>2018-10-03T06:41:50.000Z</time>
      </trkpt>
      <trkpt lat="42.37126667" lon="-7.86043167">
        <ele>301.0</ele>
        <time>2018-10-03T06:41:51.000Z</time>
      </trkpt>
      <trkpt lat="42.37128167" lon="-7.86042667">
        <ele>302.0</ele>
        <time>2018-10-03T06:41:52.000Z</time>
      </trkpt>
      <trkpt lat="42.37129833" lon="-7.86042">
        <ele>302.0</ele>
        <time>2018-10-03T06:41:53.000Z</time>
      </trkpt>
      <trkpt lat="42.37131333" lon="-7.86041333">
        <ele>302.0</ele>
        <time>2018-10-03T06:41:54.000Z</time>
      </trkpt>
      <trkpt lat="42.37132667" lon="-7.86040833">
        <ele>303.0</ele>
        <time>2018-10-03T06:41:55.000Z</time>
      </trkpt>
      <trkpt lat="42.37134" lon="-7.8604">
        <ele>303.0</ele>
        <time>2018-10-03T06:41:56.000Z</time>
      </trkpt>
      <trkpt lat="42.37135333" lon="-7.86039">
        <ele>303.0</ele>
        <time>2018-10-03T06:41:57.000Z</time>
      </trkpt>
      <trkpt lat="42.371365" lon="-7.86038">
        <ele>304.0</ele>
        <time>2018-10-03T06:41:58.000Z</time>
      </trkpt>
      <trkpt lat="42.37137833" lon="-7.86037">
        <ele>304.0</ele>
        <time>2018-10-03T06:41:59.000Z</time>
      </trkpt>
      <trkpt lat="42.37139167" lon="-7.860365">
        <ele>304.0</ele>
        <time>2018-10-03T06:42:00.000Z</time>
      </trkpt>
      <trkpt lat="42.3714" lon="-7.86036167">
        <ele>304.0</ele>
        <time>2018-10-03T06:42:01.000Z</time>
      </trkpt>
      <trkpt lat="42.37141333" lon="-7.860355">
        <ele>304.0</ele>
        <time>2018-10-03T06:42:02.000Z</time>
      </trkpt>
      <trkpt lat="42.37142667" lon="-7.86034833">
        <ele>305.0</ele>
        <time>2018-10-03T06:42:03.000Z</time>
      </trkpt>
      <trkpt lat="42.37144" lon="-7.86034">
        <ele>305.0</ele>
        <time>2018-10-03T06:42:04.000Z</time>
      </trkpt>
      <trkpt lat="42.37145333" lon="-7.86033333">
        <ele>305.0</ele>
        <time>2018-10-03T06:42:05.000Z</time>
      </trkpt>
      <trkpt lat="42.37146833" lon="-7.860325">
        <ele>305.0</ele>
        <time>2018-10-03T06:42:06.000Z</time>
      </trkpt>
      <trkpt lat="42.37148167" lon="-7.86031667">
        <ele>306.0</ele>
        <time>2018-10-03T06:42:07.000Z</time>
      </trkpt>
      <trkpt lat="42.371495" lon="-7.86031">
        <ele>306.0</ele>
        <time>2018-10-03T06:42:08.000Z</time>
      </trkpt>
      <trkpt lat="42.37150833" lon="-7.86030167">
        <ele>306.0</ele>
        <time>2018-10-03T06:42:09.000Z</time>
      </trkpt>
      <trkpt lat="42.37152167" lon="-7.86029167">
        <ele>306.0</ele>
        <time>2018-10-03T06:42:10.000Z</time>
      </trkpt>
      <trkpt lat="42.371535" lon="-7.86028333">
        <ele>306.0</ele>
        <time>2018-10-03T06:42:11.000Z</time>
      </trkpt>
      <trkpt lat="42.37154667" lon="-7.860275">
        <ele>306.0</ele>
        <time>2018-10-03T06:42:12.000Z</time>
      </trkpt>
      <trkpt lat="42.37156" lon="-7.86027">
        <ele>307.0</ele>
        <time>2018-10-03T06:42:13.000Z</time>
      </trkpt>
      <trkpt lat="42.37157333" lon="-7.86026333">
        <ele>307.0</ele>
        <time>2018-10-03T06:42:14.000Z</time>
      </trkpt>
      <trkpt lat="42.371585" lon="-7.86025833">
        <ele>307.0</ele>
        <time>2018-10-03T06:42:15.000Z</time>
      </trkpt>
      <trkpt lat="42.371595" lon="-7.86025167">
        <ele>307.0</ele>
        <time>2018-10-03T06:42:16.000Z</time>
      </trkpt>
      <trkpt lat="42.371605" lon="-7.86024333">
        <ele>307.0</ele>
        <time>2018-10-03T06:42:17.000Z</time>
      </trkpt>
      <trkpt lat="42.37161167" lon="-7.860235">
        <ele>307.0</ele>
        <time>2018-10-03T06:42:18.000Z</time>
      </trkpt>
      <trkpt lat="42.37162" lon="-7.860225">
        <ele>307.0</ele>
        <time>2018-10-03T06:42:19.000Z</time>
      </trkpt>
      <trkpt lat="42.37163" lon="-7.86021333">
        <ele>307.0</ele>
        <time>2018-10-03T06:42:20.000Z</time>
      </trkpt>
      <trkpt lat="42.37163833" lon="-7.86020333">
        <ele>307.0</ele>
        <time>2018-10-03T06:42:21.000Z</time>
      </trkpt>
      <trkpt lat="42.371645" lon="-7.86019333">
        <ele>307.0</ele>
        <time>2018-10-03T06:42:22.000Z</time>
      </trkpt>
      <trkpt lat="42.371655" lon="-7.86018333">
        <ele>307.0</ele>
        <time>2018-10-03T06:42:23.000Z</time>
      </trkpt>
      <trkpt lat="42.37166167" lon="-7.86017667">
        <ele>308.0</ele>
        <time>2018-10-03T06:42:24.000Z</time>
      </trkpt>
      <trkpt lat="42.37166167" lon="-7.86017833">
        <ele>308.0</ele>
        <time>2018-10-03T06:42:25.000Z</time>
      </trkpt>
      <trkpt lat="42.37166333" lon="-7.86017833">
        <ele>308.0</ele>
        <time>2018-10-03T06:42:26.000Z</time>
      </trkpt>
      <trkpt lat="42.37166333" lon="-7.86018">
        <ele>308.0</ele>
        <time>2018-10-03T06:42:27.000Z</time>
      </trkpt>
      <trkpt lat="42.37166333" lon="-7.86018167">
        <ele>308.0</ele>
        <time>2018-10-03T06:42:28.000Z</time>
      </trkpt>
      <trkpt lat="42.371665" lon="-7.86018667">
        <ele>308.0</ele>
        <time>2018-10-03T06:42:29.000Z</time>
      </trkpt>
      <trkpt lat="42.37167167" lon="-7.860195">
        <ele>308.0</ele>
        <time>2018-10-03T06:42:30.000Z</time>
      </trkpt>
      <trkpt lat="42.37168167" lon="-7.86020167">
        <ele>308.0</ele>
        <time>2018-10-03T06:42:31.000Z</time>
      </trkpt>
      <trkpt lat="42.37169667" lon="-7.86020167">
        <ele>308.0</ele>
        <time>2018-10-03T06:42:32.000Z</time>
      </trkpt>
      <trkpt lat="42.37171167" lon="-7.8602">
        <ele>308.0</ele>
        <time>2018-10-03T06:42:33.000Z</time>
      </trkpt>
      <trkpt lat="42.37172667" lon="-7.8602">
        <ele>308.0</ele>
        <time>2018-10-03T06:42:34.000Z</time>
      </trkpt>
      <trkpt lat="42.37174167" lon="-7.86019833">
        <ele>308.0</ele>
        <time>2018-10-03T06:42:35.000Z</time>
      </trkpt>
      <trkpt lat="42.37175667" lon="-7.86019667">
        <ele>308.0</ele>
        <time>2018-10-03T06:42:36.000Z</time>
      </trkpt>
      <trkpt lat="42.37177" lon="-7.860195">
        <ele>309.0</ele>
        <time>2018-10-03T06:42:37.000Z</time>
      </trkpt>
      <trkpt lat="42.371785" lon="-7.860195">
        <ele>309.0</ele>
        <time>2018-10-03T06:42:38.000Z</time>
      </trkpt>
      <trkpt lat="42.37179833" lon="-7.860195">
        <ele>309.0</ele>
        <time>2018-10-03T06:42:39.000Z</time>
      </trkpt>
      <trkpt lat="42.37181167" lon="-7.86019333">
        <ele>310.0</ele>
        <time>2018-10-03T06:42:40.000Z</time>
      </trkpt>
      <trkpt lat="42.371825" lon="-7.86019167">
        <ele>310.0</ele>
        <time>2018-10-03T06:42:41.000Z</time>
      </trkpt>
      <trkpt lat="42.37183667" lon="-7.86019">
        <ele>310.0</ele>
        <time>2018-10-03T06:42:42.000Z</time>
      </trkpt>
      <trkpt lat="42.371845" lon="-7.86018833">
        <ele>310.0</ele>
        <time>2018-10-03T06:42:43.000Z</time>
      </trkpt>
      <trkpt lat="42.371855" lon="-7.86018833">
        <ele>310.0</ele>
        <time>2018-10-03T06:42:44.000Z</time>
      </trkpt>
      <trkpt lat="42.37187" lon="-7.86018667">
        <ele>310.0</ele>
        <time>2018-10-03T06:42:45.000Z</time>
      </trkpt>
      <trkpt lat="42.37188333" lon="-7.860185">
        <ele>310.0</ele>
        <time>2018-10-03T06:42:46.000Z</time>
      </trkpt>
      <trkpt lat="42.37189667" lon="-7.860185">
        <ele>310.0</ele>
        <time>2018-10-03T06:42:47.000Z</time>
      </trkpt>
      <trkpt lat="42.37190833" lon="-7.86018333">
        <ele>311.0</ele>
        <time>2018-10-03T06:42:48.000Z</time>
      </trkpt>
      <trkpt lat="42.37192167" lon="-7.860185">
        <ele>311.0</ele>
        <time>2018-10-03T06:42:49.000Z</time>
      </trkpt>
      <trkpt lat="42.371935" lon="-7.86018667">
        <ele>311.0</ele>
        <time>2018-10-03T06:42:50.000Z</time>
      </trkpt>
      <trkpt lat="42.37195" lon="-7.86018833">
        <ele>311.0</ele>
        <time>2018-10-03T06:42:51.000Z</time>
      </trkpt>
      <trkpt lat="42.37196333" lon="-7.86018833">
        <ele>311.0</ele>
        <time>2018-10-03T06:42:52.000Z</time>
      </trkpt>
      <trkpt lat="42.37197833" lon="-7.86019">
        <ele>311.0</ele>
        <time>2018-10-03T06:42:53.000Z</time>
      </trkpt>
      <trkpt lat="42.37199167" lon="-7.86019">
        <ele>312.0</ele>
        <time>2018-10-03T06:42:54.000Z</time>
      </trkpt>
      <trkpt lat="42.37200333" lon="-7.86019167">
        <ele>312.0</ele>
        <time>2018-10-03T06:42:55.000Z</time>
      </trkpt>
      <trkpt lat="42.37201667" lon="-7.860195">
        <ele>312.0</ele>
        <time>2018-10-03T06:42:56.000Z</time>
      </trkpt>
      <trkpt lat="42.37203" lon="-7.8602">
        <ele>312.0</ele>
        <time>2018-10-03T06:42:57.000Z</time>
      </trkpt>
      <trkpt lat="42.37204333" lon="-7.860205">
        <ele>312.0</ele>
        <time>2018-10-03T06:42:58.000Z</time>
      </trkpt>
      <trkpt lat="42.37205167" lon="-7.86021">
        <ele>312.0</ele>
        <time>2018-10-03T06:42:59.000Z</time>
      </trkpt>
      <trkpt lat="42.37206333" lon="-7.86021667">
        <ele>312.0</ele>
        <time>2018-10-03T06:43:00.000Z</time>
      </trkpt>
      <trkpt lat="42.372075" lon="-7.860225">
        <ele>312.0</ele>
        <time>2018-10-03T06:43:01.000Z</time>
      </trkpt>
      <trkpt lat="42.37208667" lon="-7.86023">
        <ele>312.0</ele>
        <time>2018-10-03T06:43:02.000Z</time>
      </trkpt>
      <trkpt lat="42.3721" lon="-7.86023833">
        <ele>312.0</ele>
        <time>2018-10-03T06:43:03.000Z</time>
      </trkpt>
      <trkpt lat="42.37211333" lon="-7.86024333">
        <ele>312.0</ele>
        <time>2018-10-03T06:43:04.000Z</time>
      </trkpt>
      <trkpt lat="42.372125" lon="-7.86025">
        <ele>312.0</ele>
        <time>2018-10-03T06:43:05.000Z</time>
      </trkpt>
      <trkpt lat="42.37213833" lon="-7.860255">
        <ele>313.0</ele>
        <time>2018-10-03T06:43:06.000Z</time>
      </trkpt>
      <trkpt lat="42.37215167" lon="-7.86026333">
        <ele>313.0</ele>
        <time>2018-10-03T06:43:07.000Z</time>
      </trkpt>
      <trkpt lat="42.37216667" lon="-7.86027">
        <ele>313.0</ele>
        <time>2018-10-03T06:43:08.000Z</time>
      </trkpt>
      <trkpt lat="42.37218" lon="-7.86027833">
        <ele>313.0</ele>
        <time>2018-10-03T06:43:09.000Z</time>
      </trkpt>
      <trkpt lat="42.37219333" lon="-7.860285">
        <ele>313.0</ele>
        <time>2018-10-03T06:43:10.000Z</time>
      </trkpt>
      <trkpt lat="42.37220333" lon="-7.860295">
        <ele>313.0</ele>
        <time>2018-10-03T06:43:11.000Z</time>
      </trkpt>
      <trkpt lat="42.37221333" lon="-7.86030333">
        <ele>313.0</ele>
        <time>2018-10-03T06:43:12.000Z</time>
      </trkpt>
      <trkpt lat="42.37222833" lon="-7.86031167">
        <ele>313.0</ele>
        <time>2018-10-03T06:43:13.000Z</time>
      </trkpt>
      <trkpt lat="42.37224" lon="-7.86031833">
        <ele>314.0</ele>
        <time>2018-10-03T06:43:14.000Z</time>
      </trkpt>
      <trkpt lat="42.37225333" lon="-7.860325">
        <ele>314.0</ele>
        <time>2018-10-03T06:43:15.000Z</time>
      </trkpt>
      <trkpt lat="42.372265" lon="-7.86033333">
        <ele>314.0</ele>
        <time>2018-10-03T06:43:16.000Z</time>
      </trkpt>
      <trkpt lat="42.37228" lon="-7.86034333">
        <ele>314.0</ele>
        <time>2018-10-03T06:43:17.000Z</time>
      </trkpt>
      <trkpt lat="42.37229333" lon="-7.86035167">
        <ele>314.0</ele>
        <time>2018-10-03T06:43:18.000Z</time>
      </trkpt>
      <trkpt lat="42.37230667" lon="-7.86036167">
        <ele>314.0</ele>
        <time>2018-10-03T06:43:19.000Z</time>
      </trkpt>
      <trkpt lat="42.37231667" lon="-7.86037167">
        <ele>314.0</ele>
        <time>2018-10-03T06:43:20.000Z</time>
      </trkpt>
      <trkpt lat="42.37233" lon="-7.86038167">
        <ele>314.0</ele>
        <time>2018-10-03T06:43:21.000Z</time>
      </trkpt>
      <trkpt lat="42.37234167" lon="-7.86039167">
        <ele>314.0</ele>
        <time>2018-10-03T06:43:22.000Z</time>
      </trkpt>
      <trkpt lat="42.37235333" lon="-7.86040333">
        <ele>314.0</ele>
        <time>2018-10-03T06:43:23.000Z</time>
      </trkpt>
      <trkpt lat="42.37236333" lon="-7.86041333">
        <ele>314.0</ele>
        <time>2018-10-03T06:43:24.000Z</time>
      </trkpt>
      <trkpt lat="42.37237333" lon="-7.86042167">
        <ele>314.0</ele>
        <time>2018-10-03T06:43:25.000Z</time>
      </trkpt>
      <trkpt lat="42.372385" lon="-7.86043167">
        <ele>314.0</ele>
        <time>2018-10-03T06:43:26.000Z</time>
      </trkpt>
      <trkpt lat="42.37239667" lon="-7.86044">
        <ele>315.0</ele>
        <time>2018-10-03T06:43:27.000Z</time>
      </trkpt>
      <trkpt lat="42.37240833" lon="-7.86044833">
        <ele>315.0</ele>
        <time>2018-10-03T06:43:28.000Z</time>
      </trkpt>
      <trkpt lat="42.37242" lon="-7.86045667">
        <ele>315.0</ele>
        <time>2018-10-03T06:43:29.000Z</time>
      </trkpt>
      <trkpt lat="42.37243167" lon="-7.860465">
        <ele>315.0</ele>
        <time>2018-10-03T06:43:30.000Z</time>
      </trkpt>
      <trkpt lat="42.372445" lon="-7.86047167">
        <ele>315.0</ele>
        <time>2018-10-03T06:43:31.000Z</time>
      </trkpt>
      <trkpt lat="42.37245833" lon="-7.86048">
        <ele>315.0</ele>
        <time>2018-10-03T06:43:32.000Z</time>
      </trkpt>
      <trkpt lat="42.37247167" lon="-7.860485">
        <ele>315.0</ele>
        <time>2018-10-03T06:43:33.000Z</time>
      </trkpt>
      <trkpt lat="42.372485" lon="-7.86049333">
        <ele>316.0</ele>
        <time>2018-10-03T06:43:34.000Z</time>
      </trkpt>
      <trkpt lat="42.37249667" lon="-7.86050333">
        <ele>316.0</ele>
        <time>2018-10-03T06:43:35.000Z</time>
      </trkpt>
      <trkpt lat="42.37250833" lon="-7.86051167">
        <ele>316.0</ele>
        <time>2018-10-03T06:43:36.000Z</time>
      </trkpt>
      <trkpt lat="42.37252333" lon="-7.86051667">
        <ele>316.0</ele>
        <time>2018-10-03T06:43:37.000Z</time>
      </trkpt>
      <trkpt lat="42.37253833" lon="-7.86052">
        <ele>316.0</ele>
        <time>2018-10-03T06:43:38.000Z</time>
      </trkpt>
      <trkpt lat="42.37255167" lon="-7.860525">
        <ele>317.0</ele>
        <time>2018-10-03T06:43:39.000Z</time>
      </trkpt>
      <trkpt lat="42.372565" lon="-7.86052833">
        <ele>317.0</ele>
        <time>2018-10-03T06:43:40.000Z</time>
      </trkpt>
      <trkpt lat="42.37257833" lon="-7.86053333">
        <ele>317.0</ele>
        <time>2018-10-03T06:43:41.000Z</time>
      </trkpt>
      <trkpt lat="42.372595" lon="-7.86053833">
        <ele>317.0</ele>
        <time>2018-10-03T06:43:42.000Z</time>
      </trkpt>
      <trkpt lat="42.37261" lon="-7.86054167">
        <ele>317.0</ele>
        <time>2018-10-03T06:43:43.000Z</time>
      </trkpt>
      <trkpt lat="42.372625" lon="-7.860545">
        <ele>317.0</ele>
        <time>2018-10-03T06:43:44.000Z</time>
      </trkpt>
      <trkpt lat="42.37264" lon="-7.86055">
        <ele>317.0</ele>
        <time>2018-10-03T06:43:45.000Z</time>
      </trkpt>
      <trkpt lat="42.37265833" lon="-7.860555">
        <ele>317.0</ele>
        <time>2018-10-03T06:43:46.000Z</time>
      </trkpt>
      <trkpt lat="42.37267333" lon="-7.86055833">
        <ele>318.0</ele>
        <time>2018-10-03T06:43:47.000Z</time>
      </trkpt>
      <trkpt lat="42.37268667" lon="-7.86056167">
        <ele>318.0</ele>
        <time>2018-10-03T06:43:48.000Z</time>
      </trkpt>
      <trkpt lat="42.3727" lon="-7.86057">
        <ele>318.0</ele>
        <time>2018-10-03T06:43:49.000Z</time>
      </trkpt>
      <trkpt lat="42.37271333" lon="-7.860575">
        <ele>318.0</ele>
        <time>2018-10-03T06:43:50.000Z</time>
      </trkpt>
      <trkpt lat="42.37273" lon="-7.86058">
        <ele>318.0</ele>
        <time>2018-10-03T06:43:51.000Z</time>
      </trkpt>
      <trkpt lat="42.372745" lon="-7.86058333">
        <ele>318.0</ele>
        <time>2018-10-03T06:43:52.000Z</time>
      </trkpt>
      <trkpt lat="42.37276" lon="-7.86059">
        <ele>318.0</ele>
        <time>2018-10-03T06:43:53.000Z</time>
      </trkpt>
      <trkpt lat="42.37277333" lon="-7.86059667">
        <ele>318.0</ele>
        <time>2018-10-03T06:43:54.000Z</time>
      </trkpt>
      <trkpt lat="42.37278833" lon="-7.86060167">
        <ele>319.0</ele>
        <time>2018-10-03T06:43:55.000Z</time>
      </trkpt>
      <trkpt lat="42.372805" lon="-7.86060667">
        <ele>319.0</ele>
        <time>2018-10-03T06:43:56.000Z</time>
      </trkpt>
      <trkpt lat="42.37281833" lon="-7.86061333">
        <ele>319.0</ele>
        <time>2018-10-03T06:43:57.000Z</time>
      </trkpt>
      <trkpt lat="42.37283333" lon="-7.86062">
        <ele>319.0</ele>
        <time>2018-10-03T06:43:58.000Z</time>
      </trkpt>
      <trkpt lat="42.37284667" lon="-7.86062833">
        <ele>319.0</ele>
        <time>2018-10-03T06:43:59.000Z</time>
      </trkpt>
      <trkpt lat="42.37286167" lon="-7.86063833">
        <ele>320.0</ele>
        <time>2018-10-03T06:44:00.000Z</time>
      </trkpt>
      <trkpt lat="42.37287667" lon="-7.860645">
        <ele>320.0</ele>
        <time>2018-10-03T06:44:01.000Z</time>
      </trkpt>
      <trkpt lat="42.37288667" lon="-7.86065333">
        <ele>320.0</ele>
        <time>2018-10-03T06:44:02.000Z</time>
      </trkpt>
      <trkpt lat="42.3729" lon="-7.86065833">
        <ele>320.0</ele>
        <time>2018-10-03T06:44:03.000Z</time>
      </trkpt>
      <trkpt lat="42.37291" lon="-7.86066167">
        <ele>320.0</ele>
        <time>2018-10-03T06:44:04.000Z</time>
      </trkpt>
      <trkpt lat="42.37292167" lon="-7.860665">
        <ele>320.0</ele>
        <time>2018-10-03T06:44:05.000Z</time>
      </trkpt>
      <trkpt lat="42.37293333" lon="-7.86067167">
        <ele>320.0</ele>
        <time>2018-10-03T06:44:06.000Z</time>
      </trkpt>
      <trkpt lat="42.37294833" lon="-7.86067833">
        <ele>321.0</ele>
        <time>2018-10-03T06:44:07.000Z</time>
      </trkpt>
      <trkpt lat="42.37296167" lon="-7.860685">
        <ele>321.0</ele>
        <time>2018-10-03T06:44:08.000Z</time>
      </trkpt>
      <trkpt lat="42.37297833" lon="-7.86069167">
        <ele>321.0</ele>
        <time>2018-10-03T06:44:09.000Z</time>
      </trkpt>
      <trkpt lat="42.37299333" lon="-7.86069833">
        <ele>321.0</ele>
        <time>2018-10-03T06:44:10.000Z</time>
      </trkpt>
      <trkpt lat="42.37300667" lon="-7.860705">
        <ele>321.0</ele>
        <time>2018-10-03T06:44:11.000Z</time>
      </trkpt>
      <trkpt lat="42.37302167" lon="-7.860715">
        <ele>321.0</ele>
        <time>2018-10-03T06:44:12.000Z</time>
      </trkpt>
      <trkpt lat="42.37303333" lon="-7.860725">
        <ele>321.0</ele>
        <time>2018-10-03T06:44:13.000Z</time>
      </trkpt>
      <trkpt lat="42.373045" lon="-7.86073333">
        <ele>321.0</ele>
        <time>2018-10-03T06:44:14.000Z</time>
      </trkpt>
      <trkpt lat="42.37306" lon="-7.86074167">
        <ele>322.0</ele>
        <time>2018-10-03T06:44:15.000Z</time>
      </trkpt>
      <trkpt lat="42.373075" lon="-7.86074833">
        <ele>322.0</ele>
        <time>2018-10-03T06:44:16.000Z</time>
      </trkpt>
      <trkpt lat="42.37309" lon="-7.860755">
        <ele>322.0</ele>
        <time>2018-10-03T06:44:17.000Z</time>
      </trkpt>
      <trkpt lat="42.373105" lon="-7.86076">
        <ele>322.0</ele>
        <time>2018-10-03T06:44:18.000Z</time>
      </trkpt>
      <trkpt lat="42.37312" lon="-7.860765">
        <ele>322.0</ele>
        <time>2018-10-03T06:44:19.000Z</time>
      </trkpt>
      <trkpt lat="42.37313333" lon="-7.86077">
        <ele>322.0</ele>
        <time>2018-10-03T06:44:20.000Z</time>
      </trkpt>
      <trkpt lat="42.37314667" lon="-7.86077333">
        <ele>322.0</ele>
        <time>2018-10-03T06:44:21.000Z</time>
      </trkpt>
      <trkpt lat="42.37315833" lon="-7.86077833">
        <ele>322.0</ele>
        <time>2018-10-03T06:44:22.000Z</time>
      </trkpt>
      <trkpt lat="42.37317167" lon="-7.86078167">
        <ele>322.0</ele>
        <time>2018-10-03T06:44:23.000Z</time>
      </trkpt>
      <trkpt lat="42.37318333" lon="-7.86078667">
        <ele>322.0</ele>
        <time>2018-10-03T06:44:24.000Z</time>
      </trkpt>
      <trkpt lat="42.37319833" lon="-7.86079333">
        <ele>322.0</ele>
        <time>2018-10-03T06:44:25.000Z</time>
      </trkpt>
      <trkpt lat="42.37321" lon="-7.86079667">
        <ele>322.0</ele>
        <time>2018-10-03T06:44:26.000Z</time>
      </trkpt>
      <trkpt lat="42.37322167" lon="-7.86080333">
        <ele>322.0</ele>
        <time>2018-10-03T06:44:27.000Z</time>
      </trkpt>
      <trkpt lat="42.373235" lon="-7.86081">
        <ele>323.0</ele>
        <time>2018-10-03T06:44:28.000Z</time>
      </trkpt>
      <trkpt lat="42.37325" lon="-7.860815">
        <ele>323.0</ele>
        <time>2018-10-03T06:44:29.000Z</time>
      </trkpt>
      <trkpt lat="42.37326167" lon="-7.86081833">
        <ele>323.0</ele>
        <time>2018-10-03T06:44:30.000Z</time>
      </trkpt>
      <trkpt lat="42.37327333" lon="-7.86082167">
        <ele>323.0</ele>
        <time>2018-10-03T06:44:31.000Z</time>
      </trkpt>
      <trkpt lat="42.37328667" lon="-7.86082833">
        <ele>323.0</ele>
        <time>2018-10-03T06:44:32.000Z</time>
      </trkpt>
      <trkpt lat="42.37329833" lon="-7.860835">
        <ele>324.0</ele>
        <time>2018-10-03T06:44:33.000Z</time>
      </trkpt>
      <trkpt lat="42.37331" lon="-7.86084333">
        <ele>324.0</ele>
        <time>2018-10-03T06:44:34.000Z</time>
      </trkpt>
      <trkpt lat="42.37332167" lon="-7.86085333">
        <ele>324.0</ele>
        <time>2018-10-03T06:44:35.000Z</time>
      </trkpt>
      <trkpt lat="42.373335" lon="-7.86086167">
        <ele>324.0</ele>
        <time>2018-10-03T06:44:36.000Z</time>
      </trkpt>
      <trkpt lat="42.37335" lon="-7.86086667">
        <ele>325.0</ele>
        <time>2018-10-03T06:44:37.000Z</time>
      </trkpt>
      <trkpt lat="42.37336833" lon="-7.86086833">
        <ele>325.0</ele>
        <time>2018-10-03T06:44:38.000Z</time>
      </trkpt>
      <trkpt lat="42.37338333" lon="-7.86087167">
        <ele>325.0</ele>
        <time>2018-10-03T06:44:39.000Z</time>
      </trkpt>
      <trkpt lat="42.373395" lon="-7.86087667">
        <ele>326.0</ele>
        <time>2018-10-03T06:44:40.000Z</time>
      </trkpt>
      <trkpt lat="42.373405" lon="-7.86088167">
        <ele>326.0</ele>
        <time>2018-10-03T06:44:41.000Z</time>
      </trkpt>
      <trkpt lat="42.37341667" lon="-7.86088667">
        <ele>326.0</ele>
        <time>2018-10-03T06:44:42.000Z</time>
      </trkpt>
      <trkpt lat="42.37343" lon="-7.86089167">
        <ele>327.0</ele>
        <time>2018-10-03T06:44:43.000Z</time>
      </trkpt>
      <trkpt lat="42.37344167" lon="-7.86089833">
        <ele>327.0</ele>
        <time>2018-10-03T06:44:44.000Z</time>
      </trkpt>
      <trkpt lat="42.37345667" lon="-7.86090167">
        <ele>327.0</ele>
        <time>2018-10-03T06:44:45.000Z</time>
      </trkpt>
      <trkpt lat="42.37347" lon="-7.86090667">
        <ele>327.0</ele>
        <time>2018-10-03T06:44:46.000Z</time>
      </trkpt>
      <trkpt lat="42.373485" lon="-7.86091">
        <ele>327.0</ele>
        <time>2018-10-03T06:44:47.000Z</time>
      </trkpt>
      <trkpt lat="42.3735" lon="-7.860915">
        <ele>327.0</ele>
        <time>2018-10-03T06:44:48.000Z</time>
      </trkpt>
      <trkpt lat="42.373515" lon="-7.86091833">
        <ele>327.0</ele>
        <time>2018-10-03T06:44:49.000Z</time>
      </trkpt>
      <trkpt lat="42.37353" lon="-7.86092167">
        <ele>328.0</ele>
        <time>2018-10-03T06:44:50.000Z</time>
      </trkpt>
      <trkpt lat="42.37354667" lon="-7.860925">
        <ele>328.0</ele>
        <time>2018-10-03T06:44:51.000Z</time>
      </trkpt>
      <trkpt lat="42.37356167" lon="-7.86092833">
        <ele>328.0</ele>
        <time>2018-10-03T06:44:52.000Z</time>
      </trkpt>
      <trkpt lat="42.37357667" lon="-7.86093333">
        <ele>328.0</ele>
        <time>2018-10-03T06:44:53.000Z</time>
      </trkpt>
      <trkpt lat="42.37359167" lon="-7.86093667">
        <ele>328.0</ele>
        <time>2018-10-03T06:44:54.000Z</time>
      </trkpt>
      <trkpt lat="42.37360333" lon="-7.86093667">
        <ele>328.0</ele>
        <time>2018-10-03T06:44:55.000Z</time>
      </trkpt>
      <trkpt lat="42.37361667" lon="-7.86094">
        <ele>328.0</ele>
        <time>2018-10-03T06:44:56.000Z</time>
      </trkpt>
      <trkpt lat="42.37363167" lon="-7.86094167">
        <ele>328.0</ele>
        <time>2018-10-03T06:44:57.000Z</time>
      </trkpt>
      <trkpt lat="42.37364667" lon="-7.86094333">
        <ele>329.0</ele>
        <time>2018-10-03T06:44:58.000Z</time>
      </trkpt>
      <trkpt lat="42.37366333" lon="-7.86094667">
        <ele>329.0</ele>
        <time>2018-10-03T06:44:59.000Z</time>
      </trkpt>
      <trkpt lat="42.37368" lon="-7.86094833">
        <ele>329.0</ele>
        <time>2018-10-03T06:45:00.000Z</time>
      </trkpt>
      <trkpt lat="42.37369833" lon="-7.86095">
        <ele>329.0</ele>
        <time>2018-10-03T06:45:01.000Z</time>
      </trkpt>
      <trkpt lat="42.37371333" lon="-7.86095167">
        <ele>329.0</ele>
        <time>2018-10-03T06:45:02.000Z</time>
      </trkpt>
      <trkpt lat="42.37372833" lon="-7.86095167">
        <ele>330.0</ele>
        <time>2018-10-03T06:45:03.000Z</time>
      </trkpt>
      <trkpt lat="42.37374333" lon="-7.86095">
        <ele>330.0</ele>
        <time>2018-10-03T06:45:04.000Z</time>
      </trkpt>
      <trkpt lat="42.37375833" lon="-7.86094833">
        <ele>330.0</ele>
        <time>2018-10-03T06:45:05.000Z</time>
      </trkpt>
      <trkpt lat="42.37377333" lon="-7.86094667">
        <ele>330.0</ele>
        <time>2018-10-03T06:45:06.000Z</time>
      </trkpt>
      <trkpt lat="42.37378833" lon="-7.86094667">
        <ele>330.0</ele>
        <time>2018-10-03T06:45:07.000Z</time>
      </trkpt>
      <trkpt lat="42.37380167" lon="-7.86094667">
        <ele>330.0</ele>
        <time>2018-10-03T06:45:08.000Z</time>
      </trkpt>
      <trkpt lat="42.37381667" lon="-7.86094667">
        <ele>331.0</ele>
        <time>2018-10-03T06:45:09.000Z</time>
      </trkpt>
      <trkpt lat="42.37383" lon="-7.860945">
        <ele>331.0</ele>
        <time>2018-10-03T06:45:10.000Z</time>
      </trkpt>
      <trkpt lat="42.37384167" lon="-7.86094333">
        <ele>331.0</ele>
        <time>2018-10-03T06:45:11.000Z</time>
      </trkpt>
      <trkpt lat="42.37385667" lon="-7.860945">
        <ele>331.0</ele>
        <time>2018-10-03T06:45:12.000Z</time>
      </trkpt>
      <trkpt lat="42.37386833" lon="-7.86094667">
        <ele>331.0</ele>
        <time>2018-10-03T06:45:13.000Z</time>
      </trkpt>
      <trkpt lat="42.37388167" lon="-7.86094667">
        <ele>331.0</ele>
        <time>2018-10-03T06:45:14.000Z</time>
      </trkpt>
      <trkpt lat="42.37389167" lon="-7.86094667">
        <ele>331.0</ele>
        <time>2018-10-03T06:45:15.000Z</time>
      </trkpt>
      <trkpt lat="42.37390167" lon="-7.86094833">
        <ele>331.0</ele>
        <time>2018-10-03T06:45:16.000Z</time>
      </trkpt>
      <trkpt lat="42.37391667" lon="-7.86094833">
        <ele>331.0</ele>
        <time>2018-10-03T06:45:17.000Z</time>
      </trkpt>
      <trkpt lat="42.37393" lon="-7.86094667">
        <ele>332.0</ele>
        <time>2018-10-03T06:45:18.000Z</time>
      </trkpt>
      <trkpt lat="42.37394333" lon="-7.86094667">
        <ele>332.0</ele>
        <time>2018-10-03T06:45:19.000Z</time>
      </trkpt>
      <trkpt lat="42.37395667" lon="-7.860945">
        <ele>332.0</ele>
        <time>2018-10-03T06:45:20.000Z</time>
      </trkpt>
      <trkpt lat="42.37397" lon="-7.86094667">
        <ele>332.0</ele>
        <time>2018-10-03T06:45:21.000Z</time>
      </trkpt>
      <trkpt lat="42.37398167" lon="-7.86094833">
        <ele>333.0</ele>
        <time>2018-10-03T06:45:22.000Z</time>
      </trkpt>
      <trkpt lat="42.373995" lon="-7.86095">
        <ele>333.0</ele>
        <time>2018-10-03T06:45:23.000Z</time>
      </trkpt>
      <trkpt lat="42.37400833" lon="-7.86095167">
        <ele>333.0</ele>
        <time>2018-10-03T06:45:24.000Z</time>
      </trkpt>
      <trkpt lat="42.37402167" lon="-7.86095333">
        <ele>333.0</ele>
        <time>2018-10-03T06:45:25.000Z</time>
      </trkpt>
      <trkpt lat="42.374035" lon="-7.860955">
        <ele>333.0</ele>
        <time>2018-10-03T06:45:26.000Z</time>
      </trkpt>
      <trkpt lat="42.37404833" lon="-7.86095667">
        <ele>333.0</ele>
        <time>2018-10-03T06:45:27.000Z</time>
      </trkpt>
      <trkpt lat="42.37406167" lon="-7.86096">
        <ele>333.0</ele>
        <time>2018-10-03T06:45:28.000Z</time>
      </trkpt>
      <trkpt lat="42.374075" lon="-7.86096167">
        <ele>334.0</ele>
        <time>2018-10-03T06:45:29.000Z</time>
      </trkpt>
      <trkpt lat="42.37408667" lon="-7.860965">
        <ele>334.0</ele>
        <time>2018-10-03T06:45:30.000Z</time>
      </trkpt>
      <trkpt lat="42.37410167" lon="-7.86097">
        <ele>334.0</ele>
        <time>2018-10-03T06:45:31.000Z</time>
      </trkpt>
      <trkpt lat="42.374115" lon="-7.86097333">
        <ele>334.0</ele>
        <time>2018-10-03T06:45:32.000Z</time>
      </trkpt>
      <trkpt lat="42.37412833" lon="-7.860975">
        <ele>334.0</ele>
        <time>2018-10-03T06:45:33.000Z</time>
      </trkpt>
      <trkpt lat="42.37414167" lon="-7.86097833">
        <ele>334.0</ele>
        <time>2018-10-03T06:45:34.000Z</time>
      </trkpt>
      <trkpt lat="42.37415667" lon="-7.860985">
        <ele>334.0</ele>
        <time>2018-10-03T06:45:35.000Z</time>
      </trkpt>
      <trkpt lat="42.37416833" lon="-7.86099">
        <ele>334.0</ele>
        <time>2018-10-03T06:45:36.000Z</time>
      </trkpt>
      <trkpt lat="42.37418167" lon="-7.86099667">
        <ele>334.0</ele>
        <time>2018-10-03T06:45:37.000Z</time>
      </trkpt>
      <trkpt lat="42.37419667" lon="-7.86100333">
        <ele>334.0</ele>
        <time>2018-10-03T06:45:38.000Z</time>
      </trkpt>
      <trkpt lat="42.37421" lon="-7.86101167">
        <ele>334.0</ele>
        <time>2018-10-03T06:45:39.000Z</time>
      </trkpt>
      <trkpt lat="42.37422333" lon="-7.86101667">
        <ele>334.0</ele>
        <time>2018-10-03T06:45:40.000Z</time>
      </trkpt>
      <trkpt lat="42.37423333" lon="-7.86102333">
        <ele>334.0</ele>
        <time>2018-10-03T06:45:41.000Z</time>
      </trkpt>
      <trkpt lat="42.374245" lon="-7.86103167">
        <ele>334.0</ele>
        <time>2018-10-03T06:45:42.000Z</time>
      </trkpt>
      <trkpt lat="42.37425833" lon="-7.86104">
        <ele>334.0</ele>
        <time>2018-10-03T06:45:43.000Z</time>
      </trkpt>
      <trkpt lat="42.37427333" lon="-7.86104667">
        <ele>334.0</ele>
        <time>2018-10-03T06:45:44.000Z</time>
      </trkpt>
      <trkpt lat="42.37428833" lon="-7.86105333">
        <ele>334.0</ele>
        <time>2018-10-03T06:45:45.000Z</time>
      </trkpt>
      <trkpt lat="42.37430167" lon="-7.86106167">
        <ele>335.0</ele>
        <time>2018-10-03T06:45:46.000Z</time>
      </trkpt>
      <trkpt lat="42.37431667" lon="-7.86106833">
        <ele>335.0</ele>
        <time>2018-10-03T06:45:47.000Z</time>
      </trkpt>
      <trkpt lat="42.37433167" lon="-7.861075">
        <ele>335.0</ele>
        <time>2018-10-03T06:45:48.000Z</time>
      </trkpt>
      <trkpt lat="42.374345" lon="-7.86108167">
        <ele>335.0</ele>
        <time>2018-10-03T06:45:49.000Z</time>
      </trkpt>
      <trkpt lat="42.37435833" lon="-7.86109">
        <ele>335.0</ele>
        <time>2018-10-03T06:45:50.000Z</time>
      </trkpt>
      <trkpt lat="42.37437" lon="-7.86109667">
        <ele>336.0</ele>
        <time>2018-10-03T06:45:51.000Z</time>
      </trkpt>
      <trkpt lat="42.37438167" lon="-7.86110667">
        <ele>336.0</ele>
        <time>2018-10-03T06:45:52.000Z</time>
      </trkpt>
      <trkpt lat="42.37439333" lon="-7.86111667">
        <ele>336.0</ele>
        <time>2018-10-03T06:45:53.000Z</time>
      </trkpt>
      <trkpt lat="42.374405" lon="-7.861125">
        <ele>336.0</ele>
        <time>2018-10-03T06:45:54.000Z</time>
      </trkpt>
      <trkpt lat="42.37441667" lon="-7.86113">
        <ele>336.0</ele>
        <time>2018-10-03T06:45:55.000Z</time>
      </trkpt>
      <trkpt lat="42.37443" lon="-7.86114">
        <ele>336.0</ele>
        <time>2018-10-03T06:45:56.000Z</time>
      </trkpt>
      <trkpt lat="42.37444333" lon="-7.86114667">
        <ele>337.0</ele>
        <time>2018-10-03T06:45:57.000Z</time>
      </trkpt>
      <trkpt lat="42.37445667" lon="-7.86115333">
        <ele>337.0</ele>
        <time>2018-10-03T06:45:58.000Z</time>
      </trkpt>
      <trkpt lat="42.37447167" lon="-7.86116167">
        <ele>337.0</ele>
        <time>2018-10-03T06:45:59.000Z</time>
      </trkpt>
      <trkpt lat="42.37448333" lon="-7.86117">
        <ele>337.0</ele>
        <time>2018-10-03T06:46:00.000Z</time>
      </trkpt>
      <trkpt lat="42.37449333" lon="-7.86117833">
        <ele>338.0</ele>
        <time>2018-10-03T06:46:01.000Z</time>
      </trkpt>
      <trkpt lat="42.374505" lon="-7.86118833">
        <ele>338.0</ele>
        <time>2018-10-03T06:46:02.000Z</time>
      </trkpt>
      <trkpt lat="42.37451833" lon="-7.86119833">
        <ele>338.0</ele>
        <time>2018-10-03T06:46:03.000Z</time>
      </trkpt>
      <trkpt lat="42.37453" lon="-7.86120667">
        <ele>338.0</ele>
        <time>2018-10-03T06:46:04.000Z</time>
      </trkpt>
      <trkpt lat="42.37454" lon="-7.861215">
        <ele>338.0</ele>
        <time>2018-10-03T06:46:05.000Z</time>
      </trkpt>
      <trkpt lat="42.37454833" lon="-7.86122167">
        <ele>339.0</ele>
        <time>2018-10-03T06:46:06.000Z</time>
      </trkpt>
      <trkpt lat="42.37455333" lon="-7.86122667">
        <ele>339.0</ele>
        <time>2018-10-03T06:46:07.000Z</time>
      </trkpt>
      <trkpt lat="42.37455833" lon="-7.861235">
        <ele>339.0</ele>
        <time>2018-10-03T06:46:08.000Z</time>
      </trkpt>
      <trkpt lat="42.374565" lon="-7.86123833">
        <ele>339.0</ele>
        <time>2018-10-03T06:46:09.000Z</time>
      </trkpt>
      <trkpt lat="42.37457333" lon="-7.861245">
        <ele>340.0</ele>
        <time>2018-10-03T06:46:10.000Z</time>
      </trkpt>
      <trkpt lat="42.37458333" lon="-7.861255">
        <ele>340.0</ele>
        <time>2018-10-03T06:46:11.000Z</time>
      </trkpt>
      <trkpt lat="42.37459333" lon="-7.86126667">
        <ele>340.0</ele>
        <time>2018-10-03T06:46:12.000Z</time>
      </trkpt>
      <trkpt lat="42.37460167" lon="-7.86128">
        <ele>341.0</ele>
        <time>2018-10-03T06:46:13.000Z</time>
      </trkpt>
      <trkpt lat="42.37461167" lon="-7.86129167">
        <ele>341.0</ele>
        <time>2018-10-03T06:46:14.000Z</time>
      </trkpt>
      <trkpt lat="42.37462167" lon="-7.86130333">
        <ele>341.0</ele>
        <time>2018-10-03T06:46:15.000Z</time>
      </trkpt>
      <trkpt lat="42.37463167" lon="-7.861315">
        <ele>342.0</ele>
        <time>2018-10-03T06:46:16.000Z</time>
      </trkpt>
      <trkpt lat="42.37464167" lon="-7.86132833">
        <ele>342.0</ele>
        <time>2018-10-03T06:46:17.000Z</time>
      </trkpt>
      <trkpt lat="42.37465333" lon="-7.86134167">
        <ele>342.0</ele>
        <time>2018-10-03T06:46:18.000Z</time>
      </trkpt>
      <trkpt lat="42.374665" lon="-7.861355">
        <ele>342.0</ele>
        <time>2018-10-03T06:46:19.000Z</time>
      </trkpt>
      <trkpt lat="42.374675" lon="-7.86136833">
        <ele>343.0</ele>
        <time>2018-10-03T06:46:20.000Z</time>
      </trkpt>
      <trkpt lat="42.37468667" lon="-7.86138333">
        <ele>343.0</ele>
        <time>2018-10-03T06:46:21.000Z</time>
      </trkpt>
      <trkpt lat="42.37469667" lon="-7.86139667">
        <ele>343.0</ele>
        <time>2018-10-03T06:46:22.000Z</time>
      </trkpt>
      <trkpt lat="42.37470667" lon="-7.86141167">
        <ele>343.0</ele>
        <time>2018-10-03T06:46:23.000Z</time>
      </trkpt>
      <trkpt lat="42.374715" lon="-7.86142833">
        <ele>344.0</ele>
        <time>2018-10-03T06:46:24.000Z</time>
      </trkpt>
      <trkpt lat="42.374725" lon="-7.86144333">
        <ele>344.0</ele>
        <time>2018-10-03T06:46:25.000Z</time>
      </trkpt>
      <trkpt lat="42.37473667" lon="-7.86145667">
        <ele>344.0</ele>
        <time>2018-10-03T06:46:26.000Z</time>
      </trkpt>
      <trkpt lat="42.37474833" lon="-7.86147">
        <ele>344.0</ele>
        <time>2018-10-03T06:46:27.000Z</time>
      </trkpt>
      <trkpt lat="42.37476" lon="-7.861485">
        <ele>345.0</ele>
        <time>2018-10-03T06:46:28.000Z</time>
      </trkpt>
      <trkpt lat="42.37477167" lon="-7.86149833">
        <ele>345.0</ele>
        <time>2018-10-03T06:46:29.000Z</time>
      </trkpt>
      <trkpt lat="42.37478167" lon="-7.86151167">
        <ele>345.0</ele>
        <time>2018-10-03T06:46:30.000Z</time>
      </trkpt>
      <trkpt lat="42.37479333" lon="-7.861525">
        <ele>345.0</ele>
        <time>2018-10-03T06:46:31.000Z</time>
      </trkpt>
      <trkpt lat="42.374805" lon="-7.86153667">
        <ele>345.0</ele>
        <time>2018-10-03T06:46:32.000Z</time>
      </trkpt>
      <trkpt lat="42.37481667" lon="-7.86155">
        <ele>345.0</ele>
        <time>2018-10-03T06:46:33.000Z</time>
      </trkpt>
      <trkpt lat="42.37482833" lon="-7.86156333">
        <ele>345.0</ele>
        <time>2018-10-03T06:46:34.000Z</time>
      </trkpt>
      <trkpt lat="42.37483833" lon="-7.86157667">
        <ele>346.0</ele>
        <time>2018-10-03T06:46:35.000Z</time>
      </trkpt>
      <trkpt lat="42.37484833" lon="-7.86158833">
        <ele>346.0</ele>
        <time>2018-10-03T06:46:36.000Z</time>
      </trkpt>
      <trkpt lat="42.37485833" lon="-7.86160333">
        <ele>346.0</ele>
        <time>2018-10-03T06:46:37.000Z</time>
      </trkpt>
      <trkpt lat="42.37487" lon="-7.86161667">
        <ele>346.0</ele>
        <time>2018-10-03T06:46:38.000Z</time>
      </trkpt>
      <trkpt lat="42.37488" lon="-7.86163">
        <ele>346.0</ele>
        <time>2018-10-03T06:46:39.000Z</time>
      </trkpt>
      <trkpt lat="42.37489333" lon="-7.86164167">
        <ele>347.0</ele>
        <time>2018-10-03T06:46:40.000Z</time>
      </trkpt>
      <trkpt lat="42.37490333" lon="-7.86165333">
        <ele>347.0</ele>
        <time>2018-10-03T06:46:41.000Z</time>
      </trkpt>
      <trkpt lat="42.374915" lon="-7.86166333">
        <ele>347.0</ele>
        <time>2018-10-03T06:46:42.000Z</time>
      </trkpt>
      <trkpt lat="42.37492333" lon="-7.861675">
        <ele>347.0</ele>
        <time>2018-10-03T06:46:43.000Z</time>
      </trkpt>
      <trkpt lat="42.37493333" lon="-7.861685">
        <ele>347.0</ele>
        <time>2018-10-03T06:46:44.000Z</time>
      </trkpt>
      <trkpt lat="42.37494333" lon="-7.861695">
        <ele>347.0</ele>
        <time>2018-10-03T06:46:45.000Z</time>
      </trkpt>
      <trkpt lat="42.37495333" lon="-7.86170667">
        <ele>347.0</ele>
        <time>2018-10-03T06:46:46.000Z</time>
      </trkpt>
      <trkpt lat="42.374965" lon="-7.861715">
        <ele>347.0</ele>
        <time>2018-10-03T06:46:47.000Z</time>
      </trkpt>
      <trkpt lat="42.37497667" lon="-7.86172667">
        <ele>347.0</ele>
        <time>2018-10-03T06:46:48.000Z</time>
      </trkpt>
      <trkpt lat="42.374985" lon="-7.86173833">
        <ele>347.0</ele>
        <time>2018-10-03T06:46:49.000Z</time>
      </trkpt>
      <trkpt lat="42.37499667" lon="-7.86175">
        <ele>347.0</ele>
        <time>2018-10-03T06:46:50.000Z</time>
      </trkpt>
      <trkpt lat="42.37500833" lon="-7.86176">
        <ele>348.0</ele>
        <time>2018-10-03T06:46:51.000Z</time>
      </trkpt>
      <trkpt lat="42.37501833" lon="-7.86177167">
        <ele>348.0</ele>
        <time>2018-10-03T06:46:52.000Z</time>
      </trkpt>
      <trkpt lat="42.37503" lon="-7.86178">
        <ele>348.0</ele>
        <time>2018-10-03T06:46:53.000Z</time>
      </trkpt>
      <trkpt lat="42.37504" lon="-7.86179">
        <ele>348.0</ele>
        <time>2018-10-03T06:46:54.000Z</time>
      </trkpt>
      <trkpt lat="42.37505167" lon="-7.86180333">
        <ele>348.0</ele>
        <time>2018-10-03T06:46:55.000Z</time>
      </trkpt>
      <trkpt lat="42.37506333" lon="-7.861815">
        <ele>349.0</ele>
        <time>2018-10-03T06:46:56.000Z</time>
      </trkpt>
      <trkpt lat="42.37507667" lon="-7.86182833">
        <ele>349.0</ele>
        <time>2018-10-03T06:46:57.000Z</time>
      </trkpt>
      <trkpt lat="42.37509" lon="-7.86184167">
        <ele>349.0</ele>
        <time>2018-10-03T06:46:58.000Z</time>
      </trkpt>
      <trkpt lat="42.37510333" lon="-7.861855">
        <ele>349.0</ele>
        <time>2018-10-03T06:46:59.000Z</time>
      </trkpt>
      <trkpt lat="42.37511667" lon="-7.861865">
        <ele>350.0</ele>
        <time>2018-10-03T06:47:00.000Z</time>
      </trkpt>
      <trkpt lat="42.37513167" lon="-7.861875">
        <ele>350.0</ele>
        <time>2018-10-03T06:47:01.000Z</time>
      </trkpt>
      <trkpt lat="42.37514667" lon="-7.86188667">
        <ele>350.0</ele>
        <time>2018-10-03T06:47:02.000Z</time>
      </trkpt>
      <trkpt lat="42.37515667" lon="-7.8619">
        <ele>350.0</ele>
        <time>2018-10-03T06:47:03.000Z</time>
      </trkpt>
      <trkpt lat="42.37516667" lon="-7.861915">
        <ele>350.0</ele>
        <time>2018-10-03T06:47:04.000Z</time>
      </trkpt>
      <trkpt lat="42.37517667" lon="-7.86192667">
        <ele>350.0</ele>
        <time>2018-10-03T06:47:05.000Z</time>
      </trkpt>
      <trkpt lat="42.37518833" lon="-7.86193833">
        <ele>350.0</ele>
        <time>2018-10-03T06:47:06.000Z</time>
      </trkpt>
      <trkpt lat="42.37520333" lon="-7.86195">
        <ele>351.0</ele>
        <time>2018-10-03T06:47:07.000Z</time>
      </trkpt>
      <trkpt lat="42.37521667" lon="-7.86196">
        <ele>351.0</ele>
        <time>2018-10-03T06:47:08.000Z</time>
      </trkpt>
      <trkpt lat="42.37522667" lon="-7.86197">
        <ele>351.0</ele>
        <time>2018-10-03T06:47:09.000Z</time>
      </trkpt>
      <trkpt lat="42.37523833" lon="-7.86198167">
        <ele>351.0</ele>
        <time>2018-10-03T06:47:10.000Z</time>
      </trkpt>
      <trkpt lat="42.37525167" lon="-7.86199">
        <ele>351.0</ele>
        <time>2018-10-03T06:47:11.000Z</time>
      </trkpt>
      <trkpt lat="42.375265" lon="-7.86199833">
        <ele>351.0</ele>
        <time>2018-10-03T06:47:12.000Z</time>
      </trkpt>
      <trkpt lat="42.37527833" lon="-7.86200667">
        <ele>351.0</ele>
        <time>2018-10-03T06:47:13.000Z</time>
      </trkpt>
      <trkpt lat="42.37529167" lon="-7.862015">
        <ele>352.0</ele>
        <time>2018-10-03T06:47:14.000Z</time>
      </trkpt>
      <trkpt lat="42.375305" lon="-7.862025">
        <ele>352.0</ele>
        <time>2018-10-03T06:47:15.000Z</time>
      </trkpt>
      <trkpt lat="42.37531667" lon="-7.862035">
        <ele>352.0</ele>
        <time>2018-10-03T06:47:16.000Z</time>
      </trkpt>
      <trkpt lat="42.37532667" lon="-7.862045">
        <ele>352.0</ele>
        <time>2018-10-03T06:47:17.000Z</time>
      </trkpt>
      <trkpt lat="42.37533833" lon="-7.86205333">
        <ele>352.0</ele>
        <time>2018-10-03T06:47:18.000Z</time>
      </trkpt>
      <trkpt lat="42.37535" lon="-7.86206333">
        <ele>352.0</ele>
        <time>2018-10-03T06:47:19.000Z</time>
      </trkpt>
      <trkpt lat="42.375365" lon="-7.86207">
        <ele>352.0</ele>
        <time>2018-10-03T06:47:20.000Z</time>
      </trkpt>
      <trkpt lat="42.37537667" lon="-7.86207667">
        <ele>352.0</ele>
        <time>2018-10-03T06:47:21.000Z</time>
      </trkpt>
      <trkpt lat="42.37539" lon="-7.862085">
        <ele>353.0</ele>
        <time>2018-10-03T06:47:22.000Z</time>
      </trkpt>
      <trkpt lat="42.37540333" lon="-7.86209167">
        <ele>353.0</ele>
        <time>2018-10-03T06:47:23.000Z</time>
      </trkpt>
      <trkpt lat="42.37541667" lon="-7.86209833">
        <ele>353.0</ele>
        <time>2018-10-03T06:47:24.000Z</time>
      </trkpt>
      <trkpt lat="42.37543" lon="-7.86210333">
        <ele>353.0</ele>
        <time>2018-10-03T06:47:25.000Z</time>
      </trkpt>
      <trkpt lat="42.37544167" lon="-7.86210833">
        <ele>353.0</ele>
        <time>2018-10-03T06:47:26.000Z</time>
      </trkpt>
      <trkpt lat="42.375455" lon="-7.86211667">
        <ele>354.0</ele>
        <time>2018-10-03T06:47:27.000Z</time>
      </trkpt>
      <trkpt lat="42.37546833" lon="-7.86212333">
        <ele>354.0</ele>
        <time>2018-10-03T06:47:28.000Z</time>
      </trkpt>
      <trkpt lat="42.37548333" lon="-7.86212833">
        <ele>354.0</ele>
        <time>2018-10-03T06:47:29.000Z</time>
      </trkpt>
      <trkpt lat="42.37549667" lon="-7.86213167">
        <ele>354.0</ele>
        <time>2018-10-03T06:47:30.000Z</time>
      </trkpt>
      <trkpt lat="42.37551167" lon="-7.86213833">
        <ele>355.0</ele>
        <time>2018-10-03T06:47:31.000Z</time>
      </trkpt>
      <trkpt lat="42.37552833" lon="-7.86214333">
        <ele>355.0</ele>
        <time>2018-10-03T06:47:32.000Z</time>
      </trkpt>
      <trkpt lat="42.37554167" lon="-7.86214833">
        <ele>355.0</ele>
        <time>2018-10-03T06:47:33.000Z</time>
      </trkpt>
      <trkpt lat="42.37555667" lon="-7.86215333">
        <ele>355.0</ele>
        <time>2018-10-03T06:47:34.000Z</time>
      </trkpt>
      <trkpt lat="42.37557333" lon="-7.86215667">
        <ele>355.0</ele>
        <time>2018-10-03T06:47:35.000Z</time>
      </trkpt>
      <trkpt lat="42.37559" lon="-7.86216">
        <ele>356.0</ele>
        <time>2018-10-03T06:47:36.000Z</time>
      </trkpt>
      <trkpt lat="42.37560833" lon="-7.86216333">
        <ele>356.0</ele>
        <time>2018-10-03T06:47:37.000Z</time>
      </trkpt>
      <trkpt lat="42.37562667" lon="-7.86216333">
        <ele>356.0</ele>
        <time>2018-10-03T06:47:38.000Z</time>
      </trkpt>
      <trkpt lat="42.37564167" lon="-7.862165">
        <ele>356.0</ele>
        <time>2018-10-03T06:47:39.000Z</time>
      </trkpt>
      <trkpt lat="42.37565667" lon="-7.862165">
        <ele>356.0</ele>
        <time>2018-10-03T06:47:40.000Z</time>
      </trkpt>
      <trkpt lat="42.37567" lon="-7.86216667">
        <ele>356.0</ele>
        <time>2018-10-03T06:47:41.000Z</time>
      </trkpt>
      <trkpt lat="42.375685" lon="-7.86216833">
        <ele>356.0</ele>
        <time>2018-10-03T06:47:42.000Z</time>
      </trkpt>
      <trkpt lat="42.37569667" lon="-7.86217">
        <ele>356.0</ele>
        <time>2018-10-03T06:47:43.000Z</time>
      </trkpt>
      <trkpt lat="42.37571167" lon="-7.86217333">
        <ele>356.0</ele>
        <time>2018-10-03T06:47:44.000Z</time>
      </trkpt>
      <trkpt lat="42.37572667" lon="-7.86217333">
        <ele>356.0</ele>
        <time>2018-10-03T06:47:45.000Z</time>
      </trkpt>
      <trkpt lat="42.37574" lon="-7.862175">
        <ele>356.0</ele>
        <time>2018-10-03T06:47:46.000Z</time>
      </trkpt>
      <trkpt lat="42.37575167" lon="-7.86217667">
        <ele>356.0</ele>
        <time>2018-10-03T06:47:47.000Z</time>
      </trkpt>
      <trkpt lat="42.37576333" lon="-7.86217833">
        <ele>357.0</ele>
        <time>2018-10-03T06:47:48.000Z</time>
      </trkpt>
      <trkpt lat="42.37577667" lon="-7.86218167">
        <ele>357.0</ele>
        <time>2018-10-03T06:47:49.000Z</time>
      </trkpt>
      <trkpt lat="42.37579" lon="-7.86218333">
        <ele>357.0</ele>
        <time>2018-10-03T06:47:50.000Z</time>
      </trkpt>
      <trkpt lat="42.37580167" lon="-7.862185">
        <ele>357.0</ele>
        <time>2018-10-03T06:47:51.000Z</time>
      </trkpt>
      <trkpt lat="42.375815" lon="-7.86218667">
        <ele>357.0</ele>
        <time>2018-10-03T06:47:52.000Z</time>
      </trkpt>
      <trkpt lat="42.37583" lon="-7.86218833">
        <ele>357.0</ele>
        <time>2018-10-03T06:47:53.000Z</time>
      </trkpt>
      <trkpt lat="42.375845" lon="-7.86219167">
        <ele>357.0</ele>
        <time>2018-10-03T06:47:54.000Z</time>
      </trkpt>
      <trkpt lat="42.37585833" lon="-7.86219333">
        <ele>358.0</ele>
        <time>2018-10-03T06:47:55.000Z</time>
      </trkpt>
      <trkpt lat="42.37587167" lon="-7.862195">
        <ele>358.0</ele>
        <time>2018-10-03T06:47:56.000Z</time>
      </trkpt>
      <trkpt lat="42.37588667" lon="-7.86219667">
        <ele>358.0</ele>
        <time>2018-10-03T06:47:57.000Z</time>
      </trkpt>
      <trkpt lat="42.37589833" lon="-7.8622">
        <ele>358.0</ele>
        <time>2018-10-03T06:47:58.000Z</time>
      </trkpt>
      <trkpt lat="42.37590833" lon="-7.86220167">
        <ele>358.0</ele>
        <time>2018-10-03T06:47:59.000Z</time>
      </trkpt>
      <trkpt lat="42.37591833" lon="-7.86221">
        <ele>359.0</ele>
        <time>2018-10-03T06:48:00.000Z</time>
      </trkpt>
      <trkpt lat="42.37593" lon="-7.862215">
        <ele>359.0</ele>
        <time>2018-10-03T06:48:01.000Z</time>
      </trkpt>
      <trkpt lat="42.37594333" lon="-7.86221667">
        <ele>359.0</ele>
        <time>2018-10-03T06:48:02.000Z</time>
      </trkpt>
      <trkpt lat="42.37595833" lon="-7.86222167">
        <ele>359.0</ele>
        <time>2018-10-03T06:48:03.000Z</time>
      </trkpt>
      <trkpt lat="42.37597167" lon="-7.86222833">
        <ele>359.0</ele>
        <time>2018-10-03T06:48:04.000Z</time>
      </trkpt>
      <trkpt lat="42.37598667" lon="-7.86223333">
        <ele>359.0</ele>
        <time>2018-10-03T06:48:05.000Z</time>
      </trkpt>
      <trkpt lat="42.37600167" lon="-7.86223667">
        <ele>359.0</ele>
        <time>2018-10-03T06:48:06.000Z</time>
      </trkpt>
      <trkpt lat="42.37601333" lon="-7.86224167">
        <ele>359.0</ele>
        <time>2018-10-03T06:48:07.000Z</time>
      </trkpt>
      <trkpt lat="42.376025" lon="-7.86224833">
        <ele>360.0</ele>
        <time>2018-10-03T06:48:08.000Z</time>
      </trkpt>
      <trkpt lat="42.37603833" lon="-7.86225167">
        <ele>360.0</ele>
        <time>2018-10-03T06:48:09.000Z</time>
      </trkpt>
      <trkpt lat="42.37605333" lon="-7.86225833">
        <ele>360.0</ele>
        <time>2018-10-03T06:48:10.000Z</time>
      </trkpt>
      <trkpt lat="42.37607" lon="-7.86226167">
        <ele>360.0</ele>
        <time>2018-10-03T06:48:11.000Z</time>
      </trkpt>
      <trkpt lat="42.37608667" lon="-7.86226667">
        <ele>360.0</ele>
        <time>2018-10-03T06:48:12.000Z</time>
      </trkpt>
      <trkpt lat="42.37610167" lon="-7.86227">
        <ele>361.0</ele>
        <time>2018-10-03T06:48:13.000Z</time>
      </trkpt>
      <trkpt lat="42.376115" lon="-7.86227667">
        <ele>361.0</ele>
        <time>2018-10-03T06:48:14.000Z</time>
      </trkpt>
      <trkpt lat="42.37613167" lon="-7.86228167">
        <ele>361.0</ele>
        <time>2018-10-03T06:48:15.000Z</time>
      </trkpt>
      <trkpt lat="42.37614667" lon="-7.862285">
        <ele>361.0</ele>
        <time>2018-10-03T06:48:16.000Z</time>
      </trkpt>
      <trkpt lat="42.37616" lon="-7.86229">
        <ele>361.0</ele>
        <time>2018-10-03T06:48:17.000Z</time>
      </trkpt>
      <trkpt lat="42.376175" lon="-7.86229167">
        <ele>361.0</ele>
        <time>2018-10-03T06:48:18.000Z</time>
      </trkpt>
      <trkpt lat="42.37618833" lon="-7.862295">
        <ele>361.0</ele>
        <time>2018-10-03T06:48:19.000Z</time>
      </trkpt>
      <trkpt lat="42.376205" lon="-7.86229667">
        <ele>361.0</ele>
        <time>2018-10-03T06:48:20.000Z</time>
      </trkpt>
      <trkpt lat="42.37622" lon="-7.86230167">
        <ele>361.0</ele>
        <time>2018-10-03T06:48:21.000Z</time>
      </trkpt>
      <trkpt lat="42.376235" lon="-7.86230667">
        <ele>361.0</ele>
        <time>2018-10-03T06:48:22.000Z</time>
      </trkpt>
      <trkpt lat="42.37625" lon="-7.86231167">
        <ele>361.0</ele>
        <time>2018-10-03T06:48:23.000Z</time>
      </trkpt>
      <trkpt lat="42.376265" lon="-7.862315">
        <ele>362.0</ele>
        <time>2018-10-03T06:48:24.000Z</time>
      </trkpt>
      <trkpt lat="42.37627833" lon="-7.86231833">
        <ele>362.0</ele>
        <time>2018-10-03T06:48:25.000Z</time>
      </trkpt>
      <trkpt lat="42.37629167" lon="-7.86232667">
        <ele>362.0</ele>
        <time>2018-10-03T06:48:26.000Z</time>
      </trkpt>
      <trkpt lat="42.376305" lon="-7.86233167">
        <ele>362.0</ele>
        <time>2018-10-03T06:48:27.000Z</time>
      </trkpt>
      <trkpt lat="42.37631833" lon="-7.86233833">
        <ele>362.0</ele>
        <time>2018-10-03T06:48:28.000Z</time>
      </trkpt>
      <trkpt lat="42.37633" lon="-7.86234333">
        <ele>362.0</ele>
        <time>2018-10-03T06:48:29.000Z</time>
      </trkpt>
      <trkpt lat="42.37634333" lon="-7.86234833">
        <ele>362.0</ele>
        <time>2018-10-03T06:48:30.000Z</time>
      </trkpt>
      <trkpt lat="42.376355" lon="-7.862355">
        <ele>363.0</ele>
        <time>2018-10-03T06:48:31.000Z</time>
      </trkpt>
      <trkpt lat="42.37636833" lon="-7.86236167">
        <ele>363.0</ele>
        <time>2018-10-03T06:48:32.000Z</time>
      </trkpt>
      <trkpt lat="42.37638333" lon="-7.862365">
        <ele>363.0</ele>
        <time>2018-10-03T06:48:33.000Z</time>
      </trkpt>
      <trkpt lat="42.37639667" lon="-7.86237333">
        <ele>363.0</ele>
        <time>2018-10-03T06:48:34.000Z</time>
      </trkpt>
      <trkpt lat="42.37640833" lon="-7.86238333">
        <ele>363.0</ele>
        <time>2018-10-03T06:48:35.000Z</time>
      </trkpt>
      <trkpt lat="42.37641667" lon="-7.862395">
        <ele>363.0</ele>
        <time>2018-10-03T06:48:36.000Z</time>
      </trkpt>
      <trkpt lat="42.37643" lon="-7.862405">
        <ele>363.0</ele>
        <time>2018-10-03T06:48:37.000Z</time>
      </trkpt>
      <trkpt lat="42.37644167" lon="-7.86241333">
        <ele>363.0</ele>
        <time>2018-10-03T06:48:38.000Z</time>
      </trkpt>
      <trkpt lat="42.37645167" lon="-7.86242167">
        <ele>363.0</ele>
        <time>2018-10-03T06:48:39.000Z</time>
      </trkpt>
      <trkpt lat="42.37646333" lon="-7.86243333">
        <ele>364.0</ele>
        <time>2018-10-03T06:48:40.000Z</time>
      </trkpt>
      <trkpt lat="42.37647333" lon="-7.862445">
        <ele>364.0</ele>
        <time>2018-10-03T06:48:41.000Z</time>
      </trkpt>
      <trkpt lat="42.376485" lon="-7.86245333">
        <ele>364.0</ele>
        <time>2018-10-03T06:48:42.000Z</time>
      </trkpt>
      <trkpt lat="42.37649667" lon="-7.86246333">
        <ele>364.0</ele>
        <time>2018-10-03T06:48:43.000Z</time>
      </trkpt>
      <trkpt lat="42.37650833" lon="-7.86247167">
        <ele>364.0</ele>
        <time>2018-10-03T06:48:44.000Z</time>
      </trkpt>
      <trkpt lat="42.37652" lon="-7.86248167">
        <ele>364.0</ele>
        <time>2018-10-03T06:48:45.000Z</time>
      </trkpt>
      <trkpt lat="42.37653" lon="-7.86249">
        <ele>365.0</ele>
        <time>2018-10-03T06:48:46.000Z</time>
      </trkpt>
      <trkpt lat="42.37654167" lon="-7.86249833">
        <ele>365.0</ele>
        <time>2018-10-03T06:48:47.000Z</time>
      </trkpt>
      <trkpt lat="42.37655167" lon="-7.86250833">
        <ele>365.0</ele>
        <time>2018-10-03T06:48:48.000Z</time>
      </trkpt>
      <trkpt lat="42.37656167" lon="-7.86251667">
        <ele>365.0</ele>
        <time>2018-10-03T06:48:49.000Z</time>
      </trkpt>
      <trkpt lat="42.37657333" lon="-7.86252333">
        <ele>365.0</ele>
        <time>2018-10-03T06:48:50.000Z</time>
      </trkpt>
      <trkpt lat="42.37658333" lon="-7.86252667">
        <ele>365.0</ele>
        <time>2018-10-03T06:48:51.000Z</time>
      </trkpt>
      <trkpt lat="42.376595" lon="-7.86253333">
        <ele>365.0</ele>
        <time>2018-10-03T06:48:52.000Z</time>
      </trkpt>
      <trkpt lat="42.37660833" lon="-7.86253833">
        <ele>366.0</ele>
        <time>2018-10-03T06:48:53.000Z</time>
      </trkpt>
      <trkpt lat="42.37662333" lon="-7.862545">
        <ele>366.0</ele>
        <time>2018-10-03T06:48:54.000Z</time>
      </trkpt>
      <trkpt lat="42.37663667" lon="-7.86255167">
        <ele>366.0</ele>
        <time>2018-10-03T06:48:55.000Z</time>
      </trkpt>
      <trkpt lat="42.37665333" lon="-7.86255833">
        <ele>366.0</ele>
        <time>2018-10-03T06:48:56.000Z</time>
      </trkpt>
      <trkpt lat="42.37666667" lon="-7.862565">
        <ele>366.0</ele>
        <time>2018-10-03T06:48:57.000Z</time>
      </trkpt>
      <trkpt lat="42.37668167" lon="-7.86257167">
        <ele>366.0</ele>
        <time>2018-10-03T06:48:58.000Z</time>
      </trkpt>
      <trkpt lat="42.37669833" lon="-7.86257667">
        <ele>366.0</ele>
        <time>2018-10-03T06:48:59.000Z</time>
      </trkpt>
      <trkpt lat="42.37671167" lon="-7.86258">
        <ele>366.0</ele>
        <time>2018-10-03T06:49:00.000Z</time>
      </trkpt>
      <trkpt lat="42.376725" lon="-7.86258167">
        <ele>367.0</ele>
        <time>2018-10-03T06:49:01.000Z</time>
      </trkpt>
      <trkpt lat="42.37673333" lon="-7.86258833">
        <ele>367.0</ele>
        <time>2018-10-03T06:49:02.000Z</time>
      </trkpt>
      <trkpt lat="42.37674667" lon="-7.86259333">
        <ele>367.0</ele>
        <time>2018-10-03T06:49:03.000Z</time>
      </trkpt>
      <trkpt lat="42.37675833" lon="-7.86259833">
        <ele>367.0</ele>
        <time>2018-10-03T06:49:04.000Z</time>
      </trkpt>
      <trkpt lat="42.37677333" lon="-7.862605">
        <ele>367.0</ele>
        <time>2018-10-03T06:49:05.000Z</time>
      </trkpt>
      <trkpt lat="42.376785" lon="-7.86260833">
        <ele>367.0</ele>
        <time>2018-10-03T06:49:06.000Z</time>
      </trkpt>
      <trkpt lat="42.37679667" lon="-7.86261167">
        <ele>368.0</ele>
        <time>2018-10-03T06:49:07.000Z</time>
      </trkpt>
      <trkpt lat="42.37680833" lon="-7.862615">
        <ele>368.0</ele>
        <time>2018-10-03T06:49:08.000Z</time>
      </trkpt>
      <trkpt lat="42.37682" lon="-7.86261833">
        <ele>368.0</ele>
        <time>2018-10-03T06:49:09.000Z</time>
      </trkpt>
      <trkpt lat="42.37683333" lon="-7.86262333">
        <ele>368.0</ele>
        <time>2018-10-03T06:49:10.000Z</time>
      </trkpt>
      <trkpt lat="42.37684833" lon="-7.86262833">
        <ele>369.0</ele>
        <time>2018-10-03T06:49:11.000Z</time>
      </trkpt>
      <trkpt lat="42.37686333" lon="-7.86263333">
        <ele>369.0</ele>
        <time>2018-10-03T06:49:12.000Z</time>
      </trkpt>
      <trkpt lat="42.376875" lon="-7.86263833">
        <ele>369.0</ele>
        <time>2018-10-03T06:49:13.000Z</time>
      </trkpt>
      <trkpt lat="42.37688667" lon="-7.86264">
        <ele>369.0</ele>
        <time>2018-10-03T06:49:14.000Z</time>
      </trkpt>
      <trkpt lat="42.37689667" lon="-7.86264333">
        <ele>370.0</ele>
        <time>2018-10-03T06:49:15.000Z</time>
      </trkpt>
      <trkpt lat="42.37690667" lon="-7.86264833">
        <ele>370.0</ele>
        <time>2018-10-03T06:49:16.000Z</time>
      </trkpt>
      <trkpt lat="42.37691667" lon="-7.86265333">
        <ele>370.0</ele>
        <time>2018-10-03T06:49:17.000Z</time>
      </trkpt>
      <trkpt lat="42.37692833" lon="-7.86265667">
        <ele>370.0</ele>
        <time>2018-10-03T06:49:18.000Z</time>
      </trkpt>
      <trkpt lat="42.37693833" lon="-7.86266">
        <ele>370.0</ele>
        <time>2018-10-03T06:49:19.000Z</time>
      </trkpt>
      <trkpt lat="42.37694667" lon="-7.862665">
        <ele>371.0</ele>
        <time>2018-10-03T06:49:20.000Z</time>
      </trkpt>
      <trkpt lat="42.376955" lon="-7.86267">
        <ele>371.0</ele>
        <time>2018-10-03T06:49:21.000Z</time>
      </trkpt>
      <trkpt lat="42.376965" lon="-7.862675">
        <ele>371.0</ele>
        <time>2018-10-03T06:49:22.000Z</time>
      </trkpt>
      <trkpt lat="42.376975" lon="-7.86268">
        <ele>371.0</ele>
        <time>2018-10-03T06:49:23.000Z</time>
      </trkpt>
      <trkpt lat="42.37698667" lon="-7.86268667">
        <ele>372.0</ele>
        <time>2018-10-03T06:49:24.000Z</time>
      </trkpt>
      <trkpt lat="42.37699667" lon="-7.862695">
        <ele>372.0</ele>
        <time>2018-10-03T06:49:25.000Z</time>
      </trkpt>
      <trkpt lat="42.37700833" lon="-7.86270167">
        <ele>372.0</ele>
        <time>2018-10-03T06:49:26.000Z</time>
      </trkpt>
      <trkpt lat="42.37702" lon="-7.86270667">
        <ele>372.0</ele>
        <time>2018-10-03T06:49:27.000Z</time>
      </trkpt>
      <trkpt lat="42.37703333" lon="-7.862715">
        <ele>373.0</ele>
        <time>2018-10-03T06:49:28.000Z</time>
      </trkpt>
      <trkpt lat="42.37704667" lon="-7.86271833">
        <ele>373.0</ele>
        <time>2018-10-03T06:49:29.000Z</time>
      </trkpt>
      <trkpt lat="42.37705833" lon="-7.86272333">
        <ele>373.0</ele>
        <time>2018-10-03T06:49:30.000Z</time>
      </trkpt>
      <trkpt lat="42.37706833" lon="-7.86273167">
        <ele>373.0</ele>
        <time>2018-10-03T06:49:31.000Z</time>
      </trkpt>
      <trkpt lat="42.37707833" lon="-7.86273667">
        <ele>373.0</ele>
        <time>2018-10-03T06:49:32.000Z</time>
      </trkpt>
      <trkpt lat="42.37708833" lon="-7.86274">
        <ele>374.0</ele>
        <time>2018-10-03T06:49:33.000Z</time>
      </trkpt>
      <trkpt lat="42.3771" lon="-7.86274667">
        <ele>374.0</ele>
        <time>2018-10-03T06:49:34.000Z</time>
      </trkpt>
      <trkpt lat="42.37710833" lon="-7.86275333">
        <ele>374.0</ele>
        <time>2018-10-03T06:49:35.000Z</time>
      </trkpt>
      <trkpt lat="42.37711167" lon="-7.86275833">
        <ele>374.0</ele>
        <time>2018-10-03T06:49:36.000Z</time>
      </trkpt>
      <trkpt lat="42.37711833" lon="-7.86276167">
        <ele>374.0</ele>
        <time>2018-10-03T06:49:37.000Z</time>
      </trkpt>
      <trkpt lat="42.377125" lon="-7.862765">
        <ele>375.0</ele>
        <time>2018-10-03T06:49:38.000Z</time>
      </trkpt>
      <trkpt lat="42.37713333" lon="-7.862765">
        <ele>375.0</ele>
        <time>2018-10-03T06:49:39.000Z</time>
      </trkpt>
      <trkpt lat="42.377145" lon="-7.86276833">
        <ele>375.0</ele>
        <time>2018-10-03T06:49:40.000Z</time>
      </trkpt>
      <trkpt lat="42.377155" lon="-7.86277">
        <ele>375.0</ele>
        <time>2018-10-03T06:49:41.000Z</time>
      </trkpt>
      <trkpt lat="42.37716833" lon="-7.86277">
        <ele>375.0</ele>
        <time>2018-10-03T06:49:42.000Z</time>
      </trkpt>
      <trkpt lat="42.37718" lon="-7.86276833">
        <ele>375.0</ele>
        <time>2018-10-03T06:49:43.000Z</time>
      </trkpt>
      <trkpt lat="42.37719167" lon="-7.862765">
        <ele>375.0</ele>
        <time>2018-10-03T06:49:44.000Z</time>
      </trkpt>
      <trkpt lat="42.377205" lon="-7.86276167">
        <ele>376.0</ele>
        <time>2018-10-03T06:49:45.000Z</time>
      </trkpt>
      <trkpt lat="42.37721667" lon="-7.86275667">
        <ele>376.0</ele>
        <time>2018-10-03T06:49:46.000Z</time>
      </trkpt>
      <trkpt lat="42.37723" lon="-7.86275333">
        <ele>376.0</ele>
        <time>2018-10-03T06:49:47.000Z</time>
      </trkpt>
      <trkpt lat="42.37724333" lon="-7.86274833">
        <ele>376.0</ele>
        <time>2018-10-03T06:49:48.000Z</time>
      </trkpt>
      <trkpt lat="42.37725667" lon="-7.86274667">
        <ele>376.0</ele>
        <time>2018-10-03T06:49:49.000Z</time>
      </trkpt>
      <trkpt lat="42.37727167" lon="-7.86274333">
        <ele>376.0</ele>
        <time>2018-10-03T06:49:50.000Z</time>
      </trkpt>
      <trkpt lat="42.37728667" lon="-7.86274167">
        <ele>376.0</ele>
        <time>2018-10-03T06:49:51.000Z</time>
      </trkpt>
      <trkpt lat="42.37729667" lon="-7.86274167">
        <ele>377.0</ele>
        <time>2018-10-03T06:49:52.000Z</time>
      </trkpt>
      <trkpt lat="42.37730667" lon="-7.86273833">
        <ele>377.0</ele>
        <time>2018-10-03T06:49:53.000Z</time>
      </trkpt>
      <trkpt lat="42.37731667" lon="-7.86273">
        <ele>377.0</ele>
        <time>2018-10-03T06:49:54.000Z</time>
      </trkpt>
      <trkpt lat="42.37732667" lon="-7.86272">
        <ele>377.0</ele>
        <time>2018-10-03T06:49:55.000Z</time>
      </trkpt>
      <trkpt lat="42.37733333" lon="-7.86271167">
        <ele>377.0</ele>
        <time>2018-10-03T06:49:56.000Z</time>
      </trkpt>
      <trkpt lat="42.37734333" lon="-7.86270667">
        <ele>378.0</ele>
        <time>2018-10-03T06:49:57.000Z</time>
      </trkpt>
      <trkpt lat="42.377355" lon="-7.86270667">
        <ele>378.0</ele>
        <time>2018-10-03T06:49:58.000Z</time>
      </trkpt>
      <trkpt lat="42.37736667" lon="-7.862705">
        <ele>378.0</ele>
        <time>2018-10-03T06:49:59.000Z</time>
      </trkpt>
      <trkpt lat="42.37738167" lon="-7.86270333">
        <ele>378.0</ele>
        <time>2018-10-03T06:50:00.000Z</time>
      </trkpt>
      <trkpt lat="42.37739333" lon="-7.86270167">
        <ele>378.0</ele>
        <time>2018-10-03T06:50:01.000Z</time>
      </trkpt>
      <trkpt lat="42.37740333" lon="-7.8627">
        <ele>379.0</ele>
        <time>2018-10-03T06:50:02.000Z</time>
      </trkpt>
      <trkpt lat="42.377415" lon="-7.86269833">
        <ele>379.0</ele>
        <time>2018-10-03T06:50:03.000Z</time>
      </trkpt>
      <trkpt lat="42.37742833" lon="-7.86269833">
        <ele>379.0</ele>
        <time>2018-10-03T06:50:04.000Z</time>
      </trkpt>
      <trkpt lat="42.37744167" lon="-7.86269833">
        <ele>379.0</ele>
        <time>2018-10-03T06:50:05.000Z</time>
      </trkpt>
      <trkpt lat="42.37745333" lon="-7.86269667">
        <ele>380.0</ele>
        <time>2018-10-03T06:50:06.000Z</time>
      </trkpt>
      <trkpt lat="42.377465" lon="-7.862695">
        <ele>380.0</ele>
        <time>2018-10-03T06:50:07.000Z</time>
      </trkpt>
      <trkpt lat="42.37747833" lon="-7.86269167">
        <ele>380.0</ele>
        <time>2018-10-03T06:50:08.000Z</time>
      </trkpt>
      <trkpt lat="42.37749167" lon="-7.86269">
        <ele>381.0</ele>
        <time>2018-10-03T06:50:09.000Z</time>
      </trkpt>
      <trkpt lat="42.377505" lon="-7.86269">
        <ele>381.0</ele>
        <time>2018-10-03T06:50:10.000Z</time>
      </trkpt>
      <trkpt lat="42.37751667" lon="-7.86269">
        <ele>381.0</ele>
        <time>2018-10-03T06:50:11.000Z</time>
      </trkpt>
      <trkpt lat="42.37753" lon="-7.86269">
        <ele>382.0</ele>
        <time>2018-10-03T06:50:12.000Z</time>
      </trkpt>
      <trkpt lat="42.37754333" lon="-7.86269167">
        <ele>382.0</ele>
        <time>2018-10-03T06:50:13.000Z</time>
      </trkpt>
      <trkpt lat="42.377555" lon="-7.862695">
        <ele>382.0</ele>
        <time>2018-10-03T06:50:14.000Z</time>
      </trkpt>
      <trkpt lat="42.37756667" lon="-7.86269667">
        <ele>383.0</ele>
        <time>2018-10-03T06:50:15.000Z</time>
      </trkpt>
      <trkpt lat="42.37758" lon="-7.86269667">
        <ele>383.0</ele>
        <time>2018-10-03T06:50:16.000Z</time>
      </trkpt>
      <trkpt lat="42.37759333" lon="-7.86270167">
        <ele>383.0</ele>
        <time>2018-10-03T06:50:17.000Z</time>
      </trkpt>
      <trkpt lat="42.377605" lon="-7.86270667">
        <ele>383.0</ele>
        <time>2018-10-03T06:50:18.000Z</time>
      </trkpt>
      <trkpt lat="42.37761833" lon="-7.86271333">
        <ele>384.0</ele>
        <time>2018-10-03T06:50:19.000Z</time>
      </trkpt>
      <trkpt lat="42.37763167" lon="-7.86272">
        <ele>384.0</ele>
        <time>2018-10-03T06:50:20.000Z</time>
      </trkpt>
      <trkpt lat="42.377645" lon="-7.862725">
        <ele>384.0</ele>
        <time>2018-10-03T06:50:21.000Z</time>
      </trkpt>
      <trkpt lat="42.37766" lon="-7.86272833">
        <ele>384.0</ele>
        <time>2018-10-03T06:50:22.000Z</time>
      </trkpt>
      <trkpt lat="42.37767667" lon="-7.86273167">
        <ele>384.0</ele>
        <time>2018-10-03T06:50:23.000Z</time>
      </trkpt>
      <trkpt lat="42.37769333" lon="-7.862735">
        <ele>385.0</ele>
        <time>2018-10-03T06:50:24.000Z</time>
      </trkpt>
      <trkpt lat="42.37770667" lon="-7.86274">
        <ele>385.0</ele>
        <time>2018-10-03T06:50:25.000Z</time>
      </trkpt>
      <trkpt lat="42.37772" lon="-7.86274667">
        <ele>385.0</ele>
        <time>2018-10-03T06:50:26.000Z</time>
      </trkpt>
      <trkpt lat="42.377735" lon="-7.86275667">
        <ele>385.0</ele>
        <time>2018-10-03T06:50:27.000Z</time>
      </trkpt>
      <trkpt lat="42.37774833" lon="-7.86276333">
        <ele>385.0</ele>
        <time>2018-10-03T06:50:28.000Z</time>
      </trkpt>
      <trkpt lat="42.37776167" lon="-7.86277333">
        <ele>385.0</ele>
        <time>2018-10-03T06:50:29.000Z</time>
      </trkpt>
      <trkpt lat="42.37777333" lon="-7.86278333">
        <ele>385.0</ele>
        <time>2018-10-03T06:50:30.000Z</time>
      </trkpt>
      <trkpt lat="42.377785" lon="-7.86279167">
        <ele>385.0</ele>
        <time>2018-10-03T06:50:31.000Z</time>
      </trkpt>
      <trkpt lat="42.37779833" lon="-7.86280167">
        <ele>385.0</ele>
        <time>2018-10-03T06:50:32.000Z</time>
      </trkpt>
      <trkpt lat="42.37781" lon="-7.86280833">
        <ele>386.0</ele>
        <time>2018-10-03T06:50:33.000Z</time>
      </trkpt>
      <trkpt lat="42.37782167" lon="-7.86281667">
        <ele>386.0</ele>
        <time>2018-10-03T06:50:34.000Z</time>
      </trkpt>
      <trkpt lat="42.377835" lon="-7.862825">
        <ele>386.0</ele>
        <time>2018-10-03T06:50:35.000Z</time>
      </trkpt>
      <trkpt lat="42.37784833" lon="-7.86283333">
        <ele>386.0</ele>
        <time>2018-10-03T06:50:36.000Z</time>
      </trkpt>
      <trkpt lat="42.37786167" lon="-7.86284167">
        <ele>387.0</ele>
        <time>2018-10-03T06:50:37.000Z</time>
      </trkpt>
      <trkpt lat="42.37787333" lon="-7.86285">
        <ele>387.0</ele>
        <time>2018-10-03T06:50:38.000Z</time>
      </trkpt>
      <trkpt lat="42.37788333" lon="-7.86286">
        <ele>387.0</ele>
        <time>2018-10-03T06:50:39.000Z</time>
      </trkpt>
      <trkpt lat="42.37789667" lon="-7.86286833">
        <ele>387.0</ele>
        <time>2018-10-03T06:50:40.000Z</time>
      </trkpt>
      <trkpt lat="42.37790667" lon="-7.86287833">
        <ele>387.0</ele>
        <time>2018-10-03T06:50:41.000Z</time>
      </trkpt>
      <trkpt lat="42.37791667" lon="-7.86288833">
        <ele>387.0</ele>
        <time>2018-10-03T06:50:42.000Z</time>
      </trkpt>
      <trkpt lat="42.37792833" lon="-7.86289833">
        <ele>387.0</ele>
        <time>2018-10-03T06:50:43.000Z</time>
      </trkpt>
      <trkpt lat="42.37793833" lon="-7.86290833">
        <ele>387.0</ele>
        <time>2018-10-03T06:50:44.000Z</time>
      </trkpt>
      <trkpt lat="42.37794667" lon="-7.86291833">
        <ele>387.0</ele>
        <time>2018-10-03T06:50:45.000Z</time>
      </trkpt>
      <trkpt lat="42.37795833" lon="-7.86292667">
        <ele>387.0</ele>
        <time>2018-10-03T06:50:46.000Z</time>
      </trkpt>
      <trkpt lat="42.37797167" lon="-7.86293667">
        <ele>387.0</ele>
        <time>2018-10-03T06:50:47.000Z</time>
      </trkpt>
      <trkpt lat="42.37798333" lon="-7.86294667">
        <ele>387.0</ele>
        <time>2018-10-03T06:50:48.000Z</time>
      </trkpt>
      <trkpt lat="42.377995" lon="-7.86295833">
        <ele>387.0</ele>
        <time>2018-10-03T06:50:49.000Z</time>
      </trkpt>
      <trkpt lat="42.378005" lon="-7.86297167">
        <ele>387.0</ele>
        <time>2018-10-03T06:50:50.000Z</time>
      </trkpt>
      <trkpt lat="42.37801667" lon="-7.86298167">
        <ele>387.0</ele>
        <time>2018-10-03T06:50:51.000Z</time>
      </trkpt>
      <trkpt lat="42.37802667" lon="-7.86299167">
        <ele>387.0</ele>
        <time>2018-10-03T06:50:52.000Z</time>
      </trkpt>
      <trkpt lat="42.378035" lon="-7.86300333">
        <ele>387.0</ele>
        <time>2018-10-03T06:50:53.000Z</time>
      </trkpt>
      <trkpt lat="42.37804333" lon="-7.863015">
        <ele>388.0</ele>
        <time>2018-10-03T06:50:54.000Z</time>
      </trkpt>
      <trkpt lat="42.37805" lon="-7.863025">
        <ele>388.0</ele>
        <time>2018-10-03T06:50:55.000Z</time>
      </trkpt>
      <trkpt lat="42.37805833" lon="-7.863035">
        <ele>388.0</ele>
        <time>2018-10-03T06:50:56.000Z</time>
      </trkpt>
      <trkpt lat="42.37806833" lon="-7.86304333">
        <ele>388.0</ele>
        <time>2018-10-03T06:50:57.000Z</time>
      </trkpt>
      <trkpt lat="42.37808" lon="-7.86305">
        <ele>388.0</ele>
        <time>2018-10-03T06:50:58.000Z</time>
      </trkpt>
      <trkpt lat="42.37809167" lon="-7.86305667">
        <ele>388.0</ele>
        <time>2018-10-03T06:50:59.000Z</time>
      </trkpt>
      <trkpt lat="42.378105" lon="-7.863065">
        <ele>388.0</ele>
        <time>2018-10-03T06:51:00.000Z</time>
      </trkpt>
      <trkpt lat="42.37811833" lon="-7.86307333">
        <ele>388.0</ele>
        <time>2018-10-03T06:51:01.000Z</time>
      </trkpt>
      <trkpt lat="42.37813333" lon="-7.86308">
        <ele>388.0</ele>
        <time>2018-10-03T06:51:02.000Z</time>
      </trkpt>
      <trkpt lat="42.37815167" lon="-7.863085">
        <ele>388.0</ele>
        <time>2018-10-03T06:51:03.000Z</time>
      </trkpt>
      <trkpt lat="42.37817" lon="-7.86309167">
        <ele>388.0</ele>
        <time>2018-10-03T06:51:04.000Z</time>
      </trkpt>
      <trkpt lat="42.37818833" lon="-7.86309833">
        <ele>388.0</ele>
        <time>2018-10-03T06:51:05.000Z</time>
      </trkpt>
      <trkpt lat="42.37820333" lon="-7.86310333">
        <ele>387.0</ele>
        <time>2018-10-03T06:51:06.000Z</time>
      </trkpt>
      <trkpt lat="42.37821667" lon="-7.86311">
        <ele>387.0</ele>
        <time>2018-10-03T06:51:07.000Z</time>
      </trkpt>
      <trkpt lat="42.37823167" lon="-7.86311667">
        <ele>387.0</ele>
        <time>2018-10-03T06:51:08.000Z</time>
      </trkpt>
      <trkpt lat="42.378245" lon="-7.863125">
        <ele>387.0</ele>
        <time>2018-10-03T06:51:09.000Z</time>
      </trkpt>
      <trkpt lat="42.37825833" lon="-7.86313167">
        <ele>387.0</ele>
        <time>2018-10-03T06:51:10.000Z</time>
      </trkpt>
      <trkpt lat="42.37827333" lon="-7.86314">
        <ele>386.0</ele>
        <time>2018-10-03T06:51:11.000Z</time>
      </trkpt>
      <trkpt lat="42.37828667" lon="-7.86314833">
        <ele>386.0</ele>
        <time>2018-10-03T06:51:12.000Z</time>
      </trkpt>
      <trkpt lat="42.3783" lon="-7.86316">
        <ele>386.0</ele>
        <time>2018-10-03T06:51:13.000Z</time>
      </trkpt>
      <trkpt lat="42.378315" lon="-7.86317">
        <ele>386.0</ele>
        <time>2018-10-03T06:51:14.000Z</time>
      </trkpt>
      <trkpt lat="42.37832833" lon="-7.86318333">
        <ele>386.0</ele>
        <time>2018-10-03T06:51:15.000Z</time>
      </trkpt>
      <trkpt lat="42.37834" lon="-7.86319667">
        <ele>386.0</ele>
        <time>2018-10-03T06:51:16.000Z</time>
      </trkpt>
      <trkpt lat="42.37835333" lon="-7.86320833">
        <ele>386.0</ele>
        <time>2018-10-03T06:51:17.000Z</time>
      </trkpt>
      <trkpt lat="42.37836833" lon="-7.86322">
        <ele>386.0</ele>
        <time>2018-10-03T06:51:18.000Z</time>
      </trkpt>
      <trkpt lat="42.37838167" lon="-7.86323167">
        <ele>386.0</ele>
        <time>2018-10-03T06:51:19.000Z</time>
      </trkpt>
      <trkpt lat="42.37839667" lon="-7.86324667">
        <ele>386.0</ele>
        <time>2018-10-03T06:51:20.000Z</time>
      </trkpt>
      <trkpt lat="42.37840833" lon="-7.86326167">
        <ele>386.0</ele>
        <time>2018-10-03T06:51:21.000Z</time>
      </trkpt>
      <trkpt lat="42.37842" lon="-7.86327833">
        <ele>386.0</ele>
        <time>2018-10-03T06:51:22.000Z</time>
      </trkpt>
      <trkpt lat="42.37843167" lon="-7.863295">
        <ele>386.0</ele>
        <time>2018-10-03T06:51:23.000Z</time>
      </trkpt>
      <trkpt lat="42.37844" lon="-7.86330667">
        <ele>386.0</ele>
        <time>2018-10-03T06:51:24.000Z</time>
      </trkpt>
      <trkpt lat="42.37844833" lon="-7.86332">
        <ele>386.0</ele>
        <time>2018-10-03T06:51:25.000Z</time>
      </trkpt>
      <trkpt lat="42.37845667" lon="-7.863335">
        <ele>386.0</ele>
        <time>2018-10-03T06:51:26.000Z</time>
      </trkpt>
      <trkpt lat="42.37846667" lon="-7.86335167">
        <ele>386.0</ele>
        <time>2018-10-03T06:51:27.000Z</time>
      </trkpt>
      <trkpt lat="42.37847667" lon="-7.86336833">
        <ele>386.0</ele>
        <time>2018-10-03T06:51:28.000Z</time>
      </trkpt>
      <trkpt lat="42.37848833" lon="-7.863385">
        <ele>386.0</ele>
        <time>2018-10-03T06:51:29.000Z</time>
      </trkpt>
      <trkpt lat="42.3785" lon="-7.86340167">
        <ele>387.0</ele>
        <time>2018-10-03T06:51:30.000Z</time>
      </trkpt>
      <trkpt lat="42.37851" lon="-7.86341833">
        <ele>387.0</ele>
        <time>2018-10-03T06:51:31.000Z</time>
      </trkpt>
      <trkpt lat="42.37852" lon="-7.863435">
        <ele>387.0</ele>
        <time>2018-10-03T06:51:32.000Z</time>
      </trkpt>
      <trkpt lat="42.37853" lon="-7.86345333">
        <ele>387.0</ele>
        <time>2018-10-03T06:51:33.000Z</time>
      </trkpt>
      <trkpt lat="42.37853833" lon="-7.86347">
        <ele>387.0</ele>
        <time>2018-10-03T06:51:34.000Z</time>
      </trkpt>
      <trkpt lat="42.37855" lon="-7.86348667">
        <ele>387.0</ele>
        <time>2018-10-03T06:51:35.000Z</time>
      </trkpt>
      <trkpt lat="42.37856167" lon="-7.86350167">
        <ele>387.0</ele>
        <time>2018-10-03T06:51:36.000Z</time>
      </trkpt>
      <trkpt lat="42.37857167" lon="-7.86351667">
        <ele>387.0</ele>
        <time>2018-10-03T06:51:37.000Z</time>
      </trkpt>
      <trkpt lat="42.37858333" lon="-7.86353167">
        <ele>387.0</ele>
        <time>2018-10-03T06:51:38.000Z</time>
      </trkpt>
      <trkpt lat="42.378595" lon="-7.863545">
        <ele>387.0</ele>
        <time>2018-10-03T06:51:39.000Z</time>
      </trkpt>
      <trkpt lat="42.378605" lon="-7.86355833">
        <ele>386.0</ele>
        <time>2018-10-03T06:51:40.000Z</time>
      </trkpt>
      <trkpt lat="42.37861667" lon="-7.86357167">
        <ele>386.0</ele>
        <time>2018-10-03T06:51:41.000Z</time>
      </trkpt>
      <trkpt lat="42.37862833" lon="-7.863585">
        <ele>386.0</ele>
        <time>2018-10-03T06:51:42.000Z</time>
      </trkpt>
      <trkpt lat="42.37864" lon="-7.86359833">
        <ele>386.0</ele>
        <time>2018-10-03T06:51:43.000Z</time>
      </trkpt>
      <trkpt lat="42.37865333" lon="-7.86360833">
        <ele>386.0</ele>
        <time>2018-10-03T06:51:44.000Z</time>
      </trkpt>
      <trkpt lat="42.37866667" lon="-7.86362">
        <ele>386.0</ele>
        <time>2018-10-03T06:51:45.000Z</time>
      </trkpt>
      <trkpt lat="42.37867833" lon="-7.86363">
        <ele>386.0</ele>
        <time>2018-10-03T06:51:46.000Z</time>
      </trkpt>
      <trkpt lat="42.37869167" lon="-7.86364167">
        <ele>386.0</ele>
        <time>2018-10-03T06:51:47.000Z</time>
      </trkpt>
      <trkpt lat="42.378705" lon="-7.86365333">
        <ele>386.0</ele>
        <time>2018-10-03T06:51:48.000Z</time>
      </trkpt>
      <trkpt lat="42.37871833" lon="-7.86366333">
        <ele>386.0</ele>
        <time>2018-10-03T06:51:49.000Z</time>
      </trkpt>
      <trkpt lat="42.37873167" lon="-7.86367333">
        <ele>386.0</ele>
        <time>2018-10-03T06:51:50.000Z</time>
      </trkpt>
      <trkpt lat="42.37874333" lon="-7.86368">
        <ele>386.0</ele>
        <time>2018-10-03T06:51:51.000Z</time>
      </trkpt>
      <trkpt lat="42.378755" lon="-7.86369">
        <ele>386.0</ele>
        <time>2018-10-03T06:51:52.000Z</time>
      </trkpt>
      <trkpt lat="42.37876833" lon="-7.86369667">
        <ele>386.0</ele>
        <time>2018-10-03T06:51:53.000Z</time>
      </trkpt>
      <trkpt lat="42.37878167" lon="-7.86370667">
        <ele>386.0</ele>
        <time>2018-10-03T06:51:54.000Z</time>
      </trkpt>
      <trkpt lat="42.378795" lon="-7.863715">
        <ele>386.0</ele>
        <time>2018-10-03T06:51:55.000Z</time>
      </trkpt>
      <trkpt lat="42.37880667" lon="-7.863725">
        <ele>386.0</ele>
        <time>2018-10-03T06:51:56.000Z</time>
      </trkpt>
      <trkpt lat="42.37881833" lon="-7.863735">
        <ele>386.0</ele>
        <time>2018-10-03T06:51:57.000Z</time>
      </trkpt>
      <trkpt lat="42.37883333" lon="-7.86374333">
        <ele>386.0</ele>
        <time>2018-10-03T06:51:58.000Z</time>
      </trkpt>
      <trkpt lat="42.37884667" lon="-7.86375167">
        <ele>386.0</ele>
        <time>2018-10-03T06:51:59.000Z</time>
      </trkpt>
      <trkpt lat="42.37886" lon="-7.86376">
        <ele>386.0</ele>
        <time>2018-10-03T06:52:00.000Z</time>
      </trkpt>
      <trkpt lat="42.37887333" lon="-7.86377">
        <ele>387.0</ele>
        <time>2018-10-03T06:52:01.000Z</time>
      </trkpt>
      <trkpt lat="42.37888667" lon="-7.86377667">
        <ele>387.0</ele>
        <time>2018-10-03T06:52:02.000Z</time>
      </trkpt>
      <trkpt lat="42.37890167" lon="-7.86378667">
        <ele>387.0</ele>
        <time>2018-10-03T06:52:03.000Z</time>
      </trkpt>
      <trkpt lat="42.378915" lon="-7.863795">
        <ele>387.0</ele>
        <time>2018-10-03T06:52:04.000Z</time>
      </trkpt>
      <trkpt lat="42.378925" lon="-7.86380667">
        <ele>387.0</ele>
        <time>2018-10-03T06:52:05.000Z</time>
      </trkpt>
      <trkpt lat="42.37893833" lon="-7.86381667">
        <ele>387.0</ele>
        <time>2018-10-03T06:52:06.000Z</time>
      </trkpt>
      <trkpt lat="42.37895167" lon="-7.863825">
        <ele>387.0</ele>
        <time>2018-10-03T06:52:07.000Z</time>
      </trkpt>
      <trkpt lat="42.37896333" lon="-7.86383333">
        <ele>387.0</ele>
        <time>2018-10-03T06:52:08.000Z</time>
      </trkpt>
      <trkpt lat="42.37897667" lon="-7.86384333">
        <ele>387.0</ele>
        <time>2018-10-03T06:52:09.000Z</time>
      </trkpt>
      <trkpt lat="42.37898833" lon="-7.86385333">
        <ele>387.0</ele>
        <time>2018-10-03T06:52:10.000Z</time>
      </trkpt>
      <trkpt lat="42.37900167" lon="-7.86386167">
        <ele>387.0</ele>
        <time>2018-10-03T06:52:11.000Z</time>
      </trkpt>
      <trkpt lat="42.379015" lon="-7.86386833">
        <ele>387.0</ele>
        <time>2018-10-03T06:52:12.000Z</time>
      </trkpt>
      <trkpt lat="42.37902833" lon="-7.86387667">
        <ele>387.0</ele>
        <time>2018-10-03T06:52:13.000Z</time>
      </trkpt>
      <trkpt lat="42.37904167" lon="-7.86388667">
        <ele>387.0</ele>
        <time>2018-10-03T06:52:14.000Z</time>
      </trkpt>
      <trkpt lat="42.379055" lon="-7.86389667">
        <ele>387.0</ele>
        <time>2018-10-03T06:52:15.000Z</time>
      </trkpt>
      <trkpt lat="42.37906833" lon="-7.86390667">
        <ele>387.0</ele>
        <time>2018-10-03T06:52:16.000Z</time>
      </trkpt>
      <trkpt lat="42.37908167" lon="-7.863915">
        <ele>386.0</ele>
        <time>2018-10-03T06:52:17.000Z</time>
      </trkpt>
      <trkpt lat="42.379095" lon="-7.86392333">
        <ele>386.0</ele>
        <time>2018-10-03T06:52:18.000Z</time>
      </trkpt>
      <trkpt lat="42.37910667" lon="-7.86393333">
        <ele>386.0</ele>
        <time>2018-10-03T06:52:19.000Z</time>
      </trkpt>
      <trkpt lat="42.37911833" lon="-7.86394167">
        <ele>386.0</ele>
        <time>2018-10-03T06:52:20.000Z</time>
      </trkpt>
      <trkpt lat="42.37913167" lon="-7.86394833">
        <ele>386.0</ele>
        <time>2018-10-03T06:52:21.000Z</time>
      </trkpt>
      <trkpt lat="42.379145" lon="-7.86395333">
        <ele>386.0</ele>
        <time>2018-10-03T06:52:22.000Z</time>
      </trkpt>
      <trkpt lat="42.37916" lon="-7.86396">
        <ele>385.0</ele>
        <time>2018-10-03T06:52:23.000Z</time>
      </trkpt>
      <trkpt lat="42.37917333" lon="-7.86396833">
        <ele>385.0</ele>
        <time>2018-10-03T06:52:24.000Z</time>
      </trkpt>
      <trkpt lat="42.37918833" lon="-7.86397833">
        <ele>385.0</ele>
        <time>2018-10-03T06:52:25.000Z</time>
      </trkpt>
      <trkpt lat="42.37920333" lon="-7.86398833">
        <ele>385.0</ele>
        <time>2018-10-03T06:52:26.000Z</time>
      </trkpt>
      <trkpt lat="42.37921833" lon="-7.864">
        <ele>385.0</ele>
        <time>2018-10-03T06:52:27.000Z</time>
      </trkpt>
      <trkpt lat="42.37923333" lon="-7.86400833">
        <ele>385.0</ele>
        <time>2018-10-03T06:52:28.000Z</time>
      </trkpt>
      <trkpt lat="42.37924833" lon="-7.86401833">
        <ele>384.0</ele>
        <time>2018-10-03T06:52:29.000Z</time>
      </trkpt>
      <trkpt lat="42.37926333" lon="-7.864025">
        <ele>384.0</ele>
        <time>2018-10-03T06:52:30.000Z</time>
      </trkpt>
      <trkpt lat="42.37927667" lon="-7.864035">
        <ele>384.0</ele>
        <time>2018-10-03T06:52:31.000Z</time>
      </trkpt>
      <trkpt lat="42.37929167" lon="-7.86404333">
        <ele>384.0</ele>
        <time>2018-10-03T06:52:32.000Z</time>
      </trkpt>
      <trkpt lat="42.37930667" lon="-7.86405167">
        <ele>384.0</ele>
        <time>2018-10-03T06:52:33.000Z</time>
      </trkpt>
      <trkpt lat="42.37932167" lon="-7.86406167">
        <ele>384.0</ele>
        <time>2018-10-03T06:52:34.000Z</time>
      </trkpt>
      <trkpt lat="42.37933667" lon="-7.86407">
        <ele>384.0</ele>
        <time>2018-10-03T06:52:35.000Z</time>
      </trkpt>
      <trkpt lat="42.37935333" lon="-7.86408">
        <ele>384.0</ele>
        <time>2018-10-03T06:52:36.000Z</time>
      </trkpt>
      <trkpt lat="42.37936833" lon="-7.86408833">
        <ele>384.0</ele>
        <time>2018-10-03T06:52:37.000Z</time>
      </trkpt>
      <trkpt lat="42.37938667" lon="-7.86409333">
        <ele>384.0</ele>
        <time>2018-10-03T06:52:38.000Z</time>
      </trkpt>
      <trkpt lat="42.37940167" lon="-7.8641">
        <ele>384.0</ele>
        <time>2018-10-03T06:52:39.000Z</time>
      </trkpt>
      <trkpt lat="42.37941667" lon="-7.864105">
        <ele>384.0</ele>
        <time>2018-10-03T06:52:40.000Z</time>
      </trkpt>
      <trkpt lat="42.37943167" lon="-7.86411167">
        <ele>384.0</ele>
        <time>2018-10-03T06:52:41.000Z</time>
      </trkpt>
      <trkpt lat="42.37944667" lon="-7.86411667">
        <ele>384.0</ele>
        <time>2018-10-03T06:52:42.000Z</time>
      </trkpt>
      <trkpt lat="42.37946167" lon="-7.86412167">
        <ele>384.0</ele>
        <time>2018-10-03T06:52:43.000Z</time>
      </trkpt>
      <trkpt lat="42.37947667" lon="-7.86412667">
        <ele>384.0</ele>
        <time>2018-10-03T06:52:44.000Z</time>
      </trkpt>
      <trkpt lat="42.37949167" lon="-7.86412833">
        <ele>384.0</ele>
        <time>2018-10-03T06:52:45.000Z</time>
      </trkpt>
      <trkpt lat="42.37950667" lon="-7.86413167">
        <ele>384.0</ele>
        <time>2018-10-03T06:52:46.000Z</time>
      </trkpt>
      <trkpt lat="42.37952167" lon="-7.864135">
        <ele>384.0</ele>
        <time>2018-10-03T06:52:47.000Z</time>
      </trkpt>
      <trkpt lat="42.37953667" lon="-7.86413833">
        <ele>384.0</ele>
        <time>2018-10-03T06:52:48.000Z</time>
      </trkpt>
      <trkpt lat="42.37955167" lon="-7.86414333">
        <ele>384.0</ele>
        <time>2018-10-03T06:52:49.000Z</time>
      </trkpt>
      <trkpt lat="42.379565" lon="-7.86414833">
        <ele>384.0</ele>
        <time>2018-10-03T06:52:50.000Z</time>
      </trkpt>
      <trkpt lat="42.37958" lon="-7.864155">
        <ele>384.0</ele>
        <time>2018-10-03T06:52:51.000Z</time>
      </trkpt>
      <trkpt lat="42.37959333" lon="-7.86416167">
        <ele>384.0</ele>
        <time>2018-10-03T06:52:52.000Z</time>
      </trkpt>
      <trkpt lat="42.37960833" lon="-7.86416833">
        <ele>384.0</ele>
        <time>2018-10-03T06:52:53.000Z</time>
      </trkpt>
      <trkpt lat="42.37962167" lon="-7.86417333">
        <ele>384.0</ele>
        <time>2018-10-03T06:52:54.000Z</time>
      </trkpt>
      <trkpt lat="42.37963833" lon="-7.86417667">
        <ele>384.0</ele>
        <time>2018-10-03T06:52:55.000Z</time>
      </trkpt>
      <trkpt lat="42.37965" lon="-7.86418">
        <ele>384.0</ele>
        <time>2018-10-03T06:52:56.000Z</time>
      </trkpt>
      <trkpt lat="42.37966333" lon="-7.86418667">
        <ele>384.0</ele>
        <time>2018-10-03T06:52:57.000Z</time>
      </trkpt>
      <trkpt lat="42.379675" lon="-7.86419333">
        <ele>384.0</ele>
        <time>2018-10-03T06:52:58.000Z</time>
      </trkpt>
      <trkpt lat="42.37969" lon="-7.86419667">
        <ele>384.0</ele>
        <time>2018-10-03T06:52:59.000Z</time>
      </trkpt>
      <trkpt lat="42.37970167" lon="-7.86420333">
        <ele>384.0</ele>
        <time>2018-10-03T06:53:00.000Z</time>
      </trkpt>
      <trkpt lat="42.37971833" lon="-7.86421167">
        <ele>384.0</ele>
        <time>2018-10-03T06:53:01.000Z</time>
      </trkpt>
      <trkpt lat="42.37973167" lon="-7.86421667">
        <ele>384.0</ele>
        <time>2018-10-03T06:53:02.000Z</time>
      </trkpt>
      <trkpt lat="42.379745" lon="-7.86422167">
        <ele>384.0</ele>
        <time>2018-10-03T06:53:03.000Z</time>
      </trkpt>
      <trkpt lat="42.37975667" lon="-7.864225">
        <ele>384.0</ele>
        <time>2018-10-03T06:53:04.000Z</time>
      </trkpt>
      <trkpt lat="42.37976833" lon="-7.86422833">
        <ele>384.0</ele>
        <time>2018-10-03T06:53:05.000Z</time>
      </trkpt>
      <trkpt lat="42.37978167" lon="-7.86423167">
        <ele>384.0</ele>
        <time>2018-10-03T06:53:06.000Z</time>
      </trkpt>
      <trkpt lat="42.379795" lon="-7.86423833">
        <ele>384.0</ele>
        <time>2018-10-03T06:53:07.000Z</time>
      </trkpt>
      <trkpt lat="42.37980833" lon="-7.864245">
        <ele>384.0</ele>
        <time>2018-10-03T06:53:08.000Z</time>
      </trkpt>
      <trkpt lat="42.37982333" lon="-7.86424833">
        <ele>384.0</ele>
        <time>2018-10-03T06:53:09.000Z</time>
      </trkpt>
      <trkpt lat="42.37983833" lon="-7.864255">
        <ele>384.0</ele>
        <time>2018-10-03T06:53:10.000Z</time>
      </trkpt>
      <trkpt lat="42.37985333" lon="-7.86426167">
        <ele>384.0</ele>
        <time>2018-10-03T06:53:11.000Z</time>
      </trkpt>
      <trkpt lat="42.37987" lon="-7.86426833">
        <ele>384.0</ele>
        <time>2018-10-03T06:53:12.000Z</time>
      </trkpt>
      <trkpt lat="42.379885" lon="-7.864275">
        <ele>384.0</ele>
        <time>2018-10-03T06:53:13.000Z</time>
      </trkpt>
      <trkpt lat="42.37989833" lon="-7.86428167">
        <ele>384.0</ele>
        <time>2018-10-03T06:53:14.000Z</time>
      </trkpt>
      <trkpt lat="42.37991167" lon="-7.86428833">
        <ele>384.0</ele>
        <time>2018-10-03T06:53:15.000Z</time>
      </trkpt>
      <trkpt lat="42.379925" lon="-7.86429667">
        <ele>384.0</ele>
        <time>2018-10-03T06:53:16.000Z</time>
      </trkpt>
      <trkpt lat="42.37994" lon="-7.86430333">
        <ele>384.0</ele>
        <time>2018-10-03T06:53:17.000Z</time>
      </trkpt>
      <trkpt lat="42.379955" lon="-7.86431">
        <ele>384.0</ele>
        <time>2018-10-03T06:53:18.000Z</time>
      </trkpt>
      <trkpt lat="42.37997167" lon="-7.86431833">
        <ele>384.0</ele>
        <time>2018-10-03T06:53:19.000Z</time>
      </trkpt>
      <trkpt lat="42.37998667" lon="-7.86432333">
        <ele>384.0</ele>
        <time>2018-10-03T06:53:20.000Z</time>
      </trkpt>
      <trkpt lat="42.38" lon="-7.86433333">
        <ele>385.0</ele>
        <time>2018-10-03T06:53:21.000Z</time>
      </trkpt>
      <trkpt lat="42.38001167" lon="-7.86434167">
        <ele>385.0</ele>
        <time>2018-10-03T06:53:22.000Z</time>
      </trkpt>
      <trkpt lat="42.38002667" lon="-7.86435167">
        <ele>385.0</ele>
        <time>2018-10-03T06:53:23.000Z</time>
      </trkpt>
      <trkpt lat="42.38004333" lon="-7.86436">
        <ele>385.0</ele>
        <time>2018-10-03T06:53:24.000Z</time>
      </trkpt>
      <trkpt lat="42.38005833" lon="-7.86436833">
        <ele>385.0</ele>
        <time>2018-10-03T06:53:25.000Z</time>
      </trkpt>
      <trkpt lat="42.38007167" lon="-7.864375">
        <ele>385.0</ele>
        <time>2018-10-03T06:53:26.000Z</time>
      </trkpt>
      <trkpt lat="42.380085" lon="-7.86438">
        <ele>385.0</ele>
        <time>2018-10-03T06:53:27.000Z</time>
      </trkpt>
      <trkpt lat="42.3801" lon="-7.864385">
        <ele>385.0</ele>
        <time>2018-10-03T06:53:28.000Z</time>
      </trkpt>
      <trkpt lat="42.38011333" lon="-7.86438833">
        <ele>385.0</ele>
        <time>2018-10-03T06:53:29.000Z</time>
      </trkpt>
      <trkpt lat="42.38013167" lon="-7.86439">
        <ele>385.0</ele>
        <time>2018-10-03T06:53:30.000Z</time>
      </trkpt>
      <trkpt lat="42.38015" lon="-7.86439333">
        <ele>385.0</ele>
        <time>2018-10-03T06:53:31.000Z</time>
      </trkpt>
      <trkpt lat="42.38016833" lon="-7.86439667">
        <ele>385.0</ele>
        <time>2018-10-03T06:53:32.000Z</time>
      </trkpt>
      <trkpt lat="42.38018667" lon="-7.86440167">
        <ele>385.0</ele>
        <time>2018-10-03T06:53:33.000Z</time>
      </trkpt>
      <trkpt lat="42.38020167" lon="-7.86440667">
        <ele>385.0</ele>
        <time>2018-10-03T06:53:34.000Z</time>
      </trkpt>
      <trkpt lat="42.38022" lon="-7.86440833">
        <ele>385.0</ele>
        <time>2018-10-03T06:53:35.000Z</time>
      </trkpt>
      <trkpt lat="42.380235" lon="-7.86441667">
        <ele>385.0</ele>
        <time>2018-10-03T06:53:36.000Z</time>
      </trkpt>
      <trkpt lat="42.38024833" lon="-7.86442167">
        <ele>385.0</ele>
        <time>2018-10-03T06:53:37.000Z</time>
      </trkpt>
      <trkpt lat="42.38026333" lon="-7.86442833">
        <ele>385.0</ele>
        <time>2018-10-03T06:53:38.000Z</time>
      </trkpt>
      <trkpt lat="42.38027667" lon="-7.864435">
        <ele>385.0</ele>
        <time>2018-10-03T06:53:39.000Z</time>
      </trkpt>
      <trkpt lat="42.38029167" lon="-7.86444167">
        <ele>385.0</ele>
        <time>2018-10-03T06:53:40.000Z</time>
      </trkpt>
      <trkpt lat="42.38030833" lon="-7.864445">
        <ele>385.0</ele>
        <time>2018-10-03T06:53:41.000Z</time>
      </trkpt>
      <trkpt lat="42.38032667" lon="-7.86445">
        <ele>385.0</ele>
        <time>2018-10-03T06:53:42.000Z</time>
      </trkpt>
      <trkpt lat="42.380345" lon="-7.86445333">
        <ele>385.0</ele>
        <time>2018-10-03T06:53:43.000Z</time>
      </trkpt>
      <trkpt lat="42.38036167" lon="-7.86445833">
        <ele>385.0</ele>
        <time>2018-10-03T06:53:44.000Z</time>
      </trkpt>
      <trkpt lat="42.38037667" lon="-7.86446167">
        <ele>385.0</ele>
        <time>2018-10-03T06:53:45.000Z</time>
      </trkpt>
      <trkpt lat="42.38039333" lon="-7.86446833">
        <ele>385.0</ele>
        <time>2018-10-03T06:53:46.000Z</time>
      </trkpt>
      <trkpt lat="42.38041" lon="-7.864475">
        <ele>385.0</ele>
        <time>2018-10-03T06:53:47.000Z</time>
      </trkpt>
      <trkpt lat="42.38042667" lon="-7.86448167">
        <ele>385.0</ele>
        <time>2018-10-03T06:53:48.000Z</time>
      </trkpt>
      <trkpt lat="42.380445" lon="-7.864485">
        <ele>385.0</ele>
        <time>2018-10-03T06:53:49.000Z</time>
      </trkpt>
      <trkpt lat="42.38046167" lon="-7.86448833">
        <ele>385.0</ele>
        <time>2018-10-03T06:53:50.000Z</time>
      </trkpt>
      <trkpt lat="42.38047833" lon="-7.864495">
        <ele>385.0</ele>
        <time>2018-10-03T06:53:51.000Z</time>
      </trkpt>
      <trkpt lat="42.380495" lon="-7.86450167">
        <ele>385.0</ele>
        <time>2018-10-03T06:53:52.000Z</time>
      </trkpt>
      <trkpt lat="42.38050833" lon="-7.86450833">
        <ele>385.0</ele>
        <time>2018-10-03T06:53:53.000Z</time>
      </trkpt>
      <trkpt lat="42.38052167" lon="-7.86451833">
        <ele>386.0</ele>
        <time>2018-10-03T06:53:54.000Z</time>
      </trkpt>
      <trkpt lat="42.38053667" lon="-7.86452833">
        <ele>386.0</ele>
        <time>2018-10-03T06:53:55.000Z</time>
      </trkpt>
      <trkpt lat="42.38055167" lon="-7.86453833">
        <ele>386.0</ele>
        <time>2018-10-03T06:53:56.000Z</time>
      </trkpt>
      <trkpt lat="42.38056833" lon="-7.86454667">
        <ele>387.0</ele>
        <time>2018-10-03T06:53:57.000Z</time>
      </trkpt>
      <trkpt lat="42.380585" lon="-7.864555">
        <ele>387.0</ele>
        <time>2018-10-03T06:53:58.000Z</time>
      </trkpt>
      <trkpt lat="42.3806" lon="-7.86456333">
        <ele>387.0</ele>
        <time>2018-10-03T06:53:59.000Z</time>
      </trkpt>
      <trkpt lat="42.38061333" lon="-7.86457167">
        <ele>387.0</ele>
        <time>2018-10-03T06:54:00.000Z</time>
      </trkpt>
      <trkpt lat="42.38062833" lon="-7.86458167">
        <ele>387.0</ele>
        <time>2018-10-03T06:54:01.000Z</time>
      </trkpt>
      <trkpt lat="42.38064167" lon="-7.86459333">
        <ele>388.0</ele>
        <time>2018-10-03T06:54:02.000Z</time>
      </trkpt>
      <trkpt lat="42.380655" lon="-7.86460333">
        <ele>388.0</ele>
        <time>2018-10-03T06:54:03.000Z</time>
      </trkpt>
      <trkpt lat="42.38067167" lon="-7.86461">
        <ele>388.0</ele>
        <time>2018-10-03T06:54:04.000Z</time>
      </trkpt>
      <trkpt lat="42.38068667" lon="-7.864615">
        <ele>388.0</ele>
        <time>2018-10-03T06:54:05.000Z</time>
      </trkpt>
      <trkpt lat="42.38070333" lon="-7.86462">
        <ele>388.0</ele>
        <time>2018-10-03T06:54:06.000Z</time>
      </trkpt>
      <trkpt lat="42.38072" lon="-7.86462833">
        <ele>388.0</ele>
        <time>2018-10-03T06:54:07.000Z</time>
      </trkpt>
      <trkpt lat="42.38074167" lon="-7.864635">
        <ele>388.0</ele>
        <time>2018-10-03T06:54:08.000Z</time>
      </trkpt>
      <trkpt lat="42.38075833" lon="-7.86464">
        <ele>388.0</ele>
        <time>2018-10-03T06:54:09.000Z</time>
      </trkpt>
      <trkpt lat="42.38077833" lon="-7.86464667">
        <ele>387.0</ele>
        <time>2018-10-03T06:54:10.000Z</time>
      </trkpt>
      <trkpt lat="42.38079667" lon="-7.86465667">
        <ele>387.0</ele>
        <time>2018-10-03T06:54:11.000Z</time>
      </trkpt>
      <trkpt lat="42.38081167" lon="-7.86466667">
        <ele>387.0</ele>
        <time>2018-10-03T06:54:12.000Z</time>
      </trkpt>
      <trkpt lat="42.38082667" lon="-7.86467833">
        <ele>387.0</ele>
        <time>2018-10-03T06:54:13.000Z</time>
      </trkpt>
      <trkpt lat="42.38084333" lon="-7.86468833">
        <ele>388.0</ele>
        <time>2018-10-03T06:54:14.000Z</time>
      </trkpt>
      <trkpt lat="42.38086" lon="-7.86469667">
        <ele>388.0</ele>
        <time>2018-10-03T06:54:15.000Z</time>
      </trkpt>
      <trkpt lat="42.38087667" lon="-7.86470667">
        <ele>388.0</ele>
        <time>2018-10-03T06:54:16.000Z</time>
      </trkpt>
      <trkpt lat="42.380895" lon="-7.864715">
        <ele>388.0</ele>
        <time>2018-10-03T06:54:17.000Z</time>
      </trkpt>
      <trkpt lat="42.38091" lon="-7.86472333">
        <ele>388.0</ele>
        <time>2018-10-03T06:54:18.000Z</time>
      </trkpt>
      <trkpt lat="42.380925" lon="-7.86473">
        <ele>388.0</ele>
        <time>2018-10-03T06:54:19.000Z</time>
      </trkpt>
      <trkpt lat="42.38094167" lon="-7.86473833">
        <ele>388.0</ele>
        <time>2018-10-03T06:54:20.000Z</time>
      </trkpt>
      <trkpt lat="42.38095833" lon="-7.86475167">
        <ele>388.0</ele>
        <time>2018-10-03T06:54:21.000Z</time>
      </trkpt>
      <trkpt lat="42.38097333" lon="-7.86476167">
        <ele>388.0</ele>
        <time>2018-10-03T06:54:22.000Z</time>
      </trkpt>
      <trkpt lat="42.38098833" lon="-7.86477">
        <ele>388.0</ele>
        <time>2018-10-03T06:54:23.000Z</time>
      </trkpt>
      <trkpt lat="42.381005" lon="-7.864775">
        <ele>388.0</ele>
        <time>2018-10-03T06:54:24.000Z</time>
      </trkpt>
      <trkpt lat="42.38102167" lon="-7.86477833">
        <ele>388.0</ele>
        <time>2018-10-03T06:54:25.000Z</time>
      </trkpt>
      <trkpt lat="42.381035" lon="-7.86478">
        <ele>388.0</ele>
        <time>2018-10-03T06:54:26.000Z</time>
      </trkpt>
      <trkpt lat="42.38105167" lon="-7.86477833">
        <ele>388.0</ele>
        <time>2018-10-03T06:54:27.000Z</time>
      </trkpt>
      <trkpt lat="42.38107" lon="-7.86478">
        <ele>388.0</ele>
        <time>2018-10-03T06:54:28.000Z</time>
      </trkpt>
      <trkpt lat="42.38108667" lon="-7.86478667">
        <ele>388.0</ele>
        <time>2018-10-03T06:54:29.000Z</time>
      </trkpt>
      <trkpt lat="42.38110333" lon="-7.864795">
        <ele>388.0</ele>
        <time>2018-10-03T06:54:30.000Z</time>
      </trkpt>
      <trkpt lat="42.38111833" lon="-7.86480167">
        <ele>388.0</ele>
        <time>2018-10-03T06:54:31.000Z</time>
      </trkpt>
      <trkpt lat="42.38113167" lon="-7.86481">
        <ele>389.0</ele>
        <time>2018-10-03T06:54:32.000Z</time>
      </trkpt>
      <trkpt lat="42.38114667" lon="-7.86481667">
        <ele>389.0</ele>
        <time>2018-10-03T06:54:33.000Z</time>
      </trkpt>
      <trkpt lat="42.38116167" lon="-7.864825">
        <ele>389.0</ele>
        <time>2018-10-03T06:54:34.000Z</time>
      </trkpt>
      <trkpt lat="42.38117667" lon="-7.86483333">
        <ele>389.0</ele>
        <time>2018-10-03T06:54:35.000Z</time>
      </trkpt>
      <trkpt lat="42.38119167" lon="-7.86484167">
        <ele>390.0</ele>
        <time>2018-10-03T06:54:36.000Z</time>
      </trkpt>
      <trkpt lat="42.38120833" lon="-7.86484833">
        <ele>390.0</ele>
        <time>2018-10-03T06:54:37.000Z</time>
      </trkpt>
      <trkpt lat="42.38122333" lon="-7.86485667">
        <ele>390.0</ele>
        <time>2018-10-03T06:54:38.000Z</time>
      </trkpt>
      <trkpt lat="42.38123833" lon="-7.864865">
        <ele>391.0</ele>
        <time>2018-10-03T06:54:39.000Z</time>
      </trkpt>
      <trkpt lat="42.38125167" lon="-7.86487">
        <ele>391.0</ele>
        <time>2018-10-03T06:54:40.000Z</time>
      </trkpt>
      <trkpt lat="42.38126333" lon="-7.86487667">
        <ele>391.0</ele>
        <time>2018-10-03T06:54:41.000Z</time>
      </trkpt>
      <trkpt lat="42.38127667" lon="-7.86488333">
        <ele>391.0</ele>
        <time>2018-10-03T06:54:42.000Z</time>
      </trkpt>
      <trkpt lat="42.38129167" lon="-7.86489333">
        <ele>391.0</ele>
        <time>2018-10-03T06:54:43.000Z</time>
      </trkpt>
      <trkpt lat="42.381305" lon="-7.86490333">
        <ele>392.0</ele>
        <time>2018-10-03T06:54:44.000Z</time>
      </trkpt>
      <trkpt lat="42.38131667" lon="-7.86491333">
        <ele>392.0</ele>
        <time>2018-10-03T06:54:45.000Z</time>
      </trkpt>
      <trkpt lat="42.38133167" lon="-7.86492167">
        <ele>392.0</ele>
        <time>2018-10-03T06:54:46.000Z</time>
      </trkpt>
      <trkpt lat="42.38134833" lon="-7.86492833">
        <ele>392.0</ele>
        <time>2018-10-03T06:54:47.000Z</time>
      </trkpt>
      <trkpt lat="42.381365" lon="-7.86493667">
        <ele>392.0</ele>
        <time>2018-10-03T06:54:48.000Z</time>
      </trkpt>
      <trkpt lat="42.38138167" lon="-7.864945">
        <ele>392.0</ele>
        <time>2018-10-03T06:54:49.000Z</time>
      </trkpt>
      <trkpt lat="42.38139833" lon="-7.86495333">
        <ele>392.0</ele>
        <time>2018-10-03T06:54:50.000Z</time>
      </trkpt>
      <trkpt lat="42.381415" lon="-7.86496">
        <ele>392.0</ele>
        <time>2018-10-03T06:54:51.000Z</time>
      </trkpt>
      <trkpt lat="42.38143167" lon="-7.86496833">
        <ele>392.0</ele>
        <time>2018-10-03T06:54:52.000Z</time>
      </trkpt>
      <trkpt lat="42.38144833" lon="-7.864975">
        <ele>392.0</ele>
        <time>2018-10-03T06:54:53.000Z</time>
      </trkpt>
      <trkpt lat="42.38146667" lon="-7.86498">
        <ele>392.0</ele>
        <time>2018-10-03T06:54:54.000Z</time>
      </trkpt>
      <trkpt lat="42.38148333" lon="-7.864985">
        <ele>392.0</ele>
        <time>2018-10-03T06:54:55.000Z</time>
      </trkpt>
      <trkpt lat="42.38149833" lon="-7.86499333">
        <ele>392.0</ele>
        <time>2018-10-03T06:54:56.000Z</time>
      </trkpt>
      <trkpt lat="42.381515" lon="-7.865">
        <ele>391.0</ele>
        <time>2018-10-03T06:54:57.000Z</time>
      </trkpt>
      <trkpt lat="42.38153" lon="-7.86500833">
        <ele>391.0</ele>
        <time>2018-10-03T06:54:58.000Z</time>
      </trkpt>
      <trkpt lat="42.38154667" lon="-7.86501667">
        <ele>391.0</ele>
        <time>2018-10-03T06:54:59.000Z</time>
      </trkpt>
      <trkpt lat="42.381565" lon="-7.86502333">
        <ele>391.0</ele>
        <time>2018-10-03T06:55:00.000Z</time>
      </trkpt>
      <trkpt lat="42.38158333" lon="-7.86502833">
        <ele>391.0</ele>
        <time>2018-10-03T06:55:01.000Z</time>
      </trkpt>
      <trkpt lat="42.3816" lon="-7.865035">
        <ele>391.0</ele>
        <time>2018-10-03T06:55:02.000Z</time>
      </trkpt>
      <trkpt lat="42.381615" lon="-7.86504167">
        <ele>391.0</ele>
        <time>2018-10-03T06:55:03.000Z</time>
      </trkpt>
      <trkpt lat="42.38162667" lon="-7.86505">
        <ele>391.0</ele>
        <time>2018-10-03T06:55:04.000Z</time>
      </trkpt>
      <trkpt lat="42.38164167" lon="-7.86505833">
        <ele>391.0</ele>
        <time>2018-10-03T06:55:05.000Z</time>
      </trkpt>
      <trkpt lat="42.38165667" lon="-7.86506667">
        <ele>391.0</ele>
        <time>2018-10-03T06:55:06.000Z</time>
      </trkpt>
      <trkpt lat="42.38167167" lon="-7.865075">
        <ele>391.0</ele>
        <time>2018-10-03T06:55:07.000Z</time>
      </trkpt>
      <trkpt lat="42.381685" lon="-7.86508167">
        <ele>391.0</ele>
        <time>2018-10-03T06:55:08.000Z</time>
      </trkpt>
      <trkpt lat="42.3817" lon="-7.86509">
        <ele>391.0</ele>
        <time>2018-10-03T06:55:09.000Z</time>
      </trkpt>
      <trkpt lat="42.381715" lon="-7.86509667">
        <ele>391.0</ele>
        <time>2018-10-03T06:55:10.000Z</time>
      </trkpt>
      <trkpt lat="42.38172833" lon="-7.86510167">
        <ele>391.0</ele>
        <time>2018-10-03T06:55:11.000Z</time>
      </trkpt>
      <trkpt lat="42.38174167" lon="-7.86510833">
        <ele>391.0</ele>
        <time>2018-10-03T06:55:12.000Z</time>
      </trkpt>
      <trkpt lat="42.38175333" lon="-7.865115">
        <ele>391.0</ele>
        <time>2018-10-03T06:55:13.000Z</time>
      </trkpt>
      <trkpt lat="42.381765" lon="-7.86512333">
        <ele>391.0</ele>
        <time>2018-10-03T06:55:14.000Z</time>
      </trkpt>
      <trkpt lat="42.38177833" lon="-7.86513167">
        <ele>391.0</ele>
        <time>2018-10-03T06:55:15.000Z</time>
      </trkpt>
      <trkpt lat="42.381795" lon="-7.86514167">
        <ele>391.0</ele>
        <time>2018-10-03T06:55:16.000Z</time>
      </trkpt>
      <trkpt lat="42.38181" lon="-7.86515">
        <ele>391.0</ele>
        <time>2018-10-03T06:55:17.000Z</time>
      </trkpt>
      <trkpt lat="42.381825" lon="-7.86515833">
        <ele>391.0</ele>
        <time>2018-10-03T06:55:18.000Z</time>
      </trkpt>
      <trkpt lat="42.381825" lon="-7.86515833">
        <ele>391.0</ele>
        <time>2018-10-03T06:55:19.000Z</time>
      </trkpt>
      <trkpt lat="42.38185333" lon="-7.86517333">
        <ele>391.0</ele>
        <time>2018-10-03T06:55:20.000Z</time>
      </trkpt>
      <trkpt lat="42.38186667" lon="-7.86518167">
        <ele>391.0</ele>
        <time>2018-10-03T06:55:21.000Z</time>
      </trkpt>
      <trkpt lat="42.38188167" lon="-7.86519">
        <ele>391.0</ele>
        <time>2018-10-03T06:55:22.000Z</time>
      </trkpt>
      <trkpt lat="42.38189667" lon="-7.86519833">
        <ele>392.0</ele>
        <time>2018-10-03T06:55:23.000Z</time>
      </trkpt>
      <trkpt lat="42.38191167" lon="-7.865205">
        <ele>392.0</ele>
        <time>2018-10-03T06:55:24.000Z</time>
      </trkpt>
      <trkpt lat="42.38192667" lon="-7.86521333">
        <ele>392.0</ele>
        <time>2018-10-03T06:55:25.000Z</time>
      </trkpt>
      <trkpt lat="42.38194167" lon="-7.86522333">
        <ele>392.0</ele>
        <time>2018-10-03T06:55:26.000Z</time>
      </trkpt>
      <trkpt lat="42.38195333" lon="-7.865235">
        <ele>392.0</ele>
        <time>2018-10-03T06:55:27.000Z</time>
      </trkpt>
      <trkpt lat="42.38196667" lon="-7.865245">
        <ele>392.0</ele>
        <time>2018-10-03T06:55:28.000Z</time>
      </trkpt>
      <trkpt lat="42.38197833" lon="-7.86525667">
        <ele>393.0</ele>
        <time>2018-10-03T06:55:29.000Z</time>
      </trkpt>
      <trkpt lat="42.38199" lon="-7.86526833">
        <ele>393.0</ele>
        <time>2018-10-03T06:55:30.000Z</time>
      </trkpt>
      <trkpt lat="42.38200167" lon="-7.86528167">
        <ele>393.0</ele>
        <time>2018-10-03T06:55:31.000Z</time>
      </trkpt>
      <trkpt lat="42.38201333" lon="-7.865295">
        <ele>393.0</ele>
        <time>2018-10-03T06:55:32.000Z</time>
      </trkpt>
      <trkpt lat="42.382025" lon="-7.86531167">
        <ele>393.0</ele>
        <time>2018-10-03T06:55:33.000Z</time>
      </trkpt>
      <trkpt lat="42.38203667" lon="-7.86533">
        <ele>394.0</ele>
        <time>2018-10-03T06:55:34.000Z</time>
      </trkpt>
      <trkpt lat="42.38204667" lon="-7.86534833">
        <ele>394.0</ele>
        <time>2018-10-03T06:55:35.000Z</time>
      </trkpt>
      <trkpt lat="42.38205833" lon="-7.86536833">
        <ele>394.0</ele>
        <time>2018-10-03T06:55:36.000Z</time>
      </trkpt>
      <trkpt lat="42.38206667" lon="-7.86538667">
        <ele>394.0</ele>
        <time>2018-10-03T06:55:37.000Z</time>
      </trkpt>
      <trkpt lat="42.38207167" lon="-7.86540333">
        <ele>395.0</ele>
        <time>2018-10-03T06:55:38.000Z</time>
      </trkpt>
      <trkpt lat="42.38207667" lon="-7.86542333">
        <ele>395.0</ele>
        <time>2018-10-03T06:55:39.000Z</time>
      </trkpt>
      <trkpt lat="42.38207833" lon="-7.86544167">
        <ele>395.0</ele>
        <time>2018-10-03T06:55:40.000Z</time>
      </trkpt>
      <trkpt lat="42.38208" lon="-7.86546167">
        <ele>395.0</ele>
        <time>2018-10-03T06:55:41.000Z</time>
      </trkpt>
      <trkpt lat="42.38208333" lon="-7.86548167">
        <ele>395.0</ele>
        <time>2018-10-03T06:55:42.000Z</time>
      </trkpt>
      <trkpt lat="42.38208833" lon="-7.86549833">
        <ele>396.0</ele>
        <time>2018-10-03T06:55:43.000Z</time>
      </trkpt>
      <trkpt lat="42.382095" lon="-7.86551667">
        <ele>396.0</ele>
        <time>2018-10-03T06:55:44.000Z</time>
      </trkpt>
      <trkpt lat="42.38210333" lon="-7.86553333">
        <ele>396.0</ele>
        <time>2018-10-03T06:55:45.000Z</time>
      </trkpt>
      <trkpt lat="42.38211" lon="-7.86555167">
        <ele>396.0</ele>
        <time>2018-10-03T06:55:46.000Z</time>
      </trkpt>
      <trkpt lat="42.38211333" lon="-7.86557167">
        <ele>396.0</ele>
        <time>2018-10-03T06:55:47.000Z</time>
      </trkpt>
      <trkpt lat="42.382115" lon="-7.86559333">
        <ele>397.0</ele>
        <time>2018-10-03T06:55:48.000Z</time>
      </trkpt>
      <trkpt lat="42.38211333" lon="-7.865615">
        <ele>397.0</ele>
        <time>2018-10-03T06:55:49.000Z</time>
      </trkpt>
      <trkpt lat="42.38211167" lon="-7.86563333">
        <ele>397.0</ele>
        <time>2018-10-03T06:55:50.000Z</time>
      </trkpt>
      <trkpt lat="42.38211167" lon="-7.86565333">
        <ele>397.0</ele>
        <time>2018-10-03T06:55:51.000Z</time>
      </trkpt>
      <trkpt lat="42.38211167" lon="-7.86567667">
        <ele>397.0</ele>
        <time>2018-10-03T06:55:52.000Z</time>
      </trkpt>
      <trkpt lat="42.382115" lon="-7.8657">
        <ele>398.0</ele>
        <time>2018-10-03T06:55:53.000Z</time>
      </trkpt>
      <trkpt lat="42.38211667" lon="-7.86572167">
        <ele>398.0</ele>
        <time>2018-10-03T06:55:54.000Z</time>
      </trkpt>
      <trkpt lat="42.38211833" lon="-7.86574167">
        <ele>398.0</ele>
        <time>2018-10-03T06:55:55.000Z</time>
      </trkpt>
      <trkpt lat="42.38212" lon="-7.86576333">
        <ele>398.0</ele>
        <time>2018-10-03T06:55:56.000Z</time>
      </trkpt>
      <trkpt lat="42.38212333" lon="-7.86578667">
        <ele>398.0</ele>
        <time>2018-10-03T06:55:57.000Z</time>
      </trkpt>
      <trkpt lat="42.382125" lon="-7.86580667">
        <ele>398.0</ele>
        <time>2018-10-03T06:55:58.000Z</time>
      </trkpt>
      <trkpt lat="42.38212833" lon="-7.86583">
        <ele>399.0</ele>
        <time>2018-10-03T06:55:59.000Z</time>
      </trkpt>
      <trkpt lat="42.38213167" lon="-7.86585">
        <ele>399.0</ele>
        <time>2018-10-03T06:56:00.000Z</time>
      </trkpt>
      <trkpt lat="42.38213667" lon="-7.86586833">
        <ele>399.0</ele>
        <time>2018-10-03T06:56:01.000Z</time>
      </trkpt>
      <trkpt lat="42.38214167" lon="-7.86588833">
        <ele>399.0</ele>
        <time>2018-10-03T06:56:02.000Z</time>
      </trkpt>
      <trkpt lat="42.38214833" lon="-7.865905">
        <ele>399.0</ele>
        <time>2018-10-03T06:56:03.000Z</time>
      </trkpt>
      <trkpt lat="42.38215167" lon="-7.865925">
        <ele>399.0</ele>
        <time>2018-10-03T06:56:04.000Z</time>
      </trkpt>
      <trkpt lat="42.38215333" lon="-7.86594667">
        <ele>399.0</ele>
        <time>2018-10-03T06:56:05.000Z</time>
      </trkpt>
      <trkpt lat="42.38215667" lon="-7.86596667">
        <ele>399.0</ele>
        <time>2018-10-03T06:56:06.000Z</time>
      </trkpt>
      <trkpt lat="42.38216167" lon="-7.86598667">
        <ele>400.0</ele>
        <time>2018-10-03T06:56:07.000Z</time>
      </trkpt>
      <trkpt lat="42.38216333" lon="-7.86600667">
        <ele>400.0</ele>
        <time>2018-10-03T06:56:08.000Z</time>
      </trkpt>
      <trkpt lat="42.38216667" lon="-7.86602833">
        <ele>400.0</ele>
        <time>2018-10-03T06:56:09.000Z</time>
      </trkpt>
      <trkpt lat="42.38217333" lon="-7.86605167">
        <ele>400.0</ele>
        <time>2018-10-03T06:56:10.000Z</time>
      </trkpt>
      <trkpt lat="42.38217833" lon="-7.86607333">
        <ele>400.0</ele>
        <time>2018-10-03T06:56:11.000Z</time>
      </trkpt>
      <trkpt lat="42.38218167" lon="-7.86609333">
        <ele>400.0</ele>
        <time>2018-10-03T06:56:12.000Z</time>
      </trkpt>
      <trkpt lat="42.38218667" lon="-7.86611">
        <ele>400.0</ele>
        <time>2018-10-03T06:56:13.000Z</time>
      </trkpt>
      <trkpt lat="42.38219167" lon="-7.86612833">
        <ele>400.0</ele>
        <time>2018-10-03T06:56:14.000Z</time>
      </trkpt>
      <trkpt lat="42.382195" lon="-7.86615">
        <ele>400.0</ele>
        <time>2018-10-03T06:56:15.000Z</time>
      </trkpt>
      <trkpt lat="42.3822" lon="-7.86617">
        <ele>400.0</ele>
        <time>2018-10-03T06:56:16.000Z</time>
      </trkpt>
      <trkpt lat="42.382205" lon="-7.86619">
        <ele>400.0</ele>
        <time>2018-10-03T06:56:17.000Z</time>
      </trkpt>
      <trkpt lat="42.38221" lon="-7.86621">
        <ele>400.0</ele>
        <time>2018-10-03T06:56:18.000Z</time>
      </trkpt>
      <trkpt lat="42.38221" lon="-7.86621">
        <ele>400.0</ele>
        <time>2018-10-03T06:56:19.000Z</time>
      </trkpt>
      <trkpt lat="42.38222" lon="-7.86624833">
        <ele>401.0</ele>
        <time>2018-10-03T06:56:20.000Z</time>
      </trkpt>
      <trkpt lat="42.382225" lon="-7.86626667">
        <ele>401.0</ele>
        <time>2018-10-03T06:56:21.000Z</time>
      </trkpt>
      <trkpt lat="42.38222833" lon="-7.86628667">
        <ele>401.0</ele>
        <time>2018-10-03T06:56:22.000Z</time>
      </trkpt>
      <trkpt lat="42.38223167" lon="-7.866305">
        <ele>401.0</ele>
        <time>2018-10-03T06:56:23.000Z</time>
      </trkpt>
      <trkpt lat="42.38223833" lon="-7.86632">
        <ele>401.0</ele>
        <time>2018-10-03T06:56:24.000Z</time>
      </trkpt>
      <trkpt lat="42.38224333" lon="-7.86633667">
        <ele>401.0</ele>
        <time>2018-10-03T06:56:25.000Z</time>
      </trkpt>
      <trkpt lat="42.38224833" lon="-7.866355">
        <ele>402.0</ele>
        <time>2018-10-03T06:56:26.000Z</time>
      </trkpt>
      <trkpt lat="42.38225333" lon="-7.86637333">
        <ele>402.0</ele>
        <time>2018-10-03T06:56:27.000Z</time>
      </trkpt>
      <trkpt lat="42.38225667" lon="-7.86639333">
        <ele>402.0</ele>
        <time>2018-10-03T06:56:28.000Z</time>
      </trkpt>
      <trkpt lat="42.38226167" lon="-7.86641167">
        <ele>402.0</ele>
        <time>2018-10-03T06:56:29.000Z</time>
      </trkpt>
      <trkpt lat="42.38226833" lon="-7.86643">
        <ele>402.0</ele>
        <time>2018-10-03T06:56:30.000Z</time>
      </trkpt>
      <trkpt lat="42.38227667" lon="-7.86644833">
        <ele>403.0</ele>
        <time>2018-10-03T06:56:31.000Z</time>
      </trkpt>
      <trkpt lat="42.38228333" lon="-7.86646667">
        <ele>403.0</ele>
        <time>2018-10-03T06:56:32.000Z</time>
      </trkpt>
      <trkpt lat="42.38228833" lon="-7.866485">
        <ele>403.0</ele>
        <time>2018-10-03T06:56:33.000Z</time>
      </trkpt>
      <trkpt lat="42.38229333" lon="-7.86650333">
        <ele>403.0</ele>
        <time>2018-10-03T06:56:34.000Z</time>
      </trkpt>
      <trkpt lat="42.38229667" lon="-7.86652167">
        <ele>404.0</ele>
        <time>2018-10-03T06:56:35.000Z</time>
      </trkpt>
      <trkpt lat="42.3823" lon="-7.86654167">
        <ele>404.0</ele>
        <time>2018-10-03T06:56:36.000Z</time>
      </trkpt>
      <trkpt lat="42.382305" lon="-7.86656167">
        <ele>404.0</ele>
        <time>2018-10-03T06:56:37.000Z</time>
      </trkpt>
      <trkpt lat="42.38231167" lon="-7.86658">
        <ele>405.0</ele>
        <time>2018-10-03T06:56:38.000Z</time>
      </trkpt>
      <trkpt lat="42.38231833" lon="-7.86659833">
        <ele>405.0</ele>
        <time>2018-10-03T06:56:39.000Z</time>
      </trkpt>
      <trkpt lat="42.38232333" lon="-7.86661667">
        <ele>405.0</ele>
        <time>2018-10-03T06:56:40.000Z</time>
      </trkpt>
      <trkpt lat="42.38232833" lon="-7.86663667">
        <ele>405.0</ele>
        <time>2018-10-03T06:56:41.000Z</time>
      </trkpt>
      <trkpt lat="42.38233333" lon="-7.86665667">
        <ele>405.0</ele>
        <time>2018-10-03T06:56:42.000Z</time>
      </trkpt>
      <trkpt lat="42.38234" lon="-7.86667833">
        <ele>406.0</ele>
        <time>2018-10-03T06:56:43.000Z</time>
      </trkpt>
      <trkpt lat="42.38234333" lon="-7.86669667">
        <ele>406.0</ele>
        <time>2018-10-03T06:56:44.000Z</time>
      </trkpt>
      <trkpt lat="42.38234667" lon="-7.86671">
        <ele>406.0</ele>
        <time>2018-10-03T06:56:45.000Z</time>
      </trkpt>
      <trkpt lat="42.38234833" lon="-7.866715">
        <ele>406.0</ele>
        <time>2018-10-03T06:56:46.000Z</time>
      </trkpt>
      <trkpt lat="42.38234833" lon="-7.86673">
        <ele>406.0</ele>
        <time>2018-10-03T06:56:47.000Z</time>
      </trkpt>
      <trkpt lat="42.38235" lon="-7.86674833">
        <ele>406.0</ele>
        <time>2018-10-03T06:56:48.000Z</time>
      </trkpt>
      <trkpt lat="42.38235333" lon="-7.86676833">
        <ele>407.0</ele>
        <time>2018-10-03T06:56:49.000Z</time>
      </trkpt>
      <trkpt lat="42.38235667" lon="-7.86678667">
        <ele>407.0</ele>
        <time>2018-10-03T06:56:50.000Z</time>
      </trkpt>
      <trkpt lat="42.38236" lon="-7.86680667">
        <ele>407.0</ele>
        <time>2018-10-03T06:56:51.000Z</time>
      </trkpt>
      <trkpt lat="42.382365" lon="-7.86682667">
        <ele>407.0</ele>
        <time>2018-10-03T06:56:52.000Z</time>
      </trkpt>
      <trkpt lat="42.38236833" lon="-7.866845">
        <ele>407.0</ele>
        <time>2018-10-03T06:56:53.000Z</time>
      </trkpt>
      <trkpt lat="42.38237167" lon="-7.86686167">
        <ele>408.0</ele>
        <time>2018-10-03T06:56:54.000Z</time>
      </trkpt>
      <trkpt lat="42.38237667" lon="-7.86688167">
        <ele>408.0</ele>
        <time>2018-10-03T06:56:55.000Z</time>
      </trkpt>
      <trkpt lat="42.38238167" lon="-7.86689833">
        <ele>408.0</ele>
        <time>2018-10-03T06:56:56.000Z</time>
      </trkpt>
      <trkpt lat="42.38238667" lon="-7.866915">
        <ele>408.0</ele>
        <time>2018-10-03T06:56:57.000Z</time>
      </trkpt>
      <trkpt lat="42.38239333" lon="-7.86693167">
        <ele>408.0</ele>
        <time>2018-10-03T06:56:58.000Z</time>
      </trkpt>
      <trkpt lat="42.38239833" lon="-7.86694833">
        <ele>408.0</ele>
        <time>2018-10-03T06:56:59.000Z</time>
      </trkpt>
      <trkpt lat="42.38240333" lon="-7.866965">
        <ele>408.0</ele>
        <time>2018-10-03T06:57:00.000Z</time>
      </trkpt>
      <trkpt lat="42.38241" lon="-7.86698">
        <ele>408.0</ele>
        <time>2018-10-03T06:57:01.000Z</time>
      </trkpt>
      <trkpt lat="42.38241667" lon="-7.86699667">
        <ele>408.0</ele>
        <time>2018-10-03T06:57:02.000Z</time>
      </trkpt>
      <trkpt lat="42.38242333" lon="-7.86701333">
        <ele>408.0</ele>
        <time>2018-10-03T06:57:03.000Z</time>
      </trkpt>
      <trkpt lat="42.38243167" lon="-7.86702833">
        <ele>408.0</ele>
        <time>2018-10-03T06:57:04.000Z</time>
      </trkpt>
      <trkpt lat="42.38244167" lon="-7.86704333">
        <ele>409.0</ele>
        <time>2018-10-03T06:57:05.000Z</time>
      </trkpt>
      <trkpt lat="42.38245333" lon="-7.86705833">
        <ele>409.0</ele>
        <time>2018-10-03T06:57:06.000Z</time>
      </trkpt>
      <trkpt lat="42.38246333" lon="-7.86707333">
        <ele>409.0</ele>
        <time>2018-10-03T06:57:07.000Z</time>
      </trkpt>
      <trkpt lat="42.382475" lon="-7.86708833">
        <ele>409.0</ele>
        <time>2018-10-03T06:57:08.000Z</time>
      </trkpt>
      <trkpt lat="42.382485" lon="-7.86710167">
        <ele>409.0</ele>
        <time>2018-10-03T06:57:09.000Z</time>
      </trkpt>
      <trkpt lat="42.38249667" lon="-7.86711333">
        <ele>409.0</ele>
        <time>2018-10-03T06:57:10.000Z</time>
      </trkpt>
      <trkpt lat="42.38251" lon="-7.867125">
        <ele>409.0</ele>
        <time>2018-10-03T06:57:11.000Z</time>
      </trkpt>
      <trkpt lat="42.38252333" lon="-7.86713667">
        <ele>409.0</ele>
        <time>2018-10-03T06:57:12.000Z</time>
      </trkpt>
      <trkpt lat="42.38253667" lon="-7.86714667">
        <ele>409.0</ele>
        <time>2018-10-03T06:57:13.000Z</time>
      </trkpt>
      <trkpt lat="42.38255" lon="-7.86715667">
        <ele>409.0</ele>
        <time>2018-10-03T06:57:14.000Z</time>
      </trkpt>
      <trkpt lat="42.38256333" lon="-7.86716667">
        <ele>409.0</ele>
        <time>2018-10-03T06:57:15.000Z</time>
      </trkpt>
      <trkpt lat="42.38257833" lon="-7.867175">
        <ele>409.0</ele>
        <time>2018-10-03T06:57:16.000Z</time>
      </trkpt>
      <trkpt lat="42.38259" lon="-7.86718667">
        <ele>409.0</ele>
        <time>2018-10-03T06:57:17.000Z</time>
      </trkpt>
      <trkpt lat="42.38260167" lon="-7.867195">
        <ele>409.0</ele>
        <time>2018-10-03T06:57:18.000Z</time>
      </trkpt>
      <trkpt lat="42.382615" lon="-7.86720167">
        <ele>410.0</ele>
        <time>2018-10-03T06:57:19.000Z</time>
      </trkpt>
      <trkpt lat="42.38262833" lon="-7.86720833">
        <ele>410.0</ele>
        <time>2018-10-03T06:57:20.000Z</time>
      </trkpt>
      <trkpt lat="42.38264333" lon="-7.867215">
        <ele>410.0</ele>
        <time>2018-10-03T06:57:21.000Z</time>
      </trkpt>
      <trkpt lat="42.38265667" lon="-7.86722333">
        <ele>410.0</ele>
        <time>2018-10-03T06:57:22.000Z</time>
      </trkpt>
      <trkpt lat="42.38267167" lon="-7.86722833">
        <ele>410.0</ele>
        <time>2018-10-03T06:57:23.000Z</time>
      </trkpt>
      <trkpt lat="42.382685" lon="-7.86723667">
        <ele>410.0</ele>
        <time>2018-10-03T06:57:24.000Z</time>
      </trkpt>
      <trkpt lat="42.38269833" lon="-7.86724333">
        <ele>410.0</ele>
        <time>2018-10-03T06:57:25.000Z</time>
      </trkpt>
      <trkpt lat="42.382715" lon="-7.86724667">
        <ele>410.0</ele>
        <time>2018-10-03T06:57:26.000Z</time>
      </trkpt>
      <trkpt lat="42.38272833" lon="-7.86725167">
        <ele>410.0</ele>
        <time>2018-10-03T06:57:27.000Z</time>
      </trkpt>
      <trkpt lat="42.382745" lon="-7.867255">
        <ele>410.0</ele>
        <time>2018-10-03T06:57:28.000Z</time>
      </trkpt>
      <trkpt lat="42.38276167" lon="-7.86726">
        <ele>410.0</ele>
        <time>2018-10-03T06:57:29.000Z</time>
      </trkpt>
      <trkpt lat="42.38277833" lon="-7.867265">
        <ele>410.0</ele>
        <time>2018-10-03T06:57:30.000Z</time>
      </trkpt>
      <trkpt lat="42.38279333" lon="-7.86727">
        <ele>410.0</ele>
        <time>2018-10-03T06:57:31.000Z</time>
      </trkpt>
      <trkpt lat="42.38280833" lon="-7.867275">
        <ele>410.0</ele>
        <time>2018-10-03T06:57:32.000Z</time>
      </trkpt>
      <trkpt lat="42.38282333" lon="-7.86728">
        <ele>410.0</ele>
        <time>2018-10-03T06:57:33.000Z</time>
      </trkpt>
      <trkpt lat="42.38283833" lon="-7.867285">
        <ele>410.0</ele>
        <time>2018-10-03T06:57:34.000Z</time>
      </trkpt>
      <trkpt lat="42.38285333" lon="-7.86728833">
        <ele>410.0</ele>
        <time>2018-10-03T06:57:35.000Z</time>
      </trkpt>
      <trkpt lat="42.382865" lon="-7.867295">
        <ele>410.0</ele>
        <time>2018-10-03T06:57:36.000Z</time>
      </trkpt>
      <trkpt lat="42.38287833" lon="-7.86730167">
        <ele>410.0</ele>
        <time>2018-10-03T06:57:37.000Z</time>
      </trkpt>
      <trkpt lat="42.38289167" lon="-7.86730667">
        <ele>410.0</ele>
        <time>2018-10-03T06:57:38.000Z</time>
      </trkpt>
      <trkpt lat="42.382905" lon="-7.86731167">
        <ele>411.0</ele>
        <time>2018-10-03T06:57:39.000Z</time>
      </trkpt>
      <trkpt lat="42.38292" lon="-7.86731833">
        <ele>411.0</ele>
        <time>2018-10-03T06:57:40.000Z</time>
      </trkpt>
      <trkpt lat="42.38293333" lon="-7.867325">
        <ele>411.0</ele>
        <time>2018-10-03T06:57:41.000Z</time>
      </trkpt>
      <trkpt lat="42.38294667" lon="-7.86733">
        <ele>411.0</ele>
        <time>2018-10-03T06:57:42.000Z</time>
      </trkpt>
      <trkpt lat="42.38296333" lon="-7.86733333">
        <ele>411.0</ele>
        <time>2018-10-03T06:57:43.000Z</time>
      </trkpt>
      <trkpt lat="42.38298" lon="-7.86733667">
        <ele>411.0</ele>
        <time>2018-10-03T06:57:44.000Z</time>
      </trkpt>
      <trkpt lat="42.38299333" lon="-7.86734167">
        <ele>411.0</ele>
        <time>2018-10-03T06:57:45.000Z</time>
      </trkpt>
      <trkpt lat="42.383005" lon="-7.86734833">
        <ele>412.0</ele>
        <time>2018-10-03T06:57:46.000Z</time>
      </trkpt>
      <trkpt lat="42.38301667" lon="-7.86735333">
        <ele>412.0</ele>
        <time>2018-10-03T06:57:47.000Z</time>
      </trkpt>
      <trkpt lat="42.38303" lon="-7.86735833">
        <ele>412.0</ele>
        <time>2018-10-03T06:57:48.000Z</time>
      </trkpt>
      <trkpt lat="42.38304333" lon="-7.86736333">
        <ele>412.0</ele>
        <time>2018-10-03T06:57:49.000Z</time>
      </trkpt>
      <trkpt lat="42.38305833" lon="-7.86736833">
        <ele>412.0</ele>
        <time>2018-10-03T06:57:50.000Z</time>
      </trkpt>
      <trkpt lat="42.38307333" lon="-7.86737333">
        <ele>412.0</ele>
        <time>2018-10-03T06:57:51.000Z</time>
      </trkpt>
      <trkpt lat="42.38308667" lon="-7.86737833">
        <ele>412.0</ele>
        <time>2018-10-03T06:57:52.000Z</time>
      </trkpt>
      <trkpt lat="42.38310167" lon="-7.867385">
        <ele>413.0</ele>
        <time>2018-10-03T06:57:53.000Z</time>
      </trkpt>
      <trkpt lat="42.383115" lon="-7.86739">
        <ele>413.0</ele>
        <time>2018-10-03T06:57:54.000Z</time>
      </trkpt>
      <trkpt lat="42.38312833" lon="-7.86739833">
        <ele>413.0</ele>
        <time>2018-10-03T06:57:55.000Z</time>
      </trkpt>
      <trkpt lat="42.38314333" lon="-7.86740333">
        <ele>413.0</ele>
        <time>2018-10-03T06:57:56.000Z</time>
      </trkpt>
      <trkpt lat="42.38315667" lon="-7.86741167">
        <ele>413.0</ele>
        <time>2018-10-03T06:57:57.000Z</time>
      </trkpt>
      <trkpt lat="42.38317167" lon="-7.86741833">
        <ele>413.0</ele>
        <time>2018-10-03T06:57:58.000Z</time>
      </trkpt>
      <trkpt lat="42.383185" lon="-7.867425">
        <ele>413.0</ele>
        <time>2018-10-03T06:57:59.000Z</time>
      </trkpt>
      <trkpt lat="42.38319833" lon="-7.86743">
        <ele>413.0</ele>
        <time>2018-10-03T06:58:00.000Z</time>
      </trkpt>
      <trkpt lat="42.383215" lon="-7.86743667">
        <ele>414.0</ele>
        <time>2018-10-03T06:58:01.000Z</time>
      </trkpt>
      <trkpt lat="42.38323" lon="-7.86744167">
        <ele>414.0</ele>
        <time>2018-10-03T06:58:02.000Z</time>
      </trkpt>
      <trkpt lat="42.383245" lon="-7.86744833">
        <ele>414.0</ele>
        <time>2018-10-03T06:58:03.000Z</time>
      </trkpt>
      <trkpt lat="42.38326167" lon="-7.86745333">
        <ele>414.0</ele>
        <time>2018-10-03T06:58:04.000Z</time>
      </trkpt>
      <trkpt lat="42.38328" lon="-7.86745833">
        <ele>414.0</ele>
        <time>2018-10-03T06:58:05.000Z</time>
      </trkpt>
      <trkpt lat="42.383295" lon="-7.867465">
        <ele>414.0</ele>
        <time>2018-10-03T06:58:06.000Z</time>
      </trkpt>
      <trkpt lat="42.383315" lon="-7.86747333">
        <ele>414.0</ele>
        <time>2018-10-03T06:58:07.000Z</time>
      </trkpt>
      <trkpt lat="42.38332833" lon="-7.86748167">
        <ele>414.0</ele>
        <time>2018-10-03T06:58:08.000Z</time>
      </trkpt>
      <trkpt lat="42.38334" lon="-7.86748833">
        <ele>414.0</ele>
        <time>2018-10-03T06:58:09.000Z</time>
      </trkpt>
      <trkpt lat="42.38335667" lon="-7.867495">
        <ele>414.0</ele>
        <time>2018-10-03T06:58:10.000Z</time>
      </trkpt>
      <trkpt lat="42.38337167" lon="-7.86750167">
        <ele>414.0</ele>
        <time>2018-10-03T06:58:11.000Z</time>
      </trkpt>
      <trkpt lat="42.38339" lon="-7.86750833">
        <ele>414.0</ele>
        <time>2018-10-03T06:58:12.000Z</time>
      </trkpt>
      <trkpt lat="42.38341" lon="-7.86751">
        <ele>414.0</ele>
        <time>2018-10-03T06:58:13.000Z</time>
      </trkpt>
      <trkpt lat="42.38342667" lon="-7.86751">
        <ele>414.0</ele>
        <time>2018-10-03T06:58:14.000Z</time>
      </trkpt>
      <trkpt lat="42.38344333" lon="-7.86751167">
        <ele>414.0</ele>
        <time>2018-10-03T06:58:15.000Z</time>
      </trkpt>
      <trkpt lat="42.38346" lon="-7.86751667">
        <ele>414.0</ele>
        <time>2018-10-03T06:58:16.000Z</time>
      </trkpt>
      <trkpt lat="42.38347333" lon="-7.86752167">
        <ele>414.0</ele>
        <time>2018-10-03T06:58:17.000Z</time>
      </trkpt>
      <trkpt lat="42.38348667" lon="-7.86752667">
        <ele>414.0</ele>
        <time>2018-10-03T06:58:18.000Z</time>
      </trkpt>
      <trkpt lat="42.38350333" lon="-7.86753167">
        <ele>414.0</ele>
        <time>2018-10-03T06:58:19.000Z</time>
      </trkpt>
      <trkpt lat="42.38352167" lon="-7.86753667">
        <ele>414.0</ele>
        <time>2018-10-03T06:58:20.000Z</time>
      </trkpt>
      <trkpt lat="42.38354167" lon="-7.86754">
        <ele>414.0</ele>
        <time>2018-10-03T06:58:21.000Z</time>
      </trkpt>
      <trkpt lat="42.38356" lon="-7.867545">
        <ele>414.0</ele>
        <time>2018-10-03T06:58:22.000Z</time>
      </trkpt>
      <trkpt lat="42.38357667" lon="-7.86755">
        <ele>415.0</ele>
        <time>2018-10-03T06:58:23.000Z</time>
      </trkpt>
      <trkpt lat="42.38359167" lon="-7.867555">
        <ele>415.0</ele>
        <time>2018-10-03T06:58:24.000Z</time>
      </trkpt>
      <trkpt lat="42.38360667" lon="-7.86756">
        <ele>415.0</ele>
        <time>2018-10-03T06:58:25.000Z</time>
      </trkpt>
      <trkpt lat="42.38362" lon="-7.86756667">
        <ele>415.0</ele>
        <time>2018-10-03T06:58:26.000Z</time>
      </trkpt>
      <trkpt lat="42.38363333" lon="-7.86757167">
        <ele>415.0</ele>
        <time>2018-10-03T06:58:27.000Z</time>
      </trkpt>
      <trkpt lat="42.383645" lon="-7.86757833">
        <ele>415.0</ele>
        <time>2018-10-03T06:58:28.000Z</time>
      </trkpt>
      <trkpt lat="42.38365833" lon="-7.867585">
        <ele>415.0</ele>
        <time>2018-10-03T06:58:29.000Z</time>
      </trkpt>
      <trkpt lat="42.38367333" lon="-7.86759167">
        <ele>415.0</ele>
        <time>2018-10-03T06:58:30.000Z</time>
      </trkpt>
      <trkpt lat="42.38368833" lon="-7.86759833">
        <ele>416.0</ele>
        <time>2018-10-03T06:58:31.000Z</time>
      </trkpt>
      <trkpt lat="42.38370167" lon="-7.86761">
        <ele>416.0</ele>
        <time>2018-10-03T06:58:32.000Z</time>
      </trkpt>
      <trkpt lat="42.38371667" lon="-7.86762">
        <ele>416.0</ele>
        <time>2018-10-03T06:58:33.000Z</time>
      </trkpt>
      <trkpt lat="42.38373167" lon="-7.86762667">
        <ele>416.0</ele>
        <time>2018-10-03T06:58:34.000Z</time>
      </trkpt>
      <trkpt lat="42.38374833" lon="-7.86763333">
        <ele>416.0</ele>
        <time>2018-10-03T06:58:35.000Z</time>
      </trkpt>
      <trkpt lat="42.38376167" lon="-7.86764">
        <ele>416.0</ele>
        <time>2018-10-03T06:58:36.000Z</time>
      </trkpt>
      <trkpt lat="42.383775" lon="-7.86764667">
        <ele>416.0</ele>
        <time>2018-10-03T06:58:37.000Z</time>
      </trkpt>
      <trkpt lat="42.38379" lon="-7.86765333">
        <ele>416.0</ele>
        <time>2018-10-03T06:58:38.000Z</time>
      </trkpt>
      <trkpt lat="42.38380167" lon="-7.86766">
        <ele>416.0</ele>
        <time>2018-10-03T06:58:39.000Z</time>
      </trkpt>
      <trkpt lat="42.38381667" lon="-7.86766667">
        <ele>416.0</ele>
        <time>2018-10-03T06:58:40.000Z</time>
      </trkpt>
      <trkpt lat="42.38383333" lon="-7.86767333">
        <ele>416.0</ele>
        <time>2018-10-03T06:58:41.000Z</time>
      </trkpt>
      <trkpt lat="42.38385167" lon="-7.86767667">
        <ele>416.0</ele>
        <time>2018-10-03T06:58:42.000Z</time>
      </trkpt>
      <trkpt lat="42.38387167" lon="-7.86768">
        <ele>416.0</ele>
        <time>2018-10-03T06:58:43.000Z</time>
      </trkpt>
      <trkpt lat="42.38389167" lon="-7.86768333">
        <ele>415.0</ele>
        <time>2018-10-03T06:58:44.000Z</time>
      </trkpt>
      <trkpt lat="42.38391167" lon="-7.86769">
        <ele>415.0</ele>
        <time>2018-10-03T06:58:45.000Z</time>
      </trkpt>
      <trkpt lat="42.38392833" lon="-7.86769667">
        <ele>415.0</ele>
        <time>2018-10-03T06:58:46.000Z</time>
      </trkpt>
      <trkpt lat="42.383945" lon="-7.86770333">
        <ele>415.0</ele>
        <time>2018-10-03T06:58:47.000Z</time>
      </trkpt>
      <trkpt lat="42.38396" lon="-7.86771">
        <ele>415.0</ele>
        <time>2018-10-03T06:58:48.000Z</time>
      </trkpt>
      <trkpt lat="42.38397667" lon="-7.867715">
        <ele>415.0</ele>
        <time>2018-10-03T06:58:49.000Z</time>
      </trkpt>
      <trkpt lat="42.38399167" lon="-7.867715">
        <ele>415.0</ele>
        <time>2018-10-03T06:58:50.000Z</time>
      </trkpt>
      <trkpt lat="42.38400833" lon="-7.867715">
        <ele>415.0</ele>
        <time>2018-10-03T06:58:51.000Z</time>
      </trkpt>
      <trkpt lat="42.38402667" lon="-7.867715">
        <ele>415.0</ele>
        <time>2018-10-03T06:58:52.000Z</time>
      </trkpt>
      <trkpt lat="42.38404667" lon="-7.86771667">
        <ele>415.0</ele>
        <time>2018-10-03T06:58:53.000Z</time>
      </trkpt>
      <trkpt lat="42.384065" lon="-7.86772">
        <ele>415.0</ele>
        <time>2018-10-03T06:58:54.000Z</time>
      </trkpt>
      <trkpt lat="42.38408167" lon="-7.86772167">
        <ele>415.0</ele>
        <time>2018-10-03T06:58:55.000Z</time>
      </trkpt>
      <trkpt lat="42.38409833" lon="-7.867725">
        <ele>414.0</ele>
        <time>2018-10-03T06:58:56.000Z</time>
      </trkpt>
      <trkpt lat="42.38411333" lon="-7.86772833">
        <ele>414.0</ele>
        <time>2018-10-03T06:58:57.000Z</time>
      </trkpt>
      <trkpt lat="42.38412833" lon="-7.86773333">
        <ele>414.0</ele>
        <time>2018-10-03T06:58:58.000Z</time>
      </trkpt>
      <trkpt lat="42.38414333" lon="-7.86774">
        <ele>414.0</ele>
        <time>2018-10-03T06:58:59.000Z</time>
      </trkpt>
      <trkpt lat="42.38415833" lon="-7.86774667">
        <ele>414.0</ele>
        <time>2018-10-03T06:59:00.000Z</time>
      </trkpt>
      <trkpt lat="42.384175" lon="-7.86775333">
        <ele>414.0</ele>
        <time>2018-10-03T06:59:01.000Z</time>
      </trkpt>
      <trkpt lat="42.38419167" lon="-7.86775667">
        <ele>414.0</ele>
        <time>2018-10-03T06:59:02.000Z</time>
      </trkpt>
      <trkpt lat="42.38420833" lon="-7.86776167">
        <ele>414.0</ele>
        <time>2018-10-03T06:59:03.000Z</time>
      </trkpt>
      <trkpt lat="42.38422667" lon="-7.86776333">
        <ele>414.0</ele>
        <time>2018-10-03T06:59:04.000Z</time>
      </trkpt>
      <trkpt lat="42.384245" lon="-7.86776667">
        <ele>414.0</ele>
        <time>2018-10-03T06:59:05.000Z</time>
      </trkpt>
      <trkpt lat="42.38426167" lon="-7.86777167">
        <ele>414.0</ele>
        <time>2018-10-03T06:59:06.000Z</time>
      </trkpt>
      <trkpt lat="42.38427833" lon="-7.86777833">
        <ele>414.0</ele>
        <time>2018-10-03T06:59:07.000Z</time>
      </trkpt>
      <trkpt lat="42.38429333" lon="-7.86778333">
        <ele>414.0</ele>
        <time>2018-10-03T06:59:08.000Z</time>
      </trkpt>
      <trkpt lat="42.38430833" lon="-7.86779">
        <ele>414.0</ele>
        <time>2018-10-03T06:59:09.000Z</time>
      </trkpt>
      <trkpt lat="42.38432333" lon="-7.8678">
        <ele>414.0</ele>
        <time>2018-10-03T06:59:10.000Z</time>
      </trkpt>
      <trkpt lat="42.384335" lon="-7.86781">
        <ele>414.0</ele>
        <time>2018-10-03T06:59:11.000Z</time>
      </trkpt>
      <trkpt lat="42.38435" lon="-7.86781833">
        <ele>414.0</ele>
        <time>2018-10-03T06:59:12.000Z</time>
      </trkpt>
      <trkpt lat="42.38436667" lon="-7.86782667">
        <ele>414.0</ele>
        <time>2018-10-03T06:59:13.000Z</time>
      </trkpt>
      <trkpt lat="42.38438167" lon="-7.86783167">
        <ele>414.0</ele>
        <time>2018-10-03T06:59:14.000Z</time>
      </trkpt>
      <trkpt lat="42.3844" lon="-7.86783833">
        <ele>414.0</ele>
        <time>2018-10-03T06:59:15.000Z</time>
      </trkpt>
      <trkpt lat="42.384415" lon="-7.86784333">
        <ele>414.0</ele>
        <time>2018-10-03T06:59:16.000Z</time>
      </trkpt>
      <trkpt lat="42.38442833" lon="-7.86785">
        <ele>414.0</ele>
        <time>2018-10-03T06:59:17.000Z</time>
      </trkpt>
      <trkpt lat="42.38444333" lon="-7.86785667">
        <ele>414.0</ele>
        <time>2018-10-03T06:59:18.000Z</time>
      </trkpt>
      <trkpt lat="42.384455" lon="-7.86786333">
        <ele>414.0</ele>
        <time>2018-10-03T06:59:19.000Z</time>
      </trkpt>
      <trkpt lat="42.38446833" lon="-7.86786833">
        <ele>414.0</ele>
        <time>2018-10-03T06:59:20.000Z</time>
      </trkpt>
      <trkpt lat="42.38448333" lon="-7.867875">
        <ele>414.0</ele>
        <time>2018-10-03T06:59:21.000Z</time>
      </trkpt>
      <trkpt lat="42.38449667" lon="-7.86788167">
        <ele>414.0</ele>
        <time>2018-10-03T06:59:22.000Z</time>
      </trkpt>
      <trkpt lat="42.38451167" lon="-7.86788667">
        <ele>414.0</ele>
        <time>2018-10-03T06:59:23.000Z</time>
      </trkpt>
      <trkpt lat="42.38452667" lon="-7.86789333">
        <ele>414.0</ele>
        <time>2018-10-03T06:59:24.000Z</time>
      </trkpt>
      <trkpt lat="42.38454" lon="-7.8679">
        <ele>414.0</ele>
        <time>2018-10-03T06:59:25.000Z</time>
      </trkpt>
      <trkpt lat="42.38455667" lon="-7.86790667">
        <ele>414.0</ele>
        <time>2018-10-03T06:59:26.000Z</time>
      </trkpt>
      <trkpt lat="42.38457333" lon="-7.86791333">
        <ele>414.0</ele>
        <time>2018-10-03T06:59:27.000Z</time>
      </trkpt>
      <trkpt lat="42.38459" lon="-7.86792167">
        <ele>414.0</ele>
        <time>2018-10-03T06:59:28.000Z</time>
      </trkpt>
      <trkpt lat="42.384605" lon="-7.86792833">
        <ele>414.0</ele>
        <time>2018-10-03T06:59:29.000Z</time>
      </trkpt>
      <trkpt lat="42.38462333" lon="-7.86793667">
        <ele>414.0</ele>
        <time>2018-10-03T06:59:30.000Z</time>
      </trkpt>
      <trkpt lat="42.38464167" lon="-7.86794667">
        <ele>414.0</ele>
        <time>2018-10-03T06:59:31.000Z</time>
      </trkpt>
      <trkpt lat="42.38465833" lon="-7.86795333">
        <ele>414.0</ele>
        <time>2018-10-03T06:59:32.000Z</time>
      </trkpt>
      <trkpt lat="42.38467333" lon="-7.86796167">
        <ele>414.0</ele>
        <time>2018-10-03T06:59:33.000Z</time>
      </trkpt>
      <trkpt lat="42.38469" lon="-7.86796833">
        <ele>414.0</ele>
        <time>2018-10-03T06:59:34.000Z</time>
      </trkpt>
      <trkpt lat="42.384705" lon="-7.86797667">
        <ele>414.0</ele>
        <time>2018-10-03T06:59:35.000Z</time>
      </trkpt>
      <trkpt lat="42.38472" lon="-7.867985">
        <ele>414.0</ele>
        <time>2018-10-03T06:59:36.000Z</time>
      </trkpt>
      <trkpt lat="42.38473333" lon="-7.86799333">
        <ele>414.0</ele>
        <time>2018-10-03T06:59:37.000Z</time>
      </trkpt>
      <trkpt lat="42.38474667" lon="-7.86800333">
        <ele>414.0</ele>
        <time>2018-10-03T06:59:38.000Z</time>
      </trkpt>
      <trkpt lat="42.38476167" lon="-7.86801167">
        <ele>414.0</ele>
        <time>2018-10-03T06:59:39.000Z</time>
      </trkpt>
      <trkpt lat="42.38477833" lon="-7.86802">
        <ele>414.0</ele>
        <time>2018-10-03T06:59:40.000Z</time>
      </trkpt>
      <trkpt lat="42.38479667" lon="-7.86803">
        <ele>414.0</ele>
        <time>2018-10-03T06:59:41.000Z</time>
      </trkpt>
      <trkpt lat="42.38481333" lon="-7.86804333">
        <ele>414.0</ele>
        <time>2018-10-03T06:59:42.000Z</time>
      </trkpt>
      <trkpt lat="42.38482667" lon="-7.86805333">
        <ele>415.0</ele>
        <time>2018-10-03T06:59:43.000Z</time>
      </trkpt>
      <trkpt lat="42.38483667" lon="-7.86806333">
        <ele>415.0</ele>
        <time>2018-10-03T06:59:44.000Z</time>
      </trkpt>
      <trkpt lat="42.38484667" lon="-7.868075">
        <ele>415.0</ele>
        <time>2018-10-03T06:59:45.000Z</time>
      </trkpt>
      <trkpt lat="42.38485833" lon="-7.868085">
        <ele>415.0</ele>
        <time>2018-10-03T06:59:46.000Z</time>
      </trkpt>
      <trkpt lat="42.38487167" lon="-7.868095">
        <ele>415.0</ele>
        <time>2018-10-03T06:59:47.000Z</time>
      </trkpt>
      <trkpt lat="42.384885" lon="-7.86810667">
        <ele>415.0</ele>
        <time>2018-10-03T06:59:48.000Z</time>
      </trkpt>
      <trkpt lat="42.38489833" lon="-7.86811833">
        <ele>415.0</ele>
        <time>2018-10-03T06:59:49.000Z</time>
      </trkpt>
      <trkpt lat="42.384915" lon="-7.86813">
        <ele>415.0</ele>
        <time>2018-10-03T06:59:50.000Z</time>
      </trkpt>
      <trkpt lat="42.38493" lon="-7.86814167">
        <ele>415.0</ele>
        <time>2018-10-03T06:59:51.000Z</time>
      </trkpt>
      <trkpt lat="42.38494333" lon="-7.868155">
        <ele>415.0</ele>
        <time>2018-10-03T06:59:52.000Z</time>
      </trkpt>
      <trkpt lat="42.38495833" lon="-7.86816667">
        <ele>415.0</ele>
        <time>2018-10-03T06:59:53.000Z</time>
      </trkpt>
      <trkpt lat="42.38496833" lon="-7.86818">
        <ele>415.0</ele>
        <time>2018-10-03T06:59:54.000Z</time>
      </trkpt>
      <trkpt lat="42.38498" lon="-7.86819333">
        <ele>415.0</ele>
        <time>2018-10-03T06:59:55.000Z</time>
      </trkpt>
      <trkpt lat="42.38499167" lon="-7.86820667">
        <ele>414.0</ele>
        <time>2018-10-03T06:59:56.000Z</time>
      </trkpt>
      <trkpt lat="42.385005" lon="-7.86821833">
        <ele>414.0</ele>
        <time>2018-10-03T06:59:57.000Z</time>
      </trkpt>
      <trkpt lat="42.38502" lon="-7.86823167">
        <ele>414.0</ele>
        <time>2018-10-03T06:59:58.000Z</time>
      </trkpt>
      <trkpt lat="42.38503333" lon="-7.86824333">
        <ele>414.0</ele>
        <time>2018-10-03T06:59:59.000Z</time>
      </trkpt>
      <trkpt lat="42.38504833" lon="-7.86825333">
        <ele>414.0</ele>
        <time>2018-10-03T07:00:00.000Z</time>
      </trkpt>
      <trkpt lat="42.38506333" lon="-7.868265">
        <ele>414.0</ele>
        <time>2018-10-03T07:00:01.000Z</time>
      </trkpt>
      <trkpt lat="42.38507667" lon="-7.86827667">
        <ele>414.0</ele>
        <time>2018-10-03T07:00:02.000Z</time>
      </trkpt>
      <trkpt lat="42.38508667" lon="-7.86829">
        <ele>414.0</ele>
        <time>2018-10-03T07:00:03.000Z</time>
      </trkpt>
      <trkpt lat="42.38509667" lon="-7.868305">
        <ele>415.0</ele>
        <time>2018-10-03T07:00:04.000Z</time>
      </trkpt>
      <trkpt lat="42.38511" lon="-7.86831833">
        <ele>415.0</ele>
        <time>2018-10-03T07:00:05.000Z</time>
      </trkpt>
      <trkpt lat="42.38512167" lon="-7.86833333">
        <ele>415.0</ele>
        <time>2018-10-03T07:00:06.000Z</time>
      </trkpt>
      <trkpt lat="42.385135" lon="-7.86834833">
        <ele>415.0</ele>
        <time>2018-10-03T07:00:07.000Z</time>
      </trkpt>
      <trkpt lat="42.38514833" lon="-7.86836167">
        <ele>415.0</ele>
        <time>2018-10-03T07:00:08.000Z</time>
      </trkpt>
      <trkpt lat="42.38516167" lon="-7.868375">
        <ele>415.0</ele>
        <time>2018-10-03T07:00:09.000Z</time>
      </trkpt>
      <trkpt lat="42.385175" lon="-7.86838667">
        <ele>415.0</ele>
        <time>2018-10-03T07:00:10.000Z</time>
      </trkpt>
      <trkpt lat="42.38518833" lon="-7.86839667">
        <ele>415.0</ele>
        <time>2018-10-03T07:00:11.000Z</time>
      </trkpt>
      <trkpt lat="42.38520167" lon="-7.86840667">
        <ele>415.0</ele>
        <time>2018-10-03T07:00:12.000Z</time>
      </trkpt>
      <trkpt lat="42.385215" lon="-7.86841833">
        <ele>415.0</ele>
        <time>2018-10-03T07:00:13.000Z</time>
      </trkpt>
      <trkpt lat="42.38522833" lon="-7.86842833">
        <ele>415.0</ele>
        <time>2018-10-03T07:00:14.000Z</time>
      </trkpt>
      <trkpt lat="42.38524333" lon="-7.86843667">
        <ele>415.0</ele>
        <time>2018-10-03T07:00:15.000Z</time>
      </trkpt>
      <trkpt lat="42.38525833" lon="-7.86844667">
        <ele>415.0</ele>
        <time>2018-10-03T07:00:16.000Z</time>
      </trkpt>
      <trkpt lat="42.38527167" lon="-7.86846">
        <ele>416.0</ele>
        <time>2018-10-03T07:00:17.000Z</time>
      </trkpt>
      <trkpt lat="42.38528333" lon="-7.86847167">
        <ele>416.0</ele>
        <time>2018-10-03T07:00:18.000Z</time>
      </trkpt>
      <trkpt lat="42.38529667" lon="-7.86848167">
        <ele>416.0</ele>
        <time>2018-10-03T07:00:19.000Z</time>
      </trkpt>
      <trkpt lat="42.38531" lon="-7.86849167">
        <ele>416.0</ele>
        <time>2018-10-03T07:00:20.000Z</time>
      </trkpt>
      <trkpt lat="42.385325" lon="-7.8685">
        <ele>416.0</ele>
        <time>2018-10-03T07:00:21.000Z</time>
      </trkpt>
      <trkpt lat="42.38534167" lon="-7.86851">
        <ele>416.0</ele>
        <time>2018-10-03T07:00:22.000Z</time>
      </trkpt>
      <trkpt lat="42.38535667" lon="-7.86851833">
        <ele>416.0</ele>
        <time>2018-10-03T07:00:23.000Z</time>
      </trkpt>
      <trkpt lat="42.385375" lon="-7.86852667">
        <ele>417.0</ele>
        <time>2018-10-03T07:00:24.000Z</time>
      </trkpt>
      <trkpt lat="42.38539333" lon="-7.86853333">
        <ele>417.0</ele>
        <time>2018-10-03T07:00:25.000Z</time>
      </trkpt>
      <trkpt lat="42.38540667" lon="-7.86854">
        <ele>417.0</ele>
        <time>2018-10-03T07:00:26.000Z</time>
      </trkpt>
      <trkpt lat="42.38542" lon="-7.86854167">
        <ele>417.0</ele>
        <time>2018-10-03T07:00:27.000Z</time>
      </trkpt>
      <trkpt lat="42.38543167" lon="-7.868545">
        <ele>417.0</ele>
        <time>2018-10-03T07:00:28.000Z</time>
      </trkpt>
      <trkpt lat="42.385445" lon="-7.86855">
        <ele>417.0</ele>
        <time>2018-10-03T07:00:29.000Z</time>
      </trkpt>
      <trkpt lat="42.38546" lon="-7.86855833">
        <ele>417.0</ele>
        <time>2018-10-03T07:00:30.000Z</time>
      </trkpt>
      <trkpt lat="42.385475" lon="-7.86856333">
        <ele>417.0</ele>
        <time>2018-10-03T07:00:31.000Z</time>
      </trkpt>
      <trkpt lat="42.38549" lon="-7.86857167">
        <ele>417.0</ele>
        <time>2018-10-03T07:00:32.000Z</time>
      </trkpt>
      <trkpt lat="42.38550333" lon="-7.86858">
        <ele>418.0</ele>
        <time>2018-10-03T07:00:33.000Z</time>
      </trkpt>
      <trkpt lat="42.38551667" lon="-7.86859">
        <ele>418.0</ele>
        <time>2018-10-03T07:00:34.000Z</time>
      </trkpt>
      <trkpt lat="42.38553167" lon="-7.8686">
        <ele>418.0</ele>
        <time>2018-10-03T07:00:35.000Z</time>
      </trkpt>
      <trkpt lat="42.38554333" lon="-7.86861">
        <ele>418.0</ele>
        <time>2018-10-03T07:00:36.000Z</time>
      </trkpt>
      <trkpt lat="42.38555833" lon="-7.86862">
        <ele>418.0</ele>
        <time>2018-10-03T07:00:37.000Z</time>
      </trkpt>
      <trkpt lat="42.38557333" lon="-7.86863167">
        <ele>418.0</ele>
        <time>2018-10-03T07:00:38.000Z</time>
      </trkpt>
      <trkpt lat="42.38559" lon="-7.86864">
        <ele>419.0</ele>
        <time>2018-10-03T07:00:39.000Z</time>
      </trkpt>
      <trkpt lat="42.38560667" lon="-7.86864833">
        <ele>419.0</ele>
        <time>2018-10-03T07:00:40.000Z</time>
      </trkpt>
      <trkpt lat="42.38562333" lon="-7.86865667">
        <ele>419.0</ele>
        <time>2018-10-03T07:00:41.000Z</time>
      </trkpt>
      <trkpt lat="42.38563333" lon="-7.86866833">
        <ele>419.0</ele>
        <time>2018-10-03T07:00:42.000Z</time>
      </trkpt>
      <trkpt lat="42.385645" lon="-7.86868">
        <ele>419.0</ele>
        <time>2018-10-03T07:00:43.000Z</time>
      </trkpt>
      <trkpt lat="42.385655" lon="-7.86869167">
        <ele>419.0</ele>
        <time>2018-10-03T07:00:44.000Z</time>
      </trkpt>
      <trkpt lat="42.38566667" lon="-7.86870667">
        <ele>419.0</ele>
        <time>2018-10-03T07:00:45.000Z</time>
      </trkpt>
      <trkpt lat="42.38568" lon="-7.86871833">
        <ele>419.0</ele>
        <time>2018-10-03T07:00:46.000Z</time>
      </trkpt>
      <trkpt lat="42.38569333" lon="-7.86873">
        <ele>419.0</ele>
        <time>2018-10-03T07:00:47.000Z</time>
      </trkpt>
      <trkpt lat="42.38570667" lon="-7.86873667">
        <ele>420.0</ele>
        <time>2018-10-03T07:00:48.000Z</time>
      </trkpt>
      <trkpt lat="42.38572" lon="-7.868745">
        <ele>420.0</ele>
        <time>2018-10-03T07:00:49.000Z</time>
      </trkpt>
      <trkpt lat="42.38573167" lon="-7.868755">
        <ele>420.0</ele>
        <time>2018-10-03T07:00:50.000Z</time>
      </trkpt>
      <trkpt lat="42.38574333" lon="-7.86876667">
        <ele>420.0</ele>
        <time>2018-10-03T07:00:51.000Z</time>
      </trkpt>
      <trkpt lat="42.385755" lon="-7.868775">
        <ele>420.0</ele>
        <time>2018-10-03T07:00:52.000Z</time>
      </trkpt>
      <trkpt lat="42.38576667" lon="-7.86878167">
        <ele>420.0</ele>
        <time>2018-10-03T07:00:53.000Z</time>
      </trkpt>
      <trkpt lat="42.38578" lon="-7.86879">
        <ele>420.0</ele>
        <time>2018-10-03T07:00:54.000Z</time>
      </trkpt>
      <trkpt lat="42.38579333" lon="-7.8688">
        <ele>420.0</ele>
        <time>2018-10-03T07:00:55.000Z</time>
      </trkpt>
      <trkpt lat="42.38580667" lon="-7.86881">
        <ele>421.0</ele>
        <time>2018-10-03T07:00:56.000Z</time>
      </trkpt>
      <trkpt lat="42.38581833" lon="-7.86882167">
        <ele>421.0</ele>
        <time>2018-10-03T07:00:57.000Z</time>
      </trkpt>
      <trkpt lat="42.38583" lon="-7.868835">
        <ele>421.0</ele>
        <time>2018-10-03T07:00:58.000Z</time>
      </trkpt>
      <trkpt lat="42.38584167" lon="-7.86884833">
        <ele>421.0</ele>
        <time>2018-10-03T07:00:59.000Z</time>
      </trkpt>
      <trkpt lat="42.385855" lon="-7.86886">
        <ele>421.0</ele>
        <time>2018-10-03T07:01:00.000Z</time>
      </trkpt>
      <trkpt lat="42.38587" lon="-7.86887167">
        <ele>421.0</ele>
        <time>2018-10-03T07:01:01.000Z</time>
      </trkpt>
      <trkpt lat="42.38588333" lon="-7.86888167">
        <ele>421.0</ele>
        <time>2018-10-03T07:01:02.000Z</time>
      </trkpt>
      <trkpt lat="42.38589333" lon="-7.86889833">
        <ele>421.0</ele>
        <time>2018-10-03T07:01:03.000Z</time>
      </trkpt>
      <trkpt lat="42.38590667" lon="-7.86891333">
        <ele>421.0</ele>
        <time>2018-10-03T07:01:04.000Z</time>
      </trkpt>
      <trkpt lat="42.38591667" lon="-7.86892833">
        <ele>421.0</ele>
        <time>2018-10-03T07:01:05.000Z</time>
      </trkpt>
      <trkpt lat="42.38592833" lon="-7.86894167">
        <ele>421.0</ele>
        <time>2018-10-03T07:01:06.000Z</time>
      </trkpt>
      <trkpt lat="42.38593833" lon="-7.86895167">
        <ele>421.0</ele>
        <time>2018-10-03T07:01:07.000Z</time>
      </trkpt>
      <trkpt lat="42.38595" lon="-7.86896167">
        <ele>422.0</ele>
        <time>2018-10-03T07:01:08.000Z</time>
      </trkpt>
      <trkpt lat="42.385965" lon="-7.86897167">
        <ele>422.0</ele>
        <time>2018-10-03T07:01:09.000Z</time>
      </trkpt>
      <trkpt lat="42.38598" lon="-7.86898167">
        <ele>422.0</ele>
        <time>2018-10-03T07:01:10.000Z</time>
      </trkpt>
      <trkpt lat="42.38599333" lon="-7.86899167">
        <ele>422.0</ele>
        <time>2018-10-03T07:01:11.000Z</time>
      </trkpt>
      <trkpt lat="42.38600667" lon="-7.86900333">
        <ele>422.0</ele>
        <time>2018-10-03T07:01:12.000Z</time>
      </trkpt>
      <trkpt lat="42.38602333" lon="-7.86901333">
        <ele>422.0</ele>
        <time>2018-10-03T07:01:13.000Z</time>
      </trkpt>
      <trkpt lat="42.38603667" lon="-7.869025">
        <ele>422.0</ele>
        <time>2018-10-03T07:01:14.000Z</time>
      </trkpt>
      <trkpt lat="42.38605167" lon="-7.86903667">
        <ele>422.0</ele>
        <time>2018-10-03T07:01:15.000Z</time>
      </trkpt>
      <trkpt lat="42.386065" lon="-7.869045">
        <ele>422.0</ele>
        <time>2018-10-03T07:01:16.000Z</time>
      </trkpt>
      <trkpt lat="42.38607833" lon="-7.86905333">
        <ele>422.0</ele>
        <time>2018-10-03T07:01:17.000Z</time>
      </trkpt>
      <trkpt lat="42.38609167" lon="-7.86906">
        <ele>422.0</ele>
        <time>2018-10-03T07:01:18.000Z</time>
      </trkpt>
      <trkpt lat="42.386105" lon="-7.86906833">
        <ele>422.0</ele>
        <time>2018-10-03T07:01:19.000Z</time>
      </trkpt>
      <trkpt lat="42.38611833" lon="-7.86907667">
        <ele>422.0</ele>
        <time>2018-10-03T07:01:20.000Z</time>
      </trkpt>
      <trkpt lat="42.386135" lon="-7.86908667">
        <ele>422.0</ele>
        <time>2018-10-03T07:01:21.000Z</time>
      </trkpt>
      <trkpt lat="42.38615" lon="-7.86909667">
        <ele>422.0</ele>
        <time>2018-10-03T07:01:22.000Z</time>
      </trkpt>
      <trkpt lat="42.38616667" lon="-7.869105">
        <ele>422.0</ele>
        <time>2018-10-03T07:01:23.000Z</time>
      </trkpt>
      <trkpt lat="42.38618333" lon="-7.869115">
        <ele>422.0</ele>
        <time>2018-10-03T07:01:24.000Z</time>
      </trkpt>
      <trkpt lat="42.38619667" lon="-7.86912">
        <ele>422.0</ele>
        <time>2018-10-03T07:01:25.000Z</time>
      </trkpt>
      <trkpt lat="42.38621" lon="-7.86912667">
        <ele>422.0</ele>
        <time>2018-10-03T07:01:26.000Z</time>
      </trkpt>
      <trkpt lat="42.38622167" lon="-7.86913667">
        <ele>422.0</ele>
        <time>2018-10-03T07:01:27.000Z</time>
      </trkpt>
      <trkpt lat="42.38623333" lon="-7.86914833">
        <ele>422.0</ele>
        <time>2018-10-03T07:01:28.000Z</time>
      </trkpt>
      <trkpt lat="42.38624833" lon="-7.86915833">
        <ele>422.0</ele>
        <time>2018-10-03T07:01:29.000Z</time>
      </trkpt>
      <trkpt lat="42.38626167" lon="-7.869165">
        <ele>422.0</ele>
        <time>2018-10-03T07:01:30.000Z</time>
      </trkpt>
      <trkpt lat="42.386275" lon="-7.86917333">
        <ele>422.0</ele>
        <time>2018-10-03T07:01:31.000Z</time>
      </trkpt>
      <trkpt lat="42.38628833" lon="-7.86918333">
        <ele>422.0</ele>
        <time>2018-10-03T07:01:32.000Z</time>
      </trkpt>
      <trkpt lat="42.38630333" lon="-7.869195">
        <ele>422.0</ele>
        <time>2018-10-03T07:01:33.000Z</time>
      </trkpt>
      <trkpt lat="42.38632" lon="-7.86920667">
        <ele>422.0</ele>
        <time>2018-10-03T07:01:34.000Z</time>
      </trkpt>
      <trkpt lat="42.386335" lon="-7.86921667">
        <ele>422.0</ele>
        <time>2018-10-03T07:01:35.000Z</time>
      </trkpt>
      <trkpt lat="42.38635" lon="-7.869225">
        <ele>422.0</ele>
        <time>2018-10-03T07:01:36.000Z</time>
      </trkpt>
      <trkpt lat="42.38636167" lon="-7.869235">
        <ele>422.0</ele>
        <time>2018-10-03T07:01:37.000Z</time>
      </trkpt>
      <trkpt lat="42.38637333" lon="-7.869245">
        <ele>422.0</ele>
        <time>2018-10-03T07:01:38.000Z</time>
      </trkpt>
      <trkpt lat="42.38638333" lon="-7.869255">
        <ele>423.0</ele>
        <time>2018-10-03T07:01:39.000Z</time>
      </trkpt>
      <trkpt lat="42.38639667" lon="-7.86926333">
        <ele>423.0</ele>
        <time>2018-10-03T07:01:40.000Z</time>
      </trkpt>
      <trkpt lat="42.38641" lon="-7.86927167">
        <ele>423.0</ele>
        <time>2018-10-03T07:01:41.000Z</time>
      </trkpt>
      <trkpt lat="42.38642333" lon="-7.86928167">
        <ele>423.0</ele>
        <time>2018-10-03T07:01:42.000Z</time>
      </trkpt>
      <trkpt lat="42.38643833" lon="-7.86928833">
        <ele>423.0</ele>
        <time>2018-10-03T07:01:43.000Z</time>
      </trkpt>
      <trkpt lat="42.38645333" lon="-7.86929667">
        <ele>423.0</ele>
        <time>2018-10-03T07:01:44.000Z</time>
      </trkpt>
      <trkpt lat="42.386465" lon="-7.86930667">
        <ele>423.0</ele>
        <time>2018-10-03T07:01:45.000Z</time>
      </trkpt>
      <trkpt lat="42.38648" lon="-7.86931667">
        <ele>423.0</ele>
        <time>2018-10-03T07:01:46.000Z</time>
      </trkpt>
      <trkpt lat="42.38649333" lon="-7.86932667">
        <ele>423.0</ele>
        <time>2018-10-03T07:01:47.000Z</time>
      </trkpt>
      <trkpt lat="42.38650833" lon="-7.869335">
        <ele>423.0</ele>
        <time>2018-10-03T07:01:48.000Z</time>
      </trkpt>
      <trkpt lat="42.38652167" lon="-7.869345">
        <ele>423.0</ele>
        <time>2018-10-03T07:01:49.000Z</time>
      </trkpt>
      <trkpt lat="42.386535" lon="-7.86935667">
        <ele>423.0</ele>
        <time>2018-10-03T07:01:50.000Z</time>
      </trkpt>
      <trkpt lat="42.38654833" lon="-7.86936833">
        <ele>423.0</ele>
        <time>2018-10-03T07:01:51.000Z</time>
      </trkpt>
      <trkpt lat="42.38656" lon="-7.86937833">
        <ele>423.0</ele>
        <time>2018-10-03T07:01:52.000Z</time>
      </trkpt>
      <trkpt lat="42.38657333" lon="-7.86939">
        <ele>423.0</ele>
        <time>2018-10-03T07:01:53.000Z</time>
      </trkpt>
      <trkpt lat="42.38658667" lon="-7.86940167">
        <ele>423.0</ele>
        <time>2018-10-03T07:01:54.000Z</time>
      </trkpt>
      <trkpt lat="42.38659833" lon="-7.86941333">
        <ele>424.0</ele>
        <time>2018-10-03T07:01:55.000Z</time>
      </trkpt>
      <trkpt lat="42.38661333" lon="-7.86942667">
        <ele>424.0</ele>
        <time>2018-10-03T07:01:56.000Z</time>
      </trkpt>
      <trkpt lat="42.38662667" lon="-7.86943833">
        <ele>424.0</ele>
        <time>2018-10-03T07:01:57.000Z</time>
      </trkpt>
      <trkpt lat="42.38664" lon="-7.86945">
        <ele>424.0</ele>
        <time>2018-10-03T07:01:58.000Z</time>
      </trkpt>
      <trkpt lat="42.38665167" lon="-7.86946333">
        <ele>424.0</ele>
        <time>2018-10-03T07:01:59.000Z</time>
      </trkpt>
      <trkpt lat="42.386665" lon="-7.86947667">
        <ele>424.0</ele>
        <time>2018-10-03T07:02:00.000Z</time>
      </trkpt>
      <trkpt lat="42.38667667" lon="-7.86949">
        <ele>424.0</ele>
        <time>2018-10-03T07:02:01.000Z</time>
      </trkpt>
      <trkpt lat="42.38668833" lon="-7.869505">
        <ele>424.0</ele>
        <time>2018-10-03T07:02:02.000Z</time>
      </trkpt>
      <trkpt lat="42.3867" lon="-7.86951833">
        <ele>424.0</ele>
        <time>2018-10-03T07:02:03.000Z</time>
      </trkpt>
      <trkpt lat="42.38671333" lon="-7.86953">
        <ele>425.0</ele>
        <time>2018-10-03T07:02:04.000Z</time>
      </trkpt>
      <trkpt lat="42.38672333" lon="-7.869545">
        <ele>425.0</ele>
        <time>2018-10-03T07:02:05.000Z</time>
      </trkpt>
      <trkpt lat="42.386735" lon="-7.86955833">
        <ele>425.0</ele>
        <time>2018-10-03T07:02:06.000Z</time>
      </trkpt>
      <trkpt lat="42.38674667" lon="-7.86957167">
        <ele>425.0</ele>
        <time>2018-10-03T07:02:07.000Z</time>
      </trkpt>
      <trkpt lat="42.38676" lon="-7.86958333">
        <ele>425.0</ele>
        <time>2018-10-03T07:02:08.000Z</time>
      </trkpt>
      <trkpt lat="42.38677167" lon="-7.869595">
        <ele>426.0</ele>
        <time>2018-10-03T07:02:09.000Z</time>
      </trkpt>
      <trkpt lat="42.38678167" lon="-7.86961">
        <ele>426.0</ele>
        <time>2018-10-03T07:02:10.000Z</time>
      </trkpt>
      <trkpt lat="42.38679167" lon="-7.86962333">
        <ele>426.0</ele>
        <time>2018-10-03T07:02:11.000Z</time>
      </trkpt>
      <trkpt lat="42.38680333" lon="-7.86963667">
        <ele>426.0</ele>
        <time>2018-10-03T07:02:12.000Z</time>
      </trkpt>
      <trkpt lat="42.386815" lon="-7.86965">
        <ele>426.0</ele>
        <time>2018-10-03T07:02:13.000Z</time>
      </trkpt>
      <trkpt lat="42.38682667" lon="-7.869665">
        <ele>426.0</ele>
        <time>2018-10-03T07:02:14.000Z</time>
      </trkpt>
      <trkpt lat="42.38683667" lon="-7.86968167">
        <ele>427.0</ele>
        <time>2018-10-03T07:02:15.000Z</time>
      </trkpt>
      <trkpt lat="42.38684833" lon="-7.86969833">
        <ele>427.0</ele>
        <time>2018-10-03T07:02:16.000Z</time>
      </trkpt>
      <trkpt lat="42.38686" lon="-7.869715">
        <ele>427.0</ele>
        <time>2018-10-03T07:02:17.000Z</time>
      </trkpt>
      <trkpt lat="42.38687333" lon="-7.86972833">
        <ele>427.0</ele>
        <time>2018-10-03T07:02:18.000Z</time>
      </trkpt>
      <trkpt lat="42.386885" lon="-7.86974">
        <ele>427.0</ele>
        <time>2018-10-03T07:02:19.000Z</time>
      </trkpt>
      <trkpt lat="42.386895" lon="-7.86975167">
        <ele>427.0</ele>
        <time>2018-10-03T07:02:20.000Z</time>
      </trkpt>
      <trkpt lat="42.38690667" lon="-7.869765">
        <ele>427.0</ele>
        <time>2018-10-03T07:02:21.000Z</time>
      </trkpt>
      <trkpt lat="42.38691667" lon="-7.86977833">
        <ele>428.0</ele>
        <time>2018-10-03T07:02:22.000Z</time>
      </trkpt>
      <trkpt lat="42.38692667" lon="-7.86979333">
        <ele>428.0</ele>
        <time>2018-10-03T07:02:23.000Z</time>
      </trkpt>
      <trkpt lat="42.38693667" lon="-7.86980667">
        <ele>428.0</ele>
        <time>2018-10-03T07:02:24.000Z</time>
      </trkpt>
      <trkpt lat="42.38695" lon="-7.86982">
        <ele>428.0</ele>
        <time>2018-10-03T07:02:25.000Z</time>
      </trkpt>
      <trkpt lat="42.38696167" lon="-7.869835">
        <ele>428.0</ele>
        <time>2018-10-03T07:02:26.000Z</time>
      </trkpt>
      <trkpt lat="42.386975" lon="-7.86984833">
        <ele>428.0</ele>
        <time>2018-10-03T07:02:27.000Z</time>
      </trkpt>
      <trkpt lat="42.38699" lon="-7.86986167">
        <ele>428.0</ele>
        <time>2018-10-03T07:02:28.000Z</time>
      </trkpt>
      <trkpt lat="42.38700167" lon="-7.869875">
        <ele>429.0</ele>
        <time>2018-10-03T07:02:29.000Z</time>
      </trkpt>
      <trkpt lat="42.387015" lon="-7.86988833">
        <ele>429.0</ele>
        <time>2018-10-03T07:02:30.000Z</time>
      </trkpt>
      <trkpt lat="42.38702667" lon="-7.86990167">
        <ele>429.0</ele>
        <time>2018-10-03T07:02:31.000Z</time>
      </trkpt>
      <trkpt lat="42.38703833" lon="-7.86991667">
        <ele>429.0</ele>
        <time>2018-10-03T07:02:32.000Z</time>
      </trkpt>
      <trkpt lat="42.38705167" lon="-7.86993">
        <ele>429.0</ele>
        <time>2018-10-03T07:02:33.000Z</time>
      </trkpt>
      <trkpt lat="42.38706667" lon="-7.86994333">
        <ele>429.0</ele>
        <time>2018-10-03T07:02:34.000Z</time>
      </trkpt>
      <trkpt lat="42.38708167" lon="-7.869955">
        <ele>429.0</ele>
        <time>2018-10-03T07:02:35.000Z</time>
      </trkpt>
      <trkpt lat="42.38709667" lon="-7.869965">
        <ele>429.0</ele>
        <time>2018-10-03T07:02:36.000Z</time>
      </trkpt>
      <trkpt lat="42.38711167" lon="-7.869975">
        <ele>429.0</ele>
        <time>2018-10-03T07:02:37.000Z</time>
      </trkpt>
      <trkpt lat="42.387125" lon="-7.86998667">
        <ele>429.0</ele>
        <time>2018-10-03T07:02:38.000Z</time>
      </trkpt>
      <trkpt lat="42.38713667" lon="-7.87">
        <ele>429.0</ele>
        <time>2018-10-03T07:02:39.000Z</time>
      </trkpt>
      <trkpt lat="42.38715" lon="-7.87001333">
        <ele>429.0</ele>
        <time>2018-10-03T07:02:40.000Z</time>
      </trkpt>
      <trkpt lat="42.38716167" lon="-7.87002833">
        <ele>429.0</ele>
        <time>2018-10-03T07:02:41.000Z</time>
      </trkpt>
      <trkpt lat="42.38717333" lon="-7.87004167">
        <ele>429.0</ele>
        <time>2018-10-03T07:02:42.000Z</time>
      </trkpt>
      <trkpt lat="42.38718667" lon="-7.870055">
        <ele>429.0</ele>
        <time>2018-10-03T07:02:43.000Z</time>
      </trkpt>
      <trkpt lat="42.3872" lon="-7.87006833">
        <ele>429.0</ele>
        <time>2018-10-03T07:02:44.000Z</time>
      </trkpt>
      <trkpt lat="42.38721333" lon="-7.87008167">
        <ele>429.0</ele>
        <time>2018-10-03T07:02:45.000Z</time>
      </trkpt>
      <trkpt lat="42.387225" lon="-7.87009667">
        <ele>429.0</ele>
        <time>2018-10-03T07:02:46.000Z</time>
      </trkpt>
      <trkpt lat="42.387235" lon="-7.87011">
        <ele>429.0</ele>
        <time>2018-10-03T07:02:47.000Z</time>
      </trkpt>
      <trkpt lat="42.387245" lon="-7.870125">
        <ele>429.0</ele>
        <time>2018-10-03T07:02:48.000Z</time>
      </trkpt>
      <trkpt lat="42.38725333" lon="-7.87014167">
        <ele>429.0</ele>
        <time>2018-10-03T07:02:49.000Z</time>
      </trkpt>
      <trkpt lat="42.38726" lon="-7.87015833">
        <ele>429.0</ele>
        <time>2018-10-03T07:02:50.000Z</time>
      </trkpt>
      <trkpt lat="42.38727" lon="-7.870175">
        <ele>429.0</ele>
        <time>2018-10-03T07:02:51.000Z</time>
      </trkpt>
      <trkpt lat="42.38728167" lon="-7.87019167">
        <ele>429.0</ele>
        <time>2018-10-03T07:02:52.000Z</time>
      </trkpt>
      <trkpt lat="42.38729333" lon="-7.87020667">
        <ele>429.0</ele>
        <time>2018-10-03T07:02:53.000Z</time>
      </trkpt>
      <trkpt lat="42.387305" lon="-7.87022333">
        <ele>429.0</ele>
        <time>2018-10-03T07:02:54.000Z</time>
      </trkpt>
      <trkpt lat="42.387315" lon="-7.87024">
        <ele>429.0</ele>
        <time>2018-10-03T07:02:55.000Z</time>
      </trkpt>
      <trkpt lat="42.387325" lon="-7.87025667">
        <ele>429.0</ele>
        <time>2018-10-03T07:02:56.000Z</time>
      </trkpt>
      <trkpt lat="42.38733333" lon="-7.87027333">
        <ele>429.0</ele>
        <time>2018-10-03T07:02:57.000Z</time>
      </trkpt>
      <trkpt lat="42.38734333" lon="-7.87028833">
        <ele>429.0</ele>
        <time>2018-10-03T07:02:58.000Z</time>
      </trkpt>
      <trkpt lat="42.38735333" lon="-7.87030333">
        <ele>429.0</ele>
        <time>2018-10-03T07:02:59.000Z</time>
      </trkpt>
      <trkpt lat="42.387365" lon="-7.87032167">
        <ele>429.0</ele>
        <time>2018-10-03T07:03:00.000Z</time>
      </trkpt>
      <trkpt lat="42.38737333" lon="-7.87034">
        <ele>429.0</ele>
        <time>2018-10-03T07:03:01.000Z</time>
      </trkpt>
      <trkpt lat="42.387385" lon="-7.87035667">
        <ele>429.0</ele>
        <time>2018-10-03T07:03:02.000Z</time>
      </trkpt>
      <trkpt lat="42.38739333" lon="-7.87037167">
        <ele>429.0</ele>
        <time>2018-10-03T07:03:03.000Z</time>
      </trkpt>
      <trkpt lat="42.38740167" lon="-7.87039">
        <ele>430.0</ele>
        <time>2018-10-03T07:03:04.000Z</time>
      </trkpt>
      <trkpt lat="42.38741167" lon="-7.87040667">
        <ele>430.0</ele>
        <time>2018-10-03T07:03:05.000Z</time>
      </trkpt>
      <trkpt lat="42.38742167" lon="-7.87042333">
        <ele>430.0</ele>
        <time>2018-10-03T07:03:06.000Z</time>
      </trkpt>
      <trkpt lat="42.38743167" lon="-7.87044">
        <ele>430.0</ele>
        <time>2018-10-03T07:03:07.000Z</time>
      </trkpt>
      <trkpt lat="42.38743833" lon="-7.87045667">
        <ele>431.0</ele>
        <time>2018-10-03T07:03:08.000Z</time>
      </trkpt>
      <trkpt lat="42.38744667" lon="-7.87047667">
        <ele>431.0</ele>
        <time>2018-10-03T07:03:09.000Z</time>
      </trkpt>
      <trkpt lat="42.38745333" lon="-7.870495">
        <ele>431.0</ele>
        <time>2018-10-03T07:03:10.000Z</time>
      </trkpt>
      <trkpt lat="42.38746167" lon="-7.87051667">
        <ele>431.0</ele>
        <time>2018-10-03T07:03:11.000Z</time>
      </trkpt>
      <trkpt lat="42.38747167" lon="-7.87053667">
        <ele>432.0</ele>
        <time>2018-10-03T07:03:12.000Z</time>
      </trkpt>
      <trkpt lat="42.38748" lon="-7.87055667">
        <ele>432.0</ele>
        <time>2018-10-03T07:03:13.000Z</time>
      </trkpt>
      <trkpt lat="42.38748667" lon="-7.87057667">
        <ele>432.0</ele>
        <time>2018-10-03T07:03:14.000Z</time>
      </trkpt>
      <trkpt lat="42.38749167" lon="-7.87059833">
        <ele>432.0</ele>
        <time>2018-10-03T07:03:15.000Z</time>
      </trkpt>
      <trkpt lat="42.387495" lon="-7.87061833">
        <ele>432.0</ele>
        <time>2018-10-03T07:03:16.000Z</time>
      </trkpt>
      <trkpt lat="42.38749833" lon="-7.87063833">
        <ele>432.0</ele>
        <time>2018-10-03T07:03:17.000Z</time>
      </trkpt>
      <trkpt lat="42.38750333" lon="-7.87066">
        <ele>432.0</ele>
        <time>2018-10-03T07:03:18.000Z</time>
      </trkpt>
      <trkpt lat="42.38751" lon="-7.87067833">
        <ele>432.0</ele>
        <time>2018-10-03T07:03:19.000Z</time>
      </trkpt>
      <trkpt lat="42.38752" lon="-7.87069833">
        <ele>432.0</ele>
        <time>2018-10-03T07:03:20.000Z</time>
      </trkpt>
      <trkpt lat="42.38753" lon="-7.870715">
        <ele>432.0</ele>
        <time>2018-10-03T07:03:21.000Z</time>
      </trkpt>
      <trkpt lat="42.38753833" lon="-7.87073333">
        <ele>432.0</ele>
        <time>2018-10-03T07:03:22.000Z</time>
      </trkpt>
      <trkpt lat="42.387545" lon="-7.87075">
        <ele>432.0</ele>
        <time>2018-10-03T07:03:23.000Z</time>
      </trkpt>
      <trkpt lat="42.38755333" lon="-7.87077">
        <ele>431.0</ele>
        <time>2018-10-03T07:03:24.000Z</time>
      </trkpt>
      <trkpt lat="42.38756333" lon="-7.87079">
        <ele>431.0</ele>
        <time>2018-10-03T07:03:25.000Z</time>
      </trkpt>
      <trkpt lat="42.38757" lon="-7.87081167">
        <ele>431.0</ele>
        <time>2018-10-03T07:03:26.000Z</time>
      </trkpt>
      <trkpt lat="42.38758" lon="-7.87083167">
        <ele>431.0</ele>
        <time>2018-10-03T07:03:27.000Z</time>
      </trkpt>
      <trkpt lat="42.38759" lon="-7.87085167">
        <ele>431.0</ele>
        <time>2018-10-03T07:03:28.000Z</time>
      </trkpt>
      <trkpt lat="42.3876" lon="-7.87087">
        <ele>431.0</ele>
        <time>2018-10-03T07:03:29.000Z</time>
      </trkpt>
      <trkpt lat="42.38761" lon="-7.87088667">
        <ele>431.0</ele>
        <time>2018-10-03T07:03:30.000Z</time>
      </trkpt>
      <trkpt lat="42.38762333" lon="-7.87090333">
        <ele>431.0</ele>
        <time>2018-10-03T07:03:31.000Z</time>
      </trkpt>
      <trkpt lat="42.38763833" lon="-7.87091667">
        <ele>431.0</ele>
        <time>2018-10-03T07:03:32.000Z</time>
      </trkpt>
      <trkpt lat="42.38764833" lon="-7.87092667">
        <ele>431.0</ele>
        <time>2018-10-03T07:03:33.000Z</time>
      </trkpt>
      <trkpt lat="42.38766" lon="-7.87094167">
        <ele>430.0</ele>
        <time>2018-10-03T07:03:34.000Z</time>
      </trkpt>
      <trkpt lat="42.38766833" lon="-7.870955">
        <ele>430.0</ele>
        <time>2018-10-03T07:03:35.000Z</time>
      </trkpt>
      <trkpt lat="42.38767667" lon="-7.87097167">
        <ele>430.0</ele>
        <time>2018-10-03T07:03:36.000Z</time>
      </trkpt>
      <trkpt lat="42.38768833" lon="-7.87099">
        <ele>430.0</ele>
        <time>2018-10-03T07:03:37.000Z</time>
      </trkpt>
      <trkpt lat="42.3877" lon="-7.87100833">
        <ele>430.0</ele>
        <time>2018-10-03T07:03:38.000Z</time>
      </trkpt>
      <trkpt lat="42.38771333" lon="-7.87102833">
        <ele>430.0</ele>
        <time>2018-10-03T07:03:39.000Z</time>
      </trkpt>
      <trkpt lat="42.387725" lon="-7.87104667">
        <ele>430.0</ele>
        <time>2018-10-03T07:03:40.000Z</time>
      </trkpt>
      <trkpt lat="42.387735" lon="-7.871065">
        <ele>430.0</ele>
        <time>2018-10-03T07:03:41.000Z</time>
      </trkpt>
      <trkpt lat="42.38774667" lon="-7.87108167">
        <ele>430.0</ele>
        <time>2018-10-03T07:03:42.000Z</time>
      </trkpt>
      <trkpt lat="42.38775667" lon="-7.871095">
        <ele>430.0</ele>
        <time>2018-10-03T07:03:43.000Z</time>
      </trkpt>
      <trkpt lat="42.38776667" lon="-7.87111167">
        <ele>431.0</ele>
        <time>2018-10-03T07:03:44.000Z</time>
      </trkpt>
      <trkpt lat="42.38777833" lon="-7.87112833">
        <ele>431.0</ele>
        <time>2018-10-03T07:03:45.000Z</time>
      </trkpt>
      <trkpt lat="42.38779167" lon="-7.87114833">
        <ele>431.0</ele>
        <time>2018-10-03T07:03:46.000Z</time>
      </trkpt>
      <trkpt lat="42.38780333" lon="-7.87116667">
        <ele>431.0</ele>
        <time>2018-10-03T07:03:47.000Z</time>
      </trkpt>
      <trkpt lat="42.38781333" lon="-7.871185">
        <ele>431.0</ele>
        <time>2018-10-03T07:03:48.000Z</time>
      </trkpt>
      <trkpt lat="42.38782167" lon="-7.8712">
        <ele>431.0</ele>
        <time>2018-10-03T07:03:49.000Z</time>
      </trkpt>
      <trkpt lat="42.38783167" lon="-7.871215">
        <ele>431.0</ele>
        <time>2018-10-03T07:03:50.000Z</time>
      </trkpt>
      <trkpt lat="42.387845" lon="-7.87122667">
        <ele>431.0</ele>
        <time>2018-10-03T07:03:51.000Z</time>
      </trkpt>
      <trkpt lat="42.38785667" lon="-7.87124">
        <ele>431.0</ele>
        <time>2018-10-03T07:03:52.000Z</time>
      </trkpt>
      <trkpt lat="42.38786833" lon="-7.87125333">
        <ele>431.0</ele>
        <time>2018-10-03T07:03:53.000Z</time>
      </trkpt>
      <trkpt lat="42.38788" lon="-7.87126667">
        <ele>431.0</ele>
        <time>2018-10-03T07:03:54.000Z</time>
      </trkpt>
      <trkpt lat="42.38789333" lon="-7.87127833">
        <ele>431.0</ele>
        <time>2018-10-03T07:03:55.000Z</time>
      </trkpt>
      <trkpt lat="42.38790833" lon="-7.87129333">
        <ele>431.0</ele>
        <time>2018-10-03T07:03:56.000Z</time>
      </trkpt>
      <trkpt lat="42.38792167" lon="-7.87130667">
        <ele>431.0</ele>
        <time>2018-10-03T07:03:57.000Z</time>
      </trkpt>
      <trkpt lat="42.387935" lon="-7.87131833">
        <ele>431.0</ele>
        <time>2018-10-03T07:03:58.000Z</time>
      </trkpt>
      <trkpt lat="42.38794833" lon="-7.87133">
        <ele>431.0</ele>
        <time>2018-10-03T07:03:59.000Z</time>
      </trkpt>
      <trkpt lat="42.38796167" lon="-7.87134">
        <ele>431.0</ele>
        <time>2018-10-03T07:04:00.000Z</time>
      </trkpt>
      <trkpt lat="42.387975" lon="-7.87135167">
        <ele>431.0</ele>
        <time>2018-10-03T07:04:01.000Z</time>
      </trkpt>
      <trkpt lat="42.38798667" lon="-7.87136333">
        <ele>432.0</ele>
        <time>2018-10-03T07:04:02.000Z</time>
      </trkpt>
      <trkpt lat="42.38799833" lon="-7.871375">
        <ele>432.0</ele>
        <time>2018-10-03T07:04:03.000Z</time>
      </trkpt>
      <trkpt lat="42.38801" lon="-7.871385">
        <ele>432.0</ele>
        <time>2018-10-03T07:04:04.000Z</time>
      </trkpt>
      <trkpt lat="42.38802167" lon="-7.871395">
        <ele>432.0</ele>
        <time>2018-10-03T07:04:05.000Z</time>
      </trkpt>
      <trkpt lat="42.38803667" lon="-7.871405">
        <ele>432.0</ele>
        <time>2018-10-03T07:04:06.000Z</time>
      </trkpt>
      <trkpt lat="42.38805333" lon="-7.871415">
        <ele>432.0</ele>
        <time>2018-10-03T07:04:07.000Z</time>
      </trkpt>
      <trkpt lat="42.38807167" lon="-7.871425">
        <ele>432.0</ele>
        <time>2018-10-03T07:04:08.000Z</time>
      </trkpt>
      <trkpt lat="42.38809" lon="-7.87143167">
        <ele>432.0</ele>
        <time>2018-10-03T07:04:09.000Z</time>
      </trkpt>
      <trkpt lat="42.38810833" lon="-7.87144">
        <ele>431.0</ele>
        <time>2018-10-03T07:04:10.000Z</time>
      </trkpt>
      <trkpt lat="42.38812333" lon="-7.87144833">
        <ele>431.0</ele>
        <time>2018-10-03T07:04:11.000Z</time>
      </trkpt>
      <trkpt lat="42.38813667" lon="-7.87145667">
        <ele>431.0</ele>
        <time>2018-10-03T07:04:12.000Z</time>
      </trkpt>
      <trkpt lat="42.38815" lon="-7.871465">
        <ele>431.0</ele>
        <time>2018-10-03T07:04:13.000Z</time>
      </trkpt>
      <trkpt lat="42.38816333" lon="-7.87147333">
        <ele>431.0</ele>
        <time>2018-10-03T07:04:14.000Z</time>
      </trkpt>
      <trkpt lat="42.38817833" lon="-7.87148167">
        <ele>432.0</ele>
        <time>2018-10-03T07:04:15.000Z</time>
      </trkpt>
      <trkpt lat="42.38819333" lon="-7.87149">
        <ele>432.0</ele>
        <time>2018-10-03T07:04:16.000Z</time>
      </trkpt>
      <trkpt lat="42.38821" lon="-7.87149833">
        <ele>432.0</ele>
        <time>2018-10-03T07:04:17.000Z</time>
      </trkpt>
      <trkpt lat="42.38822667" lon="-7.871505">
        <ele>432.0</ele>
        <time>2018-10-03T07:04:18.000Z</time>
      </trkpt>
      <trkpt lat="42.38824167" lon="-7.87151">
        <ele>432.0</ele>
        <time>2018-10-03T07:04:19.000Z</time>
      </trkpt>
      <trkpt lat="42.38825667" lon="-7.87151833">
        <ele>432.0</ele>
        <time>2018-10-03T07:04:20.000Z</time>
      </trkpt>
      <trkpt lat="42.38827" lon="-7.871525">
        <ele>432.0</ele>
        <time>2018-10-03T07:04:21.000Z</time>
      </trkpt>
      <trkpt lat="42.38828333" lon="-7.87153">
        <ele>432.0</ele>
        <time>2018-10-03T07:04:22.000Z</time>
      </trkpt>
      <trkpt lat="42.38829833" lon="-7.87153667">
        <ele>432.0</ele>
        <time>2018-10-03T07:04:23.000Z</time>
      </trkpt>
      <trkpt lat="42.38831333" lon="-7.871545">
        <ele>432.0</ele>
        <time>2018-10-03T07:04:24.000Z</time>
      </trkpt>
      <trkpt lat="42.38832833" lon="-7.87155167">
        <ele>433.0</ele>
        <time>2018-10-03T07:04:25.000Z</time>
      </trkpt>
      <trkpt lat="42.388345" lon="-7.871555">
        <ele>433.0</ele>
        <time>2018-10-03T07:04:26.000Z</time>
      </trkpt>
      <trkpt lat="42.38836167" lon="-7.87155833">
        <ele>433.0</ele>
        <time>2018-10-03T07:04:27.000Z</time>
      </trkpt>
      <trkpt lat="42.38837667" lon="-7.87156167">
        <ele>433.0</ele>
        <time>2018-10-03T07:04:28.000Z</time>
      </trkpt>
      <trkpt lat="42.38839" lon="-7.87156667">
        <ele>433.0</ele>
        <time>2018-10-03T07:04:29.000Z</time>
      </trkpt>
      <trkpt lat="42.38840333" lon="-7.87157167">
        <ele>434.0</ele>
        <time>2018-10-03T07:04:30.000Z</time>
      </trkpt>
      <trkpt lat="42.38841833" lon="-7.87157833">
        <ele>434.0</ele>
        <time>2018-10-03T07:04:31.000Z</time>
      </trkpt>
      <trkpt lat="42.38843333" lon="-7.871585">
        <ele>434.0</ele>
        <time>2018-10-03T07:04:32.000Z</time>
      </trkpt>
      <trkpt lat="42.38845167" lon="-7.87159">
        <ele>434.0</ele>
        <time>2018-10-03T07:04:33.000Z</time>
      </trkpt>
      <trkpt lat="42.38847" lon="-7.87159333">
        <ele>434.0</ele>
        <time>2018-10-03T07:04:34.000Z</time>
      </trkpt>
      <trkpt lat="42.38848833" lon="-7.87159667">
        <ele>434.0</ele>
        <time>2018-10-03T07:04:35.000Z</time>
      </trkpt>
      <trkpt lat="42.388505" lon="-7.87160167">
        <ele>434.0</ele>
        <time>2018-10-03T07:04:36.000Z</time>
      </trkpt>
      <trkpt lat="42.38852333" lon="-7.87160667">
        <ele>434.0</ele>
        <time>2018-10-03T07:04:37.000Z</time>
      </trkpt>
      <trkpt lat="42.38853833" lon="-7.87161333">
        <ele>434.0</ele>
        <time>2018-10-03T07:04:38.000Z</time>
      </trkpt>
      <trkpt lat="42.388555" lon="-7.87162">
        <ele>434.0</ele>
        <time>2018-10-03T07:04:39.000Z</time>
      </trkpt>
      <trkpt lat="42.38857" lon="-7.87162833">
        <ele>434.0</ele>
        <time>2018-10-03T07:04:40.000Z</time>
      </trkpt>
      <trkpt lat="42.38858833" lon="-7.87163667">
        <ele>434.0</ele>
        <time>2018-10-03T07:04:41.000Z</time>
      </trkpt>
      <trkpt lat="42.388605" lon="-7.87164667">
        <ele>434.0</ele>
        <time>2018-10-03T07:04:42.000Z</time>
      </trkpt>
      <trkpt lat="42.38862167" lon="-7.87165833">
        <ele>434.0</ele>
        <time>2018-10-03T07:04:43.000Z</time>
      </trkpt>
      <trkpt lat="42.38863667" lon="-7.87167">
        <ele>433.0</ele>
        <time>2018-10-03T07:04:44.000Z</time>
      </trkpt>
      <trkpt lat="42.38865333" lon="-7.87168167">
        <ele>433.0</ele>
        <time>2018-10-03T07:04:45.000Z</time>
      </trkpt>
      <trkpt lat="42.388665" lon="-7.871695">
        <ele>433.0</ele>
        <time>2018-10-03T07:04:46.000Z</time>
      </trkpt>
      <trkpt lat="42.38867833" lon="-7.87170833">
        <ele>433.0</ele>
        <time>2018-10-03T07:04:47.000Z</time>
      </trkpt>
      <trkpt lat="42.38869167" lon="-7.87172167">
        <ele>433.0</ele>
        <time>2018-10-03T07:04:48.000Z</time>
      </trkpt>
      <trkpt lat="42.388705" lon="-7.871735">
        <ele>433.0</ele>
        <time>2018-10-03T07:04:49.000Z</time>
      </trkpt>
      <trkpt lat="42.38871833" lon="-7.87175">
        <ele>433.0</ele>
        <time>2018-10-03T07:04:50.000Z</time>
      </trkpt>
      <trkpt lat="42.38873167" lon="-7.871765">
        <ele>432.0</ele>
        <time>2018-10-03T07:04:51.000Z</time>
      </trkpt>
      <trkpt lat="42.38874667" lon="-7.87177833">
        <ele>432.0</ele>
        <time>2018-10-03T07:04:52.000Z</time>
      </trkpt>
      <trkpt lat="42.38876" lon="-7.87179333">
        <ele>432.0</ele>
        <time>2018-10-03T07:04:53.000Z</time>
      </trkpt>
      <trkpt lat="42.38877167" lon="-7.87180667">
        <ele>432.0</ele>
        <time>2018-10-03T07:04:54.000Z</time>
      </trkpt>
      <trkpt lat="42.38878333" lon="-7.87182167">
        <ele>432.0</ele>
        <time>2018-10-03T07:04:55.000Z</time>
      </trkpt>
      <trkpt lat="42.38879167" lon="-7.871835">
        <ele>432.0</ele>
        <time>2018-10-03T07:04:56.000Z</time>
      </trkpt>
      <trkpt lat="42.388805" lon="-7.87185333">
        <ele>433.0</ele>
        <time>2018-10-03T07:04:57.000Z</time>
      </trkpt>
      <trkpt lat="42.38882" lon="-7.87186833">
        <ele>433.0</ele>
        <time>2018-10-03T07:04:58.000Z</time>
      </trkpt>
      <trkpt lat="42.38882833" lon="-7.87188667">
        <ele>433.0</ele>
        <time>2018-10-03T07:04:59.000Z</time>
      </trkpt>
      <trkpt lat="42.38884333" lon="-7.87190167">
        <ele>433.0</ele>
        <time>2018-10-03T07:05:00.000Z</time>
      </trkpt>
      <trkpt lat="42.38885667" lon="-7.87191833">
        <ele>433.0</ele>
        <time>2018-10-03T07:05:01.000Z</time>
      </trkpt>
      <trkpt lat="42.38886833" lon="-7.87193333">
        <ele>433.0</ele>
        <time>2018-10-03T07:05:02.000Z</time>
      </trkpt>
      <trkpt lat="42.38888167" lon="-7.87194833">
        <ele>433.0</ele>
        <time>2018-10-03T07:05:03.000Z</time>
      </trkpt>
      <trkpt lat="42.38889167" lon="-7.87196333">
        <ele>433.0</ele>
        <time>2018-10-03T07:05:04.000Z</time>
      </trkpt>
      <trkpt lat="42.38890333" lon="-7.87198">
        <ele>433.0</ele>
        <time>2018-10-03T07:05:05.000Z</time>
      </trkpt>
      <trkpt lat="42.38891333" lon="-7.87199833">
        <ele>433.0</ele>
        <time>2018-10-03T07:05:06.000Z</time>
      </trkpt>
      <trkpt lat="42.38892667" lon="-7.872015">
        <ele>434.0</ele>
        <time>2018-10-03T07:05:07.000Z</time>
      </trkpt>
      <trkpt lat="42.38893833" lon="-7.87203167">
        <ele>434.0</ele>
        <time>2018-10-03T07:05:08.000Z</time>
      </trkpt>
      <trkpt lat="42.38895" lon="-7.87205">
        <ele>434.0</ele>
        <time>2018-10-03T07:05:09.000Z</time>
      </trkpt>
      <trkpt lat="42.38896" lon="-7.87206667">
        <ele>434.0</ele>
        <time>2018-10-03T07:05:10.000Z</time>
      </trkpt>
      <trkpt lat="42.38897" lon="-7.872085">
        <ele>434.0</ele>
        <time>2018-10-03T07:05:11.000Z</time>
      </trkpt>
      <trkpt lat="42.38898" lon="-7.8721">
        <ele>434.0</ele>
        <time>2018-10-03T07:05:12.000Z</time>
      </trkpt>
      <trkpt lat="42.38899" lon="-7.872115">
        <ele>434.0</ele>
        <time>2018-10-03T07:05:13.000Z</time>
      </trkpt>
      <trkpt lat="42.38899833" lon="-7.87213167">
        <ele>434.0</ele>
        <time>2018-10-03T07:05:14.000Z</time>
      </trkpt>
      <trkpt lat="42.38900833" lon="-7.87215167">
        <ele>434.0</ele>
        <time>2018-10-03T07:05:15.000Z</time>
      </trkpt>
      <trkpt lat="42.389015" lon="-7.87217333">
        <ele>434.0</ele>
        <time>2018-10-03T07:05:16.000Z</time>
      </trkpt>
      <trkpt lat="42.38902167" lon="-7.87219333">
        <ele>434.0</ele>
        <time>2018-10-03T07:05:17.000Z</time>
      </trkpt>
      <trkpt lat="42.38902833" lon="-7.87221">
        <ele>434.0</ele>
        <time>2018-10-03T07:05:18.000Z</time>
      </trkpt>
      <trkpt lat="42.389035" lon="-7.87222833">
        <ele>434.0</ele>
        <time>2018-10-03T07:05:19.000Z</time>
      </trkpt>
      <trkpt lat="42.38904333" lon="-7.87224833">
        <ele>435.0</ele>
        <time>2018-10-03T07:05:20.000Z</time>
      </trkpt>
      <trkpt lat="42.38905167" lon="-7.87226833">
        <ele>435.0</ele>
        <time>2018-10-03T07:05:21.000Z</time>
      </trkpt>
      <trkpt lat="42.38905833" lon="-7.87229">
        <ele>435.0</ele>
        <time>2018-10-03T07:05:22.000Z</time>
      </trkpt>
      <trkpt lat="42.38906833" lon="-7.87231333">
        <ele>435.0</ele>
        <time>2018-10-03T07:05:23.000Z</time>
      </trkpt>
      <trkpt lat="42.38907667" lon="-7.872335">
        <ele>435.0</ele>
        <time>2018-10-03T07:05:24.000Z</time>
      </trkpt>
      <trkpt lat="42.38908667" lon="-7.87235333">
        <ele>435.0</ele>
        <time>2018-10-03T07:05:25.000Z</time>
      </trkpt>
      <trkpt lat="42.38909333" lon="-7.87237167">
        <ele>435.0</ele>
        <time>2018-10-03T07:05:26.000Z</time>
      </trkpt>
      <trkpt lat="42.38909833" lon="-7.87239167">
        <ele>435.0</ele>
        <time>2018-10-03T07:05:27.000Z</time>
      </trkpt>
      <trkpt lat="42.389105" lon="-7.87241">
        <ele>435.0</ele>
        <time>2018-10-03T07:05:28.000Z</time>
      </trkpt>
      <trkpt lat="42.38911333" lon="-7.87243">
        <ele>436.0</ele>
        <time>2018-10-03T07:05:29.000Z</time>
      </trkpt>
      <trkpt lat="42.38912" lon="-7.872455">
        <ele>436.0</ele>
        <time>2018-10-03T07:05:30.000Z</time>
      </trkpt>
      <trkpt lat="42.38912667" lon="-7.87247833">
        <ele>436.0</ele>
        <time>2018-10-03T07:05:31.000Z</time>
      </trkpt>
      <trkpt lat="42.389135" lon="-7.8725">
        <ele>436.0</ele>
        <time>2018-10-03T07:05:32.000Z</time>
      </trkpt>
      <trkpt lat="42.38914167" lon="-7.87252167">
        <ele>436.0</ele>
        <time>2018-10-03T07:05:33.000Z</time>
      </trkpt>
      <trkpt lat="42.38915" lon="-7.87254">
        <ele>436.0</ele>
        <time>2018-10-03T07:05:34.000Z</time>
      </trkpt>
      <trkpt lat="42.38915833" lon="-7.87255833">
        <ele>437.0</ele>
        <time>2018-10-03T07:05:35.000Z</time>
      </trkpt>
      <trkpt lat="42.389165" lon="-7.87258">
        <ele>437.0</ele>
        <time>2018-10-03T07:05:36.000Z</time>
      </trkpt>
      <trkpt lat="42.38917167" lon="-7.87260167">
        <ele>437.0</ele>
        <time>2018-10-03T07:05:37.000Z</time>
      </trkpt>
      <trkpt lat="42.38917833" lon="-7.87262333">
        <ele>437.0</ele>
        <time>2018-10-03T07:05:38.000Z</time>
      </trkpt>
      <trkpt lat="42.38918333" lon="-7.87264667">
        <ele>437.0</ele>
        <time>2018-10-03T07:05:39.000Z</time>
      </trkpt>
      <trkpt lat="42.38918833" lon="-7.87266833">
        <ele>437.0</ele>
        <time>2018-10-03T07:05:40.000Z</time>
      </trkpt>
      <trkpt lat="42.38919333" lon="-7.87269">
        <ele>438.0</ele>
        <time>2018-10-03T07:05:41.000Z</time>
      </trkpt>
      <trkpt lat="42.38919833" lon="-7.87271">
        <ele>438.0</ele>
        <time>2018-10-03T07:05:42.000Z</time>
      </trkpt>
      <trkpt lat="42.389205" lon="-7.87272833">
        <ele>438.0</ele>
        <time>2018-10-03T07:05:43.000Z</time>
      </trkpt>
      <trkpt lat="42.38921167" lon="-7.87274833">
        <ele>438.0</ele>
        <time>2018-10-03T07:05:44.000Z</time>
      </trkpt>
      <trkpt lat="42.38921667" lon="-7.87276833">
        <ele>438.0</ele>
        <time>2018-10-03T07:05:45.000Z</time>
      </trkpt>
      <trkpt lat="42.38922333" lon="-7.87278667">
        <ele>438.0</ele>
        <time>2018-10-03T07:05:46.000Z</time>
      </trkpt>
      <trkpt lat="42.38922833" lon="-7.872805">
        <ele>438.0</ele>
        <time>2018-10-03T07:05:47.000Z</time>
      </trkpt>
      <trkpt lat="42.38923333" lon="-7.87282333">
        <ele>438.0</ele>
        <time>2018-10-03T07:05:48.000Z</time>
      </trkpt>
      <trkpt lat="42.38923833" lon="-7.87284333">
        <ele>438.0</ele>
        <time>2018-10-03T07:05:49.000Z</time>
      </trkpt>
      <trkpt lat="42.389245" lon="-7.87286167">
        <ele>438.0</ele>
        <time>2018-10-03T07:05:50.000Z</time>
      </trkpt>
      <trkpt lat="42.38925167" lon="-7.87287833">
        <ele>437.0</ele>
        <time>2018-10-03T07:05:51.000Z</time>
      </trkpt>
      <trkpt lat="42.38925833" lon="-7.87289333">
        <ele>437.0</ele>
        <time>2018-10-03T07:05:52.000Z</time>
      </trkpt>
      <trkpt lat="42.38926833" lon="-7.872905">
        <ele>437.0</ele>
        <time>2018-10-03T07:05:53.000Z</time>
      </trkpt>
      <trkpt lat="42.38927833" lon="-7.872915">
        <ele>437.0</ele>
        <time>2018-10-03T07:05:54.000Z</time>
      </trkpt>
      <trkpt lat="42.38929167" lon="-7.87292667">
        <ele>437.0</ele>
        <time>2018-10-03T07:05:55.000Z</time>
      </trkpt>
      <trkpt lat="42.38930333" lon="-7.872935">
        <ele>437.0</ele>
        <time>2018-10-03T07:05:56.000Z</time>
      </trkpt>
      <trkpt lat="42.38931833" lon="-7.87294167">
        <ele>437.0</ele>
        <time>2018-10-03T07:05:57.000Z</time>
      </trkpt>
      <trkpt lat="42.38933333" lon="-7.87294833">
        <ele>437.0</ele>
        <time>2018-10-03T07:05:58.000Z</time>
      </trkpt>
      <trkpt lat="42.38934667" lon="-7.87295333">
        <ele>438.0</ele>
        <time>2018-10-03T07:05:59.000Z</time>
      </trkpt>
      <trkpt lat="42.38936167" lon="-7.87296">
        <ele>438.0</ele>
        <time>2018-10-03T07:06:00.000Z</time>
      </trkpt>
      <trkpt lat="42.389375" lon="-7.872965">
        <ele>438.0</ele>
        <time>2018-10-03T07:06:01.000Z</time>
      </trkpt>
      <trkpt lat="42.38938667" lon="-7.87297">
        <ele>438.0</ele>
        <time>2018-10-03T07:06:02.000Z</time>
      </trkpt>
      <trkpt lat="42.38939833" lon="-7.87297667">
        <ele>438.0</ele>
        <time>2018-10-03T07:06:03.000Z</time>
      </trkpt>
      <trkpt lat="42.38941167" lon="-7.87298333">
        <ele>438.0</ele>
        <time>2018-10-03T07:06:04.000Z</time>
      </trkpt>
      <trkpt lat="42.38942333" lon="-7.87298833">
        <ele>438.0</ele>
        <time>2018-10-03T07:06:05.000Z</time>
      </trkpt>
      <trkpt lat="42.38943667" lon="-7.87299333">
        <ele>438.0</ele>
        <time>2018-10-03T07:06:06.000Z</time>
      </trkpt>
      <trkpt lat="42.38945" lon="-7.87299667">
        <ele>438.0</ele>
        <time>2018-10-03T07:06:07.000Z</time>
      </trkpt>
      <trkpt lat="42.389465" lon="-7.87299833">
        <ele>438.0</ele>
        <time>2018-10-03T07:06:08.000Z</time>
      </trkpt>
      <trkpt lat="42.38948167" lon="-7.87299833">
        <ele>438.0</ele>
        <time>2018-10-03T07:06:09.000Z</time>
      </trkpt>
      <trkpt lat="42.38949667" lon="-7.873">
        <ele>438.0</ele>
        <time>2018-10-03T07:06:10.000Z</time>
      </trkpt>
      <trkpt lat="42.38951167" lon="-7.87300167">
        <ele>438.0</ele>
        <time>2018-10-03T07:06:11.000Z</time>
      </trkpt>
      <trkpt lat="42.38952667" lon="-7.87300333">
        <ele>438.0</ele>
        <time>2018-10-03T07:06:12.000Z</time>
      </trkpt>
      <trkpt lat="42.38954167" lon="-7.87300667">
        <ele>438.0</ele>
        <time>2018-10-03T07:06:13.000Z</time>
      </trkpt>
      <trkpt lat="42.38955833" lon="-7.87301">
        <ele>439.0</ele>
        <time>2018-10-03T07:06:14.000Z</time>
      </trkpt>
      <trkpt lat="42.38957667" lon="-7.87301167">
        <ele>439.0</ele>
        <time>2018-10-03T07:06:15.000Z</time>
      </trkpt>
      <trkpt lat="42.389595" lon="-7.87301333">
        <ele>439.0</ele>
        <time>2018-10-03T07:06:16.000Z</time>
      </trkpt>
      <trkpt lat="42.389615" lon="-7.87301333">
        <ele>439.0</ele>
        <time>2018-10-03T07:06:17.000Z</time>
      </trkpt>
      <trkpt lat="42.38963333" lon="-7.87301333">
        <ele>439.0</ele>
        <time>2018-10-03T07:06:18.000Z</time>
      </trkpt>
      <trkpt lat="42.38965" lon="-7.87301667">
        <ele>439.0</ele>
        <time>2018-10-03T07:06:19.000Z</time>
      </trkpt>
      <trkpt lat="42.389665" lon="-7.87301833">
        <ele>439.0</ele>
        <time>2018-10-03T07:06:20.000Z</time>
      </trkpt>
      <trkpt lat="42.38968167" lon="-7.87302167">
        <ele>439.0</ele>
        <time>2018-10-03T07:06:21.000Z</time>
      </trkpt>
      <trkpt lat="42.3897" lon="-7.87302167">
        <ele>439.0</ele>
        <time>2018-10-03T07:06:22.000Z</time>
      </trkpt>
      <trkpt lat="42.38972" lon="-7.87302167">
        <ele>439.0</ele>
        <time>2018-10-03T07:06:23.000Z</time>
      </trkpt>
      <trkpt lat="42.38973833" lon="-7.87302667">
        <ele>439.0</ele>
        <time>2018-10-03T07:06:24.000Z</time>
      </trkpt>
      <trkpt lat="42.38975833" lon="-7.87302667">
        <ele>439.0</ele>
        <time>2018-10-03T07:06:25.000Z</time>
      </trkpt>
      <trkpt lat="42.38977667" lon="-7.87302833">
        <ele>439.0</ele>
        <time>2018-10-03T07:06:26.000Z</time>
      </trkpt>
      <trkpt lat="42.38979167" lon="-7.87303">
        <ele>439.0</ele>
        <time>2018-10-03T07:06:27.000Z</time>
      </trkpt>
      <trkpt lat="42.38980833" lon="-7.87303167">
        <ele>439.0</ele>
        <time>2018-10-03T07:06:28.000Z</time>
      </trkpt>
      <trkpt lat="42.38982167" lon="-7.87303333">
        <ele>439.0</ele>
        <time>2018-10-03T07:06:29.000Z</time>
      </trkpt>
      <trkpt lat="42.38983667" lon="-7.87303667">
        <ele>439.0</ele>
        <time>2018-10-03T07:06:30.000Z</time>
      </trkpt>
      <trkpt lat="42.38985167" lon="-7.87303667">
        <ele>439.0</ele>
        <time>2018-10-03T07:06:31.000Z</time>
      </trkpt>
      <trkpt lat="42.38986833" lon="-7.87303667">
        <ele>439.0</ele>
        <time>2018-10-03T07:06:32.000Z</time>
      </trkpt>
      <trkpt lat="42.38988833" lon="-7.873035">
        <ele>439.0</ele>
        <time>2018-10-03T07:06:33.000Z</time>
      </trkpt>
      <trkpt lat="42.38990333" lon="-7.87303333">
        <ele>440.0</ele>
        <time>2018-10-03T07:06:34.000Z</time>
      </trkpt>
      <trkpt lat="42.38992" lon="-7.87303">
        <ele>440.0</ele>
        <time>2018-10-03T07:06:35.000Z</time>
      </trkpt>
      <trkpt lat="42.38993667" lon="-7.873025">
        <ele>440.0</ele>
        <time>2018-10-03T07:06:36.000Z</time>
      </trkpt>
      <trkpt lat="42.38995167" lon="-7.87301833">
        <ele>440.0</ele>
        <time>2018-10-03T07:06:37.000Z</time>
      </trkpt>
      <trkpt lat="42.38996667" lon="-7.873015">
        <ele>440.0</ele>
        <time>2018-10-03T07:06:38.000Z</time>
      </trkpt>
      <trkpt lat="42.38998167" lon="-7.87301333">
        <ele>439.0</ele>
        <time>2018-10-03T07:06:39.000Z</time>
      </trkpt>
      <trkpt lat="42.39" lon="-7.87301">
        <ele>439.0</ele>
        <time>2018-10-03T07:06:40.000Z</time>
      </trkpt>
      <trkpt lat="42.39001833" lon="-7.87300667">
        <ele>439.0</ele>
        <time>2018-10-03T07:06:41.000Z</time>
      </trkpt>
      <trkpt lat="42.39003667" lon="-7.87300667">
        <ele>439.0</ele>
        <time>2018-10-03T07:06:42.000Z</time>
      </trkpt>
      <trkpt lat="42.39005167" lon="-7.87300333">
        <ele>439.0</ele>
        <time>2018-10-03T07:06:43.000Z</time>
      </trkpt>
      <trkpt lat="42.39006833" lon="-7.87300167">
        <ele>438.0</ele>
        <time>2018-10-03T07:06:44.000Z</time>
      </trkpt>
      <trkpt lat="42.39008833" lon="-7.87299833">
        <ele>438.0</ele>
        <time>2018-10-03T07:06:45.000Z</time>
      </trkpt>
      <trkpt lat="42.39010833" lon="-7.87299667">
        <ele>438.0</ele>
        <time>2018-10-03T07:06:46.000Z</time>
      </trkpt>
      <trkpt lat="42.39013" lon="-7.87299">
        <ele>438.0</ele>
        <time>2018-10-03T07:06:47.000Z</time>
      </trkpt>
      <trkpt lat="42.39015" lon="-7.87298333">
        <ele>438.0</ele>
        <time>2018-10-03T07:06:48.000Z</time>
      </trkpt>
      <trkpt lat="42.39017" lon="-7.87297833">
        <ele>438.0</ele>
        <time>2018-10-03T07:06:49.000Z</time>
      </trkpt>
      <trkpt lat="42.39018833" lon="-7.872975">
        <ele>438.0</ele>
        <time>2018-10-03T07:06:50.000Z</time>
      </trkpt>
      <trkpt lat="42.390205" lon="-7.87297167">
        <ele>438.0</ele>
        <time>2018-10-03T07:06:51.000Z</time>
      </trkpt>
      <trkpt lat="42.39021833" lon="-7.87297">
        <ele>438.0</ele>
        <time>2018-10-03T07:06:52.000Z</time>
      </trkpt>
      <trkpt lat="42.390235" lon="-7.872965">
        <ele>438.0</ele>
        <time>2018-10-03T07:06:53.000Z</time>
      </trkpt>
      <trkpt lat="42.39025167" lon="-7.87296167">
        <ele>438.0</ele>
        <time>2018-10-03T07:06:54.000Z</time>
      </trkpt>
      <trkpt lat="42.39027" lon="-7.87296167">
        <ele>437.0</ele>
        <time>2018-10-03T07:06:55.000Z</time>
      </trkpt>
      <trkpt lat="42.39028833" lon="-7.87296">
        <ele>437.0</ele>
        <time>2018-10-03T07:06:56.000Z</time>
      </trkpt>
      <trkpt lat="42.39030833" lon="-7.87295667">
        <ele>437.0</ele>
        <time>2018-10-03T07:06:57.000Z</time>
      </trkpt>
      <trkpt lat="42.39032833" lon="-7.87295667">
        <ele>437.0</ele>
        <time>2018-10-03T07:06:58.000Z</time>
      </trkpt>
      <trkpt lat="42.39034333" lon="-7.87295833">
        <ele>437.0</ele>
        <time>2018-10-03T07:06:59.000Z</time>
      </trkpt>
      <trkpt lat="42.39035833" lon="-7.87296167">
        <ele>437.0</ele>
        <time>2018-10-03T07:07:00.000Z</time>
      </trkpt>
      <trkpt lat="42.39037167" lon="-7.87296667">
        <ele>437.0</ele>
        <time>2018-10-03T07:07:01.000Z</time>
      </trkpt>
      <trkpt lat="42.39038833" lon="-7.87296833">
        <ele>437.0</ele>
        <time>2018-10-03T07:07:02.000Z</time>
      </trkpt>
      <trkpt lat="42.390405" lon="-7.87297">
        <ele>437.0</ele>
        <time>2018-10-03T07:07:03.000Z</time>
      </trkpt>
      <trkpt lat="42.39042333" lon="-7.87297167">
        <ele>437.0</ele>
        <time>2018-10-03T07:07:04.000Z</time>
      </trkpt>
      <trkpt lat="42.39044" lon="-7.87297333">
        <ele>437.0</ele>
        <time>2018-10-03T07:07:05.000Z</time>
      </trkpt>
      <trkpt lat="42.39045833" lon="-7.872975">
        <ele>437.0</ele>
        <time>2018-10-03T07:07:06.000Z</time>
      </trkpt>
      <trkpt lat="42.390475" lon="-7.87298">
        <ele>437.0</ele>
        <time>2018-10-03T07:07:07.000Z</time>
      </trkpt>
      <trkpt lat="42.39049167" lon="-7.87299167">
        <ele>436.0</ele>
        <time>2018-10-03T07:07:08.000Z</time>
      </trkpt>
      <trkpt lat="42.39050667" lon="-7.87300333">
        <ele>436.0</ele>
        <time>2018-10-03T07:07:09.000Z</time>
      </trkpt>
      <trkpt lat="42.39052" lon="-7.87301333">
        <ele>436.0</ele>
        <time>2018-10-03T07:07:10.000Z</time>
      </trkpt>
      <trkpt lat="42.39053" lon="-7.87302333">
        <ele>436.0</ele>
        <time>2018-10-03T07:07:11.000Z</time>
      </trkpt>
      <trkpt lat="42.39053667" lon="-7.87303833">
        <ele>436.0</ele>
        <time>2018-10-03T07:07:12.000Z</time>
      </trkpt>
      <trkpt lat="42.390545" lon="-7.87305333">
        <ele>436.0</ele>
        <time>2018-10-03T07:07:13.000Z</time>
      </trkpt>
      <trkpt lat="42.39055333" lon="-7.87306833">
        <ele>435.0</ele>
        <time>2018-10-03T07:07:14.000Z</time>
      </trkpt>
      <trkpt lat="42.39056167" lon="-7.87308">
        <ele>435.0</ele>
        <time>2018-10-03T07:07:15.000Z</time>
      </trkpt>
      <trkpt lat="42.39057" lon="-7.87309167">
        <ele>435.0</ele>
        <time>2018-10-03T07:07:16.000Z</time>
      </trkpt>
      <trkpt lat="42.39058" lon="-7.873105">
        <ele>435.0</ele>
        <time>2018-10-03T07:07:17.000Z</time>
      </trkpt>
      <trkpt lat="42.39059333" lon="-7.87311667">
        <ele>435.0</ele>
        <time>2018-10-03T07:07:18.000Z</time>
      </trkpt>
      <trkpt lat="42.390605" lon="-7.87312833">
        <ele>434.0</ele>
        <time>2018-10-03T07:07:19.000Z</time>
      </trkpt>
      <trkpt lat="42.39061833" lon="-7.87313333">
        <ele>434.0</ele>
        <time>2018-10-03T07:07:20.000Z</time>
      </trkpt>
      <trkpt lat="42.39063" lon="-7.873135">
        <ele>434.0</ele>
        <time>2018-10-03T07:07:21.000Z</time>
      </trkpt>
      <trkpt lat="42.39064333" lon="-7.873135">
        <ele>434.0</ele>
        <time>2018-10-03T07:07:22.000Z</time>
      </trkpt>
      <trkpt lat="42.39065333" lon="-7.87313167">
        <ele>434.0</ele>
        <time>2018-10-03T07:07:23.000Z</time>
      </trkpt>
      <trkpt lat="42.39066167" lon="-7.87311833">
        <ele>435.0</ele>
        <time>2018-10-03T07:07:24.000Z</time>
      </trkpt>
      <trkpt lat="42.39067333" lon="-7.87310333">
        <ele>435.0</ele>
        <time>2018-10-03T07:07:25.000Z</time>
      </trkpt>
      <trkpt lat="42.390685" lon="-7.87308833">
        <ele>435.0</ele>
        <time>2018-10-03T07:07:26.000Z</time>
      </trkpt>
      <trkpt lat="42.39070167" lon="-7.87307667">
        <ele>435.0</ele>
        <time>2018-10-03T07:07:27.000Z</time>
      </trkpt>
      <trkpt lat="42.39072" lon="-7.87306833">
        <ele>435.0</ele>
        <time>2018-10-03T07:07:28.000Z</time>
      </trkpt>
      <trkpt lat="42.39073833" lon="-7.87306833">
        <ele>435.0</ele>
        <time>2018-10-03T07:07:29.000Z</time>
      </trkpt>
      <trkpt lat="42.39075667" lon="-7.87306833">
        <ele>435.0</ele>
        <time>2018-10-03T07:07:30.000Z</time>
      </trkpt>
      <trkpt lat="42.39077167" lon="-7.87307167">
        <ele>435.0</ele>
        <time>2018-10-03T07:07:31.000Z</time>
      </trkpt>
      <trkpt lat="42.39079" lon="-7.873075">
        <ele>435.0</ele>
        <time>2018-10-03T07:07:32.000Z</time>
      </trkpt>
      <trkpt lat="42.3908" lon="-7.87308167">
        <ele>435.0</ele>
        <time>2018-10-03T07:07:33.000Z</time>
      </trkpt>
      <trkpt lat="42.390815" lon="-7.873085">
        <ele>435.0</ele>
        <time>2018-10-03T07:07:34.000Z</time>
      </trkpt>
      <trkpt lat="42.39083167" lon="-7.87308833">
        <ele>435.0</ele>
        <time>2018-10-03T07:07:35.000Z</time>
      </trkpt>
      <trkpt lat="42.39085" lon="-7.87309167">
        <ele>435.0</ele>
        <time>2018-10-03T07:07:36.000Z</time>
      </trkpt>
      <trkpt lat="42.39086667" lon="-7.87309333">
        <ele>435.0</ele>
        <time>2018-10-03T07:07:37.000Z</time>
      </trkpt>
      <trkpt lat="42.39088333" lon="-7.87309667">
        <ele>435.0</ele>
        <time>2018-10-03T07:07:38.000Z</time>
      </trkpt>
      <trkpt lat="42.3909" lon="-7.87310333">
        <ele>435.0</ele>
        <time>2018-10-03T07:07:39.000Z</time>
      </trkpt>
      <trkpt lat="42.39091333" lon="-7.87310833">
        <ele>435.0</ele>
        <time>2018-10-03T07:07:40.000Z</time>
      </trkpt>
      <trkpt lat="42.39093" lon="-7.87311333">
        <ele>435.0</ele>
        <time>2018-10-03T07:07:41.000Z</time>
      </trkpt>
      <trkpt lat="42.39094667" lon="-7.87311667">
        <ele>435.0</ele>
        <time>2018-10-03T07:07:42.000Z</time>
      </trkpt>
      <trkpt lat="42.390965" lon="-7.87312167">
        <ele>435.0</ele>
        <time>2018-10-03T07:07:43.000Z</time>
      </trkpt>
      <trkpt lat="42.39098" lon="-7.87312667">
        <ele>434.0</ele>
        <time>2018-10-03T07:07:44.000Z</time>
      </trkpt>
      <trkpt lat="42.39099833" lon="-7.87313">
        <ele>434.0</ele>
        <time>2018-10-03T07:07:45.000Z</time>
      </trkpt>
      <trkpt lat="42.391015" lon="-7.87313333">
        <ele>434.0</ele>
        <time>2018-10-03T07:07:46.000Z</time>
      </trkpt>
      <trkpt lat="42.391035" lon="-7.87313667">
        <ele>434.0</ele>
        <time>2018-10-03T07:07:47.000Z</time>
      </trkpt>
      <trkpt lat="42.39105" lon="-7.87314333">
        <ele>434.0</ele>
        <time>2018-10-03T07:07:48.000Z</time>
      </trkpt>
      <trkpt lat="42.39106833" lon="-7.87314833">
        <ele>434.0</ele>
        <time>2018-10-03T07:07:49.000Z</time>
      </trkpt>
      <trkpt lat="42.39108333" lon="-7.873155">
        <ele>434.0</ele>
        <time>2018-10-03T07:07:50.000Z</time>
      </trkpt>
      <trkpt lat="42.39109833" lon="-7.87316333">
        <ele>434.0</ele>
        <time>2018-10-03T07:07:51.000Z</time>
      </trkpt>
      <trkpt lat="42.39111167" lon="-7.87316833">
        <ele>433.0</ele>
        <time>2018-10-03T07:07:52.000Z</time>
      </trkpt>
      <trkpt lat="42.39112667" lon="-7.873165">
        <ele>433.0</ele>
        <time>2018-10-03T07:07:53.000Z</time>
      </trkpt>
      <trkpt lat="42.39114333" lon="-7.87315833">
        <ele>433.0</ele>
        <time>2018-10-03T07:07:54.000Z</time>
      </trkpt>
      <trkpt lat="42.39115833" lon="-7.87314833">
        <ele>433.0</ele>
        <time>2018-10-03T07:07:55.000Z</time>
      </trkpt>
      <trkpt lat="42.39117333" lon="-7.87313833">
        <ele>433.0</ele>
        <time>2018-10-03T07:07:56.000Z</time>
      </trkpt>
      <trkpt lat="42.39118667" lon="-7.87313167">
        <ele>433.0</ele>
        <time>2018-10-03T07:07:57.000Z</time>
      </trkpt>
      <trkpt lat="42.39120167" lon="-7.873125">
        <ele>433.0</ele>
        <time>2018-10-03T07:07:58.000Z</time>
      </trkpt>
      <trkpt lat="42.39121333" lon="-7.87312167">
        <ele>434.0</ele>
        <time>2018-10-03T07:07:59.000Z</time>
      </trkpt>
      <trkpt lat="42.39122667" lon="-7.87311833">
        <ele>434.0</ele>
        <time>2018-10-03T07:08:00.000Z</time>
      </trkpt>
      <trkpt lat="42.39124167" lon="-7.87311333">
        <ele>433.0</ele>
        <time>2018-10-03T07:08:01.000Z</time>
      </trkpt>
      <trkpt lat="42.39125667" lon="-7.87311333">
        <ele>433.0</ele>
        <time>2018-10-03T07:08:02.000Z</time>
      </trkpt>
      <trkpt lat="42.39127167" lon="-7.87310833">
        <ele>433.0</ele>
        <time>2018-10-03T07:08:03.000Z</time>
      </trkpt>
      <trkpt lat="42.39128667" lon="-7.87310667">
        <ele>433.0</ele>
        <time>2018-10-03T07:08:04.000Z</time>
      </trkpt>
      <trkpt lat="42.391305" lon="-7.87310667">
        <ele>433.0</ele>
        <time>2018-10-03T07:08:05.000Z</time>
      </trkpt>
      <trkpt lat="42.39132" lon="-7.87310833">
        <ele>433.0</ele>
        <time>2018-10-03T07:08:06.000Z</time>
      </trkpt>
      <trkpt lat="42.39133667" lon="-7.87310667">
        <ele>433.0</ele>
        <time>2018-10-03T07:08:07.000Z</time>
      </trkpt>
      <trkpt lat="42.39135" lon="-7.87310667">
        <ele>433.0</ele>
        <time>2018-10-03T07:08:08.000Z</time>
      </trkpt>
      <trkpt lat="42.39136167" lon="-7.87310167">
        <ele>433.0</ele>
        <time>2018-10-03T07:08:09.000Z</time>
      </trkpt>
      <trkpt lat="42.39137333" lon="-7.87309667">
        <ele>433.0</ele>
        <time>2018-10-03T07:08:10.000Z</time>
      </trkpt>
      <trkpt lat="42.391385" lon="-7.87309167">
        <ele>433.0</ele>
        <time>2018-10-03T07:08:11.000Z</time>
      </trkpt>
      <trkpt lat="42.39139833" lon="-7.87308667">
        <ele>433.0</ele>
        <time>2018-10-03T07:08:12.000Z</time>
      </trkpt>
      <trkpt lat="42.39141" lon="-7.87308">
        <ele>432.0</ele>
        <time>2018-10-03T07:08:13.000Z</time>
      </trkpt>
      <trkpt lat="42.39142333" lon="-7.87307333">
        <ele>432.0</ele>
        <time>2018-10-03T07:08:14.000Z</time>
      </trkpt>
      <trkpt lat="42.39143833" lon="-7.873065">
        <ele>432.0</ele>
        <time>2018-10-03T07:08:15.000Z</time>
      </trkpt>
      <trkpt lat="42.39145333" lon="-7.87305833">
        <ele>432.0</ele>
        <time>2018-10-03T07:08:16.000Z</time>
      </trkpt>
      <trkpt lat="42.391465" lon="-7.873055">
        <ele>432.0</ele>
        <time>2018-10-03T07:08:17.000Z</time>
      </trkpt>
      <trkpt lat="42.39147833" lon="-7.87304667">
        <ele>432.0</ele>
        <time>2018-10-03T07:08:18.000Z</time>
      </trkpt>
      <trkpt lat="42.39149333" lon="-7.87304">
        <ele>432.0</ele>
        <time>2018-10-03T07:08:19.000Z</time>
      </trkpt>
      <trkpt lat="42.39150833" lon="-7.87303167">
        <ele>432.0</ele>
        <time>2018-10-03T07:08:20.000Z</time>
      </trkpt>
      <trkpt lat="42.39152167" lon="-7.87302667">
        <ele>432.0</ele>
        <time>2018-10-03T07:08:21.000Z</time>
      </trkpt>
      <trkpt lat="42.391535" lon="-7.87301833">
        <ele>432.0</ele>
        <time>2018-10-03T07:08:22.000Z</time>
      </trkpt>
      <trkpt lat="42.39155" lon="-7.87301167">
        <ele>432.0</ele>
        <time>2018-10-03T07:08:23.000Z</time>
      </trkpt>
      <trkpt lat="42.39156333" lon="-7.87300667">
        <ele>432.0</ele>
        <time>2018-10-03T07:08:24.000Z</time>
      </trkpt>
      <trkpt lat="42.39157667" lon="-7.873005">
        <ele>432.0</ele>
        <time>2018-10-03T07:08:25.000Z</time>
      </trkpt>
      <trkpt lat="42.39159167" lon="-7.87300167">
        <ele>432.0</ele>
        <time>2018-10-03T07:08:26.000Z</time>
      </trkpt>
      <trkpt lat="42.39161167" lon="-7.87299667">
        <ele>433.0</ele>
        <time>2018-10-03T07:08:27.000Z</time>
      </trkpt>
      <trkpt lat="42.39163" lon="-7.87299">
        <ele>433.0</ele>
        <time>2018-10-03T07:08:28.000Z</time>
      </trkpt>
      <trkpt lat="42.39164833" lon="-7.872985">
        <ele>433.0</ele>
        <time>2018-10-03T07:08:29.000Z</time>
      </trkpt>
      <trkpt lat="42.39166833" lon="-7.87298167">
        <ele>433.0</ele>
        <time>2018-10-03T07:08:30.000Z</time>
      </trkpt>
      <trkpt lat="42.39169" lon="-7.87297667">
        <ele>433.0</ele>
        <time>2018-10-03T07:08:31.000Z</time>
      </trkpt>
      <trkpt lat="42.39171333" lon="-7.87297167">
        <ele>433.0</ele>
        <time>2018-10-03T07:08:32.000Z</time>
      </trkpt>
      <trkpt lat="42.39173333" lon="-7.87296667">
        <ele>433.0</ele>
        <time>2018-10-03T07:08:33.000Z</time>
      </trkpt>
      <trkpt lat="42.39175167" lon="-7.87296333">
        <ele>433.0</ele>
        <time>2018-10-03T07:08:34.000Z</time>
      </trkpt>
      <trkpt lat="42.39177" lon="-7.87295667">
        <ele>433.0</ele>
        <time>2018-10-03T07:08:35.000Z</time>
      </trkpt>
      <trkpt lat="42.39178667" lon="-7.87295167">
        <ele>433.0</ele>
        <time>2018-10-03T07:08:36.000Z</time>
      </trkpt>
      <trkpt lat="42.391805" lon="-7.87294833">
        <ele>433.0</ele>
        <time>2018-10-03T07:08:37.000Z</time>
      </trkpt>
      <trkpt lat="42.391825" lon="-7.87294667">
        <ele>433.0</ele>
        <time>2018-10-03T07:08:38.000Z</time>
      </trkpt>
      <trkpt lat="42.39184167" lon="-7.872945">
        <ele>433.0</ele>
        <time>2018-10-03T07:08:39.000Z</time>
      </trkpt>
      <trkpt lat="42.39185667" lon="-7.87294333">
        <ele>433.0</ele>
        <time>2018-10-03T07:08:40.000Z</time>
      </trkpt>
      <trkpt lat="42.39187333" lon="-7.87294167">
        <ele>433.0</ele>
        <time>2018-10-03T07:08:41.000Z</time>
      </trkpt>
      <trkpt lat="42.39189" lon="-7.87294167">
        <ele>433.0</ele>
        <time>2018-10-03T07:08:42.000Z</time>
      </trkpt>
      <trkpt lat="42.39190833" lon="-7.87293833">
        <ele>433.0</ele>
        <time>2018-10-03T07:08:43.000Z</time>
      </trkpt>
      <trkpt lat="42.39192667" lon="-7.87293333">
        <ele>433.0</ele>
        <time>2018-10-03T07:08:44.000Z</time>
      </trkpt>
      <trkpt lat="42.39194167" lon="-7.87292833">
        <ele>433.0</ele>
        <time>2018-10-03T07:08:45.000Z</time>
      </trkpt>
      <trkpt lat="42.39195667" lon="-7.87292667">
        <ele>432.0</ele>
        <time>2018-10-03T07:08:46.000Z</time>
      </trkpt>
      <trkpt lat="42.39197167" lon="-7.87292667">
        <ele>432.0</ele>
        <time>2018-10-03T07:08:47.000Z</time>
      </trkpt>
      <trkpt lat="42.39198333" lon="-7.87292667">
        <ele>432.0</ele>
        <time>2018-10-03T07:08:48.000Z</time>
      </trkpt>
      <trkpt lat="42.39199667" lon="-7.87293">
        <ele>432.0</ele>
        <time>2018-10-03T07:08:49.000Z</time>
      </trkpt>
      <trkpt lat="42.39201333" lon="-7.87293">
        <ele>432.0</ele>
        <time>2018-10-03T07:08:50.000Z</time>
      </trkpt>
      <trkpt lat="42.39202833" lon="-7.87293">
        <ele>432.0</ele>
        <time>2018-10-03T07:08:51.000Z</time>
      </trkpt>
      <trkpt lat="42.39204167" lon="-7.87292667">
        <ele>432.0</ele>
        <time>2018-10-03T07:08:52.000Z</time>
      </trkpt>
      <trkpt lat="42.392055" lon="-7.87292667">
        <ele>432.0</ele>
        <time>2018-10-03T07:08:53.000Z</time>
      </trkpt>
      <trkpt lat="42.39206833" lon="-7.87292833">
        <ele>433.0</ele>
        <time>2018-10-03T07:08:54.000Z</time>
      </trkpt>
      <trkpt lat="42.39208333" lon="-7.872925">
        <ele>433.0</ele>
        <time>2018-10-03T07:08:55.000Z</time>
      </trkpt>
      <trkpt lat="42.39209667" lon="-7.87292333">
        <ele>433.0</ele>
        <time>2018-10-03T07:08:56.000Z</time>
      </trkpt>
      <trkpt lat="42.39211167" lon="-7.87292167">
        <ele>432.0</ele>
        <time>2018-10-03T07:08:57.000Z</time>
      </trkpt>
      <trkpt lat="42.39212833" lon="-7.87292333">
        <ele>432.0</ele>
        <time>2018-10-03T07:08:58.000Z</time>
      </trkpt>
      <trkpt lat="42.39214333" lon="-7.87292167">
        <ele>432.0</ele>
        <time>2018-10-03T07:08:59.000Z</time>
      </trkpt>
      <trkpt lat="42.39215833" lon="-7.87291667">
        <ele>432.0</ele>
        <time>2018-10-03T07:09:00.000Z</time>
      </trkpt>
      <trkpt lat="42.39217333" lon="-7.872915">
        <ele>432.0</ele>
        <time>2018-10-03T07:09:01.000Z</time>
      </trkpt>
      <trkpt lat="42.392185" lon="-7.872915">
        <ele>432.0</ele>
        <time>2018-10-03T07:09:02.000Z</time>
      </trkpt>
      <trkpt lat="42.39219833" lon="-7.87291833">
        <ele>432.0</ele>
        <time>2018-10-03T07:09:03.000Z</time>
      </trkpt>
      <trkpt lat="42.392215" lon="-7.87291833">
        <ele>432.0</ele>
        <time>2018-10-03T07:09:04.000Z</time>
      </trkpt>
      <trkpt lat="42.39223167" lon="-7.87291667">
        <ele>432.0</ele>
        <time>2018-10-03T07:09:05.000Z</time>
      </trkpt>
      <trkpt lat="42.39225" lon="-7.872915">
        <ele>432.0</ele>
        <time>2018-10-03T07:09:06.000Z</time>
      </trkpt>
      <trkpt lat="42.39226667" lon="-7.87291333">
        <ele>432.0</ele>
        <time>2018-10-03T07:09:07.000Z</time>
      </trkpt>
      <trkpt lat="42.39228167" lon="-7.87291167">
        <ele>432.0</ele>
        <time>2018-10-03T07:09:08.000Z</time>
      </trkpt>
      <trkpt lat="42.39229833" lon="-7.87291167">
        <ele>432.0</ele>
        <time>2018-10-03T07:09:09.000Z</time>
      </trkpt>
      <trkpt lat="42.392315" lon="-7.87291167">
        <ele>432.0</ele>
        <time>2018-10-03T07:09:10.000Z</time>
      </trkpt>
      <trkpt lat="42.39233167" lon="-7.87291">
        <ele>432.0</ele>
        <time>2018-10-03T07:09:11.000Z</time>
      </trkpt>
      <trkpt lat="42.39235" lon="-7.87290667">
        <ele>432.0</ele>
        <time>2018-10-03T07:09:12.000Z</time>
      </trkpt>
      <trkpt lat="42.39236833" lon="-7.87290167">
        <ele>432.0</ele>
        <time>2018-10-03T07:09:13.000Z</time>
      </trkpt>
      <trkpt lat="42.392385" lon="-7.8729">
        <ele>432.0</ele>
        <time>2018-10-03T07:09:14.000Z</time>
      </trkpt>
      <trkpt lat="42.39240167" lon="-7.87289833">
        <ele>432.0</ele>
        <time>2018-10-03T07:09:15.000Z</time>
      </trkpt>
      <trkpt lat="42.392415" lon="-7.87289667">
        <ele>432.0</ele>
        <time>2018-10-03T07:09:16.000Z</time>
      </trkpt>
      <trkpt lat="42.39242667" lon="-7.87289667">
        <ele>431.0</ele>
        <time>2018-10-03T07:09:17.000Z</time>
      </trkpt>
      <trkpt lat="42.39244167" lon="-7.87289833">
        <ele>432.0</ele>
        <time>2018-10-03T07:09:18.000Z</time>
      </trkpt>
      <trkpt lat="42.392455" lon="-7.8729">
        <ele>432.0</ele>
        <time>2018-10-03T07:09:19.000Z</time>
      </trkpt>
      <trkpt lat="42.39247" lon="-7.8729">
        <ele>432.0</ele>
        <time>2018-10-03T07:09:20.000Z</time>
      </trkpt>
      <trkpt lat="42.39248333" lon="-7.87290333">
        <ele>432.0</ele>
        <time>2018-10-03T07:09:21.000Z</time>
      </trkpt>
      <trkpt lat="42.39249833" lon="-7.87290167">
        <ele>432.0</ele>
        <time>2018-10-03T07:09:22.000Z</time>
      </trkpt>
      <trkpt lat="42.39251167" lon="-7.87290167">
        <ele>432.0</ele>
        <time>2018-10-03T07:09:23.000Z</time>
      </trkpt>
      <trkpt lat="42.39252667" lon="-7.872905">
        <ele>432.0</ele>
        <time>2018-10-03T07:09:24.000Z</time>
      </trkpt>
      <trkpt lat="42.39254" lon="-7.87290667">
        <ele>432.0</ele>
        <time>2018-10-03T07:09:25.000Z</time>
      </trkpt>
      <trkpt lat="42.39255167" lon="-7.87291167">
        <ele>432.0</ele>
        <time>2018-10-03T07:09:26.000Z</time>
      </trkpt>
      <trkpt lat="42.39256333" lon="-7.87291667">
        <ele>433.0</ele>
        <time>2018-10-03T07:09:27.000Z</time>
      </trkpt>
      <trkpt lat="42.39257667" lon="-7.87292">
        <ele>433.0</ele>
        <time>2018-10-03T07:09:28.000Z</time>
      </trkpt>
      <trkpt lat="42.39259" lon="-7.87292167">
        <ele>433.0</ele>
        <time>2018-10-03T07:09:29.000Z</time>
      </trkpt>
      <trkpt lat="42.392605" lon="-7.87292333">
        <ele>433.0</ele>
        <time>2018-10-03T07:09:30.000Z</time>
      </trkpt>
      <trkpt lat="42.39262" lon="-7.87292333">
        <ele>433.0</ele>
        <time>2018-10-03T07:09:31.000Z</time>
      </trkpt>
      <trkpt lat="42.392635" lon="-7.872925">
        <ele>433.0</ele>
        <time>2018-10-03T07:09:32.000Z</time>
      </trkpt>
      <trkpt lat="42.39265167" lon="-7.87293167">
        <ele>433.0</ele>
        <time>2018-10-03T07:09:33.000Z</time>
      </trkpt>
      <trkpt lat="42.39266667" lon="-7.87293833">
        <ele>434.0</ele>
        <time>2018-10-03T07:09:34.000Z</time>
      </trkpt>
      <trkpt lat="42.39268333" lon="-7.872945">
        <ele>434.0</ele>
        <time>2018-10-03T07:09:35.000Z</time>
      </trkpt>
      <trkpt lat="42.39270333" lon="-7.87295">
        <ele>433.0</ele>
        <time>2018-10-03T07:09:36.000Z</time>
      </trkpt>
      <trkpt lat="42.39272333" lon="-7.872955">
        <ele>433.0</ele>
        <time>2018-10-03T07:09:37.000Z</time>
      </trkpt>
      <trkpt lat="42.39274333" lon="-7.87296167">
        <ele>433.0</ele>
        <time>2018-10-03T07:09:38.000Z</time>
      </trkpt>
      <trkpt lat="42.39276167" lon="-7.872965">
        <ele>433.0</ele>
        <time>2018-10-03T07:09:39.000Z</time>
      </trkpt>
      <trkpt lat="42.39278" lon="-7.87296667">
        <ele>433.0</ele>
        <time>2018-10-03T07:09:40.000Z</time>
      </trkpt>
      <trkpt lat="42.39279833" lon="-7.87297167">
        <ele>432.0</ele>
        <time>2018-10-03T07:09:41.000Z</time>
      </trkpt>
      <trkpt lat="42.392815" lon="-7.87297833">
        <ele>432.0</ele>
        <time>2018-10-03T07:09:42.000Z</time>
      </trkpt>
      <trkpt lat="42.39283333" lon="-7.87298333">
        <ele>432.0</ele>
        <time>2018-10-03T07:09:43.000Z</time>
      </trkpt>
      <trkpt lat="42.392855" lon="-7.87298667">
        <ele>432.0</ele>
        <time>2018-10-03T07:09:44.000Z</time>
      </trkpt>
      <trkpt lat="42.39287667" lon="-7.87298833">
        <ele>432.0</ele>
        <time>2018-10-03T07:09:45.000Z</time>
      </trkpt>
      <trkpt lat="42.3929" lon="-7.87299167">
        <ele>432.0</ele>
        <time>2018-10-03T07:09:46.000Z</time>
      </trkpt>
      <trkpt lat="42.39292167" lon="-7.872995">
        <ele>432.0</ele>
        <time>2018-10-03T07:09:47.000Z</time>
      </trkpt>
      <trkpt lat="42.39294333" lon="-7.87299833">
        <ele>432.0</ele>
        <time>2018-10-03T07:09:48.000Z</time>
      </trkpt>
      <trkpt lat="42.392965" lon="-7.873">
        <ele>432.0</ele>
        <time>2018-10-03T07:09:49.000Z</time>
      </trkpt>
      <trkpt lat="42.39298667" lon="-7.873">
        <ele>432.0</ele>
        <time>2018-10-03T07:09:50.000Z</time>
      </trkpt>
      <trkpt lat="42.393005" lon="-7.87300167">
        <ele>432.0</ele>
        <time>2018-10-03T07:09:51.000Z</time>
      </trkpt>
      <trkpt lat="42.393025" lon="-7.873">
        <ele>432.0</ele>
        <time>2018-10-03T07:09:52.000Z</time>
      </trkpt>
      <trkpt lat="42.39304667" lon="-7.87299833">
        <ele>432.0</ele>
        <time>2018-10-03T07:09:53.000Z</time>
      </trkpt>
      <trkpt lat="42.39306667" lon="-7.87300167">
        <ele>432.0</ele>
        <time>2018-10-03T07:09:54.000Z</time>
      </trkpt>
      <trkpt lat="42.39308833" lon="-7.873005">
        <ele>432.0</ele>
        <time>2018-10-03T07:09:55.000Z</time>
      </trkpt>
      <trkpt lat="42.393105" lon="-7.87300833">
        <ele>432.0</ele>
        <time>2018-10-03T07:09:56.000Z</time>
      </trkpt>
      <trkpt lat="42.39312333" lon="-7.87301333">
        <ele>432.0</ele>
        <time>2018-10-03T07:09:57.000Z</time>
      </trkpt>
      <trkpt lat="42.39314333" lon="-7.87301667">
        <ele>432.0</ele>
        <time>2018-10-03T07:09:58.000Z</time>
      </trkpt>
      <trkpt lat="42.39316333" lon="-7.87301833">
        <ele>432.0</ele>
        <time>2018-10-03T07:09:59.000Z</time>
      </trkpt>
      <trkpt lat="42.39318" lon="-7.87302">
        <ele>432.0</ele>
        <time>2018-10-03T07:10:00.000Z</time>
      </trkpt>
      <trkpt lat="42.39319667" lon="-7.87302667">
        <ele>432.0</ele>
        <time>2018-10-03T07:10:01.000Z</time>
      </trkpt>
      <trkpt lat="42.393215" lon="-7.87302667">
        <ele>432.0</ele>
        <time>2018-10-03T07:10:02.000Z</time>
      </trkpt>
      <trkpt lat="42.39323333" lon="-7.87302333">
        <ele>432.0</ele>
        <time>2018-10-03T07:10:03.000Z</time>
      </trkpt>
      <trkpt lat="42.39325167" lon="-7.87302333">
        <ele>432.0</ele>
        <time>2018-10-03T07:10:04.000Z</time>
      </trkpt>
      <trkpt lat="42.39327" lon="-7.87302167">
        <ele>432.0</ele>
        <time>2018-10-03T07:10:05.000Z</time>
      </trkpt>
      <trkpt lat="42.39328667" lon="-7.87302333">
        <ele>432.0</ele>
        <time>2018-10-03T07:10:06.000Z</time>
      </trkpt>
      <trkpt lat="42.39330167" lon="-7.873025">
        <ele>432.0</ele>
        <time>2018-10-03T07:10:07.000Z</time>
      </trkpt>
      <trkpt lat="42.39331333" lon="-7.873025">
        <ele>432.0</ele>
        <time>2018-10-03T07:10:08.000Z</time>
      </trkpt>
      <trkpt lat="42.39332833" lon="-7.87302667">
        <ele>432.0</ele>
        <time>2018-10-03T07:10:09.000Z</time>
      </trkpt>
      <trkpt lat="42.39334167" lon="-7.87302833">
        <ele>432.0</ele>
        <time>2018-10-03T07:10:10.000Z</time>
      </trkpt>
      <trkpt lat="42.393355" lon="-7.87303">
        <ele>432.0</ele>
        <time>2018-10-03T07:10:11.000Z</time>
      </trkpt>
      <trkpt lat="42.39337" lon="-7.87303167">
        <ele>432.0</ele>
        <time>2018-10-03T07:10:12.000Z</time>
      </trkpt>
      <trkpt lat="42.39338833" lon="-7.87303333">
        <ele>432.0</ele>
        <time>2018-10-03T07:10:13.000Z</time>
      </trkpt>
      <trkpt lat="42.39340333" lon="-7.87303333">
        <ele>432.0</ele>
        <time>2018-10-03T07:10:14.000Z</time>
      </trkpt>
      <trkpt lat="42.39342167" lon="-7.87303333">
        <ele>432.0</ele>
        <time>2018-10-03T07:10:15.000Z</time>
      </trkpt>
      <trkpt lat="42.39343833" lon="-7.87303">
        <ele>432.0</ele>
        <time>2018-10-03T07:10:16.000Z</time>
      </trkpt>
      <trkpt lat="42.393455" lon="-7.87302833">
        <ele>432.0</ele>
        <time>2018-10-03T07:10:17.000Z</time>
      </trkpt>
      <trkpt lat="42.39347" lon="-7.87302667">
        <ele>432.0</ele>
        <time>2018-10-03T07:10:18.000Z</time>
      </trkpt>
      <trkpt lat="42.39348667" lon="-7.873025">
        <ele>432.0</ele>
        <time>2018-10-03T07:10:19.000Z</time>
      </trkpt>
      <trkpt lat="42.39350333" lon="-7.87302167">
        <ele>433.0</ele>
        <time>2018-10-03T07:10:20.000Z</time>
      </trkpt>
      <trkpt lat="42.39352" lon="-7.87302167">
        <ele>433.0</ele>
        <time>2018-10-03T07:10:21.000Z</time>
      </trkpt>
      <trkpt lat="42.393535" lon="-7.87302167">
        <ele>433.0</ele>
        <time>2018-10-03T07:10:22.000Z</time>
      </trkpt>
      <trkpt lat="42.39355" lon="-7.87302">
        <ele>433.0</ele>
        <time>2018-10-03T07:10:23.000Z</time>
      </trkpt>
      <trkpt lat="42.39356167" lon="-7.87301667">
        <ele>433.0</ele>
        <time>2018-10-03T07:10:24.000Z</time>
      </trkpt>
      <trkpt lat="42.393575" lon="-7.873015">
        <ele>433.0</ele>
        <time>2018-10-03T07:10:25.000Z</time>
      </trkpt>
      <trkpt lat="42.39358833" lon="-7.87301333">
        <ele>433.0</ele>
        <time>2018-10-03T07:10:26.000Z</time>
      </trkpt>
      <trkpt lat="42.393595" lon="-7.87301667">
        <ele>434.0</ele>
        <time>2018-10-03T07:10:27.000Z</time>
      </trkpt>
      <trkpt lat="42.39360333" lon="-7.87301833">
        <ele>434.0</ele>
        <time>2018-10-03T07:10:28.000Z</time>
      </trkpt>
      <trkpt lat="42.39361833" lon="-7.87301833">
        <ele>434.0</ele>
        <time>2018-10-03T07:10:29.000Z</time>
      </trkpt>
      <trkpt lat="42.393635" lon="-7.87301833">
        <ele>434.0</ele>
        <time>2018-10-03T07:10:30.000Z</time>
      </trkpt>
      <trkpt lat="42.39364833" lon="-7.87302">
        <ele>434.0</ele>
        <time>2018-10-03T07:10:31.000Z</time>
      </trkpt>
      <trkpt lat="42.39366333" lon="-7.87302333">
        <ele>435.0</ele>
        <time>2018-10-03T07:10:32.000Z</time>
      </trkpt>
      <trkpt lat="42.39368" lon="-7.87302667">
        <ele>435.0</ele>
        <time>2018-10-03T07:10:33.000Z</time>
      </trkpt>
      <trkpt lat="42.39369833" lon="-7.87303">
        <ele>435.0</ele>
        <time>2018-10-03T07:10:34.000Z</time>
      </trkpt>
      <trkpt lat="42.39371167" lon="-7.87303333">
        <ele>435.0</ele>
        <time>2018-10-03T07:10:35.000Z</time>
      </trkpt>
      <trkpt lat="42.39372667" lon="-7.87303667">
        <ele>435.0</ele>
        <time>2018-10-03T07:10:36.000Z</time>
      </trkpt>
      <trkpt lat="42.39373833" lon="-7.87304">
        <ele>435.0</ele>
        <time>2018-10-03T07:10:37.000Z</time>
      </trkpt>
      <trkpt lat="42.39375333" lon="-7.87304167">
        <ele>435.0</ele>
        <time>2018-10-03T07:10:38.000Z</time>
      </trkpt>
      <trkpt lat="42.39376667" lon="-7.87304333">
        <ele>436.0</ele>
        <time>2018-10-03T07:10:39.000Z</time>
      </trkpt>
      <trkpt lat="42.39378167" lon="-7.87304333">
        <ele>436.0</ele>
        <time>2018-10-03T07:10:40.000Z</time>
      </trkpt>
      <trkpt lat="42.3938" lon="-7.87304667">
        <ele>436.0</ele>
        <time>2018-10-03T07:10:41.000Z</time>
      </trkpt>
      <trkpt lat="42.39381667" lon="-7.87305167">
        <ele>436.0</ele>
        <time>2018-10-03T07:10:42.000Z</time>
      </trkpt>
      <trkpt lat="42.39383167" lon="-7.87305667">
        <ele>436.0</ele>
        <time>2018-10-03T07:10:43.000Z</time>
      </trkpt>
      <trkpt lat="42.39384667" lon="-7.87306167">
        <ele>436.0</ele>
        <time>2018-10-03T07:10:44.000Z</time>
      </trkpt>
      <trkpt lat="42.39386" lon="-7.87306667">
        <ele>436.0</ele>
        <time>2018-10-03T07:10:45.000Z</time>
      </trkpt>
      <trkpt lat="42.39387333" lon="-7.87307">
        <ele>437.0</ele>
        <time>2018-10-03T07:10:46.000Z</time>
      </trkpt>
      <trkpt lat="42.39388667" lon="-7.87307167">
        <ele>437.0</ele>
        <time>2018-10-03T07:10:47.000Z</time>
      </trkpt>
      <trkpt lat="42.3939" lon="-7.873075">
        <ele>437.0</ele>
        <time>2018-10-03T07:10:48.000Z</time>
      </trkpt>
      <trkpt lat="42.393915" lon="-7.87307667">
        <ele>437.0</ele>
        <time>2018-10-03T07:10:49.000Z</time>
      </trkpt>
      <trkpt lat="42.39392833" lon="-7.87308">
        <ele>437.0</ele>
        <time>2018-10-03T07:10:50.000Z</time>
      </trkpt>
      <trkpt lat="42.39394167" lon="-7.87308167">
        <ele>437.0</ele>
        <time>2018-10-03T07:10:51.000Z</time>
      </trkpt>
      <trkpt lat="42.39395333" lon="-7.87308667">
        <ele>438.0</ele>
        <time>2018-10-03T07:10:52.000Z</time>
      </trkpt>
      <trkpt lat="42.39396667" lon="-7.87309">
        <ele>438.0</ele>
        <time>2018-10-03T07:10:53.000Z</time>
      </trkpt>
      <trkpt lat="42.39398" lon="-7.87309167">
        <ele>438.0</ele>
        <time>2018-10-03T07:10:54.000Z</time>
      </trkpt>
      <trkpt lat="42.39399333" lon="-7.87309667">
        <ele>438.0</ele>
        <time>2018-10-03T07:10:55.000Z</time>
      </trkpt>
      <trkpt lat="42.39400667" lon="-7.8731">
        <ele>438.0</ele>
        <time>2018-10-03T07:10:56.000Z</time>
      </trkpt>
      <trkpt lat="42.39402" lon="-7.87310333">
        <ele>439.0</ele>
        <time>2018-10-03T07:10:57.000Z</time>
      </trkpt>
      <trkpt lat="42.394035" lon="-7.87310333">
        <ele>439.0</ele>
        <time>2018-10-03T07:10:58.000Z</time>
      </trkpt>
      <trkpt lat="42.39405" lon="-7.87310167">
        <ele>439.0</ele>
        <time>2018-10-03T07:10:59.000Z</time>
      </trkpt>
      <trkpt lat="42.39406667" lon="-7.87309833">
        <ele>440.0</ele>
        <time>2018-10-03T07:11:00.000Z</time>
      </trkpt>
      <trkpt lat="42.39408" lon="-7.87309667">
        <ele>440.0</ele>
        <time>2018-10-03T07:11:01.000Z</time>
      </trkpt>
      <trkpt lat="42.39409167" lon="-7.873095">
        <ele>440.0</ele>
        <time>2018-10-03T07:11:02.000Z</time>
      </trkpt>
      <trkpt lat="42.39410333" lon="-7.87309167">
        <ele>440.0</ele>
        <time>2018-10-03T07:11:03.000Z</time>
      </trkpt>
      <trkpt lat="42.39411833" lon="-7.87308833">
        <ele>440.0</ele>
        <time>2018-10-03T07:11:04.000Z</time>
      </trkpt>
      <trkpt lat="42.39413333" lon="-7.873085">
        <ele>441.0</ele>
        <time>2018-10-03T07:11:05.000Z</time>
      </trkpt>
      <trkpt lat="42.39414833" lon="-7.87308167">
        <ele>441.0</ele>
        <time>2018-10-03T07:11:06.000Z</time>
      </trkpt>
      <trkpt lat="42.39416" lon="-7.87308">
        <ele>441.0</ele>
        <time>2018-10-03T07:11:07.000Z</time>
      </trkpt>
      <trkpt lat="42.39417333" lon="-7.87307167">
        <ele>441.0</ele>
        <time>2018-10-03T07:11:08.000Z</time>
      </trkpt>
      <trkpt lat="42.39418167" lon="-7.87306667">
        <ele>441.0</ele>
        <time>2018-10-03T07:11:09.000Z</time>
      </trkpt>
      <trkpt lat="42.39419167" lon="-7.87305833">
        <ele>441.0</ele>
        <time>2018-10-03T07:11:10.000Z</time>
      </trkpt>
      <trkpt lat="42.3942" lon="-7.873055">
        <ele>442.0</ele>
        <time>2018-10-03T07:11:11.000Z</time>
      </trkpt>
      <trkpt lat="42.39421167" lon="-7.87305333">
        <ele>442.0</ele>
        <time>2018-10-03T07:11:12.000Z</time>
      </trkpt>
      <trkpt lat="42.39422167" lon="-7.87305">
        <ele>442.0</ele>
        <time>2018-10-03T07:11:13.000Z</time>
      </trkpt>
      <trkpt lat="42.39423333" lon="-7.87305">
        <ele>442.0</ele>
        <time>2018-10-03T07:11:14.000Z</time>
      </trkpt>
      <trkpt lat="42.39424667" lon="-7.87304833">
        <ele>442.0</ele>
        <time>2018-10-03T07:11:15.000Z</time>
      </trkpt>
      <trkpt lat="42.394255" lon="-7.87304833">
        <ele>443.0</ele>
        <time>2018-10-03T07:11:16.000Z</time>
      </trkpt>
      <trkpt lat="42.394265" lon="-7.87304833">
        <ele>443.0</ele>
        <time>2018-10-03T07:11:17.000Z</time>
      </trkpt>
      <trkpt lat="42.394275" lon="-7.87304833">
        <ele>443.0</ele>
        <time>2018-10-03T07:11:18.000Z</time>
      </trkpt>
      <trkpt lat="42.39428833" lon="-7.87305167">
        <ele>443.0</ele>
        <time>2018-10-03T07:11:19.000Z</time>
      </trkpt>
      <trkpt lat="42.394305" lon="-7.87304833">
        <ele>443.0</ele>
        <time>2018-10-03T07:11:20.000Z</time>
      </trkpt>
      <trkpt lat="42.39432" lon="-7.873045">
        <ele>444.0</ele>
        <time>2018-10-03T07:11:21.000Z</time>
      </trkpt>
      <trkpt lat="42.39433333" lon="-7.87304167">
        <ele>444.0</ele>
        <time>2018-10-03T07:11:22.000Z</time>
      </trkpt>
      <trkpt lat="42.39434667" lon="-7.87304">
        <ele>444.0</ele>
        <time>2018-10-03T07:11:23.000Z</time>
      </trkpt>
      <trkpt lat="42.39435833" lon="-7.873035">
        <ele>444.0</ele>
        <time>2018-10-03T07:11:24.000Z</time>
      </trkpt>
      <trkpt lat="42.39437167" lon="-7.87303167">
        <ele>445.0</ele>
        <time>2018-10-03T07:11:25.000Z</time>
      </trkpt>
      <trkpt lat="42.39438167" lon="-7.87303">
        <ele>445.0</ele>
        <time>2018-10-03T07:11:26.000Z</time>
      </trkpt>
      <trkpt lat="42.394395" lon="-7.87302667">
        <ele>445.0</ele>
        <time>2018-10-03T07:11:27.000Z</time>
      </trkpt>
      <trkpt lat="42.39441" lon="-7.87302">
        <ele>445.0</ele>
        <time>2018-10-03T07:11:28.000Z</time>
      </trkpt>
      <trkpt lat="42.394425" lon="-7.873015">
        <ele>445.0</ele>
        <time>2018-10-03T07:11:29.000Z</time>
      </trkpt>
      <trkpt lat="42.39443833" lon="-7.87301">
        <ele>446.0</ele>
        <time>2018-10-03T07:11:30.000Z</time>
      </trkpt>
      <trkpt lat="42.394455" lon="-7.87300333">
        <ele>446.0</ele>
        <time>2018-10-03T07:11:31.000Z</time>
      </trkpt>
      <trkpt lat="42.39447" lon="-7.872995">
        <ele>446.0</ele>
        <time>2018-10-03T07:11:32.000Z</time>
      </trkpt>
      <trkpt lat="42.39448333" lon="-7.87298667">
        <ele>446.0</ele>
        <time>2018-10-03T07:11:33.000Z</time>
      </trkpt>
      <trkpt lat="42.39449833" lon="-7.87298167">
        <ele>446.0</ele>
        <time>2018-10-03T07:11:34.000Z</time>
      </trkpt>
      <trkpt lat="42.39451167" lon="-7.87298">
        <ele>446.0</ele>
        <time>2018-10-03T07:11:35.000Z</time>
      </trkpt>
      <trkpt lat="42.39452333" lon="-7.87297167">
        <ele>446.0</ele>
        <time>2018-10-03T07:11:36.000Z</time>
      </trkpt>
      <trkpt lat="42.39453667" lon="-7.872965">
        <ele>447.0</ele>
        <time>2018-10-03T07:11:37.000Z</time>
      </trkpt>
      <trkpt lat="42.39455" lon="-7.87295833">
        <ele>447.0</ele>
        <time>2018-10-03T07:11:38.000Z</time>
      </trkpt>
      <trkpt lat="42.39456167" lon="-7.87295333">
        <ele>447.0</ele>
        <time>2018-10-03T07:11:39.000Z</time>
      </trkpt>
      <trkpt lat="42.39457333" lon="-7.87294833">
        <ele>447.0</ele>
        <time>2018-10-03T07:11:40.000Z</time>
      </trkpt>
      <trkpt lat="42.39458667" lon="-7.87294167">
        <ele>447.0</ele>
        <time>2018-10-03T07:11:41.000Z</time>
      </trkpt>
      <trkpt lat="42.39459667" lon="-7.87293667">
        <ele>447.0</ele>
        <time>2018-10-03T07:11:42.000Z</time>
      </trkpt>
      <trkpt lat="42.39460833" lon="-7.87293">
        <ele>447.0</ele>
        <time>2018-10-03T07:11:43.000Z</time>
      </trkpt>
      <trkpt lat="42.39462" lon="-7.87292">
        <ele>447.0</ele>
        <time>2018-10-03T07:11:44.000Z</time>
      </trkpt>
      <trkpt lat="42.39463167" lon="-7.87290333">
        <ele>447.0</ele>
        <time>2018-10-03T07:11:45.000Z</time>
      </trkpt>
      <trkpt lat="42.394645" lon="-7.87289167">
        <ele>447.0</ele>
        <time>2018-10-03T07:11:46.000Z</time>
      </trkpt>
      <trkpt lat="42.39465833" lon="-7.87287833">
        <ele>448.0</ele>
        <time>2018-10-03T07:11:47.000Z</time>
      </trkpt>
      <trkpt lat="42.39467167" lon="-7.87287">
        <ele>448.0</ele>
        <time>2018-10-03T07:11:48.000Z</time>
      </trkpt>
      <trkpt lat="42.394685" lon="-7.87286">
        <ele>448.0</ele>
        <time>2018-10-03T07:11:49.000Z</time>
      </trkpt>
      <trkpt lat="42.39469667" lon="-7.87285167">
        <ele>448.0</ele>
        <time>2018-10-03T07:11:50.000Z</time>
      </trkpt>
      <trkpt lat="42.39470833" lon="-7.87284333">
        <ele>448.0</ele>
        <time>2018-10-03T07:11:51.000Z</time>
      </trkpt>
      <trkpt lat="42.39472167" lon="-7.87283333">
        <ele>448.0</ele>
        <time>2018-10-03T07:11:52.000Z</time>
      </trkpt>
      <trkpt lat="42.39473333" lon="-7.87282667">
        <ele>448.0</ele>
        <time>2018-10-03T07:11:53.000Z</time>
      </trkpt>
      <trkpt lat="42.394745" lon="-7.87282167">
        <ele>448.0</ele>
        <time>2018-10-03T07:11:54.000Z</time>
      </trkpt>
      <trkpt lat="42.39475833" lon="-7.87281833">
        <ele>448.0</ele>
        <time>2018-10-03T07:11:55.000Z</time>
      </trkpt>
      <trkpt lat="42.39477167" lon="-7.87281">
        <ele>448.0</ele>
        <time>2018-10-03T07:11:56.000Z</time>
      </trkpt>
      <trkpt lat="42.394785" lon="-7.87280333">
        <ele>449.0</ele>
        <time>2018-10-03T07:11:57.000Z</time>
      </trkpt>
      <trkpt lat="42.39479833" lon="-7.87279833">
        <ele>449.0</ele>
        <time>2018-10-03T07:11:58.000Z</time>
      </trkpt>
      <trkpt lat="42.39481333" lon="-7.872795">
        <ele>449.0</ele>
        <time>2018-10-03T07:11:59.000Z</time>
      </trkpt>
      <trkpt lat="42.394825" lon="-7.87279333">
        <ele>449.0</ele>
        <time>2018-10-03T07:12:00.000Z</time>
      </trkpt>
      <trkpt lat="42.39484" lon="-7.87279333">
        <ele>449.0</ele>
        <time>2018-10-03T07:12:01.000Z</time>
      </trkpt>
      <trkpt lat="42.394855" lon="-7.87279333">
        <ele>450.0</ele>
        <time>2018-10-03T07:12:02.000Z</time>
      </trkpt>
      <trkpt lat="42.39486833" lon="-7.872795">
        <ele>450.0</ele>
        <time>2018-10-03T07:12:03.000Z</time>
      </trkpt>
      <trkpt lat="42.39488333" lon="-7.872795">
        <ele>450.0</ele>
        <time>2018-10-03T07:12:04.000Z</time>
      </trkpt>
      <trkpt lat="42.3949" lon="-7.87279667">
        <ele>450.0</ele>
        <time>2018-10-03T07:12:05.000Z</time>
      </trkpt>
      <trkpt lat="42.39491333" lon="-7.872795">
        <ele>450.0</ele>
        <time>2018-10-03T07:12:06.000Z</time>
      </trkpt>
      <trkpt lat="42.39492833" lon="-7.87279167">
        <ele>450.0</ele>
        <time>2018-10-03T07:12:07.000Z</time>
      </trkpt>
      <trkpt lat="42.39494167" lon="-7.87279">
        <ele>450.0</ele>
        <time>2018-10-03T07:12:08.000Z</time>
      </trkpt>
      <trkpt lat="42.39495667" lon="-7.87278667">
        <ele>451.0</ele>
        <time>2018-10-03T07:12:09.000Z</time>
      </trkpt>
      <trkpt lat="42.39497" lon="-7.872785">
        <ele>451.0</ele>
        <time>2018-10-03T07:12:10.000Z</time>
      </trkpt>
      <trkpt lat="42.39498667" lon="-7.87278333">
        <ele>451.0</ele>
        <time>2018-10-03T07:12:11.000Z</time>
      </trkpt>
      <trkpt lat="42.39500333" lon="-7.87277833">
        <ele>451.0</ele>
        <time>2018-10-03T07:12:12.000Z</time>
      </trkpt>
      <trkpt lat="42.39501833" lon="-7.872775">
        <ele>451.0</ele>
        <time>2018-10-03T07:12:13.000Z</time>
      </trkpt>
      <trkpt lat="42.395035" lon="-7.87276833">
        <ele>451.0</ele>
        <time>2018-10-03T07:12:14.000Z</time>
      </trkpt>
      <trkpt lat="42.39504833" lon="-7.87276167">
        <ele>452.0</ele>
        <time>2018-10-03T07:12:15.000Z</time>
      </trkpt>
      <trkpt lat="42.39506167" lon="-7.87275833">
        <ele>452.0</ele>
        <time>2018-10-03T07:12:16.000Z</time>
      </trkpt>
      <trkpt lat="42.39507333" lon="-7.87275167">
        <ele>452.0</ele>
        <time>2018-10-03T07:12:17.000Z</time>
      </trkpt>
      <trkpt lat="42.39508667" lon="-7.87274333">
        <ele>452.0</ele>
        <time>2018-10-03T07:12:18.000Z</time>
      </trkpt>
      <trkpt lat="42.3951" lon="-7.87273833">
        <ele>452.0</ele>
        <time>2018-10-03T07:12:19.000Z</time>
      </trkpt>
      <trkpt lat="42.39511333" lon="-7.87273167">
        <ele>452.0</ele>
        <time>2018-10-03T07:12:20.000Z</time>
      </trkpt>
      <trkpt lat="42.39512667" lon="-7.872725">
        <ele>452.0</ele>
        <time>2018-10-03T07:12:21.000Z</time>
      </trkpt>
      <trkpt lat="42.39513833" lon="-7.87271667">
        <ele>452.0</ele>
        <time>2018-10-03T07:12:22.000Z</time>
      </trkpt>
      <trkpt lat="42.39514667" lon="-7.87270667">
        <ele>452.0</ele>
        <time>2018-10-03T07:12:23.000Z</time>
      </trkpt>
      <trkpt lat="42.39515833" lon="-7.8727">
        <ele>452.0</ele>
        <time>2018-10-03T07:12:24.000Z</time>
      </trkpt>
      <trkpt lat="42.39516" lon="-7.8727">
        <ele>452.0</ele>
        <time>2018-10-03T07:12:25.000Z</time>
      </trkpt>
      <trkpt lat="42.395165" lon="-7.872695">
        <ele>453.0</ele>
        <time>2018-10-03T07:12:26.000Z</time>
      </trkpt>
      <trkpt lat="42.39517667" lon="-7.87268833">
        <ele>453.0</ele>
        <time>2018-10-03T07:12:27.000Z</time>
      </trkpt>
      <trkpt lat="42.39518833" lon="-7.87268167">
        <ele>453.0</ele>
        <time>2018-10-03T07:12:28.000Z</time>
      </trkpt>
      <trkpt lat="42.39519833" lon="-7.872675">
        <ele>453.0</ele>
        <time>2018-10-03T07:12:29.000Z</time>
      </trkpt>
      <trkpt lat="42.39521" lon="-7.87267167">
        <ele>453.0</ele>
        <time>2018-10-03T07:12:30.000Z</time>
      </trkpt>
      <trkpt lat="42.39522167" lon="-7.87266667">
        <ele>453.0</ele>
        <time>2018-10-03T07:12:31.000Z</time>
      </trkpt>
      <trkpt lat="42.39523333" lon="-7.87266167">
        <ele>453.0</ele>
        <time>2018-10-03T07:12:32.000Z</time>
      </trkpt>
      <trkpt lat="42.39524667" lon="-7.872655">
        <ele>454.0</ele>
        <time>2018-10-03T07:12:33.000Z</time>
      </trkpt>
      <trkpt lat="42.39525833" lon="-7.87264833">
        <ele>454.0</ele>
        <time>2018-10-03T07:12:34.000Z</time>
      </trkpt>
      <trkpt lat="42.39527167" lon="-7.872645">
        <ele>454.0</ele>
        <time>2018-10-03T07:12:35.000Z</time>
      </trkpt>
      <trkpt lat="42.395285" lon="-7.87263833">
        <ele>454.0</ele>
        <time>2018-10-03T07:12:36.000Z</time>
      </trkpt>
      <trkpt lat="42.39529833" lon="-7.87263333">
        <ele>455.0</ele>
        <time>2018-10-03T07:12:37.000Z</time>
      </trkpt>
      <trkpt lat="42.39531167" lon="-7.87263167">
        <ele>455.0</ele>
        <time>2018-10-03T07:12:38.000Z</time>
      </trkpt>
      <trkpt lat="42.395325" lon="-7.87262833">
        <ele>455.0</ele>
        <time>2018-10-03T07:12:39.000Z</time>
      </trkpt>
      <trkpt lat="42.39533667" lon="-7.87262333">
        <ele>456.0</ele>
        <time>2018-10-03T07:12:40.000Z</time>
      </trkpt>
      <trkpt lat="42.39535" lon="-7.87262">
        <ele>456.0</ele>
        <time>2018-10-03T07:12:41.000Z</time>
      </trkpt>
      <trkpt lat="42.39536333" lon="-7.87261667">
        <ele>456.0</ele>
        <time>2018-10-03T07:12:42.000Z</time>
      </trkpt>
      <trkpt lat="42.39537667" lon="-7.87261833">
        <ele>456.0</ele>
        <time>2018-10-03T07:12:43.000Z</time>
      </trkpt>
      <trkpt lat="42.39539" lon="-7.87262167">
        <ele>457.0</ele>
        <time>2018-10-03T07:12:44.000Z</time>
      </trkpt>
      <trkpt lat="42.39540333" lon="-7.87262167">
        <ele>457.0</ele>
        <time>2018-10-03T07:12:45.000Z</time>
      </trkpt>
      <trkpt lat="42.395415" lon="-7.872625">
        <ele>457.0</ele>
        <time>2018-10-03T07:12:46.000Z</time>
      </trkpt>
      <trkpt lat="42.39542667" lon="-7.87262833">
        <ele>457.0</ele>
        <time>2018-10-03T07:12:47.000Z</time>
      </trkpt>
      <trkpt lat="42.39544167" lon="-7.87262667">
        <ele>458.0</ele>
        <time>2018-10-03T07:12:48.000Z</time>
      </trkpt>
      <trkpt lat="42.39545667" lon="-7.87262333">
        <ele>458.0</ele>
        <time>2018-10-03T07:12:49.000Z</time>
      </trkpt>
      <trkpt lat="42.39547167" lon="-7.87262">
        <ele>458.0</ele>
        <time>2018-10-03T07:12:50.000Z</time>
      </trkpt>
      <trkpt lat="42.395485" lon="-7.87261333">
        <ele>458.0</ele>
        <time>2018-10-03T07:12:51.000Z</time>
      </trkpt>
      <trkpt lat="42.39549667" lon="-7.87261">
        <ele>458.0</ele>
        <time>2018-10-03T07:12:52.000Z</time>
      </trkpt>
      <trkpt lat="42.39550833" lon="-7.87261">
        <ele>458.0</ele>
        <time>2018-10-03T07:12:53.000Z</time>
      </trkpt>
      <trkpt lat="42.39552" lon="-7.87261">
        <ele>459.0</ele>
        <time>2018-10-03T07:12:54.000Z</time>
      </trkpt>
      <trkpt lat="42.39553333" lon="-7.87261333">
        <ele>459.0</ele>
        <time>2018-10-03T07:12:55.000Z</time>
      </trkpt>
      <trkpt lat="42.39554667" lon="-7.87261667">
        <ele>459.0</ele>
        <time>2018-10-03T07:12:56.000Z</time>
      </trkpt>
      <trkpt lat="42.39555833" lon="-7.87262167">
        <ele>459.0</ele>
        <time>2018-10-03T07:12:57.000Z</time>
      </trkpt>
      <trkpt lat="42.39557167" lon="-7.87263">
        <ele>459.0</ele>
        <time>2018-10-03T07:12:58.000Z</time>
      </trkpt>
      <trkpt lat="42.39558833" lon="-7.87263833">
        <ele>459.0</ele>
        <time>2018-10-03T07:12:59.000Z</time>
      </trkpt>
      <trkpt lat="42.39560667" lon="-7.872645">
        <ele>460.0</ele>
        <time>2018-10-03T07:13:00.000Z</time>
      </trkpt>
      <trkpt lat="42.39562333" lon="-7.87264833">
        <ele>460.0</ele>
        <time>2018-10-03T07:13:01.000Z</time>
      </trkpt>
      <trkpt lat="42.39564" lon="-7.87264833">
        <ele>460.0</ele>
        <time>2018-10-03T07:13:02.000Z</time>
      </trkpt>
      <trkpt lat="42.39565833" lon="-7.87264833">
        <ele>460.0</ele>
        <time>2018-10-03T07:13:03.000Z</time>
      </trkpt>
      <trkpt lat="42.39567333" lon="-7.87265">
        <ele>460.0</ele>
        <time>2018-10-03T07:13:04.000Z</time>
      </trkpt>
      <trkpt lat="42.39568833" lon="-7.872655">
        <ele>460.0</ele>
        <time>2018-10-03T07:13:05.000Z</time>
      </trkpt>
      <trkpt lat="42.39570167" lon="-7.87266">
        <ele>460.0</ele>
        <time>2018-10-03T07:13:06.000Z</time>
      </trkpt>
      <trkpt lat="42.395715" lon="-7.87266333">
        <ele>460.0</ele>
        <time>2018-10-03T07:13:07.000Z</time>
      </trkpt>
      <trkpt lat="42.39572833" lon="-7.87267">
        <ele>460.0</ele>
        <time>2018-10-03T07:13:08.000Z</time>
      </trkpt>
      <trkpt lat="42.39574333" lon="-7.87267833">
        <ele>460.0</ele>
        <time>2018-10-03T07:13:09.000Z</time>
      </trkpt>
      <trkpt lat="42.39576167" lon="-7.87268167">
        <ele>460.0</ele>
        <time>2018-10-03T07:13:10.000Z</time>
      </trkpt>
      <trkpt lat="42.39578" lon="-7.87268667">
        <ele>460.0</ele>
        <time>2018-10-03T07:13:11.000Z</time>
      </trkpt>
      <trkpt lat="42.3958" lon="-7.87268833">
        <ele>460.0</ele>
        <time>2018-10-03T07:13:12.000Z</time>
      </trkpt>
      <trkpt lat="42.39581833" lon="-7.87269">
        <ele>460.0</ele>
        <time>2018-10-03T07:13:13.000Z</time>
      </trkpt>
      <trkpt lat="42.39583333" lon="-7.87269167">
        <ele>460.0</ele>
        <time>2018-10-03T07:13:14.000Z</time>
      </trkpt>
      <trkpt lat="42.39585" lon="-7.872695">
        <ele>460.0</ele>
        <time>2018-10-03T07:13:15.000Z</time>
      </trkpt>
      <trkpt lat="42.395865" lon="-7.87269833">
        <ele>460.0</ele>
        <time>2018-10-03T07:13:16.000Z</time>
      </trkpt>
      <trkpt lat="42.39588167" lon="-7.8727">
        <ele>460.0</ele>
        <time>2018-10-03T07:13:17.000Z</time>
      </trkpt>
      <trkpt lat="42.39589833" lon="-7.87270167">
        <ele>460.0</ele>
        <time>2018-10-03T07:13:18.000Z</time>
      </trkpt>
      <trkpt lat="42.395915" lon="-7.87270333">
        <ele>460.0</ele>
        <time>2018-10-03T07:13:19.000Z</time>
      </trkpt>
      <trkpt lat="42.39593167" lon="-7.87270333">
        <ele>460.0</ele>
        <time>2018-10-03T07:13:20.000Z</time>
      </trkpt>
      <trkpt lat="42.39594833" lon="-7.87270333">
        <ele>460.0</ele>
        <time>2018-10-03T07:13:21.000Z</time>
      </trkpt>
      <trkpt lat="42.39596333" lon="-7.87270333">
        <ele>460.0</ele>
        <time>2018-10-03T07:13:22.000Z</time>
      </trkpt>
      <trkpt lat="42.395975" lon="-7.87270167">
        <ele>460.0</ele>
        <time>2018-10-03T07:13:23.000Z</time>
      </trkpt>
      <trkpt lat="42.39598833" lon="-7.87269833">
        <ele>460.0</ele>
        <time>2018-10-03T07:13:24.000Z</time>
      </trkpt>
      <trkpt lat="42.39598833" lon="-7.87269833">
        <ele>460.0</ele>
        <time>2018-10-03T07:13:25.000Z</time>
      </trkpt>
      <trkpt lat="42.39602" lon="-7.87269167">
        <ele>459.0</ele>
        <time>2018-10-03T07:13:26.000Z</time>
      </trkpt>
      <trkpt lat="42.39603667" lon="-7.872685">
        <ele>459.0</ele>
        <time>2018-10-03T07:13:27.000Z</time>
      </trkpt>
      <trkpt lat="42.396055" lon="-7.87267833">
        <ele>459.0</ele>
        <time>2018-10-03T07:13:28.000Z</time>
      </trkpt>
      <trkpt lat="42.396075" lon="-7.87267167">
        <ele>459.0</ele>
        <time>2018-10-03T07:13:29.000Z</time>
      </trkpt>
      <trkpt lat="42.39609333" lon="-7.87266667">
        <ele>459.0</ele>
        <time>2018-10-03T07:13:30.000Z</time>
      </trkpt>
      <trkpt lat="42.39611167" lon="-7.87266333">
        <ele>459.0</ele>
        <time>2018-10-03T07:13:31.000Z</time>
      </trkpt>
      <trkpt lat="42.39612667" lon="-7.87265833">
        <ele>459.0</ele>
        <time>2018-10-03T07:13:32.000Z</time>
      </trkpt>
      <trkpt lat="42.396145" lon="-7.872655">
        <ele>458.0</ele>
        <time>2018-10-03T07:13:33.000Z</time>
      </trkpt>
      <trkpt lat="42.39616" lon="-7.872655">
        <ele>458.0</ele>
        <time>2018-10-03T07:13:34.000Z</time>
      </trkpt>
      <trkpt lat="42.396175" lon="-7.87265667">
        <ele>458.0</ele>
        <time>2018-10-03T07:13:35.000Z</time>
      </trkpt>
      <trkpt lat="42.39619333" lon="-7.87265667">
        <ele>458.0</ele>
        <time>2018-10-03T07:13:36.000Z</time>
      </trkpt>
      <trkpt lat="42.39621" lon="-7.87266">
        <ele>458.0</ele>
        <time>2018-10-03T07:13:37.000Z</time>
      </trkpt>
      <trkpt lat="42.39622833" lon="-7.87266167">
        <ele>458.0</ele>
        <time>2018-10-03T07:13:38.000Z</time>
      </trkpt>
      <trkpt lat="42.396245" lon="-7.87266667">
        <ele>458.0</ele>
        <time>2018-10-03T07:13:39.000Z</time>
      </trkpt>
      <trkpt lat="42.39626167" lon="-7.87267">
        <ele>458.0</ele>
        <time>2018-10-03T07:13:40.000Z</time>
      </trkpt>
      <trkpt lat="42.39627667" lon="-7.87267167">
        <ele>458.0</ele>
        <time>2018-10-03T07:13:41.000Z</time>
      </trkpt>
      <trkpt lat="42.39629167" lon="-7.872675">
        <ele>458.0</ele>
        <time>2018-10-03T07:13:42.000Z</time>
      </trkpt>
      <trkpt lat="42.39630667" lon="-7.87267667">
        <ele>458.0</ele>
        <time>2018-10-03T07:13:43.000Z</time>
      </trkpt>
      <trkpt lat="42.39632167" lon="-7.87267667">
        <ele>458.0</ele>
        <time>2018-10-03T07:13:44.000Z</time>
      </trkpt>
      <trkpt lat="42.39633833" lon="-7.87267833">
        <ele>458.0</ele>
        <time>2018-10-03T07:13:45.000Z</time>
      </trkpt>
      <trkpt lat="42.396355" lon="-7.87268">
        <ele>458.0</ele>
        <time>2018-10-03T07:13:46.000Z</time>
      </trkpt>
      <trkpt lat="42.39637167" lon="-7.87268">
        <ele>459.0</ele>
        <time>2018-10-03T07:13:47.000Z</time>
      </trkpt>
      <trkpt lat="42.396385" lon="-7.87268">
        <ele>459.0</ele>
        <time>2018-10-03T07:13:48.000Z</time>
      </trkpt>
      <trkpt lat="42.39639833" lon="-7.87268">
        <ele>459.0</ele>
        <time>2018-10-03T07:13:49.000Z</time>
      </trkpt>
      <trkpt lat="42.39641333" lon="-7.87268">
        <ele>459.0</ele>
        <time>2018-10-03T07:13:50.000Z</time>
      </trkpt>
      <trkpt lat="42.39642667" lon="-7.87267667">
        <ele>459.0</ele>
        <time>2018-10-03T07:13:51.000Z</time>
      </trkpt>
      <trkpt lat="42.39644167" lon="-7.87267333">
        <ele>459.0</ele>
        <time>2018-10-03T07:13:52.000Z</time>
      </trkpt>
      <trkpt lat="42.39645667" lon="-7.87267333">
        <ele>459.0</ele>
        <time>2018-10-03T07:13:53.000Z</time>
      </trkpt>
      <trkpt lat="42.39647167" lon="-7.87267">
        <ele>459.0</ele>
        <time>2018-10-03T07:13:54.000Z</time>
      </trkpt>
      <trkpt lat="42.39648833" lon="-7.87266667">
        <ele>459.0</ele>
        <time>2018-10-03T07:13:55.000Z</time>
      </trkpt>
      <trkpt lat="42.39650333" lon="-7.87266333">
        <ele>460.0</ele>
        <time>2018-10-03T07:13:56.000Z</time>
      </trkpt>
      <trkpt lat="42.39651833" lon="-7.87265667">
        <ele>460.0</ele>
        <time>2018-10-03T07:13:57.000Z</time>
      </trkpt>
      <trkpt lat="42.39653333" lon="-7.87265167">
        <ele>460.0</ele>
        <time>2018-10-03T07:13:58.000Z</time>
      </trkpt>
      <trkpt lat="42.39654833" lon="-7.87264833">
        <ele>460.0</ele>
        <time>2018-10-03T07:13:59.000Z</time>
      </trkpt>
      <trkpt lat="42.396565" lon="-7.87264667">
        <ele>460.0</ele>
        <time>2018-10-03T07:14:00.000Z</time>
      </trkpt>
      <trkpt lat="42.39658" lon="-7.87264667">
        <ele>460.0</ele>
        <time>2018-10-03T07:14:01.000Z</time>
      </trkpt>
      <trkpt lat="42.39659333" lon="-7.87264667">
        <ele>460.0</ele>
        <time>2018-10-03T07:14:02.000Z</time>
      </trkpt>
      <trkpt lat="42.39660667" lon="-7.87264667">
        <ele>460.0</ele>
        <time>2018-10-03T07:14:03.000Z</time>
      </trkpt>
      <trkpt lat="42.39662" lon="-7.87264667">
        <ele>460.0</ele>
        <time>2018-10-03T07:14:04.000Z</time>
      </trkpt>
      <trkpt lat="42.396635" lon="-7.87264833">
        <ele>461.0</ele>
        <time>2018-10-03T07:14:05.000Z</time>
      </trkpt>
      <trkpt lat="42.396645" lon="-7.87265167">
        <ele>461.0</ele>
        <time>2018-10-03T07:14:06.000Z</time>
      </trkpt>
      <trkpt lat="42.39666" lon="-7.87265167">
        <ele>461.0</ele>
        <time>2018-10-03T07:14:07.000Z</time>
      </trkpt>
      <trkpt lat="42.396675" lon="-7.87265167">
        <ele>461.0</ele>
        <time>2018-10-03T07:14:08.000Z</time>
      </trkpt>
      <trkpt lat="42.39669167" lon="-7.87265167">
        <ele>461.0</ele>
        <time>2018-10-03T07:14:09.000Z</time>
      </trkpt>
      <trkpt lat="42.39670667" lon="-7.872655">
        <ele>461.0</ele>
        <time>2018-10-03T07:14:10.000Z</time>
      </trkpt>
      <trkpt lat="42.39672167" lon="-7.87266">
        <ele>461.0</ele>
        <time>2018-10-03T07:14:11.000Z</time>
      </trkpt>
      <trkpt lat="42.39673667" lon="-7.87266167">
        <ele>462.0</ele>
        <time>2018-10-03T07:14:12.000Z</time>
      </trkpt>
      <trkpt lat="42.39675" lon="-7.87266167">
        <ele>462.0</ele>
        <time>2018-10-03T07:14:13.000Z</time>
      </trkpt>
      <trkpt lat="42.396765" lon="-7.87266333">
        <ele>462.0</ele>
        <time>2018-10-03T07:14:14.000Z</time>
      </trkpt>
      <trkpt lat="42.39677833" lon="-7.872665">
        <ele>462.0</ele>
        <time>2018-10-03T07:14:15.000Z</time>
      </trkpt>
      <trkpt lat="42.39679167" lon="-7.872665">
        <ele>462.0</ele>
        <time>2018-10-03T07:14:16.000Z</time>
      </trkpt>
      <trkpt lat="42.39680667" lon="-7.872665">
        <ele>462.0</ele>
        <time>2018-10-03T07:14:17.000Z</time>
      </trkpt>
      <trkpt lat="42.39682167" lon="-7.87266333">
        <ele>462.0</ele>
        <time>2018-10-03T07:14:18.000Z</time>
      </trkpt>
      <trkpt lat="42.39683667" lon="-7.87266333">
        <ele>462.0</ele>
        <time>2018-10-03T07:14:19.000Z</time>
      </trkpt>
      <trkpt lat="42.39685167" lon="-7.87266333">
        <ele>462.0</ele>
        <time>2018-10-03T07:14:20.000Z</time>
      </trkpt>
      <trkpt lat="42.39686667" lon="-7.87266333">
        <ele>462.0</ele>
        <time>2018-10-03T07:14:21.000Z</time>
      </trkpt>
      <trkpt lat="42.39688333" lon="-7.87266333">
        <ele>462.0</ele>
        <time>2018-10-03T07:14:22.000Z</time>
      </trkpt>
      <trkpt lat="42.39689833" lon="-7.87266167">
        <ele>463.0</ele>
        <time>2018-10-03T07:14:23.000Z</time>
      </trkpt>
      <trkpt lat="42.39691333" lon="-7.87266333">
        <ele>463.0</ele>
        <time>2018-10-03T07:14:24.000Z</time>
      </trkpt>
      <trkpt lat="42.39692833" lon="-7.87266333">
        <ele>463.0</ele>
        <time>2018-10-03T07:14:25.000Z</time>
      </trkpt>
      <trkpt lat="42.39694333" lon="-7.87266333">
        <ele>463.0</ele>
        <time>2018-10-03T07:14:26.000Z</time>
      </trkpt>
      <trkpt lat="42.39695833" lon="-7.87266167">
        <ele>463.0</ele>
        <time>2018-10-03T07:14:27.000Z</time>
      </trkpt>
      <trkpt lat="42.39697333" lon="-7.87265833">
        <ele>463.0</ele>
        <time>2018-10-03T07:14:28.000Z</time>
      </trkpt>
      <trkpt lat="42.39698833" lon="-7.87265833">
        <ele>463.0</ele>
        <time>2018-10-03T07:14:29.000Z</time>
      </trkpt>
      <trkpt lat="42.39700167" lon="-7.87266167">
        <ele>463.0</ele>
        <time>2018-10-03T07:14:30.000Z</time>
      </trkpt>
      <trkpt lat="42.397015" lon="-7.87266">
        <ele>463.0</ele>
        <time>2018-10-03T07:14:31.000Z</time>
      </trkpt>
      <trkpt lat="42.39702833" lon="-7.87266167">
        <ele>463.0</ele>
        <time>2018-10-03T07:14:32.000Z</time>
      </trkpt>
      <trkpt lat="42.39704167" lon="-7.87266167">
        <ele>464.0</ele>
        <time>2018-10-03T07:14:33.000Z</time>
      </trkpt>
      <trkpt lat="42.397055" lon="-7.872665">
        <ele>464.0</ele>
        <time>2018-10-03T07:14:34.000Z</time>
      </trkpt>
      <trkpt lat="42.39706833" lon="-7.87266667">
        <ele>464.0</ele>
        <time>2018-10-03T07:14:35.000Z</time>
      </trkpt>
      <trkpt lat="42.39708" lon="-7.87267167">
        <ele>464.0</ele>
        <time>2018-10-03T07:14:36.000Z</time>
      </trkpt>
      <trkpt lat="42.39709333" lon="-7.87267333">
        <ele>465.0</ele>
        <time>2018-10-03T07:14:37.000Z</time>
      </trkpt>
      <trkpt lat="42.39710667" lon="-7.872675">
        <ele>465.0</ele>
        <time>2018-10-03T07:14:38.000Z</time>
      </trkpt>
      <trkpt lat="42.39712" lon="-7.87267833">
        <ele>465.0</ele>
        <time>2018-10-03T07:14:39.000Z</time>
      </trkpt>
      <trkpt lat="42.397135" lon="-7.87267833">
        <ele>465.0</ele>
        <time>2018-10-03T07:14:40.000Z</time>
      </trkpt>
      <trkpt lat="42.39715" lon="-7.87268">
        <ele>466.0</ele>
        <time>2018-10-03T07:14:41.000Z</time>
      </trkpt>
      <trkpt lat="42.39716667" lon="-7.87268">
        <ele>466.0</ele>
        <time>2018-10-03T07:14:42.000Z</time>
      </trkpt>
      <trkpt lat="42.39718167" lon="-7.87268167">
        <ele>466.0</ele>
        <time>2018-10-03T07:14:43.000Z</time>
      </trkpt>
      <trkpt lat="42.39719833" lon="-7.87268333">
        <ele>467.0</ele>
        <time>2018-10-03T07:14:44.000Z</time>
      </trkpt>
      <trkpt lat="42.39721333" lon="-7.872685">
        <ele>467.0</ele>
        <time>2018-10-03T07:14:45.000Z</time>
      </trkpt>
      <trkpt lat="42.39722667" lon="-7.87268667">
        <ele>467.0</ele>
        <time>2018-10-03T07:14:46.000Z</time>
      </trkpt>
      <trkpt lat="42.39723833" lon="-7.87268833">
        <ele>468.0</ele>
        <time>2018-10-03T07:14:47.000Z</time>
      </trkpt>
      <trkpt lat="42.39725167" lon="-7.87269">
        <ele>468.0</ele>
        <time>2018-10-03T07:14:48.000Z</time>
      </trkpt>
      <trkpt lat="42.39726333" lon="-7.87269333">
        <ele>468.0</ele>
        <time>2018-10-03T07:14:49.000Z</time>
      </trkpt>
      <trkpt lat="42.39727667" lon="-7.872695">
        <ele>469.0</ele>
        <time>2018-10-03T07:14:50.000Z</time>
      </trkpt>
      <trkpt lat="42.39729167" lon="-7.87269667">
        <ele>469.0</ele>
        <time>2018-10-03T07:14:51.000Z</time>
      </trkpt>
      <trkpt lat="42.39730667" lon="-7.87269833">
        <ele>469.0</ele>
        <time>2018-10-03T07:14:52.000Z</time>
      </trkpt>
      <trkpt lat="42.39732167" lon="-7.87270333">
        <ele>469.0</ele>
        <time>2018-10-03T07:14:53.000Z</time>
      </trkpt>
      <trkpt lat="42.39733667" lon="-7.87270667">
        <ele>469.0</ele>
        <time>2018-10-03T07:14:54.000Z</time>
      </trkpt>
      <trkpt lat="42.39735167" lon="-7.87271">
        <ele>469.0</ele>
        <time>2018-10-03T07:14:55.000Z</time>
      </trkpt>
      <trkpt lat="42.39736667" lon="-7.87271667">
        <ele>470.0</ele>
        <time>2018-10-03T07:14:56.000Z</time>
      </trkpt>
      <trkpt lat="42.39737833" lon="-7.87272333">
        <ele>470.0</ele>
        <time>2018-10-03T07:14:57.000Z</time>
      </trkpt>
      <trkpt lat="42.39738833" lon="-7.87273167">
        <ele>470.0</ele>
        <time>2018-10-03T07:14:58.000Z</time>
      </trkpt>
      <trkpt lat="42.39739667" lon="-7.87274333">
        <ele>470.0</ele>
        <time>2018-10-03T07:14:59.000Z</time>
      </trkpt>
      <trkpt lat="42.39740333" lon="-7.872755">
        <ele>470.0</ele>
        <time>2018-10-03T07:15:00.000Z</time>
      </trkpt>
      <trkpt lat="42.39741" lon="-7.87276833">
        <ele>471.0</ele>
        <time>2018-10-03T07:15:01.000Z</time>
      </trkpt>
      <trkpt lat="42.39741667" lon="-7.87278333">
        <ele>471.0</ele>
        <time>2018-10-03T07:15:02.000Z</time>
      </trkpt>
      <trkpt lat="42.39742167" lon="-7.87279833">
        <ele>471.0</ele>
        <time>2018-10-03T07:15:03.000Z</time>
      </trkpt>
      <trkpt lat="42.39742833" lon="-7.87281333">
        <ele>471.0</ele>
        <time>2018-10-03T07:15:04.000Z</time>
      </trkpt>
      <trkpt lat="42.39743333" lon="-7.87283">
        <ele>471.0</ele>
        <time>2018-10-03T07:15:05.000Z</time>
      </trkpt>
      <trkpt lat="42.39743833" lon="-7.87284667">
        <ele>471.0</ele>
        <time>2018-10-03T07:15:06.000Z</time>
      </trkpt>
      <trkpt lat="42.39744167" lon="-7.87286333">
        <ele>471.0</ele>
        <time>2018-10-03T07:15:07.000Z</time>
      </trkpt>
      <trkpt lat="42.397445" lon="-7.87288167">
        <ele>471.0</ele>
        <time>2018-10-03T07:15:08.000Z</time>
      </trkpt>
      <trkpt lat="42.39744667" lon="-7.8729">
        <ele>471.0</ele>
        <time>2018-10-03T07:15:09.000Z</time>
      </trkpt>
      <trkpt lat="42.39744833" lon="-7.87291833">
        <ele>472.0</ele>
        <time>2018-10-03T07:15:10.000Z</time>
      </trkpt>
      <trkpt lat="42.39744667" lon="-7.87293833">
        <ele>472.0</ele>
        <time>2018-10-03T07:15:11.000Z</time>
      </trkpt>
      <trkpt lat="42.397445" lon="-7.87295833">
        <ele>472.0</ele>
        <time>2018-10-03T07:15:12.000Z</time>
      </trkpt>
      <trkpt lat="42.397445" lon="-7.87297667">
        <ele>472.0</ele>
        <time>2018-10-03T07:15:13.000Z</time>
      </trkpt>
      <trkpt lat="42.39744667" lon="-7.872995">
        <ele>472.0</ele>
        <time>2018-10-03T07:15:14.000Z</time>
      </trkpt>
      <trkpt lat="42.39744833" lon="-7.873015">
        <ele>473.0</ele>
        <time>2018-10-03T07:15:15.000Z</time>
      </trkpt>
      <trkpt lat="42.39744667" lon="-7.873035">
        <ele>473.0</ele>
        <time>2018-10-03T07:15:16.000Z</time>
      </trkpt>
      <trkpt lat="42.397445" lon="-7.87305333">
        <ele>473.0</ele>
        <time>2018-10-03T07:15:17.000Z</time>
      </trkpt>
      <trkpt lat="42.397445" lon="-7.87307333">
        <ele>473.0</ele>
        <time>2018-10-03T07:15:18.000Z</time>
      </trkpt>
      <trkpt lat="42.39744333" lon="-7.87309333">
        <ele>473.0</ele>
        <time>2018-10-03T07:15:19.000Z</time>
      </trkpt>
      <trkpt lat="42.39744167" lon="-7.87311333">
        <ele>473.0</ele>
        <time>2018-10-03T07:15:20.000Z</time>
      </trkpt>
      <trkpt lat="42.39744167" lon="-7.873135">
        <ele>474.0</ele>
        <time>2018-10-03T07:15:21.000Z</time>
      </trkpt>
      <trkpt lat="42.39744" lon="-7.873155">
        <ele>474.0</ele>
        <time>2018-10-03T07:15:22.000Z</time>
      </trkpt>
      <trkpt lat="42.39744167" lon="-7.87317667">
        <ele>474.0</ele>
        <time>2018-10-03T07:15:23.000Z</time>
      </trkpt>
      <trkpt lat="42.39744167" lon="-7.87319667">
        <ele>474.0</ele>
        <time>2018-10-03T07:15:24.000Z</time>
      </trkpt>
      <trkpt lat="42.39744167" lon="-7.87321667">
        <ele>474.0</ele>
        <time>2018-10-03T07:15:25.000Z</time>
      </trkpt>
      <trkpt lat="42.397445" lon="-7.87323667">
        <ele>474.0</ele>
        <time>2018-10-03T07:15:26.000Z</time>
      </trkpt>
      <trkpt lat="42.39744667" lon="-7.87325667">
        <ele>474.0</ele>
        <time>2018-10-03T07:15:27.000Z</time>
      </trkpt>
      <trkpt lat="42.39744833" lon="-7.87327667">
        <ele>474.0</ele>
        <time>2018-10-03T07:15:28.000Z</time>
      </trkpt>
      <trkpt lat="42.39744833" lon="-7.87329667">
        <ele>474.0</ele>
        <time>2018-10-03T07:15:29.000Z</time>
      </trkpt>
      <trkpt lat="42.39745" lon="-7.87331833">
        <ele>474.0</ele>
        <time>2018-10-03T07:15:30.000Z</time>
      </trkpt>
      <trkpt lat="42.39745167" lon="-7.87334">
        <ele>475.0</ele>
        <time>2018-10-03T07:15:31.000Z</time>
      </trkpt>
      <trkpt lat="42.39745333" lon="-7.87336">
        <ele>475.0</ele>
        <time>2018-10-03T07:15:32.000Z</time>
      </trkpt>
      <trkpt lat="42.397455" lon="-7.87338333">
        <ele>475.0</ele>
        <time>2018-10-03T07:15:33.000Z</time>
      </trkpt>
      <trkpt lat="42.39745667" lon="-7.873405">
        <ele>475.0</ele>
        <time>2018-10-03T07:15:34.000Z</time>
      </trkpt>
      <trkpt lat="42.39746" lon="-7.873425">
        <ele>475.0</ele>
        <time>2018-10-03T07:15:35.000Z</time>
      </trkpt>
      <trkpt lat="42.39746167" lon="-7.87344833">
        <ele>475.0</ele>
        <time>2018-10-03T07:15:36.000Z</time>
      </trkpt>
      <trkpt lat="42.39746333" lon="-7.87347">
        <ele>476.0</ele>
        <time>2018-10-03T07:15:37.000Z</time>
      </trkpt>
      <trkpt lat="42.397465" lon="-7.873495">
        <ele>476.0</ele>
        <time>2018-10-03T07:15:38.000Z</time>
      </trkpt>
      <trkpt lat="42.39746833" lon="-7.87351667">
        <ele>476.0</ele>
        <time>2018-10-03T07:15:39.000Z</time>
      </trkpt>
      <trkpt lat="42.39747" lon="-7.87353833">
        <ele>476.0</ele>
        <time>2018-10-03T07:15:40.000Z</time>
      </trkpt>
      <trkpt lat="42.39747333" lon="-7.87355833">
        <ele>476.0</ele>
        <time>2018-10-03T07:15:41.000Z</time>
      </trkpt>
      <trkpt lat="42.39747667" lon="-7.87357833">
        <ele>476.0</ele>
        <time>2018-10-03T07:15:42.000Z</time>
      </trkpt>
      <trkpt lat="42.39748" lon="-7.87359833">
        <ele>476.0</ele>
        <time>2018-10-03T07:15:43.000Z</time>
      </trkpt>
      <trkpt lat="42.39748333" lon="-7.87361833">
        <ele>477.0</ele>
        <time>2018-10-03T07:15:44.000Z</time>
      </trkpt>
      <trkpt lat="42.39748833" lon="-7.87363667">
        <ele>477.0</ele>
        <time>2018-10-03T07:15:45.000Z</time>
      </trkpt>
      <trkpt lat="42.39749333" lon="-7.87365667">
        <ele>477.0</ele>
        <time>2018-10-03T07:15:46.000Z</time>
      </trkpt>
      <trkpt lat="42.3975" lon="-7.873675">
        <ele>477.0</ele>
        <time>2018-10-03T07:15:47.000Z</time>
      </trkpt>
      <trkpt lat="42.39750833" lon="-7.87369333">
        <ele>477.0</ele>
        <time>2018-10-03T07:15:48.000Z</time>
      </trkpt>
      <trkpt lat="42.39751667" lon="-7.87371">
        <ele>477.0</ele>
        <time>2018-10-03T07:15:49.000Z</time>
      </trkpt>
      <trkpt lat="42.39752667" lon="-7.87372833">
        <ele>477.0</ele>
        <time>2018-10-03T07:15:50.000Z</time>
      </trkpt>
      <trkpt lat="42.397535" lon="-7.87374667">
        <ele>477.0</ele>
        <time>2018-10-03T07:15:51.000Z</time>
      </trkpt>
      <trkpt lat="42.39754333" lon="-7.87376333">
        <ele>477.0</ele>
        <time>2018-10-03T07:15:52.000Z</time>
      </trkpt>
      <trkpt lat="42.39755167" lon="-7.87378167">
        <ele>477.0</ele>
        <time>2018-10-03T07:15:53.000Z</time>
      </trkpt>
      <trkpt lat="42.39756167" lon="-7.87379833">
        <ele>478.0</ele>
        <time>2018-10-03T07:15:54.000Z</time>
      </trkpt>
      <trkpt lat="42.39757333" lon="-7.873815">
        <ele>478.0</ele>
        <time>2018-10-03T07:15:55.000Z</time>
      </trkpt>
      <trkpt lat="42.39758333" lon="-7.87383167">
        <ele>478.0</ele>
        <time>2018-10-03T07:15:56.000Z</time>
      </trkpt>
      <trkpt lat="42.397595" lon="-7.87384667">
        <ele>478.0</ele>
        <time>2018-10-03T07:15:57.000Z</time>
      </trkpt>
      <trkpt lat="42.397605" lon="-7.87386167">
        <ele>478.0</ele>
        <time>2018-10-03T07:15:58.000Z</time>
      </trkpt>
      <trkpt lat="42.39761333" lon="-7.87387167">
        <ele>478.0</ele>
        <time>2018-10-03T07:15:59.000Z</time>
      </trkpt>
      <trkpt lat="42.39762167" lon="-7.87388167">
        <ele>478.0</ele>
        <time>2018-10-03T07:16:00.000Z</time>
      </trkpt>
      <trkpt lat="42.39763" lon="-7.873895">
        <ele>479.0</ele>
        <time>2018-10-03T07:16:01.000Z</time>
      </trkpt>
      <trkpt lat="42.39764" lon="-7.87391">
        <ele>479.0</ele>
        <time>2018-10-03T07:16:02.000Z</time>
      </trkpt>
      <trkpt lat="42.39765" lon="-7.873925">
        <ele>479.0</ele>
        <time>2018-10-03T07:16:03.000Z</time>
      </trkpt>
      <trkpt lat="42.39766167" lon="-7.87394">
        <ele>479.0</ele>
        <time>2018-10-03T07:16:04.000Z</time>
      </trkpt>
      <trkpt lat="42.39767333" lon="-7.87395333">
        <ele>479.0</ele>
        <time>2018-10-03T07:16:05.000Z</time>
      </trkpt>
      <trkpt lat="42.39768333" lon="-7.87396833">
        <ele>479.0</ele>
        <time>2018-10-03T07:16:06.000Z</time>
      </trkpt>
      <trkpt lat="42.39769333" lon="-7.87398167">
        <ele>479.0</ele>
        <time>2018-10-03T07:16:07.000Z</time>
      </trkpt>
      <trkpt lat="42.397705" lon="-7.87399667">
        <ele>479.0</ele>
        <time>2018-10-03T07:16:08.000Z</time>
      </trkpt>
      <trkpt lat="42.397715" lon="-7.87401167">
        <ele>479.0</ele>
        <time>2018-10-03T07:16:09.000Z</time>
      </trkpt>
      <trkpt lat="42.397725" lon="-7.87402833">
        <ele>479.0</ele>
        <time>2018-10-03T07:16:10.000Z</time>
      </trkpt>
      <trkpt lat="42.397735" lon="-7.87404333">
        <ele>479.0</ele>
        <time>2018-10-03T07:16:11.000Z</time>
      </trkpt>
      <trkpt lat="42.397745" lon="-7.87406">
        <ele>479.0</ele>
        <time>2018-10-03T07:16:12.000Z</time>
      </trkpt>
      <trkpt lat="42.397755" lon="-7.874075">
        <ele>479.0</ele>
        <time>2018-10-03T07:16:13.000Z</time>
      </trkpt>
      <trkpt lat="42.397765" lon="-7.87409167">
        <ele>479.0</ele>
        <time>2018-10-03T07:16:14.000Z</time>
      </trkpt>
      <trkpt lat="42.39777333" lon="-7.87411">
        <ele>479.0</ele>
        <time>2018-10-03T07:16:15.000Z</time>
      </trkpt>
      <trkpt lat="42.39778167" lon="-7.87412833">
        <ele>479.0</ele>
        <time>2018-10-03T07:16:16.000Z</time>
      </trkpt>
      <trkpt lat="42.39778833" lon="-7.87414667">
        <ele>479.0</ele>
        <time>2018-10-03T07:16:17.000Z</time>
      </trkpt>
      <trkpt lat="42.397795" lon="-7.87416667">
        <ele>480.0</ele>
        <time>2018-10-03T07:16:18.000Z</time>
      </trkpt>
      <trkpt lat="42.39780167" lon="-7.87418667">
        <ele>480.0</ele>
        <time>2018-10-03T07:16:19.000Z</time>
      </trkpt>
      <trkpt lat="42.39780667" lon="-7.87420667">
        <ele>480.0</ele>
        <time>2018-10-03T07:16:20.000Z</time>
      </trkpt>
      <trkpt lat="42.39781167" lon="-7.87422667">
        <ele>480.0</ele>
        <time>2018-10-03T07:16:21.000Z</time>
      </trkpt>
      <trkpt lat="42.39781667" lon="-7.87424667">
        <ele>480.0</ele>
        <time>2018-10-03T07:16:22.000Z</time>
      </trkpt>
      <trkpt lat="42.39782" lon="-7.87426833">
        <ele>480.0</ele>
        <time>2018-10-03T07:16:23.000Z</time>
      </trkpt>
      <trkpt lat="42.397825" lon="-7.87429">
        <ele>480.0</ele>
        <time>2018-10-03T07:16:24.000Z</time>
      </trkpt>
      <trkpt lat="42.39782833" lon="-7.87431167">
        <ele>480.0</ele>
        <time>2018-10-03T07:16:25.000Z</time>
      </trkpt>
      <trkpt lat="42.39783167" lon="-7.87433167">
        <ele>480.0</ele>
        <time>2018-10-03T07:16:26.000Z</time>
      </trkpt>
      <trkpt lat="42.397835" lon="-7.87435333">
        <ele>481.0</ele>
        <time>2018-10-03T07:16:27.000Z</time>
      </trkpt>
      <trkpt lat="42.39784" lon="-7.874375">
        <ele>481.0</ele>
        <time>2018-10-03T07:16:28.000Z</time>
      </trkpt>
      <trkpt lat="42.397845" lon="-7.87439667">
        <ele>481.0</ele>
        <time>2018-10-03T07:16:29.000Z</time>
      </trkpt>
      <trkpt lat="42.39784833" lon="-7.87441667">
        <ele>481.0</ele>
        <time>2018-10-03T07:16:30.000Z</time>
      </trkpt>
      <trkpt lat="42.39785167" lon="-7.87443833">
        <ele>481.0</ele>
        <time>2018-10-03T07:16:31.000Z</time>
      </trkpt>
      <trkpt lat="42.397855" lon="-7.87446">
        <ele>481.0</ele>
        <time>2018-10-03T07:16:32.000Z</time>
      </trkpt>
      <trkpt lat="42.39785833" lon="-7.87448167">
        <ele>481.0</ele>
        <time>2018-10-03T07:16:33.000Z</time>
      </trkpt>
      <trkpt lat="42.39786167" lon="-7.87450167">
        <ele>481.0</ele>
        <time>2018-10-03T07:16:34.000Z</time>
      </trkpt>
      <trkpt lat="42.39786667" lon="-7.87452333">
        <ele>482.0</ele>
        <time>2018-10-03T07:16:35.000Z</time>
      </trkpt>
      <trkpt lat="42.39787167" lon="-7.87454333">
        <ele>482.0</ele>
        <time>2018-10-03T07:16:36.000Z</time>
      </trkpt>
      <trkpt lat="42.39787667" lon="-7.87456333">
        <ele>482.0</ele>
        <time>2018-10-03T07:16:37.000Z</time>
      </trkpt>
      <trkpt lat="42.39788333" lon="-7.87458167">
        <ele>482.0</ele>
        <time>2018-10-03T07:16:38.000Z</time>
      </trkpt>
      <trkpt lat="42.39788833" lon="-7.8746">
        <ele>482.0</ele>
        <time>2018-10-03T07:16:39.000Z</time>
      </trkpt>
      <trkpt lat="42.39789667" lon="-7.87461833">
        <ele>482.0</ele>
        <time>2018-10-03T07:16:40.000Z</time>
      </trkpt>
      <trkpt lat="42.39790333" lon="-7.87463667">
        <ele>482.0</ele>
        <time>2018-10-03T07:16:41.000Z</time>
      </trkpt>
      <trkpt lat="42.39791" lon="-7.874655">
        <ele>482.0</ele>
        <time>2018-10-03T07:16:42.000Z</time>
      </trkpt>
      <trkpt lat="42.39791667" lon="-7.87467167">
        <ele>482.0</ele>
        <time>2018-10-03T07:16:43.000Z</time>
      </trkpt>
      <trkpt lat="42.39792667" lon="-7.87469">
        <ele>482.0</ele>
        <time>2018-10-03T07:16:44.000Z</time>
      </trkpt>
      <trkpt lat="42.397935" lon="-7.87470667">
        <ele>482.0</ele>
        <time>2018-10-03T07:16:45.000Z</time>
      </trkpt>
      <trkpt lat="42.39794333" lon="-7.87472333">
        <ele>482.0</ele>
        <time>2018-10-03T07:16:46.000Z</time>
      </trkpt>
      <trkpt lat="42.39795" lon="-7.87474167">
        <ele>483.0</ele>
        <time>2018-10-03T07:16:47.000Z</time>
      </trkpt>
      <trkpt lat="42.39795833" lon="-7.87476">
        <ele>483.0</ele>
        <time>2018-10-03T07:16:48.000Z</time>
      </trkpt>
      <trkpt lat="42.397965" lon="-7.87477833">
        <ele>483.0</ele>
        <time>2018-10-03T07:16:49.000Z</time>
      </trkpt>
      <trkpt lat="42.39797333" lon="-7.87479667">
        <ele>483.0</ele>
        <time>2018-10-03T07:16:50.000Z</time>
      </trkpt>
      <trkpt lat="42.39798167" lon="-7.87481333">
        <ele>483.0</ele>
        <time>2018-10-03T07:16:51.000Z</time>
      </trkpt>
      <trkpt lat="42.39799" lon="-7.87483">
        <ele>483.0</ele>
        <time>2018-10-03T07:16:52.000Z</time>
      </trkpt>
      <trkpt lat="42.39799833" lon="-7.87484667">
        <ele>483.0</ele>
        <time>2018-10-03T07:16:53.000Z</time>
      </trkpt>
      <trkpt lat="42.39800667" lon="-7.87486333">
        <ele>483.0</ele>
        <time>2018-10-03T07:16:54.000Z</time>
      </trkpt>
      <trkpt lat="42.39801667" lon="-7.87487833">
        <ele>483.0</ele>
        <time>2018-10-03T07:16:55.000Z</time>
      </trkpt>
      <trkpt lat="42.398025" lon="-7.874895">
        <ele>482.0</ele>
        <time>2018-10-03T07:16:56.000Z</time>
      </trkpt>
      <trkpt lat="42.398035" lon="-7.87491167">
        <ele>482.0</ele>
        <time>2018-10-03T07:16:57.000Z</time>
      </trkpt>
      <trkpt lat="42.398045" lon="-7.87492667">
        <ele>482.0</ele>
        <time>2018-10-03T07:16:58.000Z</time>
      </trkpt>
      <trkpt lat="42.39805333" lon="-7.87494">
        <ele>482.0</ele>
        <time>2018-10-03T07:16:59.000Z</time>
      </trkpt>
      <trkpt lat="42.39806333" lon="-7.87495333">
        <ele>482.0</ele>
        <time>2018-10-03T07:17:00.000Z</time>
      </trkpt>
      <trkpt lat="42.39807333" lon="-7.87496667">
        <ele>482.0</ele>
        <time>2018-10-03T07:17:01.000Z</time>
      </trkpt>
      <trkpt lat="42.39808167" lon="-7.87498">
        <ele>482.0</ele>
        <time>2018-10-03T07:17:02.000Z</time>
      </trkpt>
      <trkpt lat="42.39809167" lon="-7.87499333">
        <ele>482.0</ele>
        <time>2018-10-03T07:17:03.000Z</time>
      </trkpt>
      <trkpt lat="42.39810167" lon="-7.87501">
        <ele>483.0</ele>
        <time>2018-10-03T07:17:04.000Z</time>
      </trkpt>
      <trkpt lat="42.39811333" lon="-7.87502667">
        <ele>483.0</ele>
        <time>2018-10-03T07:17:05.000Z</time>
      </trkpt>
      <trkpt lat="42.39812333" lon="-7.87504167">
        <ele>483.0</ele>
        <time>2018-10-03T07:17:06.000Z</time>
      </trkpt>
      <trkpt lat="42.39813333" lon="-7.87505667">
        <ele>483.0</ele>
        <time>2018-10-03T07:17:07.000Z</time>
      </trkpt>
      <trkpt lat="42.39814167" lon="-7.87507">
        <ele>483.0</ele>
        <time>2018-10-03T07:17:08.000Z</time>
      </trkpt>
      <trkpt lat="42.39815167" lon="-7.875085">
        <ele>484.0</ele>
        <time>2018-10-03T07:17:09.000Z</time>
      </trkpt>
      <trkpt lat="42.39816167" lon="-7.87509833">
        <ele>484.0</ele>
        <time>2018-10-03T07:17:10.000Z</time>
      </trkpt>
      <trkpt lat="42.39817167" lon="-7.87511">
        <ele>484.0</ele>
        <time>2018-10-03T07:17:11.000Z</time>
      </trkpt>
      <trkpt lat="42.398185" lon="-7.875125">
        <ele>484.0</ele>
        <time>2018-10-03T07:17:12.000Z</time>
      </trkpt>
      <trkpt lat="42.398195" lon="-7.87514167">
        <ele>484.0</ele>
        <time>2018-10-03T07:17:13.000Z</time>
      </trkpt>
      <trkpt lat="42.39820833" lon="-7.875155">
        <ele>484.0</ele>
        <time>2018-10-03T07:17:14.000Z</time>
      </trkpt>
      <trkpt lat="42.39822" lon="-7.87516833">
        <ele>484.0</ele>
        <time>2018-10-03T07:17:15.000Z</time>
      </trkpt>
      <trkpt lat="42.39823167" lon="-7.87518167">
        <ele>485.0</ele>
        <time>2018-10-03T07:17:16.000Z</time>
      </trkpt>
      <trkpt lat="42.39824333" lon="-7.87519667">
        <ele>485.0</ele>
        <time>2018-10-03T07:17:17.000Z</time>
      </trkpt>
      <trkpt lat="42.39825667" lon="-7.87521">
        <ele>485.0</ele>
        <time>2018-10-03T07:17:18.000Z</time>
      </trkpt>
      <trkpt lat="42.39827167" lon="-7.87522167">
        <ele>485.0</ele>
        <time>2018-10-03T07:17:19.000Z</time>
      </trkpt>
      <trkpt lat="42.398285" lon="-7.87523333">
        <ele>485.0</ele>
        <time>2018-10-03T07:17:20.000Z</time>
      </trkpt>
      <trkpt lat="42.39829667" lon="-7.87524333">
        <ele>485.0</ele>
        <time>2018-10-03T07:17:21.000Z</time>
      </trkpt>
      <trkpt lat="42.39830833" lon="-7.87525333">
        <ele>485.0</ele>
        <time>2018-10-03T07:17:22.000Z</time>
      </trkpt>
      <trkpt lat="42.39832" lon="-7.875265">
        <ele>485.0</ele>
        <time>2018-10-03T07:17:23.000Z</time>
      </trkpt>
      <trkpt lat="42.39833333" lon="-7.87527667">
        <ele>485.0</ele>
        <time>2018-10-03T07:17:24.000Z</time>
      </trkpt>
      <trkpt lat="42.398345" lon="-7.87528667">
        <ele>485.0</ele>
        <time>2018-10-03T07:17:25.000Z</time>
      </trkpt>
      <trkpt lat="42.39835833" lon="-7.87529833">
        <ele>485.0</ele>
        <time>2018-10-03T07:17:26.000Z</time>
      </trkpt>
      <trkpt lat="42.39837" lon="-7.87531167">
        <ele>485.0</ele>
        <time>2018-10-03T07:17:27.000Z</time>
      </trkpt>
      <trkpt lat="42.39838333" lon="-7.87532333">
        <ele>485.0</ele>
        <time>2018-10-03T07:17:28.000Z</time>
      </trkpt>
      <trkpt lat="42.398395" lon="-7.87533667">
        <ele>485.0</ele>
        <time>2018-10-03T07:17:29.000Z</time>
      </trkpt>
      <trkpt lat="42.398405" lon="-7.87535167">
        <ele>485.0</ele>
        <time>2018-10-03T07:17:30.000Z</time>
      </trkpt>
      <trkpt lat="42.39841667" lon="-7.87536667">
        <ele>485.0</ele>
        <time>2018-10-03T07:17:31.000Z</time>
      </trkpt>
      <trkpt lat="42.39842833" lon="-7.87538167">
        <ele>485.0</ele>
        <time>2018-10-03T07:17:32.000Z</time>
      </trkpt>
      <trkpt lat="42.39844" lon="-7.87539333">
        <ele>485.0</ele>
        <time>2018-10-03T07:17:33.000Z</time>
      </trkpt>
      <trkpt lat="42.39845333" lon="-7.875405">
        <ele>484.0</ele>
        <time>2018-10-03T07:17:34.000Z</time>
      </trkpt>
      <trkpt lat="42.398465" lon="-7.87541833">
        <ele>484.0</ele>
        <time>2018-10-03T07:17:35.000Z</time>
      </trkpt>
      <trkpt lat="42.39847833" lon="-7.87543167">
        <ele>484.0</ele>
        <time>2018-10-03T07:17:36.000Z</time>
      </trkpt>
      <trkpt lat="42.39849" lon="-7.87544667">
        <ele>484.0</ele>
        <time>2018-10-03T07:17:37.000Z</time>
      </trkpt>
      <trkpt lat="42.39850167" lon="-7.87546167">
        <ele>484.0</ele>
        <time>2018-10-03T07:17:38.000Z</time>
      </trkpt>
      <trkpt lat="42.39851333" lon="-7.87547833">
        <ele>485.0</ele>
        <time>2018-10-03T07:17:39.000Z</time>
      </trkpt>
      <trkpt lat="42.398525" lon="-7.87549333">
        <ele>485.0</ele>
        <time>2018-10-03T07:17:40.000Z</time>
      </trkpt>
      <trkpt lat="42.39853333" lon="-7.87550667">
        <ele>485.0</ele>
        <time>2018-10-03T07:17:41.000Z</time>
      </trkpt>
      <trkpt lat="42.39854333" lon="-7.87552333">
        <ele>485.0</ele>
        <time>2018-10-03T07:17:42.000Z</time>
      </trkpt>
      <trkpt lat="42.39855667" lon="-7.87553833">
        <ele>485.0</ele>
        <time>2018-10-03T07:17:43.000Z</time>
      </trkpt>
      <trkpt lat="42.39856833" lon="-7.87555167">
        <ele>485.0</ele>
        <time>2018-10-03T07:17:44.000Z</time>
      </trkpt>
      <trkpt lat="42.39858167" lon="-7.875565">
        <ele>485.0</ele>
        <time>2018-10-03T07:17:45.000Z</time>
      </trkpt>
      <trkpt lat="42.398595" lon="-7.87557833">
        <ele>485.0</ele>
        <time>2018-10-03T07:17:46.000Z</time>
      </trkpt>
      <trkpt lat="42.39861" lon="-7.87559333">
        <ele>485.0</ele>
        <time>2018-10-03T07:17:47.000Z</time>
      </trkpt>
      <trkpt lat="42.398625" lon="-7.87560833">
        <ele>485.0</ele>
        <time>2018-10-03T07:17:48.000Z</time>
      </trkpt>
      <trkpt lat="42.39864" lon="-7.87562333">
        <ele>485.0</ele>
        <time>2018-10-03T07:17:49.000Z</time>
      </trkpt>
      <trkpt lat="42.39865333" lon="-7.87564">
        <ele>485.0</ele>
        <time>2018-10-03T07:17:50.000Z</time>
      </trkpt>
      <trkpt lat="42.39866667" lon="-7.875655">
        <ele>485.0</ele>
        <time>2018-10-03T07:17:51.000Z</time>
      </trkpt>
      <trkpt lat="42.39868" lon="-7.87567">
        <ele>485.0</ele>
        <time>2018-10-03T07:17:52.000Z</time>
      </trkpt>
      <trkpt lat="42.39869" lon="-7.87568667">
        <ele>485.0</ele>
        <time>2018-10-03T07:17:53.000Z</time>
      </trkpt>
      <trkpt lat="42.39870167" lon="-7.87570167">
        <ele>485.0</ele>
        <time>2018-10-03T07:17:54.000Z</time>
      </trkpt>
      <trkpt lat="42.39871167" lon="-7.87571333">
        <ele>485.0</ele>
        <time>2018-10-03T07:17:55.000Z</time>
      </trkpt>
      <trkpt lat="42.39871833" lon="-7.87572167">
        <ele>485.0</ele>
        <time>2018-10-03T07:17:56.000Z</time>
      </trkpt>
      <trkpt lat="42.39872" lon="-7.87572333">
        <ele>485.0</ele>
        <time>2018-10-03T07:17:57.000Z</time>
      </trkpt>
      <trkpt lat="42.398725" lon="-7.87572333">
        <ele>485.0</ele>
        <time>2018-10-03T07:17:58.000Z</time>
      </trkpt>
      <trkpt lat="42.39873167" lon="-7.87572833">
        <ele>485.0</ele>
        <time>2018-10-03T07:17:59.000Z</time>
      </trkpt>
      <trkpt lat="42.39874" lon="-7.87573833">
        <ele>485.0</ele>
        <time>2018-10-03T07:18:00.000Z</time>
      </trkpt>
      <trkpt lat="42.39875" lon="-7.87575167">
        <ele>485.0</ele>
        <time>2018-10-03T07:18:01.000Z</time>
      </trkpt>
      <trkpt lat="42.39876" lon="-7.87577">
        <ele>485.0</ele>
        <time>2018-10-03T07:18:02.000Z</time>
      </trkpt>
      <trkpt lat="42.39877167" lon="-7.87578667">
        <ele>485.0</ele>
        <time>2018-10-03T07:18:03.000Z</time>
      </trkpt>
      <trkpt lat="42.39878333" lon="-7.8758">
        <ele>485.0</ele>
        <time>2018-10-03T07:18:04.000Z</time>
      </trkpt>
      <trkpt lat="42.39879333" lon="-7.875815">
        <ele>485.0</ele>
        <time>2018-10-03T07:18:05.000Z</time>
      </trkpt>
      <trkpt lat="42.39880333" lon="-7.87583">
        <ele>484.0</ele>
        <time>2018-10-03T07:18:06.000Z</time>
      </trkpt>
      <trkpt lat="42.398815" lon="-7.875845">
        <ele>484.0</ele>
        <time>2018-10-03T07:18:07.000Z</time>
      </trkpt>
      <trkpt lat="42.39882833" lon="-7.87586">
        <ele>484.0</ele>
        <time>2018-10-03T07:18:08.000Z</time>
      </trkpt>
      <trkpt lat="42.39884" lon="-7.87587667">
        <ele>484.0</ele>
        <time>2018-10-03T07:18:09.000Z</time>
      </trkpt>
      <trkpt lat="42.39885167" lon="-7.87589">
        <ele>484.0</ele>
        <time>2018-10-03T07:18:10.000Z</time>
      </trkpt>
      <trkpt lat="42.39886333" lon="-7.875905">
        <ele>484.0</ele>
        <time>2018-10-03T07:18:11.000Z</time>
      </trkpt>
      <trkpt lat="42.39887667" lon="-7.87592">
        <ele>484.0</ele>
        <time>2018-10-03T07:18:12.000Z</time>
      </trkpt>
      <trkpt lat="42.39888833" lon="-7.875935">
        <ele>484.0</ele>
        <time>2018-10-03T07:18:13.000Z</time>
      </trkpt>
      <trkpt lat="42.3989" lon="-7.87595">
        <ele>484.0</ele>
        <time>2018-10-03T07:18:14.000Z</time>
      </trkpt>
      <trkpt lat="42.39891167" lon="-7.875965">
        <ele>484.0</ele>
        <time>2018-10-03T07:18:15.000Z</time>
      </trkpt>
      <trkpt lat="42.39892167" lon="-7.87598167">
        <ele>484.0</ele>
        <time>2018-10-03T07:18:16.000Z</time>
      </trkpt>
      <trkpt lat="42.398935" lon="-7.875995">
        <ele>484.0</ele>
        <time>2018-10-03T07:18:17.000Z</time>
      </trkpt>
      <trkpt lat="42.39894833" lon="-7.87600833">
        <ele>484.0</ele>
        <time>2018-10-03T07:18:18.000Z</time>
      </trkpt>
      <trkpt lat="42.39896167" lon="-7.87602333">
        <ele>484.0</ele>
        <time>2018-10-03T07:18:19.000Z</time>
      </trkpt>
      <trkpt lat="42.39897667" lon="-7.876035">
        <ele>484.0</ele>
        <time>2018-10-03T07:18:20.000Z</time>
      </trkpt>
      <trkpt lat="42.39899" lon="-7.87604833">
        <ele>483.0</ele>
        <time>2018-10-03T07:18:21.000Z</time>
      </trkpt>
      <trkpt lat="42.39900333" lon="-7.87606333">
        <ele>483.0</ele>
        <time>2018-10-03T07:18:22.000Z</time>
      </trkpt>
      <trkpt lat="42.39901333" lon="-7.87608">
        <ele>483.0</ele>
        <time>2018-10-03T07:18:23.000Z</time>
      </trkpt>
      <trkpt lat="42.39902167" lon="-7.87609833">
        <ele>483.0</ele>
        <time>2018-10-03T07:18:24.000Z</time>
      </trkpt>
      <trkpt lat="42.39903167" lon="-7.876115">
        <ele>483.0</ele>
        <time>2018-10-03T07:18:25.000Z</time>
      </trkpt>
      <trkpt lat="42.39904333" lon="-7.87613">
        <ele>483.0</ele>
        <time>2018-10-03T07:18:26.000Z</time>
      </trkpt>
      <trkpt lat="42.39905333" lon="-7.876145">
        <ele>483.0</ele>
        <time>2018-10-03T07:18:27.000Z</time>
      </trkpt>
      <trkpt lat="42.39906167" lon="-7.87616333">
        <ele>483.0</ele>
        <time>2018-10-03T07:18:28.000Z</time>
      </trkpt>
      <trkpt lat="42.39907167" lon="-7.87618167">
        <ele>483.0</ele>
        <time>2018-10-03T07:18:29.000Z</time>
      </trkpt>
      <trkpt lat="42.39908333" lon="-7.87619667">
        <ele>483.0</ele>
        <time>2018-10-03T07:18:30.000Z</time>
      </trkpt>
      <trkpt lat="42.399095" lon="-7.876215">
        <ele>483.0</ele>
        <time>2018-10-03T07:18:31.000Z</time>
      </trkpt>
      <trkpt lat="42.399105" lon="-7.87623167">
        <ele>483.0</ele>
        <time>2018-10-03T07:18:32.000Z</time>
      </trkpt>
      <trkpt lat="42.39911667" lon="-7.87625">
        <ele>482.0</ele>
        <time>2018-10-03T07:18:33.000Z</time>
      </trkpt>
      <trkpt lat="42.39913" lon="-7.876265">
        <ele>482.0</ele>
        <time>2018-10-03T07:18:34.000Z</time>
      </trkpt>
      <trkpt lat="42.39914167" lon="-7.87627333">
        <ele>482.0</ele>
        <time>2018-10-03T07:18:35.000Z</time>
      </trkpt>
      <trkpt lat="42.39915333" lon="-7.87628">
        <ele>482.0</ele>
        <time>2018-10-03T07:18:36.000Z</time>
      </trkpt>
      <trkpt lat="42.39916333" lon="-7.87628833">
        <ele>482.0</ele>
        <time>2018-10-03T07:18:37.000Z</time>
      </trkpt>
      <trkpt lat="42.39917333" lon="-7.87630333">
        <ele>482.0</ele>
        <time>2018-10-03T07:18:38.000Z</time>
      </trkpt>
      <trkpt lat="42.399185" lon="-7.87632">
        <ele>482.0</ele>
        <time>2018-10-03T07:18:39.000Z</time>
      </trkpt>
      <trkpt lat="42.399195" lon="-7.87633167">
        <ele>482.0</ele>
        <time>2018-10-03T07:18:40.000Z</time>
      </trkpt>
      <trkpt lat="42.39920667" lon="-7.876345">
        <ele>482.0</ele>
        <time>2018-10-03T07:18:41.000Z</time>
      </trkpt>
      <trkpt lat="42.39921833" lon="-7.87635833">
        <ele>482.0</ele>
        <time>2018-10-03T07:18:42.000Z</time>
      </trkpt>
      <trkpt lat="42.39923167" lon="-7.87637">
        <ele>482.0</ele>
        <time>2018-10-03T07:18:43.000Z</time>
      </trkpt>
      <trkpt lat="42.399245" lon="-7.87638167">
        <ele>482.0</ele>
        <time>2018-10-03T07:18:44.000Z</time>
      </trkpt>
      <trkpt lat="42.39926" lon="-7.87639333">
        <ele>482.0</ele>
        <time>2018-10-03T07:18:45.000Z</time>
      </trkpt>
      <trkpt lat="42.399275" lon="-7.87640667">
        <ele>483.0</ele>
        <time>2018-10-03T07:18:46.000Z</time>
      </trkpt>
      <trkpt lat="42.39929" lon="-7.87641833">
        <ele>483.0</ele>
        <time>2018-10-03T07:18:47.000Z</time>
      </trkpt>
      <trkpt lat="42.399305" lon="-7.87642833">
        <ele>483.0</ele>
        <time>2018-10-03T07:18:48.000Z</time>
      </trkpt>
      <trkpt lat="42.39932" lon="-7.87643833">
        <ele>482.0</ele>
        <time>2018-10-03T07:18:49.000Z</time>
      </trkpt>
      <trkpt lat="42.39933667" lon="-7.87644833">
        <ele>482.0</ele>
        <time>2018-10-03T07:18:50.000Z</time>
      </trkpt>
      <trkpt lat="42.39935167" lon="-7.876455">
        <ele>482.0</ele>
        <time>2018-10-03T07:18:51.000Z</time>
      </trkpt>
      <trkpt lat="42.399365" lon="-7.87645833">
        <ele>482.0</ele>
        <time>2018-10-03T07:18:52.000Z</time>
      </trkpt>
      <trkpt lat="42.39938167" lon="-7.87645833">
        <ele>483.0</ele>
        <time>2018-10-03T07:18:53.000Z</time>
      </trkpt>
      <trkpt lat="42.39939833" lon="-7.87645833">
        <ele>483.0</ele>
        <time>2018-10-03T07:18:54.000Z</time>
      </trkpt>
      <trkpt lat="42.39941667" lon="-7.87646">
        <ele>483.0</ele>
        <time>2018-10-03T07:18:55.000Z</time>
      </trkpt>
      <trkpt lat="42.399435" lon="-7.87646333">
        <ele>483.0</ele>
        <time>2018-10-03T07:18:56.000Z</time>
      </trkpt>
      <trkpt lat="42.39945333" lon="-7.87646667">
        <ele>483.0</ele>
        <time>2018-10-03T07:18:57.000Z</time>
      </trkpt>
      <trkpt lat="42.39946667" lon="-7.87647333">
        <ele>482.0</ele>
        <time>2018-10-03T07:18:58.000Z</time>
      </trkpt>
      <trkpt lat="42.39948333" lon="-7.87648">
        <ele>482.0</ele>
        <time>2018-10-03T07:18:59.000Z</time>
      </trkpt>
      <trkpt lat="42.3995" lon="-7.876485">
        <ele>482.0</ele>
        <time>2018-10-03T07:19:00.000Z</time>
      </trkpt>
      <trkpt lat="42.39951667" lon="-7.87649">
        <ele>482.0</ele>
        <time>2018-10-03T07:19:01.000Z</time>
      </trkpt>
      <trkpt lat="42.39953667" lon="-7.876495">
        <ele>482.0</ele>
        <time>2018-10-03T07:19:02.000Z</time>
      </trkpt>
      <trkpt lat="42.39955333" lon="-7.8765">
        <ele>482.0</ele>
        <time>2018-10-03T07:19:03.000Z</time>
      </trkpt>
      <trkpt lat="42.39957333" lon="-7.87650333">
        <ele>482.0</ele>
        <time>2018-10-03T07:19:04.000Z</time>
      </trkpt>
      <trkpt lat="42.39959333" lon="-7.87650833">
        <ele>482.0</ele>
        <time>2018-10-03T07:19:05.000Z</time>
      </trkpt>
      <trkpt lat="42.39961" lon="-7.876515">
        <ele>482.0</ele>
        <time>2018-10-03T07:19:06.000Z</time>
      </trkpt>
      <trkpt lat="42.399625" lon="-7.87652167">
        <ele>482.0</ele>
        <time>2018-10-03T07:19:07.000Z</time>
      </trkpt>
      <trkpt lat="42.39964333" lon="-7.87652667">
        <ele>481.0</ele>
        <time>2018-10-03T07:19:08.000Z</time>
      </trkpt>
      <trkpt lat="42.39966167" lon="-7.87653167">
        <ele>481.0</ele>
        <time>2018-10-03T07:19:09.000Z</time>
      </trkpt>
      <trkpt lat="42.39968167" lon="-7.87653667">
        <ele>481.0</ele>
        <time>2018-10-03T07:19:10.000Z</time>
      </trkpt>
      <trkpt lat="42.3997" lon="-7.87654">
        <ele>481.0</ele>
        <time>2018-10-03T07:19:11.000Z</time>
      </trkpt>
      <trkpt lat="42.39972" lon="-7.87654333">
        <ele>481.0</ele>
        <time>2018-10-03T07:19:12.000Z</time>
      </trkpt>
      <trkpt lat="42.39973667" lon="-7.876545">
        <ele>481.0</ele>
        <time>2018-10-03T07:19:13.000Z</time>
      </trkpt>
      <trkpt lat="42.399755" lon="-7.87654833">
        <ele>481.0</ele>
        <time>2018-10-03T07:19:14.000Z</time>
      </trkpt>
      <trkpt lat="42.39977333" lon="-7.87655">
        <ele>481.0</ele>
        <time>2018-10-03T07:19:15.000Z</time>
      </trkpt>
      <trkpt lat="42.39979333" lon="-7.87654833">
        <ele>481.0</ele>
        <time>2018-10-03T07:19:16.000Z</time>
      </trkpt>
      <trkpt lat="42.39981167" lon="-7.87655167">
        <ele>481.0</ele>
        <time>2018-10-03T07:19:17.000Z</time>
      </trkpt>
      <trkpt lat="42.39983" lon="-7.876555">
        <ele>481.0</ele>
        <time>2018-10-03T07:19:18.000Z</time>
      </trkpt>
      <trkpt lat="42.39984667" lon="-7.87655833">
        <ele>481.0</ele>
        <time>2018-10-03T07:19:19.000Z</time>
      </trkpt>
      <trkpt lat="42.39986333" lon="-7.87656167">
        <ele>481.0</ele>
        <time>2018-10-03T07:19:20.000Z</time>
      </trkpt>
      <trkpt lat="42.39988" lon="-7.876565">
        <ele>481.0</ele>
        <time>2018-10-03T07:19:21.000Z</time>
      </trkpt>
      <trkpt lat="42.39989667" lon="-7.87656667">
        <ele>481.0</ele>
        <time>2018-10-03T07:19:22.000Z</time>
      </trkpt>
      <trkpt lat="42.399915" lon="-7.87656667">
        <ele>481.0</ele>
        <time>2018-10-03T07:19:23.000Z</time>
      </trkpt>
      <trkpt lat="42.399935" lon="-7.87656667">
        <ele>481.0</ele>
        <time>2018-10-03T07:19:24.000Z</time>
      </trkpt>
      <trkpt lat="42.39995167" lon="-7.87656833">
        <ele>480.0</ele>
        <time>2018-10-03T07:19:25.000Z</time>
      </trkpt>
      <trkpt lat="42.39997" lon="-7.87657">
        <ele>480.0</ele>
        <time>2018-10-03T07:19:26.000Z</time>
      </trkpt>
      <trkpt lat="42.39998667" lon="-7.87657333">
        <ele>480.0</ele>
        <time>2018-10-03T07:19:27.000Z</time>
      </trkpt>
      <trkpt lat="42.40000167" lon="-7.87657833">
        <ele>480.0</ele>
        <time>2018-10-03T07:19:28.000Z</time>
      </trkpt>
      <trkpt lat="42.400015" lon="-7.876585">
        <ele>480.0</ele>
        <time>2018-10-03T07:19:29.000Z</time>
      </trkpt>
      <trkpt lat="42.40002833" lon="-7.87659167">
        <ele>480.0</ele>
        <time>2018-10-03T07:19:30.000Z</time>
      </trkpt>
      <trkpt lat="42.40004167" lon="-7.8766">
        <ele>480.0</ele>
        <time>2018-10-03T07:19:31.000Z</time>
      </trkpt>
      <trkpt lat="42.400055" lon="-7.876605">
        <ele>480.0</ele>
        <time>2018-10-03T07:19:32.000Z</time>
      </trkpt>
      <trkpt lat="42.40007333" lon="-7.87660667">
        <ele>480.0</ele>
        <time>2018-10-03T07:19:33.000Z</time>
      </trkpt>
      <trkpt lat="42.40009167" lon="-7.87661">
        <ele>480.0</ele>
        <time>2018-10-03T07:19:34.000Z</time>
      </trkpt>
      <trkpt lat="42.40010833" lon="-7.876615">
        <ele>480.0</ele>
        <time>2018-10-03T07:19:35.000Z</time>
      </trkpt>
      <trkpt lat="42.40012333" lon="-7.87662">
        <ele>480.0</ele>
        <time>2018-10-03T07:19:36.000Z</time>
      </trkpt>
      <trkpt lat="42.40013833" lon="-7.876625">
        <ele>479.0</ele>
        <time>2018-10-03T07:19:37.000Z</time>
      </trkpt>
      <trkpt lat="42.40015333" lon="-7.87663167">
        <ele>479.0</ele>
        <time>2018-10-03T07:19:38.000Z</time>
      </trkpt>
      <trkpt lat="42.40016833" lon="-7.87664">
        <ele>479.0</ele>
        <time>2018-10-03T07:19:39.000Z</time>
      </trkpt>
      <trkpt lat="42.40018667" lon="-7.876645">
        <ele>479.0</ele>
        <time>2018-10-03T07:19:40.000Z</time>
      </trkpt>
      <trkpt lat="42.40020333" lon="-7.87665">
        <ele>479.0</ele>
        <time>2018-10-03T07:19:41.000Z</time>
      </trkpt>
      <trkpt lat="42.40022" lon="-7.87665333">
        <ele>479.0</ele>
        <time>2018-10-03T07:19:42.000Z</time>
      </trkpt>
      <trkpt lat="42.40023667" lon="-7.87665833">
        <ele>479.0</ele>
        <time>2018-10-03T07:19:43.000Z</time>
      </trkpt>
      <trkpt lat="42.40025333" lon="-7.87666333">
        <ele>479.0</ele>
        <time>2018-10-03T07:19:44.000Z</time>
      </trkpt>
      <trkpt lat="42.40026833" lon="-7.87666833">
        <ele>479.0</ele>
        <time>2018-10-03T07:19:45.000Z</time>
      </trkpt>
      <trkpt lat="42.40028333" lon="-7.87667333">
        <ele>479.0</ele>
        <time>2018-10-03T07:19:46.000Z</time>
      </trkpt>
      <trkpt lat="42.4003" lon="-7.87668167">
        <ele>479.0</ele>
        <time>2018-10-03T07:19:47.000Z</time>
      </trkpt>
      <trkpt lat="42.40031667" lon="-7.87669">
        <ele>479.0</ele>
        <time>2018-10-03T07:19:48.000Z</time>
      </trkpt>
      <trkpt lat="42.40033333" lon="-7.87669667">
        <ele>479.0</ele>
        <time>2018-10-03T07:19:49.000Z</time>
      </trkpt>
      <trkpt lat="42.40035167" lon="-7.87670167">
        <ele>479.0</ele>
        <time>2018-10-03T07:19:50.000Z</time>
      </trkpt>
      <trkpt lat="42.40036667" lon="-7.87670667">
        <ele>479.0</ele>
        <time>2018-10-03T07:19:51.000Z</time>
      </trkpt>
      <trkpt lat="42.40038333" lon="-7.87671333">
        <ele>478.0</ele>
        <time>2018-10-03T07:19:52.000Z</time>
      </trkpt>
      <trkpt lat="42.40039833" lon="-7.87672167">
        <ele>478.0</ele>
        <time>2018-10-03T07:19:53.000Z</time>
      </trkpt>
      <trkpt lat="42.40041" lon="-7.87673">
        <ele>478.0</ele>
        <time>2018-10-03T07:19:54.000Z</time>
      </trkpt>
      <trkpt lat="42.400425" lon="-7.87673833">
        <ele>478.0</ele>
        <time>2018-10-03T07:19:55.000Z</time>
      </trkpt>
      <trkpt lat="42.40044" lon="-7.87674833">
        <ele>478.0</ele>
        <time>2018-10-03T07:19:56.000Z</time>
      </trkpt>
      <trkpt lat="42.40045667" lon="-7.87676">
        <ele>478.0</ele>
        <time>2018-10-03T07:19:57.000Z</time>
      </trkpt>
      <trkpt lat="42.40047167" lon="-7.87676833">
        <ele>479.0</ele>
        <time>2018-10-03T07:19:58.000Z</time>
      </trkpt>
      <trkpt lat="42.40048833" lon="-7.876775">
        <ele>479.0</ele>
        <time>2018-10-03T07:19:59.000Z</time>
      </trkpt>
      <trkpt lat="42.40050333" lon="-7.87678167">
        <ele>479.0</ele>
        <time>2018-10-03T07:20:00.000Z</time>
      </trkpt>
      <trkpt lat="42.40052" lon="-7.87678833">
        <ele>479.0</ele>
        <time>2018-10-03T07:20:01.000Z</time>
      </trkpt>
      <trkpt lat="42.400535" lon="-7.87679667">
        <ele>479.0</ele>
        <time>2018-10-03T07:20:02.000Z</time>
      </trkpt>
      <trkpt lat="42.40055167" lon="-7.876805">
        <ele>478.0</ele>
        <time>2018-10-03T07:20:03.000Z</time>
      </trkpt>
      <trkpt lat="42.40057" lon="-7.876815">
        <ele>479.0</ele>
        <time>2018-10-03T07:20:04.000Z</time>
      </trkpt>
      <trkpt lat="42.400585" lon="-7.87682333">
        <ele>479.0</ele>
        <time>2018-10-03T07:20:05.000Z</time>
      </trkpt>
      <trkpt lat="42.4006" lon="-7.87683333">
        <ele>479.0</ele>
        <time>2018-10-03T07:20:06.000Z</time>
      </trkpt>
      <trkpt lat="42.40061333" lon="-7.87684167">
        <ele>479.0</ele>
        <time>2018-10-03T07:20:07.000Z</time>
      </trkpt>
      <trkpt lat="42.40062667" lon="-7.87685">
        <ele>479.0</ele>
        <time>2018-10-03T07:20:08.000Z</time>
      </trkpt>
      <trkpt lat="42.40064167" lon="-7.87685667">
        <ele>479.0</ele>
        <time>2018-10-03T07:20:09.000Z</time>
      </trkpt>
      <trkpt lat="42.40065833" lon="-7.87686333">
        <ele>479.0</ele>
        <time>2018-10-03T07:20:10.000Z</time>
      </trkpt>
      <trkpt lat="42.40067667" lon="-7.87686833">
        <ele>479.0</ele>
        <time>2018-10-03T07:20:11.000Z</time>
      </trkpt>
      <trkpt lat="42.400695" lon="-7.87687333">
        <ele>479.0</ele>
        <time>2018-10-03T07:20:12.000Z</time>
      </trkpt>
      <trkpt lat="42.40071167" lon="-7.87687833">
        <ele>479.0</ele>
        <time>2018-10-03T07:20:13.000Z</time>
      </trkpt>
      <trkpt lat="42.40073" lon="-7.87688167">
        <ele>479.0</ele>
        <time>2018-10-03T07:20:14.000Z</time>
      </trkpt>
      <trkpt lat="42.400745" lon="-7.87688667">
        <ele>479.0</ele>
        <time>2018-10-03T07:20:15.000Z</time>
      </trkpt>
      <trkpt lat="42.40076" lon="-7.87689167">
        <ele>479.0</ele>
        <time>2018-10-03T07:20:16.000Z</time>
      </trkpt>
      <trkpt lat="42.40077667" lon="-7.87689833">
        <ele>479.0</ele>
        <time>2018-10-03T07:20:17.000Z</time>
      </trkpt>
      <trkpt lat="42.40079333" lon="-7.87690667">
        <ele>479.0</ele>
        <time>2018-10-03T07:20:18.000Z</time>
      </trkpt>
      <trkpt lat="42.40081" lon="-7.87691167">
        <ele>480.0</ele>
        <time>2018-10-03T07:20:19.000Z</time>
      </trkpt>
      <trkpt lat="42.40082667" lon="-7.87691667">
        <ele>480.0</ele>
        <time>2018-10-03T07:20:20.000Z</time>
      </trkpt>
      <trkpt lat="42.40084333" lon="-7.87692">
        <ele>480.0</ele>
        <time>2018-10-03T07:20:21.000Z</time>
      </trkpt>
      <trkpt lat="42.40085833" lon="-7.87692667">
        <ele>480.0</ele>
        <time>2018-10-03T07:20:22.000Z</time>
      </trkpt>
      <trkpt lat="42.40087167" lon="-7.876935">
        <ele>480.0</ele>
        <time>2018-10-03T07:20:23.000Z</time>
      </trkpt>
      <trkpt lat="42.40088833" lon="-7.87694333">
        <ele>481.0</ele>
        <time>2018-10-03T07:20:24.000Z</time>
      </trkpt>
      <trkpt lat="42.400905" lon="-7.87695">
        <ele>481.0</ele>
        <time>2018-10-03T07:20:25.000Z</time>
      </trkpt>
      <trkpt lat="42.40092167" lon="-7.876955">
        <ele>481.0</ele>
        <time>2018-10-03T07:20:26.000Z</time>
      </trkpt>
      <trkpt lat="42.40093833" lon="-7.87696">
        <ele>481.0</ele>
        <time>2018-10-03T07:20:27.000Z</time>
      </trkpt>
      <trkpt lat="42.40095333" lon="-7.87696667">
        <ele>481.0</ele>
        <time>2018-10-03T07:20:28.000Z</time>
      </trkpt>
      <trkpt lat="42.40096833" lon="-7.876975">
        <ele>481.0</ele>
        <time>2018-10-03T07:20:29.000Z</time>
      </trkpt>
      <trkpt lat="42.40098167" lon="-7.876985">
        <ele>481.0</ele>
        <time>2018-10-03T07:20:30.000Z</time>
      </trkpt>
      <trkpt lat="42.40099667" lon="-7.87699333">
        <ele>481.0</ele>
        <time>2018-10-03T07:20:31.000Z</time>
      </trkpt>
      <trkpt lat="42.40101333" lon="-7.87700167">
        <ele>481.0</ele>
        <time>2018-10-03T07:20:32.000Z</time>
      </trkpt>
      <trkpt lat="42.40103167" lon="-7.87701">
        <ele>481.0</ele>
        <time>2018-10-03T07:20:33.000Z</time>
      </trkpt>
      <trkpt lat="42.40104833" lon="-7.877015">
        <ele>481.0</ele>
        <time>2018-10-03T07:20:34.000Z</time>
      </trkpt>
      <trkpt lat="42.401065" lon="-7.87702">
        <ele>481.0</ele>
        <time>2018-10-03T07:20:35.000Z</time>
      </trkpt>
      <trkpt lat="42.40108333" lon="-7.877025">
        <ele>481.0</ele>
        <time>2018-10-03T07:20:36.000Z</time>
      </trkpt>
      <trkpt lat="42.40109833" lon="-7.87703">
        <ele>481.0</ele>
        <time>2018-10-03T07:20:37.000Z</time>
      </trkpt>
      <trkpt lat="42.401115" lon="-7.87703167">
        <ele>481.0</ele>
        <time>2018-10-03T07:20:38.000Z</time>
      </trkpt>
      <trkpt lat="42.40113167" lon="-7.877035">
        <ele>481.0</ele>
        <time>2018-10-03T07:20:39.000Z</time>
      </trkpt>
      <trkpt lat="42.40114833" lon="-7.87703667">
        <ele>481.0</ele>
        <time>2018-10-03T07:20:40.000Z</time>
      </trkpt>
      <trkpt lat="42.401165" lon="-7.87704167">
        <ele>481.0</ele>
        <time>2018-10-03T07:20:41.000Z</time>
      </trkpt>
      <trkpt lat="42.40118" lon="-7.87704667">
        <ele>481.0</ele>
        <time>2018-10-03T07:20:42.000Z</time>
      </trkpt>
      <trkpt lat="42.40119333" lon="-7.87704833">
        <ele>481.0</ele>
        <time>2018-10-03T07:20:43.000Z</time>
      </trkpt>
      <trkpt lat="42.40120833" lon="-7.87705333">
        <ele>481.0</ele>
        <time>2018-10-03T07:20:44.000Z</time>
      </trkpt>
      <trkpt lat="42.40122167" lon="-7.87706">
        <ele>481.0</ele>
        <time>2018-10-03T07:20:45.000Z</time>
      </trkpt>
      <trkpt lat="42.40123667" lon="-7.877065">
        <ele>481.0</ele>
        <time>2018-10-03T07:20:46.000Z</time>
      </trkpt>
      <trkpt lat="42.401255" lon="-7.87707333">
        <ele>481.0</ele>
        <time>2018-10-03T07:20:47.000Z</time>
      </trkpt>
      <trkpt lat="42.40127" lon="-7.87708167">
        <ele>481.0</ele>
        <time>2018-10-03T07:20:48.000Z</time>
      </trkpt>
      <trkpt lat="42.401285" lon="-7.87708833">
        <ele>481.0</ele>
        <time>2018-10-03T07:20:49.000Z</time>
      </trkpt>
      <trkpt lat="42.40129833" lon="-7.87709833">
        <ele>481.0</ele>
        <time>2018-10-03T07:20:50.000Z</time>
      </trkpt>
      <trkpt lat="42.401315" lon="-7.87710667">
        <ele>481.0</ele>
        <time>2018-10-03T07:20:51.000Z</time>
      </trkpt>
      <trkpt lat="42.40133" lon="-7.87711667">
        <ele>481.0</ele>
        <time>2018-10-03T07:20:52.000Z</time>
      </trkpt>
      <trkpt lat="42.40134833" lon="-7.87712333">
        <ele>481.0</ele>
        <time>2018-10-03T07:20:53.000Z</time>
      </trkpt>
      <trkpt lat="42.40136667" lon="-7.87712833">
        <ele>481.0</ele>
        <time>2018-10-03T07:20:54.000Z</time>
      </trkpt>
      <trkpt lat="42.401385" lon="-7.87713333">
        <ele>481.0</ele>
        <time>2018-10-03T07:20:55.000Z</time>
      </trkpt>
      <trkpt lat="42.40140167" lon="-7.87714">
        <ele>482.0</ele>
        <time>2018-10-03T07:20:56.000Z</time>
      </trkpt>
      <trkpt lat="42.401415" lon="-7.87714833">
        <ele>482.0</ele>
        <time>2018-10-03T07:20:57.000Z</time>
      </trkpt>
      <trkpt lat="42.40142833" lon="-7.87715667">
        <ele>482.0</ele>
        <time>2018-10-03T07:20:58.000Z</time>
      </trkpt>
      <trkpt lat="42.40144333" lon="-7.87716833">
        <ele>482.0</ele>
        <time>2018-10-03T07:20:59.000Z</time>
      </trkpt>
      <trkpt lat="42.40146" lon="-7.877175">
        <ele>482.0</ele>
        <time>2018-10-03T07:21:00.000Z</time>
      </trkpt>
      <trkpt lat="42.40147667" lon="-7.87718167">
        <ele>482.0</ele>
        <time>2018-10-03T07:21:01.000Z</time>
      </trkpt>
      <trkpt lat="42.401495" lon="-7.87718667">
        <ele>482.0</ele>
        <time>2018-10-03T07:21:02.000Z</time>
      </trkpt>
      <trkpt lat="42.40151333" lon="-7.87718833">
        <ele>482.0</ele>
        <time>2018-10-03T07:21:03.000Z</time>
      </trkpt>
      <trkpt lat="42.40153167" lon="-7.87719167">
        <ele>482.0</ele>
        <time>2018-10-03T07:21:04.000Z</time>
      </trkpt>
      <trkpt lat="42.40155" lon="-7.87719333">
        <ele>482.0</ele>
        <time>2018-10-03T07:21:05.000Z</time>
      </trkpt>
      <trkpt lat="42.40156833" lon="-7.87719667">
        <ele>482.0</ele>
        <time>2018-10-03T07:21:06.000Z</time>
      </trkpt>
      <trkpt lat="42.40158667" lon="-7.87719833">
        <ele>482.0</ele>
        <time>2018-10-03T07:21:07.000Z</time>
      </trkpt>
      <trkpt lat="42.401605" lon="-7.87720333">
        <ele>482.0</ele>
        <time>2018-10-03T07:21:08.000Z</time>
      </trkpt>
      <trkpt lat="42.40162167" lon="-7.87720667">
        <ele>483.0</ele>
        <time>2018-10-03T07:21:09.000Z</time>
      </trkpt>
      <trkpt lat="42.40163833" lon="-7.87720833">
        <ele>483.0</ele>
        <time>2018-10-03T07:21:10.000Z</time>
      </trkpt>
      <trkpt lat="42.401655" lon="-7.87721">
        <ele>482.0</ele>
        <time>2018-10-03T07:21:11.000Z</time>
      </trkpt>
      <trkpt lat="42.40166833" lon="-7.87720833">
        <ele>482.0</ele>
        <time>2018-10-03T07:21:12.000Z</time>
      </trkpt>
      <trkpt lat="42.40168333" lon="-7.87721">
        <ele>482.0</ele>
        <time>2018-10-03T07:21:13.000Z</time>
      </trkpt>
      <trkpt lat="42.40169667" lon="-7.87721167">
        <ele>482.0</ele>
        <time>2018-10-03T07:21:14.000Z</time>
      </trkpt>
      <trkpt lat="42.40170833" lon="-7.87721333">
        <ele>482.0</ele>
        <time>2018-10-03T07:21:15.000Z</time>
      </trkpt>
      <trkpt lat="42.40171833" lon="-7.87721667">
        <ele>482.0</ele>
        <time>2018-10-03T07:21:16.000Z</time>
      </trkpt>
      <trkpt lat="42.40172833" lon="-7.87722">
        <ele>482.0</ele>
        <time>2018-10-03T07:21:17.000Z</time>
      </trkpt>
      <trkpt lat="42.40174" lon="-7.87722667">
        <ele>482.0</ele>
        <time>2018-10-03T07:21:18.000Z</time>
      </trkpt>
      <trkpt lat="42.40175333" lon="-7.87723">
        <ele>482.0</ele>
        <time>2018-10-03T07:21:19.000Z</time>
      </trkpt>
      <trkpt lat="42.40176833" lon="-7.877235">
        <ele>482.0</ele>
        <time>2018-10-03T07:21:20.000Z</time>
      </trkpt>
      <trkpt lat="42.401785" lon="-7.87724">
        <ele>482.0</ele>
        <time>2018-10-03T07:21:21.000Z</time>
      </trkpt>
      <trkpt lat="42.40180333" lon="-7.87724333">
        <ele>482.0</ele>
        <time>2018-10-03T07:21:22.000Z</time>
      </trkpt>
      <trkpt lat="42.40182" lon="-7.87724667">
        <ele>483.0</ele>
        <time>2018-10-03T07:21:23.000Z</time>
      </trkpt>
      <trkpt lat="42.40183833" lon="-7.87725167">
        <ele>483.0</ele>
        <time>2018-10-03T07:21:24.000Z</time>
      </trkpt>
      <trkpt lat="42.401855" lon="-7.87725667">
        <ele>483.0</ele>
        <time>2018-10-03T07:21:25.000Z</time>
      </trkpt>
      <trkpt lat="42.401875" lon="-7.87726">
        <ele>483.0</ele>
        <time>2018-10-03T07:21:26.000Z</time>
      </trkpt>
      <trkpt lat="42.40189333" lon="-7.877265">
        <ele>483.0</ele>
        <time>2018-10-03T07:21:27.000Z</time>
      </trkpt>
      <trkpt lat="42.40191167" lon="-7.87726833">
        <ele>483.0</ele>
        <time>2018-10-03T07:21:28.000Z</time>
      </trkpt>
      <trkpt lat="42.40193" lon="-7.87726833">
        <ele>484.0</ele>
        <time>2018-10-03T07:21:29.000Z</time>
      </trkpt>
      <trkpt lat="42.40194833" lon="-7.87727167">
        <ele>484.0</ele>
        <time>2018-10-03T07:21:30.000Z</time>
      </trkpt>
      <trkpt lat="42.40196833" lon="-7.877275">
        <ele>484.0</ele>
        <time>2018-10-03T07:21:31.000Z</time>
      </trkpt>
      <trkpt lat="42.401985" lon="-7.87727833">
        <ele>484.0</ele>
        <time>2018-10-03T07:21:32.000Z</time>
      </trkpt>
      <trkpt lat="42.40200167" lon="-7.87728167">
        <ele>484.0</ele>
        <time>2018-10-03T07:21:33.000Z</time>
      </trkpt>
      <trkpt lat="42.40201833" lon="-7.877285">
        <ele>484.0</ele>
        <time>2018-10-03T07:21:34.000Z</time>
      </trkpt>
      <trkpt lat="42.40203667" lon="-7.87729167">
        <ele>484.0</ele>
        <time>2018-10-03T07:21:35.000Z</time>
      </trkpt>
      <trkpt lat="42.402055" lon="-7.87729833">
        <ele>484.0</ele>
        <time>2018-10-03T07:21:36.000Z</time>
      </trkpt>
      <trkpt lat="42.40207333" lon="-7.87730667">
        <ele>484.0</ele>
        <time>2018-10-03T07:21:37.000Z</time>
      </trkpt>
      <trkpt lat="42.40209167" lon="-7.87731167">
        <ele>484.0</ele>
        <time>2018-10-03T07:21:38.000Z</time>
      </trkpt>
      <trkpt lat="42.40211" lon="-7.87731667">
        <ele>483.0</ele>
        <time>2018-10-03T07:21:39.000Z</time>
      </trkpt>
      <trkpt lat="42.40212667" lon="-7.87732167">
        <ele>483.0</ele>
        <time>2018-10-03T07:21:40.000Z</time>
      </trkpt>
      <trkpt lat="42.402145" lon="-7.87732667">
        <ele>483.0</ele>
        <time>2018-10-03T07:21:41.000Z</time>
      </trkpt>
      <trkpt lat="42.40216" lon="-7.87733167">
        <ele>483.0</ele>
        <time>2018-10-03T07:21:42.000Z</time>
      </trkpt>
      <trkpt lat="42.40217667" lon="-7.87734">
        <ele>482.0</ele>
        <time>2018-10-03T07:21:43.000Z</time>
      </trkpt>
      <trkpt lat="42.402195" lon="-7.87734833">
        <ele>482.0</ele>
        <time>2018-10-03T07:21:44.000Z</time>
      </trkpt>
      <trkpt lat="42.40221333" lon="-7.87735167">
        <ele>482.0</ele>
        <time>2018-10-03T07:21:45.000Z</time>
      </trkpt>
      <trkpt lat="42.40223333" lon="-7.87735833">
        <ele>482.0</ele>
        <time>2018-10-03T07:21:46.000Z</time>
      </trkpt>
      <trkpt lat="42.40225167" lon="-7.87736333">
        <ele>482.0</ele>
        <time>2018-10-03T07:21:47.000Z</time>
      </trkpt>
      <trkpt lat="42.40226833" lon="-7.87737167">
        <ele>482.0</ele>
        <time>2018-10-03T07:21:48.000Z</time>
      </trkpt>
      <trkpt lat="42.40228833" lon="-7.87737667">
        <ele>482.0</ele>
        <time>2018-10-03T07:21:49.000Z</time>
      </trkpt>
      <trkpt lat="42.40230833" lon="-7.877385">
        <ele>481.0</ele>
        <time>2018-10-03T07:21:50.000Z</time>
      </trkpt>
      <trkpt lat="42.40232833" lon="-7.87739167">
        <ele>481.0</ele>
        <time>2018-10-03T07:21:51.000Z</time>
      </trkpt>
      <trkpt lat="42.40234667" lon="-7.87739667">
        <ele>481.0</ele>
        <time>2018-10-03T07:21:52.000Z</time>
      </trkpt>
      <trkpt lat="42.40236667" lon="-7.87740167">
        <ele>481.0</ele>
        <time>2018-10-03T07:21:53.000Z</time>
      </trkpt>
      <trkpt lat="42.40238333" lon="-7.877405">
        <ele>481.0</ele>
        <time>2018-10-03T07:21:54.000Z</time>
      </trkpt>
      <trkpt lat="42.4024" lon="-7.87741">
        <ele>481.0</ele>
        <time>2018-10-03T07:21:55.000Z</time>
      </trkpt>
      <trkpt lat="42.40241667" lon="-7.877415">
        <ele>481.0</ele>
        <time>2018-10-03T07:21:56.000Z</time>
      </trkpt>
      <trkpt lat="42.40243333" lon="-7.87742">
        <ele>480.0</ele>
        <time>2018-10-03T07:21:57.000Z</time>
      </trkpt>
      <trkpt lat="42.40245167" lon="-7.87742667">
        <ele>480.0</ele>
        <time>2018-10-03T07:21:58.000Z</time>
      </trkpt>
      <trkpt lat="42.40247" lon="-7.87743">
        <ele>480.0</ele>
        <time>2018-10-03T07:21:59.000Z</time>
      </trkpt>
      <trkpt lat="42.40249" lon="-7.87743333">
        <ele>480.0</ele>
        <time>2018-10-03T07:22:00.000Z</time>
      </trkpt>
      <trkpt lat="42.40250833" lon="-7.87743667">
        <ele>480.0</ele>
        <time>2018-10-03T07:22:01.000Z</time>
      </trkpt>
      <trkpt lat="42.40252333" lon="-7.87744167">
        <ele>480.0</ele>
        <time>2018-10-03T07:22:02.000Z</time>
      </trkpt>
      <trkpt lat="42.40253833" lon="-7.877445">
        <ele>480.0</ele>
        <time>2018-10-03T07:22:03.000Z</time>
      </trkpt>
      <trkpt lat="42.402555" lon="-7.87744833">
        <ele>480.0</ele>
        <time>2018-10-03T07:22:04.000Z</time>
      </trkpt>
      <trkpt lat="42.40257333" lon="-7.87745167">
        <ele>480.0</ele>
        <time>2018-10-03T07:22:05.000Z</time>
      </trkpt>
      <trkpt lat="42.40259167" lon="-7.87745667">
        <ele>480.0</ele>
        <time>2018-10-03T07:22:06.000Z</time>
      </trkpt>
      <trkpt lat="42.40261" lon="-7.87746167">
        <ele>480.0</ele>
        <time>2018-10-03T07:22:07.000Z</time>
      </trkpt>
      <trkpt lat="42.402625" lon="-7.87746667">
        <ele>480.0</ele>
        <time>2018-10-03T07:22:08.000Z</time>
      </trkpt>
      <trkpt lat="42.40264" lon="-7.87747167">
        <ele>480.0</ele>
        <time>2018-10-03T07:22:09.000Z</time>
      </trkpt>
      <trkpt lat="42.40265667" lon="-7.877475">
        <ele>480.0</ele>
        <time>2018-10-03T07:22:10.000Z</time>
      </trkpt>
      <trkpt lat="42.40267167" lon="-7.87748">
        <ele>480.0</ele>
        <time>2018-10-03T07:22:11.000Z</time>
      </trkpt>
      <trkpt lat="42.40268833" lon="-7.87748667">
        <ele>480.0</ele>
        <time>2018-10-03T07:22:12.000Z</time>
      </trkpt>
      <trkpt lat="42.40270333" lon="-7.87749333">
        <ele>480.0</ele>
        <time>2018-10-03T07:22:13.000Z</time>
      </trkpt>
      <trkpt lat="42.40271833" lon="-7.87750167">
        <ele>481.0</ele>
        <time>2018-10-03T07:22:14.000Z</time>
      </trkpt>
      <trkpt lat="42.402735" lon="-7.87750333">
        <ele>481.0</ele>
        <time>2018-10-03T07:22:15.000Z</time>
      </trkpt>
      <trkpt lat="42.40275" lon="-7.87750833">
        <ele>481.0</ele>
        <time>2018-10-03T07:22:16.000Z</time>
      </trkpt>
      <trkpt lat="42.402765" lon="-7.87751">
        <ele>481.0</ele>
        <time>2018-10-03T07:22:17.000Z</time>
      </trkpt>
      <trkpt lat="42.40278" lon="-7.877515">
        <ele>481.0</ele>
        <time>2018-10-03T07:22:18.000Z</time>
      </trkpt>
      <trkpt lat="42.40279667" lon="-7.87751667">
        <ele>481.0</ele>
        <time>2018-10-03T07:22:19.000Z</time>
      </trkpt>
      <trkpt lat="42.402815" lon="-7.87752">
        <ele>481.0</ele>
        <time>2018-10-03T07:22:20.000Z</time>
      </trkpt>
      <trkpt lat="42.402835" lon="-7.87752167">
        <ele>481.0</ele>
        <time>2018-10-03T07:22:21.000Z</time>
      </trkpt>
      <trkpt lat="42.40285333" lon="-7.87752667">
        <ele>481.0</ele>
        <time>2018-10-03T07:22:22.000Z</time>
      </trkpt>
      <trkpt lat="42.40287" lon="-7.87752833">
        <ele>481.0</ele>
        <time>2018-10-03T07:22:23.000Z</time>
      </trkpt>
      <trkpt lat="42.40288833" lon="-7.87753">
        <ele>481.0</ele>
        <time>2018-10-03T07:22:24.000Z</time>
      </trkpt>
      <trkpt lat="42.402905" lon="-7.87753167">
        <ele>481.0</ele>
        <time>2018-10-03T07:22:25.000Z</time>
      </trkpt>
      <trkpt lat="42.40292167" lon="-7.877535">
        <ele>481.0</ele>
        <time>2018-10-03T07:22:26.000Z</time>
      </trkpt>
      <trkpt lat="42.40294" lon="-7.87754">
        <ele>481.0</ele>
        <time>2018-10-03T07:22:27.000Z</time>
      </trkpt>
      <trkpt lat="42.40295833" lon="-7.87754333">
        <ele>481.0</ele>
        <time>2018-10-03T07:22:28.000Z</time>
      </trkpt>
      <trkpt lat="42.40297667" lon="-7.877545">
        <ele>482.0</ele>
        <time>2018-10-03T07:22:29.000Z</time>
      </trkpt>
      <trkpt lat="42.40299667" lon="-7.877545">
        <ele>482.0</ele>
        <time>2018-10-03T07:22:30.000Z</time>
      </trkpt>
      <trkpt lat="42.40301333" lon="-7.87754833">
        <ele>482.0</ele>
        <time>2018-10-03T07:22:31.000Z</time>
      </trkpt>
      <trkpt lat="42.40302833" lon="-7.87755333">
        <ele>482.0</ele>
        <time>2018-10-03T07:22:32.000Z</time>
      </trkpt>
      <trkpt lat="42.40304667" lon="-7.87755667">
        <ele>482.0</ele>
        <time>2018-10-03T07:22:33.000Z</time>
      </trkpt>
      <trkpt lat="42.40306333" lon="-7.87756">
        <ele>482.0</ele>
        <time>2018-10-03T07:22:34.000Z</time>
      </trkpt>
      <trkpt lat="42.40307833" lon="-7.87756333">
        <ele>482.0</ele>
        <time>2018-10-03T07:22:35.000Z</time>
      </trkpt>
      <trkpt lat="42.40309333" lon="-7.877565">
        <ele>482.0</ele>
        <time>2018-10-03T07:22:36.000Z</time>
      </trkpt>
      <trkpt lat="42.40311" lon="-7.877565">
        <ele>482.0</ele>
        <time>2018-10-03T07:22:37.000Z</time>
      </trkpt>
      <trkpt lat="42.40312667" lon="-7.877565">
        <ele>482.0</ele>
        <time>2018-10-03T07:22:38.000Z</time>
      </trkpt>
      <trkpt lat="42.40314333" lon="-7.87756667">
        <ele>482.0</ele>
        <time>2018-10-03T07:22:39.000Z</time>
      </trkpt>
      <trkpt lat="42.40316167" lon="-7.87756833">
        <ele>482.0</ele>
        <time>2018-10-03T07:22:40.000Z</time>
      </trkpt>
      <trkpt lat="42.40317833" lon="-7.87757">
        <ele>482.0</ele>
        <time>2018-10-03T07:22:41.000Z</time>
      </trkpt>
      <trkpt lat="42.403195" lon="-7.87757667">
        <ele>482.0</ele>
        <time>2018-10-03T07:22:42.000Z</time>
      </trkpt>
      <trkpt lat="42.40321" lon="-7.87758667">
        <ele>482.0</ele>
        <time>2018-10-03T07:22:43.000Z</time>
      </trkpt>
      <trkpt lat="42.403225" lon="-7.87759333">
        <ele>482.0</ele>
        <time>2018-10-03T07:22:44.000Z</time>
      </trkpt>
      <trkpt lat="42.40324" lon="-7.8776">
        <ele>482.0</ele>
        <time>2018-10-03T07:22:45.000Z</time>
      </trkpt>
      <trkpt lat="42.40325333" lon="-7.877605">
        <ele>482.0</ele>
        <time>2018-10-03T07:22:46.000Z</time>
      </trkpt>
      <trkpt lat="42.40326833" lon="-7.87761167">
        <ele>482.0</ele>
        <time>2018-10-03T07:22:47.000Z</time>
      </trkpt>
      <trkpt lat="42.40328167" lon="-7.87761833">
        <ele>482.0</ele>
        <time>2018-10-03T07:22:48.000Z</time>
      </trkpt>
      <trkpt lat="42.403295" lon="-7.877625">
        <ele>482.0</ele>
        <time>2018-10-03T07:22:49.000Z</time>
      </trkpt>
      <trkpt lat="42.40331167" lon="-7.87763167">
        <ele>482.0</ele>
        <time>2018-10-03T07:22:50.000Z</time>
      </trkpt>
      <trkpt lat="42.40332833" lon="-7.87764">
        <ele>482.0</ele>
        <time>2018-10-03T07:22:51.000Z</time>
      </trkpt>
      <trkpt lat="42.403345" lon="-7.87764667">
        <ele>482.0</ele>
        <time>2018-10-03T07:22:52.000Z</time>
      </trkpt>
      <trkpt lat="42.40336" lon="-7.87765">
        <ele>483.0</ele>
        <time>2018-10-03T07:22:53.000Z</time>
      </trkpt>
      <trkpt lat="42.40337333" lon="-7.877655">
        <ele>483.0</ele>
        <time>2018-10-03T07:22:54.000Z</time>
      </trkpt>
      <trkpt lat="42.40338667" lon="-7.87765667">
        <ele>483.0</ele>
        <time>2018-10-03T07:22:55.000Z</time>
      </trkpt>
      <trkpt lat="42.40340167" lon="-7.87766">
        <ele>483.0</ele>
        <time>2018-10-03T07:22:56.000Z</time>
      </trkpt>
      <trkpt lat="42.40342" lon="-7.87766167">
        <ele>483.0</ele>
        <time>2018-10-03T07:22:57.000Z</time>
      </trkpt>
      <trkpt lat="42.40343833" lon="-7.87766167">
        <ele>483.0</ele>
        <time>2018-10-03T07:22:58.000Z</time>
      </trkpt>
      <trkpt lat="42.40345667" lon="-7.87766167">
        <ele>483.0</ele>
        <time>2018-10-03T07:22:59.000Z</time>
      </trkpt>
      <trkpt lat="42.403475" lon="-7.87766333">
        <ele>483.0</ele>
        <time>2018-10-03T07:23:00.000Z</time>
      </trkpt>
      <trkpt lat="42.40349167" lon="-7.87766833">
        <ele>484.0</ele>
        <time>2018-10-03T07:23:01.000Z</time>
      </trkpt>
      <trkpt lat="42.403505" lon="-7.87767333">
        <ele>484.0</ele>
        <time>2018-10-03T07:23:02.000Z</time>
      </trkpt>
      <trkpt lat="42.40352" lon="-7.87768167">
        <ele>484.0</ele>
        <time>2018-10-03T07:23:03.000Z</time>
      </trkpt>
      <trkpt lat="42.403535" lon="-7.87769">
        <ele>484.0</ele>
        <time>2018-10-03T07:23:04.000Z</time>
      </trkpt>
      <trkpt lat="42.40355" lon="-7.87769667">
        <ele>484.0</ele>
        <time>2018-10-03T07:23:05.000Z</time>
      </trkpt>
      <trkpt lat="42.40356333" lon="-7.87770667">
        <ele>485.0</ele>
        <time>2018-10-03T07:23:06.000Z</time>
      </trkpt>
      <trkpt lat="42.40357833" lon="-7.87771667">
        <ele>485.0</ele>
        <time>2018-10-03T07:23:07.000Z</time>
      </trkpt>
      <trkpt lat="42.40359167" lon="-7.87772833">
        <ele>485.0</ele>
        <time>2018-10-03T07:23:08.000Z</time>
      </trkpt>
      <trkpt lat="42.403605" lon="-7.87774">
        <ele>485.0</ele>
        <time>2018-10-03T07:23:09.000Z</time>
      </trkpt>
      <trkpt lat="42.40361833" lon="-7.87775167">
        <ele>485.0</ele>
        <time>2018-10-03T07:23:10.000Z</time>
      </trkpt>
      <trkpt lat="42.40363" lon="-7.87776333">
        <ele>485.0</ele>
        <time>2018-10-03T07:23:11.000Z</time>
      </trkpt>
      <trkpt lat="42.40364167" lon="-7.877775">
        <ele>485.0</ele>
        <time>2018-10-03T07:23:12.000Z</time>
      </trkpt>
      <trkpt lat="42.403655" lon="-7.87778667">
        <ele>486.0</ele>
        <time>2018-10-03T07:23:13.000Z</time>
      </trkpt>
      <trkpt lat="42.40366833" lon="-7.87779833">
        <ele>486.0</ele>
        <time>2018-10-03T07:23:14.000Z</time>
      </trkpt>
      <trkpt lat="42.40368" lon="-7.87781">
        <ele>486.0</ele>
        <time>2018-10-03T07:23:15.000Z</time>
      </trkpt>
      <trkpt lat="42.40369333" lon="-7.87782">
        <ele>486.0</ele>
        <time>2018-10-03T07:23:16.000Z</time>
      </trkpt>
      <trkpt lat="42.40370667" lon="-7.87782667">
        <ele>486.0</ele>
        <time>2018-10-03T07:23:17.000Z</time>
      </trkpt>
      <trkpt lat="42.40372" lon="-7.87783167">
        <ele>486.0</ele>
        <time>2018-10-03T07:23:18.000Z</time>
      </trkpt>
      <trkpt lat="42.40373167" lon="-7.87784">
        <ele>487.0</ele>
        <time>2018-10-03T07:23:19.000Z</time>
      </trkpt>
      <trkpt lat="42.403745" lon="-7.87784833">
        <ele>487.0</ele>
        <time>2018-10-03T07:23:20.000Z</time>
      </trkpt>
      <trkpt lat="42.40376167" lon="-7.877855">
        <ele>487.0</ele>
        <time>2018-10-03T07:23:21.000Z</time>
      </trkpt>
      <trkpt lat="42.40377667" lon="-7.87786333">
        <ele>487.0</ele>
        <time>2018-10-03T07:23:22.000Z</time>
      </trkpt>
      <trkpt lat="42.40379" lon="-7.87786833">
        <ele>487.0</ele>
        <time>2018-10-03T07:23:23.000Z</time>
      </trkpt>
      <trkpt lat="42.40380333" lon="-7.87787833">
        <ele>487.0</ele>
        <time>2018-10-03T07:23:24.000Z</time>
      </trkpt>
      <trkpt lat="42.403815" lon="-7.877885">
        <ele>487.0</ele>
        <time>2018-10-03T07:23:25.000Z</time>
      </trkpt>
      <trkpt lat="42.403825" lon="-7.87789167">
        <ele>487.0</ele>
        <time>2018-10-03T07:23:26.000Z</time>
      </trkpt>
      <trkpt lat="42.40383667" lon="-7.87789833">
        <ele>487.0</ele>
        <time>2018-10-03T07:23:27.000Z</time>
      </trkpt>
      <trkpt lat="42.40384667" lon="-7.87790333">
        <ele>488.0</ele>
        <time>2018-10-03T07:23:28.000Z</time>
      </trkpt>
      <trkpt lat="42.40386" lon="-7.87790833">
        <ele>488.0</ele>
        <time>2018-10-03T07:23:29.000Z</time>
      </trkpt>
      <trkpt lat="42.40387167" lon="-7.87791167">
        <ele>488.0</ele>
        <time>2018-10-03T07:23:30.000Z</time>
      </trkpt>
      <trkpt lat="42.403885" lon="-7.877915">
        <ele>488.0</ele>
        <time>2018-10-03T07:23:31.000Z</time>
      </trkpt>
      <trkpt lat="42.40389833" lon="-7.87792333">
        <ele>488.0</ele>
        <time>2018-10-03T07:23:32.000Z</time>
      </trkpt>
      <trkpt lat="42.40391167" lon="-7.87793333">
        <ele>489.0</ele>
        <time>2018-10-03T07:23:33.000Z</time>
      </trkpt>
      <trkpt lat="42.403925" lon="-7.87794">
        <ele>489.0</ele>
        <time>2018-10-03T07:23:34.000Z</time>
      </trkpt>
      <trkpt lat="42.40393667" lon="-7.87794667">
        <ele>489.0</ele>
        <time>2018-10-03T07:23:35.000Z</time>
      </trkpt>
      <trkpt lat="42.40395167" lon="-7.87795167">
        <ele>489.0</ele>
        <time>2018-10-03T07:23:36.000Z</time>
      </trkpt>
      <trkpt lat="42.403965" lon="-7.87796167">
        <ele>489.0</ele>
        <time>2018-10-03T07:23:37.000Z</time>
      </trkpt>
      <trkpt lat="42.40397833" lon="-7.87797333">
        <ele>489.0</ele>
        <time>2018-10-03T07:23:38.000Z</time>
      </trkpt>
      <trkpt lat="42.40399333" lon="-7.87798333">
        <ele>489.0</ele>
        <time>2018-10-03T07:23:39.000Z</time>
      </trkpt>
      <trkpt lat="42.404005" lon="-7.877995">
        <ele>490.0</ele>
        <time>2018-10-03T07:23:40.000Z</time>
      </trkpt>
      <trkpt lat="42.40401667" lon="-7.87800667">
        <ele>490.0</ele>
        <time>2018-10-03T07:23:41.000Z</time>
      </trkpt>
      <trkpt lat="42.40402667" lon="-7.87801667">
        <ele>490.0</ele>
        <time>2018-10-03T07:23:42.000Z</time>
      </trkpt>
      <trkpt lat="42.40403667" lon="-7.87802667">
        <ele>490.0</ele>
        <time>2018-10-03T07:23:43.000Z</time>
      </trkpt>
      <trkpt lat="42.40404833" lon="-7.87803833">
        <ele>490.0</ele>
        <time>2018-10-03T07:23:44.000Z</time>
      </trkpt>
      <trkpt lat="42.40406" lon="-7.87804833">
        <ele>490.0</ele>
        <time>2018-10-03T07:23:45.000Z</time>
      </trkpt>
      <trkpt lat="42.40407167" lon="-7.87806">
        <ele>491.0</ele>
        <time>2018-10-03T07:23:46.000Z</time>
      </trkpt>
      <trkpt lat="42.404085" lon="-7.87807">
        <ele>491.0</ele>
        <time>2018-10-03T07:23:47.000Z</time>
      </trkpt>
      <trkpt lat="42.40409833" lon="-7.87808167">
        <ele>491.0</ele>
        <time>2018-10-03T07:23:48.000Z</time>
      </trkpt>
      <trkpt lat="42.40411167" lon="-7.87809167">
        <ele>491.0</ele>
        <time>2018-10-03T07:23:49.000Z</time>
      </trkpt>
      <trkpt lat="42.40412667" lon="-7.8781">
        <ele>491.0</ele>
        <time>2018-10-03T07:23:50.000Z</time>
      </trkpt>
      <trkpt lat="42.40414167" lon="-7.87810833">
        <ele>492.0</ele>
        <time>2018-10-03T07:23:51.000Z</time>
      </trkpt>
      <trkpt lat="42.404155" lon="-7.87811667">
        <ele>492.0</ele>
        <time>2018-10-03T07:23:52.000Z</time>
      </trkpt>
      <trkpt lat="42.40416667" lon="-7.87812667">
        <ele>492.0</ele>
        <time>2018-10-03T07:23:53.000Z</time>
      </trkpt>
      <trkpt lat="42.40417833" lon="-7.87813667">
        <ele>492.0</ele>
        <time>2018-10-03T07:23:54.000Z</time>
      </trkpt>
      <trkpt lat="42.40418833" lon="-7.87814833">
        <ele>492.0</ele>
        <time>2018-10-03T07:23:55.000Z</time>
      </trkpt>
      <trkpt lat="42.40420167" lon="-7.87816167">
        <ele>492.0</ele>
        <time>2018-10-03T07:23:56.000Z</time>
      </trkpt>
      <trkpt lat="42.40421333" lon="-7.87817167">
        <ele>493.0</ele>
        <time>2018-10-03T07:23:57.000Z</time>
      </trkpt>
      <trkpt lat="42.40422667" lon="-7.87818167">
        <ele>493.0</ele>
        <time>2018-10-03T07:23:58.000Z</time>
      </trkpt>
      <trkpt lat="42.40424" lon="-7.87819167">
        <ele>493.0</ele>
        <time>2018-10-03T07:23:59.000Z</time>
      </trkpt>
      <trkpt lat="42.40425333" lon="-7.87820333">
        <ele>493.0</ele>
        <time>2018-10-03T07:24:00.000Z</time>
      </trkpt>
      <trkpt lat="42.404265" lon="-7.87821333">
        <ele>493.0</ele>
        <time>2018-10-03T07:24:01.000Z</time>
      </trkpt>
      <trkpt lat="42.40427833" lon="-7.87822167">
        <ele>493.0</ele>
        <time>2018-10-03T07:24:02.000Z</time>
      </trkpt>
      <trkpt lat="42.40429333" lon="-7.87823">
        <ele>493.0</ele>
        <time>2018-10-03T07:24:03.000Z</time>
      </trkpt>
      <trkpt lat="42.40430833" lon="-7.87824">
        <ele>494.0</ele>
        <time>2018-10-03T07:24:04.000Z</time>
      </trkpt>
      <trkpt lat="42.404325" lon="-7.87824833">
        <ele>494.0</ele>
        <time>2018-10-03T07:24:05.000Z</time>
      </trkpt>
      <trkpt lat="42.40434167" lon="-7.878255">
        <ele>494.0</ele>
        <time>2018-10-03T07:24:06.000Z</time>
      </trkpt>
      <trkpt lat="42.40435833" lon="-7.87826333">
        <ele>494.0</ele>
        <time>2018-10-03T07:24:07.000Z</time>
      </trkpt>
      <trkpt lat="42.404375" lon="-7.87827">
        <ele>494.0</ele>
        <time>2018-10-03T07:24:08.000Z</time>
      </trkpt>
      <trkpt lat="42.40439167" lon="-7.87827833">
        <ele>494.0</ele>
        <time>2018-10-03T07:24:09.000Z</time>
      </trkpt>
      <trkpt lat="42.40441167" lon="-7.87828167">
        <ele>495.0</ele>
        <time>2018-10-03T07:24:10.000Z</time>
      </trkpt>
      <trkpt lat="42.40443" lon="-7.87828667">
        <ele>495.0</ele>
        <time>2018-10-03T07:24:11.000Z</time>
      </trkpt>
      <trkpt lat="42.40445" lon="-7.87829167">
        <ele>495.0</ele>
        <time>2018-10-03T07:24:12.000Z</time>
      </trkpt>
      <trkpt lat="42.40446667" lon="-7.87829833">
        <ele>495.0</ele>
        <time>2018-10-03T07:24:13.000Z</time>
      </trkpt>
      <trkpt lat="42.404485" lon="-7.87830667">
        <ele>495.0</ele>
        <time>2018-10-03T07:24:14.000Z</time>
      </trkpt>
      <trkpt lat="42.40450333" lon="-7.87831167">
        <ele>495.0</ele>
        <time>2018-10-03T07:24:15.000Z</time>
      </trkpt>
      <trkpt lat="42.40452" lon="-7.87831833">
        <ele>495.0</ele>
        <time>2018-10-03T07:24:16.000Z</time>
      </trkpt>
      <trkpt lat="42.40453667" lon="-7.878325">
        <ele>496.0</ele>
        <time>2018-10-03T07:24:17.000Z</time>
      </trkpt>
      <trkpt lat="42.40455333" lon="-7.87833">
        <ele>496.0</ele>
        <time>2018-10-03T07:24:18.000Z</time>
      </trkpt>
      <trkpt lat="42.40457" lon="-7.878335">
        <ele>496.0</ele>
        <time>2018-10-03T07:24:19.000Z</time>
      </trkpt>
      <trkpt lat="42.40458833" lon="-7.87834167">
        <ele>496.0</ele>
        <time>2018-10-03T07:24:20.000Z</time>
      </trkpt>
      <trkpt lat="42.40460833" lon="-7.878345">
        <ele>496.0</ele>
        <time>2018-10-03T07:24:21.000Z</time>
      </trkpt>
      <trkpt lat="42.404625" lon="-7.87835">
        <ele>496.0</ele>
        <time>2018-10-03T07:24:22.000Z</time>
      </trkpt>
      <trkpt lat="42.40464333" lon="-7.878355">
        <ele>496.0</ele>
        <time>2018-10-03T07:24:23.000Z</time>
      </trkpt>
      <trkpt lat="42.40466" lon="-7.87835833">
        <ele>496.0</ele>
        <time>2018-10-03T07:24:24.000Z</time>
      </trkpt>
      <trkpt lat="42.40467667" lon="-7.878365">
        <ele>496.0</ele>
        <time>2018-10-03T07:24:25.000Z</time>
      </trkpt>
      <trkpt lat="42.404695" lon="-7.87836833">
        <ele>496.0</ele>
        <time>2018-10-03T07:24:26.000Z</time>
      </trkpt>
      <trkpt lat="42.40471333" lon="-7.87837333">
        <ele>496.0</ele>
        <time>2018-10-03T07:24:27.000Z</time>
      </trkpt>
      <trkpt lat="42.40473167" lon="-7.87837833">
        <ele>496.0</ele>
        <time>2018-10-03T07:24:28.000Z</time>
      </trkpt>
      <trkpt lat="42.40475333" lon="-7.87838">
        <ele>496.0</ele>
        <time>2018-10-03T07:24:29.000Z</time>
      </trkpt>
      <trkpt lat="42.40477167" lon="-7.87838333">
        <ele>496.0</ele>
        <time>2018-10-03T07:24:30.000Z</time>
      </trkpt>
      <trkpt lat="42.40479" lon="-7.87838833">
        <ele>496.0</ele>
        <time>2018-10-03T07:24:31.000Z</time>
      </trkpt>
      <trkpt lat="42.40480833" lon="-7.87839167">
        <ele>496.0</ele>
        <time>2018-10-03T07:24:32.000Z</time>
      </trkpt>
      <trkpt lat="42.40482833" lon="-7.878395">
        <ele>496.0</ele>
        <time>2018-10-03T07:24:33.000Z</time>
      </trkpt>
      <trkpt lat="42.404845" lon="-7.87839667">
        <ele>496.0</ele>
        <time>2018-10-03T07:24:34.000Z</time>
      </trkpt>
      <trkpt lat="42.40486" lon="-7.8784">
        <ele>496.0</ele>
        <time>2018-10-03T07:24:35.000Z</time>
      </trkpt>
      <trkpt lat="42.40487667" lon="-7.878405">
        <ele>496.0</ele>
        <time>2018-10-03T07:24:36.000Z</time>
      </trkpt>
      <trkpt lat="42.40489167" lon="-7.87841">
        <ele>496.0</ele>
        <time>2018-10-03T07:24:37.000Z</time>
      </trkpt>
      <trkpt lat="42.40490667" lon="-7.87841333">
        <ele>496.0</ele>
        <time>2018-10-03T07:24:38.000Z</time>
      </trkpt>
      <trkpt lat="42.40492167" lon="-7.87841833">
        <ele>496.0</ele>
        <time>2018-10-03T07:24:39.000Z</time>
      </trkpt>
      <trkpt lat="42.40493833" lon="-7.87842333">
        <ele>496.0</ele>
        <time>2018-10-03T07:24:40.000Z</time>
      </trkpt>
      <trkpt lat="42.40495333" lon="-7.87842833">
        <ele>496.0</ele>
        <time>2018-10-03T07:24:41.000Z</time>
      </trkpt>
      <trkpt lat="42.40496667" lon="-7.878435">
        <ele>496.0</ele>
        <time>2018-10-03T07:24:42.000Z</time>
      </trkpt>
      <trkpt lat="42.40498167" lon="-7.878445">
        <ele>496.0</ele>
        <time>2018-10-03T07:24:43.000Z</time>
      </trkpt>
      <trkpt lat="42.40499833" lon="-7.87845167">
        <ele>496.0</ele>
        <time>2018-10-03T07:24:44.000Z</time>
      </trkpt>
      <trkpt lat="42.40501333" lon="-7.87846">
        <ele>496.0</ele>
        <time>2018-10-03T07:24:45.000Z</time>
      </trkpt>
      <trkpt lat="42.40503" lon="-7.87847">
        <ele>496.0</ele>
        <time>2018-10-03T07:24:46.000Z</time>
      </trkpt>
      <trkpt lat="42.405045" lon="-7.87847833">
        <ele>496.0</ele>
        <time>2018-10-03T07:24:47.000Z</time>
      </trkpt>
      <trkpt lat="42.40505833" lon="-7.87848833">
        <ele>496.0</ele>
        <time>2018-10-03T07:24:48.000Z</time>
      </trkpt>
      <trkpt lat="42.40507167" lon="-7.8785">
        <ele>496.0</ele>
        <time>2018-10-03T07:24:49.000Z</time>
      </trkpt>
      <trkpt lat="42.405085" lon="-7.87851">
        <ele>496.0</ele>
        <time>2018-10-03T07:24:50.000Z</time>
      </trkpt>
      <trkpt lat="42.40510167" lon="-7.87851833">
        <ele>496.0</ele>
        <time>2018-10-03T07:24:51.000Z</time>
      </trkpt>
      <trkpt lat="42.40511667" lon="-7.87852667">
        <ele>496.0</ele>
        <time>2018-10-03T07:24:52.000Z</time>
      </trkpt>
      <trkpt lat="42.40513333" lon="-7.87853667">
        <ele>496.0</ele>
        <time>2018-10-03T07:24:53.000Z</time>
      </trkpt>
      <trkpt lat="42.40515" lon="-7.87854833">
        <ele>496.0</ele>
        <time>2018-10-03T07:24:54.000Z</time>
      </trkpt>
      <trkpt lat="42.405165" lon="-7.87855833">
        <ele>496.0</ele>
        <time>2018-10-03T07:24:55.000Z</time>
      </trkpt>
      <trkpt lat="42.40518167" lon="-7.87856667">
        <ele>496.0</ele>
        <time>2018-10-03T07:24:56.000Z</time>
      </trkpt>
      <trkpt lat="42.40519667" lon="-7.87857333">
        <ele>496.0</ele>
        <time>2018-10-03T07:24:57.000Z</time>
      </trkpt>
      <trkpt lat="42.40521333" lon="-7.87857833">
        <ele>496.0</ele>
        <time>2018-10-03T07:24:58.000Z</time>
      </trkpt>
      <trkpt lat="42.40523" lon="-7.878585">
        <ele>496.0</ele>
        <time>2018-10-03T07:24:59.000Z</time>
      </trkpt>
      <trkpt lat="42.40524667" lon="-7.87859333">
        <ele>495.0</ele>
        <time>2018-10-03T07:25:00.000Z</time>
      </trkpt>
      <trkpt lat="42.40526333" lon="-7.87860167">
        <ele>495.0</ele>
        <time>2018-10-03T07:25:01.000Z</time>
      </trkpt>
      <trkpt lat="42.40528167" lon="-7.87861167">
        <ele>495.0</ele>
        <time>2018-10-03T07:25:02.000Z</time>
      </trkpt>
      <trkpt lat="42.4053" lon="-7.87862333">
        <ele>495.0</ele>
        <time>2018-10-03T07:25:03.000Z</time>
      </trkpt>
      <trkpt lat="42.40531667" lon="-7.878635">
        <ele>495.0</ele>
        <time>2018-10-03T07:25:04.000Z</time>
      </trkpt>
      <trkpt lat="42.40533333" lon="-7.87864333">
        <ele>495.0</ele>
        <time>2018-10-03T07:25:05.000Z</time>
      </trkpt>
      <trkpt lat="42.40535" lon="-7.87865">
        <ele>495.0</ele>
        <time>2018-10-03T07:25:06.000Z</time>
      </trkpt>
      <trkpt lat="42.40536667" lon="-7.87865667">
        <ele>495.0</ele>
        <time>2018-10-03T07:25:07.000Z</time>
      </trkpt>
      <trkpt lat="42.40538333" lon="-7.87866333">
        <ele>495.0</ele>
        <time>2018-10-03T07:25:08.000Z</time>
      </trkpt>
      <trkpt lat="42.4054" lon="-7.87867167">
        <ele>495.0</ele>
        <time>2018-10-03T07:25:09.000Z</time>
      </trkpt>
      <trkpt lat="42.405415" lon="-7.87868167">
        <ele>495.0</ele>
        <time>2018-10-03T07:25:10.000Z</time>
      </trkpt>
      <trkpt lat="42.40543167" lon="-7.87869667">
        <ele>495.0</ele>
        <time>2018-10-03T07:25:11.000Z</time>
      </trkpt>
      <trkpt lat="42.40544667" lon="-7.87871">
        <ele>495.0</ele>
        <time>2018-10-03T07:25:12.000Z</time>
      </trkpt>
      <trkpt lat="42.40546333" lon="-7.87872">
        <ele>495.0</ele>
        <time>2018-10-03T07:25:13.000Z</time>
      </trkpt>
      <trkpt lat="42.40548" lon="-7.87872667">
        <ele>494.0</ele>
        <time>2018-10-03T07:25:14.000Z</time>
      </trkpt>
      <trkpt lat="42.40549667" lon="-7.87873167">
        <ele>494.0</ele>
        <time>2018-10-03T07:25:15.000Z</time>
      </trkpt>
      <trkpt lat="42.40551333" lon="-7.87874167">
        <ele>494.0</ele>
        <time>2018-10-03T07:25:16.000Z</time>
      </trkpt>
      <trkpt lat="42.40552833" lon="-7.87875">
        <ele>494.0</ele>
        <time>2018-10-03T07:25:17.000Z</time>
      </trkpt>
      <trkpt lat="42.40554167" lon="-7.87876">
        <ele>494.0</ele>
        <time>2018-10-03T07:25:18.000Z</time>
      </trkpt>
      <trkpt lat="42.40555833" lon="-7.87877">
        <ele>494.0</ele>
        <time>2018-10-03T07:25:19.000Z</time>
      </trkpt>
      <trkpt lat="42.40557333" lon="-7.87877833">
        <ele>494.0</ele>
        <time>2018-10-03T07:25:20.000Z</time>
      </trkpt>
      <trkpt lat="42.40558833" lon="-7.87878333">
        <ele>494.0</ele>
        <time>2018-10-03T07:25:21.000Z</time>
      </trkpt>
      <trkpt lat="42.40560333" lon="-7.87879167">
        <ele>494.0</ele>
        <time>2018-10-03T07:25:22.000Z</time>
      </trkpt>
      <trkpt lat="42.40562" lon="-7.8788">
        <ele>494.0</ele>
        <time>2018-10-03T07:25:23.000Z</time>
      </trkpt>
      <trkpt lat="42.405635" lon="-7.87880833">
        <ele>494.0</ele>
        <time>2018-10-03T07:25:24.000Z</time>
      </trkpt>
      <trkpt lat="42.40565167" lon="-7.878815">
        <ele>494.0</ele>
        <time>2018-10-03T07:25:25.000Z</time>
      </trkpt>
      <trkpt lat="42.405665" lon="-7.87882333">
        <ele>495.0</ele>
        <time>2018-10-03T07:25:26.000Z</time>
      </trkpt>
      <trkpt lat="42.40568" lon="-7.87883333">
        <ele>495.0</ele>
        <time>2018-10-03T07:25:27.000Z</time>
      </trkpt>
      <trkpt lat="42.40569333" lon="-7.87884833">
        <ele>495.0</ele>
        <time>2018-10-03T07:25:28.000Z</time>
      </trkpt>
      <trkpt lat="42.40570667" lon="-7.87886">
        <ele>495.0</ele>
        <time>2018-10-03T07:25:29.000Z</time>
      </trkpt>
      <trkpt lat="42.40571833" lon="-7.87887167">
        <ele>495.0</ele>
        <time>2018-10-03T07:25:30.000Z</time>
      </trkpt>
      <trkpt lat="42.40573167" lon="-7.87888167">
        <ele>495.0</ele>
        <time>2018-10-03T07:25:31.000Z</time>
      </trkpt>
      <trkpt lat="42.40573167" lon="-7.87888167">
        <ele>495.0</ele>
        <time>2018-10-03T07:25:32.000Z</time>
      </trkpt>
      <trkpt lat="42.405745" lon="-7.87889167">
        <ele>495.0</ele>
        <time>2018-10-03T07:25:33.000Z</time>
      </trkpt>
      <trkpt lat="42.40575833" lon="-7.87890167">
        <ele>495.0</ele>
        <time>2018-10-03T07:25:34.000Z</time>
      </trkpt>
      <trkpt lat="42.40578833" lon="-7.87892">
        <ele>495.0</ele>
        <time>2018-10-03T07:25:35.000Z</time>
      </trkpt>
      <trkpt lat="42.40580333" lon="-7.87893">
        <ele>495.0</ele>
        <time>2018-10-03T07:25:36.000Z</time>
      </trkpt>
      <trkpt lat="42.40580333" lon="-7.87893">
        <ele>495.0</ele>
        <time>2018-10-03T07:25:37.000Z</time>
      </trkpt>
      <trkpt lat="42.40582" lon="-7.87893833">
        <ele>495.0</ele>
        <time>2018-10-03T07:25:38.000Z</time>
      </trkpt>
      <trkpt lat="42.40585167" lon="-7.87895667">
        <ele>496.0</ele>
        <time>2018-10-03T07:25:39.000Z</time>
      </trkpt>
      <trkpt lat="42.405865" lon="-7.87896833">
        <ele>496.0</ele>
        <time>2018-10-03T07:25:40.000Z</time>
      </trkpt>
      <trkpt lat="42.40587667" lon="-7.87898">
        <ele>496.0</ele>
        <time>2018-10-03T07:25:41.000Z</time>
      </trkpt>
      <trkpt lat="42.40589" lon="-7.87898833">
        <ele>496.0</ele>
        <time>2018-10-03T07:25:42.000Z</time>
      </trkpt>
      <trkpt lat="42.40589" lon="-7.87898833">
        <ele>496.0</ele>
        <time>2018-10-03T07:25:43.000Z</time>
      </trkpt>
      <trkpt lat="42.40590167" lon="-7.87899833">
        <ele>496.0</ele>
        <time>2018-10-03T07:25:44.000Z</time>
      </trkpt>
      <trkpt lat="42.40591667" lon="-7.87900833">
        <ele>496.0</ele>
        <time>2018-10-03T07:25:45.000Z</time>
      </trkpt>
      <trkpt lat="42.40593167" lon="-7.87902">
        <ele>496.0</ele>
        <time>2018-10-03T07:25:46.000Z</time>
      </trkpt>
      <trkpt lat="42.40595833" lon="-7.87903667">
        <ele>496.0</ele>
        <time>2018-10-03T07:25:47.000Z</time>
      </trkpt>
      <trkpt lat="42.40597167" lon="-7.87904333">
        <ele>496.0</ele>
        <time>2018-10-03T07:25:48.000Z</time>
      </trkpt>
      <trkpt lat="42.40597167" lon="-7.87904333">
        <ele>496.0</ele>
        <time>2018-10-03T07:25:49.000Z</time>
      </trkpt>
      <trkpt lat="42.40598333" lon="-7.87905">
        <ele>496.0</ele>
        <time>2018-10-03T07:25:50.000Z</time>
      </trkpt>
      <trkpt lat="42.40600333" lon="-7.87906333">
        <ele>495.0</ele>
        <time>2018-10-03T07:25:51.000Z</time>
      </trkpt>
      <trkpt lat="42.40601333" lon="-7.87907333">
        <ele>495.0</ele>
        <time>2018-10-03T07:25:52.000Z</time>
      </trkpt>
      <trkpt lat="42.406025" lon="-7.87908333">
        <ele>495.0</ele>
        <time>2018-10-03T07:25:53.000Z</time>
      </trkpt>
      <trkpt lat="42.406025" lon="-7.87908333">
        <ele>495.0</ele>
        <time>2018-10-03T07:25:54.000Z</time>
      </trkpt>
      <trkpt lat="42.40603667" lon="-7.87909333">
        <ele>495.0</ele>
        <time>2018-10-03T07:25:55.000Z</time>
      </trkpt>
      <trkpt lat="42.40604833" lon="-7.879105">
        <ele>495.0</ele>
        <time>2018-10-03T07:25:56.000Z</time>
      </trkpt>
      <trkpt lat="42.40607167" lon="-7.87912">
        <ele>494.0</ele>
        <time>2018-10-03T07:25:57.000Z</time>
      </trkpt>
      <trkpt lat="42.40607167" lon="-7.87912">
        <ele>494.0</ele>
        <time>2018-10-03T07:25:58.000Z</time>
      </trkpt>
      <trkpt lat="42.40609667" lon="-7.87913333">
        <ele>494.0</ele>
        <time>2018-10-03T07:25:59.000Z</time>
      </trkpt>
      <trkpt lat="42.40610833" lon="-7.87914167">
        <ele>494.0</ele>
        <time>2018-10-03T07:26:00.000Z</time>
      </trkpt>
      <trkpt lat="42.40610833" lon="-7.87914167">
        <ele>494.0</ele>
        <time>2018-10-03T07:26:01.000Z</time>
      </trkpt>
      <trkpt lat="42.40612167" lon="-7.87915167">
        <ele>493.0</ele>
        <time>2018-10-03T07:26:02.000Z</time>
      </trkpt>
      <trkpt lat="42.40613167" lon="-7.87915833">
        <ele>493.0</ele>
        <time>2018-10-03T07:26:03.000Z</time>
      </trkpt>
      <trkpt lat="42.40615" lon="-7.87917667">
        <ele>493.0</ele>
        <time>2018-10-03T07:26:04.000Z</time>
      </trkpt>
      <trkpt lat="42.40615" lon="-7.87917667">
        <ele>493.0</ele>
        <time>2018-10-03T07:26:05.000Z</time>
      </trkpt>
      <trkpt lat="42.40616333" lon="-7.879185">
        <ele>493.0</ele>
        <time>2018-10-03T07:26:06.000Z</time>
      </trkpt>
      <trkpt lat="42.40617667" lon="-7.87919167">
        <ele>492.0</ele>
        <time>2018-10-03T07:26:07.000Z</time>
      </trkpt>
      <trkpt lat="42.40618833" lon="-7.8792">
        <ele>492.0</ele>
        <time>2018-10-03T07:26:08.000Z</time>
      </trkpt>
      <trkpt lat="42.40620167" lon="-7.87920833">
        <ele>492.0</ele>
        <time>2018-10-03T07:26:09.000Z</time>
      </trkpt>
      <trkpt lat="42.40621333" lon="-7.87921833">
        <ele>492.0</ele>
        <time>2018-10-03T07:26:10.000Z</time>
      </trkpt>
      <trkpt lat="42.406225" lon="-7.87923">
        <ele>491.0</ele>
        <time>2018-10-03T07:26:11.000Z</time>
      </trkpt>
      <trkpt lat="42.40623667" lon="-7.87924167">
        <ele>491.0</ele>
        <time>2018-10-03T07:26:12.000Z</time>
      </trkpt>
      <trkpt lat="42.40624833" lon="-7.87925167">
        <ele>491.0</ele>
        <time>2018-10-03T07:26:13.000Z</time>
      </trkpt>
      <trkpt lat="42.40626" lon="-7.879265">
        <ele>491.0</ele>
        <time>2018-10-03T07:26:14.000Z</time>
      </trkpt>
      <trkpt lat="42.40627" lon="-7.87927667">
        <ele>491.0</ele>
        <time>2018-10-03T07:26:15.000Z</time>
      </trkpt>
      <trkpt lat="42.40628167" lon="-7.87929167">
        <ele>491.0</ele>
        <time>2018-10-03T07:26:16.000Z</time>
      </trkpt>
      <trkpt lat="42.40629333" lon="-7.87930667">
        <ele>491.0</ele>
        <time>2018-10-03T07:26:17.000Z</time>
      </trkpt>
      <trkpt lat="42.406305" lon="-7.87932167">
        <ele>491.0</ele>
        <time>2018-10-03T07:26:18.000Z</time>
      </trkpt>
      <trkpt lat="42.40631833" lon="-7.87933833">
        <ele>491.0</ele>
        <time>2018-10-03T07:26:19.000Z</time>
      </trkpt>
      <trkpt lat="42.40633167" lon="-7.879355">
        <ele>491.0</ele>
        <time>2018-10-03T07:26:20.000Z</time>
      </trkpt>
      <trkpt lat="42.406345" lon="-7.87937">
        <ele>491.0</ele>
        <time>2018-10-03T07:26:21.000Z</time>
      </trkpt>
      <trkpt lat="42.40635667" lon="-7.87938667">
        <ele>491.0</ele>
        <time>2018-10-03T07:26:22.000Z</time>
      </trkpt>
      <trkpt lat="42.40636833" lon="-7.8794">
        <ele>491.0</ele>
        <time>2018-10-03T07:26:23.000Z</time>
      </trkpt>
      <trkpt lat="42.40638" lon="-7.87941333">
        <ele>491.0</ele>
        <time>2018-10-03T07:26:24.000Z</time>
      </trkpt>
      <trkpt lat="42.40639167" lon="-7.879425">
        <ele>491.0</ele>
        <time>2018-10-03T07:26:25.000Z</time>
      </trkpt>
      <trkpt lat="42.40640333" lon="-7.87943667">
        <ele>491.0</ele>
        <time>2018-10-03T07:26:26.000Z</time>
      </trkpt>
      <trkpt lat="42.40641667" lon="-7.87945">
        <ele>491.0</ele>
        <time>2018-10-03T07:26:27.000Z</time>
      </trkpt>
      <trkpt lat="42.40642667" lon="-7.879465">
        <ele>491.0</ele>
        <time>2018-10-03T07:26:28.000Z</time>
      </trkpt>
      <trkpt lat="42.40643667" lon="-7.87947833">
        <ele>492.0</ele>
        <time>2018-10-03T07:26:29.000Z</time>
      </trkpt>
      <trkpt lat="42.40644833" lon="-7.87949333">
        <ele>492.0</ele>
        <time>2018-10-03T07:26:30.000Z</time>
      </trkpt>
      <trkpt lat="42.40646333" lon="-7.87951">
        <ele>492.0</ele>
        <time>2018-10-03T07:26:31.000Z</time>
      </trkpt>
      <trkpt lat="42.406475" lon="-7.879525">
        <ele>492.0</ele>
        <time>2018-10-03T07:26:32.000Z</time>
      </trkpt>
      <trkpt lat="42.40648833" lon="-7.87954">
        <ele>492.0</ele>
        <time>2018-10-03T07:26:33.000Z</time>
      </trkpt>
      <trkpt lat="42.40650333" lon="-7.87955333">
        <ele>493.0</ele>
        <time>2018-10-03T07:26:34.000Z</time>
      </trkpt>
      <trkpt lat="42.40651833" lon="-7.87956333">
        <ele>493.0</ele>
        <time>2018-10-03T07:26:35.000Z</time>
      </trkpt>
      <trkpt lat="42.40653333" lon="-7.879575">
        <ele>493.0</ele>
        <time>2018-10-03T07:26:36.000Z</time>
      </trkpt>
      <trkpt lat="42.40654833" lon="-7.879585">
        <ele>493.0</ele>
        <time>2018-10-03T07:26:37.000Z</time>
      </trkpt>
      <trkpt lat="42.40656333" lon="-7.879595">
        <ele>493.0</ele>
        <time>2018-10-03T07:26:38.000Z</time>
      </trkpt>
      <trkpt lat="42.40658" lon="-7.879605">
        <ele>493.0</ele>
        <time>2018-10-03T07:26:39.000Z</time>
      </trkpt>
      <trkpt lat="42.406595" lon="-7.87961667">
        <ele>493.0</ele>
        <time>2018-10-03T07:26:40.000Z</time>
      </trkpt>
      <trkpt lat="42.40661" lon="-7.87962833">
        <ele>493.0</ele>
        <time>2018-10-03T07:26:41.000Z</time>
      </trkpt>
      <trkpt lat="42.406625" lon="-7.87964">
        <ele>493.0</ele>
        <time>2018-10-03T07:26:42.000Z</time>
      </trkpt>
      <trkpt lat="42.40664" lon="-7.87965167">
        <ele>493.0</ele>
        <time>2018-10-03T07:26:43.000Z</time>
      </trkpt>
      <trkpt lat="42.40665333" lon="-7.87966167">
        <ele>493.0</ele>
        <time>2018-10-03T07:26:44.000Z</time>
      </trkpt>
      <trkpt lat="42.40668333" lon="-7.87968167">
        <ele>494.0</ele>
        <time>2018-10-03T07:26:45.000Z</time>
      </trkpt>
      <trkpt lat="42.40668333" lon="-7.87968167">
        <ele>494.0</ele>
        <time>2018-10-03T07:26:46.000Z</time>
      </trkpt>
      <trkpt lat="42.406695" lon="-7.87969">
        <ele>494.0</ele>
        <time>2018-10-03T07:26:47.000Z</time>
      </trkpt>
      <trkpt lat="42.40670833" lon="-7.87969667">
        <ele>494.0</ele>
        <time>2018-10-03T07:26:48.000Z</time>
      </trkpt>
      <trkpt lat="42.406725" lon="-7.879705">
        <ele>493.0</ele>
        <time>2018-10-03T07:26:49.000Z</time>
      </trkpt>
      <trkpt lat="42.40674" lon="-7.879715">
        <ele>493.0</ele>
        <time>2018-10-03T07:26:50.000Z</time>
      </trkpt>
      <trkpt lat="42.40675333" lon="-7.87972167">
        <ele>493.0</ele>
        <time>2018-10-03T07:26:51.000Z</time>
      </trkpt>
      <trkpt lat="42.40676667" lon="-7.87972667">
        <ele>493.0</ele>
        <time>2018-10-03T07:26:52.000Z</time>
      </trkpt>
      <trkpt lat="42.40678" lon="-7.87973333">
        <ele>493.0</ele>
        <time>2018-10-03T07:26:53.000Z</time>
      </trkpt>
      <trkpt lat="42.40679333" lon="-7.87973833">
        <ele>493.0</ele>
        <time>2018-10-03T07:26:54.000Z</time>
      </trkpt>
      <trkpt lat="42.40681" lon="-7.87974333">
        <ele>493.0</ele>
        <time>2018-10-03T07:26:55.000Z</time>
      </trkpt>
      <trkpt lat="42.406825" lon="-7.87974833">
        <ele>493.0</ele>
        <time>2018-10-03T07:26:56.000Z</time>
      </trkpt>
      <trkpt lat="42.40684167" lon="-7.87975167">
        <ele>493.0</ele>
        <time>2018-10-03T07:26:57.000Z</time>
      </trkpt>
      <trkpt lat="42.40685833" lon="-7.87975667">
        <ele>493.0</ele>
        <time>2018-10-03T07:26:58.000Z</time>
      </trkpt>
      <trkpt lat="42.40687667" lon="-7.87976167">
        <ele>493.0</ele>
        <time>2018-10-03T07:26:59.000Z</time>
      </trkpt>
      <trkpt lat="42.40691" lon="-7.87977167">
        <ele>493.0</ele>
        <time>2018-10-03T07:27:00.000Z</time>
      </trkpt>
      <trkpt lat="42.40691" lon="-7.87977167">
        <ele>493.0</ele>
        <time>2018-10-03T07:27:01.000Z</time>
      </trkpt>
      <trkpt lat="42.40692667" lon="-7.87977667">
        <ele>493.0</ele>
        <time>2018-10-03T07:27:02.000Z</time>
      </trkpt>
      <trkpt lat="42.40694" lon="-7.87978167">
        <ele>493.0</ele>
        <time>2018-10-03T07:27:03.000Z</time>
      </trkpt>
      <trkpt lat="42.40697" lon="-7.879795">
        <ele>493.0</ele>
        <time>2018-10-03T07:27:04.000Z</time>
      </trkpt>
      <trkpt lat="42.40697" lon="-7.879795">
        <ele>493.0</ele>
        <time>2018-10-03T07:27:05.000Z</time>
      </trkpt>
      <trkpt lat="42.406985" lon="-7.87980167">
        <ele>493.0</ele>
        <time>2018-10-03T07:27:06.000Z</time>
      </trkpt>
      <trkpt lat="42.40701667" lon="-7.87981167">
        <ele>493.0</ele>
        <time>2018-10-03T07:27:07.000Z</time>
      </trkpt>
      <trkpt lat="42.407035" lon="-7.87981667">
        <ele>493.0</ele>
        <time>2018-10-03T07:27:08.000Z</time>
      </trkpt>
      <trkpt lat="42.40705333" lon="-7.87982333">
        <ele>493.0</ele>
        <time>2018-10-03T07:27:09.000Z</time>
      </trkpt>
      <trkpt lat="42.40707167" lon="-7.87982667">
        <ele>493.0</ele>
        <time>2018-10-03T07:27:10.000Z</time>
      </trkpt>
      <trkpt lat="42.40709" lon="-7.87983167">
        <ele>493.0</ele>
        <time>2018-10-03T07:27:11.000Z</time>
      </trkpt>
      <trkpt lat="42.40710833" lon="-7.87983667">
        <ele>493.0</ele>
        <time>2018-10-03T07:27:12.000Z</time>
      </trkpt>
      <trkpt lat="42.40710833" lon="-7.87983667">
        <ele>493.0</ele>
        <time>2018-10-03T07:27:13.000Z</time>
      </trkpt>
      <trkpt lat="42.40714667" lon="-7.879845">
        <ele>493.0</ele>
        <time>2018-10-03T07:27:14.000Z</time>
      </trkpt>
      <trkpt lat="42.40716333" lon="-7.87985167">
        <ele>492.0</ele>
        <time>2018-10-03T07:27:15.000Z</time>
      </trkpt>
      <trkpt lat="42.40718" lon="-7.87986167">
        <ele>492.0</ele>
        <time>2018-10-03T07:27:16.000Z</time>
      </trkpt>
      <trkpt lat="42.40719667" lon="-7.87987333">
        <ele>492.0</ele>
        <time>2018-10-03T07:27:17.000Z</time>
      </trkpt>
      <trkpt lat="42.40721167" lon="-7.879885">
        <ele>492.0</ele>
        <time>2018-10-03T07:27:18.000Z</time>
      </trkpt>
      <trkpt lat="42.40722833" lon="-7.87989667">
        <ele>492.0</ele>
        <time>2018-10-03T07:27:19.000Z</time>
      </trkpt>
      <trkpt lat="42.40724333" lon="-7.87991">
        <ele>492.0</ele>
        <time>2018-10-03T07:27:20.000Z</time>
      </trkpt>
      <trkpt lat="42.40725667" lon="-7.87992167">
        <ele>492.0</ele>
        <time>2018-10-03T07:27:21.000Z</time>
      </trkpt>
      <trkpt lat="42.40727167" lon="-7.87993167">
        <ele>492.0</ele>
        <time>2018-10-03T07:27:22.000Z</time>
      </trkpt>
      <trkpt lat="42.407285" lon="-7.87994">
        <ele>492.0</ele>
        <time>2018-10-03T07:27:23.000Z</time>
      </trkpt>
      <trkpt lat="42.4073" lon="-7.87995">
        <ele>492.0</ele>
        <time>2018-10-03T07:27:24.000Z</time>
      </trkpt>
      <trkpt lat="42.4073" lon="-7.87995">
        <ele>492.0</ele>
        <time>2018-10-03T07:27:25.000Z</time>
      </trkpt>
      <trkpt lat="42.40733333" lon="-7.87996833">
        <ele>491.0</ele>
        <time>2018-10-03T07:27:26.000Z</time>
      </trkpt>
      <trkpt lat="42.40735167" lon="-7.87997667">
        <ele>491.0</ele>
        <time>2018-10-03T07:27:27.000Z</time>
      </trkpt>
      <trkpt lat="42.40737" lon="-7.87998333">
        <ele>491.0</ele>
        <time>2018-10-03T07:27:28.000Z</time>
      </trkpt>
      <trkpt lat="42.40738667" lon="-7.87999167">
        <ele>491.0</ele>
        <time>2018-10-03T07:27:29.000Z</time>
      </trkpt>
      <trkpt lat="42.40740333" lon="-7.88">
        <ele>491.0</ele>
        <time>2018-10-03T07:27:30.000Z</time>
      </trkpt>
      <trkpt lat="42.40741833" lon="-7.88001">
        <ele>490.0</ele>
        <time>2018-10-03T07:27:31.000Z</time>
      </trkpt>
      <trkpt lat="42.40743333" lon="-7.88002">
        <ele>490.0</ele>
        <time>2018-10-03T07:27:32.000Z</time>
      </trkpt>
      <trkpt lat="42.40743333" lon="-7.88002">
        <ele>490.0</ele>
        <time>2018-10-03T07:27:33.000Z</time>
      </trkpt>
      <trkpt lat="42.40746667" lon="-7.880035">
        <ele>490.0</ele>
        <time>2018-10-03T07:27:34.000Z</time>
      </trkpt>
      <trkpt lat="42.40748667" lon="-7.88004167">
        <ele>490.0</ele>
        <time>2018-10-03T07:27:35.000Z</time>
      </trkpt>
      <trkpt lat="42.407505" lon="-7.88005">
        <ele>490.0</ele>
        <time>2018-10-03T07:27:36.000Z</time>
      </trkpt>
      <trkpt lat="42.407505" lon="-7.88005">
        <ele>490.0</ele>
        <time>2018-10-03T07:27:37.000Z</time>
      </trkpt>
      <trkpt lat="42.40754333" lon="-7.88006333">
        <ele>489.0</ele>
        <time>2018-10-03T07:27:38.000Z</time>
      </trkpt>
      <trkpt lat="42.40754333" lon="-7.88006333">
        <ele>489.0</ele>
        <time>2018-10-03T07:27:39.000Z</time>
      </trkpt>
      <trkpt lat="42.40756333" lon="-7.88007167">
        <ele>489.0</ele>
        <time>2018-10-03T07:27:40.000Z</time>
      </trkpt>
      <trkpt lat="42.407585" lon="-7.88007667">
        <ele>489.0</ele>
        <time>2018-10-03T07:27:41.000Z</time>
      </trkpt>
      <trkpt lat="42.40760167" lon="-7.88008167">
        <ele>489.0</ele>
        <time>2018-10-03T07:27:42.000Z</time>
      </trkpt>
      <trkpt lat="42.40761833" lon="-7.88009">
        <ele>489.0</ele>
        <time>2018-10-03T07:27:43.000Z</time>
      </trkpt>
      <trkpt lat="42.40763167" lon="-7.8801">
        <ele>489.0</ele>
        <time>2018-10-03T07:27:44.000Z</time>
      </trkpt>
      <trkpt lat="42.407645" lon="-7.88011333">
        <ele>489.0</ele>
        <time>2018-10-03T07:27:45.000Z</time>
      </trkpt>
      <trkpt lat="42.40766" lon="-7.88012667">
        <ele>489.0</ele>
        <time>2018-10-03T07:27:46.000Z</time>
      </trkpt>
      <trkpt lat="42.40769333" lon="-7.88014667">
        <ele>489.0</ele>
        <time>2018-10-03T07:27:47.000Z</time>
      </trkpt>
      <trkpt lat="42.40771" lon="-7.880155">
        <ele>490.0</ele>
        <time>2018-10-03T07:27:48.000Z</time>
      </trkpt>
      <trkpt lat="42.40771" lon="-7.880155">
        <ele>490.0</ele>
        <time>2018-10-03T07:27:49.000Z</time>
      </trkpt>
      <trkpt lat="42.40772833" lon="-7.88016333">
        <ele>490.0</ele>
        <time>2018-10-03T07:27:50.000Z</time>
      </trkpt>
      <trkpt lat="42.40776333" lon="-7.88018333">
        <ele>490.0</ele>
        <time>2018-10-03T07:27:51.000Z</time>
      </trkpt>
      <trkpt lat="42.40776333" lon="-7.88018333">
        <ele>490.0</ele>
        <time>2018-10-03T07:27:52.000Z</time>
      </trkpt>
      <trkpt lat="42.40778167" lon="-7.880195">
        <ele>490.0</ele>
        <time>2018-10-03T07:27:53.000Z</time>
      </trkpt>
      <trkpt lat="42.40779833" lon="-7.88020667">
        <ele>490.0</ele>
        <time>2018-10-03T07:27:54.000Z</time>
      </trkpt>
      <trkpt lat="42.407815" lon="-7.880215">
        <ele>490.0</ele>
        <time>2018-10-03T07:27:55.000Z</time>
      </trkpt>
      <trkpt lat="42.40782833" lon="-7.880225">
        <ele>490.0</ele>
        <time>2018-10-03T07:27:56.000Z</time>
      </trkpt>
      <trkpt lat="42.40784167" lon="-7.88023833">
        <ele>490.0</ele>
        <time>2018-10-03T07:27:57.000Z</time>
      </trkpt>
      <trkpt lat="42.407855" lon="-7.88025333">
        <ele>491.0</ele>
        <time>2018-10-03T07:27:58.000Z</time>
      </trkpt>
      <trkpt lat="42.40787" lon="-7.88026333">
        <ele>491.0</ele>
        <time>2018-10-03T07:27:59.000Z</time>
      </trkpt>
      <trkpt lat="42.40788333" lon="-7.880275">
        <ele>491.0</ele>
        <time>2018-10-03T07:28:00.000Z</time>
      </trkpt>
      <trkpt lat="42.407895" lon="-7.880285">
        <ele>491.0</ele>
        <time>2018-10-03T07:28:01.000Z</time>
      </trkpt>
      <trkpt lat="42.40791" lon="-7.88029667">
        <ele>491.0</ele>
        <time>2018-10-03T07:28:02.000Z</time>
      </trkpt>
      <trkpt lat="42.40792167" lon="-7.88031">
        <ele>491.0</ele>
        <time>2018-10-03T07:28:03.000Z</time>
      </trkpt>
      <trkpt lat="42.40794" lon="-7.880325">
        <ele>491.0</ele>
        <time>2018-10-03T07:28:04.000Z</time>
      </trkpt>
      <trkpt lat="42.40795667" lon="-7.88033667">
        <ele>492.0</ele>
        <time>2018-10-03T07:28:05.000Z</time>
      </trkpt>
      <trkpt lat="42.40797" lon="-7.88034833">
        <ele>492.0</ele>
        <time>2018-10-03T07:28:06.000Z</time>
      </trkpt>
      <trkpt lat="42.407985" lon="-7.88035833">
        <ele>491.0</ele>
        <time>2018-10-03T07:28:07.000Z</time>
      </trkpt>
      <trkpt lat="42.408" lon="-7.88037">
        <ele>491.0</ele>
        <time>2018-10-03T07:28:08.000Z</time>
      </trkpt>
      <trkpt lat="42.40801833" lon="-7.88037833">
        <ele>491.0</ele>
        <time>2018-10-03T07:28:09.000Z</time>
      </trkpt>
      <trkpt lat="42.40803833" lon="-7.88039">
        <ele>491.0</ele>
        <time>2018-10-03T07:28:10.000Z</time>
      </trkpt>
      <trkpt lat="42.40805667" lon="-7.88040167">
        <ele>491.0</ele>
        <time>2018-10-03T07:28:11.000Z</time>
      </trkpt>
      <trkpt lat="42.408075" lon="-7.88041333">
        <ele>491.0</ele>
        <time>2018-10-03T07:28:12.000Z</time>
      </trkpt>
      <trkpt lat="42.40809167" lon="-7.88042333">
        <ele>491.0</ele>
        <time>2018-10-03T07:28:13.000Z</time>
      </trkpt>
      <trkpt lat="42.40810833" lon="-7.880435">
        <ele>491.0</ele>
        <time>2018-10-03T07:28:14.000Z</time>
      </trkpt>
      <trkpt lat="42.40814333" lon="-7.88046167">
        <ele>490.0</ele>
        <time>2018-10-03T07:28:15.000Z</time>
      </trkpt>
      <trkpt lat="42.40814333" lon="-7.88046167">
        <ele>490.0</ele>
        <time>2018-10-03T07:28:16.000Z</time>
      </trkpt>
      <trkpt lat="42.40815833" lon="-7.88047167">
        <ele>490.0</ele>
        <time>2018-10-03T07:28:17.000Z</time>
      </trkpt>
      <trkpt lat="42.408175" lon="-7.88048333">
        <ele>490.0</ele>
        <time>2018-10-03T07:28:18.000Z</time>
      </trkpt>
      <trkpt lat="42.40819" lon="-7.88049333">
        <ele>490.0</ele>
        <time>2018-10-03T07:28:19.000Z</time>
      </trkpt>
      <trkpt lat="42.40820333" lon="-7.88050833">
        <ele>490.0</ele>
        <time>2018-10-03T07:28:20.000Z</time>
      </trkpt>
      <trkpt lat="42.40822" lon="-7.88052">
        <ele>489.0</ele>
        <time>2018-10-03T07:28:21.000Z</time>
      </trkpt>
      <trkpt lat="42.40823333" lon="-7.88053167">
        <ele>489.0</ele>
        <time>2018-10-03T07:28:22.000Z</time>
      </trkpt>
      <trkpt lat="42.408245" lon="-7.88054167">
        <ele>489.0</ele>
        <time>2018-10-03T07:28:23.000Z</time>
      </trkpt>
      <trkpt lat="42.40826" lon="-7.88055167">
        <ele>489.0</ele>
        <time>2018-10-03T07:28:24.000Z</time>
      </trkpt>
      <trkpt lat="42.40827667" lon="-7.88056333">
        <ele>489.0</ele>
        <time>2018-10-03T07:28:25.000Z</time>
      </trkpt>
      <trkpt lat="42.40829" lon="-7.88057333">
        <ele>488.0</ele>
        <time>2018-10-03T07:28:26.000Z</time>
      </trkpt>
      <trkpt lat="42.408325" lon="-7.88059333">
        <ele>488.0</ele>
        <time>2018-10-03T07:28:27.000Z</time>
      </trkpt>
      <trkpt lat="42.408325" lon="-7.88059333">
        <ele>488.0</ele>
        <time>2018-10-03T07:28:28.000Z</time>
      </trkpt>
      <trkpt lat="42.408345" lon="-7.88060333">
        <ele>488.0</ele>
        <time>2018-10-03T07:28:29.000Z</time>
      </trkpt>
      <trkpt lat="42.408365" lon="-7.88061333">
        <ele>488.0</ele>
        <time>2018-10-03T07:28:30.000Z</time>
      </trkpt>
      <trkpt lat="42.40838" lon="-7.88062167">
        <ele>488.0</ele>
        <time>2018-10-03T07:28:31.000Z</time>
      </trkpt>
      <trkpt lat="42.40840667" lon="-7.88064333">
        <ele>489.0</ele>
        <time>2018-10-03T07:28:32.000Z</time>
      </trkpt>
      <trkpt lat="42.40840667" lon="-7.88064333">
        <ele>489.0</ele>
        <time>2018-10-03T07:28:33.000Z</time>
      </trkpt>
      <trkpt lat="42.40842167" lon="-7.880655">
        <ele>489.0</ele>
        <time>2018-10-03T07:28:34.000Z</time>
      </trkpt>
      <trkpt lat="42.40845833" lon="-7.88067167">
        <ele>489.0</ele>
        <time>2018-10-03T07:28:35.000Z</time>
      </trkpt>
      <trkpt lat="42.40847833" lon="-7.88067833">
        <ele>489.0</ele>
        <time>2018-10-03T07:28:36.000Z</time>
      </trkpt>
      <trkpt lat="42.40849667" lon="-7.88068667">
        <ele>489.0</ele>
        <time>2018-10-03T07:28:37.000Z</time>
      </trkpt>
      <trkpt lat="42.40851333" lon="-7.88069833">
        <ele>489.0</ele>
        <time>2018-10-03T07:28:38.000Z</time>
      </trkpt>
      <trkpt lat="42.40853" lon="-7.88071">
        <ele>489.0</ele>
        <time>2018-10-03T07:28:39.000Z</time>
      </trkpt>
      <trkpt lat="42.408545" lon="-7.88072167">
        <ele>490.0</ele>
        <time>2018-10-03T07:28:40.000Z</time>
      </trkpt>
      <trkpt lat="42.40855833" lon="-7.88073333">
        <ele>490.0</ele>
        <time>2018-10-03T07:28:41.000Z</time>
      </trkpt>
      <trkpt lat="42.40857167" lon="-7.88074167">
        <ele>490.0</ele>
        <time>2018-10-03T07:28:42.000Z</time>
      </trkpt>
      <trkpt lat="42.40857167" lon="-7.88074167">
        <ele>490.0</ele>
        <time>2018-10-03T07:28:43.000Z</time>
      </trkpt>
      <trkpt lat="42.40859833" lon="-7.880765">
        <ele>490.0</ele>
        <time>2018-10-03T07:28:44.000Z</time>
      </trkpt>
      <trkpt lat="42.40861333" lon="-7.880775">
        <ele>490.0</ele>
        <time>2018-10-03T07:28:45.000Z</time>
      </trkpt>
      <trkpt lat="42.40862833" lon="-7.88078667">
        <ele>490.0</ele>
        <time>2018-10-03T07:28:46.000Z</time>
      </trkpt>
      <trkpt lat="42.408645" lon="-7.8808">
        <ele>490.0</ele>
        <time>2018-10-03T07:28:47.000Z</time>
      </trkpt>
      <trkpt lat="42.40866" lon="-7.88081167">
        <ele>490.0</ele>
        <time>2018-10-03T07:28:48.000Z</time>
      </trkpt>
      <trkpt lat="42.40866" lon="-7.88081167">
        <ele>490.0</ele>
        <time>2018-10-03T07:28:49.000Z</time>
      </trkpt>
      <trkpt lat="42.40867667" lon="-7.88082">
        <ele>490.0</ele>
        <time>2018-10-03T07:28:50.000Z</time>
      </trkpt>
      <trkpt lat="42.40870667" lon="-7.88084667">
        <ele>490.0</ele>
        <time>2018-10-03T07:28:51.000Z</time>
      </trkpt>
      <trkpt lat="42.40872167" lon="-7.88085833">
        <ele>490.0</ele>
        <time>2018-10-03T07:28:52.000Z</time>
      </trkpt>
      <trkpt lat="42.40873333" lon="-7.88087167">
        <ele>490.0</ele>
        <time>2018-10-03T07:28:53.000Z</time>
      </trkpt>
      <trkpt lat="42.408745" lon="-7.88088333">
        <ele>490.0</ele>
        <time>2018-10-03T07:28:54.000Z</time>
      </trkpt>
      <trkpt lat="42.408745" lon="-7.88088333">
        <ele>490.0</ele>
        <time>2018-10-03T07:28:55.000Z</time>
      </trkpt>
      <trkpt lat="42.40877" lon="-7.88090833">
        <ele>489.0</ele>
        <time>2018-10-03T07:28:56.000Z</time>
      </trkpt>
      <trkpt lat="42.40877" lon="-7.88090833">
        <ele>489.0</ele>
        <time>2018-10-03T07:28:57.000Z</time>
      </trkpt>
      <trkpt lat="42.408795" lon="-7.88093833">
        <ele>489.0</ele>
        <time>2018-10-03T07:28:58.000Z</time>
      </trkpt>
      <trkpt lat="42.40880667" lon="-7.88095333">
        <ele>489.0</ele>
        <time>2018-10-03T07:28:59.000Z</time>
      </trkpt>
      <trkpt lat="42.40882" lon="-7.88096833">
        <ele>489.0</ele>
        <time>2018-10-03T07:29:00.000Z</time>
      </trkpt>
      <trkpt lat="42.40882" lon="-7.88096833">
        <ele>489.0</ele>
        <time>2018-10-03T07:29:01.000Z</time>
      </trkpt>
      <trkpt lat="42.40883667" lon="-7.88098167">
        <ele>489.0</ele>
        <time>2018-10-03T07:29:02.000Z</time>
      </trkpt>
      <trkpt lat="42.40885" lon="-7.88099667">
        <ele>489.0</ele>
        <time>2018-10-03T07:29:03.000Z</time>
      </trkpt>
      <trkpt lat="42.40888167" lon="-7.88102167">
        <ele>489.0</ele>
        <time>2018-10-03T07:29:04.000Z</time>
      </trkpt>
      <trkpt lat="42.40889333" lon="-7.88103167">
        <ele>490.0</ele>
        <time>2018-10-03T07:29:05.000Z</time>
      </trkpt>
      <trkpt lat="42.40889333" lon="-7.88103167">
        <ele>490.0</ele>
        <time>2018-10-03T07:29:06.000Z</time>
      </trkpt>
      <trkpt lat="42.40890333" lon="-7.88104">
        <ele>490.0</ele>
        <time>2018-10-03T07:29:07.000Z</time>
      </trkpt>
      <trkpt lat="42.40892167" lon="-7.88105667">
        <ele>490.0</ele>
        <time>2018-10-03T07:29:08.000Z</time>
      </trkpt>
      <trkpt lat="42.40892167" lon="-7.88105667">
        <ele>490.0</ele>
        <time>2018-10-03T07:29:09.000Z</time>
      </trkpt>
      <trkpt lat="42.408935" lon="-7.88107">
        <ele>490.0</ele>
        <time>2018-10-03T07:29:10.000Z</time>
      </trkpt>
      <trkpt lat="42.408965" lon="-7.8811">
        <ele>490.0</ele>
        <time>2018-10-03T07:29:11.000Z</time>
      </trkpt>
      <trkpt lat="42.408965" lon="-7.8811">
        <ele>490.0</ele>
        <time>2018-10-03T07:29:12.000Z</time>
      </trkpt>
      <trkpt lat="42.40897833" lon="-7.881115">
        <ele>489.0</ele>
        <time>2018-10-03T07:29:13.000Z</time>
      </trkpt>
      <trkpt lat="42.40899167" lon="-7.88112667">
        <ele>489.0</ele>
        <time>2018-10-03T07:29:14.000Z</time>
      </trkpt>
      <trkpt lat="42.409005" lon="-7.88113833">
        <ele>489.0</ele>
        <time>2018-10-03T07:29:15.000Z</time>
      </trkpt>
      <trkpt lat="42.40902167" lon="-7.88115167">
        <ele>489.0</ele>
        <time>2018-10-03T07:29:16.000Z</time>
      </trkpt>
      <trkpt lat="42.40903667" lon="-7.88116333">
        <ele>489.0</ele>
        <time>2018-10-03T07:29:17.000Z</time>
      </trkpt>
      <trkpt lat="42.40905333" lon="-7.88117667">
        <ele>489.0</ele>
        <time>2018-10-03T07:29:18.000Z</time>
      </trkpt>
      <trkpt lat="42.40907" lon="-7.88119">
        <ele>489.0</ele>
        <time>2018-10-03T07:29:19.000Z</time>
      </trkpt>
      <trkpt lat="42.4091" lon="-7.88120833">
        <ele>489.0</ele>
        <time>2018-10-03T07:29:20.000Z</time>
      </trkpt>
      <trkpt lat="42.40911333" lon="-7.88121833">
        <ele>488.0</ele>
        <time>2018-10-03T07:29:21.000Z</time>
      </trkpt>
      <trkpt lat="42.40912667" lon="-7.88123167">
        <ele>488.0</ele>
        <time>2018-10-03T07:29:22.000Z</time>
      </trkpt>
      <trkpt lat="42.40914167" lon="-7.88124667">
        <ele>488.0</ele>
        <time>2018-10-03T07:29:23.000Z</time>
      </trkpt>
      <trkpt lat="42.409155" lon="-7.88126">
        <ele>488.0</ele>
        <time>2018-10-03T07:29:24.000Z</time>
      </trkpt>
      <trkpt lat="42.409155" lon="-7.88126">
        <ele>488.0</ele>
        <time>2018-10-03T07:29:25.000Z</time>
      </trkpt>
      <trkpt lat="42.40918" lon="-7.88128833">
        <ele>488.0</ele>
        <time>2018-10-03T07:29:26.000Z</time>
      </trkpt>
      <trkpt lat="42.40919333" lon="-7.88130333">
        <ele>488.0</ele>
        <time>2018-10-03T07:29:27.000Z</time>
      </trkpt>
      <trkpt lat="42.40920833" lon="-7.88131833">
        <ele>488.0</ele>
        <time>2018-10-03T07:29:28.000Z</time>
      </trkpt>
      <trkpt lat="42.40922" lon="-7.88133167">
        <ele>488.0</ele>
        <time>2018-10-03T07:29:29.000Z</time>
      </trkpt>
      <trkpt lat="42.40923333" lon="-7.88134333">
        <ele>488.0</ele>
        <time>2018-10-03T07:29:30.000Z</time>
      </trkpt>
      <trkpt lat="42.409245" lon="-7.88135833">
        <ele>488.0</ele>
        <time>2018-10-03T07:29:31.000Z</time>
      </trkpt>
      <trkpt lat="42.40925833" lon="-7.881375">
        <ele>488.0</ele>
        <time>2018-10-03T07:29:32.000Z</time>
      </trkpt>
      <trkpt lat="42.40927167" lon="-7.88138667">
        <ele>488.0</ele>
        <time>2018-10-03T07:29:33.000Z</time>
      </trkpt>
      <trkpt lat="42.409285" lon="-7.8814">
        <ele>488.0</ele>
        <time>2018-10-03T07:29:34.000Z</time>
      </trkpt>
      <trkpt lat="42.4093" lon="-7.88141167">
        <ele>488.0</ele>
        <time>2018-10-03T07:29:35.000Z</time>
      </trkpt>
      <trkpt lat="42.409315" lon="-7.88141833">
        <ele>488.0</ele>
        <time>2018-10-03T07:29:36.000Z</time>
      </trkpt>
      <trkpt lat="42.409315" lon="-7.88141833">
        <ele>488.0</ele>
        <time>2018-10-03T07:29:37.000Z</time>
      </trkpt>
      <trkpt lat="42.40933167" lon="-7.88142667">
        <ele>488.0</ele>
        <time>2018-10-03T07:29:38.000Z</time>
      </trkpt>
      <trkpt lat="42.409365" lon="-7.88144833">
        <ele>488.0</ele>
        <time>2018-10-03T07:29:39.000Z</time>
      </trkpt>
      <trkpt lat="42.40937667" lon="-7.88146">
        <ele>488.0</ele>
        <time>2018-10-03T07:29:40.000Z</time>
      </trkpt>
      <trkpt lat="42.40937667" lon="-7.88146">
        <ele>488.0</ele>
        <time>2018-10-03T07:29:41.000Z</time>
      </trkpt>
      <trkpt lat="42.40939" lon="-7.88147333">
        <ele>488.0</ele>
        <time>2018-10-03T07:29:42.000Z</time>
      </trkpt>
      <trkpt lat="42.409405" lon="-7.881485">
        <ele>488.0</ele>
        <time>2018-10-03T07:29:43.000Z</time>
      </trkpt>
      <trkpt lat="42.409435" lon="-7.88150333">
        <ele>488.0</ele>
        <time>2018-10-03T07:29:44.000Z</time>
      </trkpt>
      <trkpt lat="42.409435" lon="-7.88150333">
        <ele>488.0</ele>
        <time>2018-10-03T07:29:45.000Z</time>
      </trkpt>
      <trkpt lat="42.40944833" lon="-7.88151167">
        <ele>488.0</ele>
        <time>2018-10-03T07:29:46.000Z</time>
      </trkpt>
      <trkpt lat="42.40946" lon="-7.88151833">
        <ele>488.0</ele>
        <time>2018-10-03T07:29:47.000Z</time>
      </trkpt>
      <trkpt lat="42.40948" lon="-7.88153">
        <ele>488.0</ele>
        <time>2018-10-03T07:29:48.000Z</time>
      </trkpt>
      <trkpt lat="42.40948" lon="-7.88153">
        <ele>488.0</ele>
        <time>2018-10-03T07:29:49.000Z</time>
      </trkpt>
      <trkpt lat="42.40950667" lon="-7.88154667">
        <ele>488.0</ele>
        <time>2018-10-03T07:29:50.000Z</time>
      </trkpt>
      <trkpt lat="42.40952" lon="-7.881555">
        <ele>488.0</ele>
        <time>2018-10-03T07:29:51.000Z</time>
      </trkpt>
      <trkpt lat="42.409535" lon="-7.881565">
        <ele>488.0</ele>
        <time>2018-10-03T07:29:52.000Z</time>
      </trkpt>
      <trkpt lat="42.409535" lon="-7.881565">
        <ele>488.0</ele>
        <time>2018-10-03T07:29:53.000Z</time>
      </trkpt>
      <trkpt lat="42.40955" lon="-7.88157667">
        <ele>488.0</ele>
        <time>2018-10-03T07:29:54.000Z</time>
      </trkpt>
      <trkpt lat="42.40956333" lon="-7.88159">
        <ele>488.0</ele>
        <time>2018-10-03T07:29:55.000Z</time>
      </trkpt>
      <trkpt lat="42.40959833" lon="-7.88160667">
        <ele>488.0</ele>
        <time>2018-10-03T07:29:56.000Z</time>
      </trkpt>
      <trkpt lat="42.40961667" lon="-7.881615">
        <ele>488.0</ele>
        <time>2018-10-03T07:29:57.000Z</time>
      </trkpt>
      <trkpt lat="42.40963333" lon="-7.88162333">
        <ele>488.0</ele>
        <time>2018-10-03T07:29:58.000Z</time>
      </trkpt>
      <trkpt lat="42.40964833" lon="-7.881635">
        <ele>488.0</ele>
        <time>2018-10-03T07:29:59.000Z</time>
      </trkpt>
      <trkpt lat="42.40966333" lon="-7.88164667">
        <ele>488.0</ele>
        <time>2018-10-03T07:30:00.000Z</time>
      </trkpt>
      <trkpt lat="42.40966333" lon="-7.88164667">
        <ele>488.0</ele>
        <time>2018-10-03T07:30:01.000Z</time>
      </trkpt>
      <trkpt lat="42.40968" lon="-7.88165667">
        <ele>488.0</ele>
        <time>2018-10-03T07:30:02.000Z</time>
      </trkpt>
      <trkpt lat="42.40971333" lon="-7.88167167">
        <ele>488.0</ele>
        <time>2018-10-03T07:30:03.000Z</time>
      </trkpt>
      <trkpt lat="42.40971333" lon="-7.88167167">
        <ele>488.0</ele>
        <time>2018-10-03T07:30:04.000Z</time>
      </trkpt>
      <trkpt lat="42.40973" lon="-7.88168167">
        <ele>488.0</ele>
        <time>2018-10-03T07:30:05.000Z</time>
      </trkpt>
      <trkpt lat="42.409745" lon="-7.88169">
        <ele>488.0</ele>
        <time>2018-10-03T07:30:06.000Z</time>
      </trkpt>
      <trkpt lat="42.40976167" lon="-7.88169833">
        <ele>488.0</ele>
        <time>2018-10-03T07:30:07.000Z</time>
      </trkpt>
      <trkpt lat="42.40977667" lon="-7.88170833">
        <ele>488.0</ele>
        <time>2018-10-03T07:30:08.000Z</time>
      </trkpt>
      <trkpt lat="42.40979333" lon="-7.88171833">
        <ele>489.0</ele>
        <time>2018-10-03T07:30:09.000Z</time>
      </trkpt>
      <trkpt lat="42.40980833" lon="-7.881725">
        <ele>489.0</ele>
        <time>2018-10-03T07:30:10.000Z</time>
      </trkpt>
      <trkpt lat="42.40982667" lon="-7.88173333">
        <ele>489.0</ele>
        <time>2018-10-03T07:30:11.000Z</time>
      </trkpt>
      <trkpt lat="42.40986167" lon="-7.88174833">
        <ele>489.0</ele>
        <time>2018-10-03T07:30:12.000Z</time>
      </trkpt>
      <trkpt lat="42.40986167" lon="-7.88174833">
        <ele>489.0</ele>
        <time>2018-10-03T07:30:13.000Z</time>
      </trkpt>
      <trkpt lat="42.40987667" lon="-7.881755">
        <ele>489.0</ele>
        <time>2018-10-03T07:30:14.000Z</time>
      </trkpt>
      <trkpt lat="42.40990667" lon="-7.88177167">
        <ele>489.0</ele>
        <time>2018-10-03T07:30:15.000Z</time>
      </trkpt>
      <trkpt lat="42.40992333" lon="-7.88178167">
        <ele>489.0</ele>
        <time>2018-10-03T07:30:16.000Z</time>
      </trkpt>
      <trkpt lat="42.40994" lon="-7.881795">
        <ele>488.0</ele>
        <time>2018-10-03T07:30:17.000Z</time>
      </trkpt>
      <trkpt lat="42.40995833" lon="-7.881805">
        <ele>488.0</ele>
        <time>2018-10-03T07:30:18.000Z</time>
      </trkpt>
      <trkpt lat="42.409975" lon="-7.881815">
        <ele>488.0</ele>
        <time>2018-10-03T07:30:19.000Z</time>
      </trkpt>
      <trkpt lat="42.40999167" lon="-7.88182">
        <ele>488.0</ele>
        <time>2018-10-03T07:30:20.000Z</time>
      </trkpt>
      <trkpt lat="42.41000667" lon="-7.88182833">
        <ele>488.0</ele>
        <time>2018-10-03T07:30:21.000Z</time>
      </trkpt>
      <trkpt lat="42.41002167" lon="-7.88183667">
        <ele>488.0</ele>
        <time>2018-10-03T07:30:22.000Z</time>
      </trkpt>
      <trkpt lat="42.410035" lon="-7.881845">
        <ele>488.0</ele>
        <time>2018-10-03T07:30:23.000Z</time>
      </trkpt>
      <trkpt lat="42.41005167" lon="-7.88185333">
        <ele>488.0</ele>
        <time>2018-10-03T07:30:24.000Z</time>
      </trkpt>
      <trkpt lat="42.41005167" lon="-7.88185333">
        <ele>488.0</ele>
        <time>2018-10-03T07:30:25.000Z</time>
      </trkpt>
      <trkpt lat="42.41007833" lon="-7.88187333">
        <ele>488.0</ele>
        <time>2018-10-03T07:30:26.000Z</time>
      </trkpt>
      <trkpt lat="42.41007833" lon="-7.88187333">
        <ele>488.0</ele>
        <time>2018-10-03T07:30:27.000Z</time>
      </trkpt>
      <trkpt lat="42.41008333" lon="-7.88187667">
        <ele>488.0</ele>
        <time>2018-10-03T07:30:28.000Z</time>
      </trkpt>
      <trkpt lat="42.410085" lon="-7.88187667">
        <ele>487.0</ele>
        <time>2018-10-03T07:30:29.000Z</time>
      </trkpt>
      <trkpt lat="42.41009833" lon="-7.88188833">
        <ele>487.0</ele>
        <time>2018-10-03T07:30:30.000Z</time>
      </trkpt>
      <trkpt lat="42.41009833" lon="-7.88188833">
        <ele>487.0</ele>
        <time>2018-10-03T07:30:31.000Z</time>
      </trkpt>
      <trkpt lat="42.41011167" lon="-7.881895">
        <ele>487.0</ele>
        <time>2018-10-03T07:30:32.000Z</time>
      </trkpt>
      <trkpt lat="42.41014333" lon="-7.88191">
        <ele>487.0</ele>
        <time>2018-10-03T07:30:33.000Z</time>
      </trkpt>
      <trkpt lat="42.41014333" lon="-7.88191">
        <ele>487.0</ele>
        <time>2018-10-03T07:30:34.000Z</time>
      </trkpt>
      <trkpt lat="42.41016" lon="-7.88192167">
        <ele>487.0</ele>
        <time>2018-10-03T07:30:35.000Z</time>
      </trkpt>
      <trkpt lat="42.41017667" lon="-7.88193167">
        <ele>486.0</ele>
        <time>2018-10-03T07:30:36.000Z</time>
      </trkpt>
      <trkpt lat="42.41019167" lon="-7.88194167">
        <ele>486.0</ele>
        <time>2018-10-03T07:30:37.000Z</time>
      </trkpt>
      <trkpt lat="42.41020667" lon="-7.88195167">
        <ele>486.0</ele>
        <time>2018-10-03T07:30:38.000Z</time>
      </trkpt>
      <trkpt lat="42.41023667" lon="-7.881975">
        <ele>486.0</ele>
        <time>2018-10-03T07:30:39.000Z</time>
      </trkpt>
      <trkpt lat="42.41025167" lon="-7.881985">
        <ele>486.0</ele>
        <time>2018-10-03T07:30:40.000Z</time>
      </trkpt>
      <trkpt lat="42.41025167" lon="-7.881985">
        <ele>486.0</ele>
        <time>2018-10-03T07:30:41.000Z</time>
      </trkpt>
      <trkpt lat="42.41026667" lon="-7.881995">
        <ele>486.0</ele>
        <time>2018-10-03T07:30:42.000Z</time>
      </trkpt>
      <trkpt lat="42.41028167" lon="-7.88200667">
        <ele>486.0</ele>
        <time>2018-10-03T07:30:43.000Z</time>
      </trkpt>
      <trkpt lat="42.41029667" lon="-7.88201833">
        <ele>486.0</ele>
        <time>2018-10-03T07:30:44.000Z</time>
      </trkpt>
      <trkpt lat="42.41031167" lon="-7.88202833">
        <ele>486.0</ele>
        <time>2018-10-03T07:30:45.000Z</time>
      </trkpt>
      <trkpt lat="42.41032833" lon="-7.88204">
        <ele>486.0</ele>
        <time>2018-10-03T07:30:46.000Z</time>
      </trkpt>
      <trkpt lat="42.41035833" lon="-7.882065">
        <ele>486.0</ele>
        <time>2018-10-03T07:30:47.000Z</time>
      </trkpt>
      <trkpt lat="42.41037167" lon="-7.882075">
        <ele>485.0</ele>
        <time>2018-10-03T07:30:48.000Z</time>
      </trkpt>
      <trkpt lat="42.41037167" lon="-7.882075">
        <ele>485.0</ele>
        <time>2018-10-03T07:30:49.000Z</time>
      </trkpt>
      <trkpt lat="42.41038333" lon="-7.88208667">
        <ele>485.0</ele>
        <time>2018-10-03T07:30:50.000Z</time>
      </trkpt>
      <trkpt lat="42.41040667" lon="-7.88211167">
        <ele>485.0</ele>
        <time>2018-10-03T07:30:51.000Z</time>
      </trkpt>
      <trkpt lat="42.41040667" lon="-7.88211167">
        <ele>485.0</ele>
        <time>2018-10-03T07:30:52.000Z</time>
      </trkpt>
      <trkpt lat="42.41042" lon="-7.88212667">
        <ele>485.0</ele>
        <time>2018-10-03T07:30:53.000Z</time>
      </trkpt>
      <trkpt lat="42.41043333" lon="-7.88213833">
        <ele>485.0</ele>
        <time>2018-10-03T07:30:54.000Z</time>
      </trkpt>
      <trkpt lat="42.41045833" lon="-7.88216833">
        <ele>485.0</ele>
        <time>2018-10-03T07:30:55.000Z</time>
      </trkpt>
      <trkpt lat="42.41047167" lon="-7.88218333">
        <ele>485.0</ele>
        <time>2018-10-03T07:30:56.000Z</time>
      </trkpt>
      <trkpt lat="42.41047167" lon="-7.88218333">
        <ele>485.0</ele>
        <time>2018-10-03T07:30:57.000Z</time>
      </trkpt>
      <trkpt lat="42.41048333" lon="-7.88219667">
        <ele>485.0</ele>
        <time>2018-10-03T07:30:58.000Z</time>
      </trkpt>
      <trkpt lat="42.410505" lon="-7.88222667">
        <ele>485.0</ele>
        <time>2018-10-03T07:30:59.000Z</time>
      </trkpt>
      <trkpt lat="42.41051667" lon="-7.88224333">
        <ele>485.0</ele>
        <time>2018-10-03T07:31:00.000Z</time>
      </trkpt>
      <trkpt lat="42.41051667" lon="-7.88224333">
        <ele>485.0</ele>
        <time>2018-10-03T07:31:01.000Z</time>
      </trkpt>
      <trkpt lat="42.41052833" lon="-7.88226333">
        <ele>485.0</ele>
        <time>2018-10-03T07:31:02.000Z</time>
      </trkpt>
      <trkpt lat="42.41055333" lon="-7.8823">
        <ele>485.0</ele>
        <time>2018-10-03T07:31:03.000Z</time>
      </trkpt>
      <trkpt lat="42.41056667" lon="-7.88231833">
        <ele>485.0</ele>
        <time>2018-10-03T07:31:04.000Z</time>
      </trkpt>
      <trkpt lat="42.41056667" lon="-7.88231833">
        <ele>485.0</ele>
        <time>2018-10-03T07:31:05.000Z</time>
      </trkpt>
      <trkpt lat="42.41057833" lon="-7.882335">
        <ele>485.0</ele>
        <time>2018-10-03T07:31:06.000Z</time>
      </trkpt>
      <trkpt lat="42.41059" lon="-7.88235333">
        <ele>485.0</ele>
        <time>2018-10-03T07:31:07.000Z</time>
      </trkpt>
      <trkpt lat="42.41061667" lon="-7.88239333">
        <ele>485.0</ele>
        <time>2018-10-03T07:31:08.000Z</time>
      </trkpt>
      <trkpt lat="42.41061667" lon="-7.88239333">
        <ele>485.0</ele>
        <time>2018-10-03T07:31:09.000Z</time>
      </trkpt>
      <trkpt lat="42.41063" lon="-7.88241333">
        <ele>485.0</ele>
        <time>2018-10-03T07:31:10.000Z</time>
      </trkpt>
      <trkpt lat="42.41064167" lon="-7.88243167">
        <ele>485.0</ele>
        <time>2018-10-03T07:31:11.000Z</time>
      </trkpt>
      <trkpt lat="42.41065" lon="-7.88245">
        <ele>485.0</ele>
        <time>2018-10-03T07:31:12.000Z</time>
      </trkpt>
      <trkpt lat="42.41066" lon="-7.88246833">
        <ele>485.0</ele>
        <time>2018-10-03T07:31:13.000Z</time>
      </trkpt>
      <trkpt lat="42.41067" lon="-7.88249167">
        <ele>485.0</ele>
        <time>2018-10-03T07:31:14.000Z</time>
      </trkpt>
      <trkpt lat="42.41069" lon="-7.88253667">
        <ele>485.0</ele>
        <time>2018-10-03T07:31:15.000Z</time>
      </trkpt>
      <trkpt lat="42.41070167" lon="-7.88256">
        <ele>485.0</ele>
        <time>2018-10-03T07:31:16.000Z</time>
      </trkpt>
      <trkpt lat="42.41070167" lon="-7.88256">
        <ele>485.0</ele>
        <time>2018-10-03T07:31:17.000Z</time>
      </trkpt>
      <trkpt lat="42.41072167" lon="-7.882595">
        <ele>485.0</ele>
        <time>2018-10-03T07:31:18.000Z</time>
      </trkpt>
      <trkpt lat="42.41073333" lon="-7.88261333">
        <ele>485.0</ele>
        <time>2018-10-03T07:31:19.000Z</time>
      </trkpt>
      <trkpt lat="42.41074667" lon="-7.88263167">
        <ele>485.0</ele>
        <time>2018-10-03T07:31:20.000Z</time>
      </trkpt>
      <trkpt lat="42.41076167" lon="-7.88265167">
        <ele>485.0</ele>
        <time>2018-10-03T07:31:21.000Z</time>
      </trkpt>
      <trkpt lat="42.41077333" lon="-7.88266833">
        <ele>485.0</ele>
        <time>2018-10-03T07:31:22.000Z</time>
      </trkpt>
      <trkpt lat="42.410785" lon="-7.88268333">
        <ele>485.0</ele>
        <time>2018-10-03T07:31:23.000Z</time>
      </trkpt>
      <trkpt lat="42.410785" lon="-7.88268333">
        <ele>485.0</ele>
        <time>2018-10-03T07:31:24.000Z</time>
      </trkpt>
      <trkpt lat="42.41079833" lon="-7.8827">
        <ele>485.0</ele>
        <time>2018-10-03T07:31:25.000Z</time>
      </trkpt>
      <trkpt lat="42.41081333" lon="-7.88271667">
        <ele>485.0</ele>
        <time>2018-10-03T07:31:26.000Z</time>
      </trkpt>
      <trkpt lat="42.41084167" lon="-7.88274833">
        <ele>485.0</ele>
        <time>2018-10-03T07:31:27.000Z</time>
      </trkpt>
      <trkpt lat="42.410855" lon="-7.88276167">
        <ele>485.0</ele>
        <time>2018-10-03T07:31:28.000Z</time>
      </trkpt>
      <trkpt lat="42.410855" lon="-7.88276167">
        <ele>485.0</ele>
        <time>2018-10-03T07:31:29.000Z</time>
      </trkpt>
      <trkpt lat="42.41087167" lon="-7.88277833">
        <ele>484.0</ele>
        <time>2018-10-03T07:31:30.000Z</time>
      </trkpt>
      <trkpt lat="42.41088667" lon="-7.882795">
        <ele>484.0</ele>
        <time>2018-10-03T07:31:31.000Z</time>
      </trkpt>
      <trkpt lat="42.41092" lon="-7.88282833">
        <ele>484.0</ele>
        <time>2018-10-03T07:31:32.000Z</time>
      </trkpt>
      <trkpt lat="42.41093667" lon="-7.88284333">
        <ele>484.0</ele>
        <time>2018-10-03T07:31:33.000Z</time>
      </trkpt>
      <trkpt lat="42.41093667" lon="-7.88284333">
        <ele>484.0</ele>
        <time>2018-10-03T07:31:34.000Z</time>
      </trkpt>
      <trkpt lat="42.41096833" lon="-7.882865">
        <ele>484.0</ele>
        <time>2018-10-03T07:31:35.000Z</time>
      </trkpt>
      <trkpt lat="42.41096833" lon="-7.882865">
        <ele>484.0</ele>
        <time>2018-10-03T07:31:36.000Z</time>
      </trkpt>
      <trkpt lat="42.41098167" lon="-7.88288">
        <ele>484.0</ele>
        <time>2018-10-03T07:31:37.000Z</time>
      </trkpt>
      <trkpt lat="42.410995" lon="-7.88289667">
        <ele>485.0</ele>
        <time>2018-10-03T07:31:38.000Z</time>
      </trkpt>
      <trkpt lat="42.41100833" lon="-7.882915">
        <ele>485.0</ele>
        <time>2018-10-03T07:31:39.000Z</time>
      </trkpt>
      <trkpt lat="42.41102167" lon="-7.88293333">
        <ele>485.0</ele>
        <time>2018-10-03T07:31:40.000Z</time>
      </trkpt>
      <trkpt lat="42.41103333" lon="-7.88295">
        <ele>485.0</ele>
        <time>2018-10-03T07:31:41.000Z</time>
      </trkpt>
      <trkpt lat="42.41104667" lon="-7.882965">
        <ele>485.0</ele>
        <time>2018-10-03T07:31:42.000Z</time>
      </trkpt>
      <trkpt lat="42.41105833" lon="-7.88298">
        <ele>485.0</ele>
        <time>2018-10-03T07:31:43.000Z</time>
      </trkpt>
      <trkpt lat="42.41107167" lon="-7.883">
        <ele>485.0</ele>
        <time>2018-10-03T07:31:44.000Z</time>
      </trkpt>
      <trkpt lat="42.411085" lon="-7.88301833">
        <ele>485.0</ele>
        <time>2018-10-03T07:31:45.000Z</time>
      </trkpt>
      <trkpt lat="42.411095" lon="-7.88303667">
        <ele>485.0</ele>
        <time>2018-10-03T07:31:46.000Z</time>
      </trkpt>
      <trkpt lat="42.41110667" lon="-7.883055">
        <ele>485.0</ele>
        <time>2018-10-03T07:31:47.000Z</time>
      </trkpt>
      <trkpt lat="42.41111667" lon="-7.88306667">
        <ele>486.0</ele>
        <time>2018-10-03T07:31:48.000Z</time>
      </trkpt>
      <trkpt lat="42.41112833" lon="-7.88308">
        <ele>486.0</ele>
        <time>2018-10-03T07:31:49.000Z</time>
      </trkpt>
      <trkpt lat="42.41113833" lon="-7.883095">
        <ele>486.0</ele>
        <time>2018-10-03T07:31:50.000Z</time>
      </trkpt>
      <trkpt lat="42.41116833" lon="-7.88312667">
        <ele>486.0</ele>
        <time>2018-10-03T07:31:51.000Z</time>
      </trkpt>
      <trkpt lat="42.41116833" lon="-7.88312667">
        <ele>486.0</ele>
        <time>2018-10-03T07:31:52.000Z</time>
      </trkpt>
      <trkpt lat="42.41118167" lon="-7.88314667">
        <ele>486.0</ele>
        <time>2018-10-03T07:31:53.000Z</time>
      </trkpt>
      <trkpt lat="42.411195" lon="-7.88316167">
        <ele>486.0</ele>
        <time>2018-10-03T07:31:54.000Z</time>
      </trkpt>
      <trkpt lat="42.41120833" lon="-7.88317833">
        <ele>486.0</ele>
        <time>2018-10-03T07:31:55.000Z</time>
      </trkpt>
      <trkpt lat="42.41122" lon="-7.88319667">
        <ele>486.0</ele>
        <time>2018-10-03T07:31:56.000Z</time>
      </trkpt>
      <trkpt lat="42.41123333" lon="-7.88321333">
        <ele>486.0</ele>
        <time>2018-10-03T07:31:57.000Z</time>
      </trkpt>
      <trkpt lat="42.41124333" lon="-7.88323">
        <ele>486.0</ele>
        <time>2018-10-03T07:31:58.000Z</time>
      </trkpt>
      <trkpt lat="42.41125333" lon="-7.88324667">
        <ele>486.0</ele>
        <time>2018-10-03T07:31:59.000Z</time>
      </trkpt>
      <trkpt lat="42.41126167" lon="-7.88326333">
        <ele>486.0</ele>
        <time>2018-10-03T07:32:00.000Z</time>
      </trkpt>
      <trkpt lat="42.41127333" lon="-7.88328">
        <ele>486.0</ele>
        <time>2018-10-03T07:32:01.000Z</time>
      </trkpt>
      <trkpt lat="42.41128333" lon="-7.883295">
        <ele>486.0</ele>
        <time>2018-10-03T07:32:02.000Z</time>
      </trkpt>
      <trkpt lat="42.411295" lon="-7.88331333">
        <ele>486.0</ele>
        <time>2018-10-03T07:32:03.000Z</time>
      </trkpt>
      <trkpt lat="42.411305" lon="-7.88333167">
        <ele>486.0</ele>
        <time>2018-10-03T07:32:04.000Z</time>
      </trkpt>
      <trkpt lat="42.41131333" lon="-7.88335167">
        <ele>486.0</ele>
        <time>2018-10-03T07:32:05.000Z</time>
      </trkpt>
      <trkpt lat="42.41132167" lon="-7.88337167">
        <ele>486.0</ele>
        <time>2018-10-03T07:32:06.000Z</time>
      </trkpt>
      <trkpt lat="42.41133333" lon="-7.88338833">
        <ele>486.0</ele>
        <time>2018-10-03T07:32:07.000Z</time>
      </trkpt>
      <trkpt lat="42.41134167" lon="-7.88340333">
        <ele>485.0</ele>
        <time>2018-10-03T07:32:08.000Z</time>
      </trkpt>
      <trkpt lat="42.41135167" lon="-7.88342">
        <ele>485.0</ele>
        <time>2018-10-03T07:32:09.000Z</time>
      </trkpt>
      <trkpt lat="42.41136333" lon="-7.88344">
        <ele>485.0</ele>
        <time>2018-10-03T07:32:10.000Z</time>
      </trkpt>
      <trkpt lat="42.41137333" lon="-7.88345833">
        <ele>485.0</ele>
        <time>2018-10-03T07:32:11.000Z</time>
      </trkpt>
      <trkpt lat="42.41138167" lon="-7.88347833">
        <ele>485.0</ele>
        <time>2018-10-03T07:32:12.000Z</time>
      </trkpt>
      <trkpt lat="42.41138833" lon="-7.88349833">
        <ele>485.0</ele>
        <time>2018-10-03T07:32:13.000Z</time>
      </trkpt>
      <trkpt lat="42.41139667" lon="-7.883515">
        <ele>485.0</ele>
        <time>2018-10-03T07:32:14.000Z</time>
      </trkpt>
      <trkpt lat="42.41141" lon="-7.88353333">
        <ele>485.0</ele>
        <time>2018-10-03T07:32:15.000Z</time>
      </trkpt>
      <trkpt lat="42.41142167" lon="-7.88355167">
        <ele>485.0</ele>
        <time>2018-10-03T07:32:16.000Z</time>
      </trkpt>
      <trkpt lat="42.41143333" lon="-7.88356833">
        <ele>485.0</ele>
        <time>2018-10-03T07:32:17.000Z</time>
      </trkpt>
      <trkpt lat="42.41144333" lon="-7.88358333">
        <ele>485.0</ele>
        <time>2018-10-03T07:32:18.000Z</time>
      </trkpt>
      <trkpt lat="42.41145333" lon="-7.88360167">
        <ele>485.0</ele>
        <time>2018-10-03T07:32:19.000Z</time>
      </trkpt>
      <trkpt lat="42.411465" lon="-7.88361833">
        <ele>485.0</ele>
        <time>2018-10-03T07:32:20.000Z</time>
      </trkpt>
      <trkpt lat="42.41147833" lon="-7.88363333">
        <ele>485.0</ele>
        <time>2018-10-03T07:32:21.000Z</time>
      </trkpt>
      <trkpt lat="42.41149333" lon="-7.88365">
        <ele>485.0</ele>
        <time>2018-10-03T07:32:22.000Z</time>
      </trkpt>
      <trkpt lat="42.41150667" lon="-7.883665">
        <ele>485.0</ele>
        <time>2018-10-03T07:32:23.000Z</time>
      </trkpt>
      <trkpt lat="42.41151667" lon="-7.88368167">
        <ele>485.0</ele>
        <time>2018-10-03T07:32:24.000Z</time>
      </trkpt>
      <trkpt lat="42.411525" lon="-7.88369667">
        <ele>485.0</ele>
        <time>2018-10-03T07:32:25.000Z</time>
      </trkpt>
      <trkpt lat="42.411535" lon="-7.88371167">
        <ele>485.0</ele>
        <time>2018-10-03T07:32:26.000Z</time>
      </trkpt>
      <trkpt lat="42.41154833" lon="-7.88373167">
        <ele>485.0</ele>
        <time>2018-10-03T07:32:27.000Z</time>
      </trkpt>
      <trkpt lat="42.41156167" lon="-7.883755">
        <ele>484.0</ele>
        <time>2018-10-03T07:32:28.000Z</time>
      </trkpt>
      <trkpt lat="42.41157333" lon="-7.883775">
        <ele>484.0</ele>
        <time>2018-10-03T07:32:29.000Z</time>
      </trkpt>
      <trkpt lat="42.411585" lon="-7.883795">
        <ele>484.0</ele>
        <time>2018-10-03T07:32:30.000Z</time>
      </trkpt>
      <trkpt lat="42.41159667" lon="-7.883815">
        <ele>484.0</ele>
        <time>2018-10-03T07:32:31.000Z</time>
      </trkpt>
      <trkpt lat="42.41161" lon="-7.88383667">
        <ele>483.0</ele>
        <time>2018-10-03T07:32:32.000Z</time>
      </trkpt>
      <trkpt lat="42.41162" lon="-7.883855">
        <ele>483.0</ele>
        <time>2018-10-03T07:32:33.000Z</time>
      </trkpt>
      <trkpt lat="42.41163333" lon="-7.88387333">
        <ele>483.0</ele>
        <time>2018-10-03T07:32:34.000Z</time>
      </trkpt>
      <trkpt lat="42.41164667" lon="-7.88389">
        <ele>483.0</ele>
        <time>2018-10-03T07:32:35.000Z</time>
      </trkpt>
      <trkpt lat="42.41166" lon="-7.88391">
        <ele>482.0</ele>
        <time>2018-10-03T07:32:36.000Z</time>
      </trkpt>
      <trkpt lat="42.41167333" lon="-7.88392833">
        <ele>482.0</ele>
        <time>2018-10-03T07:32:37.000Z</time>
      </trkpt>
      <trkpt lat="42.41168833" lon="-7.88394667">
        <ele>482.0</ele>
        <time>2018-10-03T07:32:38.000Z</time>
      </trkpt>
      <trkpt lat="42.41170333" lon="-7.88396333">
        <ele>482.0</ele>
        <time>2018-10-03T07:32:39.000Z</time>
      </trkpt>
      <trkpt lat="42.41171667" lon="-7.88398">
        <ele>482.0</ele>
        <time>2018-10-03T07:32:40.000Z</time>
      </trkpt>
      <trkpt lat="42.41172833" lon="-7.88399833">
        <ele>482.0</ele>
        <time>2018-10-03T07:32:41.000Z</time>
      </trkpt>
      <trkpt lat="42.41174" lon="-7.88401833">
        <ele>482.0</ele>
        <time>2018-10-03T07:32:42.000Z</time>
      </trkpt>
      <trkpt lat="42.411755" lon="-7.88403833">
        <ele>482.0</ele>
        <time>2018-10-03T07:32:43.000Z</time>
      </trkpt>
      <trkpt lat="42.41176667" lon="-7.88405667">
        <ele>482.0</ele>
        <time>2018-10-03T07:32:44.000Z</time>
      </trkpt>
      <trkpt lat="42.41178" lon="-7.88407333">
        <ele>482.0</ele>
        <time>2018-10-03T07:32:45.000Z</time>
      </trkpt>
      <trkpt lat="42.411795" lon="-7.88408667">
        <ele>482.0</ele>
        <time>2018-10-03T07:32:46.000Z</time>
      </trkpt>
      <trkpt lat="42.41181" lon="-7.88410167">
        <ele>482.0</ele>
        <time>2018-10-03T07:32:47.000Z</time>
      </trkpt>
      <trkpt lat="42.41182333" lon="-7.88411833">
        <ele>482.0</ele>
        <time>2018-10-03T07:32:48.000Z</time>
      </trkpt>
      <trkpt lat="42.41183833" lon="-7.88413333">
        <ele>482.0</ele>
        <time>2018-10-03T07:32:49.000Z</time>
      </trkpt>
      <trkpt lat="42.411855" lon="-7.88414667">
        <ele>481.0</ele>
        <time>2018-10-03T07:32:50.000Z</time>
      </trkpt>
      <trkpt lat="42.41189" lon="-7.88417667">
        <ele>481.0</ele>
        <time>2018-10-03T07:32:51.000Z</time>
      </trkpt>
      <trkpt lat="42.41189" lon="-7.88417667">
        <ele>481.0</ele>
        <time>2018-10-03T07:32:52.000Z</time>
      </trkpt>
      <trkpt lat="42.41190833" lon="-7.884195">
        <ele>481.0</ele>
        <time>2018-10-03T07:32:53.000Z</time>
      </trkpt>
      <trkpt lat="42.41192833" lon="-7.88421">
        <ele>481.0</ele>
        <time>2018-10-03T07:32:54.000Z</time>
      </trkpt>
      <trkpt lat="42.411945" lon="-7.88422333">
        <ele>481.0</ele>
        <time>2018-10-03T07:32:55.000Z</time>
      </trkpt>
      <trkpt lat="42.41196167" lon="-7.88423667">
        <ele>481.0</ele>
        <time>2018-10-03T07:32:56.000Z</time>
      </trkpt>
      <trkpt lat="42.41197667" lon="-7.88425167">
        <ele>481.0</ele>
        <time>2018-10-03T07:32:57.000Z</time>
      </trkpt>
      <trkpt lat="42.41199" lon="-7.884265">
        <ele>480.0</ele>
        <time>2018-10-03T07:32:58.000Z</time>
      </trkpt>
      <trkpt lat="42.41201833" lon="-7.88429667">
        <ele>480.0</ele>
        <time>2018-10-03T07:32:59.000Z</time>
      </trkpt>
      <trkpt lat="42.41201833" lon="-7.88429667">
        <ele>480.0</ele>
        <time>2018-10-03T07:33:00.000Z</time>
      </trkpt>
      <trkpt lat="42.41203333" lon="-7.88431333">
        <ele>479.0</ele>
        <time>2018-10-03T07:33:01.000Z</time>
      </trkpt>
      <trkpt lat="42.41204833" lon="-7.88433">
        <ele>479.0</ele>
        <time>2018-10-03T07:33:02.000Z</time>
      </trkpt>
      <trkpt lat="42.41206333" lon="-7.884345">
        <ele>479.0</ele>
        <time>2018-10-03T07:33:03.000Z</time>
      </trkpt>
      <trkpt lat="42.41207833" lon="-7.88436167">
        <ele>479.0</ele>
        <time>2018-10-03T07:33:04.000Z</time>
      </trkpt>
      <trkpt lat="42.41209167" lon="-7.88438">
        <ele>479.0</ele>
        <time>2018-10-03T07:33:05.000Z</time>
      </trkpt>
      <trkpt lat="42.41210667" lon="-7.88439333">
        <ele>478.0</ele>
        <time>2018-10-03T07:33:06.000Z</time>
      </trkpt>
      <trkpt lat="42.41212167" lon="-7.88440833">
        <ele>478.0</ele>
        <time>2018-10-03T07:33:07.000Z</time>
      </trkpt>
      <trkpt lat="42.412135" lon="-7.88442333">
        <ele>478.0</ele>
        <time>2018-10-03T07:33:08.000Z</time>
      </trkpt>
      <trkpt lat="42.41214667" lon="-7.884435">
        <ele>478.0</ele>
        <time>2018-10-03T07:33:09.000Z</time>
      </trkpt>
      <trkpt lat="42.41216" lon="-7.88444833">
        <ele>478.0</ele>
        <time>2018-10-03T07:33:10.000Z</time>
      </trkpt>
      <trkpt lat="42.41217333" lon="-7.88446333">
        <ele>478.0</ele>
        <time>2018-10-03T07:33:11.000Z</time>
      </trkpt>
      <trkpt lat="42.41218667" lon="-7.88447833">
        <ele>478.0</ele>
        <time>2018-10-03T07:33:12.000Z</time>
      </trkpt>
      <trkpt lat="42.41220167" lon="-7.88449333">
        <ele>478.0</ele>
        <time>2018-10-03T07:33:13.000Z</time>
      </trkpt>
      <trkpt lat="42.41221833" lon="-7.88451">
        <ele>478.0</ele>
        <time>2018-10-03T07:33:14.000Z</time>
      </trkpt>
      <trkpt lat="42.41223333" lon="-7.88452333">
        <ele>478.0</ele>
        <time>2018-10-03T07:33:15.000Z</time>
      </trkpt>
      <trkpt lat="42.412245" lon="-7.88453667">
        <ele>477.0</ele>
        <time>2018-10-03T07:33:16.000Z</time>
      </trkpt>
      <trkpt lat="42.41225833" lon="-7.88455">
        <ele>477.0</ele>
        <time>2018-10-03T07:33:17.000Z</time>
      </trkpt>
      <trkpt lat="42.41227" lon="-7.884565">
        <ele>477.0</ele>
        <time>2018-10-03T07:33:18.000Z</time>
      </trkpt>
      <trkpt lat="42.41228333" lon="-7.88458">
        <ele>477.0</ele>
        <time>2018-10-03T07:33:19.000Z</time>
      </trkpt>
      <trkpt lat="42.41229833" lon="-7.884595">
        <ele>477.0</ele>
        <time>2018-10-03T07:33:20.000Z</time>
      </trkpt>
      <trkpt lat="42.41231167" lon="-7.88460667">
        <ele>477.0</ele>
        <time>2018-10-03T07:33:21.000Z</time>
      </trkpt>
      <trkpt lat="42.41232667" lon="-7.88461667">
        <ele>477.0</ele>
        <time>2018-10-03T07:33:22.000Z</time>
      </trkpt>
      <trkpt lat="42.41234" lon="-7.88463">
        <ele>477.0</ele>
        <time>2018-10-03T07:33:23.000Z</time>
      </trkpt>
      <trkpt lat="42.41235167" lon="-7.884645">
        <ele>477.0</ele>
        <time>2018-10-03T07:33:24.000Z</time>
      </trkpt>
      <trkpt lat="42.412365" lon="-7.88466">
        <ele>477.0</ele>
        <time>2018-10-03T07:33:25.000Z</time>
      </trkpt>
      <trkpt lat="42.41237833" lon="-7.88467667">
        <ele>477.0</ele>
        <time>2018-10-03T07:33:26.000Z</time>
      </trkpt>
      <trkpt lat="42.41240667" lon="-7.88470833">
        <ele>477.0</ele>
        <time>2018-10-03T07:33:27.000Z</time>
      </trkpt>
      <trkpt lat="42.41240667" lon="-7.88470833">
        <ele>477.0</ele>
        <time>2018-10-03T07:33:28.000Z</time>
      </trkpt>
      <trkpt lat="42.41242" lon="-7.88472167">
        <ele>477.0</ele>
        <time>2018-10-03T07:33:29.000Z</time>
      </trkpt>
      <trkpt lat="42.41243" lon="-7.88473333">
        <ele>477.0</ele>
        <time>2018-10-03T07:33:30.000Z</time>
      </trkpt>
      <trkpt lat="42.41244333" lon="-7.884745">
        <ele>477.0</ele>
        <time>2018-10-03T07:33:31.000Z</time>
      </trkpt>
      <trkpt lat="42.41245667" lon="-7.88475833">
        <ele>477.0</ele>
        <time>2018-10-03T07:33:32.000Z</time>
      </trkpt>
      <trkpt lat="42.41247167" lon="-7.88477333">
        <ele>477.0</ele>
        <time>2018-10-03T07:33:33.000Z</time>
      </trkpt>
      <trkpt lat="42.41248833" lon="-7.88478667">
        <ele>477.0</ele>
        <time>2018-10-03T07:33:34.000Z</time>
      </trkpt>
      <trkpt lat="42.41250333" lon="-7.88480167">
        <ele>477.0</ele>
        <time>2018-10-03T07:33:35.000Z</time>
      </trkpt>
      <trkpt lat="42.41251667" lon="-7.884815">
        <ele>477.0</ele>
        <time>2018-10-03T07:33:36.000Z</time>
      </trkpt>
      <trkpt lat="42.41253167" lon="-7.88482833">
        <ele>477.0</ele>
        <time>2018-10-03T07:33:37.000Z</time>
      </trkpt>
      <trkpt lat="42.412545" lon="-7.88484167">
        <ele>477.0</ele>
        <time>2018-10-03T07:33:38.000Z</time>
      </trkpt>
      <trkpt lat="42.41255833" lon="-7.88485667">
        <ele>477.0</ele>
        <time>2018-10-03T07:33:39.000Z</time>
      </trkpt>
      <trkpt lat="42.41257333" lon="-7.88487167">
        <ele>477.0</ele>
        <time>2018-10-03T07:33:40.000Z</time>
      </trkpt>
      <trkpt lat="42.41258833" lon="-7.884885">
        <ele>477.0</ele>
        <time>2018-10-03T07:33:41.000Z</time>
      </trkpt>
      <trkpt lat="42.41260167" lon="-7.88489833">
        <ele>477.0</ele>
        <time>2018-10-03T07:33:42.000Z</time>
      </trkpt>
      <trkpt lat="42.41261667" lon="-7.88490833">
        <ele>477.0</ele>
        <time>2018-10-03T07:33:43.000Z</time>
      </trkpt>
      <trkpt lat="42.41262833" lon="-7.88492333">
        <ele>477.0</ele>
        <time>2018-10-03T07:33:44.000Z</time>
      </trkpt>
      <trkpt lat="42.41264167" lon="-7.88493667">
        <ele>478.0</ele>
        <time>2018-10-03T07:33:45.000Z</time>
      </trkpt>
      <trkpt lat="42.412655" lon="-7.88495">
        <ele>478.0</ele>
        <time>2018-10-03T07:33:46.000Z</time>
      </trkpt>
      <trkpt lat="42.41266667" lon="-7.88496333">
        <ele>478.0</ele>
        <time>2018-10-03T07:33:47.000Z</time>
      </trkpt>
      <trkpt lat="42.41267833" lon="-7.884975">
        <ele>478.0</ele>
        <time>2018-10-03T07:33:48.000Z</time>
      </trkpt>
      <trkpt lat="42.41269" lon="-7.88498833">
        <ele>478.0</ele>
        <time>2018-10-03T07:33:49.000Z</time>
      </trkpt>
      <trkpt lat="42.41270667" lon="-7.88500167">
        <ele>478.0</ele>
        <time>2018-10-03T07:33:50.000Z</time>
      </trkpt>
      <trkpt lat="42.41272167" lon="-7.88501667">
        <ele>478.0</ele>
        <time>2018-10-03T07:33:51.000Z</time>
      </trkpt>
      <trkpt lat="42.41273833" lon="-7.88502667">
        <ele>479.0</ele>
        <time>2018-10-03T07:33:52.000Z</time>
      </trkpt>
      <trkpt lat="42.41275667" lon="-7.88503667">
        <ele>479.0</ele>
        <time>2018-10-03T07:33:53.000Z</time>
      </trkpt>
      <trkpt lat="42.41277667" lon="-7.885045">
        <ele>479.0</ele>
        <time>2018-10-03T07:33:54.000Z</time>
      </trkpt>
      <trkpt lat="42.41279333" lon="-7.88505167">
        <ele>479.0</ele>
        <time>2018-10-03T07:33:55.000Z</time>
      </trkpt>
      <trkpt lat="42.41281" lon="-7.88505667">
        <ele>479.0</ele>
        <time>2018-10-03T07:33:56.000Z</time>
      </trkpt>
      <trkpt lat="42.41282667" lon="-7.88506167">
        <ele>479.0</ele>
        <time>2018-10-03T07:33:57.000Z</time>
      </trkpt>
      <trkpt lat="42.41284167" lon="-7.88507333">
        <ele>479.0</ele>
        <time>2018-10-03T07:33:58.000Z</time>
      </trkpt>
      <trkpt lat="42.41286" lon="-7.88508167">
        <ele>479.0</ele>
        <time>2018-10-03T07:33:59.000Z</time>
      </trkpt>
      <trkpt lat="42.41287667" lon="-7.88509333">
        <ele>479.0</ele>
        <time>2018-10-03T07:34:00.000Z</time>
      </trkpt>
      <trkpt lat="42.41289167" lon="-7.88510333">
        <ele>479.0</ele>
        <time>2018-10-03T07:34:01.000Z</time>
      </trkpt>
      <trkpt lat="42.41290667" lon="-7.88511167">
        <ele>479.0</ele>
        <time>2018-10-03T07:34:02.000Z</time>
      </trkpt>
      <trkpt lat="42.41292" lon="-7.88512333">
        <ele>479.0</ele>
        <time>2018-10-03T07:34:03.000Z</time>
      </trkpt>
      <trkpt lat="42.41293667" lon="-7.88513333">
        <ele>479.0</ele>
        <time>2018-10-03T07:34:04.000Z</time>
      </trkpt>
      <trkpt lat="42.412955" lon="-7.88513833">
        <ele>479.0</ele>
        <time>2018-10-03T07:34:05.000Z</time>
      </trkpt>
      <trkpt lat="42.41297333" lon="-7.88514333">
        <ele>479.0</ele>
        <time>2018-10-03T07:34:06.000Z</time>
      </trkpt>
      <trkpt lat="42.41299333" lon="-7.88515167">
        <ele>478.0</ele>
        <time>2018-10-03T07:34:07.000Z</time>
      </trkpt>
      <trkpt lat="42.41301333" lon="-7.88515667">
        <ele>478.0</ele>
        <time>2018-10-03T07:34:08.000Z</time>
      </trkpt>
      <trkpt lat="42.41303167" lon="-7.88516">
        <ele>478.0</ele>
        <time>2018-10-03T07:34:09.000Z</time>
      </trkpt>
      <trkpt lat="42.41305" lon="-7.88516333">
        <ele>478.0</ele>
        <time>2018-10-03T07:34:10.000Z</time>
      </trkpt>
      <trkpt lat="42.41306833" lon="-7.88516833">
        <ele>478.0</ele>
        <time>2018-10-03T07:34:11.000Z</time>
      </trkpt>
      <trkpt lat="42.41308833" lon="-7.88517333">
        <ele>478.0</ele>
        <time>2018-10-03T07:34:12.000Z</time>
      </trkpt>
      <trkpt lat="42.41310833" lon="-7.88518">
        <ele>478.0</ele>
        <time>2018-10-03T07:34:13.000Z</time>
      </trkpt>
      <trkpt lat="42.41312667" lon="-7.88518333">
        <ele>478.0</ele>
        <time>2018-10-03T07:34:14.000Z</time>
      </trkpt>
      <trkpt lat="42.413145" lon="-7.88518667">
        <ele>477.0</ele>
        <time>2018-10-03T07:34:15.000Z</time>
      </trkpt>
      <trkpt lat="42.41316333" lon="-7.88519">
        <ele>477.0</ele>
        <time>2018-10-03T07:34:16.000Z</time>
      </trkpt>
      <trkpt lat="42.41318167" lon="-7.88519333">
        <ele>477.0</ele>
        <time>2018-10-03T07:34:17.000Z</time>
      </trkpt>
      <trkpt lat="42.41320167" lon="-7.88519833">
        <ele>477.0</ele>
        <time>2018-10-03T07:34:18.000Z</time>
      </trkpt>
      <trkpt lat="42.41322" lon="-7.885205">
        <ele>476.0</ele>
        <time>2018-10-03T07:34:19.000Z</time>
      </trkpt>
      <trkpt lat="42.413255" lon="-7.88521167">
        <ele>476.0</ele>
        <time>2018-10-03T07:34:20.000Z</time>
      </trkpt>
      <trkpt lat="42.413255" lon="-7.88521167">
        <ele>476.0</ele>
        <time>2018-10-03T07:34:21.000Z</time>
      </trkpt>
      <trkpt lat="42.41327167" lon="-7.885215">
        <ele>476.0</ele>
        <time>2018-10-03T07:34:22.000Z</time>
      </trkpt>
      <trkpt lat="42.41329" lon="-7.88521833">
        <ele>475.0</ele>
        <time>2018-10-03T07:34:23.000Z</time>
      </trkpt>
      <trkpt lat="42.41330667" lon="-7.88522">
        <ele>475.0</ele>
        <time>2018-10-03T07:34:24.000Z</time>
      </trkpt>
      <trkpt lat="42.41332333" lon="-7.88522">
        <ele>475.0</ele>
        <time>2018-10-03T07:34:25.000Z</time>
      </trkpt>
      <trkpt lat="42.41334" lon="-7.88522">
        <ele>475.0</ele>
        <time>2018-10-03T07:34:26.000Z</time>
      </trkpt>
      <trkpt lat="42.413355" lon="-7.88522333">
        <ele>475.0</ele>
        <time>2018-10-03T07:34:27.000Z</time>
      </trkpt>
      <trkpt lat="42.41337" lon="-7.88522833">
        <ele>475.0</ele>
        <time>2018-10-03T07:34:28.000Z</time>
      </trkpt>
      <trkpt lat="42.41338167" lon="-7.88523167">
        <ele>474.0</ele>
        <time>2018-10-03T07:34:29.000Z</time>
      </trkpt>
      <trkpt lat="42.413395" lon="-7.885235">
        <ele>474.0</ele>
        <time>2018-10-03T07:34:30.000Z</time>
      </trkpt>
      <trkpt lat="42.41341" lon="-7.88524">
        <ele>474.0</ele>
        <time>2018-10-03T07:34:31.000Z</time>
      </trkpt>
      <trkpt lat="42.41342667" lon="-7.885245">
        <ele>474.0</ele>
        <time>2018-10-03T07:34:32.000Z</time>
      </trkpt>
      <trkpt lat="42.41344167" lon="-7.88524833">
        <ele>474.0</ele>
        <time>2018-10-03T07:34:33.000Z</time>
      </trkpt>
      <trkpt lat="42.41345833" lon="-7.88525">
        <ele>474.0</ele>
        <time>2018-10-03T07:34:34.000Z</time>
      </trkpt>
      <trkpt lat="42.413475" lon="-7.88525167">
        <ele>474.0</ele>
        <time>2018-10-03T07:34:35.000Z</time>
      </trkpt>
      <trkpt lat="42.41349167" lon="-7.885255">
        <ele>474.0</ele>
        <time>2018-10-03T07:34:36.000Z</time>
      </trkpt>
      <trkpt lat="42.41350833" lon="-7.88525833">
        <ele>474.0</ele>
        <time>2018-10-03T07:34:37.000Z</time>
      </trkpt>
      <trkpt lat="42.41352667" lon="-7.88526">
        <ele>474.0</ele>
        <time>2018-10-03T07:34:38.000Z</time>
      </trkpt>
      <trkpt lat="42.41354333" lon="-7.885265">
        <ele>474.0</ele>
        <time>2018-10-03T07:34:39.000Z</time>
      </trkpt>
      <trkpt lat="42.41356" lon="-7.88526833">
        <ele>474.0</ele>
        <time>2018-10-03T07:34:40.000Z</time>
      </trkpt>
      <trkpt lat="42.41357667" lon="-7.88527333">
        <ele>474.0</ele>
        <time>2018-10-03T07:34:41.000Z</time>
      </trkpt>
      <trkpt lat="42.41359333" lon="-7.885275">
        <ele>474.0</ele>
        <time>2018-10-03T07:34:42.000Z</time>
      </trkpt>
      <trkpt lat="42.41361" lon="-7.885275">
        <ele>474.0</ele>
        <time>2018-10-03T07:34:43.000Z</time>
      </trkpt>
      <trkpt lat="42.41362833" lon="-7.88527667">
        <ele>473.0</ele>
        <time>2018-10-03T07:34:44.000Z</time>
      </trkpt>
      <trkpt lat="42.41365" lon="-7.885275">
        <ele>473.0</ele>
        <time>2018-10-03T07:34:45.000Z</time>
      </trkpt>
      <trkpt lat="42.41367" lon="-7.88527333">
        <ele>473.0</ele>
        <time>2018-10-03T07:34:46.000Z</time>
      </trkpt>
      <trkpt lat="42.41368833" lon="-7.885275">
        <ele>473.0</ele>
        <time>2018-10-03T07:34:47.000Z</time>
      </trkpt>
      <trkpt lat="42.41370333" lon="-7.885275">
        <ele>473.0</ele>
        <time>2018-10-03T07:34:48.000Z</time>
      </trkpt>
      <trkpt lat="42.41372" lon="-7.88527667">
        <ele>473.0</ele>
        <time>2018-10-03T07:34:49.000Z</time>
      </trkpt>
      <trkpt lat="42.41373667" lon="-7.88527833">
        <ele>473.0</ele>
        <time>2018-10-03T07:34:50.000Z</time>
      </trkpt>
      <trkpt lat="42.413755" lon="-7.88528167">
        <ele>473.0</ele>
        <time>2018-10-03T07:34:51.000Z</time>
      </trkpt>
      <trkpt lat="42.41377333" lon="-7.88528167">
        <ele>473.0</ele>
        <time>2018-10-03T07:34:52.000Z</time>
      </trkpt>
      <trkpt lat="42.41379167" lon="-7.88528333">
        <ele>473.0</ele>
        <time>2018-10-03T07:34:53.000Z</time>
      </trkpt>
      <trkpt lat="42.41381" lon="-7.885285">
        <ele>473.0</ele>
        <time>2018-10-03T07:34:54.000Z</time>
      </trkpt>
      <trkpt lat="42.41382667" lon="-7.88528667">
        <ele>473.0</ele>
        <time>2018-10-03T07:34:55.000Z</time>
      </trkpt>
      <trkpt lat="42.41384333" lon="-7.88528833">
        <ele>473.0</ele>
        <time>2018-10-03T07:34:56.000Z</time>
      </trkpt>
      <trkpt lat="42.41386" lon="-7.88529">
        <ele>473.0</ele>
        <time>2018-10-03T07:34:57.000Z</time>
      </trkpt>
      <trkpt lat="42.41387833" lon="-7.88529167">
        <ele>473.0</ele>
        <time>2018-10-03T07:34:58.000Z</time>
      </trkpt>
      <trkpt lat="42.413895" lon="-7.88529167">
        <ele>473.0</ele>
        <time>2018-10-03T07:34:59.000Z</time>
      </trkpt>
      <trkpt lat="42.41391167" lon="-7.88529167">
        <ele>473.0</ele>
        <time>2018-10-03T07:35:00.000Z</time>
      </trkpt>
      <trkpt lat="42.41392833" lon="-7.88529167">
        <ele>473.0</ele>
        <time>2018-10-03T07:35:01.000Z</time>
      </trkpt>
      <trkpt lat="42.413945" lon="-7.88529167">
        <ele>473.0</ele>
        <time>2018-10-03T07:35:02.000Z</time>
      </trkpt>
      <trkpt lat="42.41396333" lon="-7.88529167">
        <ele>473.0</ele>
        <time>2018-10-03T07:35:03.000Z</time>
      </trkpt>
      <trkpt lat="42.41398" lon="-7.885295">
        <ele>473.0</ele>
        <time>2018-10-03T07:35:04.000Z</time>
      </trkpt>
      <trkpt lat="42.41399833" lon="-7.88529833">
        <ele>473.0</ele>
        <time>2018-10-03T07:35:05.000Z</time>
      </trkpt>
      <trkpt lat="42.41401667" lon="-7.88529667">
        <ele>473.0</ele>
        <time>2018-10-03T07:35:06.000Z</time>
      </trkpt>
      <trkpt lat="42.414035" lon="-7.88529667">
        <ele>473.0</ele>
        <time>2018-10-03T07:35:07.000Z</time>
      </trkpt>
      <trkpt lat="42.41405167" lon="-7.885295">
        <ele>473.0</ele>
        <time>2018-10-03T07:35:08.000Z</time>
      </trkpt>
      <trkpt lat="42.41406833" lon="-7.885295">
        <ele>473.0</ele>
        <time>2018-10-03T07:35:09.000Z</time>
      </trkpt>
      <trkpt lat="42.41408667" lon="-7.885295">
        <ele>473.0</ele>
        <time>2018-10-03T07:35:10.000Z</time>
      </trkpt>
      <trkpt lat="42.41410333" lon="-7.88529667">
        <ele>473.0</ele>
        <time>2018-10-03T07:35:11.000Z</time>
      </trkpt>
      <trkpt lat="42.41412333" lon="-7.885295">
        <ele>473.0</ele>
        <time>2018-10-03T07:35:12.000Z</time>
      </trkpt>
      <trkpt lat="42.41414167" lon="-7.88529333">
        <ele>473.0</ele>
        <time>2018-10-03T07:35:13.000Z</time>
      </trkpt>
      <trkpt lat="42.41416" lon="-7.88529167">
        <ele>473.0</ele>
        <time>2018-10-03T07:35:14.000Z</time>
      </trkpt>
      <trkpt lat="42.41417667" lon="-7.88529333">
        <ele>473.0</ele>
        <time>2018-10-03T07:35:15.000Z</time>
      </trkpt>
      <trkpt lat="42.41419167" lon="-7.885295">
        <ele>473.0</ele>
        <time>2018-10-03T07:35:16.000Z</time>
      </trkpt>
      <trkpt lat="42.41420667" lon="-7.88529167">
        <ele>473.0</ele>
        <time>2018-10-03T07:35:17.000Z</time>
      </trkpt>
      <trkpt lat="42.414225" lon="-7.88528667">
        <ele>472.0</ele>
        <time>2018-10-03T07:35:18.000Z</time>
      </trkpt>
      <trkpt lat="42.41424333" lon="-7.88528167">
        <ele>472.0</ele>
        <time>2018-10-03T07:35:19.000Z</time>
      </trkpt>
      <trkpt lat="42.41426" lon="-7.88527833">
        <ele>472.0</ele>
        <time>2018-10-03T07:35:20.000Z</time>
      </trkpt>
      <trkpt lat="42.41427667" lon="-7.88527333">
        <ele>472.0</ele>
        <time>2018-10-03T07:35:21.000Z</time>
      </trkpt>
      <trkpt lat="42.414295" lon="-7.88527333">
        <ele>472.0</ele>
        <time>2018-10-03T07:35:22.000Z</time>
      </trkpt>
      <trkpt lat="42.41431167" lon="-7.88527167">
        <ele>472.0</ele>
        <time>2018-10-03T07:35:23.000Z</time>
      </trkpt>
      <trkpt lat="42.41433" lon="-7.88527">
        <ele>471.0</ele>
        <time>2018-10-03T07:35:24.000Z</time>
      </trkpt>
      <trkpt lat="42.41435" lon="-7.885265">
        <ele>471.0</ele>
        <time>2018-10-03T07:35:25.000Z</time>
      </trkpt>
      <trkpt lat="42.41436667" lon="-7.88526333">
        <ele>471.0</ele>
        <time>2018-10-03T07:35:26.000Z</time>
      </trkpt>
      <trkpt lat="42.41438333" lon="-7.88526">
        <ele>471.0</ele>
        <time>2018-10-03T07:35:27.000Z</time>
      </trkpt>
      <trkpt lat="42.41439833" lon="-7.88526">
        <ele>471.0</ele>
        <time>2018-10-03T07:35:28.000Z</time>
      </trkpt>
      <trkpt lat="42.41441167" lon="-7.88526">
        <ele>471.0</ele>
        <time>2018-10-03T07:35:29.000Z</time>
      </trkpt>
      <trkpt lat="42.41442667" lon="-7.88525833">
        <ele>470.0</ele>
        <time>2018-10-03T07:35:30.000Z</time>
      </trkpt>
      <trkpt lat="42.41444167" lon="-7.88525667">
        <ele>470.0</ele>
        <time>2018-10-03T07:35:31.000Z</time>
      </trkpt>
      <trkpt lat="42.41445833" lon="-7.885255">
        <ele>470.0</ele>
        <time>2018-10-03T07:35:32.000Z</time>
      </trkpt>
      <trkpt lat="42.414475" lon="-7.88525833">
        <ele>470.0</ele>
        <time>2018-10-03T07:35:33.000Z</time>
      </trkpt>
      <trkpt lat="42.41449167" lon="-7.88525667">
        <ele>469.0</ele>
        <time>2018-10-03T07:35:34.000Z</time>
      </trkpt>
      <trkpt lat="42.41450833" lon="-7.885255">
        <ele>469.0</ele>
        <time>2018-10-03T07:35:35.000Z</time>
      </trkpt>
      <trkpt lat="42.41452667" lon="-7.88525333">
        <ele>469.0</ele>
        <time>2018-10-03T07:35:36.000Z</time>
      </trkpt>
      <trkpt lat="42.41454167" lon="-7.88525167">
        <ele>469.0</ele>
        <time>2018-10-03T07:35:37.000Z</time>
      </trkpt>
      <trkpt lat="42.41455833" lon="-7.88525167">
        <ele>469.0</ele>
        <time>2018-10-03T07:35:38.000Z</time>
      </trkpt>
      <trkpt lat="42.414575" lon="-7.88525">
        <ele>469.0</ele>
        <time>2018-10-03T07:35:39.000Z</time>
      </trkpt>
      <trkpt lat="42.41459167" lon="-7.88525167">
        <ele>469.0</ele>
        <time>2018-10-03T07:35:40.000Z</time>
      </trkpt>
      <trkpt lat="42.41461" lon="-7.88525167">
        <ele>468.0</ele>
        <time>2018-10-03T07:35:41.000Z</time>
      </trkpt>
      <trkpt lat="42.41463" lon="-7.88525167">
        <ele>468.0</ele>
        <time>2018-10-03T07:35:42.000Z</time>
      </trkpt>
      <trkpt lat="42.41464833" lon="-7.88525167">
        <ele>468.0</ele>
        <time>2018-10-03T07:35:43.000Z</time>
      </trkpt>
      <trkpt lat="42.41466667" lon="-7.88524833">
        <ele>468.0</ele>
        <time>2018-10-03T07:35:44.000Z</time>
      </trkpt>
      <trkpt lat="42.41468667" lon="-7.88524167">
        <ele>468.0</ele>
        <time>2018-10-03T07:35:45.000Z</time>
      </trkpt>
      <trkpt lat="42.414705" lon="-7.88523667">
        <ele>468.0</ele>
        <time>2018-10-03T07:35:46.000Z</time>
      </trkpt>
      <trkpt lat="42.41472167" lon="-7.885235">
        <ele>467.0</ele>
        <time>2018-10-03T07:35:47.000Z</time>
      </trkpt>
      <trkpt lat="42.41473833" lon="-7.88523333">
        <ele>467.0</ele>
        <time>2018-10-03T07:35:48.000Z</time>
      </trkpt>
      <trkpt lat="42.41475333" lon="-7.88523167">
        <ele>467.0</ele>
        <time>2018-10-03T07:35:49.000Z</time>
      </trkpt>
      <trkpt lat="42.41476667" lon="-7.88523">
        <ele>467.0</ele>
        <time>2018-10-03T07:35:50.000Z</time>
      </trkpt>
      <trkpt lat="42.41478167" lon="-7.88522667">
        <ele>467.0</ele>
        <time>2018-10-03T07:35:51.000Z</time>
      </trkpt>
      <trkpt lat="42.41479667" lon="-7.88522333">
        <ele>467.0</ele>
        <time>2018-10-03T07:35:52.000Z</time>
      </trkpt>
      <trkpt lat="42.414815" lon="-7.88522">
        <ele>466.0</ele>
        <time>2018-10-03T07:35:53.000Z</time>
      </trkpt>
      <trkpt lat="42.41483" lon="-7.88521833">
        <ele>466.0</ele>
        <time>2018-10-03T07:35:54.000Z</time>
      </trkpt>
      <trkpt lat="42.41484667" lon="-7.88521667">
        <ele>466.0</ele>
        <time>2018-10-03T07:35:55.000Z</time>
      </trkpt>
      <trkpt lat="42.41486167" lon="-7.88521667">
        <ele>466.0</ele>
        <time>2018-10-03T07:35:56.000Z</time>
      </trkpt>
      <trkpt lat="42.41487833" lon="-7.885215">
        <ele>466.0</ele>
        <time>2018-10-03T07:35:57.000Z</time>
      </trkpt>
      <trkpt lat="42.41489333" lon="-7.88521333">
        <ele>466.0</ele>
        <time>2018-10-03T07:35:58.000Z</time>
      </trkpt>
      <trkpt lat="42.41490833" lon="-7.88521167">
        <ele>466.0</ele>
        <time>2018-10-03T07:35:59.000Z</time>
      </trkpt>
      <trkpt lat="42.41492667" lon="-7.88521">
        <ele>466.0</ele>
        <time>2018-10-03T07:36:00.000Z</time>
      </trkpt>
      <trkpt lat="42.41494333" lon="-7.88521">
        <ele>466.0</ele>
        <time>2018-10-03T07:36:01.000Z</time>
      </trkpt>
      <trkpt lat="42.41496" lon="-7.88521">
        <ele>466.0</ele>
        <time>2018-10-03T07:36:02.000Z</time>
      </trkpt>
      <trkpt lat="42.41497667" lon="-7.88520667">
        <ele>466.0</ele>
        <time>2018-10-03T07:36:03.000Z</time>
      </trkpt>
      <trkpt lat="42.414995" lon="-7.88520667">
        <ele>465.0</ele>
        <time>2018-10-03T07:36:04.000Z</time>
      </trkpt>
      <trkpt lat="42.41501333" lon="-7.88520167">
        <ele>465.0</ele>
        <time>2018-10-03T07:36:05.000Z</time>
      </trkpt>
      <trkpt lat="42.41503" lon="-7.88519833">
        <ele>465.0</ele>
        <time>2018-10-03T07:36:06.000Z</time>
      </trkpt>
      <trkpt lat="42.41504833" lon="-7.88519833">
        <ele>465.0</ele>
        <time>2018-10-03T07:36:07.000Z</time>
      </trkpt>
      <trkpt lat="42.415065" lon="-7.88519667">
        <ele>465.0</ele>
        <time>2018-10-03T07:36:08.000Z</time>
      </trkpt>
      <trkpt lat="42.41508167" lon="-7.88519833">
        <ele>465.0</ele>
        <time>2018-10-03T07:36:09.000Z</time>
      </trkpt>
      <trkpt lat="42.41509833" lon="-7.8852">
        <ele>465.0</ele>
        <time>2018-10-03T07:36:10.000Z</time>
      </trkpt>
      <trkpt lat="42.41511667" lon="-7.88520167">
        <ele>465.0</ele>
        <time>2018-10-03T07:36:11.000Z</time>
      </trkpt>
      <trkpt lat="42.41513667" lon="-7.8852">
        <ele>465.0</ele>
        <time>2018-10-03T07:36:12.000Z</time>
      </trkpt>
      <trkpt lat="42.415155" lon="-7.88519833">
        <ele>464.0</ele>
        <time>2018-10-03T07:36:13.000Z</time>
      </trkpt>
      <trkpt lat="42.415175" lon="-7.885195">
        <ele>464.0</ele>
        <time>2018-10-03T07:36:14.000Z</time>
      </trkpt>
      <trkpt lat="42.41519167" lon="-7.88519">
        <ele>464.0</ele>
        <time>2018-10-03T07:36:15.000Z</time>
      </trkpt>
      <trkpt lat="42.41520667" lon="-7.88518667">
        <ele>464.0</ele>
        <time>2018-10-03T07:36:16.000Z</time>
      </trkpt>
      <trkpt lat="42.41522333" lon="-7.88518333">
        <ele>464.0</ele>
        <time>2018-10-03T07:36:17.000Z</time>
      </trkpt>
      <trkpt lat="42.41523833" lon="-7.88517833">
        <ele>464.0</ele>
        <time>2018-10-03T07:36:18.000Z</time>
      </trkpt>
      <trkpt lat="42.41525333" lon="-7.88517333">
        <ele>464.0</ele>
        <time>2018-10-03T07:36:19.000Z</time>
      </trkpt>
      <trkpt lat="42.41527" lon="-7.88517">
        <ele>464.0</ele>
        <time>2018-10-03T07:36:20.000Z</time>
      </trkpt>
      <trkpt lat="42.41528667" lon="-7.88516667">
        <ele>464.0</ele>
        <time>2018-10-03T07:36:21.000Z</time>
      </trkpt>
      <trkpt lat="42.41530167" lon="-7.88516333">
        <ele>464.0</ele>
        <time>2018-10-03T07:36:22.000Z</time>
      </trkpt>
      <trkpt lat="42.415315" lon="-7.88516333">
        <ele>464.0</ele>
        <time>2018-10-03T07:36:23.000Z</time>
      </trkpt>
      <trkpt lat="42.41533" lon="-7.88516167">
        <ele>463.0</ele>
        <time>2018-10-03T07:36:24.000Z</time>
      </trkpt>
      <trkpt lat="42.41534667" lon="-7.88516">
        <ele>464.0</ele>
        <time>2018-10-03T07:36:25.000Z</time>
      </trkpt>
      <trkpt lat="42.415365" lon="-7.885155">
        <ele>463.0</ele>
        <time>2018-10-03T07:36:26.000Z</time>
      </trkpt>
      <trkpt lat="42.41538333" lon="-7.88515">
        <ele>463.0</ele>
        <time>2018-10-03T07:36:27.000Z</time>
      </trkpt>
      <trkpt lat="42.41540167" lon="-7.885145">
        <ele>463.0</ele>
        <time>2018-10-03T07:36:28.000Z</time>
      </trkpt>
      <trkpt lat="42.41542" lon="-7.88513833">
        <ele>463.0</ele>
        <time>2018-10-03T07:36:29.000Z</time>
      </trkpt>
      <trkpt lat="42.41543667" lon="-7.88513333">
        <ele>463.0</ele>
        <time>2018-10-03T07:36:30.000Z</time>
      </trkpt>
      <trkpt lat="42.415455" lon="-7.88512833">
        <ele>463.0</ele>
        <time>2018-10-03T07:36:31.000Z</time>
      </trkpt>
      <trkpt lat="42.41547167" lon="-7.88512167">
        <ele>463.0</ele>
        <time>2018-10-03T07:36:32.000Z</time>
      </trkpt>
      <trkpt lat="42.41548833" lon="-7.88511333">
        <ele>463.0</ele>
        <time>2018-10-03T07:36:33.000Z</time>
      </trkpt>
      <trkpt lat="42.41550333" lon="-7.88510833">
        <ele>463.0</ele>
        <time>2018-10-03T07:36:34.000Z</time>
      </trkpt>
      <trkpt lat="42.41551833" lon="-7.88510333">
        <ele>463.0</ele>
        <time>2018-10-03T07:36:35.000Z</time>
      </trkpt>
      <trkpt lat="42.41553333" lon="-7.88509667">
        <ele>462.0</ele>
        <time>2018-10-03T07:36:36.000Z</time>
      </trkpt>
      <trkpt lat="42.41555" lon="-7.88508833">
        <ele>462.0</ele>
        <time>2018-10-03T07:36:37.000Z</time>
      </trkpt>
      <trkpt lat="42.41556667" lon="-7.88508">
        <ele>462.0</ele>
        <time>2018-10-03T07:36:38.000Z</time>
      </trkpt>
      <trkpt lat="42.41558333" lon="-7.88507167">
        <ele>462.0</ele>
        <time>2018-10-03T07:36:39.000Z</time>
      </trkpt>
      <trkpt lat="42.41560167" lon="-7.885065">
        <ele>462.0</ele>
        <time>2018-10-03T07:36:40.000Z</time>
      </trkpt>
      <trkpt lat="42.41561833" lon="-7.88505833">
        <ele>462.0</ele>
        <time>2018-10-03T07:36:41.000Z</time>
      </trkpt>
      <trkpt lat="42.415635" lon="-7.885055">
        <ele>462.0</ele>
        <time>2018-10-03T07:36:42.000Z</time>
      </trkpt>
      <trkpt lat="42.41565167" lon="-7.88504833">
        <ele>461.0</ele>
        <time>2018-10-03T07:36:43.000Z</time>
      </trkpt>
      <trkpt lat="42.41566833" lon="-7.88504167">
        <ele>461.0</ele>
        <time>2018-10-03T07:36:44.000Z</time>
      </trkpt>
      <trkpt lat="42.41568667" lon="-7.88503667">
        <ele>461.0</ele>
        <time>2018-10-03T07:36:45.000Z</time>
      </trkpt>
      <trkpt lat="42.41570167" lon="-7.885035">
        <ele>461.0</ele>
        <time>2018-10-03T07:36:46.000Z</time>
      </trkpt>
      <trkpt lat="42.41571667" lon="-7.88503">
        <ele>461.0</ele>
        <time>2018-10-03T07:36:47.000Z</time>
      </trkpt>
      <trkpt lat="42.41573333" lon="-7.88502667">
        <ele>461.0</ele>
        <time>2018-10-03T07:36:48.000Z</time>
      </trkpt>
      <trkpt lat="42.41574833" lon="-7.88502667">
        <ele>461.0</ele>
        <time>2018-10-03T07:36:49.000Z</time>
      </trkpt>
      <trkpt lat="42.41576167" lon="-7.88502833">
        <ele>461.0</ele>
        <time>2018-10-03T07:36:50.000Z</time>
      </trkpt>
      <trkpt lat="42.41577667" lon="-7.885035">
        <ele>461.0</ele>
        <time>2018-10-03T07:36:51.000Z</time>
      </trkpt>
      <trkpt lat="42.41579167" lon="-7.88504333">
        <ele>461.0</ele>
        <time>2018-10-03T07:36:52.000Z</time>
      </trkpt>
      <trkpt lat="42.41580667" lon="-7.88505167">
        <ele>461.0</ele>
        <time>2018-10-03T07:36:53.000Z</time>
      </trkpt>
      <trkpt lat="42.41582333" lon="-7.88506167">
        <ele>461.0</ele>
        <time>2018-10-03T07:36:54.000Z</time>
      </trkpt>
      <trkpt lat="42.41583833" lon="-7.88507333">
        <ele>461.0</ele>
        <time>2018-10-03T07:36:55.000Z</time>
      </trkpt>
      <trkpt lat="42.415855" lon="-7.88508833">
        <ele>461.0</ele>
        <time>2018-10-03T07:36:56.000Z</time>
      </trkpt>
      <trkpt lat="42.41587" lon="-7.88510333">
        <ele>461.0</ele>
        <time>2018-10-03T07:36:57.000Z</time>
      </trkpt>
      <trkpt lat="42.41588833" lon="-7.88511667">
        <ele>461.0</ele>
        <time>2018-10-03T07:36:58.000Z</time>
      </trkpt>
      <trkpt lat="42.415905" lon="-7.88513167">
        <ele>461.0</ele>
        <time>2018-10-03T07:36:59.000Z</time>
      </trkpt>
      <trkpt lat="42.41592" lon="-7.88514167">
        <ele>461.0</ele>
        <time>2018-10-03T07:37:00.000Z</time>
      </trkpt>
      <trkpt lat="42.415935" lon="-7.88515">
        <ele>461.0</ele>
        <time>2018-10-03T07:37:01.000Z</time>
      </trkpt>
      <trkpt lat="42.41595" lon="-7.88516">
        <ele>461.0</ele>
        <time>2018-10-03T07:37:02.000Z</time>
      </trkpt>
      <trkpt lat="42.41596333" lon="-7.88517167">
        <ele>461.0</ele>
        <time>2018-10-03T07:37:03.000Z</time>
      </trkpt>
      <trkpt lat="42.41597833" lon="-7.88518">
        <ele>461.0</ele>
        <time>2018-10-03T07:37:04.000Z</time>
      </trkpt>
      <trkpt lat="42.41599667" lon="-7.88519">
        <ele>461.0</ele>
        <time>2018-10-03T07:37:05.000Z</time>
      </trkpt>
      <trkpt lat="42.416015" lon="-7.88520167">
        <ele>460.0</ele>
        <time>2018-10-03T07:37:06.000Z</time>
      </trkpt>
      <trkpt lat="42.41603167" lon="-7.88521167">
        <ele>460.0</ele>
        <time>2018-10-03T07:37:07.000Z</time>
      </trkpt>
      <trkpt lat="42.41604667" lon="-7.88522167">
        <ele>460.0</ele>
        <time>2018-10-03T07:37:08.000Z</time>
      </trkpt>
      <trkpt lat="42.41606333" lon="-7.885235">
        <ele>460.0</ele>
        <time>2018-10-03T07:37:09.000Z</time>
      </trkpt>
      <trkpt lat="42.41607833" lon="-7.88524833">
        <ele>459.0</ele>
        <time>2018-10-03T07:37:10.000Z</time>
      </trkpt>
      <trkpt lat="42.41609333" lon="-7.88526167">
        <ele>459.0</ele>
        <time>2018-10-03T07:37:11.000Z</time>
      </trkpt>
      <trkpt lat="42.41610667" lon="-7.885275">
        <ele>459.0</ele>
        <time>2018-10-03T07:37:12.000Z</time>
      </trkpt>
      <trkpt lat="42.41611833" lon="-7.88528667">
        <ele>459.0</ele>
        <time>2018-10-03T07:37:13.000Z</time>
      </trkpt>
      <trkpt lat="42.41613" lon="-7.88529833">
        <ele>459.0</ele>
        <time>2018-10-03T07:37:14.000Z</time>
      </trkpt>
      <trkpt lat="42.41614167" lon="-7.88531167">
        <ele>458.0</ele>
        <time>2018-10-03T07:37:15.000Z</time>
      </trkpt>
      <trkpt lat="42.41615333" lon="-7.88532667">
        <ele>458.0</ele>
        <time>2018-10-03T07:37:16.000Z</time>
      </trkpt>
      <trkpt lat="42.41616667" lon="-7.88533833">
        <ele>458.0</ele>
        <time>2018-10-03T07:37:17.000Z</time>
      </trkpt>
      <trkpt lat="42.41617833" lon="-7.88535">
        <ele>458.0</ele>
        <time>2018-10-03T07:37:18.000Z</time>
      </trkpt>
      <trkpt lat="42.41618833" lon="-7.88536333">
        <ele>457.0</ele>
        <time>2018-10-03T07:37:19.000Z</time>
      </trkpt>
      <trkpt lat="42.41619833" lon="-7.885375">
        <ele>457.0</ele>
        <time>2018-10-03T07:37:20.000Z</time>
      </trkpt>
      <trkpt lat="42.41620667" lon="-7.885385">
        <ele>457.0</ele>
        <time>2018-10-03T07:37:21.000Z</time>
      </trkpt>
      <trkpt lat="42.41621833" lon="-7.88539333">
        <ele>457.0</ele>
        <time>2018-10-03T07:37:22.000Z</time>
      </trkpt>
      <trkpt lat="42.41622833" lon="-7.885405">
        <ele>457.0</ele>
        <time>2018-10-03T07:37:23.000Z</time>
      </trkpt>
      <trkpt lat="42.41624" lon="-7.88541667">
        <ele>457.0</ele>
        <time>2018-10-03T07:37:24.000Z</time>
      </trkpt>
      <trkpt lat="42.41625167" lon="-7.88543">
        <ele>457.0</ele>
        <time>2018-10-03T07:37:25.000Z</time>
      </trkpt>
      <trkpt lat="42.41626667" lon="-7.88544167">
        <ele>457.0</ele>
        <time>2018-10-03T07:37:26.000Z</time>
      </trkpt>
      <trkpt lat="42.41628" lon="-7.88545167">
        <ele>457.0</ele>
        <time>2018-10-03T07:37:27.000Z</time>
      </trkpt>
      <trkpt lat="42.41629167" lon="-7.88546">
        <ele>457.0</ele>
        <time>2018-10-03T07:37:28.000Z</time>
      </trkpt>
      <trkpt lat="42.41630333" lon="-7.88547333">
        <ele>457.0</ele>
        <time>2018-10-03T07:37:29.000Z</time>
      </trkpt>
      <trkpt lat="42.41631333" lon="-7.885485">
        <ele>457.0</ele>
        <time>2018-10-03T07:37:30.000Z</time>
      </trkpt>
      <trkpt lat="42.41633167" lon="-7.88551">
        <ele>456.0</ele>
        <time>2018-10-03T07:37:31.000Z</time>
      </trkpt>
      <trkpt lat="42.416345" lon="-7.88552333">
        <ele>456.0</ele>
        <time>2018-10-03T07:37:32.000Z</time>
      </trkpt>
      <trkpt lat="42.416345" lon="-7.88552333">
        <ele>456.0</ele>
        <time>2018-10-03T07:37:33.000Z</time>
      </trkpt>
      <trkpt lat="42.41635833" lon="-7.88554">
        <ele>456.0</ele>
        <time>2018-10-03T07:37:34.000Z</time>
      </trkpt>
      <trkpt lat="42.41638333" lon="-7.885565">
        <ele>456.0</ele>
        <time>2018-10-03T07:37:35.000Z</time>
      </trkpt>
      <trkpt lat="42.41638333" lon="-7.885565">
        <ele>456.0</ele>
        <time>2018-10-03T07:37:36.000Z</time>
      </trkpt>
      <trkpt lat="42.41639333" lon="-7.88558167">
        <ele>456.0</ele>
        <time>2018-10-03T07:37:37.000Z</time>
      </trkpt>
      <trkpt lat="42.41640333" lon="-7.88559667">
        <ele>456.0</ele>
        <time>2018-10-03T07:37:38.000Z</time>
      </trkpt>
      <trkpt lat="42.41641333" lon="-7.88561167">
        <ele>456.0</ele>
        <time>2018-10-03T07:37:39.000Z</time>
      </trkpt>
      <trkpt lat="42.416425" lon="-7.88562833">
        <ele>456.0</ele>
        <time>2018-10-03T07:37:40.000Z</time>
      </trkpt>
      <trkpt lat="42.41643667" lon="-7.88564333">
        <ele>456.0</ele>
        <time>2018-10-03T07:37:41.000Z</time>
      </trkpt>
      <trkpt lat="42.41644833" lon="-7.88565333">
        <ele>456.0</ele>
        <time>2018-10-03T07:37:42.000Z</time>
      </trkpt>
      <trkpt lat="42.41646167" lon="-7.88566667">
        <ele>456.0</ele>
        <time>2018-10-03T07:37:43.000Z</time>
      </trkpt>
      <trkpt lat="42.416475" lon="-7.88568">
        <ele>456.0</ele>
        <time>2018-10-03T07:37:44.000Z</time>
      </trkpt>
      <trkpt lat="42.416485" lon="-7.88569333">
        <ele>456.0</ele>
        <time>2018-10-03T07:37:45.000Z</time>
      </trkpt>
      <trkpt lat="42.41649667" lon="-7.88570833">
        <ele>456.0</ele>
        <time>2018-10-03T07:37:46.000Z</time>
      </trkpt>
      <trkpt lat="42.41651167" lon="-7.885725">
        <ele>456.0</ele>
        <time>2018-10-03T07:37:47.000Z</time>
      </trkpt>
      <trkpt lat="42.41652667" lon="-7.88573833">
        <ele>456.0</ele>
        <time>2018-10-03T07:37:48.000Z</time>
      </trkpt>
      <trkpt lat="42.41654" lon="-7.88574833">
        <ele>456.0</ele>
        <time>2018-10-03T07:37:49.000Z</time>
      </trkpt>
      <trkpt lat="42.41655333" lon="-7.88576">
        <ele>457.0</ele>
        <time>2018-10-03T07:37:50.000Z</time>
      </trkpt>
      <trkpt lat="42.41656667" lon="-7.88577333">
        <ele>457.0</ele>
        <time>2018-10-03T07:37:51.000Z</time>
      </trkpt>
      <trkpt lat="42.41657667" lon="-7.88578667">
        <ele>457.0</ele>
        <time>2018-10-03T07:37:52.000Z</time>
      </trkpt>
      <trkpt lat="42.41658833" lon="-7.8858">
        <ele>457.0</ele>
        <time>2018-10-03T07:37:53.000Z</time>
      </trkpt>
      <trkpt lat="42.41660333" lon="-7.88581333">
        <ele>457.0</ele>
        <time>2018-10-03T07:37:54.000Z</time>
      </trkpt>
      <trkpt lat="42.41662" lon="-7.88583167">
        <ele>457.0</ele>
        <time>2018-10-03T07:37:55.000Z</time>
      </trkpt>
      <trkpt lat="42.416635" lon="-7.88584833">
        <ele>457.0</ele>
        <time>2018-10-03T07:37:56.000Z</time>
      </trkpt>
      <trkpt lat="42.41664667" lon="-7.88586167">
        <ele>457.0</ele>
        <time>2018-10-03T07:37:57.000Z</time>
      </trkpt>
      <trkpt lat="42.41665833" lon="-7.885875">
        <ele>457.0</ele>
        <time>2018-10-03T07:37:58.000Z</time>
      </trkpt>
      <trkpt lat="42.41667167" lon="-7.88588667">
        <ele>456.0</ele>
        <time>2018-10-03T07:37:59.000Z</time>
      </trkpt>
      <trkpt lat="42.416685" lon="-7.8859">
        <ele>456.0</ele>
        <time>2018-10-03T07:38:00.000Z</time>
      </trkpt>
      <trkpt lat="42.4167" lon="-7.88591333">
        <ele>456.0</ele>
        <time>2018-10-03T07:38:01.000Z</time>
      </trkpt>
      <trkpt lat="42.41671333" lon="-7.88593">
        <ele>456.0</ele>
        <time>2018-10-03T07:38:02.000Z</time>
      </trkpt>
      <trkpt lat="42.41672833" lon="-7.88594667">
        <ele>456.0</ele>
        <time>2018-10-03T07:38:03.000Z</time>
      </trkpt>
      <trkpt lat="42.41674167" lon="-7.88596167">
        <ele>456.0</ele>
        <time>2018-10-03T07:38:04.000Z</time>
      </trkpt>
      <trkpt lat="42.416755" lon="-7.88597667">
        <ele>456.0</ele>
        <time>2018-10-03T07:38:05.000Z</time>
      </trkpt>
      <trkpt lat="42.41676833" lon="-7.88599">
        <ele>456.0</ele>
        <time>2018-10-03T07:38:06.000Z</time>
      </trkpt>
      <trkpt lat="42.41678167" lon="-7.886">
        <ele>456.0</ele>
        <time>2018-10-03T07:38:07.000Z</time>
      </trkpt>
      <trkpt lat="42.41679833" lon="-7.886015">
        <ele>456.0</ele>
        <time>2018-10-03T07:38:08.000Z</time>
      </trkpt>
      <trkpt lat="42.41681333" lon="-7.88602833">
        <ele>456.0</ele>
        <time>2018-10-03T07:38:09.000Z</time>
      </trkpt>
      <trkpt lat="42.41682667" lon="-7.88604167">
        <ele>455.0</ele>
        <time>2018-10-03T07:38:10.000Z</time>
      </trkpt>
      <trkpt lat="42.41684167" lon="-7.88605667">
        <ele>455.0</ele>
        <time>2018-10-03T07:38:11.000Z</time>
      </trkpt>
      <trkpt lat="42.41685833" lon="-7.88607333">
        <ele>455.0</ele>
        <time>2018-10-03T07:38:12.000Z</time>
      </trkpt>
      <trkpt lat="42.41687333" lon="-7.88608833">
        <ele>455.0</ele>
        <time>2018-10-03T07:38:13.000Z</time>
      </trkpt>
      <trkpt lat="42.41688833" lon="-7.88610333">
        <ele>454.0</ele>
        <time>2018-10-03T07:38:14.000Z</time>
      </trkpt>
      <trkpt lat="42.41690667" lon="-7.88611667">
        <ele>454.0</ele>
        <time>2018-10-03T07:38:15.000Z</time>
      </trkpt>
      <trkpt lat="42.416925" lon="-7.88613333">
        <ele>454.0</ele>
        <time>2018-10-03T07:38:16.000Z</time>
      </trkpt>
      <trkpt lat="42.41694333" lon="-7.88615">
        <ele>453.0</ele>
        <time>2018-10-03T07:38:17.000Z</time>
      </trkpt>
      <trkpt lat="42.41695833" lon="-7.886165">
        <ele>453.0</ele>
        <time>2018-10-03T07:38:18.000Z</time>
      </trkpt>
      <trkpt lat="42.41697" lon="-7.88618">
        <ele>452.0</ele>
        <time>2018-10-03T07:38:19.000Z</time>
      </trkpt>
      <trkpt lat="42.41698333" lon="-7.88619667">
        <ele>452.0</ele>
        <time>2018-10-03T07:38:20.000Z</time>
      </trkpt>
      <trkpt lat="42.41699833" lon="-7.88621167">
        <ele>452.0</ele>
        <time>2018-10-03T07:38:21.000Z</time>
      </trkpt>
      <trkpt lat="42.41701167" lon="-7.88623">
        <ele>452.0</ele>
        <time>2018-10-03T07:38:22.000Z</time>
      </trkpt>
      <trkpt lat="42.41702667" lon="-7.88624667">
        <ele>452.0</ele>
        <time>2018-10-03T07:38:23.000Z</time>
      </trkpt>
      <trkpt lat="42.41704" lon="-7.88626333">
        <ele>451.0</ele>
        <time>2018-10-03T07:38:24.000Z</time>
      </trkpt>
      <trkpt lat="42.41705" lon="-7.88627833">
        <ele>451.0</ele>
        <time>2018-10-03T07:38:25.000Z</time>
      </trkpt>
      <trkpt lat="42.41706" lon="-7.88629167">
        <ele>451.0</ele>
        <time>2018-10-03T07:38:26.000Z</time>
      </trkpt>
      <trkpt lat="42.41707167" lon="-7.88630167">
        <ele>451.0</ele>
        <time>2018-10-03T07:38:27.000Z</time>
      </trkpt>
      <trkpt lat="42.41708333" lon="-7.886315">
        <ele>451.0</ele>
        <time>2018-10-03T07:38:28.000Z</time>
      </trkpt>
      <trkpt lat="42.41709833" lon="-7.88632833">
        <ele>451.0</ele>
        <time>2018-10-03T07:38:29.000Z</time>
      </trkpt>
      <trkpt lat="42.41711333" lon="-7.88634">
        <ele>451.0</ele>
        <time>2018-10-03T07:38:30.000Z</time>
      </trkpt>
      <trkpt lat="42.417125" lon="-7.88635167">
        <ele>451.0</ele>
        <time>2018-10-03T07:38:31.000Z</time>
      </trkpt>
      <trkpt lat="42.41713667" lon="-7.88636333">
        <ele>451.0</ele>
        <time>2018-10-03T07:38:32.000Z</time>
      </trkpt>
      <trkpt lat="42.41714833" lon="-7.88637667">
        <ele>451.0</ele>
        <time>2018-10-03T07:38:33.000Z</time>
      </trkpt>
      <trkpt lat="42.41716" lon="-7.88639">
        <ele>451.0</ele>
        <time>2018-10-03T07:38:34.000Z</time>
      </trkpt>
      <trkpt lat="42.41717333" lon="-7.88640333">
        <ele>451.0</ele>
        <time>2018-10-03T07:38:35.000Z</time>
      </trkpt>
      <trkpt lat="42.41718667" lon="-7.88641667">
        <ele>451.0</ele>
        <time>2018-10-03T07:38:36.000Z</time>
      </trkpt>
      <trkpt lat="42.4172" lon="-7.88643">
        <ele>451.0</ele>
        <time>2018-10-03T07:38:37.000Z</time>
      </trkpt>
      <trkpt lat="42.41721333" lon="-7.88644167">
        <ele>451.0</ele>
        <time>2018-10-03T07:38:38.000Z</time>
      </trkpt>
      <trkpt lat="42.41722667" lon="-7.886455">
        <ele>451.0</ele>
        <time>2018-10-03T07:38:39.000Z</time>
      </trkpt>
      <trkpt lat="42.41724" lon="-7.88646667">
        <ele>451.0</ele>
        <time>2018-10-03T07:38:40.000Z</time>
      </trkpt>
      <trkpt lat="42.417255" lon="-7.88647833">
        <ele>451.0</ele>
        <time>2018-10-03T07:38:41.000Z</time>
      </trkpt>
      <trkpt lat="42.41726833" lon="-7.88649">
        <ele>451.0</ele>
        <time>2018-10-03T07:38:42.000Z</time>
      </trkpt>
      <trkpt lat="42.41728333" lon="-7.88650333">
        <ele>451.0</ele>
        <time>2018-10-03T07:38:43.000Z</time>
      </trkpt>
      <trkpt lat="42.41729667" lon="-7.88651833">
        <ele>451.0</ele>
        <time>2018-10-03T07:38:44.000Z</time>
      </trkpt>
      <trkpt lat="42.41731167" lon="-7.88653167">
        <ele>451.0</ele>
        <time>2018-10-03T07:38:45.000Z</time>
      </trkpt>
      <trkpt lat="42.417325" lon="-7.88654333">
        <ele>451.0</ele>
        <time>2018-10-03T07:38:46.000Z</time>
      </trkpt>
      <trkpt lat="42.41734" lon="-7.88655333">
        <ele>452.0</ele>
        <time>2018-10-03T07:38:47.000Z</time>
      </trkpt>
      <trkpt lat="42.41735667" lon="-7.88656833">
        <ele>452.0</ele>
        <time>2018-10-03T07:38:48.000Z</time>
      </trkpt>
      <trkpt lat="42.41737333" lon="-7.886585">
        <ele>452.0</ele>
        <time>2018-10-03T07:38:49.000Z</time>
      </trkpt>
      <trkpt lat="42.417385" lon="-7.886605">
        <ele>452.0</ele>
        <time>2018-10-03T07:38:50.000Z</time>
      </trkpt>
      <trkpt lat="42.417395" lon="-7.88662833">
        <ele>452.0</ele>
        <time>2018-10-03T07:38:51.000Z</time>
      </trkpt>
      <trkpt lat="42.417405" lon="-7.88665">
        <ele>452.0</ele>
        <time>2018-10-03T07:38:52.000Z</time>
      </trkpt>
      <trkpt lat="42.417415" lon="-7.88666667">
        <ele>452.0</ele>
        <time>2018-10-03T07:38:53.000Z</time>
      </trkpt>
      <trkpt lat="42.41742667" lon="-7.88668667">
        <ele>452.0</ele>
        <time>2018-10-03T07:38:54.000Z</time>
      </trkpt>
      <trkpt lat="42.41743833" lon="-7.886705">
        <ele>452.0</ele>
        <time>2018-10-03T07:38:55.000Z</time>
      </trkpt>
      <trkpt lat="42.41745" lon="-7.88672167">
        <ele>452.0</ele>
        <time>2018-10-03T07:38:56.000Z</time>
      </trkpt>
      <trkpt lat="42.417465" lon="-7.886735">
        <ele>452.0</ele>
        <time>2018-10-03T07:38:57.000Z</time>
      </trkpt>
      <trkpt lat="42.41747833" lon="-7.88674833">
        <ele>452.0</ele>
        <time>2018-10-03T07:38:58.000Z</time>
      </trkpt>
      <trkpt lat="42.41749167" lon="-7.88676333">
        <ele>452.0</ele>
        <time>2018-10-03T07:38:59.000Z</time>
      </trkpt>
      <trkpt lat="42.41750333" lon="-7.88677667">
        <ele>452.0</ele>
        <time>2018-10-03T07:39:00.000Z</time>
      </trkpt>
      <trkpt lat="42.41752" lon="-7.88678667">
        <ele>452.0</ele>
        <time>2018-10-03T07:39:01.000Z</time>
      </trkpt>
      <trkpt lat="42.41753333" lon="-7.88679667">
        <ele>452.0</ele>
        <time>2018-10-03T07:39:02.000Z</time>
      </trkpt>
      <trkpt lat="42.41754667" lon="-7.88681">
        <ele>452.0</ele>
        <time>2018-10-03T07:39:03.000Z</time>
      </trkpt>
      <trkpt lat="42.41756" lon="-7.88682333">
        <ele>451.0</ele>
        <time>2018-10-03T07:39:04.000Z</time>
      </trkpt>
      <trkpt lat="42.41757167" lon="-7.88683667">
        <ele>451.0</ele>
        <time>2018-10-03T07:39:05.000Z</time>
      </trkpt>
      <trkpt lat="42.417585" lon="-7.88685">
        <ele>451.0</ele>
        <time>2018-10-03T07:39:06.000Z</time>
      </trkpt>
      <trkpt lat="42.41759667" lon="-7.88686333">
        <ele>451.0</ele>
        <time>2018-10-03T07:39:07.000Z</time>
      </trkpt>
      <trkpt lat="42.41761" lon="-7.88687667">
        <ele>451.0</ele>
        <time>2018-10-03T07:39:08.000Z</time>
      </trkpt>
      <trkpt lat="42.41762333" lon="-7.88689">
        <ele>450.0</ele>
        <time>2018-10-03T07:39:09.000Z</time>
      </trkpt>
      <trkpt lat="42.417635" lon="-7.88689833">
        <ele>450.0</ele>
        <time>2018-10-03T07:39:10.000Z</time>
      </trkpt>
      <trkpt lat="42.41764833" lon="-7.88690667">
        <ele>450.0</ele>
        <time>2018-10-03T07:39:11.000Z</time>
      </trkpt>
      <trkpt lat="42.41766167" lon="-7.88691833">
        <ele>450.0</ele>
        <time>2018-10-03T07:39:12.000Z</time>
      </trkpt>
      <trkpt lat="42.41767333" lon="-7.88693">
        <ele>450.0</ele>
        <time>2018-10-03T07:39:13.000Z</time>
      </trkpt>
      <trkpt lat="42.41768667" lon="-7.88694">
        <ele>449.0</ele>
        <time>2018-10-03T07:39:14.000Z</time>
      </trkpt>
      <trkpt lat="42.41769833" lon="-7.88695">
        <ele>449.0</ele>
        <time>2018-10-03T07:39:15.000Z</time>
      </trkpt>
      <trkpt lat="42.41771167" lon="-7.88696167">
        <ele>449.0</ele>
        <time>2018-10-03T07:39:16.000Z</time>
      </trkpt>
      <trkpt lat="42.41772667" lon="-7.88697">
        <ele>449.0</ele>
        <time>2018-10-03T07:39:17.000Z</time>
      </trkpt>
      <trkpt lat="42.41774" lon="-7.88698167">
        <ele>448.0</ele>
        <time>2018-10-03T07:39:18.000Z</time>
      </trkpt>
      <trkpt lat="42.417755" lon="-7.886995">
        <ele>448.0</ele>
        <time>2018-10-03T07:39:19.000Z</time>
      </trkpt>
      <trkpt lat="42.41776667" lon="-7.88700667">
        <ele>448.0</ele>
        <time>2018-10-03T07:39:20.000Z</time>
      </trkpt>
      <trkpt lat="42.41777667" lon="-7.88702">
        <ele>448.0</ele>
        <time>2018-10-03T07:39:21.000Z</time>
      </trkpt>
      <trkpt lat="42.41778667" lon="-7.887035">
        <ele>447.0</ele>
        <time>2018-10-03T07:39:22.000Z</time>
      </trkpt>
      <trkpt lat="42.41779667" lon="-7.88705333">
        <ele>447.0</ele>
        <time>2018-10-03T07:39:23.000Z</time>
      </trkpt>
      <trkpt lat="42.417805" lon="-7.88707333">
        <ele>446.0</ele>
        <time>2018-10-03T07:39:24.000Z</time>
      </trkpt>
      <trkpt lat="42.417815" lon="-7.88709167">
        <ele>446.0</ele>
        <time>2018-10-03T07:39:25.000Z</time>
      </trkpt>
      <trkpt lat="42.41783" lon="-7.88710667">
        <ele>445.0</ele>
        <time>2018-10-03T07:39:26.000Z</time>
      </trkpt>
      <trkpt lat="42.41784333" lon="-7.88712">
        <ele>445.0</ele>
        <time>2018-10-03T07:39:27.000Z</time>
      </trkpt>
      <trkpt lat="42.41785667" lon="-7.88713333">
        <ele>444.0</ele>
        <time>2018-10-03T07:39:28.000Z</time>
      </trkpt>
      <trkpt lat="42.41787" lon="-7.887145">
        <ele>444.0</ele>
        <time>2018-10-03T07:39:29.000Z</time>
      </trkpt>
      <trkpt lat="42.417885" lon="-7.88715833">
        <ele>443.0</ele>
        <time>2018-10-03T07:39:30.000Z</time>
      </trkpt>
      <trkpt lat="42.41789833" lon="-7.88717167">
        <ele>443.0</ele>
        <time>2018-10-03T07:39:31.000Z</time>
      </trkpt>
      <trkpt lat="42.41791" lon="-7.887185">
        <ele>442.0</ele>
        <time>2018-10-03T07:39:32.000Z</time>
      </trkpt>
      <trkpt lat="42.41792167" lon="-7.88719667">
        <ele>442.0</ele>
        <time>2018-10-03T07:39:33.000Z</time>
      </trkpt>
      <trkpt lat="42.417935" lon="-7.887205">
        <ele>442.0</ele>
        <time>2018-10-03T07:39:34.000Z</time>
      </trkpt>
      <trkpt lat="42.41794833" lon="-7.88721333">
        <ele>442.0</ele>
        <time>2018-10-03T07:39:35.000Z</time>
      </trkpt>
      <trkpt lat="42.41796167" lon="-7.88722333">
        <ele>441.0</ele>
        <time>2018-10-03T07:39:36.000Z</time>
      </trkpt>
      <trkpt lat="42.41797667" lon="-7.88723333">
        <ele>441.0</ele>
        <time>2018-10-03T07:39:37.000Z</time>
      </trkpt>
      <trkpt lat="42.41798833" lon="-7.88724667">
        <ele>441.0</ele>
        <time>2018-10-03T07:39:38.000Z</time>
      </trkpt>
      <trkpt lat="42.41799667" lon="-7.88726333">
        <ele>441.0</ele>
        <time>2018-10-03T07:39:39.000Z</time>
      </trkpt>
      <trkpt lat="42.418005" lon="-7.88728">
        <ele>441.0</ele>
        <time>2018-10-03T07:39:40.000Z</time>
      </trkpt>
      <trkpt lat="42.418015" lon="-7.88729833">
        <ele>441.0</ele>
        <time>2018-10-03T07:39:41.000Z</time>
      </trkpt>
      <trkpt lat="42.41802333" lon="-7.88731667">
        <ele>441.0</ele>
        <time>2018-10-03T07:39:42.000Z</time>
      </trkpt>
      <trkpt lat="42.418035" lon="-7.887335">
        <ele>441.0</ele>
        <time>2018-10-03T07:39:43.000Z</time>
      </trkpt>
      <trkpt lat="42.41805" lon="-7.88735167">
        <ele>440.0</ele>
        <time>2018-10-03T07:39:44.000Z</time>
      </trkpt>
      <trkpt lat="42.41806167" lon="-7.88737167">
        <ele>440.0</ele>
        <time>2018-10-03T07:39:45.000Z</time>
      </trkpt>
      <trkpt lat="42.41807167" lon="-7.88738833">
        <ele>440.0</ele>
        <time>2018-10-03T07:39:46.000Z</time>
      </trkpt>
      <trkpt lat="42.41808167" lon="-7.887405">
        <ele>440.0</ele>
        <time>2018-10-03T07:39:47.000Z</time>
      </trkpt>
      <trkpt lat="42.41809" lon="-7.88741833">
        <ele>440.0</ele>
        <time>2018-10-03T07:39:48.000Z</time>
      </trkpt>
      <trkpt lat="42.41809833" lon="-7.88743667">
        <ele>439.0</ele>
        <time>2018-10-03T07:39:49.000Z</time>
      </trkpt>
      <trkpt lat="42.41810833" lon="-7.88745667">
        <ele>439.0</ele>
        <time>2018-10-03T07:39:50.000Z</time>
      </trkpt>
      <trkpt lat="42.41812167" lon="-7.88747667">
        <ele>439.0</ele>
        <time>2018-10-03T07:39:51.000Z</time>
      </trkpt>
      <trkpt lat="42.418135" lon="-7.88749667">
        <ele>439.0</ele>
        <time>2018-10-03T07:39:52.000Z</time>
      </trkpt>
      <trkpt lat="42.41814833" lon="-7.88751833">
        <ele>439.0</ele>
        <time>2018-10-03T07:39:53.000Z</time>
      </trkpt>
      <trkpt lat="42.41816" lon="-7.88754">
        <ele>439.0</ele>
        <time>2018-10-03T07:39:54.000Z</time>
      </trkpt>
      <trkpt lat="42.41817167" lon="-7.88756167">
        <ele>439.0</ele>
        <time>2018-10-03T07:39:55.000Z</time>
      </trkpt>
      <trkpt lat="42.41818167" lon="-7.88758">
        <ele>439.0</ele>
        <time>2018-10-03T07:39:56.000Z</time>
      </trkpt>
      <trkpt lat="42.41819333" lon="-7.88759833">
        <ele>439.0</ele>
        <time>2018-10-03T07:39:57.000Z</time>
      </trkpt>
      <trkpt lat="42.41820667" lon="-7.887615">
        <ele>439.0</ele>
        <time>2018-10-03T07:39:58.000Z</time>
      </trkpt>
      <trkpt lat="42.41821833" lon="-7.88763333">
        <ele>439.0</ele>
        <time>2018-10-03T07:39:59.000Z</time>
      </trkpt>
      <trkpt lat="42.41822833" lon="-7.88765">
        <ele>439.0</ele>
        <time>2018-10-03T07:40:00.000Z</time>
      </trkpt>
      <trkpt lat="42.41824" lon="-7.88766333">
        <ele>439.0</ele>
        <time>2018-10-03T07:40:01.000Z</time>
      </trkpt>
      <trkpt lat="42.41825167" lon="-7.88767833">
        <ele>439.0</ele>
        <time>2018-10-03T07:40:02.000Z</time>
      </trkpt>
      <trkpt lat="42.41826333" lon="-7.88769167">
        <ele>439.0</ele>
        <time>2018-10-03T07:40:03.000Z</time>
      </trkpt>
      <trkpt lat="42.41827667" lon="-7.887705">
        <ele>439.0</ele>
        <time>2018-10-03T07:40:04.000Z</time>
      </trkpt>
      <trkpt lat="42.41828833" lon="-7.88772333">
        <ele>439.0</ele>
        <time>2018-10-03T07:40:05.000Z</time>
      </trkpt>
      <trkpt lat="42.41829833" lon="-7.88774">
        <ele>439.0</ele>
        <time>2018-10-03T07:40:06.000Z</time>
      </trkpt>
      <trkpt lat="42.41830667" lon="-7.887755">
        <ele>440.0</ele>
        <time>2018-10-03T07:40:07.000Z</time>
      </trkpt>
      <trkpt lat="42.41831667" lon="-7.887775">
        <ele>440.0</ele>
        <time>2018-10-03T07:40:08.000Z</time>
      </trkpt>
      <trkpt lat="42.41832667" lon="-7.887795">
        <ele>440.0</ele>
        <time>2018-10-03T07:40:09.000Z</time>
      </trkpt>
      <trkpt lat="42.418335" lon="-7.88781167">
        <ele>440.0</ele>
        <time>2018-10-03T07:40:10.000Z</time>
      </trkpt>
      <trkpt lat="42.41834333" lon="-7.887825">
        <ele>440.0</ele>
        <time>2018-10-03T07:40:11.000Z</time>
      </trkpt>
      <trkpt lat="42.41834833" lon="-7.88784">
        <ele>440.0</ele>
        <time>2018-10-03T07:40:12.000Z</time>
      </trkpt>
      <trkpt lat="42.41835333" lon="-7.88785333">
        <ele>440.0</ele>
        <time>2018-10-03T07:40:13.000Z</time>
      </trkpt>
      <trkpt lat="42.41836" lon="-7.88787167">
        <ele>440.0</ele>
        <time>2018-10-03T07:40:14.000Z</time>
      </trkpt>
      <trkpt lat="42.41836833" lon="-7.88789167">
        <ele>440.0</ele>
        <time>2018-10-03T07:40:15.000Z</time>
      </trkpt>
      <trkpt lat="42.418375" lon="-7.88791167">
        <ele>440.0</ele>
        <time>2018-10-03T07:40:16.000Z</time>
      </trkpt>
      <trkpt lat="42.41838167" lon="-7.88793">
        <ele>440.0</ele>
        <time>2018-10-03T07:40:17.000Z</time>
      </trkpt>
      <trkpt lat="42.41838667" lon="-7.88794833">
        <ele>440.0</ele>
        <time>2018-10-03T07:40:18.000Z</time>
      </trkpt>
      <trkpt lat="42.418395" lon="-7.88796667">
        <ele>440.0</ele>
        <time>2018-10-03T07:40:19.000Z</time>
      </trkpt>
      <trkpt lat="42.41840333" lon="-7.887985">
        <ele>439.0</ele>
        <time>2018-10-03T07:40:20.000Z</time>
      </trkpt>
      <trkpt lat="42.41841" lon="-7.888005">
        <ele>439.0</ele>
        <time>2018-10-03T07:40:21.000Z</time>
      </trkpt>
      <trkpt lat="42.41841833" lon="-7.88802167">
        <ele>440.0</ele>
        <time>2018-10-03T07:40:22.000Z</time>
      </trkpt>
      <trkpt lat="42.41843" lon="-7.88804">
        <ele>440.0</ele>
        <time>2018-10-03T07:40:23.000Z</time>
      </trkpt>
      <trkpt lat="42.41844167" lon="-7.88805333">
        <ele>439.0</ele>
        <time>2018-10-03T07:40:24.000Z</time>
      </trkpt>
      <trkpt lat="42.41845" lon="-7.888065">
        <ele>439.0</ele>
        <time>2018-10-03T07:40:25.000Z</time>
      </trkpt>
      <trkpt lat="42.41846" lon="-7.88807667">
        <ele>439.0</ele>
        <time>2018-10-03T07:40:26.000Z</time>
      </trkpt>
      <trkpt lat="42.41847" lon="-7.88808833">
        <ele>439.0</ele>
        <time>2018-10-03T07:40:27.000Z</time>
      </trkpt>
      <trkpt lat="42.41848167" lon="-7.88810333">
        <ele>439.0</ele>
        <time>2018-10-03T07:40:28.000Z</time>
      </trkpt>
      <trkpt lat="42.418495" lon="-7.88812">
        <ele>439.0</ele>
        <time>2018-10-03T07:40:29.000Z</time>
      </trkpt>
      <trkpt lat="42.41850833" lon="-7.88814">
        <ele>439.0</ele>
        <time>2018-10-03T07:40:30.000Z</time>
      </trkpt>
      <trkpt lat="42.41852333" lon="-7.88815667">
        <ele>439.0</ele>
        <time>2018-10-03T07:40:31.000Z</time>
      </trkpt>
      <trkpt lat="42.41853667" lon="-7.88817167">
        <ele>438.0</ele>
        <time>2018-10-03T07:40:32.000Z</time>
      </trkpt>
      <trkpt lat="42.41855" lon="-7.88818667">
        <ele>438.0</ele>
        <time>2018-10-03T07:40:33.000Z</time>
      </trkpt>
      <trkpt lat="42.41856333" lon="-7.88819833">
        <ele>438.0</ele>
        <time>2018-10-03T07:40:34.000Z</time>
      </trkpt>
      <trkpt lat="42.41857667" lon="-7.88821">
        <ele>438.0</ele>
        <time>2018-10-03T07:40:35.000Z</time>
      </trkpt>
      <trkpt lat="42.41859167" lon="-7.88822167">
        <ele>437.0</ele>
        <time>2018-10-03T07:40:36.000Z</time>
      </trkpt>
      <trkpt lat="42.41860667" lon="-7.88823667">
        <ele>437.0</ele>
        <time>2018-10-03T07:40:37.000Z</time>
      </trkpt>
      <trkpt lat="42.41862333" lon="-7.88825">
        <ele>437.0</ele>
        <time>2018-10-03T07:40:38.000Z</time>
      </trkpt>
      <trkpt lat="42.41864" lon="-7.88826167">
        <ele>437.0</ele>
        <time>2018-10-03T07:40:39.000Z</time>
      </trkpt>
      <trkpt lat="42.418655" lon="-7.88827167">
        <ele>437.0</ele>
        <time>2018-10-03T07:40:40.000Z</time>
      </trkpt>
      <trkpt lat="42.41867167" lon="-7.888285">
        <ele>437.0</ele>
        <time>2018-10-03T07:40:41.000Z</time>
      </trkpt>
      <trkpt lat="42.41868667" lon="-7.88829667">
        <ele>437.0</ele>
        <time>2018-10-03T07:40:42.000Z</time>
      </trkpt>
      <trkpt lat="42.41870167" lon="-7.88831">
        <ele>437.0</ele>
        <time>2018-10-03T07:40:43.000Z</time>
      </trkpt>
      <trkpt lat="42.41871667" lon="-7.88832333">
        <ele>437.0</ele>
        <time>2018-10-03T07:40:44.000Z</time>
      </trkpt>
      <trkpt lat="42.41873" lon="-7.88834">
        <ele>437.0</ele>
        <time>2018-10-03T07:40:45.000Z</time>
      </trkpt>
      <trkpt lat="42.41874167" lon="-7.88835833">
        <ele>437.0</ele>
        <time>2018-10-03T07:40:46.000Z</time>
      </trkpt>
      <trkpt lat="42.41875333" lon="-7.888375">
        <ele>437.0</ele>
        <time>2018-10-03T07:40:47.000Z</time>
      </trkpt>
      <trkpt lat="42.41876667" lon="-7.88839">
        <ele>437.0</ele>
        <time>2018-10-03T07:40:48.000Z</time>
      </trkpt>
      <trkpt lat="42.41878" lon="-7.888405">
        <ele>437.0</ele>
        <time>2018-10-03T07:40:49.000Z</time>
      </trkpt>
      <trkpt lat="42.41879333" lon="-7.88842">
        <ele>437.0</ele>
        <time>2018-10-03T07:40:50.000Z</time>
      </trkpt>
      <trkpt lat="42.41880833" lon="-7.88843333">
        <ele>437.0</ele>
        <time>2018-10-03T07:40:51.000Z</time>
      </trkpt>
      <trkpt lat="42.41882333" lon="-7.88844833">
        <ele>436.0</ele>
        <time>2018-10-03T07:40:52.000Z</time>
      </trkpt>
      <trkpt lat="42.41883833" lon="-7.88846">
        <ele>436.0</ele>
        <time>2018-10-03T07:40:53.000Z</time>
      </trkpt>
      <trkpt lat="42.41885167" lon="-7.88847333">
        <ele>436.0</ele>
        <time>2018-10-03T07:40:54.000Z</time>
      </trkpt>
      <trkpt lat="42.418865" lon="-7.88848667">
        <ele>436.0</ele>
        <time>2018-10-03T07:40:55.000Z</time>
      </trkpt>
      <trkpt lat="42.41887667" lon="-7.88850167">
        <ele>436.0</ele>
        <time>2018-10-03T07:40:56.000Z</time>
      </trkpt>
      <trkpt lat="42.41889" lon="-7.88851833">
        <ele>436.0</ele>
        <time>2018-10-03T07:40:57.000Z</time>
      </trkpt>
      <trkpt lat="42.41890167" lon="-7.888535">
        <ele>436.0</ele>
        <time>2018-10-03T07:40:58.000Z</time>
      </trkpt>
      <trkpt lat="42.41891333" lon="-7.88855167">
        <ele>436.0</ele>
        <time>2018-10-03T07:40:59.000Z</time>
      </trkpt>
      <trkpt lat="42.41892333" lon="-7.88856833">
        <ele>436.0</ele>
        <time>2018-10-03T07:41:00.000Z</time>
      </trkpt>
      <trkpt lat="42.418935" lon="-7.88858167">
        <ele>436.0</ele>
        <time>2018-10-03T07:41:01.000Z</time>
      </trkpt>
      <trkpt lat="42.41894833" lon="-7.88859667">
        <ele>436.0</ele>
        <time>2018-10-03T07:41:02.000Z</time>
      </trkpt>
      <trkpt lat="42.41896" lon="-7.88861">
        <ele>436.0</ele>
        <time>2018-10-03T07:41:03.000Z</time>
      </trkpt>
      <trkpt lat="42.418975" lon="-7.88862167">
        <ele>436.0</ele>
        <time>2018-10-03T07:41:04.000Z</time>
      </trkpt>
      <trkpt lat="42.41899167" lon="-7.88863333">
        <ele>436.0</ele>
        <time>2018-10-03T07:41:05.000Z</time>
      </trkpt>
      <trkpt lat="42.419005" lon="-7.888645">
        <ele>436.0</ele>
        <time>2018-10-03T07:41:06.000Z</time>
      </trkpt>
      <trkpt lat="42.41902" lon="-7.888655">
        <ele>436.0</ele>
        <time>2018-10-03T07:41:07.000Z</time>
      </trkpt>
      <trkpt lat="42.41903333" lon="-7.888665">
        <ele>436.0</ele>
        <time>2018-10-03T07:41:08.000Z</time>
      </trkpt>
      <trkpt lat="42.41904667" lon="-7.88867833">
        <ele>436.0</ele>
        <time>2018-10-03T07:41:09.000Z</time>
      </trkpt>
      <trkpt lat="42.41906167" lon="-7.88869167">
        <ele>436.0</ele>
        <time>2018-10-03T07:41:10.000Z</time>
      </trkpt>
      <trkpt lat="42.419075" lon="-7.88870667">
        <ele>436.0</ele>
        <time>2018-10-03T07:41:11.000Z</time>
      </trkpt>
      <trkpt lat="42.419085" lon="-7.88872333">
        <ele>436.0</ele>
        <time>2018-10-03T07:41:12.000Z</time>
      </trkpt>
      <trkpt lat="42.41909833" lon="-7.88873833">
        <ele>436.0</ele>
        <time>2018-10-03T07:41:13.000Z</time>
      </trkpt>
      <trkpt lat="42.41911" lon="-7.88875667">
        <ele>436.0</ele>
        <time>2018-10-03T07:41:14.000Z</time>
      </trkpt>
      <trkpt lat="42.419125" lon="-7.888775">
        <ele>436.0</ele>
        <time>2018-10-03T07:41:15.000Z</time>
      </trkpt>
      <trkpt lat="42.41913667" lon="-7.88879">
        <ele>436.0</ele>
        <time>2018-10-03T07:41:16.000Z</time>
      </trkpt>
      <trkpt lat="42.41914833" lon="-7.888805">
        <ele>435.0</ele>
        <time>2018-10-03T07:41:17.000Z</time>
      </trkpt>
      <trkpt lat="42.41916167" lon="-7.88881667">
        <ele>435.0</ele>
        <time>2018-10-03T07:41:18.000Z</time>
      </trkpt>
      <trkpt lat="42.41917667" lon="-7.88883">
        <ele>435.0</ele>
        <time>2018-10-03T07:41:19.000Z</time>
      </trkpt>
      <trkpt lat="42.41918833" lon="-7.88884667">
        <ele>435.0</ele>
        <time>2018-10-03T07:41:20.000Z</time>
      </trkpt>
      <trkpt lat="42.41919833" lon="-7.888865">
        <ele>434.0</ele>
        <time>2018-10-03T07:41:21.000Z</time>
      </trkpt>
      <trkpt lat="42.41921" lon="-7.88888167">
        <ele>434.0</ele>
        <time>2018-10-03T07:41:22.000Z</time>
      </trkpt>
      <trkpt lat="42.41922333" lon="-7.88890167">
        <ele>434.0</ele>
        <time>2018-10-03T07:41:23.000Z</time>
      </trkpt>
      <trkpt lat="42.41923667" lon="-7.88892">
        <ele>434.0</ele>
        <time>2018-10-03T07:41:24.000Z</time>
      </trkpt>
      <trkpt lat="42.41925" lon="-7.88894">
        <ele>433.0</ele>
        <time>2018-10-03T07:41:25.000Z</time>
      </trkpt>
      <trkpt lat="42.419265" lon="-7.88895833">
        <ele>433.0</ele>
        <time>2018-10-03T07:41:26.000Z</time>
      </trkpt>
      <trkpt lat="42.41927667" lon="-7.88897333">
        <ele>433.0</ele>
        <time>2018-10-03T07:41:27.000Z</time>
      </trkpt>
      <trkpt lat="42.41929167" lon="-7.88898833">
        <ele>433.0</ele>
        <time>2018-10-03T07:41:28.000Z</time>
      </trkpt>
      <trkpt lat="42.419305" lon="-7.889005">
        <ele>432.0</ele>
        <time>2018-10-03T07:41:29.000Z</time>
      </trkpt>
      <trkpt lat="42.41931833" lon="-7.88902167">
        <ele>432.0</ele>
        <time>2018-10-03T07:41:30.000Z</time>
      </trkpt>
      <trkpt lat="42.41933333" lon="-7.88904">
        <ele>432.0</ele>
        <time>2018-10-03T07:41:31.000Z</time>
      </trkpt>
      <trkpt lat="42.41934667" lon="-7.889055">
        <ele>432.0</ele>
        <time>2018-10-03T07:41:32.000Z</time>
      </trkpt>
      <trkpt lat="42.41936333" lon="-7.88907">
        <ele>432.0</ele>
        <time>2018-10-03T07:41:33.000Z</time>
      </trkpt>
      <trkpt lat="42.41937833" lon="-7.88908333">
        <ele>432.0</ele>
        <time>2018-10-03T07:41:34.000Z</time>
      </trkpt>
      <trkpt lat="42.41939167" lon="-7.8891">
        <ele>432.0</ele>
        <time>2018-10-03T07:41:35.000Z</time>
      </trkpt>
      <trkpt lat="42.419405" lon="-7.889115">
        <ele>431.0</ele>
        <time>2018-10-03T07:41:36.000Z</time>
      </trkpt>
      <trkpt lat="42.41942" lon="-7.88912667">
        <ele>431.0</ele>
        <time>2018-10-03T07:41:37.000Z</time>
      </trkpt>
      <trkpt lat="42.419435" lon="-7.88913667">
        <ele>431.0</ele>
        <time>2018-10-03T07:41:38.000Z</time>
      </trkpt>
      <trkpt lat="42.41945" lon="-7.889145">
        <ele>430.0</ele>
        <time>2018-10-03T07:41:39.000Z</time>
      </trkpt>
      <trkpt lat="42.41946833" lon="-7.88915667">
        <ele>430.0</ele>
        <time>2018-10-03T07:41:40.000Z</time>
      </trkpt>
      <trkpt lat="42.419485" lon="-7.88916833">
        <ele>430.0</ele>
        <time>2018-10-03T07:41:41.000Z</time>
      </trkpt>
      <trkpt lat="42.41950333" lon="-7.889175">
        <ele>430.0</ele>
        <time>2018-10-03T07:41:42.000Z</time>
      </trkpt>
      <trkpt lat="42.41951667" lon="-7.88918333">
        <ele>430.0</ele>
        <time>2018-10-03T07:41:43.000Z</time>
      </trkpt>
      <trkpt lat="42.41953167" lon="-7.88919167">
        <ele>430.0</ele>
        <time>2018-10-03T07:41:44.000Z</time>
      </trkpt>
      <trkpt lat="42.41954667" lon="-7.88919833">
        <ele>429.0</ele>
        <time>2018-10-03T07:41:45.000Z</time>
      </trkpt>
      <trkpt lat="42.41956167" lon="-7.889205">
        <ele>429.0</ele>
        <time>2018-10-03T07:41:46.000Z</time>
      </trkpt>
      <trkpt lat="42.41957833" lon="-7.88921333">
        <ele>429.0</ele>
        <time>2018-10-03T07:41:47.000Z</time>
      </trkpt>
      <trkpt lat="42.41959833" lon="-7.88922167">
        <ele>429.0</ele>
        <time>2018-10-03T07:41:48.000Z</time>
      </trkpt>
      <trkpt lat="42.41961667" lon="-7.88922833">
        <ele>429.0</ele>
        <time>2018-10-03T07:41:49.000Z</time>
      </trkpt>
      <trkpt lat="42.41963333" lon="-7.88923667">
        <ele>429.0</ele>
        <time>2018-10-03T07:41:50.000Z</time>
      </trkpt>
      <trkpt lat="42.41964833" lon="-7.88924667">
        <ele>429.0</ele>
        <time>2018-10-03T07:41:51.000Z</time>
      </trkpt>
      <trkpt lat="42.41966167" lon="-7.889255">
        <ele>429.0</ele>
        <time>2018-10-03T07:41:52.000Z</time>
      </trkpt>
      <trkpt lat="42.41967667" lon="-7.88926">
        <ele>429.0</ele>
        <time>2018-10-03T07:41:53.000Z</time>
      </trkpt>
      <trkpt lat="42.41969167" lon="-7.88926333">
        <ele>428.0</ele>
        <time>2018-10-03T07:41:54.000Z</time>
      </trkpt>
      <trkpt lat="42.419705" lon="-7.88926667">
        <ele>428.0</ele>
        <time>2018-10-03T07:41:55.000Z</time>
      </trkpt>
      <trkpt lat="42.41972" lon="-7.88927167">
        <ele>428.0</ele>
        <time>2018-10-03T07:41:56.000Z</time>
      </trkpt>
      <trkpt lat="42.419735" lon="-7.88927667">
        <ele>428.0</ele>
        <time>2018-10-03T07:41:57.000Z</time>
      </trkpt>
      <trkpt lat="42.41975" lon="-7.88927833">
        <ele>428.0</ele>
        <time>2018-10-03T07:41:58.000Z</time>
      </trkpt>
      <trkpt lat="42.41976667" lon="-7.88928">
        <ele>428.0</ele>
        <time>2018-10-03T07:41:59.000Z</time>
      </trkpt>
      <trkpt lat="42.41978167" lon="-7.88928">
        <ele>428.0</ele>
        <time>2018-10-03T07:42:00.000Z</time>
      </trkpt>
      <trkpt lat="42.41979667" lon="-7.88927833">
        <ele>428.0</ele>
        <time>2018-10-03T07:42:01.000Z</time>
      </trkpt>
      <trkpt lat="42.41981667" lon="-7.889275">
        <ele>427.0</ele>
        <time>2018-10-03T07:42:02.000Z</time>
      </trkpt>
      <trkpt lat="42.41983667" lon="-7.88927167">
        <ele>427.0</ele>
        <time>2018-10-03T07:42:03.000Z</time>
      </trkpt>
      <trkpt lat="42.41986" lon="-7.88926833">
        <ele>427.0</ele>
        <time>2018-10-03T07:42:04.000Z</time>
      </trkpt>
      <trkpt lat="42.41988" lon="-7.88926333">
        <ele>427.0</ele>
        <time>2018-10-03T07:42:05.000Z</time>
      </trkpt>
      <trkpt lat="42.41989833" lon="-7.88926167">
        <ele>427.0</ele>
        <time>2018-10-03T07:42:06.000Z</time>
      </trkpt>
      <trkpt lat="42.419915" lon="-7.88925833">
        <ele>426.0</ele>
        <time>2018-10-03T07:42:07.000Z</time>
      </trkpt>
      <trkpt lat="42.41993167" lon="-7.88925333">
        <ele>426.0</ele>
        <time>2018-10-03T07:42:08.000Z</time>
      </trkpt>
      <trkpt lat="42.41994667" lon="-7.88925333">
        <ele>426.0</ele>
        <time>2018-10-03T07:42:09.000Z</time>
      </trkpt>
      <trkpt lat="42.41996" lon="-7.88925333">
        <ele>425.0</ele>
        <time>2018-10-03T07:42:10.000Z</time>
      </trkpt>
      <trkpt lat="42.41997667" lon="-7.889255">
        <ele>425.0</ele>
        <time>2018-10-03T07:42:11.000Z</time>
      </trkpt>
      <trkpt lat="42.41999333" lon="-7.88925167">
        <ele>425.0</ele>
        <time>2018-10-03T07:42:12.000Z</time>
      </trkpt>
      <trkpt lat="42.42000833" lon="-7.88925">
        <ele>424.0</ele>
        <time>2018-10-03T07:42:13.000Z</time>
      </trkpt>
      <trkpt lat="42.42002" lon="-7.88925167">
        <ele>424.0</ele>
        <time>2018-10-03T07:42:14.000Z</time>
      </trkpt>
      <trkpt lat="42.42003167" lon="-7.88925333">
        <ele>424.0</ele>
        <time>2018-10-03T07:42:15.000Z</time>
      </trkpt>
      <trkpt lat="42.42004333" lon="-7.88925333">
        <ele>424.0</ele>
        <time>2018-10-03T07:42:16.000Z</time>
      </trkpt>
      <trkpt lat="42.42005833" lon="-7.88925167">
        <ele>424.0</ele>
        <time>2018-10-03T07:42:17.000Z</time>
      </trkpt>
      <trkpt lat="42.42007333" lon="-7.88924833">
        <ele>424.0</ele>
        <time>2018-10-03T07:42:18.000Z</time>
      </trkpt>
      <trkpt lat="42.42008667" lon="-7.889245">
        <ele>424.0</ele>
        <time>2018-10-03T07:42:19.000Z</time>
      </trkpt>
      <trkpt lat="42.42010333" lon="-7.88924">
        <ele>424.0</ele>
        <time>2018-10-03T07:42:20.000Z</time>
      </trkpt>
      <trkpt lat="42.42012167" lon="-7.88923667">
        <ele>424.0</ele>
        <time>2018-10-03T07:42:21.000Z</time>
      </trkpt>
      <trkpt lat="42.42014167" lon="-7.88923333">
        <ele>424.0</ele>
        <time>2018-10-03T07:42:22.000Z</time>
      </trkpt>
      <trkpt lat="42.42016" lon="-7.88923">
        <ele>424.0</ele>
        <time>2018-10-03T07:42:23.000Z</time>
      </trkpt>
      <trkpt lat="42.42017667" lon="-7.889225">
        <ele>424.0</ele>
        <time>2018-10-03T07:42:24.000Z</time>
      </trkpt>
      <trkpt lat="42.420195" lon="-7.88922">
        <ele>424.0</ele>
        <time>2018-10-03T07:42:25.000Z</time>
      </trkpt>
      <trkpt lat="42.42021" lon="-7.88921667">
        <ele>424.0</ele>
        <time>2018-10-03T07:42:26.000Z</time>
      </trkpt>
      <trkpt lat="42.42023" lon="-7.889215">
        <ele>424.0</ele>
        <time>2018-10-03T07:42:27.000Z</time>
      </trkpt>
      <trkpt lat="42.42025" lon="-7.88921167">
        <ele>424.0</ele>
        <time>2018-10-03T07:42:28.000Z</time>
      </trkpt>
      <trkpt lat="42.42027" lon="-7.88920667">
        <ele>424.0</ele>
        <time>2018-10-03T07:42:29.000Z</time>
      </trkpt>
      <trkpt lat="42.42028833" lon="-7.8892">
        <ele>424.0</ele>
        <time>2018-10-03T07:42:30.000Z</time>
      </trkpt>
      <trkpt lat="42.420305" lon="-7.889195">
        <ele>424.0</ele>
        <time>2018-10-03T07:42:31.000Z</time>
      </trkpt>
      <trkpt lat="42.42032" lon="-7.88919">
        <ele>424.0</ele>
        <time>2018-10-03T07:42:32.000Z</time>
      </trkpt>
      <trkpt lat="42.42033333" lon="-7.889185">
        <ele>424.0</ele>
        <time>2018-10-03T07:42:33.000Z</time>
      </trkpt>
      <trkpt lat="42.42034333" lon="-7.88918">
        <ele>424.0</ele>
        <time>2018-10-03T07:42:34.000Z</time>
      </trkpt>
      <trkpt lat="42.42035" lon="-7.88917333">
        <ele>424.0</ele>
        <time>2018-10-03T07:42:35.000Z</time>
      </trkpt>
      <trkpt lat="42.420355" lon="-7.88917">
        <ele>424.0</ele>
        <time>2018-10-03T07:42:36.000Z</time>
      </trkpt>
      <trkpt lat="42.42036333" lon="-7.889165">
        <ele>424.0</ele>
        <time>2018-10-03T07:42:37.000Z</time>
      </trkpt>
      <trkpt lat="42.42037333" lon="-7.88916167">
        <ele>424.0</ele>
        <time>2018-10-03T07:42:38.000Z</time>
      </trkpt>
      <trkpt lat="42.42038667" lon="-7.88915833">
        <ele>424.0</ele>
        <time>2018-10-03T07:42:39.000Z</time>
      </trkpt>
      <trkpt lat="42.4204" lon="-7.88915667">
        <ele>424.0</ele>
        <time>2018-10-03T07:42:40.000Z</time>
      </trkpt>
      <trkpt lat="42.42041167" lon="-7.88915333">
        <ele>424.0</ele>
        <time>2018-10-03T07:42:41.000Z</time>
      </trkpt>
      <trkpt lat="42.420425" lon="-7.88915167">
        <ele>424.0</ele>
        <time>2018-10-03T07:42:42.000Z</time>
      </trkpt>
      <trkpt lat="42.42043833" lon="-7.88915">
        <ele>424.0</ele>
        <time>2018-10-03T07:42:43.000Z</time>
      </trkpt>
      <trkpt lat="42.420455" lon="-7.88914833">
        <ele>424.0</ele>
        <time>2018-10-03T07:42:44.000Z</time>
      </trkpt>
      <trkpt lat="42.42047167" lon="-7.889145">
        <ele>424.0</ele>
        <time>2018-10-03T07:42:45.000Z</time>
      </trkpt>
      <trkpt lat="42.420485" lon="-7.88914333">
        <ele>424.0</ele>
        <time>2018-10-03T07:42:46.000Z</time>
      </trkpt>
      <trkpt lat="42.42049667" lon="-7.88914667">
        <ele>424.0</ele>
        <time>2018-10-03T07:42:47.000Z</time>
      </trkpt>
      <trkpt lat="42.42050833" lon="-7.88914667">
        <ele>424.0</ele>
        <time>2018-10-03T07:42:48.000Z</time>
      </trkpt>
      <trkpt lat="42.42052167" lon="-7.889145">
        <ele>424.0</ele>
        <time>2018-10-03T07:42:49.000Z</time>
      </trkpt>
      <trkpt lat="42.42053667" lon="-7.88914667">
        <ele>424.0</ele>
        <time>2018-10-03T07:42:50.000Z</time>
      </trkpt>
      <trkpt lat="42.42055167" lon="-7.88914833">
        <ele>424.0</ele>
        <time>2018-10-03T07:42:51.000Z</time>
      </trkpt>
      <trkpt lat="42.42056667" lon="-7.88915">
        <ele>424.0</ele>
        <time>2018-10-03T07:42:52.000Z</time>
      </trkpt>
      <trkpt lat="42.42058333" lon="-7.88915167">
        <ele>424.0</ele>
        <time>2018-10-03T07:42:53.000Z</time>
      </trkpt>
      <trkpt lat="42.4206" lon="-7.88915667">
        <ele>424.0</ele>
        <time>2018-10-03T07:42:54.000Z</time>
      </trkpt>
      <trkpt lat="42.420615" lon="-7.88915833">
        <ele>424.0</ele>
        <time>2018-10-03T07:42:55.000Z</time>
      </trkpt>
      <trkpt lat="42.42063" lon="-7.88916333">
        <ele>424.0</ele>
        <time>2018-10-03T07:42:56.000Z</time>
      </trkpt>
      <trkpt lat="42.420645" lon="-7.88916667">
        <ele>424.0</ele>
        <time>2018-10-03T07:42:57.000Z</time>
      </trkpt>
      <trkpt lat="42.42066" lon="-7.88917">
        <ele>425.0</ele>
        <time>2018-10-03T07:42:58.000Z</time>
      </trkpt>
      <trkpt lat="42.42067667" lon="-7.889175">
        <ele>425.0</ele>
        <time>2018-10-03T07:42:59.000Z</time>
      </trkpt>
      <trkpt lat="42.42069333" lon="-7.88918">
        <ele>425.0</ele>
        <time>2018-10-03T07:43:00.000Z</time>
      </trkpt>
      <trkpt lat="42.42070667" lon="-7.889185">
        <ele>425.0</ele>
        <time>2018-10-03T07:43:01.000Z</time>
      </trkpt>
      <trkpt lat="42.42072" lon="-7.88919">
        <ele>425.0</ele>
        <time>2018-10-03T07:43:02.000Z</time>
      </trkpt>
      <trkpt lat="42.42073167" lon="-7.889195">
        <ele>425.0</ele>
        <time>2018-10-03T07:43:03.000Z</time>
      </trkpt>
      <trkpt lat="42.42074333" lon="-7.8892">
        <ele>426.0</ele>
        <time>2018-10-03T07:43:04.000Z</time>
      </trkpt>
      <trkpt lat="42.420755" lon="-7.88920667">
        <ele>426.0</ele>
        <time>2018-10-03T07:43:05.000Z</time>
      </trkpt>
      <trkpt lat="42.42076667" lon="-7.88921333">
        <ele>426.0</ele>
        <time>2018-10-03T07:43:06.000Z</time>
      </trkpt>
      <trkpt lat="42.42078" lon="-7.88922">
        <ele>426.0</ele>
        <time>2018-10-03T07:43:07.000Z</time>
      </trkpt>
      <trkpt lat="42.42079667" lon="-7.88922667">
        <ele>426.0</ele>
        <time>2018-10-03T07:43:08.000Z</time>
      </trkpt>
      <trkpt lat="42.42081167" lon="-7.889235">
        <ele>426.0</ele>
        <time>2018-10-03T07:43:09.000Z</time>
      </trkpt>
      <trkpt lat="42.42082833" lon="-7.88924333">
        <ele>426.0</ele>
        <time>2018-10-03T07:43:10.000Z</time>
      </trkpt>
      <trkpt lat="42.420845" lon="-7.88925167">
        <ele>426.0</ele>
        <time>2018-10-03T07:43:11.000Z</time>
      </trkpt>
      <trkpt lat="42.42086167" lon="-7.88925833">
        <ele>426.0</ele>
        <time>2018-10-03T07:43:12.000Z</time>
      </trkpt>
      <trkpt lat="42.42087833" lon="-7.88926667">
        <ele>427.0</ele>
        <time>2018-10-03T07:43:13.000Z</time>
      </trkpt>
      <trkpt lat="42.420895" lon="-7.88927667">
        <ele>427.0</ele>
        <time>2018-10-03T07:43:14.000Z</time>
      </trkpt>
      <trkpt lat="42.42090833" lon="-7.889285">
        <ele>427.0</ele>
        <time>2018-10-03T07:43:15.000Z</time>
      </trkpt>
      <trkpt lat="42.42092667" lon="-7.88929333">
        <ele>427.0</ele>
        <time>2018-10-03T07:43:16.000Z</time>
      </trkpt>
      <trkpt lat="42.420945" lon="-7.88930167">
        <ele>427.0</ele>
        <time>2018-10-03T07:43:17.000Z</time>
      </trkpt>
      <trkpt lat="42.42096333" lon="-7.88931">
        <ele>427.0</ele>
        <time>2018-10-03T07:43:18.000Z</time>
      </trkpt>
      <trkpt lat="42.42098333" lon="-7.88931833">
        <ele>427.0</ele>
        <time>2018-10-03T07:43:19.000Z</time>
      </trkpt>
      <trkpt lat="42.42100167" lon="-7.88932667">
        <ele>428.0</ele>
        <time>2018-10-03T07:43:20.000Z</time>
      </trkpt>
      <trkpt lat="42.42101833" lon="-7.889335">
        <ele>428.0</ele>
        <time>2018-10-03T07:43:21.000Z</time>
      </trkpt>
      <trkpt lat="42.421035" lon="-7.88934167">
        <ele>428.0</ele>
        <time>2018-10-03T07:43:22.000Z</time>
      </trkpt>
      <trkpt lat="42.42105" lon="-7.88934667">
        <ele>428.0</ele>
        <time>2018-10-03T07:43:23.000Z</time>
      </trkpt>
      <trkpt lat="42.42106667" lon="-7.88935333">
        <ele>428.0</ele>
        <time>2018-10-03T07:43:24.000Z</time>
      </trkpt>
      <trkpt lat="42.421085" lon="-7.88936">
        <ele>428.0</ele>
        <time>2018-10-03T07:43:25.000Z</time>
      </trkpt>
      <trkpt lat="42.42110167" lon="-7.88936833">
        <ele>428.0</ele>
        <time>2018-10-03T07:43:26.000Z</time>
      </trkpt>
      <trkpt lat="42.42111833" lon="-7.88938">
        <ele>428.0</ele>
        <time>2018-10-03T07:43:27.000Z</time>
      </trkpt>
      <trkpt lat="42.42113333" lon="-7.88938833">
        <ele>428.0</ele>
        <time>2018-10-03T07:43:28.000Z</time>
      </trkpt>
      <trkpt lat="42.42114667" lon="-7.8894">
        <ele>428.0</ele>
        <time>2018-10-03T07:43:29.000Z</time>
      </trkpt>
      <trkpt lat="42.42116" lon="-7.88941167">
        <ele>428.0</ele>
        <time>2018-10-03T07:43:30.000Z</time>
      </trkpt>
      <trkpt lat="42.421175" lon="-7.889425">
        <ele>428.0</ele>
        <time>2018-10-03T07:43:31.000Z</time>
      </trkpt>
      <trkpt lat="42.42119" lon="-7.88944">
        <ele>428.0</ele>
        <time>2018-10-03T07:43:32.000Z</time>
      </trkpt>
      <trkpt lat="42.42120667" lon="-7.889455">
        <ele>428.0</ele>
        <time>2018-10-03T07:43:33.000Z</time>
      </trkpt>
      <trkpt lat="42.42122333" lon="-7.88946667">
        <ele>428.0</ele>
        <time>2018-10-03T07:43:34.000Z</time>
      </trkpt>
      <trkpt lat="42.42123833" lon="-7.88947667">
        <ele>427.0</ele>
        <time>2018-10-03T07:43:35.000Z</time>
      </trkpt>
      <trkpt lat="42.42125167" lon="-7.88948667">
        <ele>427.0</ele>
        <time>2018-10-03T07:43:36.000Z</time>
      </trkpt>
      <trkpt lat="42.42126667" lon="-7.889495">
        <ele>427.0</ele>
        <time>2018-10-03T07:43:37.000Z</time>
      </trkpt>
      <trkpt lat="42.42128167" lon="-7.88950833">
        <ele>427.0</ele>
        <time>2018-10-03T07:43:38.000Z</time>
      </trkpt>
      <trkpt lat="42.42129333" lon="-7.88952333">
        <ele>427.0</ele>
        <time>2018-10-03T07:43:39.000Z</time>
      </trkpt>
      <trkpt lat="42.42130333" lon="-7.88953833">
        <ele>428.0</ele>
        <time>2018-10-03T07:43:40.000Z</time>
      </trkpt>
      <trkpt lat="42.42131333" lon="-7.88955667">
        <ele>428.0</ele>
        <time>2018-10-03T07:43:41.000Z</time>
      </trkpt>
      <trkpt lat="42.42132333" lon="-7.889575">
        <ele>428.0</ele>
        <time>2018-10-03T07:43:42.000Z</time>
      </trkpt>
      <trkpt lat="42.42133333" lon="-7.88959667">
        <ele>428.0</ele>
        <time>2018-10-03T07:43:43.000Z</time>
      </trkpt>
      <trkpt lat="42.421345" lon="-7.889615">
        <ele>428.0</ele>
        <time>2018-10-03T07:43:44.000Z</time>
      </trkpt>
      <trkpt lat="42.42135667" lon="-7.88963333">
        <ele>427.0</ele>
        <time>2018-10-03T07:43:45.000Z</time>
      </trkpt>
      <trkpt lat="42.42136667" lon="-7.88965">
        <ele>427.0</ele>
        <time>2018-10-03T07:43:46.000Z</time>
      </trkpt>
      <trkpt lat="42.421375" lon="-7.88966833">
        <ele>427.0</ele>
        <time>2018-10-03T07:43:47.000Z</time>
      </trkpt>
      <trkpt lat="42.42138167" lon="-7.889685">
        <ele>427.0</ele>
        <time>2018-10-03T07:43:48.000Z</time>
      </trkpt>
      <trkpt lat="42.42138833" lon="-7.88970333">
        <ele>427.0</ele>
        <time>2018-10-03T07:43:49.000Z</time>
      </trkpt>
      <trkpt lat="42.42139667" lon="-7.88972167">
        <ele>427.0</ele>
        <time>2018-10-03T07:43:50.000Z</time>
      </trkpt>
      <trkpt lat="42.42140333" lon="-7.88974167">
        <ele>427.0</ele>
        <time>2018-10-03T07:43:51.000Z</time>
      </trkpt>
      <trkpt lat="42.42141333" lon="-7.88976">
        <ele>427.0</ele>
        <time>2018-10-03T07:43:52.000Z</time>
      </trkpt>
      <trkpt lat="42.42142" lon="-7.889775">
        <ele>427.0</ele>
        <time>2018-10-03T07:43:53.000Z</time>
      </trkpt>
      <trkpt lat="42.42142833" lon="-7.88979333">
        <ele>427.0</ele>
        <time>2018-10-03T07:43:54.000Z</time>
      </trkpt>
      <trkpt lat="42.42143667" lon="-7.88981167">
        <ele>427.0</ele>
        <time>2018-10-03T07:43:55.000Z</time>
      </trkpt>
      <trkpt lat="42.421445" lon="-7.88983">
        <ele>427.0</ele>
        <time>2018-10-03T07:43:56.000Z</time>
      </trkpt>
      <trkpt lat="42.42145167" lon="-7.88985">
        <ele>427.0</ele>
        <time>2018-10-03T07:43:57.000Z</time>
      </trkpt>
      <trkpt lat="42.42146" lon="-7.88987">
        <ele>427.0</ele>
        <time>2018-10-03T07:43:58.000Z</time>
      </trkpt>
      <trkpt lat="42.42147" lon="-7.88989">
        <ele>427.0</ele>
        <time>2018-10-03T07:43:59.000Z</time>
      </trkpt>
      <trkpt lat="42.42147833" lon="-7.889905">
        <ele>426.0</ele>
        <time>2018-10-03T07:44:00.000Z</time>
      </trkpt>
      <trkpt lat="42.42148833" lon="-7.88992333">
        <ele>426.0</ele>
        <time>2018-10-03T07:44:01.000Z</time>
      </trkpt>
      <trkpt lat="42.421495" lon="-7.88993833">
        <ele>426.0</ele>
        <time>2018-10-03T07:44:02.000Z</time>
      </trkpt>
      <trkpt lat="42.42150667" lon="-7.889955">
        <ele>426.0</ele>
        <time>2018-10-03T07:44:03.000Z</time>
      </trkpt>
      <trkpt lat="42.42151833" lon="-7.88997333">
        <ele>425.0</ele>
        <time>2018-10-03T07:44:04.000Z</time>
      </trkpt>
      <trkpt lat="42.42153" lon="-7.88999">
        <ele>425.0</ele>
        <time>2018-10-03T07:44:05.000Z</time>
      </trkpt>
      <trkpt lat="42.42154167" lon="-7.89000833">
        <ele>424.0</ele>
        <time>2018-10-03T07:44:06.000Z</time>
      </trkpt>
      <trkpt lat="42.42155167" lon="-7.89002833">
        <ele>424.0</ele>
        <time>2018-10-03T07:44:07.000Z</time>
      </trkpt>
      <trkpt lat="42.42156" lon="-7.89004833">
        <ele>423.0</ele>
        <time>2018-10-03T07:44:08.000Z</time>
      </trkpt>
      <trkpt lat="42.42157167" lon="-7.89006833">
        <ele>423.0</ele>
        <time>2018-10-03T07:44:09.000Z</time>
      </trkpt>
      <trkpt lat="42.421585" lon="-7.89009">
        <ele>423.0</ele>
        <time>2018-10-03T07:44:10.000Z</time>
      </trkpt>
      <trkpt lat="42.42159833" lon="-7.89010833">
        <ele>422.0</ele>
        <time>2018-10-03T07:44:11.000Z</time>
      </trkpt>
      <trkpt lat="42.42161" lon="-7.89012667">
        <ele>422.0</ele>
        <time>2018-10-03T07:44:12.000Z</time>
      </trkpt>
      <trkpt lat="42.42162" lon="-7.890145">
        <ele>421.0</ele>
        <time>2018-10-03T07:44:13.000Z</time>
      </trkpt>
      <trkpt lat="42.42162833" lon="-7.890165">
        <ele>421.0</ele>
        <time>2018-10-03T07:44:14.000Z</time>
      </trkpt>
      <trkpt lat="42.42163667" lon="-7.890185">
        <ele>421.0</ele>
        <time>2018-10-03T07:44:15.000Z</time>
      </trkpt>
      <trkpt lat="42.42164667" lon="-7.890205">
        <ele>420.0</ele>
        <time>2018-10-03T07:44:16.000Z</time>
      </trkpt>
      <trkpt lat="42.42165833" lon="-7.890225">
        <ele>420.0</ele>
        <time>2018-10-03T07:44:17.000Z</time>
      </trkpt>
      <trkpt lat="42.42166833" lon="-7.890245">
        <ele>420.0</ele>
        <time>2018-10-03T07:44:18.000Z</time>
      </trkpt>
      <trkpt lat="42.42167667" lon="-7.89026333">
        <ele>420.0</ele>
        <time>2018-10-03T07:44:19.000Z</time>
      </trkpt>
      <trkpt lat="42.42168667" lon="-7.89028333">
        <ele>420.0</ele>
        <time>2018-10-03T07:44:20.000Z</time>
      </trkpt>
      <trkpt lat="42.42169667" lon="-7.890305">
        <ele>420.0</ele>
        <time>2018-10-03T07:44:21.000Z</time>
      </trkpt>
      <trkpt lat="42.42170833" lon="-7.89032333">
        <ele>420.0</ele>
        <time>2018-10-03T07:44:22.000Z</time>
      </trkpt>
      <trkpt lat="42.42171833" lon="-7.89034167">
        <ele>420.0</ele>
        <time>2018-10-03T07:44:23.000Z</time>
      </trkpt>
      <trkpt lat="42.42172833" lon="-7.89036">
        <ele>420.0</ele>
        <time>2018-10-03T07:44:24.000Z</time>
      </trkpt>
      <trkpt lat="42.42174" lon="-7.89038">
        <ele>419.0</ele>
        <time>2018-10-03T07:44:25.000Z</time>
      </trkpt>
      <trkpt lat="42.42175167" lon="-7.89039833">
        <ele>419.0</ele>
        <time>2018-10-03T07:44:26.000Z</time>
      </trkpt>
      <trkpt lat="42.42176167" lon="-7.89042">
        <ele>419.0</ele>
        <time>2018-10-03T07:44:27.000Z</time>
      </trkpt>
      <trkpt lat="42.42177167" lon="-7.89043833">
        <ele>419.0</ele>
        <time>2018-10-03T07:44:28.000Z</time>
      </trkpt>
      <trkpt lat="42.42178167" lon="-7.89045333">
        <ele>419.0</ele>
        <time>2018-10-03T07:44:29.000Z</time>
      </trkpt>
      <trkpt lat="42.42179167" lon="-7.89046833">
        <ele>418.0</ele>
        <time>2018-10-03T07:44:30.000Z</time>
      </trkpt>
      <trkpt lat="42.4218" lon="-7.89048">
        <ele>418.0</ele>
        <time>2018-10-03T07:44:31.000Z</time>
      </trkpt>
      <trkpt lat="42.42180833" lon="-7.890495">
        <ele>418.0</ele>
        <time>2018-10-03T07:44:32.000Z</time>
      </trkpt>
      <trkpt lat="42.42181833" lon="-7.89051">
        <ele>417.0</ele>
        <time>2018-10-03T07:44:33.000Z</time>
      </trkpt>
      <trkpt lat="42.42183" lon="-7.89052333">
        <ele>417.0</ele>
        <time>2018-10-03T07:44:34.000Z</time>
      </trkpt>
      <trkpt lat="42.42183833" lon="-7.89053667">
        <ele>417.0</ele>
        <time>2018-10-03T07:44:35.000Z</time>
      </trkpt>
      <trkpt lat="42.42185" lon="-7.89055333">
        <ele>416.0</ele>
        <time>2018-10-03T07:44:36.000Z</time>
      </trkpt>
      <trkpt lat="42.42186" lon="-7.89057">
        <ele>416.0</ele>
        <time>2018-10-03T07:44:37.000Z</time>
      </trkpt>
      <trkpt lat="42.42187" lon="-7.89058667">
        <ele>416.0</ele>
        <time>2018-10-03T07:44:38.000Z</time>
      </trkpt>
      <trkpt lat="42.42188" lon="-7.89060333">
        <ele>415.0</ele>
        <time>2018-10-03T07:44:39.000Z</time>
      </trkpt>
      <trkpt lat="42.42189167" lon="-7.89061833">
        <ele>415.0</ele>
        <time>2018-10-03T07:44:40.000Z</time>
      </trkpt>
      <trkpt lat="42.42190167" lon="-7.89063667">
        <ele>415.0</ele>
        <time>2018-10-03T07:44:41.000Z</time>
      </trkpt>
      <trkpt lat="42.42191167" lon="-7.89065667">
        <ele>415.0</ele>
        <time>2018-10-03T07:44:42.000Z</time>
      </trkpt>
      <trkpt lat="42.42192" lon="-7.89067667">
        <ele>415.0</ele>
        <time>2018-10-03T07:44:43.000Z</time>
      </trkpt>
      <trkpt lat="42.42193167" lon="-7.89069333">
        <ele>415.0</ele>
        <time>2018-10-03T07:44:44.000Z</time>
      </trkpt>
      <trkpt lat="42.42194333" lon="-7.89071167">
        <ele>415.0</ele>
        <time>2018-10-03T07:44:45.000Z</time>
      </trkpt>
      <trkpt lat="42.421955" lon="-7.89073">
        <ele>415.0</ele>
        <time>2018-10-03T07:44:46.000Z</time>
      </trkpt>
      <trkpt lat="42.42196667" lon="-7.89074833">
        <ele>415.0</ele>
        <time>2018-10-03T07:44:47.000Z</time>
      </trkpt>
      <trkpt lat="42.42197667" lon="-7.89076667">
        <ele>415.0</ele>
        <time>2018-10-03T07:44:48.000Z</time>
      </trkpt>
      <trkpt lat="42.42198833" lon="-7.890785">
        <ele>415.0</ele>
        <time>2018-10-03T07:44:49.000Z</time>
      </trkpt>
      <trkpt lat="42.42199833" lon="-7.89080333">
        <ele>415.0</ele>
        <time>2018-10-03T07:44:50.000Z</time>
      </trkpt>
      <trkpt lat="42.42201" lon="-7.89082167">
        <ele>415.0</ele>
        <time>2018-10-03T07:44:51.000Z</time>
      </trkpt>
      <trkpt lat="42.42202333" lon="-7.89084">
        <ele>415.0</ele>
        <time>2018-10-03T07:44:52.000Z</time>
      </trkpt>
      <trkpt lat="42.422035" lon="-7.89085833">
        <ele>415.0</ele>
        <time>2018-10-03T07:44:53.000Z</time>
      </trkpt>
      <trkpt lat="42.42204667" lon="-7.89087667">
        <ele>415.0</ele>
        <time>2018-10-03T07:44:54.000Z</time>
      </trkpt>
      <trkpt lat="42.42205833" lon="-7.89089667">
        <ele>415.0</ele>
        <time>2018-10-03T07:44:55.000Z</time>
      </trkpt>
      <trkpt lat="42.42206833" lon="-7.89091333">
        <ele>415.0</ele>
        <time>2018-10-03T07:44:56.000Z</time>
      </trkpt>
      <trkpt lat="42.42208" lon="-7.89093333">
        <ele>415.0</ele>
        <time>2018-10-03T07:44:57.000Z</time>
      </trkpt>
      <trkpt lat="42.42208833" lon="-7.89095333">
        <ele>415.0</ele>
        <time>2018-10-03T07:44:58.000Z</time>
      </trkpt>
      <trkpt lat="42.42210167" lon="-7.89097167">
        <ele>415.0</ele>
        <time>2018-10-03T07:44:59.000Z</time>
      </trkpt>
      <trkpt lat="42.42211" lon="-7.89099333">
        <ele>415.0</ele>
        <time>2018-10-03T07:45:00.000Z</time>
      </trkpt>
      <trkpt lat="42.42211833" lon="-7.89101">
        <ele>415.0</ele>
        <time>2018-10-03T07:45:01.000Z</time>
      </trkpt>
      <trkpt lat="42.42213" lon="-7.89102667">
        <ele>414.0</ele>
        <time>2018-10-03T07:45:02.000Z</time>
      </trkpt>
      <trkpt lat="42.42214167" lon="-7.891045">
        <ele>414.0</ele>
        <time>2018-10-03T07:45:03.000Z</time>
      </trkpt>
      <trkpt lat="42.42215" lon="-7.89106167">
        <ele>414.0</ele>
        <time>2018-10-03T07:45:04.000Z</time>
      </trkpt>
      <trkpt lat="42.42216" lon="-7.89107833">
        <ele>414.0</ele>
        <time>2018-10-03T07:45:05.000Z</time>
      </trkpt>
      <trkpt lat="42.42216833" lon="-7.89109667">
        <ele>414.0</ele>
        <time>2018-10-03T07:45:06.000Z</time>
      </trkpt>
      <trkpt lat="42.42217833" lon="-7.891115">
        <ele>413.0</ele>
        <time>2018-10-03T07:45:07.000Z</time>
      </trkpt>
      <trkpt lat="42.42218833" lon="-7.89113333">
        <ele>413.0</ele>
        <time>2018-10-03T07:45:08.000Z</time>
      </trkpt>
      <trkpt lat="42.4222" lon="-7.89115167">
        <ele>413.0</ele>
        <time>2018-10-03T07:45:09.000Z</time>
      </trkpt>
      <trkpt lat="42.42220833" lon="-7.89117">
        <ele>413.0</ele>
        <time>2018-10-03T07:45:10.000Z</time>
      </trkpt>
      <trkpt lat="42.42221667" lon="-7.89118833">
        <ele>413.0</ele>
        <time>2018-10-03T07:45:11.000Z</time>
      </trkpt>
      <trkpt lat="42.42222333" lon="-7.89120333">
        <ele>413.0</ele>
        <time>2018-10-03T07:45:12.000Z</time>
      </trkpt>
      <trkpt lat="42.42223333" lon="-7.89122">
        <ele>413.0</ele>
        <time>2018-10-03T07:45:13.000Z</time>
      </trkpt>
      <trkpt lat="42.42224167" lon="-7.89123833">
        <ele>413.0</ele>
        <time>2018-10-03T07:45:14.000Z</time>
      </trkpt>
      <trkpt lat="42.42225167" lon="-7.891255">
        <ele>412.0</ele>
        <time>2018-10-03T07:45:15.000Z</time>
      </trkpt>
      <trkpt lat="42.42226167" lon="-7.891275">
        <ele>413.0</ele>
        <time>2018-10-03T07:45:16.000Z</time>
      </trkpt>
      <trkpt lat="42.42226833" lon="-7.89129333">
        <ele>413.0</ele>
        <time>2018-10-03T07:45:17.000Z</time>
      </trkpt>
      <trkpt lat="42.422275" lon="-7.89131">
        <ele>413.0</ele>
        <time>2018-10-03T07:45:18.000Z</time>
      </trkpt>
      <trkpt lat="42.42228167" lon="-7.89132667">
        <ele>413.0</ele>
        <time>2018-10-03T07:45:19.000Z</time>
      </trkpt>
      <trkpt lat="42.42228833" lon="-7.891345">
        <ele>413.0</ele>
        <time>2018-10-03T07:45:20.000Z</time>
      </trkpt>
      <trkpt lat="42.422295" lon="-7.89136333">
        <ele>413.0</ele>
        <time>2018-10-03T07:45:21.000Z</time>
      </trkpt>
      <trkpt lat="42.42230167" lon="-7.891385">
        <ele>413.0</ele>
        <time>2018-10-03T07:45:22.000Z</time>
      </trkpt>
      <trkpt lat="42.42230833" lon="-7.89140833">
        <ele>413.0</ele>
        <time>2018-10-03T07:45:23.000Z</time>
      </trkpt>
      <trkpt lat="42.422315" lon="-7.89143167">
        <ele>413.0</ele>
        <time>2018-10-03T07:45:24.000Z</time>
      </trkpt>
      <trkpt lat="42.422325" lon="-7.89145167">
        <ele>413.0</ele>
        <time>2018-10-03T07:45:25.000Z</time>
      </trkpt>
      <trkpt lat="42.42233333" lon="-7.89147">
        <ele>413.0</ele>
        <time>2018-10-03T07:45:26.000Z</time>
      </trkpt>
      <trkpt lat="42.42234167" lon="-7.891485">
        <ele>412.0</ele>
        <time>2018-10-03T07:45:27.000Z</time>
      </trkpt>
      <trkpt lat="42.42235" lon="-7.89150333">
        <ele>412.0</ele>
        <time>2018-10-03T07:45:28.000Z</time>
      </trkpt>
      <trkpt lat="42.42235667" lon="-7.89152">
        <ele>412.0</ele>
        <time>2018-10-03T07:45:29.000Z</time>
      </trkpt>
      <trkpt lat="42.422365" lon="-7.89153667">
        <ele>412.0</ele>
        <time>2018-10-03T07:45:30.000Z</time>
      </trkpt>
      <trkpt lat="42.422375" lon="-7.89155333">
        <ele>412.0</ele>
        <time>2018-10-03T07:45:31.000Z</time>
      </trkpt>
      <trkpt lat="42.422385" lon="-7.89157167">
        <ele>412.0</ele>
        <time>2018-10-03T07:45:32.000Z</time>
      </trkpt>
      <trkpt lat="42.42239333" lon="-7.89159">
        <ele>411.0</ele>
        <time>2018-10-03T07:45:33.000Z</time>
      </trkpt>
      <trkpt lat="42.42240167" lon="-7.891605">
        <ele>411.0</ele>
        <time>2018-10-03T07:45:34.000Z</time>
      </trkpt>
      <trkpt lat="42.42241" lon="-7.89162167">
        <ele>411.0</ele>
        <time>2018-10-03T07:45:35.000Z</time>
      </trkpt>
      <trkpt lat="42.42242" lon="-7.89163833">
        <ele>411.0</ele>
        <time>2018-10-03T07:45:36.000Z</time>
      </trkpt>
      <trkpt lat="42.42243" lon="-7.89165333">
        <ele>411.0</ele>
        <time>2018-10-03T07:45:37.000Z</time>
      </trkpt>
      <trkpt lat="42.42244167" lon="-7.89167">
        <ele>411.0</ele>
        <time>2018-10-03T07:45:38.000Z</time>
      </trkpt>
      <trkpt lat="42.42245167" lon="-7.89168833">
        <ele>411.0</ele>
        <time>2018-10-03T07:45:39.000Z</time>
      </trkpt>
      <trkpt lat="42.42246333" lon="-7.89170667">
        <ele>410.0</ele>
        <time>2018-10-03T07:45:40.000Z</time>
      </trkpt>
      <trkpt lat="42.42247167" lon="-7.891725">
        <ele>410.0</ele>
        <time>2018-10-03T07:45:41.000Z</time>
      </trkpt>
      <trkpt lat="42.42248" lon="-7.89174333">
        <ele>410.0</ele>
        <time>2018-10-03T07:45:42.000Z</time>
      </trkpt>
      <trkpt lat="42.42249" lon="-7.89176167">
        <ele>410.0</ele>
        <time>2018-10-03T07:45:43.000Z</time>
      </trkpt>
      <trkpt lat="42.4225" lon="-7.89178167">
        <ele>410.0</ele>
        <time>2018-10-03T07:45:44.000Z</time>
      </trkpt>
      <trkpt lat="42.42251" lon="-7.89179833">
        <ele>411.0</ele>
        <time>2018-10-03T07:45:45.000Z</time>
      </trkpt>
      <trkpt lat="42.42251833" lon="-7.89181667">
        <ele>411.0</ele>
        <time>2018-10-03T07:45:46.000Z</time>
      </trkpt>
      <trkpt lat="42.42252833" lon="-7.891835">
        <ele>411.0</ele>
        <time>2018-10-03T07:45:47.000Z</time>
      </trkpt>
      <trkpt lat="42.42253833" lon="-7.89185833">
        <ele>411.0</ele>
        <time>2018-10-03T07:45:48.000Z</time>
      </trkpt>
      <trkpt lat="42.42255" lon="-7.89188">
        <ele>411.0</ele>
        <time>2018-10-03T07:45:49.000Z</time>
      </trkpt>
      <trkpt lat="42.42256167" lon="-7.89190167">
        <ele>411.0</ele>
        <time>2018-10-03T07:45:50.000Z</time>
      </trkpt>
      <trkpt lat="42.42257" lon="-7.89192333">
        <ele>412.0</ele>
        <time>2018-10-03T07:45:51.000Z</time>
      </trkpt>
      <trkpt lat="42.42258" lon="-7.891945">
        <ele>412.0</ele>
        <time>2018-10-03T07:45:52.000Z</time>
      </trkpt>
      <trkpt lat="42.42258833" lon="-7.89196333">
        <ele>412.0</ele>
        <time>2018-10-03T07:45:53.000Z</time>
      </trkpt>
      <trkpt lat="42.42259667" lon="-7.89198167">
        <ele>412.0</ele>
        <time>2018-10-03T07:45:54.000Z</time>
      </trkpt>
      <trkpt lat="42.42260833" lon="-7.892">
        <ele>412.0</ele>
        <time>2018-10-03T07:45:55.000Z</time>
      </trkpt>
      <trkpt lat="42.42262167" lon="-7.89201833">
        <ele>412.0</ele>
        <time>2018-10-03T07:45:56.000Z</time>
      </trkpt>
      <trkpt lat="42.42263667" lon="-7.89203667">
        <ele>412.0</ele>
        <time>2018-10-03T07:45:57.000Z</time>
      </trkpt>
      <trkpt lat="42.42265" lon="-7.892055">
        <ele>412.0</ele>
        <time>2018-10-03T07:45:58.000Z</time>
      </trkpt>
      <trkpt lat="42.42266167" lon="-7.89207333">
        <ele>412.0</ele>
        <time>2018-10-03T07:45:59.000Z</time>
      </trkpt>
      <trkpt lat="42.42267" lon="-7.89209167">
        <ele>412.0</ele>
        <time>2018-10-03T07:46:00.000Z</time>
      </trkpt>
      <trkpt lat="42.42268167" lon="-7.89210833">
        <ele>412.0</ele>
        <time>2018-10-03T07:46:01.000Z</time>
      </trkpt>
      <trkpt lat="42.42269167" lon="-7.89212667">
        <ele>412.0</ele>
        <time>2018-10-03T07:46:02.000Z</time>
      </trkpt>
      <trkpt lat="42.42270333" lon="-7.892145">
        <ele>412.0</ele>
        <time>2018-10-03T07:46:03.000Z</time>
      </trkpt>
      <trkpt lat="42.42271667" lon="-7.89216167">
        <ele>412.0</ele>
        <time>2018-10-03T07:46:04.000Z</time>
      </trkpt>
      <trkpt lat="42.42272833" lon="-7.89217833">
        <ele>412.0</ele>
        <time>2018-10-03T07:46:05.000Z</time>
      </trkpt>
      <trkpt lat="42.42274" lon="-7.89219167">
        <ele>412.0</ele>
        <time>2018-10-03T07:46:06.000Z</time>
      </trkpt>
      <trkpt lat="42.42275" lon="-7.89220833">
        <ele>412.0</ele>
        <time>2018-10-03T07:46:07.000Z</time>
      </trkpt>
      <trkpt lat="42.42276" lon="-7.89222667">
        <ele>412.0</ele>
        <time>2018-10-03T07:46:08.000Z</time>
      </trkpt>
      <trkpt lat="42.42277167" lon="-7.89224333">
        <ele>412.0</ele>
        <time>2018-10-03T07:46:09.000Z</time>
      </trkpt>
      <trkpt lat="42.42278333" lon="-7.89226">
        <ele>413.0</ele>
        <time>2018-10-03T07:46:10.000Z</time>
      </trkpt>
      <trkpt lat="42.422795" lon="-7.892275">
        <ele>413.0</ele>
        <time>2018-10-03T07:46:11.000Z</time>
      </trkpt>
      <trkpt lat="42.42280667" lon="-7.89229167">
        <ele>413.0</ele>
        <time>2018-10-03T07:46:12.000Z</time>
      </trkpt>
      <trkpt lat="42.42281833" lon="-7.89230833">
        <ele>413.0</ele>
        <time>2018-10-03T07:46:13.000Z</time>
      </trkpt>
      <trkpt lat="42.42283" lon="-7.892325">
        <ele>413.0</ele>
        <time>2018-10-03T07:46:14.000Z</time>
      </trkpt>
      <trkpt lat="42.42284167" lon="-7.89234167">
        <ele>413.0</ele>
        <time>2018-10-03T07:46:15.000Z</time>
      </trkpt>
      <trkpt lat="42.42285333" lon="-7.89235833">
        <ele>413.0</ele>
        <time>2018-10-03T07:46:16.000Z</time>
      </trkpt>
      <trkpt lat="42.42286333" lon="-7.892375">
        <ele>413.0</ele>
        <time>2018-10-03T07:46:17.000Z</time>
      </trkpt>
      <trkpt lat="42.422875" lon="-7.89239333">
        <ele>413.0</ele>
        <time>2018-10-03T07:46:18.000Z</time>
      </trkpt>
      <trkpt lat="42.422885" lon="-7.89241167">
        <ele>413.0</ele>
        <time>2018-10-03T07:46:19.000Z</time>
      </trkpt>
      <trkpt lat="42.42289667" lon="-7.89242667">
        <ele>413.0</ele>
        <time>2018-10-03T07:46:20.000Z</time>
      </trkpt>
      <trkpt lat="42.42290833" lon="-7.89244333">
        <ele>413.0</ele>
        <time>2018-10-03T07:46:21.000Z</time>
      </trkpt>
      <trkpt lat="42.42292" lon="-7.89245833">
        <ele>414.0</ele>
        <time>2018-10-03T07:46:22.000Z</time>
      </trkpt>
      <trkpt lat="42.42293333" lon="-7.89247333">
        <ele>414.0</ele>
        <time>2018-10-03T07:46:23.000Z</time>
      </trkpt>
      <trkpt lat="42.422945" lon="-7.89248833">
        <ele>414.0</ele>
        <time>2018-10-03T07:46:24.000Z</time>
      </trkpt>
      <trkpt lat="42.42295667" lon="-7.892505">
        <ele>414.0</ele>
        <time>2018-10-03T07:46:25.000Z</time>
      </trkpt>
      <trkpt lat="42.42296833" lon="-7.89252167">
        <ele>414.0</ele>
        <time>2018-10-03T07:46:26.000Z</time>
      </trkpt>
      <trkpt lat="42.42298" lon="-7.89253833">
        <ele>414.0</ele>
        <time>2018-10-03T07:46:27.000Z</time>
      </trkpt>
      <trkpt lat="42.42299167" lon="-7.892555">
        <ele>414.0</ele>
        <time>2018-10-03T07:46:28.000Z</time>
      </trkpt>
      <trkpt lat="42.42300333" lon="-7.89257167">
        <ele>414.0</ele>
        <time>2018-10-03T07:46:29.000Z</time>
      </trkpt>
      <trkpt lat="42.423015" lon="-7.89258833">
        <ele>414.0</ele>
        <time>2018-10-03T07:46:30.000Z</time>
      </trkpt>
      <trkpt lat="42.42302667" lon="-7.89260333">
        <ele>414.0</ele>
        <time>2018-10-03T07:46:31.000Z</time>
      </trkpt>
      <trkpt lat="42.42304" lon="-7.89262167">
        <ele>414.0</ele>
        <time>2018-10-03T07:46:32.000Z</time>
      </trkpt>
      <trkpt lat="42.42305333" lon="-7.89263667">
        <ele>414.0</ele>
        <time>2018-10-03T07:46:33.000Z</time>
      </trkpt>
      <trkpt lat="42.42306167" lon="-7.89265333">
        <ele>414.0</ele>
        <time>2018-10-03T07:46:34.000Z</time>
      </trkpt>
      <trkpt lat="42.42307167" lon="-7.89266667">
        <ele>414.0</ele>
        <time>2018-10-03T07:46:35.000Z</time>
      </trkpt>
      <trkpt lat="42.42308" lon="-7.89268167">
        <ele>414.0</ele>
        <time>2018-10-03T07:46:36.000Z</time>
      </trkpt>
      <trkpt lat="42.42309" lon="-7.89269833">
        <ele>414.0</ele>
        <time>2018-10-03T07:46:37.000Z</time>
      </trkpt>
      <trkpt lat="42.42310167" lon="-7.89271333">
        <ele>414.0</ele>
        <time>2018-10-03T07:46:38.000Z</time>
      </trkpt>
      <trkpt lat="42.42311333" lon="-7.89273">
        <ele>414.0</ele>
        <time>2018-10-03T07:46:39.000Z</time>
      </trkpt>
      <trkpt lat="42.42312333" lon="-7.892745">
        <ele>414.0</ele>
        <time>2018-10-03T07:46:40.000Z</time>
      </trkpt>
      <trkpt lat="42.42313167" lon="-7.89276">
        <ele>414.0</ele>
        <time>2018-10-03T07:46:41.000Z</time>
      </trkpt>
      <trkpt lat="42.42314167" lon="-7.89277667">
        <ele>414.0</ele>
        <time>2018-10-03T07:46:42.000Z</time>
      </trkpt>
      <trkpt lat="42.42315333" lon="-7.89279167">
        <ele>414.0</ele>
        <time>2018-10-03T07:46:43.000Z</time>
      </trkpt>
      <trkpt lat="42.42316667" lon="-7.89280833">
        <ele>414.0</ele>
        <time>2018-10-03T07:46:44.000Z</time>
      </trkpt>
      <trkpt lat="42.42318" lon="-7.892825">
        <ele>414.0</ele>
        <time>2018-10-03T07:46:45.000Z</time>
      </trkpt>
      <trkpt lat="42.42319167" lon="-7.89284333">
        <ele>415.0</ele>
        <time>2018-10-03T07:46:46.000Z</time>
      </trkpt>
      <trkpt lat="42.42320333" lon="-7.89286">
        <ele>415.0</ele>
        <time>2018-10-03T07:46:47.000Z</time>
      </trkpt>
      <trkpt lat="42.42321333" lon="-7.89287667">
        <ele>415.0</ele>
        <time>2018-10-03T07:46:48.000Z</time>
      </trkpt>
      <trkpt lat="42.42322333" lon="-7.89289333">
        <ele>415.0</ele>
        <time>2018-10-03T07:46:49.000Z</time>
      </trkpt>
      <trkpt lat="42.423235" lon="-7.89290667">
        <ele>415.0</ele>
        <time>2018-10-03T07:46:50.000Z</time>
      </trkpt>
      <trkpt lat="42.42324667" lon="-7.892925">
        <ele>415.0</ele>
        <time>2018-10-03T07:46:51.000Z</time>
      </trkpt>
      <trkpt lat="42.42326" lon="-7.89294167">
        <ele>415.0</ele>
        <time>2018-10-03T07:46:52.000Z</time>
      </trkpt>
      <trkpt lat="42.42327333" lon="-7.89295833">
        <ele>416.0</ele>
        <time>2018-10-03T07:46:53.000Z</time>
      </trkpt>
      <trkpt lat="42.423285" lon="-7.892975">
        <ele>416.0</ele>
        <time>2018-10-03T07:46:54.000Z</time>
      </trkpt>
      <trkpt lat="42.423295" lon="-7.89299">
        <ele>416.0</ele>
        <time>2018-10-03T07:46:55.000Z</time>
      </trkpt>
      <trkpt lat="42.423305" lon="-7.89300667">
        <ele>416.0</ele>
        <time>2018-10-03T07:46:56.000Z</time>
      </trkpt>
      <trkpt lat="42.42331667" lon="-7.89302333">
        <ele>416.0</ele>
        <time>2018-10-03T07:46:57.000Z</time>
      </trkpt>
      <trkpt lat="42.42332667" lon="-7.89303833">
        <ele>416.0</ele>
        <time>2018-10-03T07:46:58.000Z</time>
      </trkpt>
      <trkpt lat="42.42333833" lon="-7.893055">
        <ele>416.0</ele>
        <time>2018-10-03T07:46:59.000Z</time>
      </trkpt>
      <trkpt lat="42.42335" lon="-7.89307">
        <ele>416.0</ele>
        <time>2018-10-03T07:47:00.000Z</time>
      </trkpt>
      <trkpt lat="42.423365" lon="-7.893085">
        <ele>416.0</ele>
        <time>2018-10-03T07:47:01.000Z</time>
      </trkpt>
      <trkpt lat="42.42337667" lon="-7.8931">
        <ele>416.0</ele>
        <time>2018-10-03T07:47:02.000Z</time>
      </trkpt>
      <trkpt lat="42.42339167" lon="-7.89311667">
        <ele>416.0</ele>
        <time>2018-10-03T07:47:03.000Z</time>
      </trkpt>
      <trkpt lat="42.42340167" lon="-7.89313167">
        <ele>416.0</ele>
        <time>2018-10-03T07:47:04.000Z</time>
      </trkpt>
      <trkpt lat="42.42341333" lon="-7.89314667">
        <ele>416.0</ele>
        <time>2018-10-03T07:47:05.000Z</time>
      </trkpt>
      <trkpt lat="42.42342333" lon="-7.89316">
        <ele>416.0</ele>
        <time>2018-10-03T07:47:06.000Z</time>
      </trkpt>
      <trkpt lat="42.42343333" lon="-7.89317333">
        <ele>416.0</ele>
        <time>2018-10-03T07:47:07.000Z</time>
      </trkpt>
      <trkpt lat="42.42344667" lon="-7.893185">
        <ele>416.0</ele>
        <time>2018-10-03T07:47:08.000Z</time>
      </trkpt>
      <trkpt lat="42.42345667" lon="-7.89319833">
        <ele>416.0</ele>
        <time>2018-10-03T07:47:09.000Z</time>
      </trkpt>
      <trkpt lat="42.42346833" lon="-7.89321333">
        <ele>416.0</ele>
        <time>2018-10-03T07:47:10.000Z</time>
      </trkpt>
      <trkpt lat="42.42347667" lon="-7.89322667">
        <ele>416.0</ele>
        <time>2018-10-03T07:47:11.000Z</time>
      </trkpt>
      <trkpt lat="42.42348833" lon="-7.89324">
        <ele>416.0</ele>
        <time>2018-10-03T07:47:12.000Z</time>
      </trkpt>
      <trkpt lat="42.42349833" lon="-7.89325333">
        <ele>416.0</ele>
        <time>2018-10-03T07:47:13.000Z</time>
      </trkpt>
      <trkpt lat="42.42350833" lon="-7.89327">
        <ele>416.0</ele>
        <time>2018-10-03T07:47:14.000Z</time>
      </trkpt>
      <trkpt lat="42.42351833" lon="-7.893285">
        <ele>416.0</ele>
        <time>2018-10-03T07:47:15.000Z</time>
      </trkpt>
      <trkpt lat="42.42352667" lon="-7.89330167">
        <ele>416.0</ele>
        <time>2018-10-03T07:47:16.000Z</time>
      </trkpt>
      <trkpt lat="42.423535" lon="-7.89331833">
        <ele>416.0</ele>
        <time>2018-10-03T07:47:17.000Z</time>
      </trkpt>
      <trkpt lat="42.423545" lon="-7.89333167">
        <ele>416.0</ele>
        <time>2018-10-03T07:47:18.000Z</time>
      </trkpt>
      <trkpt lat="42.42355333" lon="-7.89334833">
        <ele>416.0</ele>
        <time>2018-10-03T07:47:19.000Z</time>
      </trkpt>
      <trkpt lat="42.42356333" lon="-7.89336667">
        <ele>416.0</ele>
        <time>2018-10-03T07:47:20.000Z</time>
      </trkpt>
      <trkpt lat="42.42357333" lon="-7.89338167">
        <ele>416.0</ele>
        <time>2018-10-03T07:47:21.000Z</time>
      </trkpt>
      <trkpt lat="42.42358333" lon="-7.89340167">
        <ele>416.0</ele>
        <time>2018-10-03T07:47:22.000Z</time>
      </trkpt>
      <trkpt lat="42.42359333" lon="-7.89342167">
        <ele>416.0</ele>
        <time>2018-10-03T07:47:23.000Z</time>
      </trkpt>
      <trkpt lat="42.423605" lon="-7.89344">
        <ele>416.0</ele>
        <time>2018-10-03T07:47:24.000Z</time>
      </trkpt>
      <trkpt lat="42.423615" lon="-7.89346">
        <ele>416.0</ele>
        <time>2018-10-03T07:47:25.000Z</time>
      </trkpt>
      <trkpt lat="42.423625" lon="-7.89347833">
        <ele>416.0</ele>
        <time>2018-10-03T07:47:26.000Z</time>
      </trkpt>
      <trkpt lat="42.423635" lon="-7.89349667">
        <ele>416.0</ele>
        <time>2018-10-03T07:47:27.000Z</time>
      </trkpt>
      <trkpt lat="42.42364333" lon="-7.893515">
        <ele>416.0</ele>
        <time>2018-10-03T07:47:28.000Z</time>
      </trkpt>
      <trkpt lat="42.42365" lon="-7.89353167">
        <ele>416.0</ele>
        <time>2018-10-03T07:47:29.000Z</time>
      </trkpt>
      <trkpt lat="42.42365667" lon="-7.89355">
        <ele>416.0</ele>
        <time>2018-10-03T07:47:30.000Z</time>
      </trkpt>
      <trkpt lat="42.42366667" lon="-7.89356833">
        <ele>416.0</ele>
        <time>2018-10-03T07:47:31.000Z</time>
      </trkpt>
      <trkpt lat="42.42367667" lon="-7.89358667">
        <ele>416.0</ele>
        <time>2018-10-03T07:47:32.000Z</time>
      </trkpt>
      <trkpt lat="42.423685" lon="-7.89360833">
        <ele>416.0</ele>
        <time>2018-10-03T07:47:33.000Z</time>
      </trkpt>
      <trkpt lat="42.423695" lon="-7.89362667">
        <ele>417.0</ele>
        <time>2018-10-03T07:47:34.000Z</time>
      </trkpt>
      <trkpt lat="42.423705" lon="-7.89364333">
        <ele>417.0</ele>
        <time>2018-10-03T07:47:35.000Z</time>
      </trkpt>
      <trkpt lat="42.423715" lon="-7.89366167">
        <ele>417.0</ele>
        <time>2018-10-03T07:47:36.000Z</time>
      </trkpt>
      <trkpt lat="42.423725" lon="-7.89367833">
        <ele>417.0</ele>
        <time>2018-10-03T07:47:37.000Z</time>
      </trkpt>
      <trkpt lat="42.423735" lon="-7.893695">
        <ele>417.0</ele>
        <time>2018-10-03T07:47:38.000Z</time>
      </trkpt>
      <trkpt lat="42.423745" lon="-7.89371167">
        <ele>418.0</ele>
        <time>2018-10-03T07:47:39.000Z</time>
      </trkpt>
      <trkpt lat="42.42375833" lon="-7.89372667">
        <ele>418.0</ele>
        <time>2018-10-03T07:47:40.000Z</time>
      </trkpt>
      <trkpt lat="42.42377" lon="-7.89374333">
        <ele>418.0</ele>
        <time>2018-10-03T07:47:41.000Z</time>
      </trkpt>
      <trkpt lat="42.423785" lon="-7.89375833">
        <ele>418.0</ele>
        <time>2018-10-03T07:47:42.000Z</time>
      </trkpt>
      <trkpt lat="42.42379833" lon="-7.89377167">
        <ele>418.0</ele>
        <time>2018-10-03T07:47:43.000Z</time>
      </trkpt>
      <trkpt lat="42.42381333" lon="-7.893785">
        <ele>418.0</ele>
        <time>2018-10-03T07:47:44.000Z</time>
      </trkpt>
      <trkpt lat="42.42382667" lon="-7.893795">
        <ele>419.0</ele>
        <time>2018-10-03T07:47:45.000Z</time>
      </trkpt>
      <trkpt lat="42.42384" lon="-7.89380167">
        <ele>419.0</ele>
        <time>2018-10-03T07:47:46.000Z</time>
      </trkpt>
      <trkpt lat="42.42385333" lon="-7.89380833">
        <ele>419.0</ele>
        <time>2018-10-03T07:47:47.000Z</time>
      </trkpt>
      <trkpt lat="42.42386667" lon="-7.89381667">
        <ele>419.0</ele>
        <time>2018-10-03T07:47:48.000Z</time>
      </trkpt>
      <trkpt lat="42.42388" lon="-7.893825">
        <ele>419.0</ele>
        <time>2018-10-03T07:47:49.000Z</time>
      </trkpt>
      <trkpt lat="42.42389" lon="-7.89383167">
        <ele>419.0</ele>
        <time>2018-10-03T07:47:50.000Z</time>
      </trkpt>
      <trkpt lat="42.4239" lon="-7.89384167">
        <ele>419.0</ele>
        <time>2018-10-03T07:47:51.000Z</time>
      </trkpt>
      <trkpt lat="42.42391167" lon="-7.89384833">
        <ele>419.0</ele>
        <time>2018-10-03T07:47:52.000Z</time>
      </trkpt>
      <trkpt lat="42.423925" lon="-7.89385333">
        <ele>419.0</ele>
        <time>2018-10-03T07:47:53.000Z</time>
      </trkpt>
      <trkpt lat="42.42393833" lon="-7.89385333">
        <ele>419.0</ele>
        <time>2018-10-03T07:47:54.000Z</time>
      </trkpt>
      <trkpt lat="42.42395167" lon="-7.89385167">
        <ele>419.0</ele>
        <time>2018-10-03T07:47:55.000Z</time>
      </trkpt>
      <trkpt lat="42.42396167" lon="-7.89385167">
        <ele>420.0</ele>
        <time>2018-10-03T07:47:56.000Z</time>
      </trkpt>
      <trkpt lat="42.423965" lon="-7.89385333">
        <ele>420.0</ele>
        <time>2018-10-03T07:47:57.000Z</time>
      </trkpt>
      <trkpt lat="42.42396667" lon="-7.893855">
        <ele>420.0</ele>
        <time>2018-10-03T07:47:58.000Z</time>
      </trkpt>
      <trkpt lat="42.42396667" lon="-7.893855">
        <ele>420.0</ele>
        <time>2018-10-03T07:47:59.000Z</time>
      </trkpt>
      <trkpt lat="42.42396667" lon="-7.89385667">
        <ele>420.0</ele>
        <time>2018-10-03T07:48:00.000Z</time>
      </trkpt>
      <trkpt lat="42.42397167" lon="-7.89385833">
        <ele>420.0</ele>
        <time>2018-10-03T07:48:01.000Z</time>
      </trkpt>
      <trkpt lat="42.42397833" lon="-7.89386">
        <ele>420.0</ele>
        <time>2018-10-03T07:48:02.000Z</time>
      </trkpt>
      <trkpt lat="42.42409167" lon="-7.89417333">
        <ele>419.0</ele>
        <time>2018-10-03T07:48:03.000Z</time>
      </trkpt>
      <trkpt lat="42.4241" lon="-7.89418833">
        <ele>419.0</ele>
        <time>2018-10-03T07:48:04.000Z</time>
      </trkpt>
      <trkpt lat="42.424105" lon="-7.89420667">
        <ele>419.0</ele>
        <time>2018-10-03T07:48:05.000Z</time>
      </trkpt>
      <trkpt lat="42.424135" lon="-7.894295">
        <ele>419.0</ele>
        <time>2018-10-03T07:48:06.000Z</time>
      </trkpt>
      <trkpt lat="42.42414" lon="-7.89431167">
        <ele>419.0</ele>
        <time>2018-10-03T07:48:07.000Z</time>
      </trkpt>
      <trkpt lat="42.424145" lon="-7.89432833">
        <ele>419.0</ele>
        <time>2018-10-03T07:48:08.000Z</time>
      </trkpt>
      <trkpt lat="42.42415" lon="-7.89434833">
        <ele>419.0</ele>
        <time>2018-10-03T07:48:09.000Z</time>
      </trkpt>
      <trkpt lat="42.424155" lon="-7.89437">
        <ele>419.0</ele>
        <time>2018-10-03T07:48:10.000Z</time>
      </trkpt>
      <trkpt lat="42.42415667" lon="-7.89439">
        <ele>419.0</ele>
        <time>2018-10-03T07:48:11.000Z</time>
      </trkpt>
      <trkpt lat="42.42416" lon="-7.89441167">
        <ele>419.0</ele>
        <time>2018-10-03T07:48:12.000Z</time>
      </trkpt>
      <trkpt lat="42.42416333" lon="-7.89443167">
        <ele>419.0</ele>
        <time>2018-10-03T07:48:13.000Z</time>
      </trkpt>
      <trkpt lat="42.42416333" lon="-7.89445333">
        <ele>420.0</ele>
        <time>2018-10-03T07:48:14.000Z</time>
      </trkpt>
      <trkpt lat="42.424165" lon="-7.89447667">
        <ele>420.0</ele>
        <time>2018-10-03T07:48:15.000Z</time>
      </trkpt>
      <trkpt lat="42.42416667" lon="-7.8945">
        <ele>420.0</ele>
        <time>2018-10-03T07:48:16.000Z</time>
      </trkpt>
      <trkpt lat="42.42416833" lon="-7.894525">
        <ele>420.0</ele>
        <time>2018-10-03T07:48:17.000Z</time>
      </trkpt>
      <trkpt lat="42.42417167" lon="-7.89455">
        <ele>420.0</ele>
        <time>2018-10-03T07:48:18.000Z</time>
      </trkpt>
      <trkpt lat="42.424175" lon="-7.89457167">
        <ele>420.0</ele>
        <time>2018-10-03T07:48:19.000Z</time>
      </trkpt>
      <trkpt lat="42.42417833" lon="-7.89459333">
        <ele>420.0</ele>
        <time>2018-10-03T07:48:20.000Z</time>
      </trkpt>
      <trkpt lat="42.42418167" lon="-7.89461333">
        <ele>421.0</ele>
        <time>2018-10-03T07:48:21.000Z</time>
      </trkpt>
      <trkpt lat="42.42418333" lon="-7.894635">
        <ele>421.0</ele>
        <time>2018-10-03T07:48:22.000Z</time>
      </trkpt>
      <trkpt lat="42.42418667" lon="-7.89465667">
        <ele>421.0</ele>
        <time>2018-10-03T07:48:23.000Z</time>
      </trkpt>
      <trkpt lat="42.42419" lon="-7.89467667">
        <ele>421.0</ele>
        <time>2018-10-03T07:48:24.000Z</time>
      </trkpt>
      <trkpt lat="42.42419333" lon="-7.89469833">
        <ele>421.0</ele>
        <time>2018-10-03T07:48:25.000Z</time>
      </trkpt>
      <trkpt lat="42.42419667" lon="-7.89471833">
        <ele>421.0</ele>
        <time>2018-10-03T07:48:26.000Z</time>
      </trkpt>
      <trkpt lat="42.42420167" lon="-7.89474">
        <ele>421.0</ele>
        <time>2018-10-03T07:48:27.000Z</time>
      </trkpt>
      <trkpt lat="42.424205" lon="-7.89475833">
        <ele>421.0</ele>
        <time>2018-10-03T07:48:28.000Z</time>
      </trkpt>
      <trkpt lat="42.42421" lon="-7.89478167">
        <ele>421.0</ele>
        <time>2018-10-03T07:48:29.000Z</time>
      </trkpt>
      <trkpt lat="42.424215" lon="-7.89480333">
        <ele>421.0</ele>
        <time>2018-10-03T07:48:30.000Z</time>
      </trkpt>
      <trkpt lat="42.42422" lon="-7.894825">
        <ele>422.0</ele>
        <time>2018-10-03T07:48:31.000Z</time>
      </trkpt>
      <trkpt lat="42.42422333" lon="-7.894845">
        <ele>422.0</ele>
        <time>2018-10-03T07:48:32.000Z</time>
      </trkpt>
      <trkpt lat="42.42422667" lon="-7.89486667">
        <ele>422.0</ele>
        <time>2018-10-03T07:48:33.000Z</time>
      </trkpt>
      <trkpt lat="42.42423167" lon="-7.89488667">
        <ele>422.0</ele>
        <time>2018-10-03T07:48:34.000Z</time>
      </trkpt>
      <trkpt lat="42.42423667" lon="-7.89491">
        <ele>422.0</ele>
        <time>2018-10-03T07:48:35.000Z</time>
      </trkpt>
      <trkpt lat="42.42424" lon="-7.89493333">
        <ele>422.0</ele>
        <time>2018-10-03T07:48:36.000Z</time>
      </trkpt>
      <trkpt lat="42.42424667" lon="-7.89495667">
        <ele>422.0</ele>
        <time>2018-10-03T07:48:37.000Z</time>
      </trkpt>
      <trkpt lat="42.42425" lon="-7.89498167">
        <ele>423.0</ele>
        <time>2018-10-03T07:48:38.000Z</time>
      </trkpt>
      <trkpt lat="42.42425333" lon="-7.89500333">
        <ele>423.0</ele>
        <time>2018-10-03T07:48:39.000Z</time>
      </trkpt>
      <trkpt lat="42.42426" lon="-7.89502167">
        <ele>423.0</ele>
        <time>2018-10-03T07:48:40.000Z</time>
      </trkpt>
      <trkpt lat="42.42426667" lon="-7.89504">
        <ele>423.0</ele>
        <time>2018-10-03T07:48:41.000Z</time>
      </trkpt>
      <trkpt lat="42.42427667" lon="-7.895055">
        <ele>423.0</ele>
        <time>2018-10-03T07:48:42.000Z</time>
      </trkpt>
      <trkpt lat="42.424285" lon="-7.89507">
        <ele>423.0</ele>
        <time>2018-10-03T07:48:43.000Z</time>
      </trkpt>
      <trkpt lat="42.42429167" lon="-7.89508167">
        <ele>423.0</ele>
        <time>2018-10-03T07:48:44.000Z</time>
      </trkpt>
      <trkpt lat="42.42430167" lon="-7.89509333">
        <ele>423.0</ele>
        <time>2018-10-03T07:48:45.000Z</time>
      </trkpt>
      <trkpt lat="42.42431333" lon="-7.89510333">
        <ele>423.0</ele>
        <time>2018-10-03T07:48:46.000Z</time>
      </trkpt>
      <trkpt lat="42.42432833" lon="-7.89510833">
        <ele>423.0</ele>
        <time>2018-10-03T07:48:47.000Z</time>
      </trkpt>
      <trkpt lat="42.424345" lon="-7.89511833">
        <ele>423.0</ele>
        <time>2018-10-03T07:48:48.000Z</time>
      </trkpt>
      <trkpt lat="42.42436167" lon="-7.89512833">
        <ele>423.0</ele>
        <time>2018-10-03T07:48:49.000Z</time>
      </trkpt>
      <trkpt lat="42.42437667" lon="-7.89514">
        <ele>423.0</ele>
        <time>2018-10-03T07:48:50.000Z</time>
      </trkpt>
      <trkpt lat="42.42439167" lon="-7.89515167">
        <ele>423.0</ele>
        <time>2018-10-03T07:48:51.000Z</time>
      </trkpt>
      <trkpt lat="42.42440333" lon="-7.895165">
        <ele>423.0</ele>
        <time>2018-10-03T07:48:52.000Z</time>
      </trkpt>
      <trkpt lat="42.424415" lon="-7.89518">
        <ele>423.0</ele>
        <time>2018-10-03T07:48:53.000Z</time>
      </trkpt>
      <trkpt lat="42.424425" lon="-7.895195">
        <ele>423.0</ele>
        <time>2018-10-03T07:48:54.000Z</time>
      </trkpt>
      <trkpt lat="42.424435" lon="-7.89521167">
        <ele>423.0</ele>
        <time>2018-10-03T07:48:55.000Z</time>
      </trkpt>
      <trkpt lat="42.42444667" lon="-7.895225">
        <ele>423.0</ele>
        <time>2018-10-03T07:48:56.000Z</time>
      </trkpt>
      <trkpt lat="42.42445667" lon="-7.89523833">
        <ele>423.0</ele>
        <time>2018-10-03T07:48:57.000Z</time>
      </trkpt>
      <trkpt lat="42.424465" lon="-7.89525167">
        <ele>423.0</ele>
        <time>2018-10-03T07:48:58.000Z</time>
      </trkpt>
      <trkpt lat="42.42447167" lon="-7.89526">
        <ele>424.0</ele>
        <time>2018-10-03T07:48:59.000Z</time>
      </trkpt>
      <trkpt lat="42.42447833" lon="-7.895265">
        <ele>424.0</ele>
        <time>2018-10-03T07:49:00.000Z</time>
      </trkpt>
      <trkpt lat="42.42448167" lon="-7.89527">
        <ele>424.0</ele>
        <time>2018-10-03T07:49:01.000Z</time>
      </trkpt>
      <trkpt lat="42.42451833" lon="-7.89532833">
        <ele>425.0</ele>
        <time>2018-10-03T07:49:02.000Z</time>
      </trkpt>
      <trkpt lat="42.42452833" lon="-7.89534167">
        <ele>426.0</ele>
        <time>2018-10-03T07:49:03.000Z</time>
      </trkpt>
      <trkpt lat="42.42453833" lon="-7.89535833">
        <ele>426.0</ele>
        <time>2018-10-03T07:49:04.000Z</time>
      </trkpt>
      <trkpt lat="42.42454833" lon="-7.89537333">
        <ele>426.0</ele>
        <time>2018-10-03T07:49:05.000Z</time>
      </trkpt>
      <trkpt lat="42.42455667" lon="-7.89538833">
        <ele>426.0</ele>
        <time>2018-10-03T07:49:06.000Z</time>
      </trkpt>
      <trkpt lat="42.42456833" lon="-7.895405">
        <ele>426.0</ele>
        <time>2018-10-03T07:49:07.000Z</time>
      </trkpt>
      <trkpt lat="42.42457833" lon="-7.89542167">
        <ele>426.0</ele>
        <time>2018-10-03T07:49:08.000Z</time>
      </trkpt>
      <trkpt lat="42.42458833" lon="-7.89543833">
        <ele>427.0</ele>
        <time>2018-10-03T07:49:09.000Z</time>
      </trkpt>
      <trkpt lat="42.42459667" lon="-7.89545667">
        <ele>427.0</ele>
        <time>2018-10-03T07:49:10.000Z</time>
      </trkpt>
      <trkpt lat="42.424605" lon="-7.895475">
        <ele>427.0</ele>
        <time>2018-10-03T07:49:11.000Z</time>
      </trkpt>
      <trkpt lat="42.42461167" lon="-7.89549">
        <ele>427.0</ele>
        <time>2018-10-03T07:49:12.000Z</time>
      </trkpt>
      <trkpt lat="42.42462167" lon="-7.89550333">
        <ele>427.0</ele>
        <time>2018-10-03T07:49:13.000Z</time>
      </trkpt>
      <trkpt lat="42.42463" lon="-7.89551667">
        <ele>427.0</ele>
        <time>2018-10-03T07:49:14.000Z</time>
      </trkpt>
      <trkpt lat="42.42463833" lon="-7.89552833">
        <ele>427.0</ele>
        <time>2018-10-03T07:49:15.000Z</time>
      </trkpt>
      <trkpt lat="42.42464833" lon="-7.89553833">
        <ele>427.0</ele>
        <time>2018-10-03T07:49:16.000Z</time>
      </trkpt>
      <trkpt lat="42.42465833" lon="-7.89555333">
        <ele>427.0</ele>
        <time>2018-10-03T07:49:17.000Z</time>
      </trkpt>
      <trkpt lat="42.42466667" lon="-7.89556833">
        <ele>427.0</ele>
        <time>2018-10-03T07:49:18.000Z</time>
      </trkpt>
      <trkpt lat="42.424675" lon="-7.895585">
        <ele>428.0</ele>
        <time>2018-10-03T07:49:19.000Z</time>
      </trkpt>
      <trkpt lat="42.42468333" lon="-7.89560333">
        <ele>428.0</ele>
        <time>2018-10-03T07:49:20.000Z</time>
      </trkpt>
      <trkpt lat="42.42469167" lon="-7.895625">
        <ele>428.0</ele>
        <time>2018-10-03T07:49:21.000Z</time>
      </trkpt>
      <trkpt lat="42.4247" lon="-7.89564667">
        <ele>428.0</ele>
        <time>2018-10-03T07:49:22.000Z</time>
      </trkpt>
      <trkpt lat="42.42470667" lon="-7.89566667">
        <ele>428.0</ele>
        <time>2018-10-03T07:49:23.000Z</time>
      </trkpt>
      <trkpt lat="42.42471333" lon="-7.89568833">
        <ele>428.0</ele>
        <time>2018-10-03T07:49:24.000Z</time>
      </trkpt>
      <trkpt lat="42.42471833" lon="-7.89571">
        <ele>429.0</ele>
        <time>2018-10-03T07:49:25.000Z</time>
      </trkpt>
      <trkpt lat="42.424725" lon="-7.89573">
        <ele>429.0</ele>
        <time>2018-10-03T07:49:26.000Z</time>
      </trkpt>
      <trkpt lat="42.42473" lon="-7.89574833">
        <ele>429.0</ele>
        <time>2018-10-03T07:49:27.000Z</time>
      </trkpt>
      <trkpt lat="42.424735" lon="-7.89576833">
        <ele>429.0</ele>
        <time>2018-10-03T07:49:28.000Z</time>
      </trkpt>
      <trkpt lat="42.42474" lon="-7.89578833">
        <ele>429.0</ele>
        <time>2018-10-03T07:49:29.000Z</time>
      </trkpt>
      <trkpt lat="42.424745" lon="-7.89581">
        <ele>429.0</ele>
        <time>2018-10-03T07:49:30.000Z</time>
      </trkpt>
      <trkpt lat="42.42475167" lon="-7.89583333">
        <ele>429.0</ele>
        <time>2018-10-03T07:49:31.000Z</time>
      </trkpt>
      <trkpt lat="42.424755" lon="-7.895855">
        <ele>429.0</ele>
        <time>2018-10-03T07:49:32.000Z</time>
      </trkpt>
      <trkpt lat="42.42476" lon="-7.89587667">
        <ele>430.0</ele>
        <time>2018-10-03T07:49:33.000Z</time>
      </trkpt>
      <trkpt lat="42.424765" lon="-7.89589667">
        <ele>430.0</ele>
        <time>2018-10-03T07:49:34.000Z</time>
      </trkpt>
      <trkpt lat="42.42477" lon="-7.89592">
        <ele>430.0</ele>
        <time>2018-10-03T07:49:35.000Z</time>
      </trkpt>
      <trkpt lat="42.42477667" lon="-7.89594333">
        <ele>430.0</ele>
        <time>2018-10-03T07:49:36.000Z</time>
      </trkpt>
      <trkpt lat="42.42478667" lon="-7.89596667">
        <ele>431.0</ele>
        <time>2018-10-03T07:49:37.000Z</time>
      </trkpt>
      <trkpt lat="42.424795" lon="-7.89598833">
        <ele>431.0</ele>
        <time>2018-10-03T07:49:38.000Z</time>
      </trkpt>
      <trkpt lat="42.424805" lon="-7.89601">
        <ele>431.0</ele>
        <time>2018-10-03T07:49:39.000Z</time>
      </trkpt>
      <trkpt lat="42.42481333" lon="-7.89603">
        <ele>431.0</ele>
        <time>2018-10-03T07:49:40.000Z</time>
      </trkpt>
      <trkpt lat="42.42482167" lon="-7.89604833">
        <ele>432.0</ele>
        <time>2018-10-03T07:49:41.000Z</time>
      </trkpt>
      <trkpt lat="42.42482833" lon="-7.896065">
        <ele>432.0</ele>
        <time>2018-10-03T07:49:42.000Z</time>
      </trkpt>
      <trkpt lat="42.424835" lon="-7.896085">
        <ele>432.0</ele>
        <time>2018-10-03T07:49:43.000Z</time>
      </trkpt>
      <trkpt lat="42.42484333" lon="-7.89610667">
        <ele>432.0</ele>
        <time>2018-10-03T07:49:44.000Z</time>
      </trkpt>
      <trkpt lat="42.42485167" lon="-7.89612667">
        <ele>433.0</ele>
        <time>2018-10-03T07:49:45.000Z</time>
      </trkpt>
      <trkpt lat="42.42486" lon="-7.89614667">
        <ele>433.0</ele>
        <time>2018-10-03T07:49:46.000Z</time>
      </trkpt>
      <trkpt lat="42.42487" lon="-7.896165">
        <ele>433.0</ele>
        <time>2018-10-03T07:49:47.000Z</time>
      </trkpt>
      <trkpt lat="42.42488167" lon="-7.89618167">
        <ele>433.0</ele>
        <time>2018-10-03T07:49:48.000Z</time>
      </trkpt>
      <trkpt lat="42.424895" lon="-7.8962">
        <ele>433.0</ele>
        <time>2018-10-03T07:49:49.000Z</time>
      </trkpt>
      <trkpt lat="42.424905" lon="-7.89621667">
        <ele>434.0</ele>
        <time>2018-10-03T07:49:50.000Z</time>
      </trkpt>
      <trkpt lat="42.42491667" lon="-7.89623167">
        <ele>434.0</ele>
        <time>2018-10-03T07:49:51.000Z</time>
      </trkpt>
      <trkpt lat="42.42493" lon="-7.89624667">
        <ele>434.0</ele>
        <time>2018-10-03T07:49:52.000Z</time>
      </trkpt>
      <trkpt lat="42.42494167" lon="-7.89626167">
        <ele>434.0</ele>
        <time>2018-10-03T07:49:53.000Z</time>
      </trkpt>
      <trkpt lat="42.42495667" lon="-7.896275">
        <ele>435.0</ele>
        <time>2018-10-03T07:49:54.000Z</time>
      </trkpt>
      <trkpt lat="42.42496667" lon="-7.89629167">
        <ele>435.0</ele>
        <time>2018-10-03T07:49:55.000Z</time>
      </trkpt>
      <trkpt lat="42.42497833" lon="-7.89630667">
        <ele>435.0</ele>
        <time>2018-10-03T07:49:56.000Z</time>
      </trkpt>
      <trkpt lat="42.42499167" lon="-7.89632">
        <ele>435.0</ele>
        <time>2018-10-03T07:49:57.000Z</time>
      </trkpt>
      <trkpt lat="42.42500333" lon="-7.89633333">
        <ele>435.0</ele>
        <time>2018-10-03T07:49:58.000Z</time>
      </trkpt>
      <trkpt lat="42.42501167" lon="-7.896345">
        <ele>435.0</ele>
        <time>2018-10-03T07:49:59.000Z</time>
      </trkpt>
      <trkpt lat="42.42502333" lon="-7.89635667">
        <ele>436.0</ele>
        <time>2018-10-03T07:50:00.000Z</time>
      </trkpt>
      <trkpt lat="42.42503333" lon="-7.89636833">
        <ele>435.0</ele>
        <time>2018-10-03T07:50:01.000Z</time>
      </trkpt>
      <trkpt lat="42.425045" lon="-7.89638">
        <ele>436.0</ele>
        <time>2018-10-03T07:50:02.000Z</time>
      </trkpt>
      <trkpt lat="42.42505833" lon="-7.89639167">
        <ele>436.0</ele>
        <time>2018-10-03T07:50:03.000Z</time>
      </trkpt>
      <trkpt lat="42.42507167" lon="-7.89640167">
        <ele>436.0</ele>
        <time>2018-10-03T07:50:04.000Z</time>
      </trkpt>
      <trkpt lat="42.42508667" lon="-7.89641333">
        <ele>435.0</ele>
        <time>2018-10-03T07:50:05.000Z</time>
      </trkpt>
      <trkpt lat="42.42510167" lon="-7.89642833">
        <ele>435.0</ele>
        <time>2018-10-03T07:50:06.000Z</time>
      </trkpt>
      <trkpt lat="42.425115" lon="-7.89643833">
        <ele>435.0</ele>
        <time>2018-10-03T07:50:07.000Z</time>
      </trkpt>
      <trkpt lat="42.42512667" lon="-7.89644833">
        <ele>435.0</ele>
        <time>2018-10-03T07:50:08.000Z</time>
      </trkpt>
      <trkpt lat="42.42513833" lon="-7.89645833">
        <ele>435.0</ele>
        <time>2018-10-03T07:50:09.000Z</time>
      </trkpt>
      <trkpt lat="42.42515167" lon="-7.89647">
        <ele>434.0</ele>
        <time>2018-10-03T07:50:10.000Z</time>
      </trkpt>
      <trkpt lat="42.425165" lon="-7.89648333">
        <ele>434.0</ele>
        <time>2018-10-03T07:50:11.000Z</time>
      </trkpt>
      <trkpt lat="42.42517833" lon="-7.896495">
        <ele>434.0</ele>
        <time>2018-10-03T07:50:12.000Z</time>
      </trkpt>
      <trkpt lat="42.42519" lon="-7.89650667">
        <ele>434.0</ele>
        <time>2018-10-03T07:50:13.000Z</time>
      </trkpt>
      <trkpt lat="42.42520333" lon="-7.89651833">
        <ele>434.0</ele>
        <time>2018-10-03T07:50:14.000Z</time>
      </trkpt>
      <trkpt lat="42.425215" lon="-7.89653167">
        <ele>434.0</ele>
        <time>2018-10-03T07:50:15.000Z</time>
      </trkpt>
      <trkpt lat="42.42522833" lon="-7.89654333">
        <ele>433.0</ele>
        <time>2018-10-03T07:50:16.000Z</time>
      </trkpt>
      <trkpt lat="42.42524167" lon="-7.89655333">
        <ele>433.0</ele>
        <time>2018-10-03T07:50:17.000Z</time>
      </trkpt>
      <trkpt lat="42.42525333" lon="-7.89656667">
        <ele>433.0</ele>
        <time>2018-10-03T07:50:18.000Z</time>
      </trkpt>
      <trkpt lat="42.42526667" lon="-7.89657667">
        <ele>433.0</ele>
        <time>2018-10-03T07:50:19.000Z</time>
      </trkpt>
      <trkpt lat="42.42527833" lon="-7.89658833">
        <ele>433.0</ele>
        <time>2018-10-03T07:50:20.000Z</time>
      </trkpt>
      <trkpt lat="42.42529167" lon="-7.89659667">
        <ele>433.0</ele>
        <time>2018-10-03T07:50:21.000Z</time>
      </trkpt>
      <trkpt lat="42.425305" lon="-7.89660667">
        <ele>433.0</ele>
        <time>2018-10-03T07:50:22.000Z</time>
      </trkpt>
      <trkpt lat="42.42532" lon="-7.89661667">
        <ele>434.0</ele>
        <time>2018-10-03T07:50:23.000Z</time>
      </trkpt>
      <trkpt lat="42.42533333" lon="-7.896625">
        <ele>434.0</ele>
        <time>2018-10-03T07:50:24.000Z</time>
      </trkpt>
      <trkpt lat="42.42534667" lon="-7.89663333">
        <ele>434.0</ele>
        <time>2018-10-03T07:50:25.000Z</time>
      </trkpt>
      <trkpt lat="42.42536167" lon="-7.89664">
        <ele>434.0</ele>
        <time>2018-10-03T07:50:26.000Z</time>
      </trkpt>
      <trkpt lat="42.425375" lon="-7.89664833">
        <ele>434.0</ele>
        <time>2018-10-03T07:50:27.000Z</time>
      </trkpt>
      <trkpt lat="42.42539" lon="-7.89665667">
        <ele>434.0</ele>
        <time>2018-10-03T07:50:28.000Z</time>
      </trkpt>
      <trkpt lat="42.42540667" lon="-7.89666667">
        <ele>434.0</ele>
        <time>2018-10-03T07:50:29.000Z</time>
      </trkpt>
      <trkpt lat="42.42542" lon="-7.89667333">
        <ele>434.0</ele>
        <time>2018-10-03T07:50:30.000Z</time>
      </trkpt>
      <trkpt lat="42.42543333" lon="-7.896685">
        <ele>434.0</ele>
        <time>2018-10-03T07:50:31.000Z</time>
      </trkpt>
      <trkpt lat="42.425445" lon="-7.89669333">
        <ele>434.0</ele>
        <time>2018-10-03T07:50:32.000Z</time>
      </trkpt>
      <trkpt lat="42.425455" lon="-7.89670333">
        <ele>434.0</ele>
        <time>2018-10-03T07:50:33.000Z</time>
      </trkpt>
      <trkpt lat="42.42546667" lon="-7.896715">
        <ele>435.0</ele>
        <time>2018-10-03T07:50:34.000Z</time>
      </trkpt>
      <trkpt lat="42.42547833" lon="-7.89672667">
        <ele>435.0</ele>
        <time>2018-10-03T07:50:35.000Z</time>
      </trkpt>
      <trkpt lat="42.42548833" lon="-7.89674167">
        <ele>435.0</ele>
        <time>2018-10-03T07:50:36.000Z</time>
      </trkpt>
      <trkpt lat="42.42549833" lon="-7.89675667">
        <ele>435.0</ele>
        <time>2018-10-03T07:50:37.000Z</time>
      </trkpt>
      <trkpt lat="42.42551167" lon="-7.89677">
        <ele>436.0</ele>
        <time>2018-10-03T07:50:38.000Z</time>
      </trkpt>
      <trkpt lat="42.42552333" lon="-7.89678">
        <ele>436.0</ele>
        <time>2018-10-03T07:50:39.000Z</time>
      </trkpt>
      <trkpt lat="42.42553833" lon="-7.89679167">
        <ele>436.0</ele>
        <time>2018-10-03T07:50:40.000Z</time>
      </trkpt>
      <trkpt lat="42.42555167" lon="-7.896805">
        <ele>436.0</ele>
        <time>2018-10-03T07:50:41.000Z</time>
      </trkpt>
      <trkpt lat="42.425565" lon="-7.89681667">
        <ele>436.0</ele>
        <time>2018-10-03T07:50:42.000Z</time>
      </trkpt>
      <trkpt lat="42.42557667" lon="-7.89682833">
        <ele>437.0</ele>
        <time>2018-10-03T07:50:43.000Z</time>
      </trkpt>
      <trkpt lat="42.42559" lon="-7.89684333">
        <ele>437.0</ele>
        <time>2018-10-03T07:50:44.000Z</time>
      </trkpt>
      <trkpt lat="42.42560167" lon="-7.896855">
        <ele>437.0</ele>
        <time>2018-10-03T07:50:45.000Z</time>
      </trkpt>
      <trkpt lat="42.42561333" lon="-7.89687">
        <ele>437.0</ele>
        <time>2018-10-03T07:50:46.000Z</time>
      </trkpt>
      <trkpt lat="42.425625" lon="-7.89688333">
        <ele>438.0</ele>
        <time>2018-10-03T07:50:47.000Z</time>
      </trkpt>
      <trkpt lat="42.42563667" lon="-7.89689833">
        <ele>438.0</ele>
        <time>2018-10-03T07:50:48.000Z</time>
      </trkpt>
      <trkpt lat="42.42564667" lon="-7.89691333">
        <ele>438.0</ele>
        <time>2018-10-03T07:50:49.000Z</time>
      </trkpt>
      <trkpt lat="42.42565833" lon="-7.89692833">
        <ele>438.0</ele>
        <time>2018-10-03T07:50:50.000Z</time>
      </trkpt>
      <trkpt lat="42.42567" lon="-7.89694167">
        <ele>438.0</ele>
        <time>2018-10-03T07:50:51.000Z</time>
      </trkpt>
      <trkpt lat="42.42568" lon="-7.896955">
        <ele>439.0</ele>
        <time>2018-10-03T07:50:52.000Z</time>
      </trkpt>
      <trkpt lat="42.42569167" lon="-7.89696833">
        <ele>439.0</ele>
        <time>2018-10-03T07:50:53.000Z</time>
      </trkpt>
      <trkpt lat="42.42570333" lon="-7.89698167">
        <ele>439.0</ele>
        <time>2018-10-03T07:50:54.000Z</time>
      </trkpt>
      <trkpt lat="42.425715" lon="-7.896995">
        <ele>439.0</ele>
        <time>2018-10-03T07:50:55.000Z</time>
      </trkpt>
      <trkpt lat="42.42572333" lon="-7.89700833">
        <ele>439.0</ele>
        <time>2018-10-03T07:50:56.000Z</time>
      </trkpt>
      <trkpt lat="42.42573" lon="-7.89702333">
        <ele>439.0</ele>
        <time>2018-10-03T07:50:57.000Z</time>
      </trkpt>
      <trkpt lat="42.42573833" lon="-7.89704">
        <ele>439.0</ele>
        <time>2018-10-03T07:50:58.000Z</time>
      </trkpt>
      <trkpt lat="42.42574833" lon="-7.89705833">
        <ele>440.0</ele>
        <time>2018-10-03T07:50:59.000Z</time>
      </trkpt>
      <trkpt lat="42.42575833" lon="-7.89707667">
        <ele>440.0</ele>
        <time>2018-10-03T07:51:00.000Z</time>
      </trkpt>
      <trkpt lat="42.42576833" lon="-7.897095">
        <ele>440.0</ele>
        <time>2018-10-03T07:51:01.000Z</time>
      </trkpt>
      <trkpt lat="42.42578" lon="-7.89711167">
        <ele>440.0</ele>
        <time>2018-10-03T07:51:02.000Z</time>
      </trkpt>
      <trkpt lat="42.42579" lon="-7.89712833">
        <ele>440.0</ele>
        <time>2018-10-03T07:51:03.000Z</time>
      </trkpt>
      <trkpt lat="42.4258" lon="-7.89714667">
        <ele>440.0</ele>
        <time>2018-10-03T07:51:04.000Z</time>
      </trkpt>
      <trkpt lat="42.42580667" lon="-7.897165">
        <ele>440.0</ele>
        <time>2018-10-03T07:51:05.000Z</time>
      </trkpt>
      <trkpt lat="42.42581167" lon="-7.89718167">
        <ele>441.0</ele>
        <time>2018-10-03T07:51:06.000Z</time>
      </trkpt>
      <trkpt lat="42.42581667" lon="-7.8972">
        <ele>441.0</ele>
        <time>2018-10-03T07:51:07.000Z</time>
      </trkpt>
      <trkpt lat="42.42582167" lon="-7.89721833">
        <ele>441.0</ele>
        <time>2018-10-03T07:51:08.000Z</time>
      </trkpt>
      <trkpt lat="42.42582833" lon="-7.89723667">
        <ele>441.0</ele>
        <time>2018-10-03T07:51:09.000Z</time>
      </trkpt>
      <trkpt lat="42.42583333" lon="-7.89725667">
        <ele>441.0</ele>
        <time>2018-10-03T07:51:10.000Z</time>
      </trkpt>
      <trkpt lat="42.42583833" lon="-7.89727833">
        <ele>441.0</ele>
        <time>2018-10-03T07:51:11.000Z</time>
      </trkpt>
      <trkpt lat="42.42584" lon="-7.89730333">
        <ele>441.0</ele>
        <time>2018-10-03T07:51:12.000Z</time>
      </trkpt>
      <trkpt lat="42.42584" lon="-7.89733">
        <ele>441.0</ele>
        <time>2018-10-03T07:51:13.000Z</time>
      </trkpt>
      <trkpt lat="42.42584" lon="-7.897355">
        <ele>442.0</ele>
        <time>2018-10-03T07:51:14.000Z</time>
      </trkpt>
      <trkpt lat="42.42584167" lon="-7.89738">
        <ele>442.0</ele>
        <time>2018-10-03T07:51:15.000Z</time>
      </trkpt>
      <trkpt lat="42.42584333" lon="-7.89740333">
        <ele>442.0</ele>
        <time>2018-10-03T07:51:16.000Z</time>
      </trkpt>
      <trkpt lat="42.425845" lon="-7.89742833">
        <ele>442.0</ele>
        <time>2018-10-03T07:51:17.000Z</time>
      </trkpt>
      <trkpt lat="42.425845" lon="-7.89745333">
        <ele>442.0</ele>
        <time>2018-10-03T07:51:18.000Z</time>
      </trkpt>
      <trkpt lat="42.42584667" lon="-7.89748">
        <ele>442.0</ele>
        <time>2018-10-03T07:51:19.000Z</time>
      </trkpt>
      <trkpt lat="42.42585" lon="-7.89750333">
        <ele>442.0</ele>
        <time>2018-10-03T07:51:20.000Z</time>
      </trkpt>
      <trkpt lat="42.42585167" lon="-7.89752833">
        <ele>442.0</ele>
        <time>2018-10-03T07:51:21.000Z</time>
      </trkpt>
      <trkpt lat="42.42585333" lon="-7.89755333">
        <ele>442.0</ele>
        <time>2018-10-03T07:51:22.000Z</time>
      </trkpt>
      <trkpt lat="42.42585167" lon="-7.89757667">
        <ele>442.0</ele>
        <time>2018-10-03T07:51:23.000Z</time>
      </trkpt>
      <trkpt lat="42.42585" lon="-7.8976">
        <ele>442.0</ele>
        <time>2018-10-03T07:51:24.000Z</time>
      </trkpt>
      <trkpt lat="42.42585" lon="-7.89762667">
        <ele>442.0</ele>
        <time>2018-10-03T07:51:25.000Z</time>
      </trkpt>
      <trkpt lat="42.42585167" lon="-7.897655">
        <ele>441.0</ele>
        <time>2018-10-03T07:51:26.000Z</time>
      </trkpt>
      <trkpt lat="42.42585667" lon="-7.89768">
        <ele>441.0</ele>
        <time>2018-10-03T07:51:27.000Z</time>
      </trkpt>
      <trkpt lat="42.42586167" lon="-7.89770333">
        <ele>441.0</ele>
        <time>2018-10-03T07:51:28.000Z</time>
      </trkpt>
      <trkpt lat="42.425865" lon="-7.897725">
        <ele>440.0</ele>
        <time>2018-10-03T07:51:29.000Z</time>
      </trkpt>
      <trkpt lat="42.425865" lon="-7.897745">
        <ele>440.0</ele>
        <time>2018-10-03T07:51:30.000Z</time>
      </trkpt>
      <trkpt lat="42.42586667" lon="-7.89776333">
        <ele>440.0</ele>
        <time>2018-10-03T07:51:31.000Z</time>
      </trkpt>
      <trkpt lat="42.42587" lon="-7.89778333">
        <ele>439.0</ele>
        <time>2018-10-03T07:51:32.000Z</time>
      </trkpt>
      <trkpt lat="42.42587167" lon="-7.897805">
        <ele>439.0</ele>
        <time>2018-10-03T07:51:33.000Z</time>
      </trkpt>
      <trkpt lat="42.425875" lon="-7.89782833">
        <ele>439.0</ele>
        <time>2018-10-03T07:51:34.000Z</time>
      </trkpt>
      <trkpt lat="42.42587833" lon="-7.89785333">
        <ele>438.0</ele>
        <time>2018-10-03T07:51:35.000Z</time>
      </trkpt>
      <trkpt lat="42.42587833" lon="-7.89787833">
        <ele>438.0</ele>
        <time>2018-10-03T07:51:36.000Z</time>
      </trkpt>
      <trkpt lat="42.42587833" lon="-7.89790167">
        <ele>438.0</ele>
        <time>2018-10-03T07:51:37.000Z</time>
      </trkpt>
      <trkpt lat="42.42587667" lon="-7.897925">
        <ele>438.0</ele>
        <time>2018-10-03T07:51:38.000Z</time>
      </trkpt>
      <trkpt lat="42.42587833" lon="-7.89794833">
        <ele>438.0</ele>
        <time>2018-10-03T07:51:39.000Z</time>
      </trkpt>
      <trkpt lat="42.42587833" lon="-7.89797333">
        <ele>438.0</ele>
        <time>2018-10-03T07:51:40.000Z</time>
      </trkpt>
      <trkpt lat="42.42588167" lon="-7.89799833">
        <ele>438.0</ele>
        <time>2018-10-03T07:51:41.000Z</time>
      </trkpt>
      <trkpt lat="42.42588333" lon="-7.89802333">
        <ele>437.0</ele>
        <time>2018-10-03T07:51:42.000Z</time>
      </trkpt>
      <trkpt lat="42.425885" lon="-7.89804667">
        <ele>437.0</ele>
        <time>2018-10-03T07:51:43.000Z</time>
      </trkpt>
      <trkpt lat="42.425885" lon="-7.89806833">
        <ele>437.0</ele>
        <time>2018-10-03T07:51:44.000Z</time>
      </trkpt>
      <trkpt lat="42.42588667" lon="-7.89809167">
        <ele>437.0</ele>
        <time>2018-10-03T07:51:45.000Z</time>
      </trkpt>
      <trkpt lat="42.42588667" lon="-7.89811667">
        <ele>437.0</ele>
        <time>2018-10-03T07:51:46.000Z</time>
      </trkpt>
      <trkpt lat="42.42589" lon="-7.898145">
        <ele>437.0</ele>
        <time>2018-10-03T07:51:47.000Z</time>
      </trkpt>
      <trkpt lat="42.42589333" lon="-7.89817167">
        <ele>437.0</ele>
        <time>2018-10-03T07:51:48.000Z</time>
      </trkpt>
      <trkpt lat="42.42589667" lon="-7.898195">
        <ele>437.0</ele>
        <time>2018-10-03T07:51:49.000Z</time>
      </trkpt>
      <trkpt lat="42.42589667" lon="-7.89821833">
        <ele>437.0</ele>
        <time>2018-10-03T07:51:50.000Z</time>
      </trkpt>
      <trkpt lat="42.42589833" lon="-7.89824167">
        <ele>436.0</ele>
        <time>2018-10-03T07:51:51.000Z</time>
      </trkpt>
      <trkpt lat="42.42589833" lon="-7.898265">
        <ele>436.0</ele>
        <time>2018-10-03T07:51:52.000Z</time>
      </trkpt>
      <trkpt lat="42.4259" lon="-7.89829167">
        <ele>436.0</ele>
        <time>2018-10-03T07:51:53.000Z</time>
      </trkpt>
      <trkpt lat="42.425905" lon="-7.89831667">
        <ele>436.0</ele>
        <time>2018-10-03T07:51:54.000Z</time>
      </trkpt>
      <trkpt lat="42.42590667" lon="-7.89834167">
        <ele>436.0</ele>
        <time>2018-10-03T07:51:55.000Z</time>
      </trkpt>
      <trkpt lat="42.42590667" lon="-7.89836167">
        <ele>436.0</ele>
        <time>2018-10-03T07:51:56.000Z</time>
      </trkpt>
      <trkpt lat="42.42590667" lon="-7.89838167">
        <ele>436.0</ele>
        <time>2018-10-03T07:51:57.000Z</time>
      </trkpt>
      <trkpt lat="42.42591" lon="-7.89840167">
        <ele>436.0</ele>
        <time>2018-10-03T07:51:58.000Z</time>
      </trkpt>
      <trkpt lat="42.42591167" lon="-7.89842667">
        <ele>436.0</ele>
        <time>2018-10-03T07:51:59.000Z</time>
      </trkpt>
      <trkpt lat="42.425915" lon="-7.89844833">
        <ele>436.0</ele>
        <time>2018-10-03T07:52:00.000Z</time>
      </trkpt>
      <trkpt lat="42.42591833" lon="-7.89847">
        <ele>436.0</ele>
        <time>2018-10-03T07:52:01.000Z</time>
      </trkpt>
      <trkpt lat="42.42592167" lon="-7.89848667">
        <ele>436.0</ele>
        <time>2018-10-03T07:52:02.000Z</time>
      </trkpt>
      <trkpt lat="42.42592333" lon="-7.89850667">
        <ele>435.0</ele>
        <time>2018-10-03T07:52:03.000Z</time>
      </trkpt>
      <trkpt lat="42.42592667" lon="-7.89852833">
        <ele>435.0</ele>
        <time>2018-10-03T07:52:04.000Z</time>
      </trkpt>
      <trkpt lat="42.42592833" lon="-7.89855167">
        <ele>435.0</ele>
        <time>2018-10-03T07:52:05.000Z</time>
      </trkpt>
      <trkpt lat="42.42593" lon="-7.898575">
        <ele>435.0</ele>
        <time>2018-10-03T07:52:06.000Z</time>
      </trkpt>
      <trkpt lat="42.42593167" lon="-7.89859833">
        <ele>435.0</ele>
        <time>2018-10-03T07:52:07.000Z</time>
      </trkpt>
      <trkpt lat="42.42593333" lon="-7.89862">
        <ele>435.0</ele>
        <time>2018-10-03T07:52:08.000Z</time>
      </trkpt>
      <trkpt lat="42.42593333" lon="-7.89864167">
        <ele>434.0</ele>
        <time>2018-10-03T07:52:09.000Z</time>
      </trkpt>
      <trkpt lat="42.42593" lon="-7.898665">
        <ele>434.0</ele>
        <time>2018-10-03T07:52:10.000Z</time>
      </trkpt>
      <trkpt lat="42.42592833" lon="-7.89868833">
        <ele>434.0</ele>
        <time>2018-10-03T07:52:11.000Z</time>
      </trkpt>
      <trkpt lat="42.42592833" lon="-7.89871333">
        <ele>434.0</ele>
        <time>2018-10-03T07:52:12.000Z</time>
      </trkpt>
      <trkpt lat="42.42592833" lon="-7.89873833">
        <ele>434.0</ele>
        <time>2018-10-03T07:52:13.000Z</time>
      </trkpt>
      <trkpt lat="42.42593" lon="-7.89876333">
        <ele>434.0</ele>
        <time>2018-10-03T07:52:14.000Z</time>
      </trkpt>
      <trkpt lat="42.42593333" lon="-7.898785">
        <ele>434.0</ele>
        <time>2018-10-03T07:52:15.000Z</time>
      </trkpt>
      <trkpt lat="42.42593667" lon="-7.898805">
        <ele>434.0</ele>
        <time>2018-10-03T07:52:16.000Z</time>
      </trkpt>
      <trkpt lat="42.42593667" lon="-7.89882833">
        <ele>434.0</ele>
        <time>2018-10-03T07:52:17.000Z</time>
      </trkpt>
      <trkpt lat="42.42593833" lon="-7.89885167">
        <ele>434.0</ele>
        <time>2018-10-03T07:52:18.000Z</time>
      </trkpt>
      <trkpt lat="42.42594167" lon="-7.898875">
        <ele>434.0</ele>
        <time>2018-10-03T07:52:19.000Z</time>
      </trkpt>
      <trkpt lat="42.425945" lon="-7.898895">
        <ele>434.0</ele>
        <time>2018-10-03T07:52:20.000Z</time>
      </trkpt>
      <trkpt lat="42.42594833" lon="-7.89891667">
        <ele>434.0</ele>
        <time>2018-10-03T07:52:21.000Z</time>
      </trkpt>
      <trkpt lat="42.42595333" lon="-7.89893667">
        <ele>434.0</ele>
        <time>2018-10-03T07:52:22.000Z</time>
      </trkpt>
      <trkpt lat="42.42595667" lon="-7.89896">
        <ele>434.0</ele>
        <time>2018-10-03T07:52:23.000Z</time>
      </trkpt>
      <trkpt lat="42.42596167" lon="-7.898985">
        <ele>434.0</ele>
        <time>2018-10-03T07:52:24.000Z</time>
      </trkpt>
      <trkpt lat="42.425965" lon="-7.89901">
        <ele>434.0</ele>
        <time>2018-10-03T07:52:25.000Z</time>
      </trkpt>
      <trkpt lat="42.42596833" lon="-7.89903333">
        <ele>434.0</ele>
        <time>2018-10-03T07:52:26.000Z</time>
      </trkpt>
      <trkpt lat="42.42597167" lon="-7.89905667">
        <ele>434.0</ele>
        <time>2018-10-03T07:52:27.000Z</time>
      </trkpt>
      <trkpt lat="42.42597333" lon="-7.89907667">
        <ele>434.0</ele>
        <time>2018-10-03T07:52:28.000Z</time>
      </trkpt>
      <trkpt lat="42.42597333" lon="-7.89909667">
        <ele>434.0</ele>
        <time>2018-10-03T07:52:29.000Z</time>
      </trkpt>
      <trkpt lat="42.42597333" lon="-7.89911833">
        <ele>434.0</ele>
        <time>2018-10-03T07:52:30.000Z</time>
      </trkpt>
      <trkpt lat="42.42597333" lon="-7.89914167">
        <ele>434.0</ele>
        <time>2018-10-03T07:52:31.000Z</time>
      </trkpt>
      <trkpt lat="42.42597333" lon="-7.899165">
        <ele>435.0</ele>
        <time>2018-10-03T07:52:32.000Z</time>
      </trkpt>
      <trkpt lat="42.42597167" lon="-7.89918667">
        <ele>435.0</ele>
        <time>2018-10-03T07:52:33.000Z</time>
      </trkpt>
      <trkpt lat="42.425975" lon="-7.89920833">
        <ele>435.0</ele>
        <time>2018-10-03T07:52:34.000Z</time>
      </trkpt>
      <trkpt lat="42.425975" lon="-7.89923">
        <ele>435.0</ele>
        <time>2018-10-03T07:52:35.000Z</time>
      </trkpt>
      <trkpt lat="42.42597833" lon="-7.89925167">
        <ele>435.0</ele>
        <time>2018-10-03T07:52:36.000Z</time>
      </trkpt>
      <trkpt lat="42.42597833" lon="-7.899275">
        <ele>435.0</ele>
        <time>2018-10-03T07:52:37.000Z</time>
      </trkpt>
      <trkpt lat="42.42598" lon="-7.899295">
        <ele>435.0</ele>
        <time>2018-10-03T07:52:38.000Z</time>
      </trkpt>
      <trkpt lat="42.42598333" lon="-7.899315">
        <ele>435.0</ele>
        <time>2018-10-03T07:52:39.000Z</time>
      </trkpt>
      <trkpt lat="42.42598833" lon="-7.89933667">
        <ele>435.0</ele>
        <time>2018-10-03T07:52:40.000Z</time>
      </trkpt>
      <trkpt lat="42.42599333" lon="-7.89936167">
        <ele>435.0</ele>
        <time>2018-10-03T07:52:41.000Z</time>
      </trkpt>
      <trkpt lat="42.42600167" lon="-7.89938333">
        <ele>435.0</ele>
        <time>2018-10-03T07:52:42.000Z</time>
      </trkpt>
      <trkpt lat="42.42600833" lon="-7.899405">
        <ele>435.0</ele>
        <time>2018-10-03T07:52:43.000Z</time>
      </trkpt>
      <trkpt lat="42.42601333" lon="-7.89942667">
        <ele>435.0</ele>
        <time>2018-10-03T07:52:44.000Z</time>
      </trkpt>
      <trkpt lat="42.42601833" lon="-7.89945">
        <ele>436.0</ele>
        <time>2018-10-03T07:52:45.000Z</time>
      </trkpt>
      <trkpt lat="42.42602667" lon="-7.89947167">
        <ele>436.0</ele>
        <time>2018-10-03T07:52:46.000Z</time>
      </trkpt>
      <trkpt lat="42.426035" lon="-7.899495">
        <ele>436.0</ele>
        <time>2018-10-03T07:52:47.000Z</time>
      </trkpt>
      <trkpt lat="42.42604167" lon="-7.89951833">
        <ele>436.0</ele>
        <time>2018-10-03T07:52:48.000Z</time>
      </trkpt>
      <trkpt lat="42.42605" lon="-7.89954167">
        <ele>436.0</ele>
        <time>2018-10-03T07:52:49.000Z</time>
      </trkpt>
      <trkpt lat="42.426055" lon="-7.89956667">
        <ele>436.0</ele>
        <time>2018-10-03T07:52:50.000Z</time>
      </trkpt>
      <trkpt lat="42.42605833" lon="-7.89959">
        <ele>436.0</ele>
        <time>2018-10-03T07:52:51.000Z</time>
      </trkpt>
      <trkpt lat="42.42606167" lon="-7.89961333">
        <ele>436.0</ele>
        <time>2018-10-03T07:52:52.000Z</time>
      </trkpt>
      <trkpt lat="42.426065" lon="-7.89963667">
        <ele>436.0</ele>
        <time>2018-10-03T07:52:53.000Z</time>
      </trkpt>
      <trkpt lat="42.42607167" lon="-7.89966">
        <ele>436.0</ele>
        <time>2018-10-03T07:52:54.000Z</time>
      </trkpt>
      <trkpt lat="42.42607833" lon="-7.899685">
        <ele>436.0</ele>
        <time>2018-10-03T07:52:55.000Z</time>
      </trkpt>
      <trkpt lat="42.42608667" lon="-7.89971">
        <ele>436.0</ele>
        <time>2018-10-03T07:52:56.000Z</time>
      </trkpt>
      <trkpt lat="42.42609667" lon="-7.89973167">
        <ele>436.0</ele>
        <time>2018-10-03T07:52:57.000Z</time>
      </trkpt>
      <trkpt lat="42.42610333" lon="-7.89975167">
        <ele>436.0</ele>
        <time>2018-10-03T07:52:58.000Z</time>
      </trkpt>
      <trkpt lat="42.42611" lon="-7.89977333">
        <ele>436.0</ele>
        <time>2018-10-03T07:52:59.000Z</time>
      </trkpt>
      <trkpt lat="42.42611833" lon="-7.899795">
        <ele>436.0</ele>
        <time>2018-10-03T07:53:00.000Z</time>
      </trkpt>
      <trkpt lat="42.42612667" lon="-7.89981833">
        <ele>436.0</ele>
        <time>2018-10-03T07:53:01.000Z</time>
      </trkpt>
      <trkpt lat="42.426135" lon="-7.89984">
        <ele>436.0</ele>
        <time>2018-10-03T07:53:02.000Z</time>
      </trkpt>
      <trkpt lat="42.426145" lon="-7.89986167">
        <ele>436.0</ele>
        <time>2018-10-03T07:53:03.000Z</time>
      </trkpt>
      <trkpt lat="42.42615333" lon="-7.89988167">
        <ele>436.0</ele>
        <time>2018-10-03T07:53:04.000Z</time>
      </trkpt>
      <trkpt lat="42.42616167" lon="-7.8999">
        <ele>437.0</ele>
        <time>2018-10-03T07:53:05.000Z</time>
      </trkpt>
      <trkpt lat="42.42617" lon="-7.89991667">
        <ele>437.0</ele>
        <time>2018-10-03T07:53:06.000Z</time>
      </trkpt>
      <trkpt lat="42.42618167" lon="-7.89993667">
        <ele>437.0</ele>
        <time>2018-10-03T07:53:07.000Z</time>
      </trkpt>
      <trkpt lat="42.42619333" lon="-7.89995833">
        <ele>437.0</ele>
        <time>2018-10-03T07:53:08.000Z</time>
      </trkpt>
      <trkpt lat="42.426205" lon="-7.89998">
        <ele>437.0</ele>
        <time>2018-10-03T07:53:09.000Z</time>
      </trkpt>
      <trkpt lat="42.42621667" lon="-7.90000167">
        <ele>437.0</ele>
        <time>2018-10-03T07:53:10.000Z</time>
      </trkpt>
      <trkpt lat="42.42622667" lon="-7.90002167">
        <ele>438.0</ele>
        <time>2018-10-03T07:53:11.000Z</time>
      </trkpt>
      <trkpt lat="42.426235" lon="-7.90003833">
        <ele>438.0</ele>
        <time>2018-10-03T07:53:12.000Z</time>
      </trkpt>
      <trkpt lat="42.42624333" lon="-7.90005833">
        <ele>438.0</ele>
        <time>2018-10-03T07:53:13.000Z</time>
      </trkpt>
      <trkpt lat="42.42625167" lon="-7.90008">
        <ele>438.0</ele>
        <time>2018-10-03T07:53:14.000Z</time>
      </trkpt>
      <trkpt lat="42.42625833" lon="-7.90010167">
        <ele>438.0</ele>
        <time>2018-10-03T07:53:15.000Z</time>
      </trkpt>
      <trkpt lat="42.426265" lon="-7.90012167">
        <ele>438.0</ele>
        <time>2018-10-03T07:53:16.000Z</time>
      </trkpt>
      <trkpt lat="42.42627333" lon="-7.900145">
        <ele>438.0</ele>
        <time>2018-10-03T07:53:17.000Z</time>
      </trkpt>
      <trkpt lat="42.42628667" lon="-7.90016833">
        <ele>438.0</ele>
        <time>2018-10-03T07:53:18.000Z</time>
      </trkpt>
      <trkpt lat="42.42629667" lon="-7.900185">
        <ele>438.0</ele>
        <time>2018-10-03T07:53:19.000Z</time>
      </trkpt>
      <trkpt lat="42.42630833" lon="-7.90020333">
        <ele>439.0</ele>
        <time>2018-10-03T07:53:20.000Z</time>
      </trkpt>
      <trkpt lat="42.42631833" lon="-7.90021833">
        <ele>439.0</ele>
        <time>2018-10-03T07:53:21.000Z</time>
      </trkpt>
      <trkpt lat="42.42632833" lon="-7.90023667">
        <ele>439.0</ele>
        <time>2018-10-03T07:53:22.000Z</time>
      </trkpt>
      <trkpt lat="42.42633833" lon="-7.900255">
        <ele>439.0</ele>
        <time>2018-10-03T07:53:23.000Z</time>
      </trkpt>
      <trkpt lat="42.42634833" lon="-7.90027333">
        <ele>439.0</ele>
        <time>2018-10-03T07:53:24.000Z</time>
      </trkpt>
      <trkpt lat="42.42635833" lon="-7.90028833">
        <ele>439.0</ele>
        <time>2018-10-03T07:53:25.000Z</time>
      </trkpt>
      <trkpt lat="42.42636667" lon="-7.900305">
        <ele>439.0</ele>
        <time>2018-10-03T07:53:26.000Z</time>
      </trkpt>
      <trkpt lat="42.42637333" lon="-7.90032333">
        <ele>439.0</ele>
        <time>2018-10-03T07:53:27.000Z</time>
      </trkpt>
      <trkpt lat="42.42637833" lon="-7.90034">
        <ele>439.0</ele>
        <time>2018-10-03T07:53:28.000Z</time>
      </trkpt>
      <trkpt lat="42.42638667" lon="-7.90035667">
        <ele>439.0</ele>
        <time>2018-10-03T07:53:29.000Z</time>
      </trkpt>
      <trkpt lat="42.426395" lon="-7.90037667">
        <ele>439.0</ele>
        <time>2018-10-03T07:53:30.000Z</time>
      </trkpt>
      <trkpt lat="42.426405" lon="-7.900395">
        <ele>439.0</ele>
        <time>2018-10-03T07:53:31.000Z</time>
      </trkpt>
      <trkpt lat="42.42641333" lon="-7.90041333">
        <ele>440.0</ele>
        <time>2018-10-03T07:53:32.000Z</time>
      </trkpt>
      <trkpt lat="42.42642333" lon="-7.90043333">
        <ele>440.0</ele>
        <time>2018-10-03T07:53:33.000Z</time>
      </trkpt>
      <trkpt lat="42.42643333" lon="-7.90045167">
        <ele>440.0</ele>
        <time>2018-10-03T07:53:34.000Z</time>
      </trkpt>
      <trkpt lat="42.42643833" lon="-7.90046833">
        <ele>440.0</ele>
        <time>2018-10-03T07:53:35.000Z</time>
      </trkpt>
      <trkpt lat="42.426445" lon="-7.90048833">
        <ele>441.0</ele>
        <time>2018-10-03T07:53:36.000Z</time>
      </trkpt>
      <trkpt lat="42.42645333" lon="-7.90050667">
        <ele>441.0</ele>
        <time>2018-10-03T07:53:37.000Z</time>
      </trkpt>
      <trkpt lat="42.42646167" lon="-7.90052833">
        <ele>441.0</ele>
        <time>2018-10-03T07:53:38.000Z</time>
      </trkpt>
      <trkpt lat="42.42647" lon="-7.90054833">
        <ele>442.0</ele>
        <time>2018-10-03T07:53:39.000Z</time>
      </trkpt>
      <trkpt lat="42.42647667" lon="-7.90056833">
        <ele>442.0</ele>
        <time>2018-10-03T07:53:40.000Z</time>
      </trkpt>
      <trkpt lat="42.426485" lon="-7.90058833">
        <ele>442.0</ele>
        <time>2018-10-03T07:53:41.000Z</time>
      </trkpt>
      <trkpt lat="42.42649333" lon="-7.90061">
        <ele>442.0</ele>
        <time>2018-10-03T07:53:42.000Z</time>
      </trkpt>
      <trkpt lat="42.4265" lon="-7.90062833">
        <ele>443.0</ele>
        <time>2018-10-03T07:53:43.000Z</time>
      </trkpt>
      <trkpt lat="42.42650333" lon="-7.90064833">
        <ele>443.0</ele>
        <time>2018-10-03T07:53:44.000Z</time>
      </trkpt>
      <trkpt lat="42.42650667" lon="-7.90066833">
        <ele>443.0</ele>
        <time>2018-10-03T07:53:45.000Z</time>
      </trkpt>
      <trkpt lat="42.42651167" lon="-7.90069">
        <ele>443.0</ele>
        <time>2018-10-03T07:53:46.000Z</time>
      </trkpt>
      <trkpt lat="42.426515" lon="-7.90071">
        <ele>443.0</ele>
        <time>2018-10-03T07:53:47.000Z</time>
      </trkpt>
      <trkpt lat="42.42651833" lon="-7.90073">
        <ele>443.0</ele>
        <time>2018-10-03T07:53:48.000Z</time>
      </trkpt>
      <trkpt lat="42.42652167" lon="-7.90075">
        <ele>443.0</ele>
        <time>2018-10-03T07:53:49.000Z</time>
      </trkpt>
      <trkpt lat="42.426525" lon="-7.90077167">
        <ele>443.0</ele>
        <time>2018-10-03T07:53:50.000Z</time>
      </trkpt>
      <trkpt lat="42.42652833" lon="-7.90079167">
        <ele>443.0</ele>
        <time>2018-10-03T07:53:51.000Z</time>
      </trkpt>
      <trkpt lat="42.42653167" lon="-7.90081333">
        <ele>443.0</ele>
        <time>2018-10-03T07:53:52.000Z</time>
      </trkpt>
      <trkpt lat="42.426535" lon="-7.900835">
        <ele>443.0</ele>
        <time>2018-10-03T07:53:53.000Z</time>
      </trkpt>
      <trkpt lat="42.42653833" lon="-7.900855">
        <ele>443.0</ele>
        <time>2018-10-03T07:53:54.000Z</time>
      </trkpt>
      <trkpt lat="42.42654167" lon="-7.900875">
        <ele>443.0</ele>
        <time>2018-10-03T07:53:55.000Z</time>
      </trkpt>
      <trkpt lat="42.426545" lon="-7.900895">
        <ele>443.0</ele>
        <time>2018-10-03T07:53:56.000Z</time>
      </trkpt>
      <trkpt lat="42.42654833" lon="-7.90091333">
        <ele>443.0</ele>
        <time>2018-10-03T07:53:57.000Z</time>
      </trkpt>
      <trkpt lat="42.42655167" lon="-7.90093167">
        <ele>443.0</ele>
        <time>2018-10-03T07:53:58.000Z</time>
      </trkpt>
      <trkpt lat="42.42655167" lon="-7.90095167">
        <ele>443.0</ele>
        <time>2018-10-03T07:53:59.000Z</time>
      </trkpt>
      <trkpt lat="42.42655333" lon="-7.90097167">
        <ele>443.0</ele>
        <time>2018-10-03T07:54:00.000Z</time>
      </trkpt>
      <trkpt lat="42.426555" lon="-7.90099167">
        <ele>443.0</ele>
        <time>2018-10-03T07:54:01.000Z</time>
      </trkpt>
      <trkpt lat="42.426555" lon="-7.90101167">
        <ele>443.0</ele>
        <time>2018-10-03T07:54:02.000Z</time>
      </trkpt>
      <trkpt lat="42.42655667" lon="-7.90103167">
        <ele>443.0</ele>
        <time>2018-10-03T07:54:03.000Z</time>
      </trkpt>
      <trkpt lat="42.42656" lon="-7.90105167">
        <ele>443.0</ele>
        <time>2018-10-03T07:54:04.000Z</time>
      </trkpt>
      <trkpt lat="42.42656333" lon="-7.90107167">
        <ele>443.0</ele>
        <time>2018-10-03T07:54:05.000Z</time>
      </trkpt>
      <trkpt lat="42.42656667" lon="-7.90109">
        <ele>443.0</ele>
        <time>2018-10-03T07:54:06.000Z</time>
      </trkpt>
      <trkpt lat="42.42657167" lon="-7.90110667">
        <ele>444.0</ele>
        <time>2018-10-03T07:54:07.000Z</time>
      </trkpt>
      <trkpt lat="42.42657667" lon="-7.90112667">
        <ele>444.0</ele>
        <time>2018-10-03T07:54:08.000Z</time>
      </trkpt>
      <trkpt lat="42.42658167" lon="-7.90114333">
        <ele>444.0</ele>
        <time>2018-10-03T07:54:09.000Z</time>
      </trkpt>
      <trkpt lat="42.426585" lon="-7.90116167">
        <ele>444.0</ele>
        <time>2018-10-03T07:54:10.000Z</time>
      </trkpt>
      <trkpt lat="42.42659" lon="-7.90117833">
        <ele>444.0</ele>
        <time>2018-10-03T07:54:11.000Z</time>
      </trkpt>
      <trkpt lat="42.426595" lon="-7.90119333">
        <ele>444.0</ele>
        <time>2018-10-03T07:54:12.000Z</time>
      </trkpt>
      <trkpt lat="42.42659833" lon="-7.90120833">
        <ele>444.0</ele>
        <time>2018-10-03T07:54:13.000Z</time>
      </trkpt>
      <trkpt lat="42.4266" lon="-7.90122667">
        <ele>444.0</ele>
        <time>2018-10-03T07:54:14.000Z</time>
      </trkpt>
      <trkpt lat="42.42660333" lon="-7.90124333">
        <ele>444.0</ele>
        <time>2018-10-03T07:54:15.000Z</time>
      </trkpt>
      <trkpt lat="42.42660833" lon="-7.90126167">
        <ele>444.0</ele>
        <time>2018-10-03T07:54:16.000Z</time>
      </trkpt>
      <trkpt lat="42.42661333" lon="-7.90127833">
        <ele>444.0</ele>
        <time>2018-10-03T07:54:17.000Z</time>
      </trkpt>
      <trkpt lat="42.42661833" lon="-7.901295">
        <ele>444.0</ele>
        <time>2018-10-03T07:54:18.000Z</time>
      </trkpt>
      <trkpt lat="42.42662333" lon="-7.90131167">
        <ele>444.0</ele>
        <time>2018-10-03T07:54:19.000Z</time>
      </trkpt>
      <trkpt lat="42.42662667" lon="-7.90133">
        <ele>445.0</ele>
        <time>2018-10-03T07:54:20.000Z</time>
      </trkpt>
      <trkpt lat="42.42663167" lon="-7.90134667">
        <ele>445.0</ele>
        <time>2018-10-03T07:54:21.000Z</time>
      </trkpt>
      <trkpt lat="42.42663833" lon="-7.90136167">
        <ele>445.0</ele>
        <time>2018-10-03T07:54:22.000Z</time>
      </trkpt>
      <trkpt lat="42.426645" lon="-7.901375">
        <ele>445.0</ele>
        <time>2018-10-03T07:54:23.000Z</time>
      </trkpt>
      <trkpt lat="42.426645" lon="-7.90139333">
        <ele>445.0</ele>
        <time>2018-10-03T07:54:24.000Z</time>
      </trkpt>
      <trkpt lat="42.42664833" lon="-7.90140833">
        <ele>445.0</ele>
        <time>2018-10-03T07:54:25.000Z</time>
      </trkpt>
      <trkpt lat="42.42665333" lon="-7.901425">
        <ele>445.0</ele>
        <time>2018-10-03T07:54:26.000Z</time>
      </trkpt>
      <trkpt lat="42.42666" lon="-7.90144167">
        <ele>445.0</ele>
        <time>2018-10-03T07:54:27.000Z</time>
      </trkpt>
      <trkpt lat="42.42667167" lon="-7.90145833">
        <ele>445.0</ele>
        <time>2018-10-03T07:54:28.000Z</time>
      </trkpt>
      <trkpt lat="42.42668333" lon="-7.90147333">
        <ele>445.0</ele>
        <time>2018-10-03T07:54:29.000Z</time>
      </trkpt>
      <trkpt lat="42.42669333" lon="-7.90149167">
        <ele>445.0</ele>
        <time>2018-10-03T07:54:30.000Z</time>
      </trkpt>
      <trkpt lat="42.426705" lon="-7.90151">
        <ele>445.0</ele>
        <time>2018-10-03T07:54:31.000Z</time>
      </trkpt>
      <trkpt lat="42.42671333" lon="-7.90152833">
        <ele>445.0</ele>
        <time>2018-10-03T07:54:32.000Z</time>
      </trkpt>
      <trkpt lat="42.42672167" lon="-7.90154833">
        <ele>445.0</ele>
        <time>2018-10-03T07:54:33.000Z</time>
      </trkpt>
      <trkpt lat="42.42672833" lon="-7.90156667">
        <ele>446.0</ele>
        <time>2018-10-03T07:54:34.000Z</time>
      </trkpt>
      <trkpt lat="42.426735" lon="-7.901585">
        <ele>446.0</ele>
        <time>2018-10-03T07:54:35.000Z</time>
      </trkpt>
      <trkpt lat="42.42674167" lon="-7.901605">
        <ele>446.0</ele>
        <time>2018-10-03T07:54:36.000Z</time>
      </trkpt>
      <trkpt lat="42.42674833" lon="-7.90162667">
        <ele>446.0</ele>
        <time>2018-10-03T07:54:37.000Z</time>
      </trkpt>
      <trkpt lat="42.42675667" lon="-7.90164833">
        <ele>446.0</ele>
        <time>2018-10-03T07:54:38.000Z</time>
      </trkpt>
      <trkpt lat="42.42676333" lon="-7.90167">
        <ele>446.0</ele>
        <time>2018-10-03T07:54:39.000Z</time>
      </trkpt>
      <trkpt lat="42.42677" lon="-7.90169167">
        <ele>446.0</ele>
        <time>2018-10-03T07:54:40.000Z</time>
      </trkpt>
      <trkpt lat="42.42677833" lon="-7.90171167">
        <ele>446.0</ele>
        <time>2018-10-03T07:54:41.000Z</time>
      </trkpt>
      <trkpt lat="42.42678667" lon="-7.90173333">
        <ele>447.0</ele>
        <time>2018-10-03T07:54:42.000Z</time>
      </trkpt>
      <trkpt lat="42.42679333" lon="-7.90175333">
        <ele>447.0</ele>
        <time>2018-10-03T07:54:43.000Z</time>
      </trkpt>
      <trkpt lat="42.4268" lon="-7.90177333">
        <ele>447.0</ele>
        <time>2018-10-03T07:54:44.000Z</time>
      </trkpt>
      <trkpt lat="42.42680833" lon="-7.90179333">
        <ele>447.0</ele>
        <time>2018-10-03T07:54:45.000Z</time>
      </trkpt>
      <trkpt lat="42.42681333" lon="-7.90181167">
        <ele>447.0</ele>
        <time>2018-10-03T07:54:46.000Z</time>
      </trkpt>
      <trkpt lat="42.42682" lon="-7.90183167">
        <ele>447.0</ele>
        <time>2018-10-03T07:54:47.000Z</time>
      </trkpt>
      <trkpt lat="42.42682833" lon="-7.90185333">
        <ele>447.0</ele>
        <time>2018-10-03T07:54:48.000Z</time>
      </trkpt>
      <trkpt lat="42.426835" lon="-7.90187333">
        <ele>448.0</ele>
        <time>2018-10-03T07:54:49.000Z</time>
      </trkpt>
      <trkpt lat="42.42684333" lon="-7.90189167">
        <ele>448.0</ele>
        <time>2018-10-03T07:54:50.000Z</time>
      </trkpt>
      <trkpt lat="42.42685167" lon="-7.90191">
        <ele>448.0</ele>
        <time>2018-10-03T07:54:51.000Z</time>
      </trkpt>
      <trkpt lat="42.42686167" lon="-7.90192667">
        <ele>448.0</ele>
        <time>2018-10-03T07:54:52.000Z</time>
      </trkpt>
      <trkpt lat="42.42687" lon="-7.901945">
        <ele>448.0</ele>
        <time>2018-10-03T07:54:53.000Z</time>
      </trkpt>
      <trkpt lat="42.42688" lon="-7.90196333">
        <ele>448.0</ele>
        <time>2018-10-03T07:54:54.000Z</time>
      </trkpt>
      <trkpt lat="42.42689" lon="-7.90198167">
        <ele>448.0</ele>
        <time>2018-10-03T07:54:55.000Z</time>
      </trkpt>
      <trkpt lat="42.4269" lon="-7.902">
        <ele>448.0</ele>
        <time>2018-10-03T07:54:56.000Z</time>
      </trkpt>
      <trkpt lat="42.42691" lon="-7.90201667">
        <ele>448.0</ele>
        <time>2018-10-03T07:54:57.000Z</time>
      </trkpt>
      <trkpt lat="42.42692167" lon="-7.90203333">
        <ele>448.0</ele>
        <time>2018-10-03T07:54:58.000Z</time>
      </trkpt>
      <trkpt lat="42.42693167" lon="-7.90204833">
        <ele>449.0</ele>
        <time>2018-10-03T07:54:59.000Z</time>
      </trkpt>
      <trkpt lat="42.42694333" lon="-7.902065">
        <ele>449.0</ele>
        <time>2018-10-03T07:55:00.000Z</time>
      </trkpt>
      <trkpt lat="42.426955" lon="-7.90207833">
        <ele>449.0</ele>
        <time>2018-10-03T07:55:01.000Z</time>
      </trkpt>
      <trkpt lat="42.426965" lon="-7.90209333">
        <ele>449.0</ele>
        <time>2018-10-03T07:55:02.000Z</time>
      </trkpt>
      <trkpt lat="42.426975" lon="-7.90211">
        <ele>449.0</ele>
        <time>2018-10-03T07:55:03.000Z</time>
      </trkpt>
      <trkpt lat="42.426985" lon="-7.90212667">
        <ele>449.0</ele>
        <time>2018-10-03T07:55:04.000Z</time>
      </trkpt>
      <trkpt lat="42.426995" lon="-7.90214333">
        <ele>449.0</ele>
        <time>2018-10-03T07:55:05.000Z</time>
      </trkpt>
      <trkpt lat="42.427005" lon="-7.90216">
        <ele>449.0</ele>
        <time>2018-10-03T07:55:06.000Z</time>
      </trkpt>
      <trkpt lat="42.42701333" lon="-7.902175">
        <ele>449.0</ele>
        <time>2018-10-03T07:55:07.000Z</time>
      </trkpt>
      <trkpt lat="42.42702333" lon="-7.90219167">
        <ele>449.0</ele>
        <time>2018-10-03T07:55:08.000Z</time>
      </trkpt>
      <trkpt lat="42.427035" lon="-7.90221167">
        <ele>449.0</ele>
        <time>2018-10-03T07:55:09.000Z</time>
      </trkpt>
      <trkpt lat="42.427045" lon="-7.90223">
        <ele>449.0</ele>
        <time>2018-10-03T07:55:10.000Z</time>
      </trkpt>
      <trkpt lat="42.427055" lon="-7.90225">
        <ele>449.0</ele>
        <time>2018-10-03T07:55:11.000Z</time>
      </trkpt>
      <trkpt lat="42.42707" lon="-7.90226667">
        <ele>449.0</ele>
        <time>2018-10-03T07:55:12.000Z</time>
      </trkpt>
      <trkpt lat="42.42708333" lon="-7.90228167">
        <ele>449.0</ele>
        <time>2018-10-03T07:55:13.000Z</time>
      </trkpt>
      <trkpt lat="42.427095" lon="-7.90229667">
        <ele>449.0</ele>
        <time>2018-10-03T07:55:14.000Z</time>
      </trkpt>
      <trkpt lat="42.42710333" lon="-7.90231">
        <ele>449.0</ele>
        <time>2018-10-03T07:55:15.000Z</time>
      </trkpt>
      <trkpt lat="42.42711167" lon="-7.902325">
        <ele>449.0</ele>
        <time>2018-10-03T07:55:16.000Z</time>
      </trkpt>
      <trkpt lat="42.42712" lon="-7.90234">
        <ele>449.0</ele>
        <time>2018-10-03T07:55:17.000Z</time>
      </trkpt>
      <trkpt lat="42.42713" lon="-7.90235667">
        <ele>450.0</ele>
        <time>2018-10-03T07:55:18.000Z</time>
      </trkpt>
      <trkpt lat="42.42714" lon="-7.90237333">
        <ele>450.0</ele>
        <time>2018-10-03T07:55:19.000Z</time>
      </trkpt>
      <trkpt lat="42.42715167" lon="-7.90239">
        <ele>450.0</ele>
        <time>2018-10-03T07:55:20.000Z</time>
      </trkpt>
      <trkpt lat="42.427165" lon="-7.902405">
        <ele>450.0</ele>
        <time>2018-10-03T07:55:21.000Z</time>
      </trkpt>
      <trkpt lat="42.42717667" lon="-7.90241833">
        <ele>451.0</ele>
        <time>2018-10-03T07:55:22.000Z</time>
      </trkpt>
      <trkpt lat="42.42718833" lon="-7.90243167">
        <ele>451.0</ele>
        <time>2018-10-03T07:55:23.000Z</time>
      </trkpt>
      <trkpt lat="42.4272" lon="-7.90244333">
        <ele>451.0</ele>
        <time>2018-10-03T07:55:24.000Z</time>
      </trkpt>
      <trkpt lat="42.42721167" lon="-7.90245667">
        <ele>452.0</ele>
        <time>2018-10-03T07:55:25.000Z</time>
      </trkpt>
      <trkpt lat="42.427225" lon="-7.90247">
        <ele>452.0</ele>
        <time>2018-10-03T07:55:26.000Z</time>
      </trkpt>
      <trkpt lat="42.42723833" lon="-7.90248">
        <ele>452.0</ele>
        <time>2018-10-03T07:55:27.000Z</time>
      </trkpt>
      <trkpt lat="42.427255" lon="-7.90248833">
        <ele>453.0</ele>
        <time>2018-10-03T07:55:28.000Z</time>
      </trkpt>
      <trkpt lat="42.42727167" lon="-7.902495">
        <ele>453.0</ele>
        <time>2018-10-03T07:55:29.000Z</time>
      </trkpt>
      <trkpt lat="42.42728833" lon="-7.90250333">
        <ele>453.0</ele>
        <time>2018-10-03T07:55:30.000Z</time>
      </trkpt>
      <trkpt lat="42.42730333" lon="-7.90251167">
        <ele>453.0</ele>
        <time>2018-10-03T07:55:31.000Z</time>
      </trkpt>
      <trkpt lat="42.42731833" lon="-7.90252167">
        <ele>454.0</ele>
        <time>2018-10-03T07:55:32.000Z</time>
      </trkpt>
      <trkpt lat="42.42733167" lon="-7.90253">
        <ele>454.0</ele>
        <time>2018-10-03T07:55:33.000Z</time>
      </trkpt>
      <trkpt lat="42.427345" lon="-7.90254">
        <ele>454.0</ele>
        <time>2018-10-03T07:55:34.000Z</time>
      </trkpt>
      <trkpt lat="42.42735833" lon="-7.90254833">
        <ele>454.0</ele>
        <time>2018-10-03T07:55:35.000Z</time>
      </trkpt>
      <trkpt lat="42.42737333" lon="-7.90255833">
        <ele>454.0</ele>
        <time>2018-10-03T07:55:36.000Z</time>
      </trkpt>
      <trkpt lat="42.42738667" lon="-7.90256667">
        <ele>454.0</ele>
        <time>2018-10-03T07:55:37.000Z</time>
      </trkpt>
      <trkpt lat="42.42740167" lon="-7.90257667">
        <ele>454.0</ele>
        <time>2018-10-03T07:55:38.000Z</time>
      </trkpt>
      <trkpt lat="42.42741667" lon="-7.902585">
        <ele>454.0</ele>
        <time>2018-10-03T07:55:39.000Z</time>
      </trkpt>
      <trkpt lat="42.42743" lon="-7.90259833">
        <ele>455.0</ele>
        <time>2018-10-03T07:55:40.000Z</time>
      </trkpt>
      <trkpt lat="42.427445" lon="-7.90260667">
        <ele>455.0</ele>
        <time>2018-10-03T07:55:41.000Z</time>
      </trkpt>
      <trkpt lat="42.42746" lon="-7.902615">
        <ele>455.0</ele>
        <time>2018-10-03T07:55:42.000Z</time>
      </trkpt>
      <trkpt lat="42.42747667" lon="-7.90262333">
        <ele>455.0</ele>
        <time>2018-10-03T07:55:43.000Z</time>
      </trkpt>
      <trkpt lat="42.42749167" lon="-7.90263333">
        <ele>455.0</ele>
        <time>2018-10-03T07:55:44.000Z</time>
      </trkpt>
      <trkpt lat="42.427505" lon="-7.902645">
        <ele>455.0</ele>
        <time>2018-10-03T07:55:45.000Z</time>
      </trkpt>
      <trkpt lat="42.42752" lon="-7.90265833">
        <ele>455.0</ele>
        <time>2018-10-03T07:55:46.000Z</time>
      </trkpt>
      <trkpt lat="42.427535" lon="-7.90267">
        <ele>455.0</ele>
        <time>2018-10-03T07:55:47.000Z</time>
      </trkpt>
      <trkpt lat="42.42755" lon="-7.90268">
        <ele>455.0</ele>
        <time>2018-10-03T07:55:48.000Z</time>
      </trkpt>
      <trkpt lat="42.427565" lon="-7.90269">
        <ele>455.0</ele>
        <time>2018-10-03T07:55:49.000Z</time>
      </trkpt>
      <trkpt lat="42.42757833" lon="-7.90269833">
        <ele>455.0</ele>
        <time>2018-10-03T07:55:50.000Z</time>
      </trkpt>
      <trkpt lat="42.427595" lon="-7.90270833">
        <ele>455.0</ele>
        <time>2018-10-03T07:55:51.000Z</time>
      </trkpt>
      <trkpt lat="42.42761" lon="-7.902715">
        <ele>455.0</ele>
        <time>2018-10-03T07:55:52.000Z</time>
      </trkpt>
      <trkpt lat="42.42762667" lon="-7.90272167">
        <ele>455.0</ele>
        <time>2018-10-03T07:55:53.000Z</time>
      </trkpt>
      <trkpt lat="42.42764167" lon="-7.90272833">
        <ele>455.0</ele>
        <time>2018-10-03T07:55:54.000Z</time>
      </trkpt>
      <trkpt lat="42.42765667" lon="-7.90273667">
        <ele>455.0</ele>
        <time>2018-10-03T07:55:55.000Z</time>
      </trkpt>
      <trkpt lat="42.42767333" lon="-7.902745">
        <ele>454.0</ele>
        <time>2018-10-03T07:55:56.000Z</time>
      </trkpt>
      <trkpt lat="42.42768833" lon="-7.90275333">
        <ele>454.0</ele>
        <time>2018-10-03T07:55:57.000Z</time>
      </trkpt>
      <trkpt lat="42.42770167" lon="-7.90276167">
        <ele>454.0</ele>
        <time>2018-10-03T07:55:58.000Z</time>
      </trkpt>
      <trkpt lat="42.42771667" lon="-7.90277167">
        <ele>454.0</ele>
        <time>2018-10-03T07:55:59.000Z</time>
      </trkpt>
      <trkpt lat="42.42773167" lon="-7.90278333">
        <ele>454.0</ele>
        <time>2018-10-03T07:56:00.000Z</time>
      </trkpt>
      <trkpt lat="42.42774333" lon="-7.90279333">
        <ele>454.0</ele>
        <time>2018-10-03T07:56:01.000Z</time>
      </trkpt>
      <trkpt lat="42.42776" lon="-7.90280333">
        <ele>454.0</ele>
        <time>2018-10-03T07:56:02.000Z</time>
      </trkpt>
      <trkpt lat="42.42777333" lon="-7.90281167">
        <ele>454.0</ele>
        <time>2018-10-03T07:56:03.000Z</time>
      </trkpt>
      <trkpt lat="42.42778833" lon="-7.90282167">
        <ele>454.0</ele>
        <time>2018-10-03T07:56:04.000Z</time>
      </trkpt>
      <trkpt lat="42.42780167" lon="-7.90283167">
        <ele>454.0</ele>
        <time>2018-10-03T07:56:05.000Z</time>
      </trkpt>
      <trkpt lat="42.42781333" lon="-7.902845">
        <ele>454.0</ele>
        <time>2018-10-03T07:56:06.000Z</time>
      </trkpt>
      <trkpt lat="42.42783" lon="-7.902855">
        <ele>454.0</ele>
        <time>2018-10-03T07:56:07.000Z</time>
      </trkpt>
      <trkpt lat="42.42784167" lon="-7.90286667">
        <ele>454.0</ele>
        <time>2018-10-03T07:56:08.000Z</time>
      </trkpt>
      <trkpt lat="42.427855" lon="-7.90287833">
        <ele>454.0</ele>
        <time>2018-10-03T07:56:09.000Z</time>
      </trkpt>
      <trkpt lat="42.42786667" lon="-7.90289167">
        <ele>454.0</ele>
        <time>2018-10-03T07:56:10.000Z</time>
      </trkpt>
      <trkpt lat="42.42788" lon="-7.90290667">
        <ele>454.0</ele>
        <time>2018-10-03T07:56:11.000Z</time>
      </trkpt>
      <trkpt lat="42.42789333" lon="-7.90292">
        <ele>454.0</ele>
        <time>2018-10-03T07:56:12.000Z</time>
      </trkpt>
      <trkpt lat="42.427905" lon="-7.902935">
        <ele>455.0</ele>
        <time>2018-10-03T07:56:13.000Z</time>
      </trkpt>
      <trkpt lat="42.427915" lon="-7.90294667">
        <ele>455.0</ele>
        <time>2018-10-03T07:56:14.000Z</time>
      </trkpt>
      <trkpt lat="42.427925" lon="-7.90296">
        <ele>455.0</ele>
        <time>2018-10-03T07:56:15.000Z</time>
      </trkpt>
      <trkpt lat="42.42793167" lon="-7.902975">
        <ele>455.0</ele>
        <time>2018-10-03T07:56:16.000Z</time>
      </trkpt>
      <trkpt lat="42.42794167" lon="-7.90299">
        <ele>455.0</ele>
        <time>2018-10-03T07:56:17.000Z</time>
      </trkpt>
      <trkpt lat="42.42795167" lon="-7.90300333">
        <ele>455.0</ele>
        <time>2018-10-03T07:56:18.000Z</time>
      </trkpt>
      <trkpt lat="42.42796167" lon="-7.90302">
        <ele>455.0</ele>
        <time>2018-10-03T07:56:19.000Z</time>
      </trkpt>
      <trkpt lat="42.42797333" lon="-7.90303667">
        <ele>455.0</ele>
        <time>2018-10-03T07:56:20.000Z</time>
      </trkpt>
      <trkpt lat="42.427985" lon="-7.90305167">
        <ele>455.0</ele>
        <time>2018-10-03T07:56:21.000Z</time>
      </trkpt>
      <trkpt lat="42.42799667" lon="-7.90307">
        <ele>455.0</ele>
        <time>2018-10-03T07:56:22.000Z</time>
      </trkpt>
      <trkpt lat="42.42800833" lon="-7.90308667">
        <ele>455.0</ele>
        <time>2018-10-03T07:56:23.000Z</time>
      </trkpt>
      <trkpt lat="42.42802" lon="-7.90310167">
        <ele>455.0</ele>
        <time>2018-10-03T07:56:24.000Z</time>
      </trkpt>
      <trkpt lat="42.42803" lon="-7.90312">
        <ele>455.0</ele>
        <time>2018-10-03T07:56:25.000Z</time>
      </trkpt>
      <trkpt lat="42.42804167" lon="-7.903135">
        <ele>455.0</ele>
        <time>2018-10-03T07:56:26.000Z</time>
      </trkpt>
      <trkpt lat="42.42805167" lon="-7.90315333">
        <ele>456.0</ele>
        <time>2018-10-03T07:56:27.000Z</time>
      </trkpt>
      <trkpt lat="42.42806167" lon="-7.90316833">
        <ele>456.0</ele>
        <time>2018-10-03T07:56:28.000Z</time>
      </trkpt>
      <trkpt lat="42.42807167" lon="-7.90318667">
        <ele>456.0</ele>
        <time>2018-10-03T07:56:29.000Z</time>
      </trkpt>
      <trkpt lat="42.42808167" lon="-7.90320333">
        <ele>456.0</ele>
        <time>2018-10-03T07:56:30.000Z</time>
      </trkpt>
      <trkpt lat="42.42809167" lon="-7.90322">
        <ele>456.0</ele>
        <time>2018-10-03T07:56:31.000Z</time>
      </trkpt>
      <trkpt lat="42.42810167" lon="-7.90324">
        <ele>456.0</ele>
        <time>2018-10-03T07:56:32.000Z</time>
      </trkpt>
      <trkpt lat="42.428115" lon="-7.90325667">
        <ele>456.0</ele>
        <time>2018-10-03T07:56:33.000Z</time>
      </trkpt>
      <trkpt lat="42.428125" lon="-7.903275">
        <ele>456.0</ele>
        <time>2018-10-03T07:56:34.000Z</time>
      </trkpt>
      <trkpt lat="42.428135" lon="-7.90329333">
        <ele>456.0</ele>
        <time>2018-10-03T07:56:35.000Z</time>
      </trkpt>
      <trkpt lat="42.428145" lon="-7.90331">
        <ele>456.0</ele>
        <time>2018-10-03T07:56:36.000Z</time>
      </trkpt>
      <trkpt lat="42.428155" lon="-7.90332833">
        <ele>456.0</ele>
        <time>2018-10-03T07:56:37.000Z</time>
      </trkpt>
      <trkpt lat="42.42816333" lon="-7.90334667">
        <ele>456.0</ele>
        <time>2018-10-03T07:56:38.000Z</time>
      </trkpt>
      <trkpt lat="42.428175" lon="-7.90336333">
        <ele>456.0</ele>
        <time>2018-10-03T07:56:39.000Z</time>
      </trkpt>
      <trkpt lat="42.42818667" lon="-7.90338167">
        <ele>456.0</ele>
        <time>2018-10-03T07:56:40.000Z</time>
      </trkpt>
      <trkpt lat="42.42819667" lon="-7.9034">
        <ele>456.0</ele>
        <time>2018-10-03T07:56:41.000Z</time>
      </trkpt>
      <trkpt lat="42.42820833" lon="-7.90341833">
        <ele>456.0</ele>
        <time>2018-10-03T07:56:42.000Z</time>
      </trkpt>
      <trkpt lat="42.42822" lon="-7.903435">
        <ele>456.0</ele>
        <time>2018-10-03T07:56:43.000Z</time>
      </trkpt>
      <trkpt lat="42.42823" lon="-7.90345167">
        <ele>457.0</ele>
        <time>2018-10-03T07:56:44.000Z</time>
      </trkpt>
      <trkpt lat="42.42824" lon="-7.90346833">
        <ele>457.0</ele>
        <time>2018-10-03T07:56:45.000Z</time>
      </trkpt>
      <trkpt lat="42.42824833" lon="-7.90348833">
        <ele>457.0</ele>
        <time>2018-10-03T07:56:46.000Z</time>
      </trkpt>
      <trkpt lat="42.42825667" lon="-7.903505">
        <ele>457.0</ele>
        <time>2018-10-03T07:56:47.000Z</time>
      </trkpt>
      <trkpt lat="42.428265" lon="-7.90352333">
        <ele>457.0</ele>
        <time>2018-10-03T07:56:48.000Z</time>
      </trkpt>
      <trkpt lat="42.42827333" lon="-7.90354167">
        <ele>457.0</ele>
        <time>2018-10-03T07:56:49.000Z</time>
      </trkpt>
      <trkpt lat="42.428285" lon="-7.90356">
        <ele>457.0</ele>
        <time>2018-10-03T07:56:50.000Z</time>
      </trkpt>
      <trkpt lat="42.428295" lon="-7.90357833">
        <ele>457.0</ele>
        <time>2018-10-03T07:56:51.000Z</time>
      </trkpt>
      <trkpt lat="42.42830333" lon="-7.90359667">
        <ele>457.0</ele>
        <time>2018-10-03T07:56:52.000Z</time>
      </trkpt>
      <trkpt lat="42.42831167" lon="-7.90361667">
        <ele>457.0</ele>
        <time>2018-10-03T07:56:53.000Z</time>
      </trkpt>
      <trkpt lat="42.42832" lon="-7.90363333">
        <ele>457.0</ele>
        <time>2018-10-03T07:56:54.000Z</time>
      </trkpt>
      <trkpt lat="42.42832833" lon="-7.90365">
        <ele>457.0</ele>
        <time>2018-10-03T07:56:55.000Z</time>
      </trkpt>
      <trkpt lat="42.42833667" lon="-7.90366833">
        <ele>457.0</ele>
        <time>2018-10-03T07:56:56.000Z</time>
      </trkpt>
      <trkpt lat="42.42834333" lon="-7.903685">
        <ele>458.0</ele>
        <time>2018-10-03T07:56:57.000Z</time>
      </trkpt>
      <trkpt lat="42.42835167" lon="-7.9037">
        <ele>458.0</ele>
        <time>2018-10-03T07:56:58.000Z</time>
      </trkpt>
      <trkpt lat="42.42836167" lon="-7.90371667">
        <ele>458.0</ele>
        <time>2018-10-03T07:56:59.000Z</time>
      </trkpt>
      <trkpt lat="42.42837" lon="-7.90373667">
        <ele>458.0</ele>
        <time>2018-10-03T07:57:00.000Z</time>
      </trkpt>
      <trkpt lat="42.42838167" lon="-7.90375333">
        <ele>458.0</ele>
        <time>2018-10-03T07:57:01.000Z</time>
      </trkpt>
      <trkpt lat="42.42839167" lon="-7.90377167">
        <ele>458.0</ele>
        <time>2018-10-03T07:57:02.000Z</time>
      </trkpt>
      <trkpt lat="42.4284" lon="-7.90379">
        <ele>458.0</ele>
        <time>2018-10-03T07:57:03.000Z</time>
      </trkpt>
      <trkpt lat="42.42840667" lon="-7.90380833">
        <ele>458.0</ele>
        <time>2018-10-03T07:57:04.000Z</time>
      </trkpt>
      <trkpt lat="42.428415" lon="-7.903825">
        <ele>458.0</ele>
        <time>2018-10-03T07:57:05.000Z</time>
      </trkpt>
      <trkpt lat="42.42842" lon="-7.90384333">
        <ele>458.0</ele>
        <time>2018-10-03T07:57:06.000Z</time>
      </trkpt>
      <trkpt lat="42.42843" lon="-7.90386167">
        <ele>458.0</ele>
        <time>2018-10-03T07:57:07.000Z</time>
      </trkpt>
      <trkpt lat="42.42843833" lon="-7.90388">
        <ele>459.0</ele>
        <time>2018-10-03T07:57:08.000Z</time>
      </trkpt>
      <trkpt lat="42.42844833" lon="-7.90389833">
        <ele>459.0</ele>
        <time>2018-10-03T07:57:09.000Z</time>
      </trkpt>
      <trkpt lat="42.42845667" lon="-7.90391667">
        <ele>459.0</ele>
        <time>2018-10-03T07:57:10.000Z</time>
      </trkpt>
      <trkpt lat="42.428465" lon="-7.903935">
        <ele>459.0</ele>
        <time>2018-10-03T07:57:11.000Z</time>
      </trkpt>
      <trkpt lat="42.42847" lon="-7.90395333">
        <ele>459.0</ele>
        <time>2018-10-03T07:57:12.000Z</time>
      </trkpt>
      <trkpt lat="42.42847667" lon="-7.90397167">
        <ele>460.0</ele>
        <time>2018-10-03T07:57:13.000Z</time>
      </trkpt>
      <trkpt lat="42.42848333" lon="-7.90399167">
        <ele>460.0</ele>
        <time>2018-10-03T07:57:14.000Z</time>
      </trkpt>
      <trkpt lat="42.42849" lon="-7.90401333">
        <ele>460.0</ele>
        <time>2018-10-03T07:57:15.000Z</time>
      </trkpt>
      <trkpt lat="42.42849667" lon="-7.904035">
        <ele>460.0</ele>
        <time>2018-10-03T07:57:16.000Z</time>
      </trkpt>
      <trkpt lat="42.42850667" lon="-7.904055">
        <ele>460.0</ele>
        <time>2018-10-03T07:57:17.000Z</time>
      </trkpt>
      <trkpt lat="42.42851667" lon="-7.90407333">
        <ele>461.0</ele>
        <time>2018-10-03T07:57:18.000Z</time>
      </trkpt>
      <trkpt lat="42.428525" lon="-7.904095">
        <ele>461.0</ele>
        <time>2018-10-03T07:57:19.000Z</time>
      </trkpt>
      <trkpt lat="42.42853333" lon="-7.904115">
        <ele>461.0</ele>
        <time>2018-10-03T07:57:20.000Z</time>
      </trkpt>
      <trkpt lat="42.42854" lon="-7.90413333">
        <ele>461.0</ele>
        <time>2018-10-03T07:57:21.000Z</time>
      </trkpt>
      <trkpt lat="42.42854667" lon="-7.90415">
        <ele>462.0</ele>
        <time>2018-10-03T07:57:22.000Z</time>
      </trkpt>
      <trkpt lat="42.428555" lon="-7.90416833">
        <ele>462.0</ele>
        <time>2018-10-03T07:57:23.000Z</time>
      </trkpt>
      <trkpt lat="42.428565" lon="-7.90418333">
        <ele>462.0</ele>
        <time>2018-10-03T07:57:24.000Z</time>
      </trkpt>
      <trkpt lat="42.428575" lon="-7.90419833">
        <ele>462.0</ele>
        <time>2018-10-03T07:57:25.000Z</time>
      </trkpt>
      <trkpt lat="42.42858833" lon="-7.90421333">
        <ele>463.0</ele>
        <time>2018-10-03T07:57:26.000Z</time>
      </trkpt>
      <trkpt lat="42.4286" lon="-7.90422833">
        <ele>463.0</ele>
        <time>2018-10-03T07:57:27.000Z</time>
      </trkpt>
      <trkpt lat="42.42861333" lon="-7.90424167">
        <ele>463.0</ele>
        <time>2018-10-03T07:57:28.000Z</time>
      </trkpt>
      <trkpt lat="42.42862833" lon="-7.90425333">
        <ele>463.0</ele>
        <time>2018-10-03T07:57:29.000Z</time>
      </trkpt>
      <trkpt lat="42.42864167" lon="-7.904265">
        <ele>464.0</ele>
        <time>2018-10-03T07:57:30.000Z</time>
      </trkpt>
      <trkpt lat="42.42865167" lon="-7.904275">
        <ele>464.0</ele>
        <time>2018-10-03T07:57:31.000Z</time>
      </trkpt>
      <trkpt lat="42.428665" lon="-7.904285">
        <ele>464.0</ele>
        <time>2018-10-03T07:57:32.000Z</time>
      </trkpt>
      <trkpt lat="42.42867833" lon="-7.90429333">
        <ele>464.0</ele>
        <time>2018-10-03T07:57:33.000Z</time>
      </trkpt>
      <trkpt lat="42.42869167" lon="-7.90430333">
        <ele>464.0</ele>
        <time>2018-10-03T07:57:34.000Z</time>
      </trkpt>
      <trkpt lat="42.42870667" lon="-7.90431">
        <ele>465.0</ele>
        <time>2018-10-03T07:57:35.000Z</time>
      </trkpt>
      <trkpt lat="42.42871833" lon="-7.90431833">
        <ele>465.0</ele>
        <time>2018-10-03T07:57:36.000Z</time>
      </trkpt>
      <trkpt lat="42.42873167" lon="-7.904325">
        <ele>465.0</ele>
        <time>2018-10-03T07:57:37.000Z</time>
      </trkpt>
      <trkpt lat="42.42874667" lon="-7.904335">
        <ele>465.0</ele>
        <time>2018-10-03T07:57:38.000Z</time>
      </trkpt>
      <trkpt lat="42.42876167" lon="-7.904345">
        <ele>465.0</ele>
        <time>2018-10-03T07:57:39.000Z</time>
      </trkpt>
      <trkpt lat="42.42877667" lon="-7.90435333">
        <ele>465.0</ele>
        <time>2018-10-03T07:57:40.000Z</time>
      </trkpt>
      <trkpt lat="42.42879" lon="-7.90436333">
        <ele>466.0</ele>
        <time>2018-10-03T07:57:41.000Z</time>
      </trkpt>
      <trkpt lat="42.42880333" lon="-7.90437">
        <ele>466.0</ele>
        <time>2018-10-03T07:57:42.000Z</time>
      </trkpt>
      <trkpt lat="42.42881833" lon="-7.90437667">
        <ele>466.0</ele>
        <time>2018-10-03T07:57:43.000Z</time>
      </trkpt>
      <trkpt lat="42.428835" lon="-7.90438167">
        <ele>466.0</ele>
        <time>2018-10-03T07:57:44.000Z</time>
      </trkpt>
      <trkpt lat="42.42885167" lon="-7.90438667">
        <ele>467.0</ele>
        <time>2018-10-03T07:57:45.000Z</time>
      </trkpt>
      <trkpt lat="42.42887" lon="-7.90439167">
        <ele>467.0</ele>
        <time>2018-10-03T07:57:46.000Z</time>
      </trkpt>
      <trkpt lat="42.42889" lon="-7.90439333">
        <ele>468.0</ele>
        <time>2018-10-03T07:57:47.000Z</time>
      </trkpt>
      <trkpt lat="42.42890667" lon="-7.9044">
        <ele>468.0</ele>
        <time>2018-10-03T07:57:48.000Z</time>
      </trkpt>
      <trkpt lat="42.42892167" lon="-7.90440333">
        <ele>468.0</ele>
        <time>2018-10-03T07:57:49.000Z</time>
      </trkpt>
      <trkpt lat="42.428935" lon="-7.90440833">
        <ele>469.0</ele>
        <time>2018-10-03T07:57:50.000Z</time>
      </trkpt>
      <trkpt lat="42.42895" lon="-7.904415">
        <ele>469.0</ele>
        <time>2018-10-03T07:57:51.000Z</time>
      </trkpt>
      <trkpt lat="42.42896667" lon="-7.90441833">
        <ele>469.0</ele>
        <time>2018-10-03T07:57:52.000Z</time>
      </trkpt>
      <trkpt lat="42.428985" lon="-7.90442167">
        <ele>470.0</ele>
        <time>2018-10-03T07:57:53.000Z</time>
      </trkpt>
      <trkpt lat="42.42900167" lon="-7.904425">
        <ele>470.0</ele>
        <time>2018-10-03T07:57:54.000Z</time>
      </trkpt>
      <trkpt lat="42.42901667" lon="-7.90442833">
        <ele>470.0</ele>
        <time>2018-10-03T07:57:55.000Z</time>
      </trkpt>
      <trkpt lat="42.429035" lon="-7.90443167">
        <ele>470.0</ele>
        <time>2018-10-03T07:57:56.000Z</time>
      </trkpt>
      <trkpt lat="42.42905" lon="-7.90443833">
        <ele>471.0</ele>
        <time>2018-10-03T07:57:57.000Z</time>
      </trkpt>
      <trkpt lat="42.429065" lon="-7.90444333">
        <ele>471.0</ele>
        <time>2018-10-03T07:57:58.000Z</time>
      </trkpt>
      <trkpt lat="42.42908" lon="-7.90445">
        <ele>471.0</ele>
        <time>2018-10-03T07:57:59.000Z</time>
      </trkpt>
      <trkpt lat="42.429095" lon="-7.904455">
        <ele>471.0</ele>
        <time>2018-10-03T07:58:00.000Z</time>
      </trkpt>
      <trkpt lat="42.42910833" lon="-7.90446167">
        <ele>471.0</ele>
        <time>2018-10-03T07:58:01.000Z</time>
      </trkpt>
      <trkpt lat="42.42912333" lon="-7.904465">
        <ele>472.0</ele>
        <time>2018-10-03T07:58:02.000Z</time>
      </trkpt>
      <trkpt lat="42.42913667" lon="-7.90446833">
        <ele>472.0</ele>
        <time>2018-10-03T07:58:03.000Z</time>
      </trkpt>
      <trkpt lat="42.42915333" lon="-7.90447167">
        <ele>472.0</ele>
        <time>2018-10-03T07:58:04.000Z</time>
      </trkpt>
      <trkpt lat="42.42916833" lon="-7.90447333">
        <ele>472.0</ele>
        <time>2018-10-03T07:58:05.000Z</time>
      </trkpt>
      <trkpt lat="42.42918333" lon="-7.90447333">
        <ele>472.0</ele>
        <time>2018-10-03T07:58:06.000Z</time>
      </trkpt>
      <trkpt lat="42.42920167" lon="-7.904475">
        <ele>471.0</ele>
        <time>2018-10-03T07:58:07.000Z</time>
      </trkpt>
      <trkpt lat="42.42922" lon="-7.90447833">
        <ele>471.0</ele>
        <time>2018-10-03T07:58:08.000Z</time>
      </trkpt>
      <trkpt lat="42.42923833" lon="-7.90448167">
        <ele>471.0</ele>
        <time>2018-10-03T07:58:09.000Z</time>
      </trkpt>
      <trkpt lat="42.42925833" lon="-7.90448333">
        <ele>471.0</ele>
        <time>2018-10-03T07:58:10.000Z</time>
      </trkpt>
      <trkpt lat="42.42927667" lon="-7.90448667">
        <ele>471.0</ele>
        <time>2018-10-03T07:58:11.000Z</time>
      </trkpt>
      <trkpt lat="42.42929333" lon="-7.90449">
        <ele>470.0</ele>
        <time>2018-10-03T07:58:12.000Z</time>
      </trkpt>
      <trkpt lat="42.42930833" lon="-7.90449333">
        <ele>470.0</ele>
        <time>2018-10-03T07:58:13.000Z</time>
      </trkpt>
      <trkpt lat="42.42931833" lon="-7.90449333">
        <ele>470.0</ele>
        <time>2018-10-03T07:58:14.000Z</time>
      </trkpt>
      <trkpt lat="42.42933333" lon="-7.90449667">
        <ele>470.0</ele>
        <time>2018-10-03T07:58:15.000Z</time>
      </trkpt>
      <trkpt lat="42.42934833" lon="-7.90450167">
        <ele>469.0</ele>
        <time>2018-10-03T07:58:16.000Z</time>
      </trkpt>
      <trkpt lat="42.429365" lon="-7.90450833">
        <ele>469.0</ele>
        <time>2018-10-03T07:58:17.000Z</time>
      </trkpt>
      <trkpt lat="42.42938" lon="-7.90451833">
        <ele>469.0</ele>
        <time>2018-10-03T07:58:18.000Z</time>
      </trkpt>
      <trkpt lat="42.429395" lon="-7.90453">
        <ele>469.0</ele>
        <time>2018-10-03T07:58:19.000Z</time>
      </trkpt>
      <trkpt lat="42.42941167" lon="-7.90454">
        <ele>469.0</ele>
        <time>2018-10-03T07:58:20.000Z</time>
      </trkpt>
      <trkpt lat="42.42942667" lon="-7.90455">
        <ele>468.0</ele>
        <time>2018-10-03T07:58:21.000Z</time>
      </trkpt>
      <trkpt lat="42.42944167" lon="-7.90456">
        <ele>468.0</ele>
        <time>2018-10-03T07:58:22.000Z</time>
      </trkpt>
      <trkpt lat="42.42945667" lon="-7.90457333">
        <ele>468.0</ele>
        <time>2018-10-03T07:58:23.000Z</time>
      </trkpt>
      <trkpt lat="42.42947" lon="-7.904585">
        <ele>468.0</ele>
        <time>2018-10-03T07:58:24.000Z</time>
      </trkpt>
      <trkpt lat="42.42948333" lon="-7.904595">
        <ele>467.0</ele>
        <time>2018-10-03T07:58:25.000Z</time>
      </trkpt>
      <trkpt lat="42.42949667" lon="-7.90460833">
        <ele>467.0</ele>
        <time>2018-10-03T07:58:26.000Z</time>
      </trkpt>
      <trkpt lat="42.42951" lon="-7.90462333">
        <ele>467.0</ele>
        <time>2018-10-03T07:58:27.000Z</time>
      </trkpt>
      <trkpt lat="42.42952333" lon="-7.90463833">
        <ele>466.0</ele>
        <time>2018-10-03T07:58:28.000Z</time>
      </trkpt>
      <trkpt lat="42.42953833" lon="-7.90465333">
        <ele>466.0</ele>
        <time>2018-10-03T07:58:29.000Z</time>
      </trkpt>
      <trkpt lat="42.42955333" lon="-7.90466833">
        <ele>466.0</ele>
        <time>2018-10-03T07:58:30.000Z</time>
      </trkpt>
      <trkpt lat="42.42956833" lon="-7.90468167">
        <ele>466.0</ele>
        <time>2018-10-03T07:58:31.000Z</time>
      </trkpt>
      <trkpt lat="42.429585" lon="-7.90469667">
        <ele>466.0</ele>
        <time>2018-10-03T07:58:32.000Z</time>
      </trkpt>
      <trkpt lat="42.4296" lon="-7.90471333">
        <ele>466.0</ele>
        <time>2018-10-03T07:58:33.000Z</time>
      </trkpt>
      <trkpt lat="42.42961167" lon="-7.90472833">
        <ele>465.0</ele>
        <time>2018-10-03T07:58:34.000Z</time>
      </trkpt>
      <trkpt lat="42.42962333" lon="-7.90474167">
        <ele>465.0</ele>
        <time>2018-10-03T07:58:35.000Z</time>
      </trkpt>
      <trkpt lat="42.429635" lon="-7.90475667">
        <ele>465.0</ele>
        <time>2018-10-03T07:58:36.000Z</time>
      </trkpt>
      <trkpt lat="42.42964833" lon="-7.90477333">
        <ele>465.0</ele>
        <time>2018-10-03T07:58:37.000Z</time>
      </trkpt>
      <trkpt lat="42.42966167" lon="-7.90479167">
        <ele>465.0</ele>
        <time>2018-10-03T07:58:38.000Z</time>
      </trkpt>
      <trkpt lat="42.42967667" lon="-7.90480833">
        <ele>465.0</ele>
        <time>2018-10-03T07:58:39.000Z</time>
      </trkpt>
      <trkpt lat="42.42969167" lon="-7.90482667">
        <ele>465.0</ele>
        <time>2018-10-03T07:58:40.000Z</time>
      </trkpt>
      <trkpt lat="42.42970333" lon="-7.90484333">
        <ele>465.0</ele>
        <time>2018-10-03T07:58:41.000Z</time>
      </trkpt>
      <trkpt lat="42.42971667" lon="-7.90486">
        <ele>465.0</ele>
        <time>2018-10-03T07:58:42.000Z</time>
      </trkpt>
      <trkpt lat="42.42972667" lon="-7.904875">
        <ele>465.0</ele>
        <time>2018-10-03T07:58:43.000Z</time>
      </trkpt>
      <trkpt lat="42.42974167" lon="-7.90489">
        <ele>465.0</ele>
        <time>2018-10-03T07:58:44.000Z</time>
      </trkpt>
      <trkpt lat="42.42975667" lon="-7.90490833">
        <ele>465.0</ele>
        <time>2018-10-03T07:58:45.000Z</time>
      </trkpt>
      <trkpt lat="42.42976833" lon="-7.90492167">
        <ele>465.0</ele>
        <time>2018-10-03T07:58:46.000Z</time>
      </trkpt>
      <trkpt lat="42.42977333" lon="-7.90492667">
        <ele>465.0</ele>
        <time>2018-10-03T07:58:47.000Z</time>
      </trkpt>
      <trkpt lat="42.42977333" lon="-7.90492833">
        <ele>465.0</ele>
        <time>2018-10-03T07:58:48.000Z</time>
      </trkpt>
      <trkpt lat="42.42977333" lon="-7.90493">
        <ele>465.0</ele>
        <time>2018-10-03T07:58:49.000Z</time>
      </trkpt>
      <trkpt lat="42.429775" lon="-7.90493167">
        <ele>465.0</ele>
        <time>2018-10-03T07:58:50.000Z</time>
      </trkpt>
      <trkpt lat="42.429775" lon="-7.90493167">
        <ele>465.0</ele>
        <time>2018-10-03T07:58:51.000Z</time>
      </trkpt>
      <trkpt lat="42.429775" lon="-7.90493167">
        <ele>465.0</ele>
        <time>2018-10-03T07:58:52.000Z</time>
      </trkpt>
      <trkpt lat="42.42977667" lon="-7.90493167">
        <ele>465.0</ele>
        <time>2018-10-03T07:58:53.000Z</time>
      </trkpt>
      <trkpt lat="42.42977833" lon="-7.904935">
        <ele>465.0</ele>
        <time>2018-10-03T07:58:54.000Z</time>
      </trkpt>
      <trkpt lat="42.42979" lon="-7.90494833">
        <ele>465.0</ele>
        <time>2018-10-03T07:58:55.000Z</time>
      </trkpt>
      <trkpt lat="42.4298" lon="-7.90496333">
        <ele>465.0</ele>
        <time>2018-10-03T07:58:56.000Z</time>
      </trkpt>
      <trkpt lat="42.42981333" lon="-7.90497833">
        <ele>466.0</ele>
        <time>2018-10-03T07:58:57.000Z</time>
      </trkpt>
      <trkpt lat="42.42982667" lon="-7.90499333">
        <ele>466.0</ele>
        <time>2018-10-03T07:58:58.000Z</time>
      </trkpt>
      <trkpt lat="42.42984" lon="-7.90501167">
        <ele>466.0</ele>
        <time>2018-10-03T07:58:59.000Z</time>
      </trkpt>
      <trkpt lat="42.42985167" lon="-7.90502667">
        <ele>465.0</ele>
        <time>2018-10-03T07:59:00.000Z</time>
      </trkpt>
      <trkpt lat="42.42986333" lon="-7.90504">
        <ele>465.0</ele>
        <time>2018-10-03T07:59:01.000Z</time>
      </trkpt>
      <trkpt lat="42.429875" lon="-7.905055">
        <ele>465.0</ele>
        <time>2018-10-03T07:59:02.000Z</time>
      </trkpt>
      <trkpt lat="42.42989" lon="-7.90507167">
        <ele>465.0</ele>
        <time>2018-10-03T07:59:03.000Z</time>
      </trkpt>
      <trkpt lat="42.42990333" lon="-7.90508833">
        <ele>465.0</ele>
        <time>2018-10-03T07:59:04.000Z</time>
      </trkpt>
      <trkpt lat="42.42991833" lon="-7.90510167">
        <ele>465.0</ele>
        <time>2018-10-03T07:59:05.000Z</time>
      </trkpt>
      <trkpt lat="42.42993" lon="-7.905115">
        <ele>465.0</ele>
        <time>2018-10-03T07:59:06.000Z</time>
      </trkpt>
      <trkpt lat="42.42994333" lon="-7.90513">
        <ele>465.0</ele>
        <time>2018-10-03T07:59:07.000Z</time>
      </trkpt>
      <trkpt lat="42.429955" lon="-7.905145">
        <ele>465.0</ele>
        <time>2018-10-03T07:59:08.000Z</time>
      </trkpt>
      <trkpt lat="42.42996667" lon="-7.90516333">
        <ele>464.0</ele>
        <time>2018-10-03T07:59:09.000Z</time>
      </trkpt>
      <trkpt lat="42.42998" lon="-7.90517833">
        <ele>464.0</ele>
        <time>2018-10-03T07:59:10.000Z</time>
      </trkpt>
      <trkpt lat="42.42999333" lon="-7.90519333">
        <ele>464.0</ele>
        <time>2018-10-03T07:59:11.000Z</time>
      </trkpt>
      <trkpt lat="42.43000333" lon="-7.90521">
        <ele>464.0</ele>
        <time>2018-10-03T07:59:12.000Z</time>
      </trkpt>
      <trkpt lat="42.43001333" lon="-7.905225">
        <ele>464.0</ele>
        <time>2018-10-03T07:59:13.000Z</time>
      </trkpt>
      <trkpt lat="42.430025" lon="-7.90524167">
        <ele>464.0</ele>
        <time>2018-10-03T07:59:14.000Z</time>
      </trkpt>
      <trkpt lat="42.43003833" lon="-7.905255">
        <ele>463.0</ele>
        <time>2018-10-03T07:59:15.000Z</time>
      </trkpt>
      <trkpt lat="42.43005167" lon="-7.90527">
        <ele>463.0</ele>
        <time>2018-10-03T07:59:16.000Z</time>
      </trkpt>
      <trkpt lat="42.43006667" lon="-7.90528333">
        <ele>463.0</ele>
        <time>2018-10-03T07:59:17.000Z</time>
      </trkpt>
      <trkpt lat="42.43008167" lon="-7.90529833">
        <ele>463.0</ele>
        <time>2018-10-03T07:59:18.000Z</time>
      </trkpt>
      <trkpt lat="42.43009333" lon="-7.90531167">
        <ele>463.0</ele>
        <time>2018-10-03T07:59:19.000Z</time>
      </trkpt>
      <trkpt lat="42.43010833" lon="-7.90532667">
        <ele>463.0</ele>
        <time>2018-10-03T07:59:20.000Z</time>
      </trkpt>
      <trkpt lat="42.43012" lon="-7.90534167">
        <ele>463.0</ele>
        <time>2018-10-03T07:59:21.000Z</time>
      </trkpt>
      <trkpt lat="42.43013333" lon="-7.90535667">
        <ele>462.0</ele>
        <time>2018-10-03T07:59:22.000Z</time>
      </trkpt>
      <trkpt lat="42.43014833" lon="-7.90537333">
        <ele>462.0</ele>
        <time>2018-10-03T07:59:23.000Z</time>
      </trkpt>
      <trkpt lat="42.43016333" lon="-7.90538833">
        <ele>462.0</ele>
        <time>2018-10-03T07:59:24.000Z</time>
      </trkpt>
      <trkpt lat="42.43017833" lon="-7.90540333">
        <ele>462.0</ele>
        <time>2018-10-03T07:59:25.000Z</time>
      </trkpt>
      <trkpt lat="42.43019" lon="-7.90542">
        <ele>462.0</ele>
        <time>2018-10-03T07:59:26.000Z</time>
      </trkpt>
      <trkpt lat="42.43020167" lon="-7.90543667">
        <ele>462.0</ele>
        <time>2018-10-03T07:59:27.000Z</time>
      </trkpt>
      <trkpt lat="42.43021333" lon="-7.90545333">
        <ele>462.0</ele>
        <time>2018-10-03T07:59:28.000Z</time>
      </trkpt>
      <trkpt lat="42.43022833" lon="-7.90547">
        <ele>462.0</ele>
        <time>2018-10-03T07:59:29.000Z</time>
      </trkpt>
      <trkpt lat="42.43024333" lon="-7.905485">
        <ele>462.0</ele>
        <time>2018-10-03T07:59:30.000Z</time>
      </trkpt>
      <trkpt lat="42.43025667" lon="-7.90549833">
        <ele>462.0</ele>
        <time>2018-10-03T07:59:31.000Z</time>
      </trkpt>
      <trkpt lat="42.43027" lon="-7.90551333">
        <ele>462.0</ele>
        <time>2018-10-03T07:59:32.000Z</time>
      </trkpt>
      <trkpt lat="42.43028167" lon="-7.90552833">
        <ele>462.0</ele>
        <time>2018-10-03T07:59:33.000Z</time>
      </trkpt>
      <trkpt lat="42.430295" lon="-7.90554333">
        <ele>462.0</ele>
        <time>2018-10-03T07:59:34.000Z</time>
      </trkpt>
      <trkpt lat="42.43030833" lon="-7.90555833">
        <ele>462.0</ele>
        <time>2018-10-03T07:59:35.000Z</time>
      </trkpt>
      <trkpt lat="42.43032167" lon="-7.90557167">
        <ele>462.0</ele>
        <time>2018-10-03T07:59:36.000Z</time>
      </trkpt>
      <trkpt lat="42.430335" lon="-7.905585">
        <ele>462.0</ele>
        <time>2018-10-03T07:59:37.000Z</time>
      </trkpt>
      <trkpt lat="42.43035" lon="-7.90559667">
        <ele>461.0</ele>
        <time>2018-10-03T07:59:38.000Z</time>
      </trkpt>
      <trkpt lat="42.43036167" lon="-7.90560833">
        <ele>461.0</ele>
        <time>2018-10-03T07:59:39.000Z</time>
      </trkpt>
      <trkpt lat="42.430375" lon="-7.90562">
        <ele>461.0</ele>
        <time>2018-10-03T07:59:40.000Z</time>
      </trkpt>
      <trkpt lat="42.43038667" lon="-7.90563333">
        <ele>461.0</ele>
        <time>2018-10-03T07:59:41.000Z</time>
      </trkpt>
      <trkpt lat="42.43039833" lon="-7.905645">
        <ele>461.0</ele>
        <time>2018-10-03T07:59:42.000Z</time>
      </trkpt>
      <trkpt lat="42.43041" lon="-7.90565833">
        <ele>460.0</ele>
        <time>2018-10-03T07:59:43.000Z</time>
      </trkpt>
      <trkpt lat="42.43042333" lon="-7.90567167">
        <ele>460.0</ele>
        <time>2018-10-03T07:59:44.000Z</time>
      </trkpt>
      <trkpt lat="42.430435" lon="-7.90568333">
        <ele>460.0</ele>
        <time>2018-10-03T07:59:45.000Z</time>
      </trkpt>
      <trkpt lat="42.43044833" lon="-7.90569667">
        <ele>460.0</ele>
        <time>2018-10-03T07:59:46.000Z</time>
      </trkpt>
      <trkpt lat="42.43046" lon="-7.90570833">
        <ele>460.0</ele>
        <time>2018-10-03T07:59:47.000Z</time>
      </trkpt>
      <trkpt lat="42.43047167" lon="-7.90572167">
        <ele>459.0</ele>
        <time>2018-10-03T07:59:48.000Z</time>
      </trkpt>
      <trkpt lat="42.43048333" lon="-7.905735">
        <ele>459.0</ele>
        <time>2018-10-03T07:59:49.000Z</time>
      </trkpt>
      <trkpt lat="42.43049333" lon="-7.90574667">
        <ele>459.0</ele>
        <time>2018-10-03T07:59:50.000Z</time>
      </trkpt>
      <trkpt lat="42.43050167" lon="-7.90575">
        <ele>459.0</ele>
        <time>2018-10-03T07:59:51.000Z</time>
      </trkpt>
      <trkpt lat="42.43050333" lon="-7.90575167">
        <ele>459.0</ele>
        <time>2018-10-03T07:59:52.000Z</time>
      </trkpt>
      <trkpt lat="42.43050333" lon="-7.90575333">
        <ele>459.0</ele>
        <time>2018-10-03T07:59:53.000Z</time>
      </trkpt>
      <trkpt lat="42.43050333" lon="-7.90575333">
        <ele>459.0</ele>
        <time>2018-10-03T07:59:54.000Z</time>
      </trkpt>
      <trkpt lat="42.43050667" lon="-7.90575833">
        <ele>459.0</ele>
        <time>2018-10-03T07:59:55.000Z</time>
      </trkpt>
      <trkpt lat="42.43051667" lon="-7.90577">
        <ele>458.0</ele>
        <time>2018-10-03T07:59:56.000Z</time>
      </trkpt>
      <trkpt lat="42.43052833" lon="-7.90578">
        <ele>458.0</ele>
        <time>2018-10-03T07:59:57.000Z</time>
      </trkpt>
      <trkpt lat="42.43054" lon="-7.90579333">
        <ele>458.0</ele>
        <time>2018-10-03T07:59:58.000Z</time>
      </trkpt>
      <trkpt lat="42.43055167" lon="-7.90580833">
        <ele>458.0</ele>
        <time>2018-10-03T07:59:59.000Z</time>
      </trkpt>
      <trkpt lat="42.430565" lon="-7.90582167">
        <ele>458.0</ele>
        <time>2018-10-03T08:00:00.000Z</time>
      </trkpt>
      <trkpt lat="42.430575" lon="-7.90583667">
        <ele>458.0</ele>
        <time>2018-10-03T08:00:01.000Z</time>
      </trkpt>
      <trkpt lat="42.430585" lon="-7.90585167">
        <ele>458.0</ele>
        <time>2018-10-03T08:00:02.000Z</time>
      </trkpt>
      <trkpt lat="42.43059667" lon="-7.905865">
        <ele>458.0</ele>
        <time>2018-10-03T08:00:03.000Z</time>
      </trkpt>
      <trkpt lat="42.43060833" lon="-7.90588167">
        <ele>458.0</ele>
        <time>2018-10-03T08:00:04.000Z</time>
      </trkpt>
      <trkpt lat="42.43062167" lon="-7.905895">
        <ele>458.0</ele>
        <time>2018-10-03T08:00:05.000Z</time>
      </trkpt>
      <trkpt lat="42.430635" lon="-7.90591">
        <ele>458.0</ele>
        <time>2018-10-03T08:00:06.000Z</time>
      </trkpt>
      <trkpt lat="42.43065" lon="-7.90592667">
        <ele>458.0</ele>
        <time>2018-10-03T08:00:07.000Z</time>
      </trkpt>
      <trkpt lat="42.430665" lon="-7.90594167">
        <ele>458.0</ele>
        <time>2018-10-03T08:00:08.000Z</time>
      </trkpt>
      <trkpt lat="42.43068" lon="-7.90595667">
        <ele>458.0</ele>
        <time>2018-10-03T08:00:09.000Z</time>
      </trkpt>
      <trkpt lat="42.43069333" lon="-7.90597333">
        <ele>458.0</ele>
        <time>2018-10-03T08:00:10.000Z</time>
      </trkpt>
      <trkpt lat="42.43070667" lon="-7.90599">
        <ele>458.0</ele>
        <time>2018-10-03T08:00:11.000Z</time>
      </trkpt>
      <trkpt lat="42.43072" lon="-7.90600667">
        <ele>458.0</ele>
        <time>2018-10-03T08:00:12.000Z</time>
      </trkpt>
      <trkpt lat="42.43073167" lon="-7.90602333">
        <ele>458.0</ele>
        <time>2018-10-03T08:00:13.000Z</time>
      </trkpt>
      <trkpt lat="42.430745" lon="-7.90603667">
        <ele>458.0</ele>
        <time>2018-10-03T08:00:14.000Z</time>
      </trkpt>
      <trkpt lat="42.43075833" lon="-7.90604833">
        <ele>458.0</ele>
        <time>2018-10-03T08:00:15.000Z</time>
      </trkpt>
      <trkpt lat="42.43077167" lon="-7.90606333">
        <ele>457.0</ele>
        <time>2018-10-03T08:00:16.000Z</time>
      </trkpt>
      <trkpt lat="42.43078667" lon="-7.90607333">
        <ele>457.0</ele>
        <time>2018-10-03T08:00:17.000Z</time>
      </trkpt>
      <trkpt lat="42.43079833" lon="-7.90608667">
        <ele>457.0</ele>
        <time>2018-10-03T08:00:18.000Z</time>
      </trkpt>
      <trkpt lat="42.43081" lon="-7.90609667">
        <ele>457.0</ele>
        <time>2018-10-03T08:00:19.000Z</time>
      </trkpt>
      <trkpt lat="42.43082167" lon="-7.90610833">
        <ele>457.0</ele>
        <time>2018-10-03T08:00:20.000Z</time>
      </trkpt>
      <trkpt lat="42.430835" lon="-7.90611833">
        <ele>457.0</ele>
        <time>2018-10-03T08:00:21.000Z</time>
      </trkpt>
      <trkpt lat="42.43084833" lon="-7.90612833">
        <ele>456.0</ele>
        <time>2018-10-03T08:00:22.000Z</time>
      </trkpt>
      <trkpt lat="42.43086167" lon="-7.90613833">
        <ele>456.0</ele>
        <time>2018-10-03T08:00:23.000Z</time>
      </trkpt>
      <trkpt lat="42.43087333" lon="-7.90614667">
        <ele>456.0</ele>
        <time>2018-10-03T08:00:24.000Z</time>
      </trkpt>
      <trkpt lat="42.43088667" lon="-7.906155">
        <ele>456.0</ele>
        <time>2018-10-03T08:00:25.000Z</time>
      </trkpt>
      <trkpt lat="42.4309" lon="-7.90616333">
        <ele>455.0</ele>
        <time>2018-10-03T08:00:26.000Z</time>
      </trkpt>
      <trkpt lat="42.43091167" lon="-7.90617333">
        <ele>455.0</ele>
        <time>2018-10-03T08:00:27.000Z</time>
      </trkpt>
      <trkpt lat="42.430925" lon="-7.90618667">
        <ele>455.0</ele>
        <time>2018-10-03T08:00:28.000Z</time>
      </trkpt>
      <trkpt lat="42.43093667" lon="-7.90619833">
        <ele>454.0</ele>
        <time>2018-10-03T08:00:29.000Z</time>
      </trkpt>
      <trkpt lat="42.43095" lon="-7.90621167">
        <ele>454.0</ele>
        <time>2018-10-03T08:00:30.000Z</time>
      </trkpt>
      <trkpt lat="42.43096167" lon="-7.90622167">
        <ele>454.0</ele>
        <time>2018-10-03T08:00:31.000Z</time>
      </trkpt>
      <trkpt lat="42.43097333" lon="-7.90623333">
        <ele>454.0</ele>
        <time>2018-10-03T08:00:32.000Z</time>
      </trkpt>
      <trkpt lat="42.43098667" lon="-7.90624667">
        <ele>454.0</ele>
        <time>2018-10-03T08:00:33.000Z</time>
      </trkpt>
      <trkpt lat="42.431" lon="-7.90625833">
        <ele>454.0</ele>
        <time>2018-10-03T08:00:34.000Z</time>
      </trkpt>
      <trkpt lat="42.43101167" lon="-7.90627167">
        <ele>453.0</ele>
        <time>2018-10-03T08:00:35.000Z</time>
      </trkpt>
      <trkpt lat="42.43102333" lon="-7.906285">
        <ele>453.0</ele>
        <time>2018-10-03T08:00:36.000Z</time>
      </trkpt>
      <trkpt lat="42.431035" lon="-7.90629667">
        <ele>453.0</ele>
        <time>2018-10-03T08:00:37.000Z</time>
      </trkpt>
      <trkpt lat="42.43104833" lon="-7.90631167">
        <ele>453.0</ele>
        <time>2018-10-03T08:00:38.000Z</time>
      </trkpt>
      <trkpt lat="42.43106167" lon="-7.90632667">
        <ele>453.0</ele>
        <time>2018-10-03T08:00:39.000Z</time>
      </trkpt>
      <trkpt lat="42.431075" lon="-7.90634333">
        <ele>453.0</ele>
        <time>2018-10-03T08:00:40.000Z</time>
      </trkpt>
      <trkpt lat="42.43108833" lon="-7.90636167">
        <ele>453.0</ele>
        <time>2018-10-03T08:00:41.000Z</time>
      </trkpt>
      <trkpt lat="42.4311" lon="-7.90638167">
        <ele>453.0</ele>
        <time>2018-10-03T08:00:42.000Z</time>
      </trkpt>
      <trkpt lat="42.43111167" lon="-7.90639833">
        <ele>453.0</ele>
        <time>2018-10-03T08:00:43.000Z</time>
      </trkpt>
      <trkpt lat="42.43112333" lon="-7.90641667">
        <ele>453.0</ele>
        <time>2018-10-03T08:00:44.000Z</time>
      </trkpt>
      <trkpt lat="42.431135" lon="-7.90643167">
        <ele>453.0</ele>
        <time>2018-10-03T08:00:45.000Z</time>
      </trkpt>
      <trkpt lat="42.43114833" lon="-7.90644833">
        <ele>453.0</ele>
        <time>2018-10-03T08:00:46.000Z</time>
      </trkpt>
      <trkpt lat="42.43116167" lon="-7.906465">
        <ele>453.0</ele>
        <time>2018-10-03T08:00:47.000Z</time>
      </trkpt>
      <trkpt lat="42.43117667" lon="-7.906485">
        <ele>453.0</ele>
        <time>2018-10-03T08:00:48.000Z</time>
      </trkpt>
      <trkpt lat="42.43118833" lon="-7.90650167">
        <ele>453.0</ele>
        <time>2018-10-03T08:00:49.000Z</time>
      </trkpt>
      <trkpt lat="42.4312" lon="-7.90651833">
        <ele>454.0</ele>
        <time>2018-10-03T08:00:50.000Z</time>
      </trkpt>
      <trkpt lat="42.43121167" lon="-7.90653667">
        <ele>454.0</ele>
        <time>2018-10-03T08:00:51.000Z</time>
      </trkpt>
      <trkpt lat="42.43122333" lon="-7.90655333">
        <ele>454.0</ele>
        <time>2018-10-03T08:00:52.000Z</time>
      </trkpt>
      <trkpt lat="42.43123667" lon="-7.90656833">
        <ele>454.0</ele>
        <time>2018-10-03T08:00:53.000Z</time>
      </trkpt>
      <trkpt lat="42.43125167" lon="-7.906585">
        <ele>455.0</ele>
        <time>2018-10-03T08:00:54.000Z</time>
      </trkpt>
      <trkpt lat="42.43126667" lon="-7.90660167">
        <ele>455.0</ele>
        <time>2018-10-03T08:00:55.000Z</time>
      </trkpt>
      <trkpt lat="42.43128" lon="-7.90661833">
        <ele>455.0</ele>
        <time>2018-10-03T08:00:56.000Z</time>
      </trkpt>
      <trkpt lat="42.43129167" lon="-7.90663667">
        <ele>455.0</ele>
        <time>2018-10-03T08:00:57.000Z</time>
      </trkpt>
      <trkpt lat="42.431305" lon="-7.90665333">
        <ele>455.0</ele>
        <time>2018-10-03T08:00:58.000Z</time>
      </trkpt>
      <trkpt lat="42.431315" lon="-7.90667">
        <ele>455.0</ele>
        <time>2018-10-03T08:00:59.000Z</time>
      </trkpt>
      <trkpt lat="42.43132833" lon="-7.906685">
        <ele>455.0</ele>
        <time>2018-10-03T08:01:00.000Z</time>
      </trkpt>
      <trkpt lat="42.43134" lon="-7.90670167">
        <ele>455.0</ele>
        <time>2018-10-03T08:01:01.000Z</time>
      </trkpt>
      <trkpt lat="42.43135333" lon="-7.90671667">
        <ele>455.0</ele>
        <time>2018-10-03T08:01:02.000Z</time>
      </trkpt>
      <trkpt lat="42.43136667" lon="-7.90673">
        <ele>455.0</ele>
        <time>2018-10-03T08:01:03.000Z</time>
      </trkpt>
      <trkpt lat="42.43138" lon="-7.90674333">
        <ele>455.0</ele>
        <time>2018-10-03T08:01:04.000Z</time>
      </trkpt>
      <trkpt lat="42.43139333" lon="-7.90675667">
        <ele>455.0</ele>
        <time>2018-10-03T08:01:05.000Z</time>
      </trkpt>
      <trkpt lat="42.431405" lon="-7.90677167">
        <ele>455.0</ele>
        <time>2018-10-03T08:01:06.000Z</time>
      </trkpt>
      <trkpt lat="42.43141833" lon="-7.90678667">
        <ele>455.0</ele>
        <time>2018-10-03T08:01:07.000Z</time>
      </trkpt>
      <trkpt lat="42.43143" lon="-7.90680167">
        <ele>455.0</ele>
        <time>2018-10-03T08:01:08.000Z</time>
      </trkpt>
      <trkpt lat="42.43144167" lon="-7.90681333">
        <ele>455.0</ele>
        <time>2018-10-03T08:01:09.000Z</time>
      </trkpt>
      <trkpt lat="42.431455" lon="-7.90682833">
        <ele>455.0</ele>
        <time>2018-10-03T08:01:10.000Z</time>
      </trkpt>
      <trkpt lat="42.43146667" lon="-7.90684">
        <ele>455.0</ele>
        <time>2018-10-03T08:01:11.000Z</time>
      </trkpt>
      <trkpt lat="42.43148" lon="-7.906855">
        <ele>455.0</ele>
        <time>2018-10-03T08:01:12.000Z</time>
      </trkpt>
      <trkpt lat="42.43149167" lon="-7.90686833">
        <ele>455.0</ele>
        <time>2018-10-03T08:01:13.000Z</time>
      </trkpt>
      <trkpt lat="42.431505" lon="-7.90688167">
        <ele>455.0</ele>
        <time>2018-10-03T08:01:14.000Z</time>
      </trkpt>
      <trkpt lat="42.43151833" lon="-7.906895">
        <ele>455.0</ele>
        <time>2018-10-03T08:01:15.000Z</time>
      </trkpt>
      <trkpt lat="42.43153" lon="-7.90690833">
        <ele>455.0</ele>
        <time>2018-10-03T08:01:16.000Z</time>
      </trkpt>
      <trkpt lat="42.43154167" lon="-7.90692167">
        <ele>455.0</ele>
        <time>2018-10-03T08:01:17.000Z</time>
      </trkpt>
      <trkpt lat="42.43155333" lon="-7.906935">
        <ele>454.0</ele>
        <time>2018-10-03T08:01:18.000Z</time>
      </trkpt>
      <trkpt lat="42.431565" lon="-7.90694667">
        <ele>454.0</ele>
        <time>2018-10-03T08:01:19.000Z</time>
      </trkpt>
      <trkpt lat="42.43157833" lon="-7.90696">
        <ele>454.0</ele>
        <time>2018-10-03T08:01:20.000Z</time>
      </trkpt>
      <trkpt lat="42.43159" lon="-7.90697333">
        <ele>454.0</ele>
        <time>2018-10-03T08:01:21.000Z</time>
      </trkpt>
      <trkpt lat="42.43160167" lon="-7.906985">
        <ele>454.0</ele>
        <time>2018-10-03T08:01:22.000Z</time>
      </trkpt>
      <trkpt lat="42.43161333" lon="-7.907">
        <ele>454.0</ele>
        <time>2018-10-03T08:01:23.000Z</time>
      </trkpt>
      <trkpt lat="42.43162333" lon="-7.907015">
        <ele>454.0</ele>
        <time>2018-10-03T08:01:24.000Z</time>
      </trkpt>
      <trkpt lat="42.43163167" lon="-7.90703">
        <ele>453.0</ele>
        <time>2018-10-03T08:01:25.000Z</time>
      </trkpt>
      <trkpt lat="42.43164333" lon="-7.907045">
        <ele>453.0</ele>
        <time>2018-10-03T08:01:26.000Z</time>
      </trkpt>
      <trkpt lat="42.43165333" lon="-7.90706">
        <ele>453.0</ele>
        <time>2018-10-03T08:01:27.000Z</time>
      </trkpt>
      <trkpt lat="42.43166" lon="-7.907075">
        <ele>453.0</ele>
        <time>2018-10-03T08:01:28.000Z</time>
      </trkpt>
      <trkpt lat="42.43166667" lon="-7.90709">
        <ele>453.0</ele>
        <time>2018-10-03T08:01:29.000Z</time>
      </trkpt>
      <trkpt lat="42.43167667" lon="-7.90710667">
        <ele>453.0</ele>
        <time>2018-10-03T08:01:30.000Z</time>
      </trkpt>
      <trkpt lat="42.43168667" lon="-7.90712167">
        <ele>453.0</ele>
        <time>2018-10-03T08:01:31.000Z</time>
      </trkpt>
      <trkpt lat="42.43169667" lon="-7.90713833">
        <ele>453.0</ele>
        <time>2018-10-03T08:01:32.000Z</time>
      </trkpt>
      <trkpt lat="42.43170667" lon="-7.90715167">
        <ele>452.0</ele>
        <time>2018-10-03T08:01:33.000Z</time>
      </trkpt>
      <trkpt lat="42.43171667" lon="-7.90717">
        <ele>452.0</ele>
        <time>2018-10-03T08:01:34.000Z</time>
      </trkpt>
      <trkpt lat="42.43172833" lon="-7.90718833">
        <ele>453.0</ele>
        <time>2018-10-03T08:01:35.000Z</time>
      </trkpt>
      <trkpt lat="42.43173833" lon="-7.90720833">
        <ele>453.0</ele>
        <time>2018-10-03T08:01:36.000Z</time>
      </trkpt>
      <trkpt lat="42.43174833" lon="-7.90722667">
        <ele>453.0</ele>
        <time>2018-10-03T08:01:37.000Z</time>
      </trkpt>
      <trkpt lat="42.43175667" lon="-7.90724333">
        <ele>453.0</ele>
        <time>2018-10-03T08:01:38.000Z</time>
      </trkpt>
      <trkpt lat="42.431765" lon="-7.90726167">
        <ele>453.0</ele>
        <time>2018-10-03T08:01:39.000Z</time>
      </trkpt>
      <trkpt lat="42.43177333" lon="-7.90727833">
        <ele>453.0</ele>
        <time>2018-10-03T08:01:40.000Z</time>
      </trkpt>
      <trkpt lat="42.43178333" lon="-7.907295">
        <ele>454.0</ele>
        <time>2018-10-03T08:01:41.000Z</time>
      </trkpt>
      <trkpt lat="42.43179333" lon="-7.90731167">
        <ele>454.0</ele>
        <time>2018-10-03T08:01:42.000Z</time>
      </trkpt>
      <trkpt lat="42.43180333" lon="-7.90732667">
        <ele>454.0</ele>
        <time>2018-10-03T08:01:43.000Z</time>
      </trkpt>
      <trkpt lat="42.43181333" lon="-7.90734">
        <ele>454.0</ele>
        <time>2018-10-03T08:01:44.000Z</time>
      </trkpt>
      <trkpt lat="42.431825" lon="-7.90735333">
        <ele>454.0</ele>
        <time>2018-10-03T08:01:45.000Z</time>
      </trkpt>
      <trkpt lat="42.431835" lon="-7.90736667">
        <ele>454.0</ele>
        <time>2018-10-03T08:01:46.000Z</time>
      </trkpt>
      <trkpt lat="42.43184667" lon="-7.90738">
        <ele>454.0</ele>
        <time>2018-10-03T08:01:47.000Z</time>
      </trkpt>
      <trkpt lat="42.43185833" lon="-7.90739167">
        <ele>454.0</ele>
        <time>2018-10-03T08:01:48.000Z</time>
      </trkpt>
      <trkpt lat="42.43187" lon="-7.90740333">
        <ele>454.0</ele>
        <time>2018-10-03T08:01:49.000Z</time>
      </trkpt>
      <trkpt lat="42.43188" lon="-7.907415">
        <ele>454.0</ele>
        <time>2018-10-03T08:01:50.000Z</time>
      </trkpt>
      <trkpt lat="42.43189167" lon="-7.90742667">
        <ele>454.0</ele>
        <time>2018-10-03T08:01:51.000Z</time>
      </trkpt>
      <trkpt lat="42.43190167" lon="-7.90743667">
        <ele>454.0</ele>
        <time>2018-10-03T08:01:52.000Z</time>
      </trkpt>
      <trkpt lat="42.43191167" lon="-7.90744667">
        <ele>455.0</ele>
        <time>2018-10-03T08:01:53.000Z</time>
      </trkpt>
      <trkpt lat="42.43192" lon="-7.90745833">
        <ele>455.0</ele>
        <time>2018-10-03T08:01:54.000Z</time>
      </trkpt>
      <trkpt lat="42.43192833" lon="-7.90747">
        <ele>455.0</ele>
        <time>2018-10-03T08:01:55.000Z</time>
      </trkpt>
      <trkpt lat="42.431935" lon="-7.907485">
        <ele>456.0</ele>
        <time>2018-10-03T08:01:56.000Z</time>
      </trkpt>
      <trkpt lat="42.43194667" lon="-7.90749833">
        <ele>456.0</ele>
        <time>2018-10-03T08:01:57.000Z</time>
      </trkpt>
      <trkpt lat="42.43195833" lon="-7.90750833">
        <ele>456.0</ele>
        <time>2018-10-03T08:01:58.000Z</time>
      </trkpt>
      <trkpt lat="42.43197" lon="-7.90752">
        <ele>457.0</ele>
        <time>2018-10-03T08:01:59.000Z</time>
      </trkpt>
      <trkpt lat="42.43198" lon="-7.90753">
        <ele>457.0</ele>
        <time>2018-10-03T08:02:00.000Z</time>
      </trkpt>
      <trkpt lat="42.43199167" lon="-7.90754167">
        <ele>457.0</ele>
        <time>2018-10-03T08:02:01.000Z</time>
      </trkpt>
      <trkpt lat="42.432005" lon="-7.907555">
        <ele>457.0</ele>
        <time>2018-10-03T08:02:02.000Z</time>
      </trkpt>
      <trkpt lat="42.43201667" lon="-7.907565">
        <ele>458.0</ele>
        <time>2018-10-03T08:02:03.000Z</time>
      </trkpt>
      <trkpt lat="42.43202833" lon="-7.90757833">
        <ele>458.0</ele>
        <time>2018-10-03T08:02:04.000Z</time>
      </trkpt>
      <trkpt lat="42.43204167" lon="-7.90759">
        <ele>458.0</ele>
        <time>2018-10-03T08:02:05.000Z</time>
      </trkpt>
      <trkpt lat="42.43205333" lon="-7.90760167">
        <ele>458.0</ele>
        <time>2018-10-03T08:02:06.000Z</time>
      </trkpt>
      <trkpt lat="42.432065" lon="-7.90761167">
        <ele>459.0</ele>
        <time>2018-10-03T08:02:07.000Z</time>
      </trkpt>
      <trkpt lat="42.432075" lon="-7.90762667">
        <ele>458.0</ele>
        <time>2018-10-03T08:02:08.000Z</time>
      </trkpt>
      <trkpt lat="42.43208833" lon="-7.90764">
        <ele>458.0</ele>
        <time>2018-10-03T08:02:09.000Z</time>
      </trkpt>
      <trkpt lat="42.4321" lon="-7.90765333">
        <ele>458.0</ele>
        <time>2018-10-03T08:02:10.000Z</time>
      </trkpt>
      <trkpt lat="42.43211167" lon="-7.90766667">
        <ele>458.0</ele>
        <time>2018-10-03T08:02:11.000Z</time>
      </trkpt>
      <trkpt lat="42.43212167" lon="-7.90768333">
        <ele>458.0</ele>
        <time>2018-10-03T08:02:12.000Z</time>
      </trkpt>
      <trkpt lat="42.43213167" lon="-7.9077">
        <ele>458.0</ele>
        <time>2018-10-03T08:02:13.000Z</time>
      </trkpt>
      <trkpt lat="42.43214" lon="-7.90771667">
        <ele>458.0</ele>
        <time>2018-10-03T08:02:14.000Z</time>
      </trkpt>
      <trkpt lat="42.43214833" lon="-7.90773167">
        <ele>458.0</ele>
        <time>2018-10-03T08:02:15.000Z</time>
      </trkpt>
      <trkpt lat="42.43215833" lon="-7.90774667">
        <ele>458.0</ele>
        <time>2018-10-03T08:02:16.000Z</time>
      </trkpt>
      <trkpt lat="42.43216667" lon="-7.90776167">
        <ele>458.0</ele>
        <time>2018-10-03T08:02:17.000Z</time>
      </trkpt>
      <trkpt lat="42.432175" lon="-7.90777667">
        <ele>458.0</ele>
        <time>2018-10-03T08:02:18.000Z</time>
      </trkpt>
      <trkpt lat="42.43218167" lon="-7.90779167">
        <ele>457.0</ele>
        <time>2018-10-03T08:02:19.000Z</time>
      </trkpt>
      <trkpt lat="42.43218833" lon="-7.90780667">
        <ele>457.0</ele>
        <time>2018-10-03T08:02:20.000Z</time>
      </trkpt>
      <trkpt lat="42.432195" lon="-7.90782333">
        <ele>457.0</ele>
        <time>2018-10-03T08:02:21.000Z</time>
      </trkpt>
      <trkpt lat="42.4322" lon="-7.90784">
        <ele>457.0</ele>
        <time>2018-10-03T08:02:22.000Z</time>
      </trkpt>
      <trkpt lat="42.43220667" lon="-7.907855">
        <ele>457.0</ele>
        <time>2018-10-03T08:02:23.000Z</time>
      </trkpt>
      <trkpt lat="42.43221333" lon="-7.90787">
        <ele>457.0</ele>
        <time>2018-10-03T08:02:24.000Z</time>
      </trkpt>
      <trkpt lat="42.43222" lon="-7.90788667">
        <ele>456.0</ele>
        <time>2018-10-03T08:02:25.000Z</time>
      </trkpt>
      <trkpt lat="42.43222667" lon="-7.90790333">
        <ele>456.0</ele>
        <time>2018-10-03T08:02:26.000Z</time>
      </trkpt>
      <trkpt lat="42.43223167" lon="-7.90792167">
        <ele>456.0</ele>
        <time>2018-10-03T08:02:27.000Z</time>
      </trkpt>
      <trkpt lat="42.43223833" lon="-7.90794">
        <ele>456.0</ele>
        <time>2018-10-03T08:02:28.000Z</time>
      </trkpt>
      <trkpt lat="42.43224667" lon="-7.907955">
        <ele>456.0</ele>
        <time>2018-10-03T08:02:29.000Z</time>
      </trkpt>
      <trkpt lat="42.432255" lon="-7.90796833">
        <ele>456.0</ele>
        <time>2018-10-03T08:02:30.000Z</time>
      </trkpt>
      <trkpt lat="42.43226" lon="-7.90798">
        <ele>455.0</ele>
        <time>2018-10-03T08:02:31.000Z</time>
      </trkpt>
      <trkpt lat="42.43226167" lon="-7.90799">
        <ele>455.0</ele>
        <time>2018-10-03T08:02:32.000Z</time>
      </trkpt>
      <trkpt lat="42.432265" lon="-7.90799333">
        <ele>455.0</ele>
        <time>2018-10-03T08:02:33.000Z</time>
      </trkpt>
      <trkpt lat="42.432265" lon="-7.90799333">
        <ele>455.0</ele>
        <time>2018-10-03T08:02:34.000Z</time>
      </trkpt>
      <trkpt lat="42.432265" lon="-7.907995">
        <ele>455.0</ele>
        <time>2018-10-03T08:02:35.000Z</time>
      </trkpt>
      <trkpt lat="42.432265" lon="-7.907995">
        <ele>455.0</ele>
        <time>2018-10-03T08:02:36.000Z</time>
      </trkpt>
      <trkpt lat="42.432265" lon="-7.907995">
        <ele>455.0</ele>
        <time>2018-10-03T08:02:37.000Z</time>
      </trkpt>
      <trkpt lat="42.43226667" lon="-7.90800333">
        <ele>455.0</ele>
        <time>2018-10-03T08:02:38.000Z</time>
      </trkpt>
      <trkpt lat="42.43227167" lon="-7.908015">
        <ele>455.0</ele>
        <time>2018-10-03T08:02:39.000Z</time>
      </trkpt>
      <trkpt lat="42.43227833" lon="-7.908025">
        <ele>454.0</ele>
        <time>2018-10-03T08:02:40.000Z</time>
      </trkpt>
      <trkpt lat="42.432285" lon="-7.90803667">
        <ele>454.0</ele>
        <time>2018-10-03T08:02:41.000Z</time>
      </trkpt>
      <trkpt lat="42.43229167" lon="-7.90804667">
        <ele>454.0</ele>
        <time>2018-10-03T08:02:42.000Z</time>
      </trkpt>
      <trkpt lat="42.4323" lon="-7.90805833">
        <ele>454.0</ele>
        <time>2018-10-03T08:02:43.000Z</time>
      </trkpt>
      <trkpt lat="42.43231" lon="-7.90807">
        <ele>454.0</ele>
        <time>2018-10-03T08:02:44.000Z</time>
      </trkpt>
      <trkpt lat="42.43231667" lon="-7.90808333">
        <ele>454.0</ele>
        <time>2018-10-03T08:02:45.000Z</time>
      </trkpt>
      <trkpt lat="42.43232333" lon="-7.90809">
        <ele>454.0</ele>
        <time>2018-10-03T08:02:46.000Z</time>
      </trkpt>
      <trkpt lat="42.43232833" lon="-7.90809667">
        <ele>454.0</ele>
        <time>2018-10-03T08:02:47.000Z</time>
      </trkpt>
      <trkpt lat="42.43233333" lon="-7.90811333">
        <ele>454.0</ele>
        <time>2018-10-03T08:02:48.000Z</time>
      </trkpt>
      <trkpt lat="42.432335" lon="-7.90813">
        <ele>454.0</ele>
        <time>2018-10-03T08:02:49.000Z</time>
      </trkpt>
      <trkpt lat="42.43233667" lon="-7.90815">
        <ele>454.0</ele>
        <time>2018-10-03T08:02:50.000Z</time>
      </trkpt>
      <trkpt lat="42.43233833" lon="-7.90817167">
        <ele>454.0</ele>
        <time>2018-10-03T08:02:51.000Z</time>
      </trkpt>
      <trkpt lat="42.43233833" lon="-7.90819167">
        <ele>454.0</ele>
        <time>2018-10-03T08:02:52.000Z</time>
      </trkpt>
      <trkpt lat="42.43234167" lon="-7.90821333">
        <ele>454.0</ele>
        <time>2018-10-03T08:02:53.000Z</time>
      </trkpt>
      <trkpt lat="42.43234667" lon="-7.908235">
        <ele>454.0</ele>
        <time>2018-10-03T08:02:54.000Z</time>
      </trkpt>
      <trkpt lat="42.43235167" lon="-7.908255">
        <ele>454.0</ele>
        <time>2018-10-03T08:02:55.000Z</time>
      </trkpt>
      <trkpt lat="42.43235833" lon="-7.90827333">
        <ele>454.0</ele>
        <time>2018-10-03T08:02:56.000Z</time>
      </trkpt>
      <trkpt lat="42.432365" lon="-7.90829333">
        <ele>454.0</ele>
        <time>2018-10-03T08:02:57.000Z</time>
      </trkpt>
      <trkpt lat="42.432375" lon="-7.90831">
        <ele>454.0</ele>
        <time>2018-10-03T08:02:58.000Z</time>
      </trkpt>
      <trkpt lat="42.43238667" lon="-7.90832333">
        <ele>454.0</ele>
        <time>2018-10-03T08:02:59.000Z</time>
      </trkpt>
      <trkpt lat="42.4324" lon="-7.908335">
        <ele>454.0</ele>
        <time>2018-10-03T08:03:00.000Z</time>
      </trkpt>
      <trkpt lat="42.43241333" lon="-7.908345">
        <ele>454.0</ele>
        <time>2018-10-03T08:03:01.000Z</time>
      </trkpt>
      <trkpt lat="42.432425" lon="-7.908355">
        <ele>455.0</ele>
        <time>2018-10-03T08:03:02.000Z</time>
      </trkpt>
      <trkpt lat="42.43244" lon="-7.90836333">
        <ele>455.0</ele>
        <time>2018-10-03T08:03:03.000Z</time>
      </trkpt>
      <trkpt lat="42.43245667" lon="-7.90837167">
        <ele>455.0</ele>
        <time>2018-10-03T08:03:04.000Z</time>
      </trkpt>
      <trkpt lat="42.43247333" lon="-7.90838">
        <ele>455.0</ele>
        <time>2018-10-03T08:03:05.000Z</time>
      </trkpt>
      <trkpt lat="42.43249" lon="-7.90838833">
        <ele>455.0</ele>
        <time>2018-10-03T08:03:06.000Z</time>
      </trkpt>
      <trkpt lat="42.432505" lon="-7.90839667">
        <ele>455.0</ele>
        <time>2018-10-03T08:03:07.000Z</time>
      </trkpt>
      <trkpt lat="42.43251833" lon="-7.90840667">
        <ele>455.0</ele>
        <time>2018-10-03T08:03:08.000Z</time>
      </trkpt>
      <trkpt lat="42.43253" lon="-7.90842">
        <ele>455.0</ele>
        <time>2018-10-03T08:03:09.000Z</time>
      </trkpt>
      <trkpt lat="42.43254167" lon="-7.908435">
        <ele>455.0</ele>
        <time>2018-10-03T08:03:10.000Z</time>
      </trkpt>
      <trkpt lat="42.43255" lon="-7.90844833">
        <ele>455.0</ele>
        <time>2018-10-03T08:03:11.000Z</time>
      </trkpt>
      <trkpt lat="42.43256167" lon="-7.90846">
        <ele>455.0</ele>
        <time>2018-10-03T08:03:12.000Z</time>
      </trkpt>
      <trkpt lat="42.43257333" lon="-7.90847167">
        <ele>455.0</ele>
        <time>2018-10-03T08:03:13.000Z</time>
      </trkpt>
      <trkpt lat="42.43258333" lon="-7.90848">
        <ele>455.0</ele>
        <time>2018-10-03T08:03:14.000Z</time>
      </trkpt>
      <trkpt lat="42.432595" lon="-7.90848833">
        <ele>455.0</ele>
        <time>2018-10-03T08:03:15.000Z</time>
      </trkpt>
      <trkpt lat="42.43260667" lon="-7.9085">
        <ele>455.0</ele>
        <time>2018-10-03T08:03:16.000Z</time>
      </trkpt>
      <trkpt lat="42.43262" lon="-7.90851167">
        <ele>455.0</ele>
        <time>2018-10-03T08:03:17.000Z</time>
      </trkpt>
      <trkpt lat="42.43263333" lon="-7.90852667">
        <ele>454.0</ele>
        <time>2018-10-03T08:03:18.000Z</time>
      </trkpt>
      <trkpt lat="42.43264333" lon="-7.90854">
        <ele>454.0</ele>
        <time>2018-10-03T08:03:19.000Z</time>
      </trkpt>
      <trkpt lat="42.432655" lon="-7.908555">
        <ele>454.0</ele>
        <time>2018-10-03T08:03:20.000Z</time>
      </trkpt>
      <trkpt lat="42.43267167" lon="-7.90857">
        <ele>454.0</ele>
        <time>2018-10-03T08:03:21.000Z</time>
      </trkpt>
      <trkpt lat="42.43269" lon="-7.90858">
        <ele>454.0</ele>
        <time>2018-10-03T08:03:22.000Z</time>
      </trkpt>
      <trkpt lat="42.43270833" lon="-7.908585">
        <ele>454.0</ele>
        <time>2018-10-03T08:03:23.000Z</time>
      </trkpt>
      <trkpt lat="42.43272667" lon="-7.90859333">
        <ele>454.0</ele>
        <time>2018-10-03T08:03:24.000Z</time>
      </trkpt>
      <trkpt lat="42.43274333" lon="-7.9086">
        <ele>454.0</ele>
        <time>2018-10-03T08:03:25.000Z</time>
      </trkpt>
      <trkpt lat="42.43275667" lon="-7.90860667">
        <ele>454.0</ele>
        <time>2018-10-03T08:03:26.000Z</time>
      </trkpt>
      <trkpt lat="42.43277" lon="-7.908615">
        <ele>454.0</ele>
        <time>2018-10-03T08:03:27.000Z</time>
      </trkpt>
      <trkpt lat="42.43278667" lon="-7.908625">
        <ele>454.0</ele>
        <time>2018-10-03T08:03:28.000Z</time>
      </trkpt>
      <trkpt lat="42.43280167" lon="-7.90863333">
        <ele>454.0</ele>
        <time>2018-10-03T08:03:29.000Z</time>
      </trkpt>
      <trkpt lat="42.43281833" lon="-7.90864333">
        <ele>454.0</ele>
        <time>2018-10-03T08:03:30.000Z</time>
      </trkpt>
      <trkpt lat="42.43283667" lon="-7.90865333">
        <ele>454.0</ele>
        <time>2018-10-03T08:03:31.000Z</time>
      </trkpt>
      <trkpt lat="42.432855" lon="-7.90866167">
        <ele>454.0</ele>
        <time>2018-10-03T08:03:32.000Z</time>
      </trkpt>
      <trkpt lat="42.43287167" lon="-7.90867167">
        <ele>454.0</ele>
        <time>2018-10-03T08:03:33.000Z</time>
      </trkpt>
      <trkpt lat="42.43288833" lon="-7.90868">
        <ele>454.0</ele>
        <time>2018-10-03T08:03:34.000Z</time>
      </trkpt>
      <trkpt lat="42.43290333" lon="-7.90868833">
        <ele>454.0</ele>
        <time>2018-10-03T08:03:35.000Z</time>
      </trkpt>
      <trkpt lat="42.43291833" lon="-7.90869667">
        <ele>454.0</ele>
        <time>2018-10-03T08:03:36.000Z</time>
      </trkpt>
      <trkpt lat="42.432935" lon="-7.908705">
        <ele>454.0</ele>
        <time>2018-10-03T08:03:37.000Z</time>
      </trkpt>
      <trkpt lat="42.43295" lon="-7.90871333">
        <ele>454.0</ele>
        <time>2018-10-03T08:03:38.000Z</time>
      </trkpt>
      <trkpt lat="42.43296833" lon="-7.90872167">
        <ele>454.0</ele>
        <time>2018-10-03T08:03:39.000Z</time>
      </trkpt>
      <trkpt lat="42.432985" lon="-7.90873167">
        <ele>454.0</ele>
        <time>2018-10-03T08:03:40.000Z</time>
      </trkpt>
      <trkpt lat="42.43300167" lon="-7.90874">
        <ele>454.0</ele>
        <time>2018-10-03T08:03:41.000Z</time>
      </trkpt>
      <trkpt lat="42.43301333" lon="-7.90875">
        <ele>454.0</ele>
        <time>2018-10-03T08:03:42.000Z</time>
      </trkpt>
      <trkpt lat="42.433025" lon="-7.90876">
        <ele>454.0</ele>
        <time>2018-10-03T08:03:43.000Z</time>
      </trkpt>
      <trkpt lat="42.43304" lon="-7.90877167">
        <ele>454.0</ele>
        <time>2018-10-03T08:03:44.000Z</time>
      </trkpt>
      <trkpt lat="42.433055" lon="-7.90878333">
        <ele>454.0</ele>
        <time>2018-10-03T08:03:45.000Z</time>
      </trkpt>
      <trkpt lat="42.43306667" lon="-7.90879667">
        <ele>454.0</ele>
        <time>2018-10-03T08:03:46.000Z</time>
      </trkpt>
      <trkpt lat="42.43307833" lon="-7.90881333">
        <ele>454.0</ele>
        <time>2018-10-03T08:03:47.000Z</time>
      </trkpt>
      <trkpt lat="42.43308833" lon="-7.90882667">
        <ele>454.0</ele>
        <time>2018-10-03T08:03:48.000Z</time>
      </trkpt>
      <trkpt lat="42.43309833" lon="-7.908845">
        <ele>454.0</ele>
        <time>2018-10-03T08:03:49.000Z</time>
      </trkpt>
      <trkpt lat="42.43310667" lon="-7.908865">
        <ele>453.0</ele>
        <time>2018-10-03T08:03:50.000Z</time>
      </trkpt>
      <trkpt lat="42.43311333" lon="-7.908885">
        <ele>453.0</ele>
        <time>2018-10-03T08:03:51.000Z</time>
      </trkpt>
      <trkpt lat="42.43312" lon="-7.90890333">
        <ele>453.0</ele>
        <time>2018-10-03T08:03:52.000Z</time>
      </trkpt>
      <trkpt lat="42.433125" lon="-7.90892167">
        <ele>453.0</ele>
        <time>2018-10-03T08:03:53.000Z</time>
      </trkpt>
      <trkpt lat="42.43313" lon="-7.90894167">
        <ele>453.0</ele>
        <time>2018-10-03T08:03:54.000Z</time>
      </trkpt>
      <trkpt lat="42.43313667" lon="-7.90896">
        <ele>453.0</ele>
        <time>2018-10-03T08:03:55.000Z</time>
      </trkpt>
      <trkpt lat="42.433145" lon="-7.90897833">
        <ele>453.0</ele>
        <time>2018-10-03T08:03:56.000Z</time>
      </trkpt>
      <trkpt lat="42.43315333" lon="-7.909">
        <ele>453.0</ele>
        <time>2018-10-03T08:03:57.000Z</time>
      </trkpt>
      <trkpt lat="42.43316" lon="-7.90902">
        <ele>452.0</ele>
        <time>2018-10-03T08:03:58.000Z</time>
      </trkpt>
      <trkpt lat="42.43316667" lon="-7.90904167">
        <ele>452.0</ele>
        <time>2018-10-03T08:03:59.000Z</time>
      </trkpt>
      <trkpt lat="42.43317333" lon="-7.90906">
        <ele>452.0</ele>
        <time>2018-10-03T08:04:00.000Z</time>
      </trkpt>
      <trkpt lat="42.43318" lon="-7.90907667">
        <ele>452.0</ele>
        <time>2018-10-03T08:04:01.000Z</time>
      </trkpt>
      <trkpt lat="42.43318833" lon="-7.90909333">
        <ele>452.0</ele>
        <time>2018-10-03T08:04:02.000Z</time>
      </trkpt>
      <trkpt lat="42.43319667" lon="-7.90911333">
        <ele>452.0</ele>
        <time>2018-10-03T08:04:03.000Z</time>
      </trkpt>
      <trkpt lat="42.433205" lon="-7.90913">
        <ele>452.0</ele>
        <time>2018-10-03T08:04:04.000Z</time>
      </trkpt>
      <trkpt lat="42.433215" lon="-7.90914833">
        <ele>452.0</ele>
        <time>2018-10-03T08:04:05.000Z</time>
      </trkpt>
      <trkpt lat="42.433225" lon="-7.90916667">
        <ele>452.0</ele>
        <time>2018-10-03T08:04:06.000Z</time>
      </trkpt>
      <trkpt lat="42.43323333" lon="-7.90918667">
        <ele>452.0</ele>
        <time>2018-10-03T08:04:07.000Z</time>
      </trkpt>
      <trkpt lat="42.43324167" lon="-7.909205">
        <ele>452.0</ele>
        <time>2018-10-03T08:04:08.000Z</time>
      </trkpt>
      <trkpt lat="42.43324833" lon="-7.90922167">
        <ele>452.0</ele>
        <time>2018-10-03T08:04:09.000Z</time>
      </trkpt>
      <trkpt lat="42.43325667" lon="-7.90924">
        <ele>452.0</ele>
        <time>2018-10-03T08:04:10.000Z</time>
      </trkpt>
      <trkpt lat="42.43326667" lon="-7.90925667">
        <ele>452.0</ele>
        <time>2018-10-03T08:04:11.000Z</time>
      </trkpt>
      <trkpt lat="42.43327667" lon="-7.909275">
        <ele>452.0</ele>
        <time>2018-10-03T08:04:12.000Z</time>
      </trkpt>
      <trkpt lat="42.43328667" lon="-7.90929167">
        <ele>452.0</ele>
        <time>2018-10-03T08:04:13.000Z</time>
      </trkpt>
      <trkpt lat="42.4333" lon="-7.90930833">
        <ele>452.0</ele>
        <time>2018-10-03T08:04:14.000Z</time>
      </trkpt>
      <trkpt lat="42.433315" lon="-7.909325">
        <ele>452.0</ele>
        <time>2018-10-03T08:04:15.000Z</time>
      </trkpt>
      <trkpt lat="42.43332667" lon="-7.90934167">
        <ele>452.0</ele>
        <time>2018-10-03T08:04:16.000Z</time>
      </trkpt>
      <trkpt lat="42.43333667" lon="-7.90935667">
        <ele>452.0</ele>
        <time>2018-10-03T08:04:17.000Z</time>
      </trkpt>
      <trkpt lat="42.43335" lon="-7.90937">
        <ele>452.0</ele>
        <time>2018-10-03T08:04:18.000Z</time>
      </trkpt>
      <trkpt lat="42.433365" lon="-7.90938333">
        <ele>452.0</ele>
        <time>2018-10-03T08:04:19.000Z</time>
      </trkpt>
      <trkpt lat="42.43337667" lon="-7.90939167">
        <ele>452.0</ele>
        <time>2018-10-03T08:04:20.000Z</time>
      </trkpt>
      <trkpt lat="42.433395" lon="-7.90939667">
        <ele>452.0</ele>
        <time>2018-10-03T08:04:21.000Z</time>
      </trkpt>
      <trkpt lat="42.43341" lon="-7.9094">
        <ele>452.0</ele>
        <time>2018-10-03T08:04:22.000Z</time>
      </trkpt>
      <trkpt lat="42.43342667" lon="-7.9094">
        <ele>452.0</ele>
        <time>2018-10-03T08:04:23.000Z</time>
      </trkpt>
      <trkpt lat="42.43344333" lon="-7.90939833">
        <ele>452.0</ele>
        <time>2018-10-03T08:04:24.000Z</time>
      </trkpt>
      <trkpt lat="42.43345833" lon="-7.90939833">
        <ele>452.0</ele>
        <time>2018-10-03T08:04:25.000Z</time>
      </trkpt>
      <trkpt lat="42.43347667" lon="-7.9094">
        <ele>452.0</ele>
        <time>2018-10-03T08:04:26.000Z</time>
      </trkpt>
      <trkpt lat="42.43349167" lon="-7.90940167">
        <ele>452.0</ele>
        <time>2018-10-03T08:04:27.000Z</time>
      </trkpt>
      <trkpt lat="42.43350833" lon="-7.909405">
        <ele>452.0</ele>
        <time>2018-10-03T08:04:28.000Z</time>
      </trkpt>
      <trkpt lat="42.433525" lon="-7.90940667">
        <ele>453.0</ele>
        <time>2018-10-03T08:04:29.000Z</time>
      </trkpt>
      <trkpt lat="42.43354167" lon="-7.90941167">
        <ele>453.0</ele>
        <time>2018-10-03T08:04:30.000Z</time>
      </trkpt>
      <trkpt lat="42.43356" lon="-7.909415">
        <ele>453.0</ele>
        <time>2018-10-03T08:04:31.000Z</time>
      </trkpt>
      <trkpt lat="42.43358" lon="-7.90941833">
        <ele>453.0</ele>
        <time>2018-10-03T08:04:32.000Z</time>
      </trkpt>
      <trkpt lat="42.433595" lon="-7.90942333">
        <ele>453.0</ele>
        <time>2018-10-03T08:04:33.000Z</time>
      </trkpt>
      <trkpt lat="42.43361" lon="-7.90942667">
        <ele>453.0</ele>
        <time>2018-10-03T08:04:34.000Z</time>
      </trkpt>
      <trkpt lat="42.433625" lon="-7.90942833">
        <ele>453.0</ele>
        <time>2018-10-03T08:04:35.000Z</time>
      </trkpt>
      <trkpt lat="42.43364" lon="-7.90943">
        <ele>453.0</ele>
        <time>2018-10-03T08:04:36.000Z</time>
      </trkpt>
      <trkpt lat="42.43365333" lon="-7.90943167">
        <ele>454.0</ele>
        <time>2018-10-03T08:04:37.000Z</time>
      </trkpt>
      <trkpt lat="42.43366667" lon="-7.90943667">
        <ele>454.0</ele>
        <time>2018-10-03T08:04:38.000Z</time>
      </trkpt>
      <trkpt lat="42.43368167" lon="-7.90944">
        <ele>454.0</ele>
        <time>2018-10-03T08:04:39.000Z</time>
      </trkpt>
      <trkpt lat="42.43369833" lon="-7.909445">
        <ele>454.0</ele>
        <time>2018-10-03T08:04:40.000Z</time>
      </trkpt>
      <trkpt lat="42.433715" lon="-7.90945167">
        <ele>454.0</ele>
        <time>2018-10-03T08:04:41.000Z</time>
      </trkpt>
      <trkpt lat="42.43373167" lon="-7.90945833">
        <ele>454.0</ele>
        <time>2018-10-03T08:04:42.000Z</time>
      </trkpt>
      <trkpt lat="42.433745" lon="-7.909465">
        <ele>454.0</ele>
        <time>2018-10-03T08:04:43.000Z</time>
      </trkpt>
      <trkpt lat="42.433765" lon="-7.90946833">
        <ele>454.0</ele>
        <time>2018-10-03T08:04:44.000Z</time>
      </trkpt>
      <trkpt lat="42.43378167" lon="-7.90947333">
        <ele>454.0</ele>
        <time>2018-10-03T08:04:45.000Z</time>
      </trkpt>
      <trkpt lat="42.43379667" lon="-7.90947833">
        <ele>454.0</ele>
        <time>2018-10-03T08:04:46.000Z</time>
      </trkpt>
      <trkpt lat="42.43381333" lon="-7.90948167">
        <ele>454.0</ele>
        <time>2018-10-03T08:04:47.000Z</time>
      </trkpt>
      <trkpt lat="42.43383167" lon="-7.909485">
        <ele>454.0</ele>
        <time>2018-10-03T08:04:48.000Z</time>
      </trkpt>
      <trkpt lat="42.43385" lon="-7.90948667">
        <ele>454.0</ele>
        <time>2018-10-03T08:04:49.000Z</time>
      </trkpt>
      <trkpt lat="42.433865" lon="-7.90949167">
        <ele>454.0</ele>
        <time>2018-10-03T08:04:50.000Z</time>
      </trkpt>
      <trkpt lat="42.43388167" lon="-7.90949667">
        <ele>454.0</ele>
        <time>2018-10-03T08:04:51.000Z</time>
      </trkpt>
      <trkpt lat="42.43389833" lon="-7.90950167">
        <ele>454.0</ele>
        <time>2018-10-03T08:04:52.000Z</time>
      </trkpt>
      <trkpt lat="42.43391333" lon="-7.90950833">
        <ele>454.0</ele>
        <time>2018-10-03T08:04:53.000Z</time>
      </trkpt>
      <trkpt lat="42.43392667" lon="-7.90951667">
        <ele>454.0</ele>
        <time>2018-10-03T08:04:54.000Z</time>
      </trkpt>
      <trkpt lat="42.43394" lon="-7.90952667">
        <ele>454.0</ele>
        <time>2018-10-03T08:04:55.000Z</time>
      </trkpt>
      <trkpt lat="42.433955" lon="-7.909535">
        <ele>454.0</ele>
        <time>2018-10-03T08:04:56.000Z</time>
      </trkpt>
      <trkpt lat="42.43396833" lon="-7.909545">
        <ele>454.0</ele>
        <time>2018-10-03T08:04:57.000Z</time>
      </trkpt>
      <trkpt lat="42.43398333" lon="-7.90955667">
        <ele>454.0</ele>
        <time>2018-10-03T08:04:58.000Z</time>
      </trkpt>
      <trkpt lat="42.43399833" lon="-7.90956667">
        <ele>454.0</ele>
        <time>2018-10-03T08:04:59.000Z</time>
      </trkpt>
      <trkpt lat="42.43401333" lon="-7.90957833">
        <ele>454.0</ele>
        <time>2018-10-03T08:05:00.000Z</time>
      </trkpt>
      <trkpt lat="42.43403" lon="-7.90958667">
        <ele>454.0</ele>
        <time>2018-10-03T08:05:01.000Z</time>
      </trkpt>
      <trkpt lat="42.434045" lon="-7.909595">
        <ele>454.0</ele>
        <time>2018-10-03T08:05:02.000Z</time>
      </trkpt>
      <trkpt lat="42.43406" lon="-7.90960167">
        <ele>454.0</ele>
        <time>2018-10-03T08:05:03.000Z</time>
      </trkpt>
      <trkpt lat="42.434075" lon="-7.90961167">
        <ele>454.0</ele>
        <time>2018-10-03T08:05:04.000Z</time>
      </trkpt>
      <trkpt lat="42.43409" lon="-7.90962">
        <ele>454.0</ele>
        <time>2018-10-03T08:05:05.000Z</time>
      </trkpt>
      <trkpt lat="42.434105" lon="-7.90962833">
        <ele>454.0</ele>
        <time>2018-10-03T08:05:06.000Z</time>
      </trkpt>
      <trkpt lat="42.43412333" lon="-7.90963667">
        <ele>454.0</ele>
        <time>2018-10-03T08:05:07.000Z</time>
      </trkpt>
      <trkpt lat="42.43413833" lon="-7.90964667">
        <ele>454.0</ele>
        <time>2018-10-03T08:05:08.000Z</time>
      </trkpt>
      <trkpt lat="42.434155" lon="-7.90965667">
        <ele>454.0</ele>
        <time>2018-10-03T08:05:09.000Z</time>
      </trkpt>
      <trkpt lat="42.43417" lon="-7.90966667">
        <ele>454.0</ele>
        <time>2018-10-03T08:05:10.000Z</time>
      </trkpt>
      <trkpt lat="42.434185" lon="-7.90968">
        <ele>454.0</ele>
        <time>2018-10-03T08:05:11.000Z</time>
      </trkpt>
      <trkpt lat="42.43419667" lon="-7.90969167">
        <ele>454.0</ele>
        <time>2018-10-03T08:05:12.000Z</time>
      </trkpt>
      <trkpt lat="42.43421" lon="-7.90970167">
        <ele>455.0</ele>
        <time>2018-10-03T08:05:13.000Z</time>
      </trkpt>
      <trkpt lat="42.43422167" lon="-7.90971333">
        <ele>455.0</ele>
        <time>2018-10-03T08:05:14.000Z</time>
      </trkpt>
      <trkpt lat="42.43423167" lon="-7.90972667">
        <ele>455.0</ele>
        <time>2018-10-03T08:05:15.000Z</time>
      </trkpt>
      <trkpt lat="42.43423667" lon="-7.90974333">
        <ele>455.0</ele>
        <time>2018-10-03T08:05:16.000Z</time>
      </trkpt>
      <trkpt lat="42.43424" lon="-7.90976333">
        <ele>455.0</ele>
        <time>2018-10-03T08:05:17.000Z</time>
      </trkpt>
      <trkpt lat="42.43424167" lon="-7.909785">
        <ele>455.0</ele>
        <time>2018-10-03T08:05:18.000Z</time>
      </trkpt>
      <trkpt lat="42.43424333" lon="-7.90981">
        <ele>455.0</ele>
        <time>2018-10-03T08:05:19.000Z</time>
      </trkpt>
      <trkpt lat="42.43424667" lon="-7.90983333">
        <ele>455.0</ele>
        <time>2018-10-03T08:05:20.000Z</time>
      </trkpt>
      <trkpt lat="42.43424833" lon="-7.909855">
        <ele>455.0</ele>
        <time>2018-10-03T08:05:21.000Z</time>
      </trkpt>
      <trkpt lat="42.43425167" lon="-7.909875">
        <ele>455.0</ele>
        <time>2018-10-03T08:05:22.000Z</time>
      </trkpt>
      <trkpt lat="42.43425833" lon="-7.90989667">
        <ele>455.0</ele>
        <time>2018-10-03T08:05:23.000Z</time>
      </trkpt>
      <trkpt lat="42.43426833" lon="-7.90992">
        <ele>455.0</ele>
        <time>2018-10-03T08:05:24.000Z</time>
      </trkpt>
      <trkpt lat="42.434275" lon="-7.90994">
        <ele>455.0</ele>
        <time>2018-10-03T08:05:25.000Z</time>
      </trkpt>
      <trkpt lat="42.43428167" lon="-7.90996167">
        <ele>455.0</ele>
        <time>2018-10-03T08:05:26.000Z</time>
      </trkpt>
      <trkpt lat="42.43429167" lon="-7.90998333">
        <ele>455.0</ele>
        <time>2018-10-03T08:05:27.000Z</time>
      </trkpt>
      <trkpt lat="42.43430167" lon="-7.910005">
        <ele>455.0</ele>
        <time>2018-10-03T08:05:28.000Z</time>
      </trkpt>
      <trkpt lat="42.43431167" lon="-7.91002667">
        <ele>455.0</ele>
        <time>2018-10-03T08:05:29.000Z</time>
      </trkpt>
      <trkpt lat="42.43431833" lon="-7.91004833">
        <ele>454.0</ele>
        <time>2018-10-03T08:05:30.000Z</time>
      </trkpt>
      <trkpt lat="42.43432667" lon="-7.91007">
        <ele>454.0</ele>
        <time>2018-10-03T08:05:31.000Z</time>
      </trkpt>
      <trkpt lat="42.434335" lon="-7.91009">
        <ele>454.0</ele>
        <time>2018-10-03T08:05:32.000Z</time>
      </trkpt>
      <trkpt lat="42.434345" lon="-7.91011">
        <ele>454.0</ele>
        <time>2018-10-03T08:05:33.000Z</time>
      </trkpt>
      <trkpt lat="42.43435667" lon="-7.91013167">
        <ele>454.0</ele>
        <time>2018-10-03T08:05:34.000Z</time>
      </trkpt>
      <trkpt lat="42.43436833" lon="-7.910155">
        <ele>454.0</ele>
        <time>2018-10-03T08:05:35.000Z</time>
      </trkpt>
      <trkpt lat="42.43437833" lon="-7.910175">
        <ele>453.0</ele>
        <time>2018-10-03T08:05:36.000Z</time>
      </trkpt>
      <trkpt lat="42.43438833" lon="-7.910195">
        <ele>453.0</ele>
        <time>2018-10-03T08:05:37.000Z</time>
      </trkpt>
      <trkpt lat="42.43439333" lon="-7.91021833">
        <ele>454.0</ele>
        <time>2018-10-03T08:05:38.000Z</time>
      </trkpt>
      <trkpt lat="42.43440167" lon="-7.91024333">
        <ele>454.0</ele>
        <time>2018-10-03T08:05:39.000Z</time>
      </trkpt>
      <trkpt lat="42.43441167" lon="-7.91026833">
        <ele>454.0</ele>
        <time>2018-10-03T08:05:40.000Z</time>
      </trkpt>
      <trkpt lat="42.43442167" lon="-7.910295">
        <ele>454.0</ele>
        <time>2018-10-03T08:05:41.000Z</time>
      </trkpt>
      <trkpt lat="42.43443" lon="-7.91032">
        <ele>454.0</ele>
        <time>2018-10-03T08:05:42.000Z</time>
      </trkpt>
      <trkpt lat="42.43443833" lon="-7.91034333">
        <ele>454.0</ele>
        <time>2018-10-03T08:05:43.000Z</time>
      </trkpt>
      <trkpt lat="42.434445" lon="-7.91036667">
        <ele>454.0</ele>
        <time>2018-10-03T08:05:44.000Z</time>
      </trkpt>
      <trkpt lat="42.43445333" lon="-7.91038833">
        <ele>454.0</ele>
        <time>2018-10-03T08:05:45.000Z</time>
      </trkpt>
      <trkpt lat="42.43446" lon="-7.91040667">
        <ele>454.0</ele>
        <time>2018-10-03T08:05:46.000Z</time>
      </trkpt>
      <trkpt lat="42.43446833" lon="-7.91042833">
        <ele>454.0</ele>
        <time>2018-10-03T08:05:47.000Z</time>
      </trkpt>
      <trkpt lat="42.43448" lon="-7.91044667">
        <ele>454.0</ele>
        <time>2018-10-03T08:05:48.000Z</time>
      </trkpt>
      <trkpt lat="42.43448833" lon="-7.910465">
        <ele>454.0</ele>
        <time>2018-10-03T08:05:49.000Z</time>
      </trkpt>
      <trkpt lat="42.43449667" lon="-7.91048167">
        <ele>454.0</ele>
        <time>2018-10-03T08:05:50.000Z</time>
      </trkpt>
      <trkpt lat="42.434505" lon="-7.9105">
        <ele>454.0</ele>
        <time>2018-10-03T08:05:51.000Z</time>
      </trkpt>
      <trkpt lat="42.43451333" lon="-7.91052">
        <ele>454.0</ele>
        <time>2018-10-03T08:05:52.000Z</time>
      </trkpt>
      <trkpt lat="42.43452667" lon="-7.91054">
        <ele>454.0</ele>
        <time>2018-10-03T08:05:53.000Z</time>
      </trkpt>
      <trkpt lat="42.43453667" lon="-7.91056">
        <ele>454.0</ele>
        <time>2018-10-03T08:05:54.000Z</time>
      </trkpt>
      <trkpt lat="42.43454667" lon="-7.91057667">
        <ele>453.0</ele>
        <time>2018-10-03T08:05:55.000Z</time>
      </trkpt>
      <trkpt lat="42.43455667" lon="-7.910595">
        <ele>453.0</ele>
        <time>2018-10-03T08:05:56.000Z</time>
      </trkpt>
      <trkpt lat="42.43456667" lon="-7.91061333">
        <ele>453.0</ele>
        <time>2018-10-03T08:05:57.000Z</time>
      </trkpt>
      <trkpt lat="42.43458" lon="-7.91063">
        <ele>452.0</ele>
        <time>2018-10-03T08:05:58.000Z</time>
      </trkpt>
      <trkpt lat="42.43459667" lon="-7.91064667">
        <ele>452.0</ele>
        <time>2018-10-03T08:05:59.000Z</time>
      </trkpt>
      <trkpt lat="42.43461333" lon="-7.91066333">
        <ele>452.0</ele>
        <time>2018-10-03T08:06:00.000Z</time>
      </trkpt>
      <trkpt lat="42.43462833" lon="-7.91067833">
        <ele>452.0</ele>
        <time>2018-10-03T08:06:01.000Z</time>
      </trkpt>
      <trkpt lat="42.43464167" lon="-7.91069667">
        <ele>451.0</ele>
        <time>2018-10-03T08:06:02.000Z</time>
      </trkpt>
      <trkpt lat="42.43465333" lon="-7.910715">
        <ele>451.0</ele>
        <time>2018-10-03T08:06:03.000Z</time>
      </trkpt>
      <trkpt lat="42.434665" lon="-7.91073167">
        <ele>451.0</ele>
        <time>2018-10-03T08:06:04.000Z</time>
      </trkpt>
      <trkpt lat="42.43467667" lon="-7.91074667">
        <ele>451.0</ele>
        <time>2018-10-03T08:06:05.000Z</time>
      </trkpt>
      <trkpt lat="42.43469167" lon="-7.91076333">
        <ele>451.0</ele>
        <time>2018-10-03T08:06:06.000Z</time>
      </trkpt>
      <trkpt lat="42.43470333" lon="-7.91078">
        <ele>450.0</ele>
        <time>2018-10-03T08:06:07.000Z</time>
      </trkpt>
      <trkpt lat="42.43471333" lon="-7.91079667">
        <ele>450.0</ele>
        <time>2018-10-03T08:06:08.000Z</time>
      </trkpt>
      <trkpt lat="42.43472333" lon="-7.91081667">
        <ele>450.0</ele>
        <time>2018-10-03T08:06:09.000Z</time>
      </trkpt>
      <trkpt lat="42.43473333" lon="-7.910835">
        <ele>450.0</ele>
        <time>2018-10-03T08:06:10.000Z</time>
      </trkpt>
      <trkpt lat="42.434745" lon="-7.91085333">
        <ele>449.0</ele>
        <time>2018-10-03T08:06:11.000Z</time>
      </trkpt>
      <trkpt lat="42.43475667" lon="-7.91087167">
        <ele>449.0</ele>
        <time>2018-10-03T08:06:12.000Z</time>
      </trkpt>
      <trkpt lat="42.43476833" lon="-7.91089167">
        <ele>449.0</ele>
        <time>2018-10-03T08:06:13.000Z</time>
      </trkpt>
      <trkpt lat="42.43478" lon="-7.91091167">
        <ele>449.0</ele>
        <time>2018-10-03T08:06:14.000Z</time>
      </trkpt>
      <trkpt lat="42.43479167" lon="-7.91093167">
        <ele>449.0</ele>
        <time>2018-10-03T08:06:15.000Z</time>
      </trkpt>
      <trkpt lat="42.43480167" lon="-7.91095">
        <ele>448.0</ele>
        <time>2018-10-03T08:06:16.000Z</time>
      </trkpt>
      <trkpt lat="42.434815" lon="-7.91096833">
        <ele>448.0</ele>
        <time>2018-10-03T08:06:17.000Z</time>
      </trkpt>
      <trkpt lat="42.43482667" lon="-7.910985">
        <ele>448.0</ele>
        <time>2018-10-03T08:06:18.000Z</time>
      </trkpt>
      <trkpt lat="42.43483833" lon="-7.91100167">
        <ele>448.0</ele>
        <time>2018-10-03T08:06:19.000Z</time>
      </trkpt>
      <trkpt lat="42.43484667" lon="-7.91101833">
        <ele>447.0</ele>
        <time>2018-10-03T08:06:20.000Z</time>
      </trkpt>
      <trkpt lat="42.43485833" lon="-7.91103333">
        <ele>447.0</ele>
        <time>2018-10-03T08:06:21.000Z</time>
      </trkpt>
      <trkpt lat="42.43487167" lon="-7.91105">
        <ele>447.0</ele>
        <time>2018-10-03T08:06:22.000Z</time>
      </trkpt>
      <trkpt lat="42.43488667" lon="-7.91106667">
        <ele>447.0</ele>
        <time>2018-10-03T08:06:23.000Z</time>
      </trkpt>
      <trkpt lat="42.4349" lon="-7.911085">
        <ele>447.0</ele>
        <time>2018-10-03T08:06:24.000Z</time>
      </trkpt>
      <trkpt lat="42.43491333" lon="-7.91110333">
        <ele>447.0</ele>
        <time>2018-10-03T08:06:25.000Z</time>
      </trkpt>
      <trkpt lat="42.43492667" lon="-7.91112">
        <ele>446.0</ele>
        <time>2018-10-03T08:06:26.000Z</time>
      </trkpt>
      <trkpt lat="42.43493833" lon="-7.91114">
        <ele>446.0</ele>
        <time>2018-10-03T08:06:27.000Z</time>
      </trkpt>
      <trkpt lat="42.43495" lon="-7.91115833">
        <ele>446.0</ele>
        <time>2018-10-03T08:06:28.000Z</time>
      </trkpt>
      <trkpt lat="42.43496333" lon="-7.91117667">
        <ele>446.0</ele>
        <time>2018-10-03T08:06:29.000Z</time>
      </trkpt>
      <trkpt lat="42.43497667" lon="-7.911195">
        <ele>446.0</ele>
        <time>2018-10-03T08:06:30.000Z</time>
      </trkpt>
      <trkpt lat="42.43499" lon="-7.91121333">
        <ele>446.0</ele>
        <time>2018-10-03T08:06:31.000Z</time>
      </trkpt>
      <trkpt lat="42.43500167" lon="-7.91123167">
        <ele>445.0</ele>
        <time>2018-10-03T08:06:32.000Z</time>
      </trkpt>
      <trkpt lat="42.435015" lon="-7.91124833">
        <ele>445.0</ele>
        <time>2018-10-03T08:06:33.000Z</time>
      </trkpt>
      <trkpt lat="42.43502833" lon="-7.91126667">
        <ele>445.0</ele>
        <time>2018-10-03T08:06:34.000Z</time>
      </trkpt>
      <trkpt lat="42.43504" lon="-7.91128667">
        <ele>445.0</ele>
        <time>2018-10-03T08:06:35.000Z</time>
      </trkpt>
      <trkpt lat="42.43505333" lon="-7.91130333">
        <ele>445.0</ele>
        <time>2018-10-03T08:06:36.000Z</time>
      </trkpt>
      <trkpt lat="42.43506667" lon="-7.91132167">
        <ele>444.0</ele>
        <time>2018-10-03T08:06:37.000Z</time>
      </trkpt>
      <trkpt lat="42.43507833" lon="-7.91134">
        <ele>444.0</ele>
        <time>2018-10-03T08:06:38.000Z</time>
      </trkpt>
      <trkpt lat="42.43509167" lon="-7.91135833">
        <ele>444.0</ele>
        <time>2018-10-03T08:06:39.000Z</time>
      </trkpt>
      <trkpt lat="42.43510333" lon="-7.91137667">
        <ele>444.0</ele>
        <time>2018-10-03T08:06:40.000Z</time>
      </trkpt>
      <trkpt lat="42.43511667" lon="-7.911395">
        <ele>444.0</ele>
        <time>2018-10-03T08:06:41.000Z</time>
      </trkpt>
      <trkpt lat="42.43513" lon="-7.91141333">
        <ele>444.0</ele>
        <time>2018-10-03T08:06:42.000Z</time>
      </trkpt>
      <trkpt lat="42.435145" lon="-7.91143">
        <ele>443.0</ele>
        <time>2018-10-03T08:06:43.000Z</time>
      </trkpt>
      <trkpt lat="42.43515667" lon="-7.91143667">
        <ele>443.0</ele>
        <time>2018-10-03T08:06:44.000Z</time>
      </trkpt>
      <trkpt lat="42.43517" lon="-7.91145167">
        <ele>443.0</ele>
        <time>2018-10-03T08:06:45.000Z</time>
      </trkpt>
      <trkpt lat="42.43518167" lon="-7.91147167">
        <ele>443.0</ele>
        <time>2018-10-03T08:06:46.000Z</time>
      </trkpt>
      <trkpt lat="42.43519333" lon="-7.91148833">
        <ele>443.0</ele>
        <time>2018-10-03T08:06:47.000Z</time>
      </trkpt>
      <trkpt lat="42.43520667" lon="-7.911505">
        <ele>443.0</ele>
        <time>2018-10-03T08:06:48.000Z</time>
      </trkpt>
      <trkpt lat="42.43522167" lon="-7.91152">
        <ele>443.0</ele>
        <time>2018-10-03T08:06:49.000Z</time>
      </trkpt>
      <trkpt lat="42.435235" lon="-7.91153667">
        <ele>443.0</ele>
        <time>2018-10-03T08:06:50.000Z</time>
      </trkpt>
      <trkpt lat="42.43524667" lon="-7.91155333">
        <ele>443.0</ele>
        <time>2018-10-03T08:06:51.000Z</time>
      </trkpt>
      <trkpt lat="42.43526" lon="-7.91157">
        <ele>443.0</ele>
        <time>2018-10-03T08:06:52.000Z</time>
      </trkpt>
      <trkpt lat="42.43527333" lon="-7.911585">
        <ele>442.0</ele>
        <time>2018-10-03T08:06:53.000Z</time>
      </trkpt>
      <trkpt lat="42.435285" lon="-7.91160167">
        <ele>442.0</ele>
        <time>2018-10-03T08:06:54.000Z</time>
      </trkpt>
      <trkpt lat="42.43529667" lon="-7.91161833">
        <ele>442.0</ele>
        <time>2018-10-03T08:06:55.000Z</time>
      </trkpt>
      <trkpt lat="42.43530833" lon="-7.911635">
        <ele>442.0</ele>
        <time>2018-10-03T08:06:56.000Z</time>
      </trkpt>
      <trkpt lat="42.43532" lon="-7.911655">
        <ele>442.0</ele>
        <time>2018-10-03T08:06:57.000Z</time>
      </trkpt>
      <trkpt lat="42.43533333" lon="-7.91167333">
        <ele>441.0</ele>
        <time>2018-10-03T08:06:58.000Z</time>
      </trkpt>
      <trkpt lat="42.43534333" lon="-7.91169">
        <ele>441.0</ele>
        <time>2018-10-03T08:06:59.000Z</time>
      </trkpt>
      <trkpt lat="42.435355" lon="-7.91170833">
        <ele>441.0</ele>
        <time>2018-10-03T08:07:00.000Z</time>
      </trkpt>
      <trkpt lat="42.43536667" lon="-7.911725">
        <ele>441.0</ele>
        <time>2018-10-03T08:07:01.000Z</time>
      </trkpt>
      <trkpt lat="42.43537833" lon="-7.91174333">
        <ele>441.0</ele>
        <time>2018-10-03T08:07:02.000Z</time>
      </trkpt>
      <trkpt lat="42.43538833" lon="-7.91176167">
        <ele>441.0</ele>
        <time>2018-10-03T08:07:03.000Z</time>
      </trkpt>
      <trkpt lat="42.43539833" lon="-7.91178">
        <ele>441.0</ele>
        <time>2018-10-03T08:07:04.000Z</time>
      </trkpt>
      <trkpt lat="42.43541" lon="-7.9118">
        <ele>440.0</ele>
        <time>2018-10-03T08:07:05.000Z</time>
      </trkpt>
      <trkpt lat="42.43541833" lon="-7.91182">
        <ele>440.0</ele>
        <time>2018-10-03T08:07:06.000Z</time>
      </trkpt>
      <trkpt lat="42.43542833" lon="-7.91184167">
        <ele>440.0</ele>
        <time>2018-10-03T08:07:07.000Z</time>
      </trkpt>
      <trkpt lat="42.43543667" lon="-7.91186167">
        <ele>440.0</ele>
        <time>2018-10-03T08:07:08.000Z</time>
      </trkpt>
      <trkpt lat="42.43544667" lon="-7.91188167">
        <ele>440.0</ele>
        <time>2018-10-03T08:07:09.000Z</time>
      </trkpt>
      <trkpt lat="42.43545667" lon="-7.91190167">
        <ele>440.0</ele>
        <time>2018-10-03T08:07:10.000Z</time>
      </trkpt>
      <trkpt lat="42.43546667" lon="-7.91192167">
        <ele>440.0</ele>
        <time>2018-10-03T08:07:11.000Z</time>
      </trkpt>
      <trkpt lat="42.43547667" lon="-7.91194">
        <ele>440.0</ele>
        <time>2018-10-03T08:07:12.000Z</time>
      </trkpt>
      <trkpt lat="42.43548667" lon="-7.91195833">
        <ele>440.0</ele>
        <time>2018-10-03T08:07:13.000Z</time>
      </trkpt>
      <trkpt lat="42.435495" lon="-7.911975">
        <ele>440.0</ele>
        <time>2018-10-03T08:07:14.000Z</time>
      </trkpt>
      <trkpt lat="42.43550333" lon="-7.91199333">
        <ele>440.0</ele>
        <time>2018-10-03T08:07:15.000Z</time>
      </trkpt>
      <trkpt lat="42.43550833" lon="-7.91201333">
        <ele>440.0</ele>
        <time>2018-10-03T08:07:16.000Z</time>
      </trkpt>
      <trkpt lat="42.435515" lon="-7.91203167">
        <ele>439.0</ele>
        <time>2018-10-03T08:07:17.000Z</time>
      </trkpt>
      <trkpt lat="42.43552333" lon="-7.91205">
        <ele>439.0</ele>
        <time>2018-10-03T08:07:18.000Z</time>
      </trkpt>
      <trkpt lat="42.43553333" lon="-7.91206833">
        <ele>439.0</ele>
        <time>2018-10-03T08:07:19.000Z</time>
      </trkpt>
      <trkpt lat="42.43554167" lon="-7.912085">
        <ele>439.0</ele>
        <time>2018-10-03T08:07:20.000Z</time>
      </trkpt>
      <trkpt lat="42.43555" lon="-7.912105">
        <ele>439.0</ele>
        <time>2018-10-03T08:07:21.000Z</time>
      </trkpt>
      <trkpt lat="42.43555833" lon="-7.912125">
        <ele>439.0</ele>
        <time>2018-10-03T08:07:22.000Z</time>
      </trkpt>
      <trkpt lat="42.435565" lon="-7.91214333">
        <ele>438.0</ele>
        <time>2018-10-03T08:07:23.000Z</time>
      </trkpt>
      <trkpt lat="42.43557333" lon="-7.91216333">
        <ele>438.0</ele>
        <time>2018-10-03T08:07:24.000Z</time>
      </trkpt>
      <trkpt lat="42.43558167" lon="-7.91218167">
        <ele>438.0</ele>
        <time>2018-10-03T08:07:25.000Z</time>
      </trkpt>
      <trkpt lat="42.43559" lon="-7.91220167">
        <ele>438.0</ele>
        <time>2018-10-03T08:07:26.000Z</time>
      </trkpt>
      <trkpt lat="42.43559667" lon="-7.91222167">
        <ele>437.0</ele>
        <time>2018-10-03T08:07:27.000Z</time>
      </trkpt>
      <trkpt lat="42.435605" lon="-7.91224167">
        <ele>437.0</ele>
        <time>2018-10-03T08:07:28.000Z</time>
      </trkpt>
      <trkpt lat="42.43561333" lon="-7.91226167">
        <ele>437.0</ele>
        <time>2018-10-03T08:07:29.000Z</time>
      </trkpt>
      <trkpt lat="42.43562167" lon="-7.91228">
        <ele>437.0</ele>
        <time>2018-10-03T08:07:30.000Z</time>
      </trkpt>
      <trkpt lat="42.43563" lon="-7.9123">
        <ele>437.0</ele>
        <time>2018-10-03T08:07:31.000Z</time>
      </trkpt>
      <trkpt lat="42.43563833" lon="-7.91232">
        <ele>437.0</ele>
        <time>2018-10-03T08:07:32.000Z</time>
      </trkpt>
      <trkpt lat="42.435645" lon="-7.91234">
        <ele>436.0</ele>
        <time>2018-10-03T08:07:33.000Z</time>
      </trkpt>
      <trkpt lat="42.43565167" lon="-7.91236">
        <ele>436.0</ele>
        <time>2018-10-03T08:07:34.000Z</time>
      </trkpt>
      <trkpt lat="42.43566" lon="-7.91238">
        <ele>436.0</ele>
        <time>2018-10-03T08:07:35.000Z</time>
      </trkpt>
      <trkpt lat="42.43566833" lon="-7.91239833">
        <ele>436.0</ele>
        <time>2018-10-03T08:07:36.000Z</time>
      </trkpt>
      <trkpt lat="42.43567667" lon="-7.91241833">
        <ele>436.0</ele>
        <time>2018-10-03T08:07:37.000Z</time>
      </trkpt>
      <trkpt lat="42.435685" lon="-7.912435">
        <ele>436.0</ele>
        <time>2018-10-03T08:07:38.000Z</time>
      </trkpt>
      <trkpt lat="42.43569167" lon="-7.912455">
        <ele>436.0</ele>
        <time>2018-10-03T08:07:39.000Z</time>
      </trkpt>
      <trkpt lat="42.43569667" lon="-7.91247667">
        <ele>436.0</ele>
        <time>2018-10-03T08:07:40.000Z</time>
      </trkpt>
      <trkpt lat="42.43570333" lon="-7.91249667">
        <ele>436.0</ele>
        <time>2018-10-03T08:07:41.000Z</time>
      </trkpt>
      <trkpt lat="42.43571167" lon="-7.91251833">
        <ele>436.0</ele>
        <time>2018-10-03T08:07:42.000Z</time>
      </trkpt>
      <trkpt lat="42.43571833" lon="-7.91253833">
        <ele>436.0</ele>
        <time>2018-10-03T08:07:43.000Z</time>
      </trkpt>
      <trkpt lat="42.43572667" lon="-7.91255833">
        <ele>435.0</ele>
        <time>2018-10-03T08:07:44.000Z</time>
      </trkpt>
      <trkpt lat="42.435735" lon="-7.91257833">
        <ele>435.0</ele>
        <time>2018-10-03T08:07:45.000Z</time>
      </trkpt>
      <trkpt lat="42.43574" lon="-7.9126">
        <ele>435.0</ele>
        <time>2018-10-03T08:07:46.000Z</time>
      </trkpt>
      <trkpt lat="42.435745" lon="-7.91262">
        <ele>435.0</ele>
        <time>2018-10-03T08:07:47.000Z</time>
      </trkpt>
      <trkpt lat="42.43575" lon="-7.91263833">
        <ele>435.0</ele>
        <time>2018-10-03T08:07:48.000Z</time>
      </trkpt>
      <trkpt lat="42.43575167" lon="-7.91265833">
        <ele>435.0</ele>
        <time>2018-10-03T08:07:49.000Z</time>
      </trkpt>
      <trkpt lat="42.435755" lon="-7.91268">
        <ele>435.0</ele>
        <time>2018-10-03T08:07:50.000Z</time>
      </trkpt>
      <trkpt lat="42.43576167" lon="-7.91270333">
        <ele>435.0</ele>
        <time>2018-10-03T08:07:51.000Z</time>
      </trkpt>
      <trkpt lat="42.43577" lon="-7.912725">
        <ele>436.0</ele>
        <time>2018-10-03T08:07:52.000Z</time>
      </trkpt>
      <trkpt lat="42.43577833" lon="-7.91274333">
        <ele>436.0</ele>
        <time>2018-10-03T08:07:53.000Z</time>
      </trkpt>
      <trkpt lat="42.43578833" lon="-7.91276333">
        <ele>436.0</ele>
        <time>2018-10-03T08:07:54.000Z</time>
      </trkpt>
      <trkpt lat="42.43579833" lon="-7.91278333">
        <ele>436.0</ele>
        <time>2018-10-03T08:07:55.000Z</time>
      </trkpt>
      <trkpt lat="42.43580833" lon="-7.91280667">
        <ele>436.0</ele>
        <time>2018-10-03T08:07:56.000Z</time>
      </trkpt>
      <trkpt lat="42.43582" lon="-7.91283">
        <ele>436.0</ele>
        <time>2018-10-03T08:07:57.000Z</time>
      </trkpt>
      <trkpt lat="42.43583" lon="-7.91285333">
        <ele>435.0</ele>
        <time>2018-10-03T08:07:58.000Z</time>
      </trkpt>
      <trkpt lat="42.43583833" lon="-7.91287333">
        <ele>435.0</ele>
        <time>2018-10-03T08:07:59.000Z</time>
      </trkpt>
      <trkpt lat="42.435845" lon="-7.91289167">
        <ele>435.0</ele>
        <time>2018-10-03T08:08:00.000Z</time>
      </trkpt>
      <trkpt lat="42.43585667" lon="-7.91291333">
        <ele>435.0</ele>
        <time>2018-10-03T08:08:01.000Z</time>
      </trkpt>
      <trkpt lat="42.43586833" lon="-7.912935">
        <ele>435.0</ele>
        <time>2018-10-03T08:08:02.000Z</time>
      </trkpt>
      <trkpt lat="42.43588" lon="-7.91295667">
        <ele>434.0</ele>
        <time>2018-10-03T08:08:03.000Z</time>
      </trkpt>
      <trkpt lat="42.43589" lon="-7.91297667">
        <ele>434.0</ele>
        <time>2018-10-03T08:08:04.000Z</time>
      </trkpt>
      <trkpt lat="42.4359" lon="-7.91299333">
        <ele>434.0</ele>
        <time>2018-10-03T08:08:05.000Z</time>
      </trkpt>
      <trkpt lat="42.43591333" lon="-7.91301167">
        <ele>434.0</ele>
        <time>2018-10-03T08:08:06.000Z</time>
      </trkpt>
      <trkpt lat="42.435925" lon="-7.91303">
        <ele>433.0</ele>
        <time>2018-10-03T08:08:07.000Z</time>
      </trkpt>
      <trkpt lat="42.43593667" lon="-7.91305167">
        <ele>433.0</ele>
        <time>2018-10-03T08:08:08.000Z</time>
      </trkpt>
      <trkpt lat="42.43594833" lon="-7.91307167">
        <ele>433.0</ele>
        <time>2018-10-03T08:08:09.000Z</time>
      </trkpt>
      <trkpt lat="42.43596" lon="-7.91309333">
        <ele>433.0</ele>
        <time>2018-10-03T08:08:10.000Z</time>
      </trkpt>
      <trkpt lat="42.43597167" lon="-7.91311333">
        <ele>433.0</ele>
        <time>2018-10-03T08:08:11.000Z</time>
      </trkpt>
      <trkpt lat="42.43598167" lon="-7.91313">
        <ele>433.0</ele>
        <time>2018-10-03T08:08:12.000Z</time>
      </trkpt>
      <trkpt lat="42.43599167" lon="-7.91314667">
        <ele>433.0</ele>
        <time>2018-10-03T08:08:13.000Z</time>
      </trkpt>
      <trkpt lat="42.436" lon="-7.91315833">
        <ele>432.0</ele>
        <time>2018-10-03T08:08:14.000Z</time>
      </trkpt>
      <trkpt lat="42.43600833" lon="-7.91317">
        <ele>432.0</ele>
        <time>2018-10-03T08:08:15.000Z</time>
      </trkpt>
      <trkpt lat="42.43600833" lon="-7.91317167">
        <ele>432.0</ele>
        <time>2018-10-03T08:08:16.000Z</time>
      </trkpt>
      <trkpt lat="42.43600833" lon="-7.91317167">
        <ele>432.0</ele>
        <time>2018-10-03T08:08:17.000Z</time>
      </trkpt>
      <trkpt lat="42.43601333" lon="-7.913185">
        <ele>432.0</ele>
        <time>2018-10-03T08:08:18.000Z</time>
      </trkpt>
      <trkpt lat="42.43601833" lon="-7.9132">
        <ele>432.0</ele>
        <time>2018-10-03T08:08:19.000Z</time>
      </trkpt>
      <trkpt lat="42.436025" lon="-7.91321833">
        <ele>432.0</ele>
        <time>2018-10-03T08:08:20.000Z</time>
      </trkpt>
      <trkpt lat="42.43603167" lon="-7.913235">
        <ele>432.0</ele>
        <time>2018-10-03T08:08:21.000Z</time>
      </trkpt>
      <trkpt lat="42.43603833" lon="-7.91325167">
        <ele>432.0</ele>
        <time>2018-10-03T08:08:22.000Z</time>
      </trkpt>
      <trkpt lat="42.43604833" lon="-7.91327">
        <ele>432.0</ele>
        <time>2018-10-03T08:08:23.000Z</time>
      </trkpt>
      <trkpt lat="42.43605833" lon="-7.91329167">
        <ele>432.0</ele>
        <time>2018-10-03T08:08:24.000Z</time>
      </trkpt>
      <trkpt lat="42.43606667" lon="-7.91331167">
        <ele>432.0</ele>
        <time>2018-10-03T08:08:25.000Z</time>
      </trkpt>
      <trkpt lat="42.43607667" lon="-7.91333167">
        <ele>432.0</ele>
        <time>2018-10-03T08:08:26.000Z</time>
      </trkpt>
      <trkpt lat="42.436085" lon="-7.91335">
        <ele>432.0</ele>
        <time>2018-10-03T08:08:27.000Z</time>
      </trkpt>
      <trkpt lat="42.43609333" lon="-7.91336833">
        <ele>432.0</ele>
        <time>2018-10-03T08:08:28.000Z</time>
      </trkpt>
      <trkpt lat="42.43609833" lon="-7.913385">
        <ele>432.0</ele>
        <time>2018-10-03T08:08:29.000Z</time>
      </trkpt>
      <trkpt lat="42.436105" lon="-7.91340167">
        <ele>431.0</ele>
        <time>2018-10-03T08:08:30.000Z</time>
      </trkpt>
      <trkpt lat="42.43611333" lon="-7.91342">
        <ele>431.0</ele>
        <time>2018-10-03T08:08:31.000Z</time>
      </trkpt>
      <trkpt lat="42.43612333" lon="-7.91343833">
        <ele>431.0</ele>
        <time>2018-10-03T08:08:32.000Z</time>
      </trkpt>
      <trkpt lat="42.43613167" lon="-7.91345667">
        <ele>431.0</ele>
        <time>2018-10-03T08:08:33.000Z</time>
      </trkpt>
      <trkpt lat="42.43614333" lon="-7.91347333">
        <ele>431.0</ele>
        <time>2018-10-03T08:08:34.000Z</time>
      </trkpt>
      <trkpt lat="42.43615333" lon="-7.91349">
        <ele>431.0</ele>
        <time>2018-10-03T08:08:35.000Z</time>
      </trkpt>
      <trkpt lat="42.436165" lon="-7.91350667">
        <ele>431.0</ele>
        <time>2018-10-03T08:08:36.000Z</time>
      </trkpt>
      <trkpt lat="42.436175" lon="-7.91352167">
        <ele>431.0</ele>
        <time>2018-10-03T08:08:37.000Z</time>
      </trkpt>
      <trkpt lat="42.436185" lon="-7.91354">
        <ele>431.0</ele>
        <time>2018-10-03T08:08:38.000Z</time>
      </trkpt>
      <trkpt lat="42.43619333" lon="-7.91355667">
        <ele>431.0</ele>
        <time>2018-10-03T08:08:39.000Z</time>
      </trkpt>
      <trkpt lat="42.436205" lon="-7.91357333">
        <ele>431.0</ele>
        <time>2018-10-03T08:08:40.000Z</time>
      </trkpt>
      <trkpt lat="42.43622" lon="-7.91359">
        <ele>431.0</ele>
        <time>2018-10-03T08:08:41.000Z</time>
      </trkpt>
      <trkpt lat="42.43623667" lon="-7.913605">
        <ele>431.0</ele>
        <time>2018-10-03T08:08:42.000Z</time>
      </trkpt>
      <trkpt lat="42.43625" lon="-7.91361667">
        <ele>431.0</ele>
        <time>2018-10-03T08:08:43.000Z</time>
      </trkpt>
      <trkpt lat="42.43626333" lon="-7.91363">
        <ele>431.0</ele>
        <time>2018-10-03T08:08:44.000Z</time>
      </trkpt>
      <trkpt lat="42.436275" lon="-7.91364333">
        <ele>431.0</ele>
        <time>2018-10-03T08:08:45.000Z</time>
      </trkpt>
      <trkpt lat="42.43628667" lon="-7.91365667">
        <ele>431.0</ele>
        <time>2018-10-03T08:08:46.000Z</time>
      </trkpt>
      <trkpt lat="42.43629833" lon="-7.91367">
        <ele>431.0</ele>
        <time>2018-10-03T08:08:47.000Z</time>
      </trkpt>
      <trkpt lat="42.43631" lon="-7.91368333">
        <ele>431.0</ele>
        <time>2018-10-03T08:08:48.000Z</time>
      </trkpt>
      <trkpt lat="42.436325" lon="-7.91369667">
        <ele>431.0</ele>
        <time>2018-10-03T08:08:49.000Z</time>
      </trkpt>
      <trkpt lat="42.43634" lon="-7.91371">
        <ele>431.0</ele>
        <time>2018-10-03T08:08:50.000Z</time>
      </trkpt>
      <trkpt lat="42.43635667" lon="-7.913725">
        <ele>431.0</ele>
        <time>2018-10-03T08:08:51.000Z</time>
      </trkpt>
      <trkpt lat="42.43637333" lon="-7.91373833">
        <ele>431.0</ele>
        <time>2018-10-03T08:08:52.000Z</time>
      </trkpt>
      <trkpt lat="42.43638833" lon="-7.91375167">
        <ele>431.0</ele>
        <time>2018-10-03T08:08:53.000Z</time>
      </trkpt>
      <trkpt lat="42.4364" lon="-7.913765">
        <ele>431.0</ele>
        <time>2018-10-03T08:08:54.000Z</time>
      </trkpt>
      <trkpt lat="42.43641" lon="-7.91377833">
        <ele>431.0</ele>
        <time>2018-10-03T08:08:55.000Z</time>
      </trkpt>
      <trkpt lat="42.43642167" lon="-7.91379">
        <ele>431.0</ele>
        <time>2018-10-03T08:08:56.000Z</time>
      </trkpt>
      <trkpt lat="42.43643333" lon="-7.913805">
        <ele>431.0</ele>
        <time>2018-10-03T08:08:57.000Z</time>
      </trkpt>
      <trkpt lat="42.43644833" lon="-7.91381833">
        <ele>431.0</ele>
        <time>2018-10-03T08:08:58.000Z</time>
      </trkpt>
      <trkpt lat="42.43646167" lon="-7.91383167">
        <ele>431.0</ele>
        <time>2018-10-03T08:08:59.000Z</time>
      </trkpt>
      <trkpt lat="42.43647667" lon="-7.91384667">
        <ele>431.0</ele>
        <time>2018-10-03T08:09:00.000Z</time>
      </trkpt>
      <trkpt lat="42.43649167" lon="-7.91386167">
        <ele>431.0</ele>
        <time>2018-10-03T08:09:01.000Z</time>
      </trkpt>
      <trkpt lat="42.436505" lon="-7.913875">
        <ele>431.0</ele>
        <time>2018-10-03T08:09:02.000Z</time>
      </trkpt>
      <trkpt lat="42.43651667" lon="-7.91388667">
        <ele>431.0</ele>
        <time>2018-10-03T08:09:03.000Z</time>
      </trkpt>
      <trkpt lat="42.43653" lon="-7.91389667">
        <ele>432.0</ele>
        <time>2018-10-03T08:09:04.000Z</time>
      </trkpt>
      <trkpt lat="42.43654167" lon="-7.91391">
        <ele>432.0</ele>
        <time>2018-10-03T08:09:05.000Z</time>
      </trkpt>
      <trkpt lat="42.436555" lon="-7.91392167">
        <ele>432.0</ele>
        <time>2018-10-03T08:09:06.000Z</time>
      </trkpt>
      <trkpt lat="42.43656833" lon="-7.91393667">
        <ele>432.0</ele>
        <time>2018-10-03T08:09:07.000Z</time>
      </trkpt>
      <trkpt lat="42.43658333" lon="-7.91395167">
        <ele>432.0</ele>
        <time>2018-10-03T08:09:08.000Z</time>
      </trkpt>
      <trkpt lat="42.43659667" lon="-7.91396667">
        <ele>432.0</ele>
        <time>2018-10-03T08:09:09.000Z</time>
      </trkpt>
      <trkpt lat="42.43661167" lon="-7.91398">
        <ele>432.0</ele>
        <time>2018-10-03T08:09:10.000Z</time>
      </trkpt>
      <trkpt lat="42.436625" lon="-7.91399333">
        <ele>432.0</ele>
        <time>2018-10-03T08:09:11.000Z</time>
      </trkpt>
      <trkpt lat="42.43663833" lon="-7.914005">
        <ele>432.0</ele>
        <time>2018-10-03T08:09:12.000Z</time>
      </trkpt>
      <trkpt lat="42.43665333" lon="-7.91401833">
        <ele>432.0</ele>
        <time>2018-10-03T08:09:13.000Z</time>
      </trkpt>
      <trkpt lat="42.43666833" lon="-7.91403167">
        <ele>432.0</ele>
        <time>2018-10-03T08:09:14.000Z</time>
      </trkpt>
      <trkpt lat="42.436685" lon="-7.914045">
        <ele>432.0</ele>
        <time>2018-10-03T08:09:15.000Z</time>
      </trkpt>
      <trkpt lat="42.4367" lon="-7.91405667">
        <ele>432.0</ele>
        <time>2018-10-03T08:09:16.000Z</time>
      </trkpt>
      <trkpt lat="42.436715" lon="-7.91406833">
        <ele>432.0</ele>
        <time>2018-10-03T08:09:17.000Z</time>
      </trkpt>
      <trkpt lat="42.43672667" lon="-7.91408167">
        <ele>432.0</ele>
        <time>2018-10-03T08:09:18.000Z</time>
      </trkpt>
      <trkpt lat="42.43673667" lon="-7.914095">
        <ele>432.0</ele>
        <time>2018-10-03T08:09:19.000Z</time>
      </trkpt>
      <trkpt lat="42.43674833" lon="-7.91411">
        <ele>432.0</ele>
        <time>2018-10-03T08:09:20.000Z</time>
      </trkpt>
      <trkpt lat="42.43676" lon="-7.914125">
        <ele>432.0</ele>
        <time>2018-10-03T08:09:21.000Z</time>
      </trkpt>
      <trkpt lat="42.436775" lon="-7.91413833">
        <ele>432.0</ele>
        <time>2018-10-03T08:09:22.000Z</time>
      </trkpt>
      <trkpt lat="42.43678667" lon="-7.91415167">
        <ele>432.0</ele>
        <time>2018-10-03T08:09:23.000Z</time>
      </trkpt>
      <trkpt lat="42.4368" lon="-7.91416833">
        <ele>432.0</ele>
        <time>2018-10-03T08:09:24.000Z</time>
      </trkpt>
      <trkpt lat="42.43681333" lon="-7.91418333">
        <ele>432.0</ele>
        <time>2018-10-03T08:09:25.000Z</time>
      </trkpt>
      <trkpt lat="42.43682667" lon="-7.91419667">
        <ele>432.0</ele>
        <time>2018-10-03T08:09:26.000Z</time>
      </trkpt>
      <trkpt lat="42.43684167" lon="-7.91421167">
        <ele>432.0</ele>
        <time>2018-10-03T08:09:27.000Z</time>
      </trkpt>
      <trkpt lat="42.43685833" lon="-7.91422667">
        <ele>432.0</ele>
        <time>2018-10-03T08:09:28.000Z</time>
      </trkpt>
      <trkpt lat="42.43687" lon="-7.91424333">
        <ele>432.0</ele>
        <time>2018-10-03T08:09:29.000Z</time>
      </trkpt>
      <trkpt lat="42.43688167" lon="-7.91425833">
        <ele>432.0</ele>
        <time>2018-10-03T08:09:30.000Z</time>
      </trkpt>
      <trkpt lat="42.43689333" lon="-7.91427167">
        <ele>432.0</ele>
        <time>2018-10-03T08:09:31.000Z</time>
      </trkpt>
      <trkpt lat="42.436905" lon="-7.91428667">
        <ele>432.0</ele>
        <time>2018-10-03T08:09:32.000Z</time>
      </trkpt>
      <trkpt lat="42.43691667" lon="-7.91430167">
        <ele>432.0</ele>
        <time>2018-10-03T08:09:33.000Z</time>
      </trkpt>
      <trkpt lat="42.43692833" lon="-7.91431833">
        <ele>432.0</ele>
        <time>2018-10-03T08:09:34.000Z</time>
      </trkpt>
      <trkpt lat="42.43693833" lon="-7.914335">
        <ele>432.0</ele>
        <time>2018-10-03T08:09:35.000Z</time>
      </trkpt>
      <trkpt lat="42.43695167" lon="-7.91435167">
        <ele>432.0</ele>
        <time>2018-10-03T08:09:36.000Z</time>
      </trkpt>
      <trkpt lat="42.436965" lon="-7.91436667">
        <ele>432.0</ele>
        <time>2018-10-03T08:09:37.000Z</time>
      </trkpt>
      <trkpt lat="42.43697833" lon="-7.91438167">
        <ele>432.0</ele>
        <time>2018-10-03T08:09:38.000Z</time>
      </trkpt>
      <trkpt lat="42.43699" lon="-7.91439667">
        <ele>432.0</ele>
        <time>2018-10-03T08:09:39.000Z</time>
      </trkpt>
      <trkpt lat="42.43700167" lon="-7.91441">
        <ele>432.0</ele>
        <time>2018-10-03T08:09:40.000Z</time>
      </trkpt>
      <trkpt lat="42.43701333" lon="-7.91442333">
        <ele>432.0</ele>
        <time>2018-10-03T08:09:41.000Z</time>
      </trkpt>
      <trkpt lat="42.43702333" lon="-7.91443667">
        <ele>432.0</ele>
        <time>2018-10-03T08:09:42.000Z</time>
      </trkpt>
      <trkpt lat="42.437035" lon="-7.91445167">
        <ele>431.0</ele>
        <time>2018-10-03T08:09:43.000Z</time>
      </trkpt>
      <trkpt lat="42.43705" lon="-7.914465">
        <ele>431.0</ele>
        <time>2018-10-03T08:09:44.000Z</time>
      </trkpt>
      <trkpt lat="42.437065" lon="-7.91447833">
        <ele>431.0</ele>
        <time>2018-10-03T08:09:45.000Z</time>
      </trkpt>
      <trkpt lat="42.43707667" lon="-7.91449333">
        <ele>431.0</ele>
        <time>2018-10-03T08:09:46.000Z</time>
      </trkpt>
      <trkpt lat="42.43709" lon="-7.91450667">
        <ele>431.0</ele>
        <time>2018-10-03T08:09:47.000Z</time>
      </trkpt>
      <trkpt lat="42.4371" lon="-7.91452167">
        <ele>431.0</ele>
        <time>2018-10-03T08:09:48.000Z</time>
      </trkpt>
      <trkpt lat="42.43711333" lon="-7.91453667">
        <ele>431.0</ele>
        <time>2018-10-03T08:09:49.000Z</time>
      </trkpt>
      <trkpt lat="42.43712667" lon="-7.91455">
        <ele>431.0</ele>
        <time>2018-10-03T08:09:50.000Z</time>
      </trkpt>
      <trkpt lat="42.43714167" lon="-7.914565">
        <ele>431.0</ele>
        <time>2018-10-03T08:09:51.000Z</time>
      </trkpt>
      <trkpt lat="42.437155" lon="-7.91457833">
        <ele>432.0</ele>
        <time>2018-10-03T08:09:52.000Z</time>
      </trkpt>
      <trkpt lat="42.43716667" lon="-7.91459333">
        <ele>432.0</ele>
        <time>2018-10-03T08:09:53.000Z</time>
      </trkpt>
      <trkpt lat="42.43717833" lon="-7.91460667">
        <ele>432.0</ele>
        <time>2018-10-03T08:09:54.000Z</time>
      </trkpt>
      <trkpt lat="42.43719" lon="-7.91462">
        <ele>432.0</ele>
        <time>2018-10-03T08:09:55.000Z</time>
      </trkpt>
      <trkpt lat="42.4372" lon="-7.914635">
        <ele>432.0</ele>
        <time>2018-10-03T08:09:56.000Z</time>
      </trkpt>
      <trkpt lat="42.43721167" lon="-7.91465167">
        <ele>432.0</ele>
        <time>2018-10-03T08:09:57.000Z</time>
      </trkpt>
      <trkpt lat="42.43722167" lon="-7.91466667">
        <ele>432.0</ele>
        <time>2018-10-03T08:09:58.000Z</time>
      </trkpt>
      <trkpt lat="42.43723333" lon="-7.91468167">
        <ele>433.0</ele>
        <time>2018-10-03T08:09:59.000Z</time>
      </trkpt>
      <trkpt lat="42.437245" lon="-7.91469667">
        <ele>433.0</ele>
        <time>2018-10-03T08:10:00.000Z</time>
      </trkpt>
      <trkpt lat="42.43725667" lon="-7.91471167">
        <ele>433.0</ele>
        <time>2018-10-03T08:10:01.000Z</time>
      </trkpt>
      <trkpt lat="42.43726667" lon="-7.914725">
        <ele>433.0</ele>
        <time>2018-10-03T08:10:02.000Z</time>
      </trkpt>
      <trkpt lat="42.43727667" lon="-7.91474">
        <ele>433.0</ele>
        <time>2018-10-03T08:10:03.000Z</time>
      </trkpt>
      <trkpt lat="42.43728667" lon="-7.914755">
        <ele>433.0</ele>
        <time>2018-10-03T08:10:04.000Z</time>
      </trkpt>
      <trkpt lat="42.43729833" lon="-7.91477167">
        <ele>433.0</ele>
        <time>2018-10-03T08:10:05.000Z</time>
      </trkpt>
      <trkpt lat="42.43731" lon="-7.91478667">
        <ele>433.0</ele>
        <time>2018-10-03T08:10:06.000Z</time>
      </trkpt>
      <trkpt lat="42.43732" lon="-7.9148">
        <ele>433.0</ele>
        <time>2018-10-03T08:10:07.000Z</time>
      </trkpt>
      <trkpt lat="42.43733167" lon="-7.91481667">
        <ele>434.0</ele>
        <time>2018-10-03T08:10:08.000Z</time>
      </trkpt>
      <trkpt lat="42.43734333" lon="-7.91483167">
        <ele>434.0</ele>
        <time>2018-10-03T08:10:09.000Z</time>
      </trkpt>
      <trkpt lat="42.43735333" lon="-7.91484833">
        <ele>434.0</ele>
        <time>2018-10-03T08:10:10.000Z</time>
      </trkpt>
      <trkpt lat="42.43736333" lon="-7.91486333">
        <ele>434.0</ele>
        <time>2018-10-03T08:10:11.000Z</time>
      </trkpt>
      <trkpt lat="42.43737333" lon="-7.91487833">
        <ele>434.0</ele>
        <time>2018-10-03T08:10:12.000Z</time>
      </trkpt>
      <trkpt lat="42.43738333" lon="-7.914895">
        <ele>434.0</ele>
        <time>2018-10-03T08:10:13.000Z</time>
      </trkpt>
      <trkpt lat="42.43739333" lon="-7.91491167">
        <ele>434.0</ele>
        <time>2018-10-03T08:10:14.000Z</time>
      </trkpt>
      <trkpt lat="42.43740333" lon="-7.91492833">
        <ele>434.0</ele>
        <time>2018-10-03T08:10:15.000Z</time>
      </trkpt>
      <trkpt lat="42.43741167" lon="-7.91494667">
        <ele>433.0</ele>
        <time>2018-10-03T08:10:16.000Z</time>
      </trkpt>
      <trkpt lat="42.43742167" lon="-7.914965">
        <ele>434.0</ele>
        <time>2018-10-03T08:10:17.000Z</time>
      </trkpt>
      <trkpt lat="42.43743167" lon="-7.91498167">
        <ele>434.0</ele>
        <time>2018-10-03T08:10:18.000Z</time>
      </trkpt>
      <trkpt lat="42.43743833" lon="-7.91499667">
        <ele>434.0</ele>
        <time>2018-10-03T08:10:19.000Z</time>
      </trkpt>
      <trkpt lat="42.437445" lon="-7.91501167">
        <ele>434.0</ele>
        <time>2018-10-03T08:10:20.000Z</time>
      </trkpt>
      <trkpt lat="42.43745167" lon="-7.91502833">
        <ele>434.0</ele>
        <time>2018-10-03T08:10:21.000Z</time>
      </trkpt>
      <trkpt lat="42.43745833" lon="-7.91504667">
        <ele>434.0</ele>
        <time>2018-10-03T08:10:22.000Z</time>
      </trkpt>
      <trkpt lat="42.43746667" lon="-7.91506667">
        <ele>434.0</ele>
        <time>2018-10-03T08:10:23.000Z</time>
      </trkpt>
      <trkpt lat="42.437475" lon="-7.915085">
        <ele>434.0</ele>
        <time>2018-10-03T08:10:24.000Z</time>
      </trkpt>
      <trkpt lat="42.43748333" lon="-7.915105">
        <ele>434.0</ele>
        <time>2018-10-03T08:10:25.000Z</time>
      </trkpt>
      <trkpt lat="42.43749" lon="-7.91512333">
        <ele>434.0</ele>
        <time>2018-10-03T08:10:26.000Z</time>
      </trkpt>
      <trkpt lat="42.43749667" lon="-7.91514333">
        <ele>434.0</ele>
        <time>2018-10-03T08:10:27.000Z</time>
      </trkpt>
      <trkpt lat="42.437505" lon="-7.91516167">
        <ele>434.0</ele>
        <time>2018-10-03T08:10:28.000Z</time>
      </trkpt>
      <trkpt lat="42.437515" lon="-7.91517833">
        <ele>434.0</ele>
        <time>2018-10-03T08:10:29.000Z</time>
      </trkpt>
      <trkpt lat="42.43752333" lon="-7.91519667">
        <ele>434.0</ele>
        <time>2018-10-03T08:10:30.000Z</time>
      </trkpt>
      <trkpt lat="42.43753333" lon="-7.915215">
        <ele>434.0</ele>
        <time>2018-10-03T08:10:31.000Z</time>
      </trkpt>
      <trkpt lat="42.43754333" lon="-7.91523333">
        <ele>434.0</ele>
        <time>2018-10-03T08:10:32.000Z</time>
      </trkpt>
      <trkpt lat="42.437555" lon="-7.91525167">
        <ele>435.0</ele>
        <time>2018-10-03T08:10:33.000Z</time>
      </trkpt>
      <trkpt lat="42.43756833" lon="-7.91526833">
        <ele>435.0</ele>
        <time>2018-10-03T08:10:34.000Z</time>
      </trkpt>
      <trkpt lat="42.43758167" lon="-7.915285">
        <ele>435.0</ele>
        <time>2018-10-03T08:10:35.000Z</time>
      </trkpt>
      <trkpt lat="42.43759667" lon="-7.915305">
        <ele>435.0</ele>
        <time>2018-10-03T08:10:36.000Z</time>
      </trkpt>
      <trkpt lat="42.43761" lon="-7.915325">
        <ele>435.0</ele>
        <time>2018-10-03T08:10:37.000Z</time>
      </trkpt>
      <trkpt lat="42.43762333" lon="-7.91534167">
        <ele>435.0</ele>
        <time>2018-10-03T08:10:38.000Z</time>
      </trkpt>
      <trkpt lat="42.43763667" lon="-7.91536">
        <ele>435.0</ele>
        <time>2018-10-03T08:10:39.000Z</time>
      </trkpt>
      <trkpt lat="42.437645" lon="-7.91537667">
        <ele>435.0</ele>
        <time>2018-10-03T08:10:40.000Z</time>
      </trkpt>
      <trkpt lat="42.43765667" lon="-7.915395">
        <ele>435.0</ele>
        <time>2018-10-03T08:10:41.000Z</time>
      </trkpt>
      <trkpt lat="42.43767" lon="-7.91541167">
        <ele>435.0</ele>
        <time>2018-10-03T08:10:42.000Z</time>
      </trkpt>
      <trkpt lat="42.43768667" lon="-7.91542833">
        <ele>435.0</ele>
        <time>2018-10-03T08:10:43.000Z</time>
      </trkpt>
      <trkpt lat="42.4377" lon="-7.91544667">
        <ele>435.0</ele>
        <time>2018-10-03T08:10:44.000Z</time>
      </trkpt>
      <trkpt lat="42.43771167" lon="-7.915465">
        <ele>434.0</ele>
        <time>2018-10-03T08:10:45.000Z</time>
      </trkpt>
      <trkpt lat="42.43772" lon="-7.91548333">
        <ele>434.0</ele>
        <time>2018-10-03T08:10:46.000Z</time>
      </trkpt>
      <trkpt lat="42.43773" lon="-7.91550167">
        <ele>434.0</ele>
        <time>2018-10-03T08:10:47.000Z</time>
      </trkpt>
      <trkpt lat="42.43774167" lon="-7.91552167">
        <ele>434.0</ele>
        <time>2018-10-03T08:10:48.000Z</time>
      </trkpt>
      <trkpt lat="42.43775333" lon="-7.91554">
        <ele>434.0</ele>
        <time>2018-10-03T08:10:49.000Z</time>
      </trkpt>
      <trkpt lat="42.43776333" lon="-7.91556">
        <ele>434.0</ele>
        <time>2018-10-03T08:10:50.000Z</time>
      </trkpt>
      <trkpt lat="42.43777333" lon="-7.91558">
        <ele>434.0</ele>
        <time>2018-10-03T08:10:51.000Z</time>
      </trkpt>
      <trkpt lat="42.43778333" lon="-7.9156">
        <ele>434.0</ele>
        <time>2018-10-03T08:10:52.000Z</time>
      </trkpt>
      <trkpt lat="42.437795" lon="-7.915615">
        <ele>434.0</ele>
        <time>2018-10-03T08:10:53.000Z</time>
      </trkpt>
      <trkpt lat="42.437805" lon="-7.91563">
        <ele>434.0</ele>
        <time>2018-10-03T08:10:54.000Z</time>
      </trkpt>
      <trkpt lat="42.43781667" lon="-7.91564667">
        <ele>434.0</ele>
        <time>2018-10-03T08:10:55.000Z</time>
      </trkpt>
      <trkpt lat="42.43782833" lon="-7.915665">
        <ele>434.0</ele>
        <time>2018-10-03T08:10:56.000Z</time>
      </trkpt>
      <trkpt lat="42.43784167" lon="-7.91568333">
        <ele>434.0</ele>
        <time>2018-10-03T08:10:57.000Z</time>
      </trkpt>
      <trkpt lat="42.437855" lon="-7.91570333">
        <ele>433.0</ele>
        <time>2018-10-03T08:10:58.000Z</time>
      </trkpt>
      <trkpt lat="42.437865" lon="-7.91572167">
        <ele>433.0</ele>
        <time>2018-10-03T08:10:59.000Z</time>
      </trkpt>
      <trkpt lat="42.43787667" lon="-7.91574167">
        <ele>433.0</ele>
        <time>2018-10-03T08:11:00.000Z</time>
      </trkpt>
      <trkpt lat="42.43789" lon="-7.91575833">
        <ele>433.0</ele>
        <time>2018-10-03T08:11:01.000Z</time>
      </trkpt>
      <trkpt lat="42.43790333" lon="-7.91577667">
        <ele>433.0</ele>
        <time>2018-10-03T08:11:02.000Z</time>
      </trkpt>
      <trkpt lat="42.43792" lon="-7.915795">
        <ele>433.0</ele>
        <time>2018-10-03T08:11:03.000Z</time>
      </trkpt>
      <trkpt lat="42.43793333" lon="-7.915815">
        <ele>433.0</ele>
        <time>2018-10-03T08:11:04.000Z</time>
      </trkpt>
      <trkpt lat="42.43794333" lon="-7.91582833">
        <ele>433.0</ele>
        <time>2018-10-03T08:11:05.000Z</time>
      </trkpt>
      <trkpt lat="42.437955" lon="-7.91584333">
        <ele>433.0</ele>
        <time>2018-10-03T08:11:06.000Z</time>
      </trkpt>
      <trkpt lat="42.43796833" lon="-7.91585833">
        <ele>433.0</ele>
        <time>2018-10-03T08:11:07.000Z</time>
      </trkpt>
      <trkpt lat="42.43798" lon="-7.91587333">
        <ele>433.0</ele>
        <time>2018-10-03T08:11:08.000Z</time>
      </trkpt>
      <trkpt lat="42.43799333" lon="-7.91588833">
        <ele>433.0</ele>
        <time>2018-10-03T08:11:09.000Z</time>
      </trkpt>
      <trkpt lat="42.43800667" lon="-7.915905">
        <ele>433.0</ele>
        <time>2018-10-03T08:11:10.000Z</time>
      </trkpt>
      <trkpt lat="42.43801833" lon="-7.91592">
        <ele>433.0</ele>
        <time>2018-10-03T08:11:11.000Z</time>
      </trkpt>
      <trkpt lat="42.43802833" lon="-7.91593333">
        <ele>433.0</ele>
        <time>2018-10-03T08:11:12.000Z</time>
      </trkpt>
      <trkpt lat="42.43804" lon="-7.91594833">
        <ele>433.0</ele>
        <time>2018-10-03T08:11:13.000Z</time>
      </trkpt>
      <trkpt lat="42.43805167" lon="-7.91596333">
        <ele>433.0</ele>
        <time>2018-10-03T08:11:14.000Z</time>
      </trkpt>
      <trkpt lat="42.43806333" lon="-7.91597833">
        <ele>433.0</ele>
        <time>2018-10-03T08:11:15.000Z</time>
      </trkpt>
      <trkpt lat="42.438075" lon="-7.91599167">
        <ele>433.0</ele>
        <time>2018-10-03T08:11:16.000Z</time>
      </trkpt>
      <trkpt lat="42.43808833" lon="-7.916005">
        <ele>433.0</ele>
        <time>2018-10-03T08:11:17.000Z</time>
      </trkpt>
      <trkpt lat="42.43810333" lon="-7.91602">
        <ele>433.0</ele>
        <time>2018-10-03T08:11:18.000Z</time>
      </trkpt>
      <trkpt lat="42.43811667" lon="-7.916035">
        <ele>433.0</ele>
        <time>2018-10-03T08:11:19.000Z</time>
      </trkpt>
      <trkpt lat="42.43813" lon="-7.91605">
        <ele>433.0</ele>
        <time>2018-10-03T08:11:20.000Z</time>
      </trkpt>
      <trkpt lat="42.43814333" lon="-7.916065">
        <ele>433.0</ele>
        <time>2018-10-03T08:11:21.000Z</time>
      </trkpt>
      <trkpt lat="42.43815667" lon="-7.91607833">
        <ele>433.0</ele>
        <time>2018-10-03T08:11:22.000Z</time>
      </trkpt>
      <trkpt lat="42.43817" lon="-7.91609333">
        <ele>433.0</ele>
        <time>2018-10-03T08:11:23.000Z</time>
      </trkpt>
      <trkpt lat="42.43818167" lon="-7.91610833">
        <ele>433.0</ele>
        <time>2018-10-03T08:11:24.000Z</time>
      </trkpt>
      <trkpt lat="42.438195" lon="-7.91612667">
        <ele>434.0</ele>
        <time>2018-10-03T08:11:25.000Z</time>
      </trkpt>
      <trkpt lat="42.43820833" lon="-7.91614333">
        <ele>434.0</ele>
        <time>2018-10-03T08:11:26.000Z</time>
      </trkpt>
      <trkpt lat="42.43822167" lon="-7.91616">
        <ele>434.0</ele>
        <time>2018-10-03T08:11:27.000Z</time>
      </trkpt>
      <trkpt lat="42.43823667" lon="-7.91617833">
        <ele>434.0</ele>
        <time>2018-10-03T08:11:28.000Z</time>
      </trkpt>
      <trkpt lat="42.43825333" lon="-7.91619333">
        <ele>434.0</ele>
        <time>2018-10-03T08:11:29.000Z</time>
      </trkpt>
      <trkpt lat="42.43826667" lon="-7.91620667">
        <ele>434.0</ele>
        <time>2018-10-03T08:11:30.000Z</time>
      </trkpt>
      <trkpt lat="42.43827667" lon="-7.91621667">
        <ele>434.0</ele>
        <time>2018-10-03T08:11:31.000Z</time>
      </trkpt>
      <trkpt lat="42.43829" lon="-7.91622833">
        <ele>435.0</ele>
        <time>2018-10-03T08:11:32.000Z</time>
      </trkpt>
      <trkpt lat="42.43830167" lon="-7.91624">
        <ele>435.0</ele>
        <time>2018-10-03T08:11:33.000Z</time>
      </trkpt>
      <trkpt lat="42.43831667" lon="-7.91625333">
        <ele>435.0</ele>
        <time>2018-10-03T08:11:34.000Z</time>
      </trkpt>
      <trkpt lat="42.43833167" lon="-7.91626667">
        <ele>435.0</ele>
        <time>2018-10-03T08:11:35.000Z</time>
      </trkpt>
      <trkpt lat="42.43834667" lon="-7.91628">
        <ele>435.0</ele>
        <time>2018-10-03T08:11:36.000Z</time>
      </trkpt>
      <trkpt lat="42.43835833" lon="-7.91629167">
        <ele>436.0</ele>
        <time>2018-10-03T08:11:37.000Z</time>
      </trkpt>
      <trkpt lat="42.43837" lon="-7.916305">
        <ele>436.0</ele>
        <time>2018-10-03T08:11:38.000Z</time>
      </trkpt>
      <trkpt lat="42.438385" lon="-7.91632">
        <ele>436.0</ele>
        <time>2018-10-03T08:11:39.000Z</time>
      </trkpt>
      <trkpt lat="42.4384" lon="-7.916335">
        <ele>436.0</ele>
        <time>2018-10-03T08:11:40.000Z</time>
      </trkpt>
      <trkpt lat="42.43841333" lon="-7.91635167">
        <ele>436.0</ele>
        <time>2018-10-03T08:11:41.000Z</time>
      </trkpt>
      <trkpt lat="42.43842667" lon="-7.916365">
        <ele>437.0</ele>
        <time>2018-10-03T08:11:42.000Z</time>
      </trkpt>
      <trkpt lat="42.43844" lon="-7.91637667">
        <ele>437.0</ele>
        <time>2018-10-03T08:11:43.000Z</time>
      </trkpt>
      <trkpt lat="42.43845" lon="-7.91638833">
        <ele>437.0</ele>
        <time>2018-10-03T08:11:44.000Z</time>
      </trkpt>
      <trkpt lat="42.43846333" lon="-7.9164">
        <ele>437.0</ele>
        <time>2018-10-03T08:11:45.000Z</time>
      </trkpt>
      <trkpt lat="42.43847667" lon="-7.91641167">
        <ele>437.0</ele>
        <time>2018-10-03T08:11:46.000Z</time>
      </trkpt>
      <trkpt lat="42.43849" lon="-7.91642333">
        <ele>437.0</ele>
        <time>2018-10-03T08:11:47.000Z</time>
      </trkpt>
      <trkpt lat="42.43850167" lon="-7.916435">
        <ele>438.0</ele>
        <time>2018-10-03T08:11:48.000Z</time>
      </trkpt>
      <trkpt lat="42.438515" lon="-7.91644833">
        <ele>438.0</ele>
        <time>2018-10-03T08:11:49.000Z</time>
      </trkpt>
      <trkpt lat="42.43852833" lon="-7.91645833">
        <ele>438.0</ele>
        <time>2018-10-03T08:11:50.000Z</time>
      </trkpt>
      <trkpt lat="42.43854167" lon="-7.91646833">
        <ele>438.0</ele>
        <time>2018-10-03T08:11:51.000Z</time>
      </trkpt>
      <trkpt lat="42.43855667" lon="-7.91647833">
        <ele>438.0</ele>
        <time>2018-10-03T08:11:52.000Z</time>
      </trkpt>
      <trkpt lat="42.43857" lon="-7.91648833">
        <ele>438.0</ele>
        <time>2018-10-03T08:11:53.000Z</time>
      </trkpt>
      <trkpt lat="42.43858167" lon="-7.91649667">
        <ele>438.0</ele>
        <time>2018-10-03T08:11:54.000Z</time>
      </trkpt>
      <trkpt lat="42.43859333" lon="-7.916505">
        <ele>438.0</ele>
        <time>2018-10-03T08:11:55.000Z</time>
      </trkpt>
      <trkpt lat="42.43860833" lon="-7.91651167">
        <ele>439.0</ele>
        <time>2018-10-03T08:11:56.000Z</time>
      </trkpt>
      <trkpt lat="42.43862333" lon="-7.91652">
        <ele>439.0</ele>
        <time>2018-10-03T08:11:57.000Z</time>
      </trkpt>
      <trkpt lat="42.43863833" lon="-7.916525">
        <ele>439.0</ele>
        <time>2018-10-03T08:11:58.000Z</time>
      </trkpt>
      <trkpt lat="42.438655" lon="-7.91653">
        <ele>439.0</ele>
        <time>2018-10-03T08:11:59.000Z</time>
      </trkpt>
      <trkpt lat="42.43867" lon="-7.91653667">
        <ele>440.0</ele>
        <time>2018-10-03T08:12:00.000Z</time>
      </trkpt>
      <trkpt lat="42.43868333" lon="-7.916545">
        <ele>440.0</ele>
        <time>2018-10-03T08:12:01.000Z</time>
      </trkpt>
      <trkpt lat="42.4387" lon="-7.91655167">
        <ele>440.0</ele>
        <time>2018-10-03T08:12:02.000Z</time>
      </trkpt>
      <trkpt lat="42.43871833" lon="-7.91656">
        <ele>440.0</ele>
        <time>2018-10-03T08:12:03.000Z</time>
      </trkpt>
      <trkpt lat="42.438735" lon="-7.91656833">
        <ele>441.0</ele>
        <time>2018-10-03T08:12:04.000Z</time>
      </trkpt>
      <trkpt lat="42.43874833" lon="-7.91657667">
        <ele>441.0</ele>
        <time>2018-10-03T08:12:05.000Z</time>
      </trkpt>
      <trkpt lat="42.43876167" lon="-7.91658667">
        <ele>441.0</ele>
        <time>2018-10-03T08:12:06.000Z</time>
      </trkpt>
      <trkpt lat="42.438775" lon="-7.91659667">
        <ele>442.0</ele>
        <time>2018-10-03T08:12:07.000Z</time>
      </trkpt>
      <trkpt lat="42.43878833" lon="-7.91660667">
        <ele>442.0</ele>
        <time>2018-10-03T08:12:08.000Z</time>
      </trkpt>
      <trkpt lat="42.43880333" lon="-7.91661833">
        <ele>442.0</ele>
        <time>2018-10-03T08:12:09.000Z</time>
      </trkpt>
      <trkpt lat="42.43882" lon="-7.91663">
        <ele>443.0</ele>
        <time>2018-10-03T08:12:10.000Z</time>
      </trkpt>
      <trkpt lat="42.43883667" lon="-7.91664">
        <ele>443.0</ele>
        <time>2018-10-03T08:12:11.000Z</time>
      </trkpt>
      <trkpt lat="42.43885333" lon="-7.91665">
        <ele>443.0</ele>
        <time>2018-10-03T08:12:12.000Z</time>
      </trkpt>
      <trkpt lat="42.43887" lon="-7.91666">
        <ele>443.0</ele>
        <time>2018-10-03T08:12:13.000Z</time>
      </trkpt>
      <trkpt lat="42.438885" lon="-7.91666833">
        <ele>444.0</ele>
        <time>2018-10-03T08:12:14.000Z</time>
      </trkpt>
      <trkpt lat="42.4389" lon="-7.91667833">
        <ele>444.0</ele>
        <time>2018-10-03T08:12:15.000Z</time>
      </trkpt>
      <trkpt lat="42.438915" lon="-7.91668833">
        <ele>444.0</ele>
        <time>2018-10-03T08:12:16.000Z</time>
      </trkpt>
      <trkpt lat="42.43893" lon="-7.91669667">
        <ele>444.0</ele>
        <time>2018-10-03T08:12:17.000Z</time>
      </trkpt>
      <trkpt lat="42.438945" lon="-7.91671">
        <ele>444.0</ele>
        <time>2018-10-03T08:12:18.000Z</time>
      </trkpt>
      <trkpt lat="42.43896" lon="-7.91672333">
        <ele>445.0</ele>
        <time>2018-10-03T08:12:19.000Z</time>
      </trkpt>
      <trkpt lat="42.438975" lon="-7.916735">
        <ele>445.0</ele>
        <time>2018-10-03T08:12:20.000Z</time>
      </trkpt>
      <trkpt lat="42.43899167" lon="-7.91674833">
        <ele>445.0</ele>
        <time>2018-10-03T08:12:21.000Z</time>
      </trkpt>
      <trkpt lat="42.43901" lon="-7.91676167">
        <ele>446.0</ele>
        <time>2018-10-03T08:12:22.000Z</time>
      </trkpt>
      <trkpt lat="42.43902667" lon="-7.916775">
        <ele>446.0</ele>
        <time>2018-10-03T08:12:23.000Z</time>
      </trkpt>
      <trkpt lat="42.43904333" lon="-7.91678833">
        <ele>446.0</ele>
        <time>2018-10-03T08:12:24.000Z</time>
      </trkpt>
      <trkpt lat="42.43906" lon="-7.916805">
        <ele>446.0</ele>
        <time>2018-10-03T08:12:25.000Z</time>
      </trkpt>
      <trkpt lat="42.439075" lon="-7.91681833">
        <ele>446.0</ele>
        <time>2018-10-03T08:12:26.000Z</time>
      </trkpt>
      <trkpt lat="42.43908833" lon="-7.91683167">
        <ele>447.0</ele>
        <time>2018-10-03T08:12:27.000Z</time>
      </trkpt>
      <trkpt lat="42.4391" lon="-7.916845">
        <ele>447.0</ele>
        <time>2018-10-03T08:12:28.000Z</time>
      </trkpt>
      <trkpt lat="42.43911333" lon="-7.91685667">
        <ele>447.0</ele>
        <time>2018-10-03T08:12:29.000Z</time>
      </trkpt>
      <trkpt lat="42.43913" lon="-7.91687">
        <ele>447.0</ele>
        <time>2018-10-03T08:12:30.000Z</time>
      </trkpt>
      <trkpt lat="42.439145" lon="-7.91688167">
        <ele>447.0</ele>
        <time>2018-10-03T08:12:31.000Z</time>
      </trkpt>
      <trkpt lat="42.43915833" lon="-7.91689">
        <ele>447.0</ele>
        <time>2018-10-03T08:12:32.000Z</time>
      </trkpt>
      <trkpt lat="42.439175" lon="-7.91689833">
        <ele>447.0</ele>
        <time>2018-10-03T08:12:33.000Z</time>
      </trkpt>
      <trkpt lat="42.43919" lon="-7.91690833">
        <ele>447.0</ele>
        <time>2018-10-03T08:12:34.000Z</time>
      </trkpt>
      <trkpt lat="42.43920333" lon="-7.91691667">
        <ele>447.0</ele>
        <time>2018-10-03T08:12:35.000Z</time>
      </trkpt>
      <trkpt lat="42.43921667" lon="-7.91692833">
        <ele>448.0</ele>
        <time>2018-10-03T08:12:36.000Z</time>
      </trkpt>
      <trkpt lat="42.43923" lon="-7.91693833">
        <ele>448.0</ele>
        <time>2018-10-03T08:12:37.000Z</time>
      </trkpt>
      <trkpt lat="42.439245" lon="-7.91694833">
        <ele>448.0</ele>
        <time>2018-10-03T08:12:38.000Z</time>
      </trkpt>
      <trkpt lat="42.43925833" lon="-7.91695667">
        <ele>448.0</ele>
        <time>2018-10-03T08:12:39.000Z</time>
      </trkpt>
      <trkpt lat="42.43927" lon="-7.916965">
        <ele>448.0</ele>
        <time>2018-10-03T08:12:40.000Z</time>
      </trkpt>
      <trkpt lat="42.43928333" lon="-7.91697667">
        <ele>449.0</ele>
        <time>2018-10-03T08:12:41.000Z</time>
      </trkpt>
      <trkpt lat="42.439295" lon="-7.91698833">
        <ele>449.0</ele>
        <time>2018-10-03T08:12:42.000Z</time>
      </trkpt>
      <trkpt lat="42.43930833" lon="-7.917">
        <ele>449.0</ele>
        <time>2018-10-03T08:12:43.000Z</time>
      </trkpt>
      <trkpt lat="42.43932333" lon="-7.91701167">
        <ele>449.0</ele>
        <time>2018-10-03T08:12:44.000Z</time>
      </trkpt>
      <trkpt lat="42.43933667" lon="-7.91702167">
        <ele>449.0</ele>
        <time>2018-10-03T08:12:45.000Z</time>
      </trkpt>
      <trkpt lat="42.43935" lon="-7.917035">
        <ele>449.0</ele>
        <time>2018-10-03T08:12:46.000Z</time>
      </trkpt>
      <trkpt lat="42.439365" lon="-7.91704833">
        <ele>449.0</ele>
        <time>2018-10-03T08:12:47.000Z</time>
      </trkpt>
      <trkpt lat="42.43938333" lon="-7.91706167">
        <ele>450.0</ele>
        <time>2018-10-03T08:12:48.000Z</time>
      </trkpt>
      <trkpt lat="42.4394" lon="-7.917075">
        <ele>450.0</ele>
        <time>2018-10-03T08:12:49.000Z</time>
      </trkpt>
      <trkpt lat="42.43941833" lon="-7.91709">
        <ele>450.0</ele>
        <time>2018-10-03T08:12:50.000Z</time>
      </trkpt>
      <trkpt lat="42.43943667" lon="-7.91710333">
        <ele>450.0</ele>
        <time>2018-10-03T08:12:51.000Z</time>
      </trkpt>
      <trkpt lat="42.43945333" lon="-7.917115">
        <ele>450.0</ele>
        <time>2018-10-03T08:12:52.000Z</time>
      </trkpt>
      <trkpt lat="42.43946833" lon="-7.917125">
        <ele>450.0</ele>
        <time>2018-10-03T08:12:53.000Z</time>
      </trkpt>
      <trkpt lat="42.43948333" lon="-7.917135">
        <ele>450.0</ele>
        <time>2018-10-03T08:12:54.000Z</time>
      </trkpt>
      <trkpt lat="42.43950167" lon="-7.91715">
        <ele>450.0</ele>
        <time>2018-10-03T08:12:55.000Z</time>
      </trkpt>
      <trkpt lat="42.43951833" lon="-7.91716333">
        <ele>450.0</ele>
        <time>2018-10-03T08:12:56.000Z</time>
      </trkpt>
      <trkpt lat="42.43953333" lon="-7.91717667">
        <ele>450.0</ele>
        <time>2018-10-03T08:12:57.000Z</time>
      </trkpt>
      <trkpt lat="42.43954667" lon="-7.91718833">
        <ele>450.0</ele>
        <time>2018-10-03T08:12:58.000Z</time>
      </trkpt>
      <trkpt lat="42.43955667" lon="-7.9172">
        <ele>450.0</ele>
        <time>2018-10-03T08:12:59.000Z</time>
      </trkpt>
      <trkpt lat="42.43956667" lon="-7.91721167">
        <ele>450.0</ele>
        <time>2018-10-03T08:13:00.000Z</time>
      </trkpt>
      <trkpt lat="42.43957833" lon="-7.91722333">
        <ele>450.0</ele>
        <time>2018-10-03T08:13:01.000Z</time>
      </trkpt>
      <trkpt lat="42.43959333" lon="-7.91723667">
        <ele>450.0</ele>
        <time>2018-10-03T08:13:02.000Z</time>
      </trkpt>
      <trkpt lat="42.439605" lon="-7.91725">
        <ele>450.0</ele>
        <time>2018-10-03T08:13:03.000Z</time>
      </trkpt>
      <trkpt lat="42.43962" lon="-7.91726333">
        <ele>449.0</ele>
        <time>2018-10-03T08:13:04.000Z</time>
      </trkpt>
      <trkpt lat="42.43963167" lon="-7.917275">
        <ele>449.0</ele>
        <time>2018-10-03T08:13:05.000Z</time>
      </trkpt>
      <trkpt lat="42.439645" lon="-7.91729">
        <ele>449.0</ele>
        <time>2018-10-03T08:13:06.000Z</time>
      </trkpt>
      <trkpt lat="42.43965667" lon="-7.91730333">
        <ele>449.0</ele>
        <time>2018-10-03T08:13:07.000Z</time>
      </trkpt>
      <trkpt lat="42.439665" lon="-7.91731833">
        <ele>448.0</ele>
        <time>2018-10-03T08:13:08.000Z</time>
      </trkpt>
      <trkpt lat="42.43967333" lon="-7.917335">
        <ele>448.0</ele>
        <time>2018-10-03T08:13:09.000Z</time>
      </trkpt>
      <trkpt lat="42.43968333" lon="-7.91735167">
        <ele>448.0</ele>
        <time>2018-10-03T08:13:10.000Z</time>
      </trkpt>
      <trkpt lat="42.43969333" lon="-7.91737">
        <ele>448.0</ele>
        <time>2018-10-03T08:13:11.000Z</time>
      </trkpt>
      <trkpt lat="42.43970333" lon="-7.91738667">
        <ele>448.0</ele>
        <time>2018-10-03T08:13:12.000Z</time>
      </trkpt>
      <trkpt lat="42.43971333" lon="-7.91740167">
        <ele>447.0</ele>
        <time>2018-10-03T08:13:13.000Z</time>
      </trkpt>
      <trkpt lat="42.43972667" lon="-7.91742">
        <ele>447.0</ele>
        <time>2018-10-03T08:13:14.000Z</time>
      </trkpt>
      <trkpt lat="42.43973833" lon="-7.91743667">
        <ele>447.0</ele>
        <time>2018-10-03T08:13:15.000Z</time>
      </trkpt>
      <trkpt lat="42.43975167" lon="-7.91745333">
        <ele>447.0</ele>
        <time>2018-10-03T08:13:16.000Z</time>
      </trkpt>
      <trkpt lat="42.43976667" lon="-7.91747333">
        <ele>447.0</ele>
        <time>2018-10-03T08:13:17.000Z</time>
      </trkpt>
      <trkpt lat="42.43978167" lon="-7.91749333">
        <ele>447.0</ele>
        <time>2018-10-03T08:13:18.000Z</time>
      </trkpt>
      <trkpt lat="42.43979667" lon="-7.91751167">
        <ele>446.0</ele>
        <time>2018-10-03T08:13:19.000Z</time>
      </trkpt>
      <trkpt lat="42.43981333" lon="-7.91753">
        <ele>446.0</ele>
        <time>2018-10-03T08:13:20.000Z</time>
      </trkpt>
      <trkpt lat="42.43982667" lon="-7.91755">
        <ele>446.0</ele>
        <time>2018-10-03T08:13:21.000Z</time>
      </trkpt>
      <trkpt lat="42.43984167" lon="-7.91756833">
        <ele>446.0</ele>
        <time>2018-10-03T08:13:22.000Z</time>
      </trkpt>
      <trkpt lat="42.43985333" lon="-7.917585">
        <ele>446.0</ele>
        <time>2018-10-03T08:13:23.000Z</time>
      </trkpt>
      <trkpt lat="42.439865" lon="-7.91760167">
        <ele>446.0</ele>
        <time>2018-10-03T08:13:24.000Z</time>
      </trkpt>
      <trkpt lat="42.43987833" lon="-7.91761667">
        <ele>446.0</ele>
        <time>2018-10-03T08:13:25.000Z</time>
      </trkpt>
      <trkpt lat="42.43989" lon="-7.91763167">
        <ele>446.0</ele>
        <time>2018-10-03T08:13:26.000Z</time>
      </trkpt>
      <trkpt lat="42.43990333" lon="-7.917645">
        <ele>446.0</ele>
        <time>2018-10-03T08:13:27.000Z</time>
      </trkpt>
      <trkpt lat="42.43991667" lon="-7.91766167">
        <ele>446.0</ele>
        <time>2018-10-03T08:13:28.000Z</time>
      </trkpt>
      <trkpt lat="42.43993167" lon="-7.91767833">
        <ele>446.0</ele>
        <time>2018-10-03T08:13:29.000Z</time>
      </trkpt>
      <trkpt lat="42.43994667" lon="-7.917695">
        <ele>445.0</ele>
        <time>2018-10-03T08:13:30.000Z</time>
      </trkpt>
      <trkpt lat="42.43995833" lon="-7.91771167">
        <ele>445.0</ele>
        <time>2018-10-03T08:13:31.000Z</time>
      </trkpt>
      <trkpt lat="42.43997167" lon="-7.91772667">
        <ele>445.0</ele>
        <time>2018-10-03T08:13:32.000Z</time>
      </trkpt>
      <trkpt lat="42.439985" lon="-7.91774167">
        <ele>445.0</ele>
        <time>2018-10-03T08:13:33.000Z</time>
      </trkpt>
      <trkpt lat="42.43999833" lon="-7.917755">
        <ele>445.0</ele>
        <time>2018-10-03T08:13:34.000Z</time>
      </trkpt>
      <trkpt lat="42.44001167" lon="-7.91777">
        <ele>444.0</ele>
        <time>2018-10-03T08:13:35.000Z</time>
      </trkpt>
      <trkpt lat="42.440025" lon="-7.917785">
        <ele>444.0</ele>
        <time>2018-10-03T08:13:36.000Z</time>
      </trkpt>
      <trkpt lat="42.44003667" lon="-7.91780167">
        <ele>444.0</ele>
        <time>2018-10-03T08:13:37.000Z</time>
      </trkpt>
      <trkpt lat="42.44004833" lon="-7.91781667">
        <ele>444.0</ele>
        <time>2018-10-03T08:13:38.000Z</time>
      </trkpt>
      <trkpt lat="42.44006" lon="-7.91783167">
        <ele>444.0</ele>
        <time>2018-10-03T08:13:39.000Z</time>
      </trkpt>
      <trkpt lat="42.44006667" lon="-7.917845">
        <ele>444.0</ele>
        <time>2018-10-03T08:13:40.000Z</time>
      </trkpt>
      <trkpt lat="42.440075" lon="-7.91785667">
        <ele>444.0</ele>
        <time>2018-10-03T08:13:41.000Z</time>
      </trkpt>
      <trkpt lat="42.44008667" lon="-7.91786667">
        <ele>444.0</ele>
        <time>2018-10-03T08:13:42.000Z</time>
      </trkpt>
      <trkpt lat="42.44009833" lon="-7.91788167">
        <ele>444.0</ele>
        <time>2018-10-03T08:13:43.000Z</time>
      </trkpt>
      <trkpt lat="42.44011" lon="-7.917895">
        <ele>444.0</ele>
        <time>2018-10-03T08:13:44.000Z</time>
      </trkpt>
      <trkpt lat="42.44012167" lon="-7.91790833">
        <ele>443.0</ele>
        <time>2018-10-03T08:13:45.000Z</time>
      </trkpt>
      <trkpt lat="42.44013333" lon="-7.91792">
        <ele>443.0</ele>
        <time>2018-10-03T08:13:46.000Z</time>
      </trkpt>
      <trkpt lat="42.44014333" lon="-7.91792833">
        <ele>443.0</ele>
        <time>2018-10-03T08:13:47.000Z</time>
      </trkpt>
      <trkpt lat="42.44015333" lon="-7.91794167">
        <ele>443.0</ele>
        <time>2018-10-03T08:13:48.000Z</time>
      </trkpt>
      <trkpt lat="42.440165" lon="-7.917955">
        <ele>443.0</ele>
        <time>2018-10-03T08:13:49.000Z</time>
      </trkpt>
      <trkpt lat="42.440175" lon="-7.91797">
        <ele>442.0</ele>
        <time>2018-10-03T08:13:50.000Z</time>
      </trkpt>
      <trkpt lat="42.440185" lon="-7.91798833">
        <ele>442.0</ele>
        <time>2018-10-03T08:13:51.000Z</time>
      </trkpt>
      <trkpt lat="42.44019333" lon="-7.918005">
        <ele>442.0</ele>
        <time>2018-10-03T08:13:52.000Z</time>
      </trkpt>
      <trkpt lat="42.440205" lon="-7.918025">
        <ele>442.0</ele>
        <time>2018-10-03T08:13:53.000Z</time>
      </trkpt>
      <trkpt lat="42.44021667" lon="-7.91804333">
        <ele>442.0</ele>
        <time>2018-10-03T08:13:54.000Z</time>
      </trkpt>
      <trkpt lat="42.44022833" lon="-7.91806167">
        <ele>442.0</ele>
        <time>2018-10-03T08:13:55.000Z</time>
      </trkpt>
      <trkpt lat="42.44024167" lon="-7.91807667">
        <ele>442.0</ele>
        <time>2018-10-03T08:13:56.000Z</time>
      </trkpt>
      <trkpt lat="42.44025333" lon="-7.91809333">
        <ele>442.0</ele>
        <time>2018-10-03T08:13:57.000Z</time>
      </trkpt>
      <trkpt lat="42.440265" lon="-7.91811">
        <ele>442.0</ele>
        <time>2018-10-03T08:13:58.000Z</time>
      </trkpt>
      <trkpt lat="42.440275" lon="-7.918125">
        <ele>441.0</ele>
        <time>2018-10-03T08:13:59.000Z</time>
      </trkpt>
      <trkpt lat="42.440285" lon="-7.91814167">
        <ele>441.0</ele>
        <time>2018-10-03T08:14:00.000Z</time>
      </trkpt>
      <trkpt lat="42.44029667" lon="-7.91815667">
        <ele>441.0</ele>
        <time>2018-10-03T08:14:01.000Z</time>
      </trkpt>
      <trkpt lat="42.44030667" lon="-7.91817">
        <ele>441.0</ele>
        <time>2018-10-03T08:14:02.000Z</time>
      </trkpt>
      <trkpt lat="42.44032" lon="-7.918185">
        <ele>441.0</ele>
        <time>2018-10-03T08:14:03.000Z</time>
      </trkpt>
      <trkpt lat="42.44032833" lon="-7.91819833">
        <ele>440.0</ele>
        <time>2018-10-03T08:14:04.000Z</time>
      </trkpt>
      <trkpt lat="42.440335" lon="-7.91821167">
        <ele>440.0</ele>
        <time>2018-10-03T08:14:05.000Z</time>
      </trkpt>
      <trkpt lat="42.44034167" lon="-7.91822667">
        <ele>440.0</ele>
        <time>2018-10-03T08:14:06.000Z</time>
      </trkpt>
      <trkpt lat="42.44035167" lon="-7.91824167">
        <ele>440.0</ele>
        <time>2018-10-03T08:14:07.000Z</time>
      </trkpt>
      <trkpt lat="42.44036167" lon="-7.91825667">
        <ele>440.0</ele>
        <time>2018-10-03T08:14:08.000Z</time>
      </trkpt>
      <trkpt lat="42.44037167" lon="-7.91827">
        <ele>440.0</ele>
        <time>2018-10-03T08:14:09.000Z</time>
      </trkpt>
      <trkpt lat="42.44038167" lon="-7.918285">
        <ele>440.0</ele>
        <time>2018-10-03T08:14:10.000Z</time>
      </trkpt>
      <trkpt lat="42.44039167" lon="-7.91830167">
        <ele>440.0</ele>
        <time>2018-10-03T08:14:11.000Z</time>
      </trkpt>
      <trkpt lat="42.4404" lon="-7.91831833">
        <ele>440.0</ele>
        <time>2018-10-03T08:14:12.000Z</time>
      </trkpt>
      <trkpt lat="42.44040833" lon="-7.918335">
        <ele>440.0</ele>
        <time>2018-10-03T08:14:13.000Z</time>
      </trkpt>
      <trkpt lat="42.44041833" lon="-7.91835167">
        <ele>440.0</ele>
        <time>2018-10-03T08:14:14.000Z</time>
      </trkpt>
      <trkpt lat="42.44042833" lon="-7.91836667">
        <ele>439.0</ele>
        <time>2018-10-03T08:14:15.000Z</time>
      </trkpt>
      <trkpt lat="42.44043833" lon="-7.91838167">
        <ele>439.0</ele>
        <time>2018-10-03T08:14:16.000Z</time>
      </trkpt>
      <trkpt lat="42.44044833" lon="-7.91839667">
        <ele>439.0</ele>
        <time>2018-10-03T08:14:17.000Z</time>
      </trkpt>
      <trkpt lat="42.44045833" lon="-7.91841333">
        <ele>439.0</ele>
        <time>2018-10-03T08:14:18.000Z</time>
      </trkpt>
      <trkpt lat="42.44046833" lon="-7.91843">
        <ele>439.0</ele>
        <time>2018-10-03T08:14:19.000Z</time>
      </trkpt>
      <trkpt lat="42.44048" lon="-7.918445">
        <ele>439.0</ele>
        <time>2018-10-03T08:14:20.000Z</time>
      </trkpt>
      <trkpt lat="42.44049" lon="-7.91846">
        <ele>439.0</ele>
        <time>2018-10-03T08:14:21.000Z</time>
      </trkpt>
      <trkpt lat="42.4405" lon="-7.91847667">
        <ele>439.0</ele>
        <time>2018-10-03T08:14:22.000Z</time>
      </trkpt>
      <trkpt lat="42.44051" lon="-7.91849167">
        <ele>439.0</ele>
        <time>2018-10-03T08:14:23.000Z</time>
      </trkpt>
      <trkpt lat="42.44052167" lon="-7.91851">
        <ele>438.0</ele>
        <time>2018-10-03T08:14:24.000Z</time>
      </trkpt>
      <trkpt lat="42.44053333" lon="-7.91852667">
        <ele>438.0</ele>
        <time>2018-10-03T08:14:25.000Z</time>
      </trkpt>
      <trkpt lat="42.44054333" lon="-7.91854333">
        <ele>438.0</ele>
        <time>2018-10-03T08:14:26.000Z</time>
      </trkpt>
      <trkpt lat="42.44055333" lon="-7.91856">
        <ele>438.0</ele>
        <time>2018-10-03T08:14:27.000Z</time>
      </trkpt>
      <trkpt lat="42.440565" lon="-7.91857667">
        <ele>438.0</ele>
        <time>2018-10-03T08:14:28.000Z</time>
      </trkpt>
      <trkpt lat="42.44057667" lon="-7.918595">
        <ele>438.0</ele>
        <time>2018-10-03T08:14:29.000Z</time>
      </trkpt>
      <trkpt lat="42.44058667" lon="-7.91861">
        <ele>437.0</ele>
        <time>2018-10-03T08:14:30.000Z</time>
      </trkpt>
      <trkpt lat="42.44059833" lon="-7.918625">
        <ele>437.0</ele>
        <time>2018-10-03T08:14:31.000Z</time>
      </trkpt>
      <trkpt lat="42.44061" lon="-7.91864">
        <ele>437.0</ele>
        <time>2018-10-03T08:14:32.000Z</time>
      </trkpt>
      <trkpt lat="42.44062167" lon="-7.91865667">
        <ele>437.0</ele>
        <time>2018-10-03T08:14:33.000Z</time>
      </trkpt>
      <trkpt lat="42.44063333" lon="-7.91867">
        <ele>437.0</ele>
        <time>2018-10-03T08:14:34.000Z</time>
      </trkpt>
      <trkpt lat="42.440645" lon="-7.918685">
        <ele>436.0</ele>
        <time>2018-10-03T08:14:35.000Z</time>
      </trkpt>
      <trkpt lat="42.44065667" lon="-7.9187">
        <ele>436.0</ele>
        <time>2018-10-03T08:14:36.000Z</time>
      </trkpt>
      <trkpt lat="42.44066667" lon="-7.91871333">
        <ele>436.0</ele>
        <time>2018-10-03T08:14:37.000Z</time>
      </trkpt>
      <trkpt lat="42.44067667" lon="-7.91873">
        <ele>436.0</ele>
        <time>2018-10-03T08:14:38.000Z</time>
      </trkpt>
      <trkpt lat="42.44068667" lon="-7.91874667">
        <ele>436.0</ele>
        <time>2018-10-03T08:14:39.000Z</time>
      </trkpt>
      <trkpt lat="42.44069667" lon="-7.91876167">
        <ele>436.0</ele>
        <time>2018-10-03T08:14:40.000Z</time>
      </trkpt>
      <trkpt lat="42.44070667" lon="-7.91877667">
        <ele>436.0</ele>
        <time>2018-10-03T08:14:41.000Z</time>
      </trkpt>
      <trkpt lat="42.44071667" lon="-7.91879167">
        <ele>436.0</ele>
        <time>2018-10-03T08:14:42.000Z</time>
      </trkpt>
      <trkpt lat="42.44072667" lon="-7.91880667">
        <ele>436.0</ele>
        <time>2018-10-03T08:14:43.000Z</time>
      </trkpt>
      <trkpt lat="42.440735" lon="-7.91882167">
        <ele>435.0</ele>
        <time>2018-10-03T08:14:44.000Z</time>
      </trkpt>
      <trkpt lat="42.440745" lon="-7.91883667">
        <ele>435.0</ele>
        <time>2018-10-03T08:14:45.000Z</time>
      </trkpt>
      <trkpt lat="42.440755" lon="-7.91885333">
        <ele>435.0</ele>
        <time>2018-10-03T08:14:46.000Z</time>
      </trkpt>
      <trkpt lat="42.44076333" lon="-7.91887">
        <ele>435.0</ele>
        <time>2018-10-03T08:14:47.000Z</time>
      </trkpt>
      <trkpt lat="42.44077167" lon="-7.91888667">
        <ele>435.0</ele>
        <time>2018-10-03T08:14:48.000Z</time>
      </trkpt>
      <trkpt lat="42.44078167" lon="-7.918905">
        <ele>435.0</ele>
        <time>2018-10-03T08:14:49.000Z</time>
      </trkpt>
      <trkpt lat="42.44079" lon="-7.91892167">
        <ele>435.0</ele>
        <time>2018-10-03T08:14:50.000Z</time>
      </trkpt>
      <trkpt lat="42.44079833" lon="-7.91893833">
        <ele>435.0</ele>
        <time>2018-10-03T08:14:51.000Z</time>
      </trkpt>
      <trkpt lat="42.44080667" lon="-7.918955">
        <ele>435.0</ele>
        <time>2018-10-03T08:14:52.000Z</time>
      </trkpt>
      <trkpt lat="42.440815" lon="-7.91897167">
        <ele>435.0</ele>
        <time>2018-10-03T08:14:53.000Z</time>
      </trkpt>
      <trkpt lat="42.440825" lon="-7.91898833">
        <ele>435.0</ele>
        <time>2018-10-03T08:14:54.000Z</time>
      </trkpt>
      <trkpt lat="42.44083167" lon="-7.919005">
        <ele>435.0</ele>
        <time>2018-10-03T08:14:55.000Z</time>
      </trkpt>
      <trkpt lat="42.44084167" lon="-7.91902167">
        <ele>435.0</ele>
        <time>2018-10-03T08:14:56.000Z</time>
      </trkpt>
      <trkpt lat="42.44085" lon="-7.91903667">
        <ele>435.0</ele>
        <time>2018-10-03T08:14:57.000Z</time>
      </trkpt>
      <trkpt lat="42.44085833" lon="-7.91905333">
        <ele>435.0</ele>
        <time>2018-10-03T08:14:58.000Z</time>
      </trkpt>
      <trkpt lat="42.44086667" lon="-7.91907">
        <ele>435.0</ele>
        <time>2018-10-03T08:14:59.000Z</time>
      </trkpt>
      <trkpt lat="42.44087333" lon="-7.91908667">
        <ele>435.0</ele>
        <time>2018-10-03T08:15:00.000Z</time>
      </trkpt>
      <trkpt lat="42.44088" lon="-7.91910333">
        <ele>435.0</ele>
        <time>2018-10-03T08:15:01.000Z</time>
      </trkpt>
      <trkpt lat="42.440885" lon="-7.919115">
        <ele>435.0</ele>
        <time>2018-10-03T08:15:02.000Z</time>
      </trkpt>
      <trkpt lat="42.44089" lon="-7.91912667">
        <ele>435.0</ele>
        <time>2018-10-03T08:15:03.000Z</time>
      </trkpt>
      <trkpt lat="42.44089333" lon="-7.91914333">
        <ele>435.0</ele>
        <time>2018-10-03T08:15:04.000Z</time>
      </trkpt>
      <trkpt lat="42.44089833" lon="-7.91916">
        <ele>435.0</ele>
        <time>2018-10-03T08:15:05.000Z</time>
      </trkpt>
      <trkpt lat="42.44090167" lon="-7.91917833">
        <ele>435.0</ele>
        <time>2018-10-03T08:15:06.000Z</time>
      </trkpt>
      <trkpt lat="42.44090667" lon="-7.91919667">
        <ele>435.0</ele>
        <time>2018-10-03T08:15:07.000Z</time>
      </trkpt>
      <trkpt lat="42.44091167" lon="-7.919215">
        <ele>436.0</ele>
        <time>2018-10-03T08:15:08.000Z</time>
      </trkpt>
      <trkpt lat="42.44091667" lon="-7.91923167">
        <ele>436.0</ele>
        <time>2018-10-03T08:15:09.000Z</time>
      </trkpt>
      <trkpt lat="42.44092333" lon="-7.91925">
        <ele>436.0</ele>
        <time>2018-10-03T08:15:10.000Z</time>
      </trkpt>
      <trkpt lat="42.44092833" lon="-7.91926833">
        <ele>436.0</ele>
        <time>2018-10-03T08:15:11.000Z</time>
      </trkpt>
      <trkpt lat="42.44093333" lon="-7.91928667">
        <ele>436.0</ele>
        <time>2018-10-03T08:15:12.000Z</time>
      </trkpt>
      <trkpt lat="42.44093667" lon="-7.91930667">
        <ele>436.0</ele>
        <time>2018-10-03T08:15:13.000Z</time>
      </trkpt>
      <trkpt lat="42.44094167" lon="-7.91932667">
        <ele>436.0</ele>
        <time>2018-10-03T08:15:14.000Z</time>
      </trkpt>
      <trkpt lat="42.44094833" lon="-7.919345">
        <ele>436.0</ele>
        <time>2018-10-03T08:15:15.000Z</time>
      </trkpt>
      <trkpt lat="42.44095333" lon="-7.919365">
        <ele>436.0</ele>
        <time>2018-10-03T08:15:16.000Z</time>
      </trkpt>
      <trkpt lat="42.44096" lon="-7.91938167">
        <ele>436.0</ele>
        <time>2018-10-03T08:15:17.000Z</time>
      </trkpt>
      <trkpt lat="42.440965" lon="-7.91940167">
        <ele>436.0</ele>
        <time>2018-10-03T08:15:18.000Z</time>
      </trkpt>
      <trkpt lat="42.44097167" lon="-7.91942">
        <ele>437.0</ele>
        <time>2018-10-03T08:15:19.000Z</time>
      </trkpt>
      <trkpt lat="42.44097833" lon="-7.91943667">
        <ele>437.0</ele>
        <time>2018-10-03T08:15:20.000Z</time>
      </trkpt>
      <trkpt lat="42.440985" lon="-7.919455">
        <ele>437.0</ele>
        <time>2018-10-03T08:15:21.000Z</time>
      </trkpt>
      <trkpt lat="42.44099333" lon="-7.919475">
        <ele>437.0</ele>
        <time>2018-10-03T08:15:22.000Z</time>
      </trkpt>
      <trkpt lat="42.44100167" lon="-7.91949167">
        <ele>437.0</ele>
        <time>2018-10-03T08:15:23.000Z</time>
      </trkpt>
      <trkpt lat="42.44101" lon="-7.91950833">
        <ele>437.0</ele>
        <time>2018-10-03T08:15:24.000Z</time>
      </trkpt>
      <trkpt lat="42.44101833" lon="-7.91952667">
        <ele>437.0</ele>
        <time>2018-10-03T08:15:25.000Z</time>
      </trkpt>
      <trkpt lat="42.44102833" lon="-7.91954">
        <ele>437.0</ele>
        <time>2018-10-03T08:15:26.000Z</time>
      </trkpt>
      <trkpt lat="42.441035" lon="-7.91955333">
        <ele>437.0</ele>
        <time>2018-10-03T08:15:27.000Z</time>
      </trkpt>
      <trkpt lat="42.44104333" lon="-7.919565">
        <ele>438.0</ele>
        <time>2018-10-03T08:15:28.000Z</time>
      </trkpt>
      <trkpt lat="42.44105333" lon="-7.91958">
        <ele>438.0</ele>
        <time>2018-10-03T08:15:29.000Z</time>
      </trkpt>
      <trkpt lat="42.44106333" lon="-7.91959333">
        <ele>438.0</ele>
        <time>2018-10-03T08:15:30.000Z</time>
      </trkpt>
      <trkpt lat="42.44107333" lon="-7.91960667">
        <ele>439.0</ele>
        <time>2018-10-03T08:15:31.000Z</time>
      </trkpt>
      <trkpt lat="42.441085" lon="-7.91962167">
        <ele>439.0</ele>
        <time>2018-10-03T08:15:32.000Z</time>
      </trkpt>
      <trkpt lat="42.441095" lon="-7.919635">
        <ele>439.0</ele>
        <time>2018-10-03T08:15:33.000Z</time>
      </trkpt>
      <trkpt lat="42.441105" lon="-7.91965">
        <ele>440.0</ele>
        <time>2018-10-03T08:15:34.000Z</time>
      </trkpt>
      <trkpt lat="42.44111333" lon="-7.919665">
        <ele>440.0</ele>
        <time>2018-10-03T08:15:35.000Z</time>
      </trkpt>
      <trkpt lat="42.44112167" lon="-7.91968167">
        <ele>440.0</ele>
        <time>2018-10-03T08:15:36.000Z</time>
      </trkpt>
      <trkpt lat="42.44112833" lon="-7.9197">
        <ele>440.0</ele>
        <time>2018-10-03T08:15:37.000Z</time>
      </trkpt>
      <trkpt lat="42.44113667" lon="-7.91971667">
        <ele>441.0</ele>
        <time>2018-10-03T08:15:38.000Z</time>
      </trkpt>
      <trkpt lat="42.44114" lon="-7.91973333">
        <ele>441.0</ele>
        <time>2018-10-03T08:15:39.000Z</time>
      </trkpt>
      <trkpt lat="42.44114333" lon="-7.91975">
        <ele>441.0</ele>
        <time>2018-10-03T08:15:40.000Z</time>
      </trkpt>
      <trkpt lat="42.441145" lon="-7.91976667">
        <ele>441.0</ele>
        <time>2018-10-03T08:15:41.000Z</time>
      </trkpt>
      <trkpt lat="42.44114833" lon="-7.91978">
        <ele>441.0</ele>
        <time>2018-10-03T08:15:42.000Z</time>
      </trkpt>
      <trkpt lat="42.44115167" lon="-7.91979667">
        <ele>442.0</ele>
        <time>2018-10-03T08:15:43.000Z</time>
      </trkpt>
      <trkpt lat="42.44115667" lon="-7.91981167">
        <ele>442.0</ele>
        <time>2018-10-03T08:15:44.000Z</time>
      </trkpt>
      <trkpt lat="42.44116" lon="-7.91983">
        <ele>442.0</ele>
        <time>2018-10-03T08:15:45.000Z</time>
      </trkpt>
      <trkpt lat="42.44116333" lon="-7.91985">
        <ele>442.0</ele>
        <time>2018-10-03T08:15:46.000Z</time>
      </trkpt>
      <trkpt lat="42.44116667" lon="-7.91987">
        <ele>442.0</ele>
        <time>2018-10-03T08:15:47.000Z</time>
      </trkpt>
      <trkpt lat="42.44117167" lon="-7.91989167">
        <ele>442.0</ele>
        <time>2018-10-03T08:15:48.000Z</time>
      </trkpt>
      <trkpt lat="42.44117667" lon="-7.91991333">
        <ele>442.0</ele>
        <time>2018-10-03T08:15:49.000Z</time>
      </trkpt>
      <trkpt lat="42.44118" lon="-7.91993333">
        <ele>442.0</ele>
        <time>2018-10-03T08:15:50.000Z</time>
      </trkpt>
      <trkpt lat="42.441185" lon="-7.91995167">
        <ele>443.0</ele>
        <time>2018-10-03T08:15:51.000Z</time>
      </trkpt>
      <trkpt lat="42.44119" lon="-7.91996833">
        <ele>443.0</ele>
        <time>2018-10-03T08:15:52.000Z</time>
      </trkpt>
      <trkpt lat="42.44119167" lon="-7.919985">
        <ele>443.0</ele>
        <time>2018-10-03T08:15:53.000Z</time>
      </trkpt>
      <trkpt lat="42.441195" lon="-7.92000667">
        <ele>444.0</ele>
        <time>2018-10-03T08:15:54.000Z</time>
      </trkpt>
      <trkpt lat="42.44119833" lon="-7.92002833">
        <ele>444.0</ele>
        <time>2018-10-03T08:15:55.000Z</time>
      </trkpt>
      <trkpt lat="42.44120167" lon="-7.92004667">
        <ele>444.0</ele>
        <time>2018-10-03T08:15:56.000Z</time>
      </trkpt>
      <trkpt lat="42.44120333" lon="-7.92006667">
        <ele>444.0</ele>
        <time>2018-10-03T08:15:57.000Z</time>
      </trkpt>
      <trkpt lat="42.44120333" lon="-7.92009167">
        <ele>445.0</ele>
        <time>2018-10-03T08:15:58.000Z</time>
      </trkpt>
      <trkpt lat="42.441205" lon="-7.92011333">
        <ele>445.0</ele>
        <time>2018-10-03T08:15:59.000Z</time>
      </trkpt>
      <trkpt lat="42.44120833" lon="-7.92013333">
        <ele>445.0</ele>
        <time>2018-10-03T08:16:00.000Z</time>
      </trkpt>
      <trkpt lat="42.44121" lon="-7.92015667">
        <ele>445.0</ele>
        <time>2018-10-03T08:16:01.000Z</time>
      </trkpt>
      <trkpt lat="42.44121333" lon="-7.92017667">
        <ele>445.0</ele>
        <time>2018-10-03T08:16:02.000Z</time>
      </trkpt>
      <trkpt lat="42.441215" lon="-7.92019667">
        <ele>445.0</ele>
        <time>2018-10-03T08:16:03.000Z</time>
      </trkpt>
      <trkpt lat="42.44121833" lon="-7.92021667">
        <ele>446.0</ele>
        <time>2018-10-03T08:16:04.000Z</time>
      </trkpt>
      <trkpt lat="42.44122167" lon="-7.92023667">
        <ele>446.0</ele>
        <time>2018-10-03T08:16:05.000Z</time>
      </trkpt>
      <trkpt lat="42.44122667" lon="-7.92025833">
        <ele>446.0</ele>
        <time>2018-10-03T08:16:06.000Z</time>
      </trkpt>
      <trkpt lat="42.44123" lon="-7.92028">
        <ele>446.0</ele>
        <time>2018-10-03T08:16:07.000Z</time>
      </trkpt>
      <trkpt lat="42.44123167" lon="-7.92030167">
        <ele>446.0</ele>
        <time>2018-10-03T08:16:08.000Z</time>
      </trkpt>
      <trkpt lat="42.44123333" lon="-7.92032167">
        <ele>446.0</ele>
        <time>2018-10-03T08:16:09.000Z</time>
      </trkpt>
      <trkpt lat="42.44123667" lon="-7.92034167">
        <ele>446.0</ele>
        <time>2018-10-03T08:16:10.000Z</time>
      </trkpt>
      <trkpt lat="42.44123833" lon="-7.92036167">
        <ele>446.0</ele>
        <time>2018-10-03T08:16:11.000Z</time>
      </trkpt>
      <trkpt lat="42.44123667" lon="-7.92038333">
        <ele>446.0</ele>
        <time>2018-10-03T08:16:12.000Z</time>
      </trkpt>
      <trkpt lat="42.441235" lon="-7.920405">
        <ele>447.0</ele>
        <time>2018-10-03T08:16:13.000Z</time>
      </trkpt>
      <trkpt lat="42.44123333" lon="-7.92042667">
        <ele>447.0</ele>
        <time>2018-10-03T08:16:14.000Z</time>
      </trkpt>
      <trkpt lat="42.441235" lon="-7.92044833">
        <ele>447.0</ele>
        <time>2018-10-03T08:16:15.000Z</time>
      </trkpt>
      <trkpt lat="42.44123333" lon="-7.92046833">
        <ele>447.0</ele>
        <time>2018-10-03T08:16:16.000Z</time>
      </trkpt>
      <trkpt lat="42.44123333" lon="-7.92049">
        <ele>448.0</ele>
        <time>2018-10-03T08:16:17.000Z</time>
      </trkpt>
      <trkpt lat="42.44123167" lon="-7.92051167">
        <ele>448.0</ele>
        <time>2018-10-03T08:16:18.000Z</time>
      </trkpt>
      <trkpt lat="42.44123333" lon="-7.920535">
        <ele>448.0</ele>
        <time>2018-10-03T08:16:19.000Z</time>
      </trkpt>
      <trkpt lat="42.44123167" lon="-7.92055667">
        <ele>448.0</ele>
        <time>2018-10-03T08:16:20.000Z</time>
      </trkpt>
      <trkpt lat="42.44123167" lon="-7.920575">
        <ele>448.0</ele>
        <time>2018-10-03T08:16:21.000Z</time>
      </trkpt>
      <trkpt lat="42.44123333" lon="-7.920595">
        <ele>449.0</ele>
        <time>2018-10-03T08:16:22.000Z</time>
      </trkpt>
      <trkpt lat="42.441235" lon="-7.92061667">
        <ele>449.0</ele>
        <time>2018-10-03T08:16:23.000Z</time>
      </trkpt>
      <trkpt lat="42.44124" lon="-7.92063667">
        <ele>449.0</ele>
        <time>2018-10-03T08:16:24.000Z</time>
      </trkpt>
      <trkpt lat="42.44124167" lon="-7.92065167">
        <ele>449.0</ele>
        <time>2018-10-03T08:16:25.000Z</time>
      </trkpt>
      <trkpt lat="42.441245" lon="-7.92067">
        <ele>449.0</ele>
        <time>2018-10-03T08:16:26.000Z</time>
      </trkpt>
      <trkpt lat="42.44125" lon="-7.92069">
        <ele>449.0</ele>
        <time>2018-10-03T08:16:27.000Z</time>
      </trkpt>
      <trkpt lat="42.441255" lon="-7.92070833">
        <ele>449.0</ele>
        <time>2018-10-03T08:16:28.000Z</time>
      </trkpt>
      <trkpt lat="42.44126" lon="-7.92072833">
        <ele>449.0</ele>
        <time>2018-10-03T08:16:29.000Z</time>
      </trkpt>
      <trkpt lat="42.441265" lon="-7.92074667">
        <ele>449.0</ele>
        <time>2018-10-03T08:16:30.000Z</time>
      </trkpt>
      <trkpt lat="42.44126667" lon="-7.92076667">
        <ele>449.0</ele>
        <time>2018-10-03T08:16:31.000Z</time>
      </trkpt>
      <trkpt lat="42.44126833" lon="-7.92078833">
        <ele>449.0</ele>
        <time>2018-10-03T08:16:32.000Z</time>
      </trkpt>
      <trkpt lat="42.44127" lon="-7.92081167">
        <ele>449.0</ele>
        <time>2018-10-03T08:16:33.000Z</time>
      </trkpt>
      <trkpt lat="42.44127" lon="-7.920835">
        <ele>449.0</ele>
        <time>2018-10-03T08:16:34.000Z</time>
      </trkpt>
      <trkpt lat="42.44126833" lon="-7.92086">
        <ele>449.0</ele>
        <time>2018-10-03T08:16:35.000Z</time>
      </trkpt>
      <trkpt lat="42.44126833" lon="-7.92088">
        <ele>449.0</ele>
        <time>2018-10-03T08:16:36.000Z</time>
      </trkpt>
      <trkpt lat="42.44127" lon="-7.92089833">
        <ele>449.0</ele>
        <time>2018-10-03T08:16:37.000Z</time>
      </trkpt>
      <trkpt lat="42.44127" lon="-7.92091833">
        <ele>450.0</ele>
        <time>2018-10-03T08:16:38.000Z</time>
      </trkpt>
      <trkpt lat="42.44127167" lon="-7.92093333">
        <ele>450.0</ele>
        <time>2018-10-03T08:16:39.000Z</time>
      </trkpt>
      <trkpt lat="42.44127167" lon="-7.92095333">
        <ele>450.0</ele>
        <time>2018-10-03T08:16:40.000Z</time>
      </trkpt>
      <trkpt lat="42.44127167" lon="-7.92097333">
        <ele>450.0</ele>
        <time>2018-10-03T08:16:41.000Z</time>
      </trkpt>
      <trkpt lat="42.44127167" lon="-7.92099333">
        <ele>450.0</ele>
        <time>2018-10-03T08:16:42.000Z</time>
      </trkpt>
      <trkpt lat="42.44127" lon="-7.921015">
        <ele>451.0</ele>
        <time>2018-10-03T08:16:43.000Z</time>
      </trkpt>
      <trkpt lat="42.44126833" lon="-7.92103667">
        <ele>451.0</ele>
        <time>2018-10-03T08:16:44.000Z</time>
      </trkpt>
      <trkpt lat="42.44126667" lon="-7.92106">
        <ele>451.0</ele>
        <time>2018-10-03T08:16:45.000Z</time>
      </trkpt>
      <trkpt lat="42.44126667" lon="-7.92108167">
        <ele>451.0</ele>
        <time>2018-10-03T08:16:46.000Z</time>
      </trkpt>
      <trkpt lat="42.44126833" lon="-7.92110167">
        <ele>451.0</ele>
        <time>2018-10-03T08:16:47.000Z</time>
      </trkpt>
      <trkpt lat="42.44127" lon="-7.92111833">
        <ele>452.0</ele>
        <time>2018-10-03T08:16:48.000Z</time>
      </trkpt>
      <trkpt lat="42.44127333" lon="-7.92113667">
        <ele>452.0</ele>
        <time>2018-10-03T08:16:49.000Z</time>
      </trkpt>
      <trkpt lat="42.44127333" lon="-7.921155">
        <ele>452.0</ele>
        <time>2018-10-03T08:16:50.000Z</time>
      </trkpt>
      <trkpt lat="42.44127167" lon="-7.921175">
        <ele>452.0</ele>
        <time>2018-10-03T08:16:51.000Z</time>
      </trkpt>
      <trkpt lat="42.44127333" lon="-7.921195">
        <ele>452.0</ele>
        <time>2018-10-03T08:16:52.000Z</time>
      </trkpt>
      <trkpt lat="42.44127833" lon="-7.92121833">
        <ele>452.0</ele>
        <time>2018-10-03T08:16:53.000Z</time>
      </trkpt>
      <trkpt lat="42.44128" lon="-7.92123667">
        <ele>452.0</ele>
        <time>2018-10-03T08:16:54.000Z</time>
      </trkpt>
      <trkpt lat="42.44128333" lon="-7.921255">
        <ele>452.0</ele>
        <time>2018-10-03T08:16:55.000Z</time>
      </trkpt>
      <trkpt lat="42.44128667" lon="-7.92127333">
        <ele>452.0</ele>
        <time>2018-10-03T08:16:56.000Z</time>
      </trkpt>
      <trkpt lat="42.44129" lon="-7.92129333">
        <ele>452.0</ele>
        <time>2018-10-03T08:16:57.000Z</time>
      </trkpt>
      <trkpt lat="42.44129167" lon="-7.92131333">
        <ele>452.0</ele>
        <time>2018-10-03T08:16:58.000Z</time>
      </trkpt>
      <trkpt lat="42.44129333" lon="-7.921335">
        <ele>452.0</ele>
        <time>2018-10-03T08:16:59.000Z</time>
      </trkpt>
      <trkpt lat="42.441295" lon="-7.92135333">
        <ele>452.0</ele>
        <time>2018-10-03T08:17:00.000Z</time>
      </trkpt>
      <trkpt lat="42.44129667" lon="-7.92137167">
        <ele>452.0</ele>
        <time>2018-10-03T08:17:01.000Z</time>
      </trkpt>
      <trkpt lat="42.44129833" lon="-7.92138833">
        <ele>452.0</ele>
        <time>2018-10-03T08:17:02.000Z</time>
      </trkpt>
      <trkpt lat="42.4413" lon="-7.92140833">
        <ele>452.0</ele>
        <time>2018-10-03T08:17:03.000Z</time>
      </trkpt>
      <trkpt lat="42.44130333" lon="-7.92143">
        <ele>452.0</ele>
        <time>2018-10-03T08:17:04.000Z</time>
      </trkpt>
      <trkpt lat="42.44130667" lon="-7.921455">
        <ele>452.0</ele>
        <time>2018-10-03T08:17:05.000Z</time>
      </trkpt>
      <trkpt lat="42.44131" lon="-7.92147833">
        <ele>452.0</ele>
        <time>2018-10-03T08:17:06.000Z</time>
      </trkpt>
      <trkpt lat="42.441315" lon="-7.9215">
        <ele>452.0</ele>
        <time>2018-10-03T08:17:07.000Z</time>
      </trkpt>
      <trkpt lat="42.44132" lon="-7.92152">
        <ele>452.0</ele>
        <time>2018-10-03T08:17:08.000Z</time>
      </trkpt>
      <trkpt lat="42.44132833" lon="-7.92154167">
        <ele>451.0</ele>
        <time>2018-10-03T08:17:09.000Z</time>
      </trkpt>
      <trkpt lat="42.441335" lon="-7.921565">
        <ele>451.0</ele>
        <time>2018-10-03T08:17:10.000Z</time>
      </trkpt>
      <trkpt lat="42.44134333" lon="-7.92158833">
        <ele>451.0</ele>
        <time>2018-10-03T08:17:11.000Z</time>
      </trkpt>
      <trkpt lat="42.44135" lon="-7.92161167">
        <ele>451.0</ele>
        <time>2018-10-03T08:17:12.000Z</time>
      </trkpt>
      <trkpt lat="42.44135667" lon="-7.92163333">
        <ele>451.0</ele>
        <time>2018-10-03T08:17:13.000Z</time>
      </trkpt>
      <trkpt lat="42.44136333" lon="-7.921655">
        <ele>450.0</ele>
        <time>2018-10-03T08:17:14.000Z</time>
      </trkpt>
      <trkpt lat="42.44137" lon="-7.92167833">
        <ele>450.0</ele>
        <time>2018-10-03T08:17:15.000Z</time>
      </trkpt>
      <trkpt lat="42.44137667" lon="-7.9217">
        <ele>450.0</ele>
        <time>2018-10-03T08:17:16.000Z</time>
      </trkpt>
      <trkpt lat="42.44138333" lon="-7.92171667">
        <ele>450.0</ele>
        <time>2018-10-03T08:17:17.000Z</time>
      </trkpt>
      <trkpt lat="42.44139" lon="-7.921735">
        <ele>450.0</ele>
        <time>2018-10-03T08:17:18.000Z</time>
      </trkpt>
      <trkpt lat="42.44139833" lon="-7.92175833">
        <ele>450.0</ele>
        <time>2018-10-03T08:17:19.000Z</time>
      </trkpt>
      <trkpt lat="42.44140667" lon="-7.92178167">
        <ele>449.0</ele>
        <time>2018-10-03T08:17:20.000Z</time>
      </trkpt>
      <trkpt lat="42.441415" lon="-7.921805">
        <ele>449.0</ele>
        <time>2018-10-03T08:17:21.000Z</time>
      </trkpt>
      <trkpt lat="42.441425" lon="-7.92182833">
        <ele>449.0</ele>
        <time>2018-10-03T08:17:22.000Z</time>
      </trkpt>
      <trkpt lat="42.44143333" lon="-7.92185167">
        <ele>448.0</ele>
        <time>2018-10-03T08:17:23.000Z</time>
      </trkpt>
      <trkpt lat="42.44144167" lon="-7.921875">
        <ele>448.0</ele>
        <time>2018-10-03T08:17:24.000Z</time>
      </trkpt>
      <trkpt lat="42.44145167" lon="-7.92189667">
        <ele>448.0</ele>
        <time>2018-10-03T08:17:25.000Z</time>
      </trkpt>
      <trkpt lat="42.44146167" lon="-7.92192">
        <ele>448.0</ele>
        <time>2018-10-03T08:17:26.000Z</time>
      </trkpt>
      <trkpt lat="42.44147167" lon="-7.92194333">
        <ele>447.0</ele>
        <time>2018-10-03T08:17:27.000Z</time>
      </trkpt>
      <trkpt lat="42.44148167" lon="-7.921965">
        <ele>447.0</ele>
        <time>2018-10-03T08:17:28.000Z</time>
      </trkpt>
      <trkpt lat="42.44149167" lon="-7.921985">
        <ele>447.0</ele>
        <time>2018-10-03T08:17:29.000Z</time>
      </trkpt>
      <trkpt lat="42.44150167" lon="-7.922005">
        <ele>446.0</ele>
        <time>2018-10-03T08:17:30.000Z</time>
      </trkpt>
      <trkpt lat="42.44151333" lon="-7.922025">
        <ele>446.0</ele>
        <time>2018-10-03T08:17:31.000Z</time>
      </trkpt>
      <trkpt lat="42.44152667" lon="-7.922045">
        <ele>446.0</ele>
        <time>2018-10-03T08:17:32.000Z</time>
      </trkpt>
      <trkpt lat="42.44153667" lon="-7.92206667">
        <ele>446.0</ele>
        <time>2018-10-03T08:17:33.000Z</time>
      </trkpt>
      <trkpt lat="42.44154667" lon="-7.92208667">
        <ele>446.0</ele>
        <time>2018-10-03T08:17:34.000Z</time>
      </trkpt>
      <trkpt lat="42.441555" lon="-7.92211">
        <ele>445.0</ele>
        <time>2018-10-03T08:17:35.000Z</time>
      </trkpt>
      <trkpt lat="42.44156167" lon="-7.92213333">
        <ele>445.0</ele>
        <time>2018-10-03T08:17:36.000Z</time>
      </trkpt>
      <trkpt lat="42.44156833" lon="-7.92215667">
        <ele>445.0</ele>
        <time>2018-10-03T08:17:37.000Z</time>
      </trkpt>
      <trkpt lat="42.44157833" lon="-7.92218">
        <ele>445.0</ele>
        <time>2018-10-03T08:17:38.000Z</time>
      </trkpt>
      <trkpt lat="42.44158833" lon="-7.92220167">
        <ele>445.0</ele>
        <time>2018-10-03T08:17:39.000Z</time>
      </trkpt>
      <trkpt lat="42.44159667" lon="-7.92222333">
        <ele>445.0</ele>
        <time>2018-10-03T08:17:40.000Z</time>
      </trkpt>
      <trkpt lat="42.441605" lon="-7.92224667">
        <ele>445.0</ele>
        <time>2018-10-03T08:17:41.000Z</time>
      </trkpt>
      <trkpt lat="42.44161333" lon="-7.92227">
        <ele>446.0</ele>
        <time>2018-10-03T08:17:42.000Z</time>
      </trkpt>
      <trkpt lat="42.44162167" lon="-7.92229333">
        <ele>446.0</ele>
        <time>2018-10-03T08:17:43.000Z</time>
      </trkpt>
      <trkpt lat="42.44163" lon="-7.92231667">
        <ele>446.0</ele>
        <time>2018-10-03T08:17:44.000Z</time>
      </trkpt>
      <trkpt lat="42.44164" lon="-7.92233667">
        <ele>446.0</ele>
        <time>2018-10-03T08:17:45.000Z</time>
      </trkpt>
      <trkpt lat="42.44165" lon="-7.92236167">
        <ele>446.0</ele>
        <time>2018-10-03T08:17:46.000Z</time>
      </trkpt>
      <trkpt lat="42.44166" lon="-7.92239167">
        <ele>446.0</ele>
        <time>2018-10-03T08:17:47.000Z</time>
      </trkpt>
      <trkpt lat="42.44167167" lon="-7.92242">
        <ele>446.0</ele>
        <time>2018-10-03T08:17:48.000Z</time>
      </trkpt>
      <trkpt lat="42.44168167" lon="-7.922445">
        <ele>446.0</ele>
        <time>2018-10-03T08:17:49.000Z</time>
      </trkpt>
      <trkpt lat="42.44169333" lon="-7.922465">
        <ele>446.0</ele>
        <time>2018-10-03T08:17:50.000Z</time>
      </trkpt>
      <trkpt lat="42.44170333" lon="-7.92248833">
        <ele>446.0</ele>
        <time>2018-10-03T08:17:51.000Z</time>
      </trkpt>
      <trkpt lat="42.44171167" lon="-7.92251">
        <ele>446.0</ele>
        <time>2018-10-03T08:17:52.000Z</time>
      </trkpt>
      <trkpt lat="42.44172" lon="-7.92253333">
        <ele>446.0</ele>
        <time>2018-10-03T08:17:53.000Z</time>
      </trkpt>
      <trkpt lat="42.44172667" lon="-7.92255667">
        <ele>446.0</ele>
        <time>2018-10-03T08:17:54.000Z</time>
      </trkpt>
      <trkpt lat="42.441735" lon="-7.92257667">
        <ele>446.0</ele>
        <time>2018-10-03T08:17:55.000Z</time>
      </trkpt>
      <trkpt lat="42.44174333" lon="-7.92259833">
        <ele>446.0</ele>
        <time>2018-10-03T08:17:56.000Z</time>
      </trkpt>
      <trkpt lat="42.44174667" lon="-7.92261833">
        <ele>446.0</ele>
        <time>2018-10-03T08:17:57.000Z</time>
      </trkpt>
      <trkpt lat="42.44175" lon="-7.92263667">
        <ele>446.0</ele>
        <time>2018-10-03T08:17:58.000Z</time>
      </trkpt>
      <trkpt lat="42.441755" lon="-7.92265667">
        <ele>446.0</ele>
        <time>2018-10-03T08:17:59.000Z</time>
      </trkpt>
      <trkpt lat="42.44176" lon="-7.92267667">
        <ele>445.0</ele>
        <time>2018-10-03T08:18:00.000Z</time>
      </trkpt>
      <trkpt lat="42.44176667" lon="-7.92269667">
        <ele>445.0</ele>
        <time>2018-10-03T08:18:01.000Z</time>
      </trkpt>
      <trkpt lat="42.44177167" lon="-7.92271833">
        <ele>445.0</ele>
        <time>2018-10-03T08:18:02.000Z</time>
      </trkpt>
      <trkpt lat="42.44177833" lon="-7.92274167">
        <ele>445.0</ele>
        <time>2018-10-03T08:18:03.000Z</time>
      </trkpt>
      <trkpt lat="42.441785" lon="-7.92276333">
        <ele>445.0</ele>
        <time>2018-10-03T08:18:04.000Z</time>
      </trkpt>
      <trkpt lat="42.44179167" lon="-7.92278167">
        <ele>444.0</ele>
        <time>2018-10-03T08:18:05.000Z</time>
      </trkpt>
      <trkpt lat="42.44179667" lon="-7.92280167">
        <ele>444.0</ele>
        <time>2018-10-03T08:18:06.000Z</time>
      </trkpt>
      <trkpt lat="42.44180333" lon="-7.92282167">
        <ele>444.0</ele>
        <time>2018-10-03T08:18:07.000Z</time>
      </trkpt>
      <trkpt lat="42.44180833" lon="-7.92284167">
        <ele>444.0</ele>
        <time>2018-10-03T08:18:08.000Z</time>
      </trkpt>
      <trkpt lat="42.44181167" lon="-7.92286167">
        <ele>444.0</ele>
        <time>2018-10-03T08:18:09.000Z</time>
      </trkpt>
      <trkpt lat="42.44181667" lon="-7.92288167">
        <ele>444.0</ele>
        <time>2018-10-03T08:18:10.000Z</time>
      </trkpt>
      <trkpt lat="42.44182167" lon="-7.92290333">
        <ele>444.0</ele>
        <time>2018-10-03T08:18:11.000Z</time>
      </trkpt>
      <trkpt lat="42.441825" lon="-7.922925">
        <ele>443.0</ele>
        <time>2018-10-03T08:18:12.000Z</time>
      </trkpt>
      <trkpt lat="42.44183" lon="-7.922945">
        <ele>443.0</ele>
        <time>2018-10-03T08:18:13.000Z</time>
      </trkpt>
      <trkpt lat="42.441835" lon="-7.92296333">
        <ele>443.0</ele>
        <time>2018-10-03T08:18:14.000Z</time>
      </trkpt>
      <trkpt lat="42.44184167" lon="-7.92298333">
        <ele>443.0</ele>
        <time>2018-10-03T08:18:15.000Z</time>
      </trkpt>
      <trkpt lat="42.44184833" lon="-7.923">
        <ele>443.0</ele>
        <time>2018-10-03T08:18:16.000Z</time>
      </trkpt>
      <trkpt lat="42.441855" lon="-7.92302">
        <ele>442.0</ele>
        <time>2018-10-03T08:18:17.000Z</time>
      </trkpt>
      <trkpt lat="42.44186" lon="-7.92304">
        <ele>442.0</ele>
        <time>2018-10-03T08:18:18.000Z</time>
      </trkpt>
      <trkpt lat="42.44186667" lon="-7.92306167">
        <ele>442.0</ele>
        <time>2018-10-03T08:18:19.000Z</time>
      </trkpt>
      <trkpt lat="42.44187167" lon="-7.92308333">
        <ele>442.0</ele>
        <time>2018-10-03T08:18:20.000Z</time>
      </trkpt>
      <trkpt lat="42.441875" lon="-7.92310333">
        <ele>442.0</ele>
        <time>2018-10-03T08:18:21.000Z</time>
      </trkpt>
      <trkpt lat="42.44188" lon="-7.92312333">
        <ele>442.0</ele>
        <time>2018-10-03T08:18:22.000Z</time>
      </trkpt>
      <trkpt lat="42.441885" lon="-7.92314">
        <ele>443.0</ele>
        <time>2018-10-03T08:18:23.000Z</time>
      </trkpt>
      <trkpt lat="42.44188667" lon="-7.92315833">
        <ele>443.0</ele>
        <time>2018-10-03T08:18:24.000Z</time>
      </trkpt>
      <trkpt lat="42.44189" lon="-7.92318">
        <ele>443.0</ele>
        <time>2018-10-03T08:18:25.000Z</time>
      </trkpt>
      <trkpt lat="42.441895" lon="-7.92320333">
        <ele>443.0</ele>
        <time>2018-10-03T08:18:26.000Z</time>
      </trkpt>
      <trkpt lat="42.4419" lon="-7.92322667">
        <ele>443.0</ele>
        <time>2018-10-03T08:18:27.000Z</time>
      </trkpt>
      <trkpt lat="42.44190667" lon="-7.92324833">
        <ele>443.0</ele>
        <time>2018-10-03T08:18:28.000Z</time>
      </trkpt>
      <trkpt lat="42.441915" lon="-7.92327">
        <ele>443.0</ele>
        <time>2018-10-03T08:18:29.000Z</time>
      </trkpt>
      <trkpt lat="42.44192333" lon="-7.92329167">
        <ele>443.0</ele>
        <time>2018-10-03T08:18:30.000Z</time>
      </trkpt>
      <trkpt lat="42.44193" lon="-7.92331167">
        <ele>444.0</ele>
        <time>2018-10-03T08:18:31.000Z</time>
      </trkpt>
      <trkpt lat="42.44193667" lon="-7.92333">
        <ele>444.0</ele>
        <time>2018-10-03T08:18:32.000Z</time>
      </trkpt>
      <trkpt lat="42.441945" lon="-7.92334833">
        <ele>444.0</ele>
        <time>2018-10-03T08:18:33.000Z</time>
      </trkpt>
      <trkpt lat="42.44195667" lon="-7.92336833">
        <ele>444.0</ele>
        <time>2018-10-03T08:18:34.000Z</time>
      </trkpt>
      <trkpt lat="42.44196833" lon="-7.92338833">
        <ele>444.0</ele>
        <time>2018-10-03T08:18:35.000Z</time>
      </trkpt>
      <trkpt lat="42.44197667" lon="-7.92340833">
        <ele>444.0</ele>
        <time>2018-10-03T08:18:36.000Z</time>
      </trkpt>
      <trkpt lat="42.44198333" lon="-7.92342667">
        <ele>444.0</ele>
        <time>2018-10-03T08:18:37.000Z</time>
      </trkpt>
      <trkpt lat="42.44199" lon="-7.923445">
        <ele>444.0</ele>
        <time>2018-10-03T08:18:38.000Z</time>
      </trkpt>
      <trkpt lat="42.44199833" lon="-7.92346333">
        <ele>444.0</ele>
        <time>2018-10-03T08:18:39.000Z</time>
      </trkpt>
      <trkpt lat="42.44200833" lon="-7.92348167">
        <ele>444.0</ele>
        <time>2018-10-03T08:18:40.000Z</time>
      </trkpt>
      <trkpt lat="42.44201833" lon="-7.92350333">
        <ele>444.0</ele>
        <time>2018-10-03T08:18:41.000Z</time>
      </trkpt>
      <trkpt lat="42.44203" lon="-7.92352167">
        <ele>444.0</ele>
        <time>2018-10-03T08:18:42.000Z</time>
      </trkpt>
      <trkpt lat="42.442045" lon="-7.92354">
        <ele>444.0</ele>
        <time>2018-10-03T08:18:43.000Z</time>
      </trkpt>
      <trkpt lat="42.44205833" lon="-7.92356">
        <ele>444.0</ele>
        <time>2018-10-03T08:18:44.000Z</time>
      </trkpt>
      <trkpt lat="42.44207167" lon="-7.92357833">
        <ele>444.0</ele>
        <time>2018-10-03T08:18:45.000Z</time>
      </trkpt>
      <trkpt lat="42.44208333" lon="-7.92359667">
        <ele>444.0</ele>
        <time>2018-10-03T08:18:46.000Z</time>
      </trkpt>
      <trkpt lat="42.44209667" lon="-7.92361333">
        <ele>444.0</ele>
        <time>2018-10-03T08:18:47.000Z</time>
      </trkpt>
      <trkpt lat="42.44211167" lon="-7.92363167">
        <ele>444.0</ele>
        <time>2018-10-03T08:18:48.000Z</time>
      </trkpt>
      <trkpt lat="42.442125" lon="-7.92364833">
        <ele>443.0</ele>
        <time>2018-10-03T08:18:49.000Z</time>
      </trkpt>
      <trkpt lat="42.44214167" lon="-7.923665">
        <ele>443.0</ele>
        <time>2018-10-03T08:18:50.000Z</time>
      </trkpt>
      <trkpt lat="42.44215667" lon="-7.92368167">
        <ele>443.0</ele>
        <time>2018-10-03T08:18:51.000Z</time>
      </trkpt>
      <trkpt lat="42.44217167" lon="-7.92369833">
        <ele>443.0</ele>
        <time>2018-10-03T08:18:52.000Z</time>
      </trkpt>
      <trkpt lat="42.442185" lon="-7.92371333">
        <ele>443.0</ele>
        <time>2018-10-03T08:18:53.000Z</time>
      </trkpt>
      <trkpt lat="42.44219667" lon="-7.92373">
        <ele>443.0</ele>
        <time>2018-10-03T08:18:54.000Z</time>
      </trkpt>
      <trkpt lat="42.44220667" lon="-7.92374667">
        <ele>443.0</ele>
        <time>2018-10-03T08:18:55.000Z</time>
      </trkpt>
      <trkpt lat="42.44221833" lon="-7.92376167">
        <ele>443.0</ele>
        <time>2018-10-03T08:18:56.000Z</time>
      </trkpt>
      <trkpt lat="42.44223167" lon="-7.92377833">
        <ele>443.0</ele>
        <time>2018-10-03T08:18:57.000Z</time>
      </trkpt>
      <trkpt lat="42.442245" lon="-7.92379167">
        <ele>443.0</ele>
        <time>2018-10-03T08:18:58.000Z</time>
      </trkpt>
      <trkpt lat="42.442255" lon="-7.92380167">
        <ele>443.0</ele>
        <time>2018-10-03T08:18:59.000Z</time>
      </trkpt>
      <trkpt lat="42.44226167" lon="-7.92380833">
        <ele>443.0</ele>
        <time>2018-10-03T08:19:00.000Z</time>
      </trkpt>
      <trkpt lat="42.44226167" lon="-7.92381">
        <ele>443.0</ele>
        <time>2018-10-03T08:19:01.000Z</time>
      </trkpt>
      <trkpt lat="42.44226333" lon="-7.92381333">
        <ele>444.0</ele>
        <time>2018-10-03T08:19:02.000Z</time>
      </trkpt>
      <trkpt lat="42.44226333" lon="-7.92382333">
        <ele>444.0</ele>
        <time>2018-10-03T08:19:03.000Z</time>
      </trkpt>
      <trkpt lat="42.44226667" lon="-7.923835">
        <ele>444.0</ele>
        <time>2018-10-03T08:19:04.000Z</time>
      </trkpt>
      <trkpt lat="42.442275" lon="-7.92385333">
        <ele>444.0</ele>
        <time>2018-10-03T08:19:05.000Z</time>
      </trkpt>
      <trkpt lat="42.44228833" lon="-7.92387">
        <ele>444.0</ele>
        <time>2018-10-03T08:19:06.000Z</time>
      </trkpt>
      <trkpt lat="42.4423" lon="-7.92388833">
        <ele>444.0</ele>
        <time>2018-10-03T08:19:07.000Z</time>
      </trkpt>
      <trkpt lat="42.44231" lon="-7.923905">
        <ele>444.0</ele>
        <time>2018-10-03T08:19:08.000Z</time>
      </trkpt>
      <trkpt lat="42.44232167" lon="-7.92392">
        <ele>444.0</ele>
        <time>2018-10-03T08:19:09.000Z</time>
      </trkpt>
      <trkpt lat="42.44233333" lon="-7.923935">
        <ele>444.0</ele>
        <time>2018-10-03T08:19:10.000Z</time>
      </trkpt>
      <trkpt lat="42.44234667" lon="-7.92395167">
        <ele>444.0</ele>
        <time>2018-10-03T08:19:11.000Z</time>
      </trkpt>
      <trkpt lat="42.44236" lon="-7.92397167">
        <ele>444.0</ele>
        <time>2018-10-03T08:19:12.000Z</time>
      </trkpt>
      <trkpt lat="42.44237167" lon="-7.92398833">
        <ele>443.0</ele>
        <time>2018-10-03T08:19:13.000Z</time>
      </trkpt>
      <trkpt lat="42.44238333" lon="-7.924005">
        <ele>443.0</ele>
        <time>2018-10-03T08:19:14.000Z</time>
      </trkpt>
      <trkpt lat="42.44239167" lon="-7.92402167">
        <ele>443.0</ele>
        <time>2018-10-03T08:19:15.000Z</time>
      </trkpt>
      <trkpt lat="42.4424" lon="-7.92404">
        <ele>443.0</ele>
        <time>2018-10-03T08:19:16.000Z</time>
      </trkpt>
      <trkpt lat="42.44240667" lon="-7.92405667">
        <ele>443.0</ele>
        <time>2018-10-03T08:19:17.000Z</time>
      </trkpt>
      <trkpt lat="42.44241333" lon="-7.92407333">
        <ele>443.0</ele>
        <time>2018-10-03T08:19:18.000Z</time>
      </trkpt>
      <trkpt lat="42.44242167" lon="-7.92409167">
        <ele>443.0</ele>
        <time>2018-10-03T08:19:19.000Z</time>
      </trkpt>
      <trkpt lat="42.44243167" lon="-7.92411">
        <ele>443.0</ele>
        <time>2018-10-03T08:19:20.000Z</time>
      </trkpt>
      <trkpt lat="42.44243833" lon="-7.92413">
        <ele>443.0</ele>
        <time>2018-10-03T08:19:21.000Z</time>
      </trkpt>
      <trkpt lat="42.44244667" lon="-7.92415">
        <ele>443.0</ele>
        <time>2018-10-03T08:19:22.000Z</time>
      </trkpt>
      <trkpt lat="42.44245667" lon="-7.92417">
        <ele>443.0</ele>
        <time>2018-10-03T08:19:23.000Z</time>
      </trkpt>
      <trkpt lat="42.44246333" lon="-7.92419">
        <ele>443.0</ele>
        <time>2018-10-03T08:19:24.000Z</time>
      </trkpt>
      <trkpt lat="42.44247167" lon="-7.92421">
        <ele>443.0</ele>
        <time>2018-10-03T08:19:25.000Z</time>
      </trkpt>
      <trkpt lat="42.44248" lon="-7.92423167">
        <ele>443.0</ele>
        <time>2018-10-03T08:19:26.000Z</time>
      </trkpt>
      <trkpt lat="42.44248833" lon="-7.92425333">
        <ele>443.0</ele>
        <time>2018-10-03T08:19:27.000Z</time>
      </trkpt>
      <trkpt lat="42.44249833" lon="-7.924275">
        <ele>442.0</ele>
        <time>2018-10-03T08:19:28.000Z</time>
      </trkpt>
      <trkpt lat="42.442505" lon="-7.92429667">
        <ele>442.0</ele>
        <time>2018-10-03T08:19:29.000Z</time>
      </trkpt>
      <trkpt lat="42.44251333" lon="-7.92431833">
        <ele>442.0</ele>
        <time>2018-10-03T08:19:30.000Z</time>
      </trkpt>
      <trkpt lat="42.44252" lon="-7.92434167">
        <ele>442.0</ele>
        <time>2018-10-03T08:19:31.000Z</time>
      </trkpt>
      <trkpt lat="42.442525" lon="-7.92436667">
        <ele>442.0</ele>
        <time>2018-10-03T08:19:32.000Z</time>
      </trkpt>
      <trkpt lat="42.44253167" lon="-7.92438833">
        <ele>442.0</ele>
        <time>2018-10-03T08:19:33.000Z</time>
      </trkpt>
      <trkpt lat="42.44253667" lon="-7.92441">
        <ele>442.0</ele>
        <time>2018-10-03T08:19:34.000Z</time>
      </trkpt>
      <trkpt lat="42.44254333" lon="-7.92443">
        <ele>442.0</ele>
        <time>2018-10-03T08:19:35.000Z</time>
      </trkpt>
      <trkpt lat="42.44255167" lon="-7.92444667">
        <ele>442.0</ele>
        <time>2018-10-03T08:19:36.000Z</time>
      </trkpt>
      <trkpt lat="42.44255667" lon="-7.92446333">
        <ele>442.0</ele>
        <time>2018-10-03T08:19:37.000Z</time>
      </trkpt>
      <trkpt lat="42.44256167" lon="-7.92448167">
        <ele>442.0</ele>
        <time>2018-10-03T08:19:38.000Z</time>
      </trkpt>
      <trkpt lat="42.44256833" lon="-7.92449833">
        <ele>442.0</ele>
        <time>2018-10-03T08:19:39.000Z</time>
      </trkpt>
      <trkpt lat="42.442575" lon="-7.92451667">
        <ele>442.0</ele>
        <time>2018-10-03T08:19:40.000Z</time>
      </trkpt>
      <trkpt lat="42.44258333" lon="-7.924535">
        <ele>442.0</ele>
        <time>2018-10-03T08:19:41.000Z</time>
      </trkpt>
      <trkpt lat="42.44259" lon="-7.92455333">
        <ele>441.0</ele>
        <time>2018-10-03T08:19:42.000Z</time>
      </trkpt>
      <trkpt lat="42.44259667" lon="-7.92457167">
        <ele>441.0</ele>
        <time>2018-10-03T08:19:43.000Z</time>
      </trkpt>
      <trkpt lat="42.44260333" lon="-7.92459">
        <ele>441.0</ele>
        <time>2018-10-03T08:19:44.000Z</time>
      </trkpt>
      <trkpt lat="42.44261167" lon="-7.92461">
        <ele>441.0</ele>
        <time>2018-10-03T08:19:45.000Z</time>
      </trkpt>
      <trkpt lat="42.44262167" lon="-7.92463167">
        <ele>440.0</ele>
        <time>2018-10-03T08:19:46.000Z</time>
      </trkpt>
      <trkpt lat="42.44263167" lon="-7.924655">
        <ele>440.0</ele>
        <time>2018-10-03T08:19:47.000Z</time>
      </trkpt>
      <trkpt lat="42.44264" lon="-7.924675">
        <ele>440.0</ele>
        <time>2018-10-03T08:19:48.000Z</time>
      </trkpt>
      <trkpt lat="42.442645" lon="-7.924695">
        <ele>440.0</ele>
        <time>2018-10-03T08:19:49.000Z</time>
      </trkpt>
      <trkpt lat="42.44265" lon="-7.924715">
        <ele>440.0</ele>
        <time>2018-10-03T08:19:50.000Z</time>
      </trkpt>
      <trkpt lat="42.44265333" lon="-7.92473667">
        <ele>439.0</ele>
        <time>2018-10-03T08:19:51.000Z</time>
      </trkpt>
      <trkpt lat="42.44265667" lon="-7.92475833">
        <ele>439.0</ele>
        <time>2018-10-03T08:19:52.000Z</time>
      </trkpt>
      <trkpt lat="42.44266167" lon="-7.92477667">
        <ele>439.0</ele>
        <time>2018-10-03T08:19:53.000Z</time>
      </trkpt>
      <trkpt lat="42.44266833" lon="-7.92479667">
        <ele>439.0</ele>
        <time>2018-10-03T08:19:54.000Z</time>
      </trkpt>
      <trkpt lat="42.442675" lon="-7.92481667">
        <ele>439.0</ele>
        <time>2018-10-03T08:19:55.000Z</time>
      </trkpt>
      <trkpt lat="42.44268167" lon="-7.92483833">
        <ele>438.0</ele>
        <time>2018-10-03T08:19:56.000Z</time>
      </trkpt>
      <trkpt lat="42.44269" lon="-7.92486">
        <ele>438.0</ele>
        <time>2018-10-03T08:19:57.000Z</time>
      </trkpt>
      <trkpt lat="42.4427" lon="-7.92488167">
        <ele>438.0</ele>
        <time>2018-10-03T08:19:58.000Z</time>
      </trkpt>
      <trkpt lat="42.44270833" lon="-7.92490167">
        <ele>438.0</ele>
        <time>2018-10-03T08:19:59.000Z</time>
      </trkpt>
      <trkpt lat="42.442715" lon="-7.92492167">
        <ele>438.0</ele>
        <time>2018-10-03T08:20:00.000Z</time>
      </trkpt>
      <trkpt lat="42.44272167" lon="-7.92494167">
        <ele>437.0</ele>
        <time>2018-10-03T08:20:01.000Z</time>
      </trkpt>
      <trkpt lat="42.44272833" lon="-7.92495833">
        <ele>437.0</ele>
        <time>2018-10-03T08:20:02.000Z</time>
      </trkpt>
      <trkpt lat="42.44273833" lon="-7.92497333">
        <ele>437.0</ele>
        <time>2018-10-03T08:20:03.000Z</time>
      </trkpt>
      <trkpt lat="42.44274833" lon="-7.92499">
        <ele>436.0</ele>
        <time>2018-10-03T08:20:04.000Z</time>
      </trkpt>
      <trkpt lat="42.44275667" lon="-7.92500333">
        <ele>436.0</ele>
        <time>2018-10-03T08:20:05.000Z</time>
      </trkpt>
      <trkpt lat="42.442765" lon="-7.92501833">
        <ele>436.0</ele>
        <time>2018-10-03T08:20:06.000Z</time>
      </trkpt>
      <trkpt lat="42.44278" lon="-7.92503833">
        <ele>435.0</ele>
        <time>2018-10-03T08:20:07.000Z</time>
      </trkpt>
      <trkpt lat="42.44279167" lon="-7.92505667">
        <ele>435.0</ele>
        <time>2018-10-03T08:20:08.000Z</time>
      </trkpt>
      <trkpt lat="42.44280333" lon="-7.925075">
        <ele>434.0</ele>
        <time>2018-10-03T08:20:09.000Z</time>
      </trkpt>
      <trkpt lat="42.44281833" lon="-7.92509167">
        <ele>434.0</ele>
        <time>2018-10-03T08:20:10.000Z</time>
      </trkpt>
      <trkpt lat="42.44283333" lon="-7.92511">
        <ele>434.0</ele>
        <time>2018-10-03T08:20:11.000Z</time>
      </trkpt>
      <trkpt lat="42.44284833" lon="-7.92512833">
        <ele>434.0</ele>
        <time>2018-10-03T08:20:12.000Z</time>
      </trkpt>
      <trkpt lat="42.44286333" lon="-7.92514167">
        <ele>433.0</ele>
        <time>2018-10-03T08:20:13.000Z</time>
      </trkpt>
      <trkpt lat="42.442875" lon="-7.925155">
        <ele>433.0</ele>
        <time>2018-10-03T08:20:14.000Z</time>
      </trkpt>
      <trkpt lat="42.44288833" lon="-7.92516833">
        <ele>433.0</ele>
        <time>2018-10-03T08:20:15.000Z</time>
      </trkpt>
      <trkpt lat="42.4429" lon="-7.92517833">
        <ele>432.0</ele>
        <time>2018-10-03T08:20:16.000Z</time>
      </trkpt>
      <trkpt lat="42.442915" lon="-7.92519">
        <ele>432.0</ele>
        <time>2018-10-03T08:20:17.000Z</time>
      </trkpt>
      <trkpt lat="42.44293" lon="-7.92520333">
        <ele>432.0</ele>
        <time>2018-10-03T08:20:18.000Z</time>
      </trkpt>
      <trkpt lat="42.442945" lon="-7.925215">
        <ele>432.0</ele>
        <time>2018-10-03T08:20:19.000Z</time>
      </trkpt>
      <trkpt lat="42.44296" lon="-7.92522667">
        <ele>432.0</ele>
        <time>2018-10-03T08:20:20.000Z</time>
      </trkpt>
      <trkpt lat="42.44297333" lon="-7.92523833">
        <ele>432.0</ele>
        <time>2018-10-03T08:20:21.000Z</time>
      </trkpt>
      <trkpt lat="42.44299" lon="-7.92525">
        <ele>431.0</ele>
        <time>2018-10-03T08:20:22.000Z</time>
      </trkpt>
      <trkpt lat="42.443005" lon="-7.92526333">
        <ele>431.0</ele>
        <time>2018-10-03T08:20:23.000Z</time>
      </trkpt>
      <trkpt lat="42.44302333" lon="-7.92528167">
        <ele>432.0</ele>
        <time>2018-10-03T08:20:24.000Z</time>
      </trkpt>
      <trkpt lat="42.44304" lon="-7.92529833">
        <ele>432.0</ele>
        <time>2018-10-03T08:20:25.000Z</time>
      </trkpt>
      <trkpt lat="42.443055" lon="-7.92531333">
        <ele>432.0</ele>
        <time>2018-10-03T08:20:26.000Z</time>
      </trkpt>
      <trkpt lat="42.44306833" lon="-7.92532833">
        <ele>432.0</ele>
        <time>2018-10-03T08:20:27.000Z</time>
      </trkpt>
      <trkpt lat="42.44308333" lon="-7.92534333">
        <ele>432.0</ele>
        <time>2018-10-03T08:20:28.000Z</time>
      </trkpt>
      <trkpt lat="42.443095" lon="-7.92536">
        <ele>432.0</ele>
        <time>2018-10-03T08:20:29.000Z</time>
      </trkpt>
      <trkpt lat="42.44310833" lon="-7.92537833">
        <ele>432.0</ele>
        <time>2018-10-03T08:20:30.000Z</time>
      </trkpt>
      <trkpt lat="42.44312167" lon="-7.925395">
        <ele>432.0</ele>
        <time>2018-10-03T08:20:31.000Z</time>
      </trkpt>
      <trkpt lat="42.443135" lon="-7.92540833">
        <ele>432.0</ele>
        <time>2018-10-03T08:20:32.000Z</time>
      </trkpt>
      <trkpt lat="42.44315" lon="-7.92542167">
        <ele>432.0</ele>
        <time>2018-10-03T08:20:33.000Z</time>
      </trkpt>
      <trkpt lat="42.44316" lon="-7.92543667">
        <ele>432.0</ele>
        <time>2018-10-03T08:20:34.000Z</time>
      </trkpt>
      <trkpt lat="42.44317333" lon="-7.92545">
        <ele>432.0</ele>
        <time>2018-10-03T08:20:35.000Z</time>
      </trkpt>
      <trkpt lat="42.44318833" lon="-7.925465">
        <ele>432.0</ele>
        <time>2018-10-03T08:20:36.000Z</time>
      </trkpt>
      <trkpt lat="42.44320167" lon="-7.92548">
        <ele>431.0</ele>
        <time>2018-10-03T08:20:37.000Z</time>
      </trkpt>
      <trkpt lat="42.443215" lon="-7.92549667">
        <ele>431.0</ele>
        <time>2018-10-03T08:20:38.000Z</time>
      </trkpt>
      <trkpt lat="42.44323" lon="-7.925515">
        <ele>431.0</ele>
        <time>2018-10-03T08:20:39.000Z</time>
      </trkpt>
      <trkpt lat="42.44324333" lon="-7.92553333">
        <ele>431.0</ele>
        <time>2018-10-03T08:20:40.000Z</time>
      </trkpt>
      <trkpt lat="42.44325667" lon="-7.92554833">
        <ele>431.0</ele>
        <time>2018-10-03T08:20:41.000Z</time>
      </trkpt>
      <trkpt lat="42.44326833" lon="-7.925565">
        <ele>431.0</ele>
        <time>2018-10-03T08:20:42.000Z</time>
      </trkpt>
      <trkpt lat="42.44327833" lon="-7.92558167">
        <ele>431.0</ele>
        <time>2018-10-03T08:20:43.000Z</time>
      </trkpt>
      <trkpt lat="42.44328667" lon="-7.92559667">
        <ele>431.0</ele>
        <time>2018-10-03T08:20:44.000Z</time>
      </trkpt>
      <trkpt lat="42.44329333" lon="-7.92561167">
        <ele>431.0</ele>
        <time>2018-10-03T08:20:45.000Z</time>
      </trkpt>
      <trkpt lat="42.44330167" lon="-7.92562833">
        <ele>431.0</ele>
        <time>2018-10-03T08:20:46.000Z</time>
      </trkpt>
      <trkpt lat="42.44331167" lon="-7.92564833">
        <ele>431.0</ele>
        <time>2018-10-03T08:20:47.000Z</time>
      </trkpt>
      <trkpt lat="42.44332333" lon="-7.92566833">
        <ele>431.0</ele>
        <time>2018-10-03T08:20:48.000Z</time>
      </trkpt>
      <trkpt lat="42.443335" lon="-7.92568667">
        <ele>431.0</ele>
        <time>2018-10-03T08:20:49.000Z</time>
      </trkpt>
      <trkpt lat="42.44334667" lon="-7.92570833">
        <ele>431.0</ele>
        <time>2018-10-03T08:20:50.000Z</time>
      </trkpt>
      <trkpt lat="42.443355" lon="-7.92573167">
        <ele>430.0</ele>
        <time>2018-10-03T08:20:51.000Z</time>
      </trkpt>
      <trkpt lat="42.44336333" lon="-7.92575333">
        <ele>430.0</ele>
        <time>2018-10-03T08:20:52.000Z</time>
      </trkpt>
      <trkpt lat="42.44337333" lon="-7.925775">
        <ele>430.0</ele>
        <time>2018-10-03T08:20:53.000Z</time>
      </trkpt>
      <trkpt lat="42.44338333" lon="-7.925795">
        <ele>430.0</ele>
        <time>2018-10-03T08:20:54.000Z</time>
      </trkpt>
      <trkpt lat="42.443395" lon="-7.92581667">
        <ele>430.0</ele>
        <time>2018-10-03T08:20:55.000Z</time>
      </trkpt>
      <trkpt lat="42.44340667" lon="-7.92583667">
        <ele>430.0</ele>
        <time>2018-10-03T08:20:56.000Z</time>
      </trkpt>
      <trkpt lat="42.44341667" lon="-7.925855">
        <ele>430.0</ele>
        <time>2018-10-03T08:20:57.000Z</time>
      </trkpt>
      <trkpt lat="42.44342667" lon="-7.92587333">
        <ele>430.0</ele>
        <time>2018-10-03T08:20:58.000Z</time>
      </trkpt>
      <trkpt lat="42.44343667" lon="-7.92589333">
        <ele>430.0</ele>
        <time>2018-10-03T08:20:59.000Z</time>
      </trkpt>
      <trkpt lat="42.443445" lon="-7.92591167">
        <ele>430.0</ele>
        <time>2018-10-03T08:21:00.000Z</time>
      </trkpt>
      <trkpt lat="42.443455" lon="-7.92593">
        <ele>430.0</ele>
        <time>2018-10-03T08:21:01.000Z</time>
      </trkpt>
      <trkpt lat="42.44346333" lon="-7.92594667">
        <ele>430.0</ele>
        <time>2018-10-03T08:21:02.000Z</time>
      </trkpt>
      <trkpt lat="42.44346833" lon="-7.92596333">
        <ele>430.0</ele>
        <time>2018-10-03T08:21:03.000Z</time>
      </trkpt>
      <trkpt lat="42.44347833" lon="-7.92598167">
        <ele>429.0</ele>
        <time>2018-10-03T08:21:04.000Z</time>
      </trkpt>
      <trkpt lat="42.44348833" lon="-7.92599833">
        <ele>429.0</ele>
        <time>2018-10-03T08:21:05.000Z</time>
      </trkpt>
      <trkpt lat="42.4435" lon="-7.92601667">
        <ele>429.0</ele>
        <time>2018-10-03T08:21:06.000Z</time>
      </trkpt>
      <trkpt lat="42.44351167" lon="-7.92603333">
        <ele>429.0</ele>
        <time>2018-10-03T08:21:07.000Z</time>
      </trkpt>
      <trkpt lat="42.44352167" lon="-7.92605333">
        <ele>428.0</ele>
        <time>2018-10-03T08:21:08.000Z</time>
      </trkpt>
      <trkpt lat="42.44353" lon="-7.92607167">
        <ele>428.0</ele>
        <time>2018-10-03T08:21:09.000Z</time>
      </trkpt>
      <trkpt lat="42.44353833" lon="-7.92609">
        <ele>427.0</ele>
        <time>2018-10-03T08:21:10.000Z</time>
      </trkpt>
      <trkpt lat="42.44354833" lon="-7.92610833">
        <ele>427.0</ele>
        <time>2018-10-03T08:21:11.000Z</time>
      </trkpt>
      <trkpt lat="42.44355667" lon="-7.926125">
        <ele>427.0</ele>
        <time>2018-10-03T08:21:12.000Z</time>
      </trkpt>
      <trkpt lat="42.44357" lon="-7.926145">
        <ele>427.0</ele>
        <time>2018-10-03T08:21:13.000Z</time>
      </trkpt>
      <trkpt lat="42.44358167" lon="-7.92616333">
        <ele>427.0</ele>
        <time>2018-10-03T08:21:14.000Z</time>
      </trkpt>
      <trkpt lat="42.44359167" lon="-7.92618">
        <ele>427.0</ele>
        <time>2018-10-03T08:21:15.000Z</time>
      </trkpt>
      <trkpt lat="42.4436" lon="-7.9262">
        <ele>427.0</ele>
        <time>2018-10-03T08:21:16.000Z</time>
      </trkpt>
      <trkpt lat="42.44360833" lon="-7.92621833">
        <ele>426.0</ele>
        <time>2018-10-03T08:21:17.000Z</time>
      </trkpt>
      <trkpt lat="42.44361833" lon="-7.926235">
        <ele>426.0</ele>
        <time>2018-10-03T08:21:18.000Z</time>
      </trkpt>
      <trkpt lat="42.44363" lon="-7.92625167">
        <ele>426.0</ele>
        <time>2018-10-03T08:21:19.000Z</time>
      </trkpt>
      <trkpt lat="42.44364" lon="-7.92626833">
        <ele>426.0</ele>
        <time>2018-10-03T08:21:20.000Z</time>
      </trkpt>
      <trkpt lat="42.44365" lon="-7.92628667">
        <ele>426.0</ele>
        <time>2018-10-03T08:21:21.000Z</time>
      </trkpt>
      <trkpt lat="42.44366" lon="-7.926305">
        <ele>426.0</ele>
        <time>2018-10-03T08:21:22.000Z</time>
      </trkpt>
      <trkpt lat="42.44367" lon="-7.92632167">
        <ele>425.0</ele>
        <time>2018-10-03T08:21:23.000Z</time>
      </trkpt>
      <trkpt lat="42.44367833" lon="-7.92634">
        <ele>425.0</ele>
        <time>2018-10-03T08:21:24.000Z</time>
      </trkpt>
      <trkpt lat="42.44368833" lon="-7.92636">
        <ele>425.0</ele>
        <time>2018-10-03T08:21:25.000Z</time>
      </trkpt>
      <trkpt lat="42.44369833" lon="-7.92637833">
        <ele>425.0</ele>
        <time>2018-10-03T08:21:26.000Z</time>
      </trkpt>
      <trkpt lat="42.44370667" lon="-7.92639333">
        <ele>425.0</ele>
        <time>2018-10-03T08:21:27.000Z</time>
      </trkpt>
      <trkpt lat="42.44371667" lon="-7.92641">
        <ele>424.0</ele>
        <time>2018-10-03T08:21:28.000Z</time>
      </trkpt>
      <trkpt lat="42.443725" lon="-7.92642667">
        <ele>424.0</ele>
        <time>2018-10-03T08:21:29.000Z</time>
      </trkpt>
      <trkpt lat="42.443735" lon="-7.92644333">
        <ele>424.0</ele>
        <time>2018-10-03T08:21:30.000Z</time>
      </trkpt>
      <trkpt lat="42.443745" lon="-7.92646">
        <ele>424.0</ele>
        <time>2018-10-03T08:21:31.000Z</time>
      </trkpt>
      <trkpt lat="42.44375333" lon="-7.92648">
        <ele>424.0</ele>
        <time>2018-10-03T08:21:32.000Z</time>
      </trkpt>
      <trkpt lat="42.443765" lon="-7.92649833">
        <ele>424.0</ele>
        <time>2018-10-03T08:21:33.000Z</time>
      </trkpt>
      <trkpt lat="42.44377833" lon="-7.92651167">
        <ele>424.0</ele>
        <time>2018-10-03T08:21:34.000Z</time>
      </trkpt>
      <trkpt lat="42.44379167" lon="-7.926525">
        <ele>424.0</ele>
        <time>2018-10-03T08:21:35.000Z</time>
      </trkpt>
      <trkpt lat="42.443805" lon="-7.92653833">
        <ele>424.0</ele>
        <time>2018-10-03T08:21:36.000Z</time>
      </trkpt>
      <trkpt lat="42.44381833" lon="-7.92655333">
        <ele>424.0</ele>
        <time>2018-10-03T08:21:37.000Z</time>
      </trkpt>
      <trkpt lat="42.44383167" lon="-7.92656833">
        <ele>424.0</ele>
        <time>2018-10-03T08:21:38.000Z</time>
      </trkpt>
      <trkpt lat="42.443845" lon="-7.92658167">
        <ele>424.0</ele>
        <time>2018-10-03T08:21:39.000Z</time>
      </trkpt>
      <trkpt lat="42.44385833" lon="-7.92659667">
        <ele>424.0</ele>
        <time>2018-10-03T08:21:40.000Z</time>
      </trkpt>
      <trkpt lat="42.44387" lon="-7.92661">
        <ele>424.0</ele>
        <time>2018-10-03T08:21:41.000Z</time>
      </trkpt>
      <trkpt lat="42.44388167" lon="-7.926625">
        <ele>424.0</ele>
        <time>2018-10-03T08:21:42.000Z</time>
      </trkpt>
      <trkpt lat="42.44389333" lon="-7.92664">
        <ele>424.0</ele>
        <time>2018-10-03T08:21:43.000Z</time>
      </trkpt>
      <trkpt lat="42.443905" lon="-7.92665167">
        <ele>424.0</ele>
        <time>2018-10-03T08:21:44.000Z</time>
      </trkpt>
      <trkpt lat="42.44391833" lon="-7.92666167">
        <ele>424.0</ele>
        <time>2018-10-03T08:21:45.000Z</time>
      </trkpt>
      <trkpt lat="42.44393167" lon="-7.92667167">
        <ele>424.0</ele>
        <time>2018-10-03T08:21:46.000Z</time>
      </trkpt>
      <trkpt lat="42.44394333" lon="-7.92668167">
        <ele>424.0</ele>
        <time>2018-10-03T08:21:47.000Z</time>
      </trkpt>
      <trkpt lat="42.44395667" lon="-7.92669167">
        <ele>424.0</ele>
        <time>2018-10-03T08:21:48.000Z</time>
      </trkpt>
      <trkpt lat="42.44397167" lon="-7.92670167">
        <ele>424.0</ele>
        <time>2018-10-03T08:21:49.000Z</time>
      </trkpt>
      <trkpt lat="42.443985" lon="-7.92671333">
        <ele>424.0</ele>
        <time>2018-10-03T08:21:50.000Z</time>
      </trkpt>
      <trkpt lat="42.444" lon="-7.926725">
        <ele>424.0</ele>
        <time>2018-10-03T08:21:51.000Z</time>
      </trkpt>
      <trkpt lat="42.444015" lon="-7.92673833">
        <ele>423.0</ele>
        <time>2018-10-03T08:21:52.000Z</time>
      </trkpt>
      <trkpt lat="42.44403" lon="-7.92675">
        <ele>423.0</ele>
        <time>2018-10-03T08:21:53.000Z</time>
      </trkpt>
      <trkpt lat="42.44404333" lon="-7.92676">
        <ele>423.0</ele>
        <time>2018-10-03T08:21:54.000Z</time>
      </trkpt>
      <trkpt lat="42.444055" lon="-7.92677">
        <ele>423.0</ele>
        <time>2018-10-03T08:21:55.000Z</time>
      </trkpt>
      <trkpt lat="42.444065" lon="-7.92678167">
        <ele>423.0</ele>
        <time>2018-10-03T08:21:56.000Z</time>
      </trkpt>
      <trkpt lat="42.444075" lon="-7.92679">
        <ele>423.0</ele>
        <time>2018-10-03T08:21:57.000Z</time>
      </trkpt>
      <trkpt lat="42.444085" lon="-7.92680333">
        <ele>423.0</ele>
        <time>2018-10-03T08:21:58.000Z</time>
      </trkpt>
      <trkpt lat="42.444095" lon="-7.92682">
        <ele>423.0</ele>
        <time>2018-10-03T08:21:59.000Z</time>
      </trkpt>
      <trkpt lat="42.44410333" lon="-7.926835">
        <ele>423.0</ele>
        <time>2018-10-03T08:22:00.000Z</time>
      </trkpt>
      <trkpt lat="42.44411167" lon="-7.92685167">
        <ele>423.0</ele>
        <time>2018-10-03T08:22:01.000Z</time>
      </trkpt>
      <trkpt lat="42.44411667" lon="-7.92686833">
        <ele>423.0</ele>
        <time>2018-10-03T08:22:02.000Z</time>
      </trkpt>
      <trkpt lat="42.44412333" lon="-7.92688667">
        <ele>423.0</ele>
        <time>2018-10-03T08:22:03.000Z</time>
      </trkpt>
      <trkpt lat="42.44412833" lon="-7.92690667">
        <ele>423.0</ele>
        <time>2018-10-03T08:22:04.000Z</time>
      </trkpt>
      <trkpt lat="42.44413167" lon="-7.92692833">
        <ele>423.0</ele>
        <time>2018-10-03T08:22:05.000Z</time>
      </trkpt>
      <trkpt lat="42.44413167" lon="-7.92695167">
        <ele>423.0</ele>
        <time>2018-10-03T08:22:06.000Z</time>
      </trkpt>
      <trkpt lat="42.44413167" lon="-7.92697167">
        <ele>423.0</ele>
        <time>2018-10-03T08:22:07.000Z</time>
      </trkpt>
      <trkpt lat="42.44412833" lon="-7.92699167">
        <ele>423.0</ele>
        <time>2018-10-03T08:22:08.000Z</time>
      </trkpt>
      <trkpt lat="42.44412167" lon="-7.92701333">
        <ele>423.0</ele>
        <time>2018-10-03T08:22:09.000Z</time>
      </trkpt>
      <trkpt lat="42.444115" lon="-7.92703333">
        <ele>423.0</ele>
        <time>2018-10-03T08:22:10.000Z</time>
      </trkpt>
      <trkpt lat="42.44410833" lon="-7.927055">
        <ele>423.0</ele>
        <time>2018-10-03T08:22:11.000Z</time>
      </trkpt>
      <trkpt lat="42.44410333" lon="-7.927075">
        <ele>423.0</ele>
        <time>2018-10-03T08:22:12.000Z</time>
      </trkpt>
      <trkpt lat="42.44409833" lon="-7.927095">
        <ele>423.0</ele>
        <time>2018-10-03T08:22:13.000Z</time>
      </trkpt>
      <trkpt lat="42.44409167" lon="-7.92711833">
        <ele>423.0</ele>
        <time>2018-10-03T08:22:14.000Z</time>
      </trkpt>
      <trkpt lat="42.44408833" lon="-7.92714">
        <ele>423.0</ele>
        <time>2018-10-03T08:22:15.000Z</time>
      </trkpt>
      <trkpt lat="42.44408333" lon="-7.927165">
        <ele>423.0</ele>
        <time>2018-10-03T08:22:16.000Z</time>
      </trkpt>
      <trkpt lat="42.44407833" lon="-7.92718833">
        <ele>423.0</ele>
        <time>2018-10-03T08:22:17.000Z</time>
      </trkpt>
      <trkpt lat="42.44407667" lon="-7.92720833">
        <ele>423.0</ele>
        <time>2018-10-03T08:22:18.000Z</time>
      </trkpt>
      <trkpt lat="42.44407667" lon="-7.92722833">
        <ele>423.0</ele>
        <time>2018-10-03T08:22:19.000Z</time>
      </trkpt>
      <trkpt lat="42.444075" lon="-7.92725">
        <ele>423.0</ele>
        <time>2018-10-03T08:22:20.000Z</time>
      </trkpt>
      <trkpt lat="42.44407667" lon="-7.92727667">
        <ele>423.0</ele>
        <time>2018-10-03T08:22:21.000Z</time>
      </trkpt>
      <trkpt lat="42.44408167" lon="-7.92730167">
        <ele>423.0</ele>
        <time>2018-10-03T08:22:22.000Z</time>
      </trkpt>
      <trkpt lat="42.44408667" lon="-7.92732667">
        <ele>423.0</ele>
        <time>2018-10-03T08:22:23.000Z</time>
      </trkpt>
      <trkpt lat="42.44409333" lon="-7.92735">
        <ele>423.0</ele>
        <time>2018-10-03T08:22:24.000Z</time>
      </trkpt>
      <trkpt lat="42.44409833" lon="-7.92737167">
        <ele>422.0</ele>
        <time>2018-10-03T08:22:25.000Z</time>
      </trkpt>
      <trkpt lat="42.44410333" lon="-7.92739">
        <ele>422.0</ele>
        <time>2018-10-03T08:22:26.000Z</time>
      </trkpt>
      <trkpt lat="42.44411333" lon="-7.92740667">
        <ele>422.0</ele>
        <time>2018-10-03T08:22:27.000Z</time>
      </trkpt>
      <trkpt lat="42.44412167" lon="-7.927425">
        <ele>422.0</ele>
        <time>2018-10-03T08:22:28.000Z</time>
      </trkpt>
      <trkpt lat="42.44413" lon="-7.92744333">
        <ele>422.0</ele>
        <time>2018-10-03T08:22:29.000Z</time>
      </trkpt>
      <trkpt lat="42.44413833" lon="-7.92746167">
        <ele>422.0</ele>
        <time>2018-10-03T08:22:30.000Z</time>
      </trkpt>
      <trkpt lat="42.44415" lon="-7.92747667">
        <ele>422.0</ele>
        <time>2018-10-03T08:22:31.000Z</time>
      </trkpt>
      <trkpt lat="42.44416333" lon="-7.92749167">
        <ele>422.0</ele>
        <time>2018-10-03T08:22:32.000Z</time>
      </trkpt>
      <trkpt lat="42.444175" lon="-7.927505">
        <ele>421.0</ele>
        <time>2018-10-03T08:22:33.000Z</time>
      </trkpt>
      <trkpt lat="42.44418833" lon="-7.92751667">
        <ele>421.0</ele>
        <time>2018-10-03T08:22:34.000Z</time>
      </trkpt>
      <trkpt lat="42.4442" lon="-7.92753">
        <ele>421.0</ele>
        <time>2018-10-03T08:22:35.000Z</time>
      </trkpt>
      <trkpt lat="42.44421167" lon="-7.92754333">
        <ele>421.0</ele>
        <time>2018-10-03T08:22:36.000Z</time>
      </trkpt>
      <trkpt lat="42.44422667" lon="-7.92756">
        <ele>420.0</ele>
        <time>2018-10-03T08:22:37.000Z</time>
      </trkpt>
      <trkpt lat="42.44424167" lon="-7.92757667">
        <ele>420.0</ele>
        <time>2018-10-03T08:22:38.000Z</time>
      </trkpt>
      <trkpt lat="42.44425833" lon="-7.927595">
        <ele>420.0</ele>
        <time>2018-10-03T08:22:39.000Z</time>
      </trkpt>
      <trkpt lat="42.44427333" lon="-7.92761167">
        <ele>420.0</ele>
        <time>2018-10-03T08:22:40.000Z</time>
      </trkpt>
      <trkpt lat="42.44428667" lon="-7.92762833">
        <ele>420.0</ele>
        <time>2018-10-03T08:22:41.000Z</time>
      </trkpt>
      <trkpt lat="42.44429833" lon="-7.927645">
        <ele>420.0</ele>
        <time>2018-10-03T08:22:42.000Z</time>
      </trkpt>
      <trkpt lat="42.44431" lon="-7.92766">
        <ele>420.0</ele>
        <time>2018-10-03T08:22:43.000Z</time>
      </trkpt>
      <trkpt lat="42.44432333" lon="-7.92767667">
        <ele>419.0</ele>
        <time>2018-10-03T08:22:44.000Z</time>
      </trkpt>
      <trkpt lat="42.44434167" lon="-7.92769167">
        <ele>419.0</ele>
        <time>2018-10-03T08:22:45.000Z</time>
      </trkpt>
      <trkpt lat="42.44435833" lon="-7.92770667">
        <ele>419.0</ele>
        <time>2018-10-03T08:22:46.000Z</time>
      </trkpt>
      <trkpt lat="42.444375" lon="-7.92772333">
        <ele>419.0</ele>
        <time>2018-10-03T08:22:47.000Z</time>
      </trkpt>
      <trkpt lat="42.44439333" lon="-7.92773833">
        <ele>419.0</ele>
        <time>2018-10-03T08:22:48.000Z</time>
      </trkpt>
      <trkpt lat="42.44440833" lon="-7.92775">
        <ele>419.0</ele>
        <time>2018-10-03T08:22:49.000Z</time>
      </trkpt>
      <trkpt lat="42.444425" lon="-7.92776333">
        <ele>418.0</ele>
        <time>2018-10-03T08:22:50.000Z</time>
      </trkpt>
      <trkpt lat="42.44444" lon="-7.92778">
        <ele>418.0</ele>
        <time>2018-10-03T08:22:51.000Z</time>
      </trkpt>
      <trkpt lat="42.44445333" lon="-7.927795">
        <ele>418.0</ele>
        <time>2018-10-03T08:22:52.000Z</time>
      </trkpt>
      <trkpt lat="42.44446667" lon="-7.92781">
        <ele>418.0</ele>
        <time>2018-10-03T08:22:53.000Z</time>
      </trkpt>
      <trkpt lat="42.44447833" lon="-7.927825">
        <ele>418.0</ele>
        <time>2018-10-03T08:22:54.000Z</time>
      </trkpt>
      <trkpt lat="42.44449167" lon="-7.92784">
        <ele>418.0</ele>
        <time>2018-10-03T08:22:55.000Z</time>
      </trkpt>
      <trkpt lat="42.44450333" lon="-7.92785333">
        <ele>418.0</ele>
        <time>2018-10-03T08:22:56.000Z</time>
      </trkpt>
      <trkpt lat="42.44451667" lon="-7.92787">
        <ele>418.0</ele>
        <time>2018-10-03T08:22:57.000Z</time>
      </trkpt>
      <trkpt lat="42.44452833" lon="-7.92789">
        <ele>418.0</ele>
        <time>2018-10-03T08:22:58.000Z</time>
      </trkpt>
      <trkpt lat="42.44454333" lon="-7.92791">
        <ele>418.0</ele>
        <time>2018-10-03T08:22:59.000Z</time>
      </trkpt>
      <trkpt lat="42.44455667" lon="-7.92793167">
        <ele>418.0</ele>
        <time>2018-10-03T08:23:00.000Z</time>
      </trkpt>
      <trkpt lat="42.44456833" lon="-7.92795333">
        <ele>417.0</ele>
        <time>2018-10-03T08:23:01.000Z</time>
      </trkpt>
      <trkpt lat="42.44457667" lon="-7.92797333">
        <ele>417.0</ele>
        <time>2018-10-03T08:23:02.000Z</time>
      </trkpt>
      <trkpt lat="42.44458667" lon="-7.92799333">
        <ele>417.0</ele>
        <time>2018-10-03T08:23:03.000Z</time>
      </trkpt>
      <trkpt lat="42.444595" lon="-7.92801333">
        <ele>417.0</ele>
        <time>2018-10-03T08:23:04.000Z</time>
      </trkpt>
      <trkpt lat="42.44460333" lon="-7.928035">
        <ele>417.0</ele>
        <time>2018-10-03T08:23:05.000Z</time>
      </trkpt>
      <trkpt lat="42.44461333" lon="-7.92805667">
        <ele>417.0</ele>
        <time>2018-10-03T08:23:06.000Z</time>
      </trkpt>
      <trkpt lat="42.44462" lon="-7.92808167">
        <ele>417.0</ele>
        <time>2018-10-03T08:23:07.000Z</time>
      </trkpt>
      <trkpt lat="42.44462667" lon="-7.92810333">
        <ele>417.0</ele>
        <time>2018-10-03T08:23:08.000Z</time>
      </trkpt>
      <trkpt lat="42.44463667" lon="-7.92812333">
        <ele>416.0</ele>
        <time>2018-10-03T08:23:09.000Z</time>
      </trkpt>
      <trkpt lat="42.44464333" lon="-7.92814167">
        <ele>416.0</ele>
        <time>2018-10-03T08:23:10.000Z</time>
      </trkpt>
      <trkpt lat="42.44464833" lon="-7.92816167">
        <ele>416.0</ele>
        <time>2018-10-03T08:23:11.000Z</time>
      </trkpt>
      <trkpt lat="42.44465333" lon="-7.92818">
        <ele>416.0</ele>
        <time>2018-10-03T08:23:12.000Z</time>
      </trkpt>
      <trkpt lat="42.44466" lon="-7.92819833">
        <ele>416.0</ele>
        <time>2018-10-03T08:23:13.000Z</time>
      </trkpt>
      <trkpt lat="42.44466667" lon="-7.92822">
        <ele>416.0</ele>
        <time>2018-10-03T08:23:14.000Z</time>
      </trkpt>
      <trkpt lat="42.44467333" lon="-7.92824167">
        <ele>416.0</ele>
        <time>2018-10-03T08:23:15.000Z</time>
      </trkpt>
      <trkpt lat="42.44468" lon="-7.92826167">
        <ele>416.0</ele>
        <time>2018-10-03T08:23:16.000Z</time>
      </trkpt>
      <trkpt lat="42.44468667" lon="-7.92828167">
        <ele>416.0</ele>
        <time>2018-10-03T08:23:17.000Z</time>
      </trkpt>
      <trkpt lat="42.44469333" lon="-7.9283">
        <ele>415.0</ele>
        <time>2018-10-03T08:23:18.000Z</time>
      </trkpt>
      <trkpt lat="42.4447" lon="-7.92831833">
        <ele>415.0</ele>
        <time>2018-10-03T08:23:19.000Z</time>
      </trkpt>
      <trkpt lat="42.44470667" lon="-7.92833667">
        <ele>415.0</ele>
        <time>2018-10-03T08:23:20.000Z</time>
      </trkpt>
      <trkpt lat="42.44471333" lon="-7.928355">
        <ele>415.0</ele>
        <time>2018-10-03T08:23:21.000Z</time>
      </trkpt>
      <trkpt lat="42.44472" lon="-7.928375">
        <ele>415.0</ele>
        <time>2018-10-03T08:23:22.000Z</time>
      </trkpt>
      <trkpt lat="42.444725" lon="-7.928395">
        <ele>414.0</ele>
        <time>2018-10-03T08:23:23.000Z</time>
      </trkpt>
      <trkpt lat="42.44473167" lon="-7.92841333">
        <ele>414.0</ele>
        <time>2018-10-03T08:23:24.000Z</time>
      </trkpt>
      <trkpt lat="42.44473833" lon="-7.92843167">
        <ele>414.0</ele>
        <time>2018-10-03T08:23:25.000Z</time>
      </trkpt>
      <trkpt lat="42.44474333" lon="-7.92845333">
        <ele>414.0</ele>
        <time>2018-10-03T08:23:26.000Z</time>
      </trkpt>
      <trkpt lat="42.44474667" lon="-7.92847333">
        <ele>413.0</ele>
        <time>2018-10-03T08:23:27.000Z</time>
      </trkpt>
      <trkpt lat="42.44475167" lon="-7.928495">
        <ele>413.0</ele>
        <time>2018-10-03T08:23:28.000Z</time>
      </trkpt>
      <trkpt lat="42.44475833" lon="-7.928515">
        <ele>413.0</ele>
        <time>2018-10-03T08:23:29.000Z</time>
      </trkpt>
      <trkpt lat="42.44476333" lon="-7.928535">
        <ele>413.0</ele>
        <time>2018-10-03T08:23:30.000Z</time>
      </trkpt>
      <trkpt lat="42.44476833" lon="-7.928555">
        <ele>412.0</ele>
        <time>2018-10-03T08:23:31.000Z</time>
      </trkpt>
      <trkpt lat="42.44477" lon="-7.92857667">
        <ele>412.0</ele>
        <time>2018-10-03T08:23:32.000Z</time>
      </trkpt>
      <trkpt lat="42.44477667" lon="-7.92859667">
        <ele>412.0</ele>
        <time>2018-10-03T08:23:33.000Z</time>
      </trkpt>
      <trkpt lat="42.44478" lon="-7.928615">
        <ele>412.0</ele>
        <time>2018-10-03T08:23:34.000Z</time>
      </trkpt>
      <trkpt lat="42.444785" lon="-7.928635">
        <ele>412.0</ele>
        <time>2018-10-03T08:23:35.000Z</time>
      </trkpt>
      <trkpt lat="42.444795" lon="-7.92865833">
        <ele>411.0</ele>
        <time>2018-10-03T08:23:36.000Z</time>
      </trkpt>
      <trkpt lat="42.444805" lon="-7.92868">
        <ele>411.0</ele>
        <time>2018-10-03T08:23:37.000Z</time>
      </trkpt>
      <trkpt lat="42.44481333" lon="-7.92870333">
        <ele>411.0</ele>
        <time>2018-10-03T08:23:38.000Z</time>
      </trkpt>
      <trkpt lat="42.44482333" lon="-7.928725">
        <ele>411.0</ele>
        <time>2018-10-03T08:23:39.000Z</time>
      </trkpt>
      <trkpt lat="42.44483333" lon="-7.928745">
        <ele>411.0</ele>
        <time>2018-10-03T08:23:40.000Z</time>
      </trkpt>
      <trkpt lat="42.44484333" lon="-7.92876333">
        <ele>411.0</ele>
        <time>2018-10-03T08:23:41.000Z</time>
      </trkpt>
      <trkpt lat="42.44485333" lon="-7.928785">
        <ele>411.0</ele>
        <time>2018-10-03T08:23:42.000Z</time>
      </trkpt>
      <trkpt lat="42.44486667" lon="-7.928805">
        <ele>411.0</ele>
        <time>2018-10-03T08:23:43.000Z</time>
      </trkpt>
      <trkpt lat="42.44488" lon="-7.92882333">
        <ele>411.0</ele>
        <time>2018-10-03T08:23:44.000Z</time>
      </trkpt>
      <trkpt lat="42.44489167" lon="-7.92884">
        <ele>410.0</ele>
        <time>2018-10-03T08:23:45.000Z</time>
      </trkpt>
      <trkpt lat="42.44490333" lon="-7.92886">
        <ele>410.0</ele>
        <time>2018-10-03T08:23:46.000Z</time>
      </trkpt>
      <trkpt lat="42.444915" lon="-7.928875">
        <ele>410.0</ele>
        <time>2018-10-03T08:23:47.000Z</time>
      </trkpt>
      <trkpt lat="42.44492667" lon="-7.92889167">
        <ele>410.0</ele>
        <time>2018-10-03T08:23:48.000Z</time>
      </trkpt>
      <trkpt lat="42.44493833" lon="-7.92891">
        <ele>410.0</ele>
        <time>2018-10-03T08:23:49.000Z</time>
      </trkpt>
      <trkpt lat="42.44495" lon="-7.92892333">
        <ele>410.0</ele>
        <time>2018-10-03T08:23:50.000Z</time>
      </trkpt>
      <trkpt lat="42.444965" lon="-7.92893833">
        <ele>409.0</ele>
        <time>2018-10-03T08:23:51.000Z</time>
      </trkpt>
      <trkpt lat="42.44497667" lon="-7.928955">
        <ele>409.0</ele>
        <time>2018-10-03T08:23:52.000Z</time>
      </trkpt>
      <trkpt lat="42.44499" lon="-7.92896833">
        <ele>409.0</ele>
        <time>2018-10-03T08:23:53.000Z</time>
      </trkpt>
      <trkpt lat="42.44500333" lon="-7.92898333">
        <ele>409.0</ele>
        <time>2018-10-03T08:23:54.000Z</time>
      </trkpt>
      <trkpt lat="42.445015" lon="-7.929">
        <ele>409.0</ele>
        <time>2018-10-03T08:23:55.000Z</time>
      </trkpt>
      <trkpt lat="42.445025" lon="-7.92901667">
        <ele>409.0</ele>
        <time>2018-10-03T08:23:56.000Z</time>
      </trkpt>
      <trkpt lat="42.445035" lon="-7.92903167">
        <ele>408.0</ele>
        <time>2018-10-03T08:23:57.000Z</time>
      </trkpt>
      <trkpt lat="42.445045" lon="-7.92905">
        <ele>408.0</ele>
        <time>2018-10-03T08:23:58.000Z</time>
      </trkpt>
      <trkpt lat="42.445055" lon="-7.92907">
        <ele>408.0</ele>
        <time>2018-10-03T08:23:59.000Z</time>
      </trkpt>
      <trkpt lat="42.44506667" lon="-7.92908833">
        <ele>408.0</ele>
        <time>2018-10-03T08:24:00.000Z</time>
      </trkpt>
      <trkpt lat="42.44507667" lon="-7.92910833">
        <ele>408.0</ele>
        <time>2018-10-03T08:24:01.000Z</time>
      </trkpt>
      <trkpt lat="42.44508833" lon="-7.92912667">
        <ele>408.0</ele>
        <time>2018-10-03T08:24:02.000Z</time>
      </trkpt>
      <trkpt lat="42.44509833" lon="-7.929145">
        <ele>408.0</ele>
        <time>2018-10-03T08:24:03.000Z</time>
      </trkpt>
      <trkpt lat="42.44510333" lon="-7.92916333">
        <ele>408.0</ele>
        <time>2018-10-03T08:24:04.000Z</time>
      </trkpt>
      <trkpt lat="42.44510833" lon="-7.92918">
        <ele>408.0</ele>
        <time>2018-10-03T08:24:05.000Z</time>
      </trkpt>
      <trkpt lat="42.445115" lon="-7.92919667">
        <ele>408.0</ele>
        <time>2018-10-03T08:24:06.000Z</time>
      </trkpt>
      <trkpt lat="42.44512167" lon="-7.92921667">
        <ele>408.0</ele>
        <time>2018-10-03T08:24:07.000Z</time>
      </trkpt>
      <trkpt lat="42.44512667" lon="-7.92923333">
        <ele>408.0</ele>
        <time>2018-10-03T08:24:08.000Z</time>
      </trkpt>
      <trkpt lat="42.445135" lon="-7.92924833">
        <ele>408.0</ele>
        <time>2018-10-03T08:24:09.000Z</time>
      </trkpt>
      <trkpt lat="42.445145" lon="-7.92926833">
        <ele>408.0</ele>
        <time>2018-10-03T08:24:10.000Z</time>
      </trkpt>
      <trkpt lat="42.44515667" lon="-7.92928667">
        <ele>408.0</ele>
        <time>2018-10-03T08:24:11.000Z</time>
      </trkpt>
      <trkpt lat="42.44516833" lon="-7.92930333">
        <ele>408.0</ele>
        <time>2018-10-03T08:24:12.000Z</time>
      </trkpt>
      <trkpt lat="42.44517833" lon="-7.92931833">
        <ele>408.0</ele>
        <time>2018-10-03T08:24:13.000Z</time>
      </trkpt>
      <trkpt lat="42.44518833" lon="-7.92933333">
        <ele>407.0</ele>
        <time>2018-10-03T08:24:14.000Z</time>
      </trkpt>
      <trkpt lat="42.44519667" lon="-7.92935">
        <ele>407.0</ele>
        <time>2018-10-03T08:24:15.000Z</time>
      </trkpt>
      <trkpt lat="42.445205" lon="-7.92936167">
        <ele>407.0</ele>
        <time>2018-10-03T08:24:16.000Z</time>
      </trkpt>
      <trkpt lat="42.44521333" lon="-7.92937333">
        <ele>407.0</ele>
        <time>2018-10-03T08:24:17.000Z</time>
      </trkpt>
      <trkpt lat="42.44522167" lon="-7.929385">
        <ele>407.0</ele>
        <time>2018-10-03T08:24:18.000Z</time>
      </trkpt>
      <trkpt lat="42.44522833" lon="-7.92939667">
        <ele>407.0</ele>
        <time>2018-10-03T08:24:19.000Z</time>
      </trkpt>
      <trkpt lat="42.445425" lon="-7.93032167">
        <ele>402.0</ele>
        <time>2018-10-03T08:24:20.000Z</time>
      </trkpt>
      <trkpt lat="42.44542833" lon="-7.93034167">
        <ele>401.0</ele>
        <time>2018-10-03T08:24:21.000Z</time>
      </trkpt>
      <trkpt lat="42.44543667" lon="-7.93036167">
        <ele>401.0</ele>
        <time>2018-10-03T08:24:22.000Z</time>
      </trkpt>
      <trkpt lat="42.44544333" lon="-7.93037833">
        <ele>401.0</ele>
        <time>2018-10-03T08:24:23.000Z</time>
      </trkpt>
      <trkpt lat="42.44545167" lon="-7.930395">
        <ele>400.0</ele>
        <time>2018-10-03T08:24:24.000Z</time>
      </trkpt>
      <trkpt lat="42.44546" lon="-7.93041">
        <ele>400.0</ele>
        <time>2018-10-03T08:24:25.000Z</time>
      </trkpt>
      <trkpt lat="42.44547167" lon="-7.930425">
        <ele>399.0</ele>
        <time>2018-10-03T08:24:26.000Z</time>
      </trkpt>
      <trkpt lat="42.44548" lon="-7.93043833">
        <ele>399.0</ele>
        <time>2018-10-03T08:24:27.000Z</time>
      </trkpt>
      <trkpt lat="42.445495" lon="-7.930455">
        <ele>398.0</ele>
        <time>2018-10-03T08:24:28.000Z</time>
      </trkpt>
      <trkpt lat="42.44550833" lon="-7.93047">
        <ele>398.0</ele>
        <time>2018-10-03T08:24:29.000Z</time>
      </trkpt>
      <trkpt lat="42.44552333" lon="-7.93048333">
        <ele>398.0</ele>
        <time>2018-10-03T08:24:30.000Z</time>
      </trkpt>
      <trkpt lat="42.44553667" lon="-7.930495">
        <ele>397.0</ele>
        <time>2018-10-03T08:24:31.000Z</time>
      </trkpt>
      <trkpt lat="42.44554833" lon="-7.93051167">
        <ele>397.0</ele>
        <time>2018-10-03T08:24:32.000Z</time>
      </trkpt>
      <trkpt lat="42.44556167" lon="-7.93052667">
        <ele>397.0</ele>
        <time>2018-10-03T08:24:33.000Z</time>
      </trkpt>
      <trkpt lat="42.44557333" lon="-7.93054333">
        <ele>397.0</ele>
        <time>2018-10-03T08:24:34.000Z</time>
      </trkpt>
      <trkpt lat="42.445585" lon="-7.93056167">
        <ele>397.0</ele>
        <time>2018-10-03T08:24:35.000Z</time>
      </trkpt>
      <trkpt lat="42.44559833" lon="-7.930575">
        <ele>396.0</ele>
        <time>2018-10-03T08:24:36.000Z</time>
      </trkpt>
      <trkpt lat="42.44561" lon="-7.93058833">
        <ele>396.0</ele>
        <time>2018-10-03T08:24:37.000Z</time>
      </trkpt>
      <trkpt lat="42.44562333" lon="-7.93060667">
        <ele>396.0</ele>
        <time>2018-10-03T08:24:38.000Z</time>
      </trkpt>
      <trkpt lat="42.44563667" lon="-7.93062333">
        <ele>396.0</ele>
        <time>2018-10-03T08:24:39.000Z</time>
      </trkpt>
      <trkpt lat="42.44565" lon="-7.93064167">
        <ele>396.0</ele>
        <time>2018-10-03T08:24:40.000Z</time>
      </trkpt>
      <trkpt lat="42.44566333" lon="-7.93065667">
        <ele>396.0</ele>
        <time>2018-10-03T08:24:41.000Z</time>
      </trkpt>
      <trkpt lat="42.445675" lon="-7.93067">
        <ele>396.0</ele>
        <time>2018-10-03T08:24:42.000Z</time>
      </trkpt>
      <trkpt lat="42.445685" lon="-7.930685">
        <ele>396.0</ele>
        <time>2018-10-03T08:24:43.000Z</time>
      </trkpt>
      <trkpt lat="42.44569667" lon="-7.93069833">
        <ele>396.0</ele>
        <time>2018-10-03T08:24:44.000Z</time>
      </trkpt>
      <trkpt lat="42.44570833" lon="-7.93071167">
        <ele>396.0</ele>
        <time>2018-10-03T08:24:45.000Z</time>
      </trkpt>
      <trkpt lat="42.44571833" lon="-7.93072667">
        <ele>396.0</ele>
        <time>2018-10-03T08:24:46.000Z</time>
      </trkpt>
      <trkpt lat="42.44573167" lon="-7.93074">
        <ele>396.0</ele>
        <time>2018-10-03T08:24:47.000Z</time>
      </trkpt>
      <trkpt lat="42.44574667" lon="-7.93075333">
        <ele>395.0</ele>
        <time>2018-10-03T08:24:48.000Z</time>
      </trkpt>
      <trkpt lat="42.44576" lon="-7.93076833">
        <ele>395.0</ele>
        <time>2018-10-03T08:24:49.000Z</time>
      </trkpt>
      <trkpt lat="42.445775" lon="-7.930785">
        <ele>395.0</ele>
        <time>2018-10-03T08:24:50.000Z</time>
      </trkpt>
      <trkpt lat="42.44578833" lon="-7.93079833">
        <ele>395.0</ele>
        <time>2018-10-03T08:24:51.000Z</time>
      </trkpt>
      <trkpt lat="42.44579833" lon="-7.93081167">
        <ele>395.0</ele>
        <time>2018-10-03T08:24:52.000Z</time>
      </trkpt>
      <trkpt lat="42.44581" lon="-7.93082667">
        <ele>395.0</ele>
        <time>2018-10-03T08:24:53.000Z</time>
      </trkpt>
      <trkpt lat="42.44582167" lon="-7.93084167">
        <ele>395.0</ele>
        <time>2018-10-03T08:24:54.000Z</time>
      </trkpt>
      <trkpt lat="42.445835" lon="-7.93085667">
        <ele>395.0</ele>
        <time>2018-10-03T08:24:55.000Z</time>
      </trkpt>
      <trkpt lat="42.44585" lon="-7.93087">
        <ele>395.0</ele>
        <time>2018-10-03T08:24:56.000Z</time>
      </trkpt>
      <trkpt lat="42.445865" lon="-7.93088167">
        <ele>395.0</ele>
        <time>2018-10-03T08:24:57.000Z</time>
      </trkpt>
      <trkpt lat="42.44588167" lon="-7.930895">
        <ele>394.0</ele>
        <time>2018-10-03T08:24:58.000Z</time>
      </trkpt>
      <trkpt lat="42.4459" lon="-7.93090667">
        <ele>394.0</ele>
        <time>2018-10-03T08:24:59.000Z</time>
      </trkpt>
      <trkpt lat="42.445915" lon="-7.93091667">
        <ele>394.0</ele>
        <time>2018-10-03T08:25:00.000Z</time>
      </trkpt>
      <trkpt lat="42.44592667" lon="-7.93092833">
        <ele>394.0</ele>
        <time>2018-10-03T08:25:01.000Z</time>
      </trkpt>
      <trkpt lat="42.44594" lon="-7.93094167">
        <ele>394.0</ele>
        <time>2018-10-03T08:25:02.000Z</time>
      </trkpt>
      <trkpt lat="42.44595333" lon="-7.930955">
        <ele>394.0</ele>
        <time>2018-10-03T08:25:03.000Z</time>
      </trkpt>
      <trkpt lat="42.44596667" lon="-7.93097">
        <ele>394.0</ele>
        <time>2018-10-03T08:25:04.000Z</time>
      </trkpt>
      <trkpt lat="42.44598167" lon="-7.930985">
        <ele>394.0</ele>
        <time>2018-10-03T08:25:05.000Z</time>
      </trkpt>
      <trkpt lat="42.44599833" lon="-7.93099667">
        <ele>394.0</ele>
        <time>2018-10-03T08:25:06.000Z</time>
      </trkpt>
      <trkpt lat="42.44601333" lon="-7.93100833">
        <ele>394.0</ele>
        <time>2018-10-03T08:25:07.000Z</time>
      </trkpt>
      <trkpt lat="42.44602833" lon="-7.93101833">
        <ele>394.0</ele>
        <time>2018-10-03T08:25:08.000Z</time>
      </trkpt>
      <trkpt lat="42.446045" lon="-7.93103167">
        <ele>394.0</ele>
        <time>2018-10-03T08:25:09.000Z</time>
      </trkpt>
      <trkpt lat="42.44605833" lon="-7.93104333">
        <ele>394.0</ele>
        <time>2018-10-03T08:25:10.000Z</time>
      </trkpt>
      <trkpt lat="42.44607" lon="-7.93105333">
        <ele>394.0</ele>
        <time>2018-10-03T08:25:11.000Z</time>
      </trkpt>
      <trkpt lat="42.446085" lon="-7.93106667">
        <ele>394.0</ele>
        <time>2018-10-03T08:25:12.000Z</time>
      </trkpt>
      <trkpt lat="42.44609833" lon="-7.93107833">
        <ele>394.0</ele>
        <time>2018-10-03T08:25:13.000Z</time>
      </trkpt>
      <trkpt lat="42.44611333" lon="-7.93108833">
        <ele>394.0</ele>
        <time>2018-10-03T08:25:14.000Z</time>
      </trkpt>
      <trkpt lat="42.44612833" lon="-7.93109833">
        <ele>394.0</ele>
        <time>2018-10-03T08:25:15.000Z</time>
      </trkpt>
      <trkpt lat="42.44614333" lon="-7.93110833">
        <ele>394.0</ele>
        <time>2018-10-03T08:25:16.000Z</time>
      </trkpt>
      <trkpt lat="42.44615833" lon="-7.93111833">
        <ele>394.0</ele>
        <time>2018-10-03T08:25:17.000Z</time>
      </trkpt>
      <trkpt lat="42.44617333" lon="-7.93113167">
        <ele>393.0</ele>
        <time>2018-10-03T08:25:18.000Z</time>
      </trkpt>
      <trkpt lat="42.44618333" lon="-7.93114667">
        <ele>393.0</ele>
        <time>2018-10-03T08:25:19.000Z</time>
      </trkpt>
      <trkpt lat="42.44619333" lon="-7.93116">
        <ele>393.0</ele>
        <time>2018-10-03T08:25:20.000Z</time>
      </trkpt>
      <trkpt lat="42.44620667" lon="-7.93117167">
        <ele>393.0</ele>
        <time>2018-10-03T08:25:21.000Z</time>
      </trkpt>
      <trkpt lat="42.44621667" lon="-7.93118167">
        <ele>393.0</ele>
        <time>2018-10-03T08:25:22.000Z</time>
      </trkpt>
      <trkpt lat="42.44623" lon="-7.93119167">
        <ele>393.0</ele>
        <time>2018-10-03T08:25:23.000Z</time>
      </trkpt>
      <trkpt lat="42.44624333" lon="-7.93120333">
        <ele>393.0</ele>
        <time>2018-10-03T08:25:24.000Z</time>
      </trkpt>
      <trkpt lat="42.44626167" lon="-7.93121667">
        <ele>392.0</ele>
        <time>2018-10-03T08:25:25.000Z</time>
      </trkpt>
      <trkpt lat="42.44627833" lon="-7.93123167">
        <ele>392.0</ele>
        <time>2018-10-03T08:25:26.000Z</time>
      </trkpt>
      <trkpt lat="42.44629333" lon="-7.93124667">
        <ele>392.0</ele>
        <time>2018-10-03T08:25:27.000Z</time>
      </trkpt>
      <trkpt lat="42.44630667" lon="-7.93126">
        <ele>392.0</ele>
        <time>2018-10-03T08:25:28.000Z</time>
      </trkpt>
      <trkpt lat="42.44631833" lon="-7.93127333">
        <ele>392.0</ele>
        <time>2018-10-03T08:25:29.000Z</time>
      </trkpt>
      <trkpt lat="42.44633" lon="-7.931285">
        <ele>392.0</ele>
        <time>2018-10-03T08:25:30.000Z</time>
      </trkpt>
      <trkpt lat="42.44634167" lon="-7.93129667">
        <ele>392.0</ele>
        <time>2018-10-03T08:25:31.000Z</time>
      </trkpt>
      <trkpt lat="42.44635333" lon="-7.93131">
        <ele>391.0</ele>
        <time>2018-10-03T08:25:32.000Z</time>
      </trkpt>
      <trkpt lat="42.44636667" lon="-7.931325">
        <ele>391.0</ele>
        <time>2018-10-03T08:25:33.000Z</time>
      </trkpt>
      <trkpt lat="42.44638167" lon="-7.93133833">
        <ele>391.0</ele>
        <time>2018-10-03T08:25:34.000Z</time>
      </trkpt>
      <trkpt lat="42.44639333" lon="-7.93135167">
        <ele>391.0</ele>
        <time>2018-10-03T08:25:35.000Z</time>
      </trkpt>
      <trkpt lat="42.44640667" lon="-7.93136667">
        <ele>391.0</ele>
        <time>2018-10-03T08:25:36.000Z</time>
      </trkpt>
      <trkpt lat="42.44641667" lon="-7.93138">
        <ele>391.0</ele>
        <time>2018-10-03T08:25:37.000Z</time>
      </trkpt>
      <trkpt lat="42.44643" lon="-7.93139833">
        <ele>391.0</ele>
        <time>2018-10-03T08:25:38.000Z</time>
      </trkpt>
      <trkpt lat="42.44644167" lon="-7.93141">
        <ele>391.0</ele>
        <time>2018-10-03T08:25:39.000Z</time>
      </trkpt>
      <trkpt lat="42.44644833" lon="-7.93141333">
        <ele>390.0</ele>
        <time>2018-10-03T08:25:40.000Z</time>
      </trkpt>
      <trkpt lat="42.44645" lon="-7.93141333">
        <ele>390.0</ele>
        <time>2018-10-03T08:25:41.000Z</time>
      </trkpt>
      <trkpt lat="42.44645333" lon="-7.93141">
        <ele>390.0</ele>
        <time>2018-10-03T08:25:42.000Z</time>
      </trkpt>
      <trkpt lat="42.44645833" lon="-7.93140167">
        <ele>390.0</ele>
        <time>2018-10-03T08:25:43.000Z</time>
      </trkpt>
      <trkpt lat="42.44646" lon="-7.9314">
        <ele>390.0</ele>
        <time>2018-10-03T08:25:44.000Z</time>
      </trkpt>
      <trkpt lat="42.44646167" lon="-7.93139833">
        <ele>390.0</ele>
        <time>2018-10-03T08:25:45.000Z</time>
      </trkpt>
      <trkpt lat="42.44646167" lon="-7.93139833">
        <ele>390.0</ele>
        <time>2018-10-03T08:25:46.000Z</time>
      </trkpt>
      <trkpt lat="42.44646167" lon="-7.93139833">
        <ele>390.0</ele>
        <time>2018-10-03T08:25:47.000Z</time>
      </trkpt>
      <trkpt lat="42.44646167" lon="-7.93139833">
        <ele>390.0</ele>
        <time>2018-10-03T08:25:48.000Z</time>
      </trkpt>
      <trkpt lat="42.44646167" lon="-7.93139833">
        <ele>389.0</ele>
        <time>2018-10-03T08:25:49.000Z</time>
      </trkpt>
      <trkpt lat="42.44646167" lon="-7.93139833">
        <ele>389.0</ele>
        <time>2018-10-03T08:25:50.000Z</time>
      </trkpt>
      <trkpt lat="42.44646167" lon="-7.93139833">
        <ele>389.0</ele>
        <time>2018-10-03T08:25:51.000Z</time>
      </trkpt>
      <trkpt lat="42.44646167" lon="-7.93139833">
        <ele>389.0</ele>
        <time>2018-10-03T08:25:52.000Z</time>
      </trkpt>
      <trkpt lat="42.44646167" lon="-7.93139667">
        <ele>389.0</ele>
        <time>2018-10-03T08:25:53.000Z</time>
      </trkpt>
      <trkpt lat="42.44646167" lon="-7.93139667">
        <ele>389.0</ele>
        <time>2018-10-03T08:25:54.000Z</time>
      </trkpt>
      <trkpt lat="42.44646167" lon="-7.93139667">
        <ele>389.0</ele>
        <time>2018-10-03T08:25:55.000Z</time>
      </trkpt>
      <trkpt lat="42.44646167" lon="-7.93139667">
        <ele>389.0</ele>
        <time>2018-10-03T08:25:56.000Z</time>
      </trkpt>
      <trkpt lat="42.44646167" lon="-7.93139667">
        <ele>389.0</ele>
        <time>2018-10-03T08:25:57.000Z</time>
      </trkpt>
      <trkpt lat="42.44646167" lon="-7.93139667">
        <ele>389.0</ele>
        <time>2018-10-03T08:25:58.000Z</time>
      </trkpt>
      <trkpt lat="42.44646167" lon="-7.93139667">
        <ele>389.0</ele>
        <time>2018-10-03T08:25:59.000Z</time>
      </trkpt>
      <trkpt lat="42.44646167" lon="-7.93139667">
        <ele>389.0</ele>
        <time>2018-10-03T08:26:00.000Z</time>
      </trkpt>
      <trkpt lat="42.44646167" lon="-7.93139667">
        <ele>389.0</ele>
        <time>2018-10-03T08:26:01.000Z</time>
      </trkpt>
      <trkpt lat="42.44646167" lon="-7.93139667">
        <ele>389.0</ele>
        <time>2018-10-03T08:26:02.000Z</time>
      </trkpt>
      <trkpt lat="42.44646167" lon="-7.93139667">
        <ele>389.0</ele>
        <time>2018-10-03T08:26:03.000Z</time>
      </trkpt>
      <trkpt lat="42.44646167" lon="-7.93139833">
        <ele>389.0</ele>
        <time>2018-10-03T08:26:04.000Z</time>
      </trkpt>
      <trkpt lat="42.44646167" lon="-7.93139833">
        <ele>389.0</ele>
        <time>2018-10-03T08:26:05.000Z</time>
      </trkpt>
      <trkpt lat="42.44646167" lon="-7.93139833">
        <ele>389.0</ele>
        <time>2018-10-03T08:26:06.000Z</time>
      </trkpt>
      <trkpt lat="42.44646167" lon="-7.93139833">
        <ele>389.0</ele>
        <time>2018-10-03T08:26:07.000Z</time>
      </trkpt>
      <trkpt lat="42.44646167" lon="-7.93139833">
        <ele>389.0</ele>
        <time>2018-10-03T08:26:08.000Z</time>
      </trkpt>
      <trkpt lat="42.44646167" lon="-7.93139833">
        <ele>389.0</ele>
        <time>2018-10-03T08:26:09.000Z</time>
      </trkpt>
      <trkpt lat="42.44646167" lon="-7.93139833">
        <ele>389.0</ele>
        <time>2018-10-03T08:26:10.000Z</time>
      </trkpt>
      <trkpt lat="42.44646167" lon="-7.93139667">
        <ele>389.0</ele>
        <time>2018-10-03T08:26:11.000Z</time>
      </trkpt>
      <trkpt lat="42.44646167" lon="-7.93139667">
        <ele>389.0</ele>
        <time>2018-10-03T08:26:12.000Z</time>
      </trkpt>
      <trkpt lat="42.44646167" lon="-7.93139667">
        <ele>389.0</ele>
        <time>2018-10-03T08:26:13.000Z</time>
      </trkpt>
      <trkpt lat="42.44646167" lon="-7.93139667">
        <ele>389.0</ele>
        <time>2018-10-03T08:26:14.000Z</time>
      </trkpt>
      <trkpt lat="42.44646167" lon="-7.931395">
        <ele>389.0</ele>
        <time>2018-10-03T08:26:15.000Z</time>
      </trkpt>
      <trkpt lat="42.44646167" lon="-7.931395">
        <ele>389.0</ele>
        <time>2018-10-03T08:26:16.000Z</time>
      </trkpt>
      <trkpt lat="42.44646167" lon="-7.931395">
        <ele>389.0</ele>
        <time>2018-10-03T08:26:17.000Z</time>
      </trkpt>
      <trkpt lat="42.44646167" lon="-7.931395">
        <ele>389.0</ele>
        <time>2018-10-03T08:26:18.000Z</time>
      </trkpt>
      <trkpt lat="42.44646167" lon="-7.931395">
        <ele>389.0</ele>
        <time>2018-10-03T08:26:19.000Z</time>
      </trkpt>
      <trkpt lat="42.44646" lon="-7.93139833">
        <ele>388.0</ele>
        <time>2018-10-03T08:26:20.000Z</time>
      </trkpt>
      <trkpt lat="42.44645833" lon="-7.93139833">
        <ele>388.0</ele>
        <time>2018-10-03T08:26:21.000Z</time>
      </trkpt>
      <trkpt lat="42.44645833" lon="-7.93139833">
        <ele>388.0</ele>
        <time>2018-10-03T08:26:22.000Z</time>
      </trkpt>
      <trkpt lat="42.44645833" lon="-7.93139833">
        <ele>388.0</ele>
        <time>2018-10-03T08:26:23.000Z</time>
      </trkpt>
      <trkpt lat="42.44645833" lon="-7.9314">
        <ele>388.0</ele>
        <time>2018-10-03T08:26:24.000Z</time>
      </trkpt>
      <trkpt lat="42.44645833" lon="-7.9314">
        <ele>388.0</ele>
        <time>2018-10-03T08:26:25.000Z</time>
      </trkpt>
      <trkpt lat="42.44645833" lon="-7.9314">
        <ele>388.0</ele>
        <time>2018-10-03T08:26:26.000Z</time>
      </trkpt>
      <trkpt lat="42.44645833" lon="-7.93140167">
        <ele>388.0</ele>
        <time>2018-10-03T08:26:27.000Z</time>
      </trkpt>
      <trkpt lat="42.44646" lon="-7.93140333">
        <ele>388.0</ele>
        <time>2018-10-03T08:26:28.000Z</time>
      </trkpt>
      <trkpt lat="42.44645833" lon="-7.93140333">
        <ele>388.0</ele>
        <time>2018-10-03T08:26:29.000Z</time>
      </trkpt>
      <trkpt lat="42.44645833" lon="-7.93140333">
        <ele>388.0</ele>
        <time>2018-10-03T08:26:30.000Z</time>
      </trkpt>
      <trkpt lat="42.44645833" lon="-7.93140333">
        <ele>388.0</ele>
        <time>2018-10-03T08:26:31.000Z</time>
      </trkpt>
      <trkpt lat="42.44645667" lon="-7.93140667">
        <ele>388.0</ele>
        <time>2018-10-03T08:26:32.000Z</time>
      </trkpt>
      <trkpt lat="42.446455" lon="-7.93141333">
        <ele>388.0</ele>
        <time>2018-10-03T08:26:33.000Z</time>
      </trkpt>
      <trkpt lat="42.44645833" lon="-7.93142667">
        <ele>388.0</ele>
        <time>2018-10-03T08:26:34.000Z</time>
      </trkpt>
      <trkpt lat="42.44646833" lon="-7.93144">
        <ele>388.0</ele>
        <time>2018-10-03T08:26:35.000Z</time>
      </trkpt>
      <trkpt lat="42.44647833" lon="-7.931455">
        <ele>388.0</ele>
        <time>2018-10-03T08:26:36.000Z</time>
      </trkpt>
      <trkpt lat="42.44648833" lon="-7.93146667">
        <ele>387.0</ele>
        <time>2018-10-03T08:26:37.000Z</time>
      </trkpt>
      <trkpt lat="42.44649833" lon="-7.93148167">
        <ele>387.0</ele>
        <time>2018-10-03T08:26:38.000Z</time>
      </trkpt>
      <trkpt lat="42.44650667" lon="-7.93149833">
        <ele>387.0</ele>
        <time>2018-10-03T08:26:39.000Z</time>
      </trkpt>
      <trkpt lat="42.44651667" lon="-7.931515">
        <ele>387.0</ele>
        <time>2018-10-03T08:26:40.000Z</time>
      </trkpt>
      <trkpt lat="42.44652667" lon="-7.93153">
        <ele>387.0</ele>
        <time>2018-10-03T08:26:41.000Z</time>
      </trkpt>
      <trkpt lat="42.44653667" lon="-7.93154667">
        <ele>387.0</ele>
        <time>2018-10-03T08:26:42.000Z</time>
      </trkpt>
      <trkpt lat="42.44654667" lon="-7.93156333">
        <ele>387.0</ele>
        <time>2018-10-03T08:26:43.000Z</time>
      </trkpt>
      <trkpt lat="42.44655667" lon="-7.93157833">
        <ele>387.0</ele>
        <time>2018-10-03T08:26:44.000Z</time>
      </trkpt>
      <trkpt lat="42.44656833" lon="-7.93159667">
        <ele>387.0</ele>
        <time>2018-10-03T08:26:45.000Z</time>
      </trkpt>
      <trkpt lat="42.44658167" lon="-7.93161333">
        <ele>387.0</ele>
        <time>2018-10-03T08:26:46.000Z</time>
      </trkpt>
      <trkpt lat="42.44659333" lon="-7.93163167">
        <ele>387.0</ele>
        <time>2018-10-03T08:26:47.000Z</time>
      </trkpt>
      <trkpt lat="42.44660667" lon="-7.93164667">
        <ele>387.0</ele>
        <time>2018-10-03T08:26:48.000Z</time>
      </trkpt>
      <trkpt lat="42.44661833" lon="-7.93166167">
        <ele>387.0</ele>
        <time>2018-10-03T08:26:49.000Z</time>
      </trkpt>
      <trkpt lat="42.44662833" lon="-7.93167667">
        <ele>387.0</ele>
        <time>2018-10-03T08:26:50.000Z</time>
      </trkpt>
      <trkpt lat="42.44664" lon="-7.93169167">
        <ele>387.0</ele>
        <time>2018-10-03T08:26:51.000Z</time>
      </trkpt>
      <trkpt lat="42.44665167" lon="-7.931705">
        <ele>387.0</ele>
        <time>2018-10-03T08:26:52.000Z</time>
      </trkpt>
      <trkpt lat="42.44666167" lon="-7.93172167">
        <ele>386.0</ele>
        <time>2018-10-03T08:26:53.000Z</time>
      </trkpt>
      <trkpt lat="42.44667333" lon="-7.93173833">
        <ele>386.0</ele>
        <time>2018-10-03T08:26:54.000Z</time>
      </trkpt>
      <trkpt lat="42.44668667" lon="-7.93175667">
        <ele>386.0</ele>
        <time>2018-10-03T08:26:55.000Z</time>
      </trkpt>
      <trkpt lat="42.4467" lon="-7.93177333">
        <ele>386.0</ele>
        <time>2018-10-03T08:26:56.000Z</time>
      </trkpt>
      <trkpt lat="42.44671167" lon="-7.93178833">
        <ele>386.0</ele>
        <time>2018-10-03T08:26:57.000Z</time>
      </trkpt>
      <trkpt lat="42.44672167" lon="-7.93180333">
        <ele>386.0</ele>
        <time>2018-10-03T08:26:58.000Z</time>
      </trkpt>
      <trkpt lat="42.44673333" lon="-7.93181667">
        <ele>386.0</ele>
        <time>2018-10-03T08:26:59.000Z</time>
      </trkpt>
      <trkpt lat="42.446745" lon="-7.93183167">
        <ele>385.0</ele>
        <time>2018-10-03T08:27:00.000Z</time>
      </trkpt>
      <trkpt lat="42.44675667" lon="-7.93184667">
        <ele>385.0</ele>
        <time>2018-10-03T08:27:01.000Z</time>
      </trkpt>
      <trkpt lat="42.44676667" lon="-7.931865">
        <ele>385.0</ele>
        <time>2018-10-03T08:27:02.000Z</time>
      </trkpt>
      <trkpt lat="42.44678" lon="-7.93188167">
        <ele>385.0</ele>
        <time>2018-10-03T08:27:03.000Z</time>
      </trkpt>
      <trkpt lat="42.44679167" lon="-7.93189667">
        <ele>385.0</ele>
        <time>2018-10-03T08:27:04.000Z</time>
      </trkpt>
      <trkpt lat="42.44680167" lon="-7.93191167">
        <ele>385.0</ele>
        <time>2018-10-03T08:27:05.000Z</time>
      </trkpt>
      <trkpt lat="42.44681167" lon="-7.93192667">
        <ele>385.0</ele>
        <time>2018-10-03T08:27:06.000Z</time>
      </trkpt>
      <trkpt lat="42.44682167" lon="-7.93194167">
        <ele>385.0</ele>
        <time>2018-10-03T08:27:07.000Z</time>
      </trkpt>
      <trkpt lat="42.44683167" lon="-7.93195667">
        <ele>385.0</ele>
        <time>2018-10-03T08:27:08.000Z</time>
      </trkpt>
      <trkpt lat="42.44684333" lon="-7.931975">
        <ele>385.0</ele>
        <time>2018-10-03T08:27:09.000Z</time>
      </trkpt>
      <trkpt lat="42.44685667" lon="-7.93199167">
        <ele>385.0</ele>
        <time>2018-10-03T08:27:10.000Z</time>
      </trkpt>
      <trkpt lat="42.44687" lon="-7.93200833">
        <ele>385.0</ele>
        <time>2018-10-03T08:27:11.000Z</time>
      </trkpt>
      <trkpt lat="42.44688333" lon="-7.93202333">
        <ele>385.0</ele>
        <time>2018-10-03T08:27:12.000Z</time>
      </trkpt>
      <trkpt lat="42.446895" lon="-7.93203833">
        <ele>385.0</ele>
        <time>2018-10-03T08:27:13.000Z</time>
      </trkpt>
      <trkpt lat="42.44690833" lon="-7.932055">
        <ele>385.0</ele>
        <time>2018-10-03T08:27:14.000Z</time>
      </trkpt>
      <trkpt lat="42.44692" lon="-7.93206833">
        <ele>384.0</ele>
        <time>2018-10-03T08:27:15.000Z</time>
      </trkpt>
      <trkpt lat="42.44693333" lon="-7.93208333">
        <ele>384.0</ele>
        <time>2018-10-03T08:27:16.000Z</time>
      </trkpt>
      <trkpt lat="42.44694667" lon="-7.93209833">
        <ele>384.0</ele>
        <time>2018-10-03T08:27:17.000Z</time>
      </trkpt>
      <trkpt lat="42.44696" lon="-7.93211333">
        <ele>384.0</ele>
        <time>2018-10-03T08:27:18.000Z</time>
      </trkpt>
      <trkpt lat="42.44697333" lon="-7.93213167">
        <ele>384.0</ele>
        <time>2018-10-03T08:27:19.000Z</time>
      </trkpt>
      <trkpt lat="42.44698667" lon="-7.93214667">
        <ele>384.0</ele>
        <time>2018-10-03T08:27:20.000Z</time>
      </trkpt>
      <trkpt lat="42.44699833" lon="-7.932165">
        <ele>384.0</ele>
        <time>2018-10-03T08:27:21.000Z</time>
      </trkpt>
      <trkpt lat="42.44701" lon="-7.93218333">
        <ele>384.0</ele>
        <time>2018-10-03T08:27:22.000Z</time>
      </trkpt>
      <trkpt lat="42.44702333" lon="-7.93219833">
        <ele>384.0</ele>
        <time>2018-10-03T08:27:23.000Z</time>
      </trkpt>
      <trkpt lat="42.447035" lon="-7.93221667">
        <ele>384.0</ele>
        <time>2018-10-03T08:27:24.000Z</time>
      </trkpt>
      <trkpt lat="42.44704667" lon="-7.932235">
        <ele>384.0</ele>
        <time>2018-10-03T08:27:25.000Z</time>
      </trkpt>
      <trkpt lat="42.44706" lon="-7.93225333">
        <ele>384.0</ele>
        <time>2018-10-03T08:27:26.000Z</time>
      </trkpt>
      <trkpt lat="42.44707" lon="-7.93227167">
        <ele>384.0</ele>
        <time>2018-10-03T08:27:27.000Z</time>
      </trkpt>
      <trkpt lat="42.44708167" lon="-7.93229">
        <ele>384.0</ele>
        <time>2018-10-03T08:27:28.000Z</time>
      </trkpt>
      <trkpt lat="42.44709333" lon="-7.93230667">
        <ele>384.0</ele>
        <time>2018-10-03T08:27:29.000Z</time>
      </trkpt>
      <trkpt lat="42.447105" lon="-7.93232167">
        <ele>384.0</ele>
        <time>2018-10-03T08:27:30.000Z</time>
      </trkpt>
      <trkpt lat="42.44711667" lon="-7.93233833">
        <ele>384.0</ele>
        <time>2018-10-03T08:27:31.000Z</time>
      </trkpt>
      <trkpt lat="42.44713" lon="-7.932355">
        <ele>384.0</ele>
        <time>2018-10-03T08:27:32.000Z</time>
      </trkpt>
      <trkpt lat="42.44714333" lon="-7.93237">
        <ele>384.0</ele>
        <time>2018-10-03T08:27:33.000Z</time>
      </trkpt>
      <trkpt lat="42.447155" lon="-7.93238833">
        <ele>384.0</ele>
        <time>2018-10-03T08:27:34.000Z</time>
      </trkpt>
      <trkpt lat="42.44716667" lon="-7.93240333">
        <ele>384.0</ele>
        <time>2018-10-03T08:27:35.000Z</time>
      </trkpt>
      <trkpt lat="42.44717833" lon="-7.93242">
        <ele>384.0</ele>
        <time>2018-10-03T08:27:36.000Z</time>
      </trkpt>
      <trkpt lat="42.44719" lon="-7.932435">
        <ele>384.0</ele>
        <time>2018-10-03T08:27:37.000Z</time>
      </trkpt>
      <trkpt lat="42.44720167" lon="-7.93245167">
        <ele>384.0</ele>
        <time>2018-10-03T08:27:38.000Z</time>
      </trkpt>
      <trkpt lat="42.44721333" lon="-7.93247">
        <ele>384.0</ele>
        <time>2018-10-03T08:27:39.000Z</time>
      </trkpt>
      <trkpt lat="42.447225" lon="-7.93248667">
        <ele>384.0</ele>
        <time>2018-10-03T08:27:40.000Z</time>
      </trkpt>
      <trkpt lat="42.44723667" lon="-7.93250333">
        <ele>384.0</ele>
        <time>2018-10-03T08:27:41.000Z</time>
      </trkpt>
      <trkpt lat="42.44724667" lon="-7.93252">
        <ele>384.0</ele>
        <time>2018-10-03T08:27:42.000Z</time>
      </trkpt>
      <trkpt lat="42.44725833" lon="-7.93253833">
        <ele>384.0</ele>
        <time>2018-10-03T08:27:43.000Z</time>
      </trkpt>
      <trkpt lat="42.44727" lon="-7.932555">
        <ele>384.0</ele>
        <time>2018-10-03T08:27:44.000Z</time>
      </trkpt>
      <trkpt lat="42.44728167" lon="-7.93257167">
        <ele>384.0</ele>
        <time>2018-10-03T08:27:45.000Z</time>
      </trkpt>
      <trkpt lat="42.44729333" lon="-7.93258833">
        <ele>384.0</ele>
        <time>2018-10-03T08:27:46.000Z</time>
      </trkpt>
      <trkpt lat="42.44730667" lon="-7.932605">
        <ele>384.0</ele>
        <time>2018-10-03T08:27:47.000Z</time>
      </trkpt>
      <trkpt lat="42.44731833" lon="-7.93262">
        <ele>384.0</ele>
        <time>2018-10-03T08:27:48.000Z</time>
      </trkpt>
      <trkpt lat="42.44733167" lon="-7.932635">
        <ele>384.0</ele>
        <time>2018-10-03T08:27:49.000Z</time>
      </trkpt>
      <trkpt lat="42.44734333" lon="-7.93265167">
        <ele>383.0</ele>
        <time>2018-10-03T08:27:50.000Z</time>
      </trkpt>
      <trkpt lat="42.44735667" lon="-7.93266667">
        <ele>383.0</ele>
        <time>2018-10-03T08:27:51.000Z</time>
      </trkpt>
      <trkpt lat="42.44737" lon="-7.93268333">
        <ele>383.0</ele>
        <time>2018-10-03T08:27:52.000Z</time>
      </trkpt>
      <trkpt lat="42.44738167" lon="-7.9327">
        <ele>383.0</ele>
        <time>2018-10-03T08:27:53.000Z</time>
      </trkpt>
      <trkpt lat="42.44739667" lon="-7.93271333">
        <ele>383.0</ele>
        <time>2018-10-03T08:27:54.000Z</time>
      </trkpt>
      <trkpt lat="42.44741" lon="-7.93272667">
        <ele>383.0</ele>
        <time>2018-10-03T08:27:55.000Z</time>
      </trkpt>
      <trkpt lat="42.44742333" lon="-7.93274167">
        <ele>383.0</ele>
        <time>2018-10-03T08:27:56.000Z</time>
      </trkpt>
      <trkpt lat="42.44743667" lon="-7.93275833">
        <ele>383.0</ele>
        <time>2018-10-03T08:27:57.000Z</time>
      </trkpt>
      <trkpt lat="42.44745167" lon="-7.93277167">
        <ele>383.0</ele>
        <time>2018-10-03T08:27:58.000Z</time>
      </trkpt>
      <trkpt lat="42.44746167" lon="-7.93278667">
        <ele>383.0</ele>
        <time>2018-10-03T08:27:59.000Z</time>
      </trkpt>
      <trkpt lat="42.447475" lon="-7.9328">
        <ele>383.0</ele>
        <time>2018-10-03T08:28:00.000Z</time>
      </trkpt>
      <trkpt lat="42.44748833" lon="-7.93281333">
        <ele>383.0</ele>
        <time>2018-10-03T08:28:01.000Z</time>
      </trkpt>
      <trkpt lat="42.447505" lon="-7.93282833">
        <ele>383.0</ele>
        <time>2018-10-03T08:28:02.000Z</time>
      </trkpt>
      <trkpt lat="42.44752167" lon="-7.93284167">
        <ele>383.0</ele>
        <time>2018-10-03T08:28:03.000Z</time>
      </trkpt>
      <trkpt lat="42.44753667" lon="-7.93285333">
        <ele>383.0</ele>
        <time>2018-10-03T08:28:04.000Z</time>
      </trkpt>
      <trkpt lat="42.44755" lon="-7.93287">
        <ele>383.0</ele>
        <time>2018-10-03T08:28:05.000Z</time>
      </trkpt>
      <trkpt lat="42.44756833" lon="-7.93288333">
        <ele>383.0</ele>
        <time>2018-10-03T08:28:06.000Z</time>
      </trkpt>
      <trkpt lat="42.44758333" lon="-7.93289667">
        <ele>383.0</ele>
        <time>2018-10-03T08:28:07.000Z</time>
      </trkpt>
      <trkpt lat="42.447595" lon="-7.93291333">
        <ele>383.0</ele>
        <time>2018-10-03T08:28:08.000Z</time>
      </trkpt>
      <trkpt lat="42.44761167" lon="-7.93292833">
        <ele>384.0</ele>
        <time>2018-10-03T08:28:09.000Z</time>
      </trkpt>
      <trkpt lat="42.44762833" lon="-7.93294">
        <ele>384.0</ele>
        <time>2018-10-03T08:28:10.000Z</time>
      </trkpt>
      <trkpt lat="42.447645" lon="-7.93295333">
        <ele>384.0</ele>
        <time>2018-10-03T08:28:11.000Z</time>
      </trkpt>
      <trkpt lat="42.44765833" lon="-7.93296667">
        <ele>384.0</ele>
        <time>2018-10-03T08:28:12.000Z</time>
      </trkpt>
      <trkpt lat="42.44767167" lon="-7.93297833">
        <ele>384.0</ele>
        <time>2018-10-03T08:28:13.000Z</time>
      </trkpt>
      <trkpt lat="42.447685" lon="-7.93299167">
        <ele>384.0</ele>
        <time>2018-10-03T08:28:14.000Z</time>
      </trkpt>
      <trkpt lat="42.44770167" lon="-7.933005">
        <ele>384.0</ele>
        <time>2018-10-03T08:28:15.000Z</time>
      </trkpt>
      <trkpt lat="42.44771833" lon="-7.93301833">
        <ele>384.0</ele>
        <time>2018-10-03T08:28:16.000Z</time>
      </trkpt>
      <trkpt lat="42.447735" lon="-7.93302833">
        <ele>384.0</ele>
        <time>2018-10-03T08:28:17.000Z</time>
      </trkpt>
      <trkpt lat="42.44775" lon="-7.93304">
        <ele>384.0</ele>
        <time>2018-10-03T08:28:18.000Z</time>
      </trkpt>
      <trkpt lat="42.44776333" lon="-7.93305333">
        <ele>385.0</ele>
        <time>2018-10-03T08:28:19.000Z</time>
      </trkpt>
      <trkpt lat="42.447775" lon="-7.93306667">
        <ele>385.0</ele>
        <time>2018-10-03T08:28:20.000Z</time>
      </trkpt>
      <trkpt lat="42.44778667" lon="-7.93308167">
        <ele>385.0</ele>
        <time>2018-10-03T08:28:21.000Z</time>
      </trkpt>
      <trkpt lat="42.4478" lon="-7.93309667">
        <ele>385.0</ele>
        <time>2018-10-03T08:28:22.000Z</time>
      </trkpt>
      <trkpt lat="42.44781667" lon="-7.93311">
        <ele>385.0</ele>
        <time>2018-10-03T08:28:23.000Z</time>
      </trkpt>
      <trkpt lat="42.44783333" lon="-7.93312333">
        <ele>385.0</ele>
        <time>2018-10-03T08:28:24.000Z</time>
      </trkpt>
      <trkpt lat="42.44785" lon="-7.93313667">
        <ele>385.0</ele>
        <time>2018-10-03T08:28:25.000Z</time>
      </trkpt>
      <trkpt lat="42.447865" lon="-7.93315167">
        <ele>385.0</ele>
        <time>2018-10-03T08:28:26.000Z</time>
      </trkpt>
      <trkpt lat="42.44788" lon="-7.933165">
        <ele>385.0</ele>
        <time>2018-10-03T08:28:27.000Z</time>
      </trkpt>
      <trkpt lat="42.44789667" lon="-7.93318">
        <ele>385.0</ele>
        <time>2018-10-03T08:28:28.000Z</time>
      </trkpt>
      <trkpt lat="42.44791333" lon="-7.93319333">
        <ele>385.0</ele>
        <time>2018-10-03T08:28:29.000Z</time>
      </trkpt>
      <trkpt lat="42.44793167" lon="-7.933205">
        <ele>385.0</ele>
        <time>2018-10-03T08:28:30.000Z</time>
      </trkpt>
      <trkpt lat="42.44794833" lon="-7.93321667">
        <ele>385.0</ele>
        <time>2018-10-03T08:28:31.000Z</time>
      </trkpt>
      <trkpt lat="42.44796333" lon="-7.93322667">
        <ele>385.0</ele>
        <time>2018-10-03T08:28:32.000Z</time>
      </trkpt>
      <trkpt lat="42.44797667" lon="-7.93323667">
        <ele>385.0</ele>
        <time>2018-10-03T08:28:33.000Z</time>
      </trkpt>
      <trkpt lat="42.44799333" lon="-7.93324667">
        <ele>385.0</ele>
        <time>2018-10-03T08:28:34.000Z</time>
      </trkpt>
      <trkpt lat="42.44801" lon="-7.93325833">
        <ele>385.0</ele>
        <time>2018-10-03T08:28:35.000Z</time>
      </trkpt>
      <trkpt lat="42.44802833" lon="-7.93327167">
        <ele>385.0</ele>
        <time>2018-10-03T08:28:36.000Z</time>
      </trkpt>
      <trkpt lat="42.44804667" lon="-7.93328333">
        <ele>385.0</ele>
        <time>2018-10-03T08:28:37.000Z</time>
      </trkpt>
      <trkpt lat="42.44806" lon="-7.93329333">
        <ele>385.0</ele>
        <time>2018-10-03T08:28:38.000Z</time>
      </trkpt>
      <trkpt lat="42.44807333" lon="-7.933305">
        <ele>385.0</ele>
        <time>2018-10-03T08:28:39.000Z</time>
      </trkpt>
      <trkpt lat="42.448085" lon="-7.93331667">
        <ele>385.0</ele>
        <time>2018-10-03T08:28:40.000Z</time>
      </trkpt>
      <trkpt lat="42.4481" lon="-7.93332833">
        <ele>385.0</ele>
        <time>2018-10-03T08:28:41.000Z</time>
      </trkpt>
      <trkpt lat="42.448115" lon="-7.93334">
        <ele>385.0</ele>
        <time>2018-10-03T08:28:42.000Z</time>
      </trkpt>
      <trkpt lat="42.44812833" lon="-7.93334667">
        <ele>385.0</ele>
        <time>2018-10-03T08:28:43.000Z</time>
      </trkpt>
      <trkpt lat="42.44814333" lon="-7.93335667">
        <ele>385.0</ele>
        <time>2018-10-03T08:28:44.000Z</time>
      </trkpt>
      <trkpt lat="42.44815167" lon="-7.93336333">
        <ele>385.0</ele>
        <time>2018-10-03T08:28:45.000Z</time>
      </trkpt>
      <trkpt lat="42.44815333" lon="-7.93336667">
        <ele>385.0</ele>
        <time>2018-10-03T08:28:46.000Z</time>
      </trkpt>
      <trkpt lat="42.44816" lon="-7.93337">
        <ele>385.0</ele>
        <time>2018-10-03T08:28:47.000Z</time>
      </trkpt>
      <trkpt lat="42.44817167" lon="-7.933375">
        <ele>385.0</ele>
        <time>2018-10-03T08:28:48.000Z</time>
      </trkpt>
      <trkpt lat="42.448185" lon="-7.93338167">
        <ele>384.0</ele>
        <time>2018-10-03T08:28:49.000Z</time>
      </trkpt>
      <trkpt lat="42.4482" lon="-7.93339167">
        <ele>384.0</ele>
        <time>2018-10-03T08:28:50.000Z</time>
      </trkpt>
      <trkpt lat="42.44821667" lon="-7.93340167">
        <ele>384.0</ele>
        <time>2018-10-03T08:28:51.000Z</time>
      </trkpt>
      <trkpt lat="42.44823333" lon="-7.93341167">
        <ele>384.0</ele>
        <time>2018-10-03T08:28:52.000Z</time>
      </trkpt>
      <trkpt lat="42.44824833" lon="-7.93342167">
        <ele>384.0</ele>
        <time>2018-10-03T08:28:53.000Z</time>
      </trkpt>
      <trkpt lat="42.44826333" lon="-7.93343333">
        <ele>384.0</ele>
        <time>2018-10-03T08:28:54.000Z</time>
      </trkpt>
      <trkpt lat="42.44827667" lon="-7.93344333">
        <ele>384.0</ele>
        <time>2018-10-03T08:28:55.000Z</time>
      </trkpt>
      <trkpt lat="42.44829333" lon="-7.93345167">
        <ele>384.0</ele>
        <time>2018-10-03T08:28:56.000Z</time>
      </trkpt>
      <trkpt lat="42.44831" lon="-7.93345833">
        <ele>384.0</ele>
        <time>2018-10-03T08:28:57.000Z</time>
      </trkpt>
      <trkpt lat="42.44832333" lon="-7.93346667">
        <ele>384.0</ele>
        <time>2018-10-03T08:28:58.000Z</time>
      </trkpt>
      <trkpt lat="42.44833833" lon="-7.93347667">
        <ele>384.0</ele>
        <time>2018-10-03T08:28:59.000Z</time>
      </trkpt>
      <trkpt lat="42.44835333" lon="-7.93348333">
        <ele>384.0</ele>
        <time>2018-10-03T08:29:00.000Z</time>
      </trkpt>
      <trkpt lat="42.44836833" lon="-7.93349167">
        <ele>384.0</ele>
        <time>2018-10-03T08:29:01.000Z</time>
      </trkpt>
      <trkpt lat="42.44838333" lon="-7.93350167">
        <ele>384.0</ele>
        <time>2018-10-03T08:29:02.000Z</time>
      </trkpt>
      <trkpt lat="42.44839833" lon="-7.93351167">
        <ele>384.0</ele>
        <time>2018-10-03T08:29:03.000Z</time>
      </trkpt>
      <trkpt lat="42.44841333" lon="-7.93352167">
        <ele>384.0</ele>
        <time>2018-10-03T08:29:04.000Z</time>
      </trkpt>
      <trkpt lat="42.44842833" lon="-7.93353167">
        <ele>384.0</ele>
        <time>2018-10-03T08:29:05.000Z</time>
      </trkpt>
      <trkpt lat="42.44844667" lon="-7.93354167">
        <ele>384.0</ele>
        <time>2018-10-03T08:29:06.000Z</time>
      </trkpt>
      <trkpt lat="42.44846167" lon="-7.93355667">
        <ele>384.0</ele>
        <time>2018-10-03T08:29:07.000Z</time>
      </trkpt>
      <trkpt lat="42.44847667" lon="-7.93357">
        <ele>384.0</ele>
        <time>2018-10-03T08:29:08.000Z</time>
      </trkpt>
      <trkpt lat="42.44849167" lon="-7.93358167">
        <ele>384.0</ele>
        <time>2018-10-03T08:29:09.000Z</time>
      </trkpt>
      <trkpt lat="42.44850333" lon="-7.933595">
        <ele>384.0</ele>
        <time>2018-10-03T08:29:10.000Z</time>
      </trkpt>
      <trkpt lat="42.448515" lon="-7.93360833">
        <ele>384.0</ele>
        <time>2018-10-03T08:29:11.000Z</time>
      </trkpt>
      <trkpt lat="42.44852833" lon="-7.93362167">
        <ele>384.0</ele>
        <time>2018-10-03T08:29:12.000Z</time>
      </trkpt>
      <trkpt lat="42.44854" lon="-7.933635">
        <ele>384.0</ele>
        <time>2018-10-03T08:29:13.000Z</time>
      </trkpt>
      <trkpt lat="42.44855333" lon="-7.93365167">
        <ele>384.0</ele>
        <time>2018-10-03T08:29:14.000Z</time>
      </trkpt>
      <trkpt lat="42.448565" lon="-7.93367">
        <ele>383.0</ele>
        <time>2018-10-03T08:29:15.000Z</time>
      </trkpt>
      <trkpt lat="42.44857667" lon="-7.933685">
        <ele>383.0</ele>
        <time>2018-10-03T08:29:16.000Z</time>
      </trkpt>
      <trkpt lat="42.448585" lon="-7.93370333">
        <ele>383.0</ele>
        <time>2018-10-03T08:29:17.000Z</time>
      </trkpt>
      <trkpt lat="42.44859333" lon="-7.93371667">
        <ele>383.0</ele>
        <time>2018-10-03T08:29:18.000Z</time>
      </trkpt>
      <trkpt lat="42.4486" lon="-7.93373167">
        <ele>382.0</ele>
        <time>2018-10-03T08:29:19.000Z</time>
      </trkpt>
      <trkpt lat="42.448605" lon="-7.933745">
        <ele>382.0</ele>
        <time>2018-10-03T08:29:20.000Z</time>
      </trkpt>
      <trkpt lat="42.44861167" lon="-7.93376167">
        <ele>382.0</ele>
        <time>2018-10-03T08:29:21.000Z</time>
      </trkpt>
      <trkpt lat="42.44862" lon="-7.93377667">
        <ele>382.0</ele>
        <time>2018-10-03T08:29:22.000Z</time>
      </trkpt>
      <trkpt lat="42.44863" lon="-7.93379167">
        <ele>382.0</ele>
        <time>2018-10-03T08:29:23.000Z</time>
      </trkpt>
      <trkpt lat="42.44864167" lon="-7.933805">
        <ele>382.0</ele>
        <time>2018-10-03T08:29:24.000Z</time>
      </trkpt>
      <trkpt lat="42.44865167" lon="-7.93382">
        <ele>382.0</ele>
        <time>2018-10-03T08:29:25.000Z</time>
      </trkpt>
      <trkpt lat="42.44866" lon="-7.933835">
        <ele>382.0</ele>
        <time>2018-10-03T08:29:26.000Z</time>
      </trkpt>
      <trkpt lat="42.44867" lon="-7.93384833">
        <ele>382.0</ele>
        <time>2018-10-03T08:29:27.000Z</time>
      </trkpt>
      <trkpt lat="42.44867833" lon="-7.93386">
        <ele>382.0</ele>
        <time>2018-10-03T08:29:28.000Z</time>
      </trkpt>
      <trkpt lat="42.44869" lon="-7.93387167">
        <ele>382.0</ele>
        <time>2018-10-03T08:29:29.000Z</time>
      </trkpt>
      <trkpt lat="42.4487" lon="-7.93388333">
        <ele>382.0</ele>
        <time>2018-10-03T08:29:30.000Z</time>
      </trkpt>
      <trkpt lat="42.44871333" lon="-7.93388667">
        <ele>382.0</ele>
        <time>2018-10-03T08:29:31.000Z</time>
      </trkpt>
      <trkpt lat="42.44872333" lon="-7.93389">
        <ele>382.0</ele>
        <time>2018-10-03T08:29:32.000Z</time>
      </trkpt>
      <trkpt lat="42.44873333" lon="-7.93389167">
        <ele>382.0</ele>
        <time>2018-10-03T08:29:33.000Z</time>
      </trkpt>
      <trkpt lat="42.448745" lon="-7.93388833">
        <ele>382.0</ele>
        <time>2018-10-03T08:29:34.000Z</time>
      </trkpt>
      <trkpt lat="42.448745" lon="-7.93389">
        <ele>382.0</ele>
        <time>2018-10-03T08:29:35.000Z</time>
      </trkpt>
      <trkpt lat="42.44874833" lon="-7.93388833">
        <ele>382.0</ele>
        <time>2018-10-03T08:29:36.000Z</time>
      </trkpt>
      <trkpt lat="42.44875333" lon="-7.933885">
        <ele>382.0</ele>
        <time>2018-10-03T08:29:37.000Z</time>
      </trkpt>
      <trkpt lat="42.44876167" lon="-7.93388167">
        <ele>382.0</ele>
        <time>2018-10-03T08:29:38.000Z</time>
      </trkpt>
      <trkpt lat="42.44877167" lon="-7.93387833">
        <ele>382.0</ele>
        <time>2018-10-03T08:29:39.000Z</time>
      </trkpt>
      <trkpt lat="42.44878167" lon="-7.93387333">
        <ele>382.0</ele>
        <time>2018-10-03T08:29:40.000Z</time>
      </trkpt>
      <trkpt lat="42.44879167" lon="-7.93387167">
        <ele>382.0</ele>
        <time>2018-10-03T08:29:41.000Z</time>
      </trkpt>
      <trkpt lat="42.44880333" lon="-7.93387167">
        <ele>382.0</ele>
        <time>2018-10-03T08:29:42.000Z</time>
      </trkpt>
      <trkpt lat="42.44881333" lon="-7.93387333">
        <ele>382.0</ele>
        <time>2018-10-03T08:29:43.000Z</time>
      </trkpt>
      <trkpt lat="42.448825" lon="-7.93387167">
        <ele>381.0</ele>
        <time>2018-10-03T08:29:44.000Z</time>
      </trkpt>
      <trkpt lat="42.44883667" lon="-7.93387167">
        <ele>381.0</ele>
        <time>2018-10-03T08:29:45.000Z</time>
      </trkpt>
      <trkpt lat="42.44885" lon="-7.93387333">
        <ele>381.0</ele>
        <time>2018-10-03T08:29:46.000Z</time>
      </trkpt>
      <trkpt lat="42.44886167" lon="-7.93387333">
        <ele>381.0</ele>
        <time>2018-10-03T08:29:47.000Z</time>
      </trkpt>
      <trkpt lat="42.44887167" lon="-7.93387167">
        <ele>381.0</ele>
        <time>2018-10-03T08:29:48.000Z</time>
      </trkpt>
      <trkpt lat="42.448885" lon="-7.93386833">
        <ele>381.0</ele>
        <time>2018-10-03T08:29:49.000Z</time>
      </trkpt>
      <trkpt lat="42.4489" lon="-7.933865">
        <ele>381.0</ele>
        <time>2018-10-03T08:29:50.000Z</time>
      </trkpt>
      <trkpt lat="42.448915" lon="-7.93385833">
        <ele>381.0</ele>
        <time>2018-10-03T08:29:51.000Z</time>
      </trkpt>
      <trkpt lat="42.44892667" lon="-7.93384833">
        <ele>381.0</ele>
        <time>2018-10-03T08:29:52.000Z</time>
      </trkpt>
      <trkpt lat="42.44894167" lon="-7.93383333">
        <ele>380.0</ele>
        <time>2018-10-03T08:29:53.000Z</time>
      </trkpt>
      <trkpt lat="42.44895833" lon="-7.93381667">
        <ele>380.0</ele>
        <time>2018-10-03T08:29:54.000Z</time>
      </trkpt>
      <trkpt lat="42.44897667" lon="-7.93379833">
        <ele>380.0</ele>
        <time>2018-10-03T08:29:55.000Z</time>
      </trkpt>
      <trkpt lat="42.44899167" lon="-7.93378167">
        <ele>380.0</ele>
        <time>2018-10-03T08:29:56.000Z</time>
      </trkpt>
      <trkpt lat="42.44900667" lon="-7.933765">
        <ele>380.0</ele>
        <time>2018-10-03T08:29:57.000Z</time>
      </trkpt>
      <trkpt lat="42.44902167" lon="-7.93375">
        <ele>379.0</ele>
        <time>2018-10-03T08:29:58.000Z</time>
      </trkpt>
      <trkpt lat="42.44903667" lon="-7.933735">
        <ele>379.0</ele>
        <time>2018-10-03T08:29:59.000Z</time>
      </trkpt>
      <trkpt lat="42.44905" lon="-7.93371833">
        <ele>379.0</ele>
        <time>2018-10-03T08:30:00.000Z</time>
      </trkpt>
      <trkpt lat="42.44906333" lon="-7.93370333">
        <ele>379.0</ele>
        <time>2018-10-03T08:30:01.000Z</time>
      </trkpt>
      <trkpt lat="42.44907667" lon="-7.93369">
        <ele>379.0</ele>
        <time>2018-10-03T08:30:02.000Z</time>
      </trkpt>
      <trkpt lat="42.44909333" lon="-7.933675">
        <ele>378.0</ele>
        <time>2018-10-03T08:30:03.000Z</time>
      </trkpt>
      <trkpt lat="42.44911" lon="-7.93366333">
        <ele>378.0</ele>
        <time>2018-10-03T08:30:04.000Z</time>
      </trkpt>
      <trkpt lat="42.449125" lon="-7.933655">
        <ele>379.0</ele>
        <time>2018-10-03T08:30:05.000Z</time>
      </trkpt>
      <trkpt lat="42.44914167" lon="-7.93365167">
        <ele>379.0</ele>
        <time>2018-10-03T08:30:06.000Z</time>
      </trkpt>
      <trkpt lat="42.44916" lon="-7.93364667">
        <ele>379.0</ele>
        <time>2018-10-03T08:30:07.000Z</time>
      </trkpt>
      <trkpt lat="42.44918" lon="-7.93364333">
        <ele>379.0</ele>
        <time>2018-10-03T08:30:08.000Z</time>
      </trkpt>
      <trkpt lat="42.4492" lon="-7.93364">
        <ele>379.0</ele>
        <time>2018-10-03T08:30:09.000Z</time>
      </trkpt>
      <trkpt lat="42.44921833" lon="-7.93363667">
        <ele>379.0</ele>
        <time>2018-10-03T08:30:10.000Z</time>
      </trkpt>
      <trkpt lat="42.44923333" lon="-7.93363667">
        <ele>379.0</ele>
        <time>2018-10-03T08:30:11.000Z</time>
      </trkpt>
      <trkpt lat="42.44924833" lon="-7.93363833">
        <ele>379.0</ele>
        <time>2018-10-03T08:30:12.000Z</time>
      </trkpt>
      <trkpt lat="42.449265" lon="-7.93363833">
        <ele>379.0</ele>
        <time>2018-10-03T08:30:13.000Z</time>
      </trkpt>
      <trkpt lat="42.44928167" lon="-7.93363667">
        <ele>379.0</ele>
        <time>2018-10-03T08:30:14.000Z</time>
      </trkpt>
      <trkpt lat="42.44929667" lon="-7.93363333">
        <ele>380.0</ele>
        <time>2018-10-03T08:30:15.000Z</time>
      </trkpt>
      <trkpt lat="42.44931333" lon="-7.93363">
        <ele>380.0</ele>
        <time>2018-10-03T08:30:16.000Z</time>
      </trkpt>
      <trkpt lat="42.44932667" lon="-7.93362833">
        <ele>380.0</ele>
        <time>2018-10-03T08:30:17.000Z</time>
      </trkpt>
      <trkpt lat="42.44934167" lon="-7.93362">
        <ele>380.0</ele>
        <time>2018-10-03T08:30:18.000Z</time>
      </trkpt>
      <trkpt lat="42.449355" lon="-7.933615">
        <ele>380.0</ele>
        <time>2018-10-03T08:30:19.000Z</time>
      </trkpt>
      <trkpt lat="42.44937167" lon="-7.93361333">
        <ele>381.0</ele>
        <time>2018-10-03T08:30:20.000Z</time>
      </trkpt>
      <trkpt lat="42.44938833" lon="-7.93361167">
        <ele>381.0</ele>
        <time>2018-10-03T08:30:21.000Z</time>
      </trkpt>
      <trkpt lat="42.449405" lon="-7.93361333">
        <ele>381.0</ele>
        <time>2018-10-03T08:30:22.000Z</time>
      </trkpt>
      <trkpt lat="42.44942" lon="-7.93361667">
        <ele>381.0</ele>
        <time>2018-10-03T08:30:23.000Z</time>
      </trkpt>
      <trkpt lat="42.449435" lon="-7.93362167">
        <ele>381.0</ele>
        <time>2018-10-03T08:30:24.000Z</time>
      </trkpt>
      <trkpt lat="42.44945" lon="-7.93362667">
        <ele>381.0</ele>
        <time>2018-10-03T08:30:25.000Z</time>
      </trkpt>
      <trkpt lat="42.44946667" lon="-7.93363">
        <ele>381.0</ele>
        <time>2018-10-03T08:30:26.000Z</time>
      </trkpt>
      <trkpt lat="42.44948333" lon="-7.933635">
        <ele>381.0</ele>
        <time>2018-10-03T08:30:27.000Z</time>
      </trkpt>
      <trkpt lat="42.44950167" lon="-7.93364">
        <ele>381.0</ele>
        <time>2018-10-03T08:30:28.000Z</time>
      </trkpt>
      <trkpt lat="42.44952" lon="-7.933645">
        <ele>381.0</ele>
        <time>2018-10-03T08:30:29.000Z</time>
      </trkpt>
      <trkpt lat="42.44953833" lon="-7.93364833">
        <ele>381.0</ele>
        <time>2018-10-03T08:30:30.000Z</time>
      </trkpt>
      <trkpt lat="42.449555" lon="-7.93365667">
        <ele>381.0</ele>
        <time>2018-10-03T08:30:31.000Z</time>
      </trkpt>
      <trkpt lat="42.44957333" lon="-7.93366167">
        <ele>381.0</ele>
        <time>2018-10-03T08:30:32.000Z</time>
      </trkpt>
      <trkpt lat="42.44959" lon="-7.93366833">
        <ele>381.0</ele>
        <time>2018-10-03T08:30:33.000Z</time>
      </trkpt>
      <trkpt lat="42.449605" lon="-7.93367667">
        <ele>381.0</ele>
        <time>2018-10-03T08:30:34.000Z</time>
      </trkpt>
      <trkpt lat="42.44962" lon="-7.933685">
        <ele>381.0</ele>
        <time>2018-10-03T08:30:35.000Z</time>
      </trkpt>
      <trkpt lat="42.449635" lon="-7.933695">
        <ele>381.0</ele>
        <time>2018-10-03T08:30:36.000Z</time>
      </trkpt>
      <trkpt lat="42.44964833" lon="-7.93370333">
        <ele>381.0</ele>
        <time>2018-10-03T08:30:37.000Z</time>
      </trkpt>
      <trkpt lat="42.44966333" lon="-7.93371">
        <ele>381.0</ele>
        <time>2018-10-03T08:30:38.000Z</time>
      </trkpt>
      <trkpt lat="42.44968" lon="-7.93371833">
        <ele>381.0</ele>
        <time>2018-10-03T08:30:39.000Z</time>
      </trkpt>
      <trkpt lat="42.44969667" lon="-7.93372333">
        <ele>381.0</ele>
        <time>2018-10-03T08:30:40.000Z</time>
      </trkpt>
      <trkpt lat="42.44971333" lon="-7.93373">
        <ele>381.0</ele>
        <time>2018-10-03T08:30:41.000Z</time>
      </trkpt>
      <trkpt lat="42.44973" lon="-7.93373667">
        <ele>381.0</ele>
        <time>2018-10-03T08:30:42.000Z</time>
      </trkpt>
      <trkpt lat="42.44974667" lon="-7.93374333">
        <ele>380.0</ele>
        <time>2018-10-03T08:30:43.000Z</time>
      </trkpt>
      <trkpt lat="42.44976167" lon="-7.93375">
        <ele>380.0</ele>
        <time>2018-10-03T08:30:44.000Z</time>
      </trkpt>
      <trkpt lat="42.44977667" lon="-7.933755">
        <ele>380.0</ele>
        <time>2018-10-03T08:30:45.000Z</time>
      </trkpt>
      <trkpt lat="42.44979167" lon="-7.93376167">
        <ele>380.0</ele>
        <time>2018-10-03T08:30:46.000Z</time>
      </trkpt>
      <trkpt lat="42.44980667" lon="-7.93376833">
        <ele>380.0</ele>
        <time>2018-10-03T08:30:47.000Z</time>
      </trkpt>
      <trkpt lat="42.44982167" lon="-7.933775">
        <ele>380.0</ele>
        <time>2018-10-03T08:30:48.000Z</time>
      </trkpt>
      <trkpt lat="42.44983667" lon="-7.93378">
        <ele>380.0</ele>
        <time>2018-10-03T08:30:49.000Z</time>
      </trkpt>
      <trkpt lat="42.44985333" lon="-7.933785">
        <ele>380.0</ele>
        <time>2018-10-03T08:30:50.000Z</time>
      </trkpt>
      <trkpt lat="42.44986833" lon="-7.93379">
        <ele>380.0</ele>
        <time>2018-10-03T08:30:51.000Z</time>
      </trkpt>
      <trkpt lat="42.449885" lon="-7.93379667">
        <ele>380.0</ele>
        <time>2018-10-03T08:30:52.000Z</time>
      </trkpt>
      <trkpt lat="42.4499" lon="-7.93380167">
        <ele>379.0</ele>
        <time>2018-10-03T08:30:53.000Z</time>
      </trkpt>
      <trkpt lat="42.44991667" lon="-7.93380667">
        <ele>379.0</ele>
        <time>2018-10-03T08:30:54.000Z</time>
      </trkpt>
      <trkpt lat="42.44993167" lon="-7.93381167">
        <ele>379.0</ele>
        <time>2018-10-03T08:30:55.000Z</time>
      </trkpt>
      <trkpt lat="42.44994667" lon="-7.93382">
        <ele>379.0</ele>
        <time>2018-10-03T08:30:56.000Z</time>
      </trkpt>
      <trkpt lat="42.44996167" lon="-7.93382667">
        <ele>379.0</ele>
        <time>2018-10-03T08:30:57.000Z</time>
      </trkpt>
      <trkpt lat="42.44997667" lon="-7.93383167">
        <ele>379.0</ele>
        <time>2018-10-03T08:30:58.000Z</time>
      </trkpt>
      <trkpt lat="42.44999167" lon="-7.93383833">
        <ele>379.0</ele>
        <time>2018-10-03T08:30:59.000Z</time>
      </trkpt>
      <trkpt lat="42.45000667" lon="-7.93384667">
        <ele>379.0</ele>
        <time>2018-10-03T08:31:00.000Z</time>
      </trkpt>
      <trkpt lat="42.45002167" lon="-7.933855">
        <ele>379.0</ele>
        <time>2018-10-03T08:31:01.000Z</time>
      </trkpt>
      <trkpt lat="42.45003667" lon="-7.93386333">
        <ele>379.0</ele>
        <time>2018-10-03T08:31:02.000Z</time>
      </trkpt>
      <trkpt lat="42.45005167" lon="-7.93387333">
        <ele>379.0</ele>
        <time>2018-10-03T08:31:03.000Z</time>
      </trkpt>
      <trkpt lat="42.45006667" lon="-7.93388333">
        <ele>379.0</ele>
        <time>2018-10-03T08:31:04.000Z</time>
      </trkpt>
      <trkpt lat="42.45008167" lon="-7.93389167">
        <ele>379.0</ele>
        <time>2018-10-03T08:31:05.000Z</time>
      </trkpt>
      <trkpt lat="42.450095" lon="-7.9339">
        <ele>379.0</ele>
        <time>2018-10-03T08:31:06.000Z</time>
      </trkpt>
      <trkpt lat="42.45011" lon="-7.93390833">
        <ele>379.0</ele>
        <time>2018-10-03T08:31:07.000Z</time>
      </trkpt>
      <trkpt lat="42.450125" lon="-7.93391833">
        <ele>379.0</ele>
        <time>2018-10-03T08:31:08.000Z</time>
      </trkpt>
      <trkpt lat="42.45013833" lon="-7.93392667">
        <ele>379.0</ele>
        <time>2018-10-03T08:31:09.000Z</time>
      </trkpt>
      <trkpt lat="42.45015167" lon="-7.93393667">
        <ele>379.0</ele>
        <time>2018-10-03T08:31:10.000Z</time>
      </trkpt>
      <trkpt lat="42.450165" lon="-7.93394833">
        <ele>379.0</ele>
        <time>2018-10-03T08:31:11.000Z</time>
      </trkpt>
      <trkpt lat="42.45018" lon="-7.93395833">
        <ele>379.0</ele>
        <time>2018-10-03T08:31:12.000Z</time>
      </trkpt>
      <trkpt lat="42.450195" lon="-7.93396667">
        <ele>379.0</ele>
        <time>2018-10-03T08:31:13.000Z</time>
      </trkpt>
      <trkpt lat="42.45021" lon="-7.93397667">
        <ele>379.0</ele>
        <time>2018-10-03T08:31:14.000Z</time>
      </trkpt>
      <trkpt lat="42.450225" lon="-7.933985">
        <ele>379.0</ele>
        <time>2018-10-03T08:31:15.000Z</time>
      </trkpt>
      <trkpt lat="42.45024" lon="-7.93399333">
        <ele>379.0</ele>
        <time>2018-10-03T08:31:16.000Z</time>
      </trkpt>
      <trkpt lat="42.450255" lon="-7.93400333">
        <ele>379.0</ele>
        <time>2018-10-03T08:31:17.000Z</time>
      </trkpt>
      <trkpt lat="42.45027" lon="-7.93401167">
        <ele>379.0</ele>
        <time>2018-10-03T08:31:18.000Z</time>
      </trkpt>
      <trkpt lat="42.45028667" lon="-7.93402167">
        <ele>379.0</ele>
        <time>2018-10-03T08:31:19.000Z</time>
      </trkpt>
      <trkpt lat="42.45030167" lon="-7.93402833">
        <ele>379.0</ele>
        <time>2018-10-03T08:31:20.000Z</time>
      </trkpt>
      <trkpt lat="42.45031667" lon="-7.93403833">
        <ele>379.0</ele>
        <time>2018-10-03T08:31:21.000Z</time>
      </trkpt>
      <trkpt lat="42.45033333" lon="-7.93404667">
        <ele>379.0</ele>
        <time>2018-10-03T08:31:22.000Z</time>
      </trkpt>
      <trkpt lat="42.45034833" lon="-7.934055">
        <ele>379.0</ele>
        <time>2018-10-03T08:31:23.000Z</time>
      </trkpt>
      <trkpt lat="42.45036333" lon="-7.93406333">
        <ele>380.0</ele>
        <time>2018-10-03T08:31:24.000Z</time>
      </trkpt>
      <trkpt lat="42.45038" lon="-7.93407167">
        <ele>380.0</ele>
        <time>2018-10-03T08:31:25.000Z</time>
      </trkpt>
      <trkpt lat="42.450395" lon="-7.93407833">
        <ele>380.0</ele>
        <time>2018-10-03T08:31:26.000Z</time>
      </trkpt>
      <trkpt lat="42.45041" lon="-7.93408667">
        <ele>380.0</ele>
        <time>2018-10-03T08:31:27.000Z</time>
      </trkpt>
      <trkpt lat="42.450425" lon="-7.93409667">
        <ele>380.0</ele>
        <time>2018-10-03T08:31:28.000Z</time>
      </trkpt>
      <trkpt lat="42.45044" lon="-7.934105">
        <ele>380.0</ele>
        <time>2018-10-03T08:31:29.000Z</time>
      </trkpt>
      <trkpt lat="42.450455" lon="-7.93411333">
        <ele>380.0</ele>
        <time>2018-10-03T08:31:30.000Z</time>
      </trkpt>
      <trkpt lat="42.45047167" lon="-7.93412167">
        <ele>380.0</ele>
        <time>2018-10-03T08:31:31.000Z</time>
      </trkpt>
      <trkpt lat="42.45048667" lon="-7.93412833">
        <ele>380.0</ele>
        <time>2018-10-03T08:31:32.000Z</time>
      </trkpt>
      <trkpt lat="42.45050167" lon="-7.93413667">
        <ele>380.0</ele>
        <time>2018-10-03T08:31:33.000Z</time>
      </trkpt>
      <trkpt lat="42.45051667" lon="-7.934145">
        <ele>380.0</ele>
        <time>2018-10-03T08:31:34.000Z</time>
      </trkpt>
      <trkpt lat="42.45053167" lon="-7.93415333">
        <ele>380.0</ele>
        <time>2018-10-03T08:31:35.000Z</time>
      </trkpt>
      <trkpt lat="42.45054833" lon="-7.93416">
        <ele>380.0</ele>
        <time>2018-10-03T08:31:36.000Z</time>
      </trkpt>
      <trkpt lat="42.45056333" lon="-7.93416833">
        <ele>380.0</ele>
        <time>2018-10-03T08:31:37.000Z</time>
      </trkpt>
      <trkpt lat="42.45057833" lon="-7.934175">
        <ele>380.0</ele>
        <time>2018-10-03T08:31:38.000Z</time>
      </trkpt>
      <trkpt lat="42.45059333" lon="-7.93418333">
        <ele>380.0</ele>
        <time>2018-10-03T08:31:39.000Z</time>
      </trkpt>
      <trkpt lat="42.45060833" lon="-7.93419">
        <ele>380.0</ele>
        <time>2018-10-03T08:31:40.000Z</time>
      </trkpt>
      <trkpt lat="42.45062333" lon="-7.93419833">
        <ele>380.0</ele>
        <time>2018-10-03T08:31:41.000Z</time>
      </trkpt>
      <trkpt lat="42.45064" lon="-7.934205">
        <ele>380.0</ele>
        <time>2018-10-03T08:31:42.000Z</time>
      </trkpt>
      <trkpt lat="42.45065333" lon="-7.93421333">
        <ele>380.0</ele>
        <time>2018-10-03T08:31:43.000Z</time>
      </trkpt>
      <trkpt lat="42.45066667" lon="-7.93422167">
        <ele>380.0</ele>
        <time>2018-10-03T08:31:44.000Z</time>
      </trkpt>
      <trkpt lat="42.45068" lon="-7.93423167">
        <ele>380.0</ele>
        <time>2018-10-03T08:31:45.000Z</time>
      </trkpt>
      <trkpt lat="42.45069333" lon="-7.93424167">
        <ele>380.0</ele>
        <time>2018-10-03T08:31:46.000Z</time>
      </trkpt>
      <trkpt lat="42.45070667" lon="-7.93425">
        <ele>380.0</ele>
        <time>2018-10-03T08:31:47.000Z</time>
      </trkpt>
      <trkpt lat="42.45072" lon="-7.93425667">
        <ele>380.0</ele>
        <time>2018-10-03T08:31:48.000Z</time>
      </trkpt>
      <trkpt lat="42.45073333" lon="-7.93426333">
        <ele>380.0</ele>
        <time>2018-10-03T08:31:49.000Z</time>
      </trkpt>
      <trkpt lat="42.45074667" lon="-7.93427167">
        <ele>380.0</ele>
        <time>2018-10-03T08:31:50.000Z</time>
      </trkpt>
      <trkpt lat="42.45075833" lon="-7.93428">
        <ele>380.0</ele>
        <time>2018-10-03T08:31:51.000Z</time>
      </trkpt>
      <trkpt lat="42.45077167" lon="-7.93428833">
        <ele>380.0</ele>
        <time>2018-10-03T08:31:52.000Z</time>
      </trkpt>
      <trkpt lat="42.45078667" lon="-7.93429667">
        <ele>380.0</ele>
        <time>2018-10-03T08:31:53.000Z</time>
      </trkpt>
      <trkpt lat="42.45080167" lon="-7.93430333">
        <ele>380.0</ele>
        <time>2018-10-03T08:31:54.000Z</time>
      </trkpt>
      <trkpt lat="42.450815" lon="-7.93431167">
        <ele>380.0</ele>
        <time>2018-10-03T08:31:55.000Z</time>
      </trkpt>
      <trkpt lat="42.45082833" lon="-7.93432">
        <ele>380.0</ele>
        <time>2018-10-03T08:31:56.000Z</time>
      </trkpt>
      <trkpt lat="42.45084" lon="-7.93432833">
        <ele>380.0</ele>
        <time>2018-10-03T08:31:57.000Z</time>
      </trkpt>
      <trkpt lat="42.45085167" lon="-7.934335">
        <ele>380.0</ele>
        <time>2018-10-03T08:31:58.000Z</time>
      </trkpt>
      <trkpt lat="42.45086167" lon="-7.93434333">
        <ele>380.0</ele>
        <time>2018-10-03T08:31:59.000Z</time>
      </trkpt>
      <trkpt lat="42.45087167" lon="-7.93435167">
        <ele>381.0</ele>
        <time>2018-10-03T08:32:00.000Z</time>
      </trkpt>
      <trkpt lat="42.45088333" lon="-7.93436167">
        <ele>381.0</ele>
        <time>2018-10-03T08:32:01.000Z</time>
      </trkpt>
      <trkpt lat="42.45089667" lon="-7.93437">
        <ele>381.0</ele>
        <time>2018-10-03T08:32:02.000Z</time>
      </trkpt>
      <trkpt lat="42.45091333" lon="-7.93438">
        <ele>381.0</ele>
        <time>2018-10-03T08:32:03.000Z</time>
      </trkpt>
      <trkpt lat="42.45092833" lon="-7.93439">
        <ele>381.0</ele>
        <time>2018-10-03T08:32:04.000Z</time>
      </trkpt>
      <trkpt lat="42.45094333" lon="-7.93439833">
        <ele>381.0</ele>
        <time>2018-10-03T08:32:05.000Z</time>
      </trkpt>
      <trkpt lat="42.45095667" lon="-7.93440833">
        <ele>381.0</ele>
        <time>2018-10-03T08:32:06.000Z</time>
      </trkpt>
      <trkpt lat="42.45097333" lon="-7.93441667">
        <ele>381.0</ele>
        <time>2018-10-03T08:32:07.000Z</time>
      </trkpt>
      <trkpt lat="42.45098667" lon="-7.93442667">
        <ele>381.0</ele>
        <time>2018-10-03T08:32:08.000Z</time>
      </trkpt>
      <trkpt lat="42.45100167" lon="-7.93443667">
        <ele>381.0</ele>
        <time>2018-10-03T08:32:09.000Z</time>
      </trkpt>
      <trkpt lat="42.45101667" lon="-7.93444667">
        <ele>382.0</ele>
        <time>2018-10-03T08:32:10.000Z</time>
      </trkpt>
      <trkpt lat="42.45103" lon="-7.93445667">
        <ele>382.0</ele>
        <time>2018-10-03T08:32:11.000Z</time>
      </trkpt>
      <trkpt lat="42.45104667" lon="-7.934465">
        <ele>382.0</ele>
        <time>2018-10-03T08:32:12.000Z</time>
      </trkpt>
      <trkpt lat="42.45106333" lon="-7.934475">
        <ele>382.0</ele>
        <time>2018-10-03T08:32:13.000Z</time>
      </trkpt>
      <trkpt lat="42.45107833" lon="-7.93448333">
        <ele>382.0</ele>
        <time>2018-10-03T08:32:14.000Z</time>
      </trkpt>
      <trkpt lat="42.45109333" lon="-7.93449167">
        <ele>382.0</ele>
        <time>2018-10-03T08:32:15.000Z</time>
      </trkpt>
      <trkpt lat="42.45110833" lon="-7.9345">
        <ele>382.0</ele>
        <time>2018-10-03T08:32:16.000Z</time>
      </trkpt>
      <trkpt lat="42.45112333" lon="-7.93450667">
        <ele>382.0</ele>
        <time>2018-10-03T08:32:17.000Z</time>
      </trkpt>
      <trkpt lat="42.45113833" lon="-7.93451333">
        <ele>382.0</ele>
        <time>2018-10-03T08:32:18.000Z</time>
      </trkpt>
      <trkpt lat="42.45115167" lon="-7.93451833">
        <ele>382.0</ele>
        <time>2018-10-03T08:32:19.000Z</time>
      </trkpt>
      <trkpt lat="42.45116667" lon="-7.934525">
        <ele>382.0</ele>
        <time>2018-10-03T08:32:20.000Z</time>
      </trkpt>
      <trkpt lat="42.45118" lon="-7.93453">
        <ele>382.0</ele>
        <time>2018-10-03T08:32:21.000Z</time>
      </trkpt>
      <trkpt lat="42.45119333" lon="-7.93453833">
        <ele>382.0</ele>
        <time>2018-10-03T08:32:22.000Z</time>
      </trkpt>
      <trkpt lat="42.45120833" lon="-7.934545">
        <ele>382.0</ele>
        <time>2018-10-03T08:32:23.000Z</time>
      </trkpt>
      <trkpt lat="42.45122333" lon="-7.93455333">
        <ele>382.0</ele>
        <time>2018-10-03T08:32:24.000Z</time>
      </trkpt>
      <trkpt lat="42.451235" lon="-7.93456">
        <ele>382.0</ele>
        <time>2018-10-03T08:32:25.000Z</time>
      </trkpt>
      <trkpt lat="42.45124833" lon="-7.93456667">
        <ele>382.0</ele>
        <time>2018-10-03T08:32:26.000Z</time>
      </trkpt>
      <trkpt lat="42.45126167" lon="-7.93457167">
        <ele>382.0</ele>
        <time>2018-10-03T08:32:27.000Z</time>
      </trkpt>
      <trkpt lat="42.451275" lon="-7.93457667">
        <ele>382.0</ele>
        <time>2018-10-03T08:32:28.000Z</time>
      </trkpt>
      <trkpt lat="42.45128667" lon="-7.93458333">
        <ele>382.0</ele>
        <time>2018-10-03T08:32:29.000Z</time>
      </trkpt>
      <trkpt lat="42.4513" lon="-7.93459">
        <ele>382.0</ele>
        <time>2018-10-03T08:32:30.000Z</time>
      </trkpt>
      <trkpt lat="42.45131333" lon="-7.93459333">
        <ele>382.0</ele>
        <time>2018-10-03T08:32:31.000Z</time>
      </trkpt>
      <trkpt lat="42.45132333" lon="-7.93459833">
        <ele>382.0</ele>
        <time>2018-10-03T08:32:32.000Z</time>
      </trkpt>
      <trkpt lat="42.45133333" lon="-7.934605">
        <ele>382.0</ele>
        <time>2018-10-03T08:32:33.000Z</time>
      </trkpt>
      <trkpt lat="42.451345" lon="-7.93461333">
        <ele>383.0</ele>
        <time>2018-10-03T08:32:34.000Z</time>
      </trkpt>
      <trkpt lat="42.451355" lon="-7.93461833">
        <ele>383.0</ele>
        <time>2018-10-03T08:32:35.000Z</time>
      </trkpt>
      <trkpt lat="42.451365" lon="-7.93462667">
        <ele>383.0</ele>
        <time>2018-10-03T08:32:36.000Z</time>
      </trkpt>
      <trkpt lat="42.45137667" lon="-7.934635">
        <ele>383.0</ele>
        <time>2018-10-03T08:32:37.000Z</time>
      </trkpt>
      <trkpt lat="42.45139" lon="-7.93464333">
        <ele>383.0</ele>
        <time>2018-10-03T08:32:38.000Z</time>
      </trkpt>
      <trkpt lat="42.45140333" lon="-7.93465167">
        <ele>383.0</ele>
        <time>2018-10-03T08:32:39.000Z</time>
      </trkpt>
      <trkpt lat="42.45142" lon="-7.93465667">
        <ele>383.0</ele>
        <time>2018-10-03T08:32:40.000Z</time>
      </trkpt>
      <trkpt lat="42.451435" lon="-7.93466333">
        <ele>383.0</ele>
        <time>2018-10-03T08:32:41.000Z</time>
      </trkpt>
      <trkpt lat="42.45145167" lon="-7.93467167">
        <ele>383.0</ele>
        <time>2018-10-03T08:32:42.000Z</time>
      </trkpt>
      <trkpt lat="42.451465" lon="-7.93467667">
        <ele>383.0</ele>
        <time>2018-10-03T08:32:43.000Z</time>
      </trkpt>
      <trkpt lat="42.45147833" lon="-7.934685">
        <ele>384.0</ele>
        <time>2018-10-03T08:32:44.000Z</time>
      </trkpt>
      <trkpt lat="42.45149333" lon="-7.93469167">
        <ele>384.0</ele>
        <time>2018-10-03T08:32:45.000Z</time>
      </trkpt>
      <trkpt lat="42.45150833" lon="-7.93469667">
        <ele>384.0</ele>
        <time>2018-10-03T08:32:46.000Z</time>
      </trkpt>
      <trkpt lat="42.45152167" lon="-7.934705">
        <ele>384.0</ele>
        <time>2018-10-03T08:32:47.000Z</time>
      </trkpt>
      <trkpt lat="42.45153667" lon="-7.93471">
        <ele>384.0</ele>
        <time>2018-10-03T08:32:48.000Z</time>
      </trkpt>
      <trkpt lat="42.45155333" lon="-7.93471667">
        <ele>384.0</ele>
        <time>2018-10-03T08:32:49.000Z</time>
      </trkpt>
      <trkpt lat="42.45156667" lon="-7.93472333">
        <ele>384.0</ele>
        <time>2018-10-03T08:32:50.000Z</time>
      </trkpt>
      <trkpt lat="42.45158333" lon="-7.93473">
        <ele>384.0</ele>
        <time>2018-10-03T08:32:51.000Z</time>
      </trkpt>
      <trkpt lat="42.45159833" lon="-7.93473667">
        <ele>384.0</ele>
        <time>2018-10-03T08:32:52.000Z</time>
      </trkpt>
      <trkpt lat="42.451615" lon="-7.93474333">
        <ele>384.0</ele>
        <time>2018-10-03T08:32:53.000Z</time>
      </trkpt>
      <trkpt lat="42.45163167" lon="-7.93475">
        <ele>384.0</ele>
        <time>2018-10-03T08:32:54.000Z</time>
      </trkpt>
      <trkpt lat="42.45164667" lon="-7.934755">
        <ele>385.0</ele>
        <time>2018-10-03T08:32:55.000Z</time>
      </trkpt>
      <trkpt lat="42.45166333" lon="-7.93476167">
        <ele>385.0</ele>
        <time>2018-10-03T08:32:56.000Z</time>
      </trkpt>
      <trkpt lat="42.45167833" lon="-7.93477">
        <ele>385.0</ele>
        <time>2018-10-03T08:32:57.000Z</time>
      </trkpt>
      <trkpt lat="42.451695" lon="-7.93477667">
        <ele>385.0</ele>
        <time>2018-10-03T08:32:58.000Z</time>
      </trkpt>
      <trkpt lat="42.45171167" lon="-7.934785">
        <ele>385.0</ele>
        <time>2018-10-03T08:32:59.000Z</time>
      </trkpt>
      <trkpt lat="42.45172833" lon="-7.93479167">
        <ele>385.0</ele>
        <time>2018-10-03T08:33:00.000Z</time>
      </trkpt>
      <trkpt lat="42.451745" lon="-7.9348">
        <ele>385.0</ele>
        <time>2018-10-03T08:33:01.000Z</time>
      </trkpt>
      <trkpt lat="42.45176167" lon="-7.93480667">
        <ele>385.0</ele>
        <time>2018-10-03T08:33:02.000Z</time>
      </trkpt>
      <trkpt lat="42.45177833" lon="-7.93481167">
        <ele>385.0</ele>
        <time>2018-10-03T08:33:03.000Z</time>
      </trkpt>
      <trkpt lat="42.45179167" lon="-7.93482">
        <ele>386.0</ele>
        <time>2018-10-03T08:33:04.000Z</time>
      </trkpt>
      <trkpt lat="42.45181" lon="-7.93482667">
        <ele>386.0</ele>
        <time>2018-10-03T08:33:05.000Z</time>
      </trkpt>
      <trkpt lat="42.45182667" lon="-7.93483333">
        <ele>386.0</ele>
        <time>2018-10-03T08:33:06.000Z</time>
      </trkpt>
      <trkpt lat="42.45184333" lon="-7.93483667">
        <ele>386.0</ele>
        <time>2018-10-03T08:33:07.000Z</time>
      </trkpt>
      <trkpt lat="42.45185833" lon="-7.93484333">
        <ele>386.0</ele>
        <time>2018-10-03T08:33:08.000Z</time>
      </trkpt>
      <trkpt lat="42.451875" lon="-7.93484833">
        <ele>386.0</ele>
        <time>2018-10-03T08:33:09.000Z</time>
      </trkpt>
      <trkpt lat="42.45189167" lon="-7.93485167">
        <ele>386.0</ele>
        <time>2018-10-03T08:33:10.000Z</time>
      </trkpt>
      <trkpt lat="42.45190833" lon="-7.934855">
        <ele>386.0</ele>
        <time>2018-10-03T08:33:11.000Z</time>
      </trkpt>
      <trkpt lat="42.45192333" lon="-7.93485833">
        <ele>386.0</ele>
        <time>2018-10-03T08:33:12.000Z</time>
      </trkpt>
      <trkpt lat="42.45194" lon="-7.93486">
        <ele>386.0</ele>
        <time>2018-10-03T08:33:13.000Z</time>
      </trkpt>
      <trkpt lat="42.451955" lon="-7.93486333">
        <ele>386.0</ele>
        <time>2018-10-03T08:33:14.000Z</time>
      </trkpt>
      <trkpt lat="42.45197" lon="-7.93486667">
        <ele>387.0</ele>
        <time>2018-10-03T08:33:15.000Z</time>
      </trkpt>
      <trkpt lat="42.45198667" lon="-7.93486833">
        <ele>387.0</ele>
        <time>2018-10-03T08:33:16.000Z</time>
      </trkpt>
      <trkpt lat="42.45200167" lon="-7.93486833">
        <ele>387.0</ele>
        <time>2018-10-03T08:33:17.000Z</time>
      </trkpt>
      <trkpt lat="42.45201833" lon="-7.93486667">
        <ele>387.0</ele>
        <time>2018-10-03T08:33:18.000Z</time>
      </trkpt>
      <trkpt lat="42.45203167" lon="-7.93486667">
        <ele>387.0</ele>
        <time>2018-10-03T08:33:19.000Z</time>
      </trkpt>
      <trkpt lat="42.45204667" lon="-7.93486333">
        <ele>387.0</ele>
        <time>2018-10-03T08:33:20.000Z</time>
      </trkpt>
      <trkpt lat="42.45206" lon="-7.93486333">
        <ele>387.0</ele>
        <time>2018-10-03T08:33:21.000Z</time>
      </trkpt>
      <trkpt lat="42.45207667" lon="-7.93485833">
        <ele>387.0</ele>
        <time>2018-10-03T08:33:22.000Z</time>
      </trkpt>
      <trkpt lat="42.45209333" lon="-7.93485333">
        <ele>387.0</ele>
        <time>2018-10-03T08:33:23.000Z</time>
      </trkpt>
      <trkpt lat="42.45210833" lon="-7.934845">
        <ele>387.0</ele>
        <time>2018-10-03T08:33:24.000Z</time>
      </trkpt>
      <trkpt lat="42.45212333" lon="-7.93483667">
        <ele>387.0</ele>
        <time>2018-10-03T08:33:25.000Z</time>
      </trkpt>
      <trkpt lat="42.45213667" lon="-7.93482833">
        <ele>387.0</ele>
        <time>2018-10-03T08:33:26.000Z</time>
      </trkpt>
      <trkpt lat="42.45215167" lon="-7.93482">
        <ele>387.0</ele>
        <time>2018-10-03T08:33:27.000Z</time>
      </trkpt>
      <trkpt lat="42.45216667" lon="-7.93481333">
        <ele>387.0</ele>
        <time>2018-10-03T08:33:28.000Z</time>
      </trkpt>
      <trkpt lat="42.45218167" lon="-7.934805">
        <ele>387.0</ele>
        <time>2018-10-03T08:33:29.000Z</time>
      </trkpt>
      <trkpt lat="42.452195" lon="-7.934795">
        <ele>387.0</ele>
        <time>2018-10-03T08:33:30.000Z</time>
      </trkpt>
      <trkpt lat="42.45221" lon="-7.93478667">
        <ele>388.0</ele>
        <time>2018-10-03T08:33:31.000Z</time>
      </trkpt>
      <trkpt lat="42.45222333" lon="-7.93477833">
        <ele>388.0</ele>
        <time>2018-10-03T08:33:32.000Z</time>
      </trkpt>
      <trkpt lat="42.45223833" lon="-7.93477333">
        <ele>388.0</ele>
        <time>2018-10-03T08:33:33.000Z</time>
      </trkpt>
      <trkpt lat="42.45225167" lon="-7.93477">
        <ele>388.0</ele>
        <time>2018-10-03T08:33:34.000Z</time>
      </trkpt>
      <trkpt lat="42.452265" lon="-7.93476333">
        <ele>388.0</ele>
        <time>2018-10-03T08:33:35.000Z</time>
      </trkpt>
      <trkpt lat="42.45227833" lon="-7.934755">
        <ele>388.0</ele>
        <time>2018-10-03T08:33:36.000Z</time>
      </trkpt>
      <trkpt lat="42.45229333" lon="-7.934745">
        <ele>388.0</ele>
        <time>2018-10-03T08:33:37.000Z</time>
      </trkpt>
      <trkpt lat="42.45230667" lon="-7.93473833">
        <ele>388.0</ele>
        <time>2018-10-03T08:33:38.000Z</time>
      </trkpt>
      <trkpt lat="42.45232167" lon="-7.93473167">
        <ele>388.0</ele>
        <time>2018-10-03T08:33:39.000Z</time>
      </trkpt>
      <trkpt lat="42.45233333" lon="-7.93472333">
        <ele>388.0</ele>
        <time>2018-10-03T08:33:40.000Z</time>
      </trkpt>
      <trkpt lat="42.45234333" lon="-7.93471667">
        <ele>388.0</ele>
        <time>2018-10-03T08:33:41.000Z</time>
      </trkpt>
      <trkpt lat="42.45235667" lon="-7.93471">
        <ele>388.0</ele>
        <time>2018-10-03T08:33:42.000Z</time>
      </trkpt>
      <trkpt lat="42.45237167" lon="-7.934705">
        <ele>388.0</ele>
        <time>2018-10-03T08:33:43.000Z</time>
      </trkpt>
      <trkpt lat="42.452385" lon="-7.934695">
        <ele>388.0</ele>
        <time>2018-10-03T08:33:44.000Z</time>
      </trkpt>
      <trkpt lat="42.45239833" lon="-7.93468667">
        <ele>389.0</ele>
        <time>2018-10-03T08:33:45.000Z</time>
      </trkpt>
      <trkpt lat="42.45241333" lon="-7.93468167">
        <ele>389.0</ele>
        <time>2018-10-03T08:33:46.000Z</time>
      </trkpt>
      <trkpt lat="42.45243" lon="-7.934675">
        <ele>389.0</ele>
        <time>2018-10-03T08:33:47.000Z</time>
      </trkpt>
      <trkpt lat="42.45244333" lon="-7.93466833">
        <ele>389.0</ele>
        <time>2018-10-03T08:33:48.000Z</time>
      </trkpt>
      <trkpt lat="42.45245667" lon="-7.93466">
        <ele>389.0</ele>
        <time>2018-10-03T08:33:49.000Z</time>
      </trkpt>
      <trkpt lat="42.45247167" lon="-7.93465333">
        <ele>389.0</ele>
        <time>2018-10-03T08:33:50.000Z</time>
      </trkpt>
      <trkpt lat="42.45248667" lon="-7.93464667">
        <ele>390.0</ele>
        <time>2018-10-03T08:33:51.000Z</time>
      </trkpt>
      <trkpt lat="42.45250333" lon="-7.93463833">
        <ele>390.0</ele>
        <time>2018-10-03T08:33:52.000Z</time>
      </trkpt>
      <trkpt lat="42.45252" lon="-7.93463167">
        <ele>390.0</ele>
        <time>2018-10-03T08:33:53.000Z</time>
      </trkpt>
      <trkpt lat="42.45253667" lon="-7.93462833">
        <ele>390.0</ele>
        <time>2018-10-03T08:33:54.000Z</time>
      </trkpt>
      <trkpt lat="42.45255" lon="-7.93462333">
        <ele>390.0</ele>
        <time>2018-10-03T08:33:55.000Z</time>
      </trkpt>
      <trkpt lat="42.452565" lon="-7.93461833">
        <ele>390.0</ele>
        <time>2018-10-03T08:33:56.000Z</time>
      </trkpt>
      <trkpt lat="42.45257833" lon="-7.934615">
        <ele>391.0</ele>
        <time>2018-10-03T08:33:57.000Z</time>
      </trkpt>
      <trkpt lat="42.45259333" lon="-7.93460667">
        <ele>391.0</ele>
        <time>2018-10-03T08:33:58.000Z</time>
      </trkpt>
      <trkpt lat="42.45260833" lon="-7.93459667">
        <ele>391.0</ele>
        <time>2018-10-03T08:33:59.000Z</time>
      </trkpt>
      <trkpt lat="42.45262333" lon="-7.93459">
        <ele>391.0</ele>
        <time>2018-10-03T08:34:00.000Z</time>
      </trkpt>
      <trkpt lat="42.45263833" lon="-7.93458333">
        <ele>391.0</ele>
        <time>2018-10-03T08:34:01.000Z</time>
      </trkpt>
      <trkpt lat="42.45265333" lon="-7.93458167">
        <ele>391.0</ele>
        <time>2018-10-03T08:34:02.000Z</time>
      </trkpt>
      <trkpt lat="42.45266833" lon="-7.93457667">
        <ele>392.0</ele>
        <time>2018-10-03T08:34:03.000Z</time>
      </trkpt>
      <trkpt lat="42.45268333" lon="-7.93457">
        <ele>392.0</ele>
        <time>2018-10-03T08:34:04.000Z</time>
      </trkpt>
      <trkpt lat="42.4527" lon="-7.93456333">
        <ele>392.0</ele>
        <time>2018-10-03T08:34:05.000Z</time>
      </trkpt>
      <trkpt lat="42.452715" lon="-7.93456167">
        <ele>392.0</ele>
        <time>2018-10-03T08:34:06.000Z</time>
      </trkpt>
      <trkpt lat="42.452725" lon="-7.93456">
        <ele>392.0</ele>
        <time>2018-10-03T08:34:07.000Z</time>
      </trkpt>
      <trkpt lat="42.45272667" lon="-7.93456">
        <ele>392.0</ele>
        <time>2018-10-03T08:34:08.000Z</time>
      </trkpt>
      <trkpt lat="42.45272667" lon="-7.93456">
        <ele>392.0</ele>
        <time>2018-10-03T08:34:09.000Z</time>
      </trkpt>
      <trkpt lat="42.45272667" lon="-7.93456">
        <ele>392.0</ele>
        <time>2018-10-03T08:34:10.000Z</time>
      </trkpt>
      <trkpt lat="42.45273167" lon="-7.93455667">
        <ele>392.0</ele>
        <time>2018-10-03T08:34:11.000Z</time>
      </trkpt>
      <trkpt lat="42.45274167" lon="-7.93455">
        <ele>392.0</ele>
        <time>2018-10-03T08:34:12.000Z</time>
      </trkpt>
      <trkpt lat="42.45275667" lon="-7.93454333">
        <ele>393.0</ele>
        <time>2018-10-03T08:34:13.000Z</time>
      </trkpt>
      <trkpt lat="42.45277167" lon="-7.93453833">
        <ele>393.0</ele>
        <time>2018-10-03T08:34:14.000Z</time>
      </trkpt>
      <trkpt lat="42.45278833" lon="-7.93453333">
        <ele>393.0</ele>
        <time>2018-10-03T08:34:15.000Z</time>
      </trkpt>
      <trkpt lat="42.45280167" lon="-7.93453167">
        <ele>393.0</ele>
        <time>2018-10-03T08:34:16.000Z</time>
      </trkpt>
      <trkpt lat="42.45281667" lon="-7.93452667">
        <ele>393.0</ele>
        <time>2018-10-03T08:34:17.000Z</time>
      </trkpt>
      <trkpt lat="42.45283167" lon="-7.93452">
        <ele>393.0</ele>
        <time>2018-10-03T08:34:18.000Z</time>
      </trkpt>
      <trkpt lat="42.452845" lon="-7.934515">
        <ele>393.0</ele>
        <time>2018-10-03T08:34:19.000Z</time>
      </trkpt>
      <trkpt lat="42.45286" lon="-7.93451">
        <ele>393.0</ele>
        <time>2018-10-03T08:34:20.000Z</time>
      </trkpt>
      <trkpt lat="42.45287333" lon="-7.93450667">
        <ele>393.0</ele>
        <time>2018-10-03T08:34:21.000Z</time>
      </trkpt>
      <trkpt lat="42.45288833" lon="-7.93450333">
        <ele>394.0</ele>
        <time>2018-10-03T08:34:22.000Z</time>
      </trkpt>
      <trkpt lat="42.45290333" lon="-7.93449833">
        <ele>394.0</ele>
        <time>2018-10-03T08:34:23.000Z</time>
      </trkpt>
      <trkpt lat="42.45292" lon="-7.93449333">
        <ele>394.0</ele>
        <time>2018-10-03T08:34:24.000Z</time>
      </trkpt>
      <trkpt lat="42.452935" lon="-7.93448667">
        <ele>394.0</ele>
        <time>2018-10-03T08:34:25.000Z</time>
      </trkpt>
      <trkpt lat="42.45295167" lon="-7.93448">
        <ele>394.0</ele>
        <time>2018-10-03T08:34:26.000Z</time>
      </trkpt>
      <trkpt lat="42.45296667" lon="-7.93447333">
        <ele>394.0</ele>
        <time>2018-10-03T08:34:27.000Z</time>
      </trkpt>
      <trkpt lat="42.45298333" lon="-7.93446167">
        <ele>394.0</ele>
        <time>2018-10-03T08:34:28.000Z</time>
      </trkpt>
      <trkpt lat="42.45299833" lon="-7.93445333">
        <ele>394.0</ele>
        <time>2018-10-03T08:34:29.000Z</time>
      </trkpt>
      <trkpt lat="42.45301333" lon="-7.93444667">
        <ele>394.0</ele>
        <time>2018-10-03T08:34:30.000Z</time>
      </trkpt>
      <trkpt lat="42.45302833" lon="-7.93444">
        <ele>394.0</ele>
        <time>2018-10-03T08:34:31.000Z</time>
      </trkpt>
      <trkpt lat="42.453045" lon="-7.934435">
        <ele>394.0</ele>
        <time>2018-10-03T08:34:32.000Z</time>
      </trkpt>
      <trkpt lat="42.45306167" lon="-7.93443">
        <ele>394.0</ele>
        <time>2018-10-03T08:34:33.000Z</time>
      </trkpt>
      <trkpt lat="42.45307833" lon="-7.934425">
        <ele>394.0</ele>
        <time>2018-10-03T08:34:34.000Z</time>
      </trkpt>
      <trkpt lat="42.45309333" lon="-7.93441833">
        <ele>394.0</ele>
        <time>2018-10-03T08:34:35.000Z</time>
      </trkpt>
      <trkpt lat="42.45310833" lon="-7.93441">
        <ele>394.0</ele>
        <time>2018-10-03T08:34:36.000Z</time>
      </trkpt>
      <trkpt lat="42.45312333" lon="-7.93440333">
        <ele>394.0</ele>
        <time>2018-10-03T08:34:37.000Z</time>
      </trkpt>
      <trkpt lat="42.45313667" lon="-7.93440167">
        <ele>394.0</ele>
        <time>2018-10-03T08:34:38.000Z</time>
      </trkpt>
      <trkpt lat="42.45315167" lon="-7.93439833">
        <ele>394.0</ele>
        <time>2018-10-03T08:34:39.000Z</time>
      </trkpt>
      <trkpt lat="42.453165" lon="-7.934395">
        <ele>394.0</ele>
        <time>2018-10-03T08:34:40.000Z</time>
      </trkpt>
      <trkpt lat="42.45318" lon="-7.93438833">
        <ele>394.0</ele>
        <time>2018-10-03T08:34:41.000Z</time>
      </trkpt>
      <trkpt lat="42.453195" lon="-7.93438167">
        <ele>395.0</ele>
        <time>2018-10-03T08:34:42.000Z</time>
      </trkpt>
      <trkpt lat="42.45321" lon="-7.934375">
        <ele>395.0</ele>
        <time>2018-10-03T08:34:43.000Z</time>
      </trkpt>
      <trkpt lat="42.45322667" lon="-7.93436667">
        <ele>395.0</ele>
        <time>2018-10-03T08:34:44.000Z</time>
      </trkpt>
      <trkpt lat="42.45324" lon="-7.93436">
        <ele>395.0</ele>
        <time>2018-10-03T08:34:45.000Z</time>
      </trkpt>
      <trkpt lat="42.45325833" lon="-7.934355">
        <ele>395.0</ele>
        <time>2018-10-03T08:34:46.000Z</time>
      </trkpt>
      <trkpt lat="42.45327333" lon="-7.93435">
        <ele>395.0</ele>
        <time>2018-10-03T08:34:47.000Z</time>
      </trkpt>
      <trkpt lat="42.45328833" lon="-7.934345">
        <ele>395.0</ele>
        <time>2018-10-03T08:34:48.000Z</time>
      </trkpt>
      <trkpt lat="42.45330167" lon="-7.93434">
        <ele>395.0</ele>
        <time>2018-10-03T08:34:49.000Z</time>
      </trkpt>
      <trkpt lat="42.453315" lon="-7.93433167">
        <ele>396.0</ele>
        <time>2018-10-03T08:34:50.000Z</time>
      </trkpt>
      <trkpt lat="42.45332667" lon="-7.93432667">
        <ele>396.0</ele>
        <time>2018-10-03T08:34:51.000Z</time>
      </trkpt>
      <trkpt lat="42.45334" lon="-7.93431833">
        <ele>396.0</ele>
        <time>2018-10-03T08:34:52.000Z</time>
      </trkpt>
      <trkpt lat="42.45335333" lon="-7.93431333">
        <ele>396.0</ele>
        <time>2018-10-03T08:34:53.000Z</time>
      </trkpt>
      <trkpt lat="42.45336667" lon="-7.93430333">
        <ele>396.0</ele>
        <time>2018-10-03T08:34:54.000Z</time>
      </trkpt>
      <trkpt lat="42.45338167" lon="-7.934295">
        <ele>396.0</ele>
        <time>2018-10-03T08:34:55.000Z</time>
      </trkpt>
      <trkpt lat="42.45339667" lon="-7.93428833">
        <ele>396.0</ele>
        <time>2018-10-03T08:34:56.000Z</time>
      </trkpt>
      <trkpt lat="42.45341167" lon="-7.93428167">
        <ele>396.0</ele>
        <time>2018-10-03T08:34:57.000Z</time>
      </trkpt>
      <trkpt lat="42.453425" lon="-7.93427333">
        <ele>396.0</ele>
        <time>2018-10-03T08:34:58.000Z</time>
      </trkpt>
      <trkpt lat="42.45344" lon="-7.934265">
        <ele>396.0</ele>
        <time>2018-10-03T08:34:59.000Z</time>
      </trkpt>
      <trkpt lat="42.45345333" lon="-7.93425667">
        <ele>396.0</ele>
        <time>2018-10-03T08:35:00.000Z</time>
      </trkpt>
      <trkpt lat="42.45346667" lon="-7.93424833">
        <ele>396.0</ele>
        <time>2018-10-03T08:35:01.000Z</time>
      </trkpt>
      <trkpt lat="42.45348167" lon="-7.93424167">
        <ele>396.0</ele>
        <time>2018-10-03T08:35:02.000Z</time>
      </trkpt>
      <trkpt lat="42.453495" lon="-7.93423167">
        <ele>397.0</ele>
        <time>2018-10-03T08:35:03.000Z</time>
      </trkpt>
      <trkpt lat="42.45350833" lon="-7.93422333">
        <ele>397.0</ele>
        <time>2018-10-03T08:35:04.000Z</time>
      </trkpt>
      <trkpt lat="42.45352167" lon="-7.93421667">
        <ele>397.0</ele>
        <time>2018-10-03T08:35:05.000Z</time>
      </trkpt>
      <trkpt lat="42.453535" lon="-7.93421">
        <ele>397.0</ele>
        <time>2018-10-03T08:35:06.000Z</time>
      </trkpt>
      <trkpt lat="42.45355" lon="-7.93420333">
        <ele>397.0</ele>
        <time>2018-10-03T08:35:07.000Z</time>
      </trkpt>
      <trkpt lat="42.45356333" lon="-7.93419667">
        <ele>397.0</ele>
        <time>2018-10-03T08:35:08.000Z</time>
      </trkpt>
      <trkpt lat="42.45357667" lon="-7.93419333">
        <ele>397.0</ele>
        <time>2018-10-03T08:35:09.000Z</time>
      </trkpt>
      <trkpt lat="42.45359167" lon="-7.934185">
        <ele>397.0</ele>
        <time>2018-10-03T08:35:10.000Z</time>
      </trkpt>
      <trkpt lat="42.45360667" lon="-7.93417833">
        <ele>397.0</ele>
        <time>2018-10-03T08:35:11.000Z</time>
      </trkpt>
      <trkpt lat="42.45361833" lon="-7.93417167">
        <ele>397.0</ele>
        <time>2018-10-03T08:35:12.000Z</time>
      </trkpt>
      <trkpt lat="42.45363" lon="-7.93416667">
        <ele>397.0</ele>
        <time>2018-10-03T08:35:13.000Z</time>
      </trkpt>
      <trkpt lat="42.45364333" lon="-7.93415667">
        <ele>397.0</ele>
        <time>2018-10-03T08:35:14.000Z</time>
      </trkpt>
      <trkpt lat="42.45365667" lon="-7.93415167">
        <ele>397.0</ele>
        <time>2018-10-03T08:35:15.000Z</time>
      </trkpt>
      <trkpt lat="42.45366667" lon="-7.93414667">
        <ele>397.0</ele>
        <time>2018-10-03T08:35:16.000Z</time>
      </trkpt>
      <trkpt lat="42.45367333" lon="-7.93414333">
        <ele>398.0</ele>
        <time>2018-10-03T08:35:17.000Z</time>
      </trkpt>
      <trkpt lat="42.45368" lon="-7.93413833">
        <ele>398.0</ele>
        <time>2018-10-03T08:35:18.000Z</time>
      </trkpt>
      <trkpt lat="42.45369" lon="-7.93413167">
        <ele>398.0</ele>
        <time>2018-10-03T08:35:19.000Z</time>
      </trkpt>
      <trkpt lat="42.4537" lon="-7.934125">
        <ele>398.0</ele>
        <time>2018-10-03T08:35:20.000Z</time>
      </trkpt>
      <trkpt lat="42.45371333" lon="-7.93412">
        <ele>398.0</ele>
        <time>2018-10-03T08:35:21.000Z</time>
      </trkpt>
      <trkpt lat="42.453725" lon="-7.934115">
        <ele>398.0</ele>
        <time>2018-10-03T08:35:22.000Z</time>
      </trkpt>
      <trkpt lat="42.45373833" lon="-7.93411167">
        <ele>398.0</ele>
        <time>2018-10-03T08:35:23.000Z</time>
      </trkpt>
      <trkpt lat="42.45375167" lon="-7.93410667">
        <ele>398.0</ele>
        <time>2018-10-03T08:35:24.000Z</time>
      </trkpt>
      <trkpt lat="42.45376333" lon="-7.93410333">
        <ele>398.0</ele>
        <time>2018-10-03T08:35:25.000Z</time>
      </trkpt>
      <trkpt lat="42.45377833" lon="-7.93409833">
        <ele>398.0</ele>
        <time>2018-10-03T08:35:26.000Z</time>
      </trkpt>
      <trkpt lat="42.45379167" lon="-7.93409333">
        <ele>398.0</ele>
        <time>2018-10-03T08:35:27.000Z</time>
      </trkpt>
      <trkpt lat="42.45380667" lon="-7.93408833">
        <ele>399.0</ele>
        <time>2018-10-03T08:35:28.000Z</time>
      </trkpt>
      <trkpt lat="42.45382333" lon="-7.93408167">
        <ele>399.0</ele>
        <time>2018-10-03T08:35:29.000Z</time>
      </trkpt>
      <trkpt lat="42.45383833" lon="-7.93407667">
        <ele>399.0</ele>
        <time>2018-10-03T08:35:30.000Z</time>
      </trkpt>
      <trkpt lat="42.45385333" lon="-7.93407333">
        <ele>399.0</ele>
        <time>2018-10-03T08:35:31.000Z</time>
      </trkpt>
      <trkpt lat="42.45386667" lon="-7.93407">
        <ele>399.0</ele>
        <time>2018-10-03T08:35:32.000Z</time>
      </trkpt>
      <trkpt lat="42.45388167" lon="-7.93406667">
        <ele>399.0</ele>
        <time>2018-10-03T08:35:33.000Z</time>
      </trkpt>
      <trkpt lat="42.453895" lon="-7.93406333">
        <ele>399.0</ele>
        <time>2018-10-03T08:35:34.000Z</time>
      </trkpt>
      <trkpt lat="42.45390833" lon="-7.93405833">
        <ele>400.0</ele>
        <time>2018-10-03T08:35:35.000Z</time>
      </trkpt>
      <trkpt lat="42.45392333" lon="-7.93405833">
        <ele>400.0</ele>
        <time>2018-10-03T08:35:36.000Z</time>
      </trkpt>
      <trkpt lat="42.45393667" lon="-7.93405833">
        <ele>400.0</ele>
        <time>2018-10-03T08:35:37.000Z</time>
      </trkpt>
      <trkpt lat="42.45395" lon="-7.93405833">
        <ele>400.0</ele>
        <time>2018-10-03T08:35:38.000Z</time>
      </trkpt>
      <trkpt lat="42.45396333" lon="-7.93406">
        <ele>400.0</ele>
        <time>2018-10-03T08:35:39.000Z</time>
      </trkpt>
      <trkpt lat="42.45397667" lon="-7.93406">
        <ele>400.0</ele>
        <time>2018-10-03T08:35:40.000Z</time>
      </trkpt>
      <trkpt lat="42.45399167" lon="-7.93406">
        <ele>401.0</ele>
        <time>2018-10-03T08:35:41.000Z</time>
      </trkpt>
      <trkpt lat="42.454005" lon="-7.93406167">
        <ele>401.0</ele>
        <time>2018-10-03T08:35:42.000Z</time>
      </trkpt>
      <trkpt lat="42.45402" lon="-7.93406333">
        <ele>401.0</ele>
        <time>2018-10-03T08:35:43.000Z</time>
      </trkpt>
      <trkpt lat="42.45403667" lon="-7.93406333">
        <ele>401.0</ele>
        <time>2018-10-03T08:35:44.000Z</time>
      </trkpt>
      <trkpt lat="42.45405333" lon="-7.934065">
        <ele>401.0</ele>
        <time>2018-10-03T08:35:45.000Z</time>
      </trkpt>
      <trkpt lat="42.45407" lon="-7.93406333">
        <ele>402.0</ele>
        <time>2018-10-03T08:35:46.000Z</time>
      </trkpt>
      <trkpt lat="42.454085" lon="-7.93406167">
        <ele>402.0</ele>
        <time>2018-10-03T08:35:47.000Z</time>
      </trkpt>
      <trkpt lat="42.4541" lon="-7.93406">
        <ele>402.0</ele>
        <time>2018-10-03T08:35:48.000Z</time>
      </trkpt>
      <trkpt lat="42.45411667" lon="-7.934055">
        <ele>402.0</ele>
        <time>2018-10-03T08:35:49.000Z</time>
      </trkpt>
      <trkpt lat="42.45413167" lon="-7.93405167">
        <ele>403.0</ele>
        <time>2018-10-03T08:35:50.000Z</time>
      </trkpt>
      <trkpt lat="42.45414333" lon="-7.93404833">
        <ele>403.0</ele>
        <time>2018-10-03T08:35:51.000Z</time>
      </trkpt>
      <trkpt lat="42.45415" lon="-7.93404667">
        <ele>403.0</ele>
        <time>2018-10-03T08:35:52.000Z</time>
      </trkpt>
      <trkpt lat="42.45416" lon="-7.934045">
        <ele>403.0</ele>
        <time>2018-10-03T08:35:53.000Z</time>
      </trkpt>
      <trkpt lat="42.45417333" lon="-7.93404167">
        <ele>403.0</ele>
        <time>2018-10-03T08:35:54.000Z</time>
      </trkpt>
      <trkpt lat="42.454185" lon="-7.93404">
        <ele>403.0</ele>
        <time>2018-10-03T08:35:55.000Z</time>
      </trkpt>
      <trkpt lat="42.45419667" lon="-7.93403333">
        <ele>403.0</ele>
        <time>2018-10-03T08:35:56.000Z</time>
      </trkpt>
      <trkpt lat="42.45421" lon="-7.93402667">
        <ele>404.0</ele>
        <time>2018-10-03T08:35:57.000Z</time>
      </trkpt>
      <trkpt lat="42.454225" lon="-7.93402167">
        <ele>404.0</ele>
        <time>2018-10-03T08:35:58.000Z</time>
      </trkpt>
      <trkpt lat="42.45423833" lon="-7.934015">
        <ele>404.0</ele>
        <time>2018-10-03T08:35:59.000Z</time>
      </trkpt>
      <trkpt lat="42.45425167" lon="-7.93401">
        <ele>404.0</ele>
        <time>2018-10-03T08:36:00.000Z</time>
      </trkpt>
      <trkpt lat="42.454265" lon="-7.93400167">
        <ele>404.0</ele>
        <time>2018-10-03T08:36:01.000Z</time>
      </trkpt>
      <trkpt lat="42.45427833" lon="-7.93399667">
        <ele>404.0</ele>
        <time>2018-10-03T08:36:02.000Z</time>
      </trkpt>
      <trkpt lat="42.45429167" lon="-7.93399167">
        <ele>405.0</ele>
        <time>2018-10-03T08:36:03.000Z</time>
      </trkpt>
      <trkpt lat="42.454305" lon="-7.93398833">
        <ele>405.0</ele>
        <time>2018-10-03T08:36:04.000Z</time>
      </trkpt>
      <trkpt lat="42.45431833" lon="-7.933985">
        <ele>405.0</ele>
        <time>2018-10-03T08:36:05.000Z</time>
      </trkpt>
      <trkpt lat="42.45433" lon="-7.93398">
        <ele>405.0</ele>
        <time>2018-10-03T08:36:06.000Z</time>
      </trkpt>
      <trkpt lat="42.45434333" lon="-7.933975">
        <ele>405.0</ele>
        <time>2018-10-03T08:36:07.000Z</time>
      </trkpt>
      <trkpt lat="42.45435333" lon="-7.93397333">
        <ele>405.0</ele>
        <time>2018-10-03T08:36:08.000Z</time>
      </trkpt>
      <trkpt lat="42.454365" lon="-7.93397333">
        <ele>405.0</ele>
        <time>2018-10-03T08:36:09.000Z</time>
      </trkpt>
      <trkpt lat="42.45437667" lon="-7.933975">
        <ele>406.0</ele>
        <time>2018-10-03T08:36:10.000Z</time>
      </trkpt>
      <trkpt lat="42.45438833" lon="-7.93398">
        <ele>406.0</ele>
        <time>2018-10-03T08:36:11.000Z</time>
      </trkpt>
      <trkpt lat="42.4544" lon="-7.93398667">
        <ele>406.0</ele>
        <time>2018-10-03T08:36:12.000Z</time>
      </trkpt>
      <trkpt lat="42.45441333" lon="-7.933995">
        <ele>407.0</ele>
        <time>2018-10-03T08:36:13.000Z</time>
      </trkpt>
      <trkpt lat="42.454425" lon="-7.93400167">
        <ele>407.0</ele>
        <time>2018-10-03T08:36:14.000Z</time>
      </trkpt>
      <trkpt lat="42.45443667" lon="-7.93401167">
        <ele>407.0</ele>
        <time>2018-10-03T08:36:15.000Z</time>
      </trkpt>
      <trkpt lat="42.45444667" lon="-7.93402167">
        <ele>408.0</ele>
        <time>2018-10-03T08:36:16.000Z</time>
      </trkpt>
      <trkpt lat="42.45445667" lon="-7.93402833">
        <ele>408.0</ele>
        <time>2018-10-03T08:36:17.000Z</time>
      </trkpt>
      <trkpt lat="42.45446667" lon="-7.93403667">
        <ele>408.0</ele>
        <time>2018-10-03T08:36:18.000Z</time>
      </trkpt>
      <trkpt lat="42.45447833" lon="-7.93404833">
        <ele>408.0</ele>
        <time>2018-10-03T08:36:19.000Z</time>
      </trkpt>
      <trkpt lat="42.45448833" lon="-7.93405833">
        <ele>408.0</ele>
        <time>2018-10-03T08:36:20.000Z</time>
      </trkpt>
      <trkpt lat="42.4545" lon="-7.93406667">
        <ele>409.0</ele>
        <time>2018-10-03T08:36:21.000Z</time>
      </trkpt>
      <trkpt lat="42.45451" lon="-7.93407667">
        <ele>409.0</ele>
        <time>2018-10-03T08:36:22.000Z</time>
      </trkpt>
      <trkpt lat="42.45452" lon="-7.93408833">
        <ele>409.0</ele>
        <time>2018-10-03T08:36:23.000Z</time>
      </trkpt>
      <trkpt lat="42.45453" lon="-7.9341">
        <ele>409.0</ele>
        <time>2018-10-03T08:36:24.000Z</time>
      </trkpt>
      <trkpt lat="42.45454" lon="-7.93411333">
        <ele>409.0</ele>
        <time>2018-10-03T08:36:25.000Z</time>
      </trkpt>
      <trkpt lat="42.45455167" lon="-7.934125">
        <ele>409.0</ele>
        <time>2018-10-03T08:36:26.000Z</time>
      </trkpt>
      <trkpt lat="42.45456167" lon="-7.93413833">
        <ele>410.0</ele>
        <time>2018-10-03T08:36:27.000Z</time>
      </trkpt>
      <trkpt lat="42.45457333" lon="-7.93415167">
        <ele>410.0</ele>
        <time>2018-10-03T08:36:28.000Z</time>
      </trkpt>
      <trkpt lat="42.454585" lon="-7.93416333">
        <ele>410.0</ele>
        <time>2018-10-03T08:36:29.000Z</time>
      </trkpt>
      <trkpt lat="42.45459667" lon="-7.934175">
        <ele>410.0</ele>
        <time>2018-10-03T08:36:30.000Z</time>
      </trkpt>
      <trkpt lat="42.45460833" lon="-7.93418833">
        <ele>410.0</ele>
        <time>2018-10-03T08:36:31.000Z</time>
      </trkpt>
      <trkpt lat="42.45461833" lon="-7.93420167">
        <ele>410.0</ele>
        <time>2018-10-03T08:36:32.000Z</time>
      </trkpt>
      <trkpt lat="42.45463167" lon="-7.934215">
        <ele>410.0</ele>
        <time>2018-10-03T08:36:33.000Z</time>
      </trkpt>
      <trkpt lat="42.45464333" lon="-7.93422833">
        <ele>410.0</ele>
        <time>2018-10-03T08:36:34.000Z</time>
      </trkpt>
      <trkpt lat="42.45465667" lon="-7.93424167">
        <ele>410.0</ele>
        <time>2018-10-03T08:36:35.000Z</time>
      </trkpt>
      <trkpt lat="42.45467" lon="-7.934255">
        <ele>410.0</ele>
        <time>2018-10-03T08:36:36.000Z</time>
      </trkpt>
      <trkpt lat="42.45468167" lon="-7.93426667">
        <ele>410.0</ele>
        <time>2018-10-03T08:36:37.000Z</time>
      </trkpt>
      <trkpt lat="42.454695" lon="-7.93428167">
        <ele>410.0</ele>
        <time>2018-10-03T08:36:38.000Z</time>
      </trkpt>
      <trkpt lat="42.45470667" lon="-7.93429333">
        <ele>410.0</ele>
        <time>2018-10-03T08:36:39.000Z</time>
      </trkpt>
      <trkpt lat="42.45471833" lon="-7.93430833">
        <ele>410.0</ele>
        <time>2018-10-03T08:36:40.000Z</time>
      </trkpt>
      <trkpt lat="42.45473" lon="-7.93432167">
        <ele>410.0</ele>
        <time>2018-10-03T08:36:41.000Z</time>
      </trkpt>
      <trkpt lat="42.45474167" lon="-7.93433667">
        <ele>410.0</ele>
        <time>2018-10-03T08:36:42.000Z</time>
      </trkpt>
      <trkpt lat="42.45475333" lon="-7.93434833">
        <ele>410.0</ele>
        <time>2018-10-03T08:36:43.000Z</time>
      </trkpt>
      <trkpt lat="42.45476333" lon="-7.93436167">
        <ele>410.0</ele>
        <time>2018-10-03T08:36:44.000Z</time>
      </trkpt>
      <trkpt lat="42.45477167" lon="-7.93437">
        <ele>410.0</ele>
        <time>2018-10-03T08:36:45.000Z</time>
      </trkpt>
      <trkpt lat="42.45477667" lon="-7.93437833">
        <ele>411.0</ele>
        <time>2018-10-03T08:36:46.000Z</time>
      </trkpt>
      <trkpt lat="42.45478333" lon="-7.93438833">
        <ele>411.0</ele>
        <time>2018-10-03T08:36:47.000Z</time>
      </trkpt>
      <trkpt lat="42.454795" lon="-7.93440167">
        <ele>411.0</ele>
        <time>2018-10-03T08:36:48.000Z</time>
      </trkpt>
      <trkpt lat="42.45480833" lon="-7.934415">
        <ele>411.0</ele>
        <time>2018-10-03T08:36:49.000Z</time>
      </trkpt>
      <trkpt lat="42.45482167" lon="-7.93442667">
        <ele>411.0</ele>
        <time>2018-10-03T08:36:50.000Z</time>
      </trkpt>
      <trkpt lat="42.454835" lon="-7.93444">
        <ele>411.0</ele>
        <time>2018-10-03T08:36:51.000Z</time>
      </trkpt>
      <trkpt lat="42.45484833" lon="-7.93445167">
        <ele>411.0</ele>
        <time>2018-10-03T08:36:52.000Z</time>
      </trkpt>
      <trkpt lat="42.45486167" lon="-7.93446333">
        <ele>411.0</ele>
        <time>2018-10-03T08:36:53.000Z</time>
      </trkpt>
      <trkpt lat="42.454875" lon="-7.934475">
        <ele>411.0</ele>
        <time>2018-10-03T08:36:54.000Z</time>
      </trkpt>
      <trkpt lat="42.45488833" lon="-7.934485">
        <ele>412.0</ele>
        <time>2018-10-03T08:36:55.000Z</time>
      </trkpt>
      <trkpt lat="42.45490167" lon="-7.934495">
        <ele>412.0</ele>
        <time>2018-10-03T08:36:56.000Z</time>
      </trkpt>
      <trkpt lat="42.45491333" lon="-7.934505">
        <ele>412.0</ele>
        <time>2018-10-03T08:36:57.000Z</time>
      </trkpt>
      <trkpt lat="42.454925" lon="-7.93451333">
        <ele>412.0</ele>
        <time>2018-10-03T08:36:58.000Z</time>
      </trkpt>
      <trkpt lat="42.45493833" lon="-7.934525">
        <ele>412.0</ele>
        <time>2018-10-03T08:36:59.000Z</time>
      </trkpt>
      <trkpt lat="42.45495" lon="-7.934535">
        <ele>412.0</ele>
        <time>2018-10-03T08:37:00.000Z</time>
      </trkpt>
      <trkpt lat="42.454955" lon="-7.93454167">
        <ele>412.0</ele>
        <time>2018-10-03T08:37:01.000Z</time>
      </trkpt>
      <trkpt lat="42.45496" lon="-7.93454833">
        <ele>412.0</ele>
        <time>2018-10-03T08:37:02.000Z</time>
      </trkpt>
      <trkpt lat="42.45497" lon="-7.934555">
        <ele>412.0</ele>
        <time>2018-10-03T08:37:03.000Z</time>
      </trkpt>
      <trkpt lat="42.45498167" lon="-7.93456167">
        <ele>412.0</ele>
        <time>2018-10-03T08:37:04.000Z</time>
      </trkpt>
      <trkpt lat="42.45499333" lon="-7.93457">
        <ele>413.0</ele>
        <time>2018-10-03T08:37:05.000Z</time>
      </trkpt>
      <trkpt lat="42.455005" lon="-7.93457833">
        <ele>413.0</ele>
        <time>2018-10-03T08:37:06.000Z</time>
      </trkpt>
      <trkpt lat="42.45501667" lon="-7.93458667">
        <ele>413.0</ele>
        <time>2018-10-03T08:37:07.000Z</time>
      </trkpt>
      <trkpt lat="42.45502833" lon="-7.934595">
        <ele>413.0</ele>
        <time>2018-10-03T08:37:08.000Z</time>
      </trkpt>
      <trkpt lat="42.45504" lon="-7.93460333">
        <ele>413.0</ele>
        <time>2018-10-03T08:37:09.000Z</time>
      </trkpt>
      <trkpt lat="42.45505167" lon="-7.93461">
        <ele>413.0</ele>
        <time>2018-10-03T08:37:10.000Z</time>
      </trkpt>
      <trkpt lat="42.45505833" lon="-7.93462">
        <ele>413.0</ele>
        <time>2018-10-03T08:37:11.000Z</time>
      </trkpt>
      <trkpt lat="42.45507" lon="-7.934625">
        <ele>413.0</ele>
        <time>2018-10-03T08:37:12.000Z</time>
      </trkpt>
      <trkpt lat="42.45508" lon="-7.93463167">
        <ele>413.0</ele>
        <time>2018-10-03T08:37:13.000Z</time>
      </trkpt>
      <trkpt lat="42.45508167" lon="-7.93463333">
        <ele>413.0</ele>
        <time>2018-10-03T08:37:14.000Z</time>
      </trkpt>
      <trkpt lat="42.455085" lon="-7.93463833">
        <ele>413.0</ele>
        <time>2018-10-03T08:37:15.000Z</time>
      </trkpt>
      <trkpt lat="42.45509333" lon="-7.934645">
        <ele>413.0</ele>
        <time>2018-10-03T08:37:16.000Z</time>
      </trkpt>
      <trkpt lat="42.45510333" lon="-7.934655">
        <ele>413.0</ele>
        <time>2018-10-03T08:37:17.000Z</time>
      </trkpt>
      <trkpt lat="42.45511333" lon="-7.93466333">
        <ele>413.0</ele>
        <time>2018-10-03T08:37:18.000Z</time>
      </trkpt>
      <trkpt lat="42.455125" lon="-7.93467167">
        <ele>414.0</ele>
        <time>2018-10-03T08:37:19.000Z</time>
      </trkpt>
      <trkpt lat="42.455135" lon="-7.93468">
        <ele>414.0</ele>
        <time>2018-10-03T08:37:20.000Z</time>
      </trkpt>
      <trkpt lat="42.455145" lon="-7.93469">
        <ele>414.0</ele>
        <time>2018-10-03T08:37:21.000Z</time>
      </trkpt>
      <trkpt lat="42.45515167" lon="-7.9347">
        <ele>414.0</ele>
        <time>2018-10-03T08:37:22.000Z</time>
      </trkpt>
      <trkpt lat="42.45515667" lon="-7.93470333">
        <ele>414.0</ele>
        <time>2018-10-03T08:37:23.000Z</time>
      </trkpt>
      <trkpt lat="42.45515833" lon="-7.934705">
        <ele>414.0</ele>
        <time>2018-10-03T08:37:24.000Z</time>
      </trkpt>
      <trkpt lat="42.45516333" lon="-7.93471333">
        <ele>414.0</ele>
        <time>2018-10-03T08:37:25.000Z</time>
      </trkpt>
      <trkpt lat="42.45517" lon="-7.93472667">
        <ele>415.0</ele>
        <time>2018-10-03T08:37:26.000Z</time>
      </trkpt>
      <trkpt lat="42.45517833" lon="-7.93474">
        <ele>415.0</ele>
        <time>2018-10-03T08:37:27.000Z</time>
      </trkpt>
      <trkpt lat="42.45518667" lon="-7.934755">
        <ele>415.0</ele>
        <time>2018-10-03T08:37:28.000Z</time>
      </trkpt>
      <trkpt lat="42.45519333" lon="-7.93477">
        <ele>415.0</ele>
        <time>2018-10-03T08:37:29.000Z</time>
      </trkpt>
      <trkpt lat="42.4552" lon="-7.934785">
        <ele>415.0</ele>
        <time>2018-10-03T08:37:30.000Z</time>
      </trkpt>
      <trkpt lat="42.45520667" lon="-7.9348">
        <ele>416.0</ele>
        <time>2018-10-03T08:37:31.000Z</time>
      </trkpt>
      <trkpt lat="42.45521333" lon="-7.93481667">
        <ele>416.0</ele>
        <time>2018-10-03T08:37:32.000Z</time>
      </trkpt>
      <trkpt lat="42.45522" lon="-7.93483167">
        <ele>416.0</ele>
        <time>2018-10-03T08:37:33.000Z</time>
      </trkpt>
      <trkpt lat="42.45522333" lon="-7.93484833">
        <ele>416.0</ele>
        <time>2018-10-03T08:37:34.000Z</time>
      </trkpt>
      <trkpt lat="42.45522833" lon="-7.93486333">
        <ele>416.0</ele>
        <time>2018-10-03T08:37:35.000Z</time>
      </trkpt>
      <trkpt lat="42.45523333" lon="-7.93488">
        <ele>417.0</ele>
        <time>2018-10-03T08:37:36.000Z</time>
      </trkpt>
      <trkpt lat="42.45523833" lon="-7.934895">
        <ele>417.0</ele>
        <time>2018-10-03T08:37:37.000Z</time>
      </trkpt>
      <trkpt lat="42.45524333" lon="-7.93491">
        <ele>417.0</ele>
        <time>2018-10-03T08:37:38.000Z</time>
      </trkpt>
      <trkpt lat="42.45524667" lon="-7.93492667">
        <ele>417.0</ele>
        <time>2018-10-03T08:37:39.000Z</time>
      </trkpt>
      <trkpt lat="42.45525167" lon="-7.93494167">
        <ele>417.0</ele>
        <time>2018-10-03T08:37:40.000Z</time>
      </trkpt>
      <trkpt lat="42.45525667" lon="-7.93495667">
        <ele>418.0</ele>
        <time>2018-10-03T08:37:41.000Z</time>
      </trkpt>
      <trkpt lat="42.45526" lon="-7.93497167">
        <ele>418.0</ele>
        <time>2018-10-03T08:37:42.000Z</time>
      </trkpt>
      <trkpt lat="42.45526333" lon="-7.93498667">
        <ele>418.0</ele>
        <time>2018-10-03T08:37:43.000Z</time>
      </trkpt>
      <trkpt lat="42.45526667" lon="-7.93500333">
        <ele>418.0</ele>
        <time>2018-10-03T08:37:44.000Z</time>
      </trkpt>
      <trkpt lat="42.45527" lon="-7.93502">
        <ele>418.0</ele>
        <time>2018-10-03T08:37:45.000Z</time>
      </trkpt>
      <trkpt lat="42.455275" lon="-7.93503667">
        <ele>418.0</ele>
        <time>2018-10-03T08:37:46.000Z</time>
      </trkpt>
      <trkpt lat="42.45527667" lon="-7.93505">
        <ele>418.0</ele>
        <time>2018-10-03T08:37:47.000Z</time>
      </trkpt>
      <trkpt lat="42.45528" lon="-7.93505833">
        <ele>419.0</ele>
        <time>2018-10-03T08:37:48.000Z</time>
      </trkpt>
      <trkpt lat="42.45528" lon="-7.93507167">
        <ele>419.0</ele>
        <time>2018-10-03T08:37:49.000Z</time>
      </trkpt>
      <trkpt lat="42.45528333" lon="-7.935085">
        <ele>419.0</ele>
        <time>2018-10-03T08:37:50.000Z</time>
      </trkpt>
      <trkpt lat="42.45528667" lon="-7.9351">
        <ele>419.0</ele>
        <time>2018-10-03T08:37:51.000Z</time>
      </trkpt>
      <trkpt lat="42.45529" lon="-7.935115">
        <ele>419.0</ele>
        <time>2018-10-03T08:37:52.000Z</time>
      </trkpt>
      <trkpt lat="42.45529333" lon="-7.93512833">
        <ele>419.0</ele>
        <time>2018-10-03T08:37:53.000Z</time>
      </trkpt>
      <trkpt lat="42.45529833" lon="-7.93514333">
        <ele>419.0</ele>
        <time>2018-10-03T08:37:54.000Z</time>
      </trkpt>
      <trkpt lat="42.45530167" lon="-7.93516">
        <ele>419.0</ele>
        <time>2018-10-03T08:37:55.000Z</time>
      </trkpt>
      <trkpt lat="42.45530833" lon="-7.935175">
        <ele>419.0</ele>
        <time>2018-10-03T08:37:56.000Z</time>
      </trkpt>
      <trkpt lat="42.455315" lon="-7.93519167">
        <ele>419.0</ele>
        <time>2018-10-03T08:37:57.000Z</time>
      </trkpt>
      <trkpt lat="42.45532167" lon="-7.93520833">
        <ele>419.0</ele>
        <time>2018-10-03T08:37:58.000Z</time>
      </trkpt>
      <trkpt lat="42.45532833" lon="-7.93522167">
        <ele>419.0</ele>
        <time>2018-10-03T08:37:59.000Z</time>
      </trkpt>
      <trkpt lat="42.45533333" lon="-7.935235">
        <ele>419.0</ele>
        <time>2018-10-03T08:38:00.000Z</time>
      </trkpt>
      <trkpt lat="42.455335" lon="-7.93524167">
        <ele>419.0</ele>
        <time>2018-10-03T08:38:01.000Z</time>
      </trkpt>
      <trkpt lat="42.45533833" lon="-7.93524833">
        <ele>420.0</ele>
        <time>2018-10-03T08:38:02.000Z</time>
      </trkpt>
      <trkpt lat="42.45534167" lon="-7.93525667">
        <ele>420.0</ele>
        <time>2018-10-03T08:38:03.000Z</time>
      </trkpt>
      <trkpt lat="42.45534333" lon="-7.93526667">
        <ele>420.0</ele>
        <time>2018-10-03T08:38:04.000Z</time>
      </trkpt>
      <trkpt lat="42.45534667" lon="-7.93528">
        <ele>420.0</ele>
        <time>2018-10-03T08:38:05.000Z</time>
      </trkpt>
      <trkpt lat="42.45535333" lon="-7.93529333">
        <ele>421.0</ele>
        <time>2018-10-03T08:38:06.000Z</time>
      </trkpt>
      <trkpt lat="42.45536" lon="-7.93530833">
        <ele>421.0</ele>
        <time>2018-10-03T08:38:07.000Z</time>
      </trkpt>
      <trkpt lat="42.45536833" lon="-7.93532333">
        <ele>421.0</ele>
        <time>2018-10-03T08:38:08.000Z</time>
      </trkpt>
      <trkpt lat="42.45537333" lon="-7.935335">
        <ele>421.0</ele>
        <time>2018-10-03T08:38:09.000Z</time>
      </trkpt>
      <trkpt lat="42.45537833" lon="-7.93534667">
        <ele>422.0</ele>
        <time>2018-10-03T08:38:10.000Z</time>
      </trkpt>
      <trkpt lat="42.45538333" lon="-7.93536">
        <ele>422.0</ele>
        <time>2018-10-03T08:38:11.000Z</time>
      </trkpt>
      <trkpt lat="42.45538667" lon="-7.93537167">
        <ele>422.0</ele>
        <time>2018-10-03T08:38:12.000Z</time>
      </trkpt>
      <trkpt lat="42.45539" lon="-7.93538667">
        <ele>422.0</ele>
        <time>2018-10-03T08:38:13.000Z</time>
      </trkpt>
      <trkpt lat="42.455395" lon="-7.93540167">
        <ele>423.0</ele>
        <time>2018-10-03T08:38:14.000Z</time>
      </trkpt>
      <trkpt lat="42.4554" lon="-7.93541333">
        <ele>423.0</ele>
        <time>2018-10-03T08:38:15.000Z</time>
      </trkpt>
      <trkpt lat="42.45540667" lon="-7.93543">
        <ele>423.0</ele>
        <time>2018-10-03T08:38:16.000Z</time>
      </trkpt>
      <trkpt lat="42.45541" lon="-7.935445">
        <ele>423.0</ele>
        <time>2018-10-03T08:38:17.000Z</time>
      </trkpt>
      <trkpt lat="42.455415" lon="-7.93546167">
        <ele>424.0</ele>
        <time>2018-10-03T08:38:18.000Z</time>
      </trkpt>
      <trkpt lat="42.45542" lon="-7.93547667">
        <ele>424.0</ele>
        <time>2018-10-03T08:38:19.000Z</time>
      </trkpt>
      <trkpt lat="42.45542667" lon="-7.935495">
        <ele>424.0</ele>
        <time>2018-10-03T08:38:20.000Z</time>
      </trkpt>
      <trkpt lat="42.45543333" lon="-7.93551">
        <ele>425.0</ele>
        <time>2018-10-03T08:38:21.000Z</time>
      </trkpt>
      <trkpt lat="42.45544" lon="-7.93552667">
        <ele>425.0</ele>
        <time>2018-10-03T08:38:22.000Z</time>
      </trkpt>
      <trkpt lat="42.45544333" lon="-7.935545">
        <ele>426.0</ele>
        <time>2018-10-03T08:38:23.000Z</time>
      </trkpt>
      <trkpt lat="42.45544833" lon="-7.93556333">
        <ele>426.0</ele>
        <time>2018-10-03T08:38:24.000Z</time>
      </trkpt>
      <trkpt lat="42.45545333" lon="-7.93558167">
        <ele>427.0</ele>
        <time>2018-10-03T08:38:25.000Z</time>
      </trkpt>
      <trkpt lat="42.45545667" lon="-7.9356">
        <ele>427.0</ele>
        <time>2018-10-03T08:38:26.000Z</time>
      </trkpt>
      <trkpt lat="42.45546" lon="-7.93561833">
        <ele>427.0</ele>
        <time>2018-10-03T08:38:27.000Z</time>
      </trkpt>
      <trkpt lat="42.45546" lon="-7.935635">
        <ele>428.0</ele>
        <time>2018-10-03T08:38:28.000Z</time>
      </trkpt>
      <trkpt lat="42.45546333" lon="-7.93565333">
        <ele>428.0</ele>
        <time>2018-10-03T08:38:29.000Z</time>
      </trkpt>
      <trkpt lat="42.455465" lon="-7.93567167">
        <ele>428.0</ele>
        <time>2018-10-03T08:38:30.000Z</time>
      </trkpt>
      <trkpt lat="42.45546833" lon="-7.93569333">
        <ele>429.0</ele>
        <time>2018-10-03T08:38:31.000Z</time>
      </trkpt>
      <trkpt lat="42.45547" lon="-7.93571">
        <ele>429.0</ele>
        <time>2018-10-03T08:38:32.000Z</time>
      </trkpt>
      <trkpt lat="42.455475" lon="-7.93572667">
        <ele>429.0</ele>
        <time>2018-10-03T08:38:33.000Z</time>
      </trkpt>
      <trkpt lat="42.45548" lon="-7.93574667">
        <ele>429.0</ele>
        <time>2018-10-03T08:38:34.000Z</time>
      </trkpt>
      <trkpt lat="42.455485" lon="-7.93576333">
        <ele>430.0</ele>
        <time>2018-10-03T08:38:35.000Z</time>
      </trkpt>
      <trkpt lat="42.45548833" lon="-7.93577833">
        <ele>430.0</ele>
        <time>2018-10-03T08:38:36.000Z</time>
      </trkpt>
      <trkpt lat="42.45549333" lon="-7.93579333">
        <ele>430.0</ele>
        <time>2018-10-03T08:38:37.000Z</time>
      </trkpt>
      <trkpt lat="42.45549667" lon="-7.935805">
        <ele>430.0</ele>
        <time>2018-10-03T08:38:38.000Z</time>
      </trkpt>
      <trkpt lat="42.45550167" lon="-7.93582">
        <ele>430.0</ele>
        <time>2018-10-03T08:38:39.000Z</time>
      </trkpt>
      <trkpt lat="42.45550667" lon="-7.93583667">
        <ele>430.0</ele>
        <time>2018-10-03T08:38:40.000Z</time>
      </trkpt>
      <trkpt lat="42.45551" lon="-7.935855">
        <ele>430.0</ele>
        <time>2018-10-03T08:38:41.000Z</time>
      </trkpt>
      <trkpt lat="42.455515" lon="-7.93587333">
        <ele>430.0</ele>
        <time>2018-10-03T08:38:42.000Z</time>
      </trkpt>
      <trkpt lat="42.45552167" lon="-7.93589333">
        <ele>430.0</ele>
        <time>2018-10-03T08:38:43.000Z</time>
      </trkpt>
      <trkpt lat="42.45553" lon="-7.93591333">
        <ele>430.0</ele>
        <time>2018-10-03T08:38:44.000Z</time>
      </trkpt>
      <trkpt lat="42.45553833" lon="-7.935935">
        <ele>430.0</ele>
        <time>2018-10-03T08:38:45.000Z</time>
      </trkpt>
      <trkpt lat="42.45554667" lon="-7.93595333">
        <ele>430.0</ele>
        <time>2018-10-03T08:38:46.000Z</time>
      </trkpt>
      <trkpt lat="42.45555333" lon="-7.93597167">
        <ele>430.0</ele>
        <time>2018-10-03T08:38:47.000Z</time>
      </trkpt>
      <trkpt lat="42.45555833" lon="-7.93599167">
        <ele>430.0</ele>
        <time>2018-10-03T08:38:48.000Z</time>
      </trkpt>
      <trkpt lat="42.45556333" lon="-7.93601167">
        <ele>430.0</ele>
        <time>2018-10-03T08:38:49.000Z</time>
      </trkpt>
      <trkpt lat="42.45557" lon="-7.93602833">
        <ele>430.0</ele>
        <time>2018-10-03T08:38:50.000Z</time>
      </trkpt>
      <trkpt lat="42.45557833" lon="-7.936045">
        <ele>430.0</ele>
        <time>2018-10-03T08:38:51.000Z</time>
      </trkpt>
      <trkpt lat="42.455585" lon="-7.93606333">
        <ele>430.0</ele>
        <time>2018-10-03T08:38:52.000Z</time>
      </trkpt>
      <trkpt lat="42.45559333" lon="-7.93608167">
        <ele>430.0</ele>
        <time>2018-10-03T08:38:53.000Z</time>
      </trkpt>
      <trkpt lat="42.4556" lon="-7.93609833">
        <ele>430.0</ele>
        <time>2018-10-03T08:38:54.000Z</time>
      </trkpt>
      <trkpt lat="42.455605" lon="-7.93611667">
        <ele>430.0</ele>
        <time>2018-10-03T08:38:55.000Z</time>
      </trkpt>
      <trkpt lat="42.45561333" lon="-7.93613333">
        <ele>430.0</ele>
        <time>2018-10-03T08:38:56.000Z</time>
      </trkpt>
      <trkpt lat="42.45562" lon="-7.93615">
        <ele>430.0</ele>
        <time>2018-10-03T08:38:57.000Z</time>
      </trkpt>
      <trkpt lat="42.45562667" lon="-7.936165">
        <ele>430.0</ele>
        <time>2018-10-03T08:38:58.000Z</time>
      </trkpt>
      <trkpt lat="42.45563667" lon="-7.93618">
        <ele>430.0</ele>
        <time>2018-10-03T08:38:59.000Z</time>
      </trkpt>
      <trkpt lat="42.45564667" lon="-7.93619667">
        <ele>430.0</ele>
        <time>2018-10-03T08:39:00.000Z</time>
      </trkpt>
      <trkpt lat="42.45565667" lon="-7.93621167">
        <ele>430.0</ele>
        <time>2018-10-03T08:39:01.000Z</time>
      </trkpt>
      <trkpt lat="42.45566667" lon="-7.93622833">
        <ele>430.0</ele>
        <time>2018-10-03T08:39:02.000Z</time>
      </trkpt>
      <trkpt lat="42.45567333" lon="-7.936245">
        <ele>430.0</ele>
        <time>2018-10-03T08:39:03.000Z</time>
      </trkpt>
      <trkpt lat="42.45568167" lon="-7.93626167">
        <ele>430.0</ele>
        <time>2018-10-03T08:39:04.000Z</time>
      </trkpt>
      <trkpt lat="42.45568833" lon="-7.93627833">
        <ele>430.0</ele>
        <time>2018-10-03T08:39:05.000Z</time>
      </trkpt>
      <trkpt lat="42.45569667" lon="-7.936295">
        <ele>430.0</ele>
        <time>2018-10-03T08:39:06.000Z</time>
      </trkpt>
      <trkpt lat="42.45570667" lon="-7.93631">
        <ele>431.0</ele>
        <time>2018-10-03T08:39:07.000Z</time>
      </trkpt>
      <trkpt lat="42.455715" lon="-7.93632667">
        <ele>431.0</ele>
        <time>2018-10-03T08:39:08.000Z</time>
      </trkpt>
      <trkpt lat="42.455725" lon="-7.93634333">
        <ele>431.0</ele>
        <time>2018-10-03T08:39:09.000Z</time>
      </trkpt>
      <trkpt lat="42.455735" lon="-7.93636167">
        <ele>431.0</ele>
        <time>2018-10-03T08:39:10.000Z</time>
      </trkpt>
      <trkpt lat="42.45574333" lon="-7.93637833">
        <ele>431.0</ele>
        <time>2018-10-03T08:39:11.000Z</time>
      </trkpt>
      <trkpt lat="42.455755" lon="-7.93639333">
        <ele>431.0</ele>
        <time>2018-10-03T08:39:12.000Z</time>
      </trkpt>
      <trkpt lat="42.45576667" lon="-7.93640667">
        <ele>431.0</ele>
        <time>2018-10-03T08:39:13.000Z</time>
      </trkpt>
      <trkpt lat="42.45577667" lon="-7.93642333">
        <ele>432.0</ele>
        <time>2018-10-03T08:39:14.000Z</time>
      </trkpt>
      <trkpt lat="42.455785" lon="-7.93643833">
        <ele>432.0</ele>
        <time>2018-10-03T08:39:15.000Z</time>
      </trkpt>
      <trkpt lat="42.45579333" lon="-7.93645667">
        <ele>432.0</ele>
        <time>2018-10-03T08:39:16.000Z</time>
      </trkpt>
      <trkpt lat="42.45580333" lon="-7.93647167">
        <ele>432.0</ele>
        <time>2018-10-03T08:39:17.000Z</time>
      </trkpt>
      <trkpt lat="42.45581" lon="-7.93648833">
        <ele>432.0</ele>
        <time>2018-10-03T08:39:18.000Z</time>
      </trkpt>
      <trkpt lat="42.45581833" lon="-7.93650333">
        <ele>432.0</ele>
        <time>2018-10-03T08:39:19.000Z</time>
      </trkpt>
      <trkpt lat="42.45582833" lon="-7.93651667">
        <ele>432.0</ele>
        <time>2018-10-03T08:39:20.000Z</time>
      </trkpt>
      <trkpt lat="42.45583833" lon="-7.93653">
        <ele>432.0</ele>
        <time>2018-10-03T08:39:21.000Z</time>
      </trkpt>
      <trkpt lat="42.45584833" lon="-7.93654333">
        <ele>432.0</ele>
        <time>2018-10-03T08:39:22.000Z</time>
      </trkpt>
      <trkpt lat="42.45586" lon="-7.93655667">
        <ele>432.0</ele>
        <time>2018-10-03T08:39:23.000Z</time>
      </trkpt>
      <trkpt lat="42.45587" lon="-7.93657167">
        <ele>432.0</ele>
        <time>2018-10-03T08:39:24.000Z</time>
      </trkpt>
      <trkpt lat="42.45588167" lon="-7.936585">
        <ele>432.0</ele>
        <time>2018-10-03T08:39:25.000Z</time>
      </trkpt>
      <trkpt lat="42.45589167" lon="-7.93659833">
        <ele>432.0</ele>
        <time>2018-10-03T08:39:26.000Z</time>
      </trkpt>
      <trkpt lat="42.45590333" lon="-7.93661167">
        <ele>433.0</ele>
        <time>2018-10-03T08:39:27.000Z</time>
      </trkpt>
      <trkpt lat="42.45591333" lon="-7.93662333">
        <ele>433.0</ele>
        <time>2018-10-03T08:39:28.000Z</time>
      </trkpt>
      <trkpt lat="42.45592333" lon="-7.936635">
        <ele>433.0</ele>
        <time>2018-10-03T08:39:29.000Z</time>
      </trkpt>
      <trkpt lat="42.45593167" lon="-7.93664667">
        <ele>433.0</ele>
        <time>2018-10-03T08:39:30.000Z</time>
      </trkpt>
      <trkpt lat="42.45594" lon="-7.93665667">
        <ele>433.0</ele>
        <time>2018-10-03T08:39:31.000Z</time>
      </trkpt>
      <trkpt lat="42.45595" lon="-7.93666667">
        <ele>433.0</ele>
        <time>2018-10-03T08:39:32.000Z</time>
      </trkpt>
      <trkpt lat="42.45596" lon="-7.93667833">
        <ele>433.0</ele>
        <time>2018-10-03T08:39:33.000Z</time>
      </trkpt>
      <trkpt lat="42.45597333" lon="-7.93668833">
        <ele>434.0</ele>
        <time>2018-10-03T08:39:34.000Z</time>
      </trkpt>
      <trkpt lat="42.455985" lon="-7.9367">
        <ele>434.0</ele>
        <time>2018-10-03T08:39:35.000Z</time>
      </trkpt>
      <trkpt lat="42.455995" lon="-7.93671333">
        <ele>434.0</ele>
        <time>2018-10-03T08:39:36.000Z</time>
      </trkpt>
      <trkpt lat="42.456005" lon="-7.936725">
        <ele>434.0</ele>
        <time>2018-10-03T08:39:37.000Z</time>
      </trkpt>
      <trkpt lat="42.45601333" lon="-7.93673667">
        <ele>434.0</ele>
        <time>2018-10-03T08:39:38.000Z</time>
      </trkpt>
      <trkpt lat="42.45602" lon="-7.93674833">
        <ele>435.0</ele>
        <time>2018-10-03T08:39:39.000Z</time>
      </trkpt>
      <trkpt lat="42.45602833" lon="-7.93676167">
        <ele>435.0</ele>
        <time>2018-10-03T08:39:40.000Z</time>
      </trkpt>
      <trkpt lat="42.45603667" lon="-7.93677333">
        <ele>435.0</ele>
        <time>2018-10-03T08:39:41.000Z</time>
      </trkpt>
      <trkpt lat="42.456045" lon="-7.93678667">
        <ele>435.0</ele>
        <time>2018-10-03T08:39:42.000Z</time>
      </trkpt>
      <trkpt lat="42.45605167" lon="-7.9368">
        <ele>435.0</ele>
        <time>2018-10-03T08:39:43.000Z</time>
      </trkpt>
      <trkpt lat="42.45606" lon="-7.93681333">
        <ele>435.0</ele>
        <time>2018-10-03T08:39:44.000Z</time>
      </trkpt>
      <trkpt lat="42.45607" lon="-7.93682833">
        <ele>435.0</ele>
        <time>2018-10-03T08:39:45.000Z</time>
      </trkpt>
      <trkpt lat="42.45608" lon="-7.93684167">
        <ele>436.0</ele>
        <time>2018-10-03T08:39:46.000Z</time>
      </trkpt>
      <trkpt lat="42.45609" lon="-7.93685167">
        <ele>436.0</ele>
        <time>2018-10-03T08:39:47.000Z</time>
      </trkpt>
      <trkpt lat="42.45610167" lon="-7.93686167">
        <ele>436.0</ele>
        <time>2018-10-03T08:39:48.000Z</time>
      </trkpt>
      <trkpt lat="42.45611" lon="-7.93687333">
        <ele>436.0</ele>
        <time>2018-10-03T08:39:49.000Z</time>
      </trkpt>
      <trkpt lat="42.45611833" lon="-7.93688667">
        <ele>436.0</ele>
        <time>2018-10-03T08:39:50.000Z</time>
      </trkpt>
      <trkpt lat="42.45612833" lon="-7.93690333">
        <ele>436.0</ele>
        <time>2018-10-03T08:39:51.000Z</time>
      </trkpt>
      <trkpt lat="42.456135" lon="-7.93691833">
        <ele>437.0</ele>
        <time>2018-10-03T08:39:52.000Z</time>
      </trkpt>
      <trkpt lat="42.45614167" lon="-7.93693167">
        <ele>437.0</ele>
        <time>2018-10-03T08:39:53.000Z</time>
      </trkpt>
      <trkpt lat="42.45614667" lon="-7.93694333">
        <ele>437.0</ele>
        <time>2018-10-03T08:39:54.000Z</time>
      </trkpt>
      <trkpt lat="42.45615167" lon="-7.936955">
        <ele>438.0</ele>
        <time>2018-10-03T08:39:55.000Z</time>
      </trkpt>
      <trkpt lat="42.45615667" lon="-7.93696333">
        <ele>438.0</ele>
        <time>2018-10-03T08:39:56.000Z</time>
      </trkpt>
      <trkpt lat="42.45616" lon="-7.93697333">
        <ele>438.0</ele>
        <time>2018-10-03T08:39:57.000Z</time>
      </trkpt>
      <trkpt lat="42.45616667" lon="-7.93698333">
        <ele>438.0</ele>
        <time>2018-10-03T08:39:58.000Z</time>
      </trkpt>
      <trkpt lat="42.45617167" lon="-7.93699167">
        <ele>439.0</ele>
        <time>2018-10-03T08:39:59.000Z</time>
      </trkpt>
      <trkpt lat="42.45617667" lon="-7.93700333">
        <ele>439.0</ele>
        <time>2018-10-03T08:40:00.000Z</time>
      </trkpt>
      <trkpt lat="42.45618167" lon="-7.93701167">
        <ele>439.0</ele>
        <time>2018-10-03T08:40:01.000Z</time>
      </trkpt>
      <trkpt lat="42.45618667" lon="-7.93702167">
        <ele>439.0</ele>
        <time>2018-10-03T08:40:02.000Z</time>
      </trkpt>
      <trkpt lat="42.45619" lon="-7.937035">
        <ele>439.0</ele>
        <time>2018-10-03T08:40:03.000Z</time>
      </trkpt>
      <trkpt lat="42.45619667" lon="-7.937045">
        <ele>440.0</ele>
        <time>2018-10-03T08:40:04.000Z</time>
      </trkpt>
      <trkpt lat="42.45620167" lon="-7.937055">
        <ele>440.0</ele>
        <time>2018-10-03T08:40:05.000Z</time>
      </trkpt>
      <trkpt lat="42.45620667" lon="-7.93706167">
        <ele>440.0</ele>
        <time>2018-10-03T08:40:06.000Z</time>
      </trkpt>
      <trkpt lat="42.45621" lon="-7.93706667">
        <ele>440.0</ele>
        <time>2018-10-03T08:40:07.000Z</time>
      </trkpt>
      <trkpt lat="42.45621333" lon="-7.93707167">
        <ele>440.0</ele>
        <time>2018-10-03T08:40:08.000Z</time>
      </trkpt>
      <trkpt lat="42.45621667" lon="-7.93707667">
        <ele>440.0</ele>
        <time>2018-10-03T08:40:09.000Z</time>
      </trkpt>
      <trkpt lat="42.45621833" lon="-7.93708333">
        <ele>441.0</ele>
        <time>2018-10-03T08:40:10.000Z</time>
      </trkpt>
      <trkpt lat="42.45622" lon="-7.93709333">
        <ele>441.0</ele>
        <time>2018-10-03T08:40:11.000Z</time>
      </trkpt>
      <trkpt lat="42.456225" lon="-7.93710167">
        <ele>441.0</ele>
        <time>2018-10-03T08:40:12.000Z</time>
      </trkpt>
      <trkpt lat="42.45622833" lon="-7.93711">
        <ele>441.0</ele>
        <time>2018-10-03T08:40:13.000Z</time>
      </trkpt>
      <trkpt lat="42.45622833" lon="-7.93712167">
        <ele>441.0</ele>
        <time>2018-10-03T08:40:14.000Z</time>
      </trkpt>
      <trkpt lat="42.45623" lon="-7.93713333">
        <ele>441.0</ele>
        <time>2018-10-03T08:40:15.000Z</time>
      </trkpt>
      <trkpt lat="42.45623333" lon="-7.937145">
        <ele>442.0</ele>
        <time>2018-10-03T08:40:16.000Z</time>
      </trkpt>
      <trkpt lat="42.45623833" lon="-7.93715333">
        <ele>442.0</ele>
        <time>2018-10-03T08:40:17.000Z</time>
      </trkpt>
      <trkpt lat="42.45624667" lon="-7.93716333">
        <ele>442.0</ele>
        <time>2018-10-03T08:40:18.000Z</time>
      </trkpt>
      <trkpt lat="42.45625333" lon="-7.93717333">
        <ele>442.0</ele>
        <time>2018-10-03T08:40:19.000Z</time>
      </trkpt>
      <trkpt lat="42.45626333" lon="-7.93718">
        <ele>443.0</ele>
        <time>2018-10-03T08:40:20.000Z</time>
      </trkpt>
      <trkpt lat="42.45627" lon="-7.93718">
        <ele>443.0</ele>
        <time>2018-10-03T08:40:21.000Z</time>
      </trkpt>
      <trkpt lat="42.45627833" lon="-7.93718667">
        <ele>443.0</ele>
        <time>2018-10-03T08:40:22.000Z</time>
      </trkpt>
      <trkpt lat="42.45628833" lon="-7.93719667">
        <ele>443.0</ele>
        <time>2018-10-03T08:40:23.000Z</time>
      </trkpt>
      <trkpt lat="42.45629667" lon="-7.93720667">
        <ele>443.0</ele>
        <time>2018-10-03T08:40:24.000Z</time>
      </trkpt>
      <trkpt lat="42.456305" lon="-7.93721833">
        <ele>444.0</ele>
        <time>2018-10-03T08:40:25.000Z</time>
      </trkpt>
      <trkpt lat="42.45631333" lon="-7.937225">
        <ele>444.0</ele>
        <time>2018-10-03T08:40:26.000Z</time>
      </trkpt>
      <trkpt lat="42.45632167" lon="-7.93723167">
        <ele>444.0</ele>
        <time>2018-10-03T08:40:27.000Z</time>
      </trkpt>
      <trkpt lat="42.45633" lon="-7.93724167">
        <ele>444.0</ele>
        <time>2018-10-03T08:40:28.000Z</time>
      </trkpt>
      <trkpt lat="42.45633667" lon="-7.93725333">
        <ele>444.0</ele>
        <time>2018-10-03T08:40:29.000Z</time>
      </trkpt>
      <trkpt lat="42.45634167" lon="-7.93726667">
        <ele>444.0</ele>
        <time>2018-10-03T08:40:30.000Z</time>
      </trkpt>
      <trkpt lat="42.45634667" lon="-7.93727667">
        <ele>444.0</ele>
        <time>2018-10-03T08:40:31.000Z</time>
      </trkpt>
      <trkpt lat="42.45635167" lon="-7.937285">
        <ele>444.0</ele>
        <time>2018-10-03T08:40:32.000Z</time>
      </trkpt>
      <trkpt lat="42.456355" lon="-7.937295">
        <ele>445.0</ele>
        <time>2018-10-03T08:40:33.000Z</time>
      </trkpt>
      <trkpt lat="42.45636" lon="-7.937305">
        <ele>445.0</ele>
        <time>2018-10-03T08:40:34.000Z</time>
      </trkpt>
      <trkpt lat="42.45637" lon="-7.937315">
        <ele>445.0</ele>
        <time>2018-10-03T08:40:35.000Z</time>
      </trkpt>
      <trkpt lat="42.45637667" lon="-7.93732667">
        <ele>445.0</ele>
        <time>2018-10-03T08:40:36.000Z</time>
      </trkpt>
      <trkpt lat="42.45638333" lon="-7.937335">
        <ele>445.0</ele>
        <time>2018-10-03T08:40:37.000Z</time>
      </trkpt>
      <trkpt lat="42.45639" lon="-7.937345">
        <ele>445.0</ele>
        <time>2018-10-03T08:40:38.000Z</time>
      </trkpt>
      <trkpt lat="42.45639667" lon="-7.93735833">
        <ele>445.0</ele>
        <time>2018-10-03T08:40:39.000Z</time>
      </trkpt>
      <trkpt lat="42.456405" lon="-7.93736667">
        <ele>446.0</ele>
        <time>2018-10-03T08:40:40.000Z</time>
      </trkpt>
      <trkpt lat="42.45641" lon="-7.93737667">
        <ele>446.0</ele>
        <time>2018-10-03T08:40:41.000Z</time>
      </trkpt>
      <trkpt lat="42.45641667" lon="-7.937385">
        <ele>446.0</ele>
        <time>2018-10-03T08:40:42.000Z</time>
      </trkpt>
      <trkpt lat="42.45642167" lon="-7.93739667">
        <ele>446.0</ele>
        <time>2018-10-03T08:40:43.000Z</time>
      </trkpt>
      <trkpt lat="42.45642833" lon="-7.93740833">
        <ele>446.0</ele>
        <time>2018-10-03T08:40:44.000Z</time>
      </trkpt>
      <trkpt lat="42.45643667" lon="-7.93742">
        <ele>446.0</ele>
        <time>2018-10-03T08:40:45.000Z</time>
      </trkpt>
      <trkpt lat="42.45644333" lon="-7.93743167">
        <ele>447.0</ele>
        <time>2018-10-03T08:40:46.000Z</time>
      </trkpt>
      <trkpt lat="42.45644667" lon="-7.937445">
        <ele>447.0</ele>
        <time>2018-10-03T08:40:47.000Z</time>
      </trkpt>
      <trkpt lat="42.45644667" lon="-7.93745833">
        <ele>447.0</ele>
        <time>2018-10-03T08:40:48.000Z</time>
      </trkpt>
      <trkpt lat="42.45645" lon="-7.93747">
        <ele>447.0</ele>
        <time>2018-10-03T08:40:49.000Z</time>
      </trkpt>
      <trkpt lat="42.45645167" lon="-7.93748333">
        <ele>447.0</ele>
        <time>2018-10-03T08:40:50.000Z</time>
      </trkpt>
      <trkpt lat="42.45645" lon="-7.93749833">
        <ele>448.0</ele>
        <time>2018-10-03T08:40:51.000Z</time>
      </trkpt>
      <trkpt lat="42.45645" lon="-7.937515">
        <ele>448.0</ele>
        <time>2018-10-03T08:40:52.000Z</time>
      </trkpt>
      <trkpt lat="42.45645" lon="-7.93753167">
        <ele>448.0</ele>
        <time>2018-10-03T08:40:53.000Z</time>
      </trkpt>
      <trkpt lat="42.45645" lon="-7.93754833">
        <ele>448.0</ele>
        <time>2018-10-03T08:40:54.000Z</time>
      </trkpt>
      <trkpt lat="42.45645167" lon="-7.93756">
        <ele>448.0</ele>
        <time>2018-10-03T08:40:55.000Z</time>
      </trkpt>
      <trkpt lat="42.45645333" lon="-7.93757167">
        <ele>448.0</ele>
        <time>2018-10-03T08:40:56.000Z</time>
      </trkpt>
      <trkpt lat="42.456455" lon="-7.93758667">
        <ele>449.0</ele>
        <time>2018-10-03T08:40:57.000Z</time>
      </trkpt>
      <trkpt lat="42.45645667" lon="-7.93759833">
        <ele>449.0</ele>
        <time>2018-10-03T08:40:58.000Z</time>
      </trkpt>
      <trkpt lat="42.45646" lon="-7.93760667">
        <ele>449.0</ele>
        <time>2018-10-03T08:40:59.000Z</time>
      </trkpt>
      <trkpt lat="42.45646333" lon="-7.93761667">
        <ele>449.0</ele>
        <time>2018-10-03T08:41:00.000Z</time>
      </trkpt>
      <trkpt lat="42.456465" lon="-7.937625">
        <ele>449.0</ele>
        <time>2018-10-03T08:41:01.000Z</time>
      </trkpt>
      <trkpt lat="42.45646833" lon="-7.937635">
        <ele>449.0</ele>
        <time>2018-10-03T08:41:02.000Z</time>
      </trkpt>
      <trkpt lat="42.45646833" lon="-7.93764333">
        <ele>450.0</ele>
        <time>2018-10-03T08:41:03.000Z</time>
      </trkpt>
      <trkpt lat="42.45647" lon="-7.93765833">
        <ele>450.0</ele>
        <time>2018-10-03T08:41:04.000Z</time>
      </trkpt>
      <trkpt lat="42.45647167" lon="-7.93767167">
        <ele>450.0</ele>
        <time>2018-10-03T08:41:05.000Z</time>
      </trkpt>
      <trkpt lat="42.45647167" lon="-7.937685">
        <ele>450.0</ele>
        <time>2018-10-03T08:41:06.000Z</time>
      </trkpt>
      <trkpt lat="42.45647333" lon="-7.9377">
        <ele>450.0</ele>
        <time>2018-10-03T08:41:07.000Z</time>
      </trkpt>
      <trkpt lat="42.45647667" lon="-7.93771667">
        <ele>450.0</ele>
        <time>2018-10-03T08:41:08.000Z</time>
      </trkpt>
      <trkpt lat="42.45648" lon="-7.937735">
        <ele>450.0</ele>
        <time>2018-10-03T08:41:09.000Z</time>
      </trkpt>
      <trkpt lat="42.456485" lon="-7.93775167">
        <ele>450.0</ele>
        <time>2018-10-03T08:41:10.000Z</time>
      </trkpt>
      <trkpt lat="42.45649" lon="-7.93777">
        <ele>450.0</ele>
        <time>2018-10-03T08:41:11.000Z</time>
      </trkpt>
      <trkpt lat="42.456495" lon="-7.93778833">
        <ele>450.0</ele>
        <time>2018-10-03T08:41:12.000Z</time>
      </trkpt>
      <trkpt lat="42.45649833" lon="-7.937805">
        <ele>450.0</ele>
        <time>2018-10-03T08:41:13.000Z</time>
      </trkpt>
      <trkpt lat="42.45650167" lon="-7.93782333">
        <ele>450.0</ele>
        <time>2018-10-03T08:41:14.000Z</time>
      </trkpt>
      <trkpt lat="42.45650333" lon="-7.93784167">
        <ele>450.0</ele>
        <time>2018-10-03T08:41:15.000Z</time>
      </trkpt>
      <trkpt lat="42.45650667" lon="-7.93785833">
        <ele>449.0</ele>
        <time>2018-10-03T08:41:16.000Z</time>
      </trkpt>
      <trkpt lat="42.45651" lon="-7.937875">
        <ele>449.0</ele>
        <time>2018-10-03T08:41:17.000Z</time>
      </trkpt>
      <trkpt lat="42.45651167" lon="-7.93788833">
        <ele>449.0</ele>
        <time>2018-10-03T08:41:18.000Z</time>
      </trkpt>
      <trkpt lat="42.456515" lon="-7.937905">
        <ele>449.0</ele>
        <time>2018-10-03T08:41:19.000Z</time>
      </trkpt>
      <trkpt lat="42.45651833" lon="-7.93791833">
        <ele>449.0</ele>
        <time>2018-10-03T08:41:20.000Z</time>
      </trkpt>
      <trkpt lat="42.45652167" lon="-7.937935">
        <ele>449.0</ele>
        <time>2018-10-03T08:41:21.000Z</time>
      </trkpt>
      <trkpt lat="42.45652667" lon="-7.93795167">
        <ele>449.0</ele>
        <time>2018-10-03T08:41:22.000Z</time>
      </trkpt>
      <trkpt lat="42.45652833" lon="-7.937965">
        <ele>449.0</ele>
        <time>2018-10-03T08:41:23.000Z</time>
      </trkpt>
      <trkpt lat="42.45653" lon="-7.937975">
        <ele>449.0</ele>
        <time>2018-10-03T08:41:24.000Z</time>
      </trkpt>
      <trkpt lat="42.45653167" lon="-7.93798833">
        <ele>448.0</ele>
        <time>2018-10-03T08:41:25.000Z</time>
      </trkpt>
      <trkpt lat="42.45653" lon="-7.93800167">
        <ele>449.0</ele>
        <time>2018-10-03T08:41:26.000Z</time>
      </trkpt>
      <trkpt lat="42.45653" lon="-7.93801667">
        <ele>449.0</ele>
        <time>2018-10-03T08:41:27.000Z</time>
      </trkpt>
      <trkpt lat="42.45653333" lon="-7.93803">
        <ele>449.0</ele>
        <time>2018-10-03T08:41:28.000Z</time>
      </trkpt>
      <trkpt lat="42.45653667" lon="-7.93804">
        <ele>449.0</ele>
        <time>2018-10-03T08:41:29.000Z</time>
      </trkpt>
      <trkpt lat="42.45653667" lon="-7.93805">
        <ele>449.0</ele>
        <time>2018-10-03T08:41:30.000Z</time>
      </trkpt>
      <trkpt lat="42.45653667" lon="-7.93806333">
        <ele>449.0</ele>
        <time>2018-10-03T08:41:31.000Z</time>
      </trkpt>
      <trkpt lat="42.45653667" lon="-7.93808">
        <ele>449.0</ele>
        <time>2018-10-03T08:41:32.000Z</time>
      </trkpt>
      <trkpt lat="42.456535" lon="-7.938095">
        <ele>449.0</ele>
        <time>2018-10-03T08:41:33.000Z</time>
      </trkpt>
      <trkpt lat="42.45653167" lon="-7.93810667">
        <ele>449.0</ele>
        <time>2018-10-03T08:41:34.000Z</time>
      </trkpt>
      <trkpt lat="42.45652833" lon="-7.93812">
        <ele>450.0</ele>
        <time>2018-10-03T08:41:35.000Z</time>
      </trkpt>
      <trkpt lat="42.45652667" lon="-7.938135">
        <ele>450.0</ele>
        <time>2018-10-03T08:41:36.000Z</time>
      </trkpt>
      <trkpt lat="42.45652667" lon="-7.93815">
        <ele>450.0</ele>
        <time>2018-10-03T08:41:37.000Z</time>
      </trkpt>
      <trkpt lat="42.45652833" lon="-7.938165">
        <ele>450.0</ele>
        <time>2018-10-03T08:41:38.000Z</time>
      </trkpt>
      <trkpt lat="42.45653167" lon="-7.93818167">
        <ele>450.0</ele>
        <time>2018-10-03T08:41:39.000Z</time>
      </trkpt>
      <trkpt lat="42.456535" lon="-7.9382">
        <ele>450.0</ele>
        <time>2018-10-03T08:41:40.000Z</time>
      </trkpt>
      <trkpt lat="42.45654" lon="-7.93821667">
        <ele>451.0</ele>
        <time>2018-10-03T08:41:41.000Z</time>
      </trkpt>
      <trkpt lat="42.456545" lon="-7.93823">
        <ele>451.0</ele>
        <time>2018-10-03T08:41:42.000Z</time>
      </trkpt>
      <trkpt lat="42.45654833" lon="-7.93824333">
        <ele>451.0</ele>
        <time>2018-10-03T08:41:43.000Z</time>
      </trkpt>
      <trkpt lat="42.45655167" lon="-7.93825833">
        <ele>451.0</ele>
        <time>2018-10-03T08:41:44.000Z</time>
      </trkpt>
      <trkpt lat="42.456555" lon="-7.93827333">
        <ele>450.0</ele>
        <time>2018-10-03T08:41:45.000Z</time>
      </trkpt>
      <trkpt lat="42.45656167" lon="-7.93829">
        <ele>450.0</ele>
        <time>2018-10-03T08:41:46.000Z</time>
      </trkpt>
      <trkpt lat="42.45657" lon="-7.93831167">
        <ele>450.0</ele>
        <time>2018-10-03T08:41:47.000Z</time>
      </trkpt>
      <trkpt lat="42.45657667" lon="-7.938335">
        <ele>450.0</ele>
        <time>2018-10-03T08:41:48.000Z</time>
      </trkpt>
      <trkpt lat="42.45658333" lon="-7.93835667">
        <ele>450.0</ele>
        <time>2018-10-03T08:41:49.000Z</time>
      </trkpt>
      <trkpt lat="42.45658833" lon="-7.93837833">
        <ele>450.0</ele>
        <time>2018-10-03T08:41:50.000Z</time>
      </trkpt>
      <trkpt lat="42.45659667" lon="-7.93839833">
        <ele>450.0</ele>
        <time>2018-10-03T08:41:51.000Z</time>
      </trkpt>
      <trkpt lat="42.45660333" lon="-7.93841833">
        <ele>450.0</ele>
        <time>2018-10-03T08:41:52.000Z</time>
      </trkpt>
      <trkpt lat="42.45660833" lon="-7.93843833">
        <ele>449.0</ele>
        <time>2018-10-03T08:41:53.000Z</time>
      </trkpt>
      <trkpt lat="42.45661167" lon="-7.93845667">
        <ele>449.0</ele>
        <time>2018-10-03T08:41:54.000Z</time>
      </trkpt>
      <trkpt lat="42.456615" lon="-7.938475">
        <ele>449.0</ele>
        <time>2018-10-03T08:41:55.000Z</time>
      </trkpt>
      <trkpt lat="42.45661833" lon="-7.93849833">
        <ele>449.0</ele>
        <time>2018-10-03T08:41:56.000Z</time>
      </trkpt>
      <trkpt lat="42.45662" lon="-7.93851833">
        <ele>449.0</ele>
        <time>2018-10-03T08:41:57.000Z</time>
      </trkpt>
      <trkpt lat="42.45662167" lon="-7.93853667">
        <ele>449.0</ele>
        <time>2018-10-03T08:41:58.000Z</time>
      </trkpt>
      <trkpt lat="42.45662667" lon="-7.93855833">
        <ele>449.0</ele>
        <time>2018-10-03T08:41:59.000Z</time>
      </trkpt>
      <trkpt lat="42.45663167" lon="-7.93857833">
        <ele>449.0</ele>
        <time>2018-10-03T08:42:00.000Z</time>
      </trkpt>
      <trkpt lat="42.45663667" lon="-7.93859833">
        <ele>449.0</ele>
        <time>2018-10-03T08:42:01.000Z</time>
      </trkpt>
      <trkpt lat="42.45664" lon="-7.93861667">
        <ele>449.0</ele>
        <time>2018-10-03T08:42:02.000Z</time>
      </trkpt>
      <trkpt lat="42.45664333" lon="-7.93863167">
        <ele>449.0</ele>
        <time>2018-10-03T08:42:03.000Z</time>
      </trkpt>
      <trkpt lat="42.45664667" lon="-7.938645">
        <ele>449.0</ele>
        <time>2018-10-03T08:42:04.000Z</time>
      </trkpt>
      <trkpt lat="42.45665" lon="-7.93865667">
        <ele>449.0</ele>
        <time>2018-10-03T08:42:05.000Z</time>
      </trkpt>
      <trkpt lat="42.45665333" lon="-7.93867333">
        <ele>449.0</ele>
        <time>2018-10-03T08:42:06.000Z</time>
      </trkpt>
      <trkpt lat="42.456655" lon="-7.93869">
        <ele>448.0</ele>
        <time>2018-10-03T08:42:07.000Z</time>
      </trkpt>
      <trkpt lat="42.45665833" lon="-7.93870833">
        <ele>448.0</ele>
        <time>2018-10-03T08:42:08.000Z</time>
      </trkpt>
      <trkpt lat="42.45665833" lon="-7.93872667">
        <ele>448.0</ele>
        <time>2018-10-03T08:42:09.000Z</time>
      </trkpt>
      <trkpt lat="42.45665833" lon="-7.938745">
        <ele>448.0</ele>
        <time>2018-10-03T08:42:10.000Z</time>
      </trkpt>
      <trkpt lat="42.45665667" lon="-7.93876333">
        <ele>448.0</ele>
        <time>2018-10-03T08:42:11.000Z</time>
      </trkpt>
      <trkpt lat="42.456655" lon="-7.93878333">
        <ele>448.0</ele>
        <time>2018-10-03T08:42:12.000Z</time>
      </trkpt>
      <trkpt lat="42.45665333" lon="-7.9388">
        <ele>448.0</ele>
        <time>2018-10-03T08:42:13.000Z</time>
      </trkpt>
      <trkpt lat="42.45664833" lon="-7.93881833">
        <ele>448.0</ele>
        <time>2018-10-03T08:42:14.000Z</time>
      </trkpt>
      <trkpt lat="42.45664833" lon="-7.93883333">
        <ele>448.0</ele>
        <time>2018-10-03T08:42:15.000Z</time>
      </trkpt>
      <trkpt lat="42.45664833" lon="-7.93884667">
        <ele>448.0</ele>
        <time>2018-10-03T08:42:16.000Z</time>
      </trkpt>
      <trkpt lat="42.45664833" lon="-7.93886">
        <ele>448.0</ele>
        <time>2018-10-03T08:42:17.000Z</time>
      </trkpt>
      <trkpt lat="42.45665" lon="-7.938875">
        <ele>448.0</ele>
        <time>2018-10-03T08:42:18.000Z</time>
      </trkpt>
      <trkpt lat="42.45665333" lon="-7.93888667">
        <ele>448.0</ele>
        <time>2018-10-03T08:42:19.000Z</time>
      </trkpt>
      <trkpt lat="42.45665667" lon="-7.9389">
        <ele>448.0</ele>
        <time>2018-10-03T08:42:20.000Z</time>
      </trkpt>
      <trkpt lat="42.45666333" lon="-7.938915">
        <ele>447.0</ele>
        <time>2018-10-03T08:42:21.000Z</time>
      </trkpt>
      <trkpt lat="42.45666833" lon="-7.93893">
        <ele>447.0</ele>
        <time>2018-10-03T08:42:22.000Z</time>
      </trkpt>
      <trkpt lat="42.45667333" lon="-7.938945">
        <ele>447.0</ele>
        <time>2018-10-03T08:42:23.000Z</time>
      </trkpt>
      <trkpt lat="42.45667667" lon="-7.93895833">
        <ele>447.0</ele>
        <time>2018-10-03T08:42:24.000Z</time>
      </trkpt>
      <trkpt lat="42.45667667" lon="-7.93897333">
        <ele>447.0</ele>
        <time>2018-10-03T08:42:25.000Z</time>
      </trkpt>
      <trkpt lat="42.456675" lon="-7.93899333">
        <ele>447.0</ele>
        <time>2018-10-03T08:42:26.000Z</time>
      </trkpt>
      <trkpt lat="42.456675" lon="-7.93901333">
        <ele>447.0</ele>
        <time>2018-10-03T08:42:27.000Z</time>
      </trkpt>
      <trkpt lat="42.45667333" lon="-7.93902833">
        <ele>448.0</ele>
        <time>2018-10-03T08:42:28.000Z</time>
      </trkpt>
      <trkpt lat="42.45667333" lon="-7.93904667">
        <ele>448.0</ele>
        <time>2018-10-03T08:42:29.000Z</time>
      </trkpt>
      <trkpt lat="42.45667333" lon="-7.939065">
        <ele>448.0</ele>
        <time>2018-10-03T08:42:30.000Z</time>
      </trkpt>
      <trkpt lat="42.45667667" lon="-7.93908167">
        <ele>448.0</ele>
        <time>2018-10-03T08:42:31.000Z</time>
      </trkpt>
      <trkpt lat="42.45667833" lon="-7.939095">
        <ele>448.0</ele>
        <time>2018-10-03T08:42:32.000Z</time>
      </trkpt>
      <trkpt lat="42.45667833" lon="-7.93910833">
        <ele>448.0</ele>
        <time>2018-10-03T08:42:33.000Z</time>
      </trkpt>
      <trkpt lat="42.45667667" lon="-7.93912167">
        <ele>448.0</ele>
        <time>2018-10-03T08:42:34.000Z</time>
      </trkpt>
      <trkpt lat="42.45667333" lon="-7.939135">
        <ele>448.0</ele>
        <time>2018-10-03T08:42:35.000Z</time>
      </trkpt>
      <trkpt lat="42.45667" lon="-7.93914833">
        <ele>448.0</ele>
        <time>2018-10-03T08:42:36.000Z</time>
      </trkpt>
      <trkpt lat="42.45666667" lon="-7.93916">
        <ele>448.0</ele>
        <time>2018-10-03T08:42:37.000Z</time>
      </trkpt>
      <trkpt lat="42.45666167" lon="-7.93917667">
        <ele>448.0</ele>
        <time>2018-10-03T08:42:38.000Z</time>
      </trkpt>
      <trkpt lat="42.45666" lon="-7.93919167">
        <ele>448.0</ele>
        <time>2018-10-03T08:42:39.000Z</time>
      </trkpt>
      <trkpt lat="42.45665667" lon="-7.93920667">
        <ele>448.0</ele>
        <time>2018-10-03T08:42:40.000Z</time>
      </trkpt>
      <trkpt lat="42.45665667" lon="-7.93922333">
        <ele>448.0</ele>
        <time>2018-10-03T08:42:41.000Z</time>
      </trkpt>
      <trkpt lat="42.45665667" lon="-7.93924">
        <ele>448.0</ele>
        <time>2018-10-03T08:42:42.000Z</time>
      </trkpt>
      <trkpt lat="42.45665667" lon="-7.939255">
        <ele>448.0</ele>
        <time>2018-10-03T08:42:43.000Z</time>
      </trkpt>
      <trkpt lat="42.456655" lon="-7.93926833">
        <ele>448.0</ele>
        <time>2018-10-03T08:42:44.000Z</time>
      </trkpt>
      <trkpt lat="42.45665167" lon="-7.939285">
        <ele>448.0</ele>
        <time>2018-10-03T08:42:45.000Z</time>
      </trkpt>
      <trkpt lat="42.45664667" lon="-7.939305">
        <ele>448.0</ele>
        <time>2018-10-03T08:42:46.000Z</time>
      </trkpt>
      <trkpt lat="42.456645" lon="-7.93932167">
        <ele>448.0</ele>
        <time>2018-10-03T08:42:47.000Z</time>
      </trkpt>
      <trkpt lat="42.45664333" lon="-7.93933833">
        <ele>448.0</ele>
        <time>2018-10-03T08:42:48.000Z</time>
      </trkpt>
      <trkpt lat="42.45664" lon="-7.93935333">
        <ele>448.0</ele>
        <time>2018-10-03T08:42:49.000Z</time>
      </trkpt>
      <trkpt lat="42.45663667" lon="-7.93936833">
        <ele>448.0</ele>
        <time>2018-10-03T08:42:50.000Z</time>
      </trkpt>
      <trkpt lat="42.45663333" lon="-7.939385">
        <ele>448.0</ele>
        <time>2018-10-03T08:42:51.000Z</time>
      </trkpt>
      <trkpt lat="42.45662833" lon="-7.93939833">
        <ele>448.0</ele>
        <time>2018-10-03T08:42:52.000Z</time>
      </trkpt>
      <trkpt lat="42.456625" lon="-7.939415">
        <ele>448.0</ele>
        <time>2018-10-03T08:42:53.000Z</time>
      </trkpt>
      <trkpt lat="42.45662" lon="-7.93943333">
        <ele>448.0</ele>
        <time>2018-10-03T08:42:54.000Z</time>
      </trkpt>
      <trkpt lat="42.45661667" lon="-7.93945">
        <ele>448.0</ele>
        <time>2018-10-03T08:42:55.000Z</time>
      </trkpt>
      <trkpt lat="42.456615" lon="-7.93946833">
        <ele>449.0</ele>
        <time>2018-10-03T08:42:56.000Z</time>
      </trkpt>
      <trkpt lat="42.456615" lon="-7.93948667">
        <ele>449.0</ele>
        <time>2018-10-03T08:42:57.000Z</time>
      </trkpt>
      <trkpt lat="42.45661333" lon="-7.93950333">
        <ele>449.0</ele>
        <time>2018-10-03T08:42:58.000Z</time>
      </trkpt>
      <trkpt lat="42.45661" lon="-7.93952">
        <ele>449.0</ele>
        <time>2018-10-03T08:42:59.000Z</time>
      </trkpt>
      <trkpt lat="42.456605" lon="-7.93953167">
        <ele>449.0</ele>
        <time>2018-10-03T08:43:00.000Z</time>
      </trkpt>
      <trkpt lat="42.45660167" lon="-7.939545">
        <ele>450.0</ele>
        <time>2018-10-03T08:43:01.000Z</time>
      </trkpt>
      <trkpt lat="42.45659833" lon="-7.93956">
        <ele>450.0</ele>
        <time>2018-10-03T08:43:02.000Z</time>
      </trkpt>
      <trkpt lat="42.45659667" lon="-7.939575">
        <ele>450.0</ele>
        <time>2018-10-03T08:43:03.000Z</time>
      </trkpt>
      <trkpt lat="42.456595" lon="-7.93959167">
        <ele>450.0</ele>
        <time>2018-10-03T08:43:04.000Z</time>
      </trkpt>
      <trkpt lat="42.45659333" lon="-7.939605">
        <ele>450.0</ele>
        <time>2018-10-03T08:43:05.000Z</time>
      </trkpt>
      <trkpt lat="42.45659333" lon="-7.939615">
        <ele>450.0</ele>
        <time>2018-10-03T08:43:06.000Z</time>
      </trkpt>
      <trkpt lat="42.45659333" lon="-7.93963">
        <ele>450.0</ele>
        <time>2018-10-03T08:43:07.000Z</time>
      </trkpt>
      <trkpt lat="42.45659333" lon="-7.93964667">
        <ele>451.0</ele>
        <time>2018-10-03T08:43:08.000Z</time>
      </trkpt>
      <trkpt lat="42.45659333" lon="-7.93966167">
        <ele>451.0</ele>
        <time>2018-10-03T08:43:09.000Z</time>
      </trkpt>
      <trkpt lat="42.456595" lon="-7.939675">
        <ele>451.0</ele>
        <time>2018-10-03T08:43:10.000Z</time>
      </trkpt>
      <trkpt lat="42.456595" lon="-7.93968667">
        <ele>451.0</ele>
        <time>2018-10-03T08:43:11.000Z</time>
      </trkpt>
      <trkpt lat="42.45659333" lon="-7.93970167">
        <ele>451.0</ele>
        <time>2018-10-03T08:43:12.000Z</time>
      </trkpt>
      <trkpt lat="42.45659" lon="-7.939715">
        <ele>451.0</ele>
        <time>2018-10-03T08:43:13.000Z</time>
      </trkpt>
      <trkpt lat="42.45658667" lon="-7.93973">
        <ele>451.0</ele>
        <time>2018-10-03T08:43:14.000Z</time>
      </trkpt>
      <trkpt lat="42.456585" lon="-7.93974667">
        <ele>451.0</ele>
        <time>2018-10-03T08:43:15.000Z</time>
      </trkpt>
      <trkpt lat="42.45658667" lon="-7.93976167">
        <ele>451.0</ele>
        <time>2018-10-03T08:43:16.000Z</time>
      </trkpt>
      <trkpt lat="42.45658833" lon="-7.93977667">
        <ele>451.0</ele>
        <time>2018-10-03T08:43:17.000Z</time>
      </trkpt>
      <trkpt lat="42.45658667" lon="-7.93979333">
        <ele>451.0</ele>
        <time>2018-10-03T08:43:18.000Z</time>
      </trkpt>
      <trkpt lat="42.45658667" lon="-7.93980833">
        <ele>451.0</ele>
        <time>2018-10-03T08:43:19.000Z</time>
      </trkpt>
      <trkpt lat="42.45658833" lon="-7.939825">
        <ele>451.0</ele>
        <time>2018-10-03T08:43:20.000Z</time>
      </trkpt>
      <trkpt lat="42.45659" lon="-7.93983833">
        <ele>451.0</ele>
        <time>2018-10-03T08:43:21.000Z</time>
      </trkpt>
      <trkpt lat="42.45659" lon="-7.93985333">
        <ele>452.0</ele>
        <time>2018-10-03T08:43:22.000Z</time>
      </trkpt>
      <trkpt lat="42.45658833" lon="-7.93986833">
        <ele>452.0</ele>
        <time>2018-10-03T08:43:23.000Z</time>
      </trkpt>
      <trkpt lat="42.45658667" lon="-7.93988333">
        <ele>452.0</ele>
        <time>2018-10-03T08:43:24.000Z</time>
      </trkpt>
      <trkpt lat="42.456585" lon="-7.939895">
        <ele>452.0</ele>
        <time>2018-10-03T08:43:25.000Z</time>
      </trkpt>
      <trkpt lat="42.45658333" lon="-7.93991">
        <ele>452.0</ele>
        <time>2018-10-03T08:43:26.000Z</time>
      </trkpt>
      <trkpt lat="42.45658" lon="-7.939925">
        <ele>452.0</ele>
        <time>2018-10-03T08:43:27.000Z</time>
      </trkpt>
      <trkpt lat="42.45657667" lon="-7.93994167">
        <ele>452.0</ele>
        <time>2018-10-03T08:43:28.000Z</time>
      </trkpt>
      <trkpt lat="42.45657333" lon="-7.93995667">
        <ele>453.0</ele>
        <time>2018-10-03T08:43:29.000Z</time>
      </trkpt>
      <trkpt lat="42.45657167" lon="-7.93997167">
        <ele>453.0</ele>
        <time>2018-10-03T08:43:30.000Z</time>
      </trkpt>
      <trkpt lat="42.45656833" lon="-7.93999">
        <ele>453.0</ele>
        <time>2018-10-03T08:43:31.000Z</time>
      </trkpt>
      <trkpt lat="42.456565" lon="-7.94000833">
        <ele>453.0</ele>
        <time>2018-10-03T08:43:32.000Z</time>
      </trkpt>
      <trkpt lat="42.45656333" lon="-7.94002833">
        <ele>454.0</ele>
        <time>2018-10-03T08:43:33.000Z</time>
      </trkpt>
      <trkpt lat="42.45656167" lon="-7.94004833">
        <ele>454.0</ele>
        <time>2018-10-03T08:43:34.000Z</time>
      </trkpt>
      <trkpt lat="42.45656" lon="-7.94006667">
        <ele>454.0</ele>
        <time>2018-10-03T08:43:35.000Z</time>
      </trkpt>
      <trkpt lat="42.45655833" lon="-7.94009">
        <ele>454.0</ele>
        <time>2018-10-03T08:43:36.000Z</time>
      </trkpt>
      <trkpt lat="42.45655833" lon="-7.940115">
        <ele>455.0</ele>
        <time>2018-10-03T08:43:37.000Z</time>
      </trkpt>
      <trkpt lat="42.45655667" lon="-7.940135">
        <ele>455.0</ele>
        <time>2018-10-03T08:43:38.000Z</time>
      </trkpt>
      <trkpt lat="42.45655333" lon="-7.940155">
        <ele>455.0</ele>
        <time>2018-10-03T08:43:39.000Z</time>
      </trkpt>
      <trkpt lat="42.45655167" lon="-7.940175">
        <ele>455.0</ele>
        <time>2018-10-03T08:43:40.000Z</time>
      </trkpt>
      <trkpt lat="42.45655" lon="-7.940195">
        <ele>455.0</ele>
        <time>2018-10-03T08:43:41.000Z</time>
      </trkpt>
      <trkpt lat="42.45655167" lon="-7.94021667">
        <ele>455.0</ele>
        <time>2018-10-03T08:43:42.000Z</time>
      </trkpt>
      <trkpt lat="42.45655" lon="-7.94023667">
        <ele>455.0</ele>
        <time>2018-10-03T08:43:43.000Z</time>
      </trkpt>
      <trkpt lat="42.45655" lon="-7.94025667">
        <ele>455.0</ele>
        <time>2018-10-03T08:43:44.000Z</time>
      </trkpt>
      <trkpt lat="42.45654833" lon="-7.94027667">
        <ele>455.0</ele>
        <time>2018-10-03T08:43:45.000Z</time>
      </trkpt>
      <trkpt lat="42.45654833" lon="-7.940295">
        <ele>455.0</ele>
        <time>2018-10-03T08:43:46.000Z</time>
      </trkpt>
      <trkpt lat="42.45654833" lon="-7.94031167">
        <ele>455.0</ele>
        <time>2018-10-03T08:43:47.000Z</time>
      </trkpt>
      <trkpt lat="42.45654667" lon="-7.94033">
        <ele>455.0</ele>
        <time>2018-10-03T08:43:48.000Z</time>
      </trkpt>
      <trkpt lat="42.45654333" lon="-7.940345">
        <ele>455.0</ele>
        <time>2018-10-03T08:43:49.000Z</time>
      </trkpt>
      <trkpt lat="42.45654167" lon="-7.94036167">
        <ele>455.0</ele>
        <time>2018-10-03T08:43:50.000Z</time>
      </trkpt>
      <trkpt lat="42.45654167" lon="-7.94037333">
        <ele>455.0</ele>
        <time>2018-10-03T08:43:51.000Z</time>
      </trkpt>
      <trkpt lat="42.45654" lon="-7.94038667">
        <ele>455.0</ele>
        <time>2018-10-03T08:43:52.000Z</time>
      </trkpt>
      <trkpt lat="42.45653667" lon="-7.94040167">
        <ele>455.0</ele>
        <time>2018-10-03T08:43:53.000Z</time>
      </trkpt>
      <trkpt lat="42.45653667" lon="-7.940415">
        <ele>455.0</ele>
        <time>2018-10-03T08:43:54.000Z</time>
      </trkpt>
      <trkpt lat="42.45653333" lon="-7.94043167">
        <ele>455.0</ele>
        <time>2018-10-03T08:43:55.000Z</time>
      </trkpt>
      <trkpt lat="42.45653167" lon="-7.94045">
        <ele>454.0</ele>
        <time>2018-10-03T08:43:56.000Z</time>
      </trkpt>
      <trkpt lat="42.45653" lon="-7.94046833">
        <ele>454.0</ele>
        <time>2018-10-03T08:43:57.000Z</time>
      </trkpt>
      <trkpt lat="42.45653167" lon="-7.940485">
        <ele>455.0</ele>
        <time>2018-10-03T08:43:58.000Z</time>
      </trkpt>
      <trkpt lat="42.45653167" lon="-7.94050167">
        <ele>455.0</ele>
        <time>2018-10-03T08:43:59.000Z</time>
      </trkpt>
      <trkpt lat="42.456535" lon="-7.94051833">
        <ele>455.0</ele>
        <time>2018-10-03T08:44:00.000Z</time>
      </trkpt>
      <trkpt lat="42.45653667" lon="-7.94053167">
        <ele>455.0</ele>
        <time>2018-10-03T08:44:01.000Z</time>
      </trkpt>
      <trkpt lat="42.45654" lon="-7.94054667">
        <ele>455.0</ele>
        <time>2018-10-03T08:44:02.000Z</time>
      </trkpt>
      <trkpt lat="42.45654167" lon="-7.94056333">
        <ele>455.0</ele>
        <time>2018-10-03T08:44:03.000Z</time>
      </trkpt>
      <trkpt lat="42.456545" lon="-7.94058333">
        <ele>455.0</ele>
        <time>2018-10-03T08:44:04.000Z</time>
      </trkpt>
      <trkpt lat="42.45654667" lon="-7.9406">
        <ele>455.0</ele>
        <time>2018-10-03T08:44:05.000Z</time>
      </trkpt>
      <trkpt lat="42.45654833" lon="-7.94061833">
        <ele>455.0</ele>
        <time>2018-10-03T08:44:06.000Z</time>
      </trkpt>
      <trkpt lat="42.45655167" lon="-7.94063667">
        <ele>455.0</ele>
        <time>2018-10-03T08:44:07.000Z</time>
      </trkpt>
      <trkpt lat="42.456555" lon="-7.94065667">
        <ele>455.0</ele>
        <time>2018-10-03T08:44:08.000Z</time>
      </trkpt>
      <trkpt lat="42.45655833" lon="-7.940675">
        <ele>455.0</ele>
        <time>2018-10-03T08:44:09.000Z</time>
      </trkpt>
      <trkpt lat="42.45656" lon="-7.94069333">
        <ele>455.0</ele>
        <time>2018-10-03T08:44:10.000Z</time>
      </trkpt>
      <trkpt lat="42.45656333" lon="-7.94071167">
        <ele>455.0</ele>
        <time>2018-10-03T08:44:11.000Z</time>
      </trkpt>
      <trkpt lat="42.45656667" lon="-7.94073167">
        <ele>455.0</ele>
        <time>2018-10-03T08:44:12.000Z</time>
      </trkpt>
      <trkpt lat="42.45657" lon="-7.94075167">
        <ele>456.0</ele>
        <time>2018-10-03T08:44:13.000Z</time>
      </trkpt>
      <trkpt lat="42.45657167" lon="-7.94077167">
        <ele>456.0</ele>
        <time>2018-10-03T08:44:14.000Z</time>
      </trkpt>
      <trkpt lat="42.456575" lon="-7.94079167">
        <ele>456.0</ele>
        <time>2018-10-03T08:44:15.000Z</time>
      </trkpt>
      <trkpt lat="42.45657667" lon="-7.94081">
        <ele>456.0</ele>
        <time>2018-10-03T08:44:16.000Z</time>
      </trkpt>
      <trkpt lat="42.45657667" lon="-7.94082833">
        <ele>456.0</ele>
        <time>2018-10-03T08:44:17.000Z</time>
      </trkpt>
      <trkpt lat="42.456575" lon="-7.94084667">
        <ele>456.0</ele>
        <time>2018-10-03T08:44:18.000Z</time>
      </trkpt>
      <trkpt lat="42.456575" lon="-7.94086667">
        <ele>456.0</ele>
        <time>2018-10-03T08:44:19.000Z</time>
      </trkpt>
      <trkpt lat="42.45657667" lon="-7.94088667">
        <ele>456.0</ele>
        <time>2018-10-03T08:44:20.000Z</time>
      </trkpt>
      <trkpt lat="42.45657833" lon="-7.94090667">
        <ele>456.0</ele>
        <time>2018-10-03T08:44:21.000Z</time>
      </trkpt>
      <trkpt lat="42.456585" lon="-7.94092667">
        <ele>456.0</ele>
        <time>2018-10-03T08:44:22.000Z</time>
      </trkpt>
      <trkpt lat="42.45659" lon="-7.94095">
        <ele>456.0</ele>
        <time>2018-10-03T08:44:23.000Z</time>
      </trkpt>
      <trkpt lat="42.45659333" lon="-7.94097167">
        <ele>457.0</ele>
        <time>2018-10-03T08:44:24.000Z</time>
      </trkpt>
      <trkpt lat="42.45659833" lon="-7.94098833">
        <ele>457.0</ele>
        <time>2018-10-03T08:44:25.000Z</time>
      </trkpt>
      <trkpt lat="42.45660167" lon="-7.94101">
        <ele>457.0</ele>
        <time>2018-10-03T08:44:26.000Z</time>
      </trkpt>
      <trkpt lat="42.456605" lon="-7.94103167">
        <ele>457.0</ele>
        <time>2018-10-03T08:44:27.000Z</time>
      </trkpt>
      <trkpt lat="42.45660667" lon="-7.94105167">
        <ele>457.0</ele>
        <time>2018-10-03T08:44:28.000Z</time>
      </trkpt>
      <trkpt lat="42.45660833" lon="-7.94107167">
        <ele>457.0</ele>
        <time>2018-10-03T08:44:29.000Z</time>
      </trkpt>
      <trkpt lat="42.45661" lon="-7.94109333">
        <ele>458.0</ele>
        <time>2018-10-03T08:44:30.000Z</time>
      </trkpt>
      <trkpt lat="42.45661" lon="-7.94111333">
        <ele>458.0</ele>
        <time>2018-10-03T08:44:31.000Z</time>
      </trkpt>
      <trkpt lat="42.45661167" lon="-7.941135">
        <ele>458.0</ele>
        <time>2018-10-03T08:44:32.000Z</time>
      </trkpt>
      <trkpt lat="42.45661333" lon="-7.941155">
        <ele>458.0</ele>
        <time>2018-10-03T08:44:33.000Z</time>
      </trkpt>
      <trkpt lat="42.45661333" lon="-7.94117333">
        <ele>458.0</ele>
        <time>2018-10-03T08:44:34.000Z</time>
      </trkpt>
      <trkpt lat="42.45661333" lon="-7.941195">
        <ele>458.0</ele>
        <time>2018-10-03T08:44:35.000Z</time>
      </trkpt>
      <trkpt lat="42.456615" lon="-7.94121333">
        <ele>458.0</ele>
        <time>2018-10-03T08:44:36.000Z</time>
      </trkpt>
      <trkpt lat="42.45661667" lon="-7.94123333">
        <ele>458.0</ele>
        <time>2018-10-03T08:44:37.000Z</time>
      </trkpt>
      <trkpt lat="42.45661667" lon="-7.94125167">
        <ele>458.0</ele>
        <time>2018-10-03T08:44:38.000Z</time>
      </trkpt>
      <trkpt lat="42.456615" lon="-7.94127">
        <ele>458.0</ele>
        <time>2018-10-03T08:44:39.000Z</time>
      </trkpt>
      <trkpt lat="42.45661167" lon="-7.94129167">
        <ele>458.0</ele>
        <time>2018-10-03T08:44:40.000Z</time>
      </trkpt>
      <trkpt lat="42.45660833" lon="-7.94131167">
        <ele>458.0</ele>
        <time>2018-10-03T08:44:41.000Z</time>
      </trkpt>
      <trkpt lat="42.45660667" lon="-7.94133667">
        <ele>458.0</ele>
        <time>2018-10-03T08:44:42.000Z</time>
      </trkpt>
      <trkpt lat="42.45660333" lon="-7.94136">
        <ele>458.0</ele>
        <time>2018-10-03T08:44:43.000Z</time>
      </trkpt>
      <trkpt lat="42.4566" lon="-7.94138333">
        <ele>458.0</ele>
        <time>2018-10-03T08:44:44.000Z</time>
      </trkpt>
      <trkpt lat="42.45659667" lon="-7.94140333">
        <ele>458.0</ele>
        <time>2018-10-03T08:44:45.000Z</time>
      </trkpt>
      <trkpt lat="42.456595" lon="-7.94142333">
        <ele>458.0</ele>
        <time>2018-10-03T08:44:46.000Z</time>
      </trkpt>
      <trkpt lat="42.456595" lon="-7.94144333">
        <ele>458.0</ele>
        <time>2018-10-03T08:44:47.000Z</time>
      </trkpt>
      <trkpt lat="42.45659333" lon="-7.941465">
        <ele>458.0</ele>
        <time>2018-10-03T08:44:48.000Z</time>
      </trkpt>
      <trkpt lat="42.45659333" lon="-7.94148667">
        <ele>458.0</ele>
        <time>2018-10-03T08:44:49.000Z</time>
      </trkpt>
      <trkpt lat="42.45659167" lon="-7.941505">
        <ele>458.0</ele>
        <time>2018-10-03T08:44:50.000Z</time>
      </trkpt>
      <trkpt lat="42.45659" lon="-7.941525">
        <ele>458.0</ele>
        <time>2018-10-03T08:44:51.000Z</time>
      </trkpt>
      <trkpt lat="42.45658833" lon="-7.94154833">
        <ele>458.0</ele>
        <time>2018-10-03T08:44:52.000Z</time>
      </trkpt>
      <trkpt lat="42.45658667" lon="-7.94157">
        <ele>458.0</ele>
        <time>2018-10-03T08:44:53.000Z</time>
      </trkpt>
      <trkpt lat="42.45658667" lon="-7.94159333">
        <ele>457.0</ele>
        <time>2018-10-03T08:44:54.000Z</time>
      </trkpt>
      <trkpt lat="42.45658833" lon="-7.941615">
        <ele>457.0</ele>
        <time>2018-10-03T08:44:55.000Z</time>
      </trkpt>
      <trkpt lat="42.456585" lon="-7.941635">
        <ele>457.0</ele>
        <time>2018-10-03T08:44:56.000Z</time>
      </trkpt>
      <trkpt lat="42.45658167" lon="-7.94165333">
        <ele>457.0</ele>
        <time>2018-10-03T08:44:57.000Z</time>
      </trkpt>
      <trkpt lat="42.45658" lon="-7.94167167">
        <ele>457.0</ele>
        <time>2018-10-03T08:44:58.000Z</time>
      </trkpt>
      <trkpt lat="42.45657833" lon="-7.94169167">
        <ele>457.0</ele>
        <time>2018-10-03T08:44:59.000Z</time>
      </trkpt>
      <trkpt lat="42.45657667" lon="-7.94171">
        <ele>457.0</ele>
        <time>2018-10-03T08:45:00.000Z</time>
      </trkpt>
      <trkpt lat="42.45657667" lon="-7.94172833">
        <ele>457.0</ele>
        <time>2018-10-03T08:45:01.000Z</time>
      </trkpt>
      <trkpt lat="42.456575" lon="-7.94174833">
        <ele>457.0</ele>
        <time>2018-10-03T08:45:02.000Z</time>
      </trkpt>
      <trkpt lat="42.456575" lon="-7.94176833">
        <ele>457.0</ele>
        <time>2018-10-03T08:45:03.000Z</time>
      </trkpt>
      <trkpt lat="42.45657667" lon="-7.94179">
        <ele>457.0</ele>
        <time>2018-10-03T08:45:04.000Z</time>
      </trkpt>
      <trkpt lat="42.45657667" lon="-7.94181">
        <ele>457.0</ele>
        <time>2018-10-03T08:45:05.000Z</time>
      </trkpt>
      <trkpt lat="42.45657833" lon="-7.94183">
        <ele>457.0</ele>
        <time>2018-10-03T08:45:06.000Z</time>
      </trkpt>
      <trkpt lat="42.45657833" lon="-7.94185">
        <ele>457.0</ele>
        <time>2018-10-03T08:45:07.000Z</time>
      </trkpt>
      <trkpt lat="42.45658" lon="-7.94187">
        <ele>457.0</ele>
        <time>2018-10-03T08:45:08.000Z</time>
      </trkpt>
      <trkpt lat="42.45658167" lon="-7.94189">
        <ele>457.0</ele>
        <time>2018-10-03T08:45:09.000Z</time>
      </trkpt>
      <trkpt lat="42.45658333" lon="-7.94191">
        <ele>457.0</ele>
        <time>2018-10-03T08:45:10.000Z</time>
      </trkpt>
      <trkpt lat="42.45658333" lon="-7.94193167">
        <ele>457.0</ele>
        <time>2018-10-03T08:45:11.000Z</time>
      </trkpt>
      <trkpt lat="42.45658333" lon="-7.94195167">
        <ele>457.0</ele>
        <time>2018-10-03T08:45:12.000Z</time>
      </trkpt>
      <trkpt lat="42.456585" lon="-7.94197167">
        <ele>457.0</ele>
        <time>2018-10-03T08:45:13.000Z</time>
      </trkpt>
      <trkpt lat="42.45658667" lon="-7.94199167">
        <ele>457.0</ele>
        <time>2018-10-03T08:45:14.000Z</time>
      </trkpt>
      <trkpt lat="42.45658833" lon="-7.94200833">
        <ele>457.0</ele>
        <time>2018-10-03T08:45:15.000Z</time>
      </trkpt>
      <trkpt lat="42.45658833" lon="-7.942025">
        <ele>457.0</ele>
        <time>2018-10-03T08:45:16.000Z</time>
      </trkpt>
      <trkpt lat="42.45658833" lon="-7.94204333">
        <ele>457.0</ele>
        <time>2018-10-03T08:45:17.000Z</time>
      </trkpt>
      <trkpt lat="42.45659" lon="-7.94206167">
        <ele>457.0</ele>
        <time>2018-10-03T08:45:18.000Z</time>
      </trkpt>
      <trkpt lat="42.45659" lon="-7.94208">
        <ele>457.0</ele>
        <time>2018-10-03T08:45:19.000Z</time>
      </trkpt>
      <trkpt lat="42.45658833" lon="-7.9421">
        <ele>457.0</ele>
        <time>2018-10-03T08:45:20.000Z</time>
      </trkpt>
      <trkpt lat="42.45658833" lon="-7.94212167">
        <ele>457.0</ele>
        <time>2018-10-03T08:45:21.000Z</time>
      </trkpt>
      <trkpt lat="42.45659" lon="-7.94214667">
        <ele>457.0</ele>
        <time>2018-10-03T08:45:22.000Z</time>
      </trkpt>
      <trkpt lat="42.45659" lon="-7.94217167">
        <ele>457.0</ele>
        <time>2018-10-03T08:45:23.000Z</time>
      </trkpt>
      <trkpt lat="42.45659167" lon="-7.94219667">
        <ele>457.0</ele>
        <time>2018-10-03T08:45:24.000Z</time>
      </trkpt>
      <trkpt lat="42.45659667" lon="-7.94222167">
        <ele>457.0</ele>
        <time>2018-10-03T08:45:25.000Z</time>
      </trkpt>
      <trkpt lat="42.4566" lon="-7.942245">
        <ele>457.0</ele>
        <time>2018-10-03T08:45:26.000Z</time>
      </trkpt>
      <trkpt lat="42.456605" lon="-7.94226667">
        <ele>457.0</ele>
        <time>2018-10-03T08:45:27.000Z</time>
      </trkpt>
      <trkpt lat="42.45660667" lon="-7.94228833">
        <ele>457.0</ele>
        <time>2018-10-03T08:45:28.000Z</time>
      </trkpt>
      <trkpt lat="42.45661" lon="-7.94231167">
        <ele>456.0</ele>
        <time>2018-10-03T08:45:29.000Z</time>
      </trkpt>
      <trkpt lat="42.45661167" lon="-7.94233333">
        <ele>456.0</ele>
        <time>2018-10-03T08:45:30.000Z</time>
      </trkpt>
      <trkpt lat="42.45661333" lon="-7.94235333">
        <ele>456.0</ele>
        <time>2018-10-03T08:45:31.000Z</time>
      </trkpt>
      <trkpt lat="42.45661667" lon="-7.942375">
        <ele>456.0</ele>
        <time>2018-10-03T08:45:32.000Z</time>
      </trkpt>
      <trkpt lat="42.45661667" lon="-7.94239167">
        <ele>456.0</ele>
        <time>2018-10-03T08:45:33.000Z</time>
      </trkpt>
      <trkpt lat="42.45661833" lon="-7.94241167">
        <ele>456.0</ele>
        <time>2018-10-03T08:45:34.000Z</time>
      </trkpt>
      <trkpt lat="42.45662167" lon="-7.94243333">
        <ele>456.0</ele>
        <time>2018-10-03T08:45:35.000Z</time>
      </trkpt>
      <trkpt lat="42.45662333" lon="-7.94245833">
        <ele>456.0</ele>
        <time>2018-10-03T08:45:36.000Z</time>
      </trkpt>
      <trkpt lat="42.45662667" lon="-7.94248">
        <ele>456.0</ele>
        <time>2018-10-03T08:45:37.000Z</time>
      </trkpt>
      <trkpt lat="42.45663" lon="-7.94250333">
        <ele>456.0</ele>
        <time>2018-10-03T08:45:38.000Z</time>
      </trkpt>
      <trkpt lat="42.45663" lon="-7.942525">
        <ele>456.0</ele>
        <time>2018-10-03T08:45:39.000Z</time>
      </trkpt>
      <trkpt lat="42.45663333" lon="-7.94254667">
        <ele>456.0</ele>
        <time>2018-10-03T08:45:40.000Z</time>
      </trkpt>
      <trkpt lat="42.456635" lon="-7.94256667">
        <ele>456.0</ele>
        <time>2018-10-03T08:45:41.000Z</time>
      </trkpt>
      <trkpt lat="42.45663833" lon="-7.94258833">
        <ele>456.0</ele>
        <time>2018-10-03T08:45:42.000Z</time>
      </trkpt>
      <trkpt lat="42.45664" lon="-7.94261167">
        <ele>456.0</ele>
        <time>2018-10-03T08:45:43.000Z</time>
      </trkpt>
      <trkpt lat="42.45664167" lon="-7.94263333">
        <ele>456.0</ele>
        <time>2018-10-03T08:45:44.000Z</time>
      </trkpt>
      <trkpt lat="42.45664167" lon="-7.942655">
        <ele>457.0</ele>
        <time>2018-10-03T08:45:45.000Z</time>
      </trkpt>
      <trkpt lat="42.45664333" lon="-7.942675">
        <ele>457.0</ele>
        <time>2018-10-03T08:45:46.000Z</time>
      </trkpt>
      <trkpt lat="42.45664167" lon="-7.94269167">
        <ele>457.0</ele>
        <time>2018-10-03T08:45:47.000Z</time>
      </trkpt>
      <trkpt lat="42.45664" lon="-7.94271167">
        <ele>456.0</ele>
        <time>2018-10-03T08:45:48.000Z</time>
      </trkpt>
      <trkpt lat="42.45663667" lon="-7.94273">
        <ele>456.0</ele>
        <time>2018-10-03T08:45:49.000Z</time>
      </trkpt>
      <trkpt lat="42.45663833" lon="-7.94274667">
        <ele>457.0</ele>
        <time>2018-10-03T08:45:50.000Z</time>
      </trkpt>
      <trkpt lat="42.45664" lon="-7.942765">
        <ele>457.0</ele>
        <time>2018-10-03T08:45:51.000Z</time>
      </trkpt>
      <trkpt lat="42.45664333" lon="-7.94278">
        <ele>457.0</ele>
        <time>2018-10-03T08:45:52.000Z</time>
      </trkpt>
      <trkpt lat="42.456645" lon="-7.94279667">
        <ele>457.0</ele>
        <time>2018-10-03T08:45:53.000Z</time>
      </trkpt>
      <trkpt lat="42.45664667" lon="-7.942815">
        <ele>457.0</ele>
        <time>2018-10-03T08:45:54.000Z</time>
      </trkpt>
      <trkpt lat="42.45664667" lon="-7.942835">
        <ele>457.0</ele>
        <time>2018-10-03T08:45:55.000Z</time>
      </trkpt>
      <trkpt lat="42.456645" lon="-7.942855">
        <ele>457.0</ele>
        <time>2018-10-03T08:45:56.000Z</time>
      </trkpt>
      <trkpt lat="42.45664667" lon="-7.94287667">
        <ele>457.0</ele>
        <time>2018-10-03T08:45:57.000Z</time>
      </trkpt>
      <trkpt lat="42.45664667" lon="-7.94289667">
        <ele>457.0</ele>
        <time>2018-10-03T08:45:58.000Z</time>
      </trkpt>
      <trkpt lat="42.456645" lon="-7.94291833">
        <ele>457.0</ele>
        <time>2018-10-03T08:45:59.000Z</time>
      </trkpt>
      <trkpt lat="42.456645" lon="-7.94294">
        <ele>457.0</ele>
        <time>2018-10-03T08:46:00.000Z</time>
      </trkpt>
      <trkpt lat="42.45664333" lon="-7.94296">
        <ele>457.0</ele>
        <time>2018-10-03T08:46:01.000Z</time>
      </trkpt>
      <trkpt lat="42.45664333" lon="-7.94297833">
        <ele>456.0</ele>
        <time>2018-10-03T08:46:02.000Z</time>
      </trkpt>
      <trkpt lat="42.45664333" lon="-7.943">
        <ele>456.0</ele>
        <time>2018-10-03T08:46:03.000Z</time>
      </trkpt>
      <trkpt lat="42.45664333" lon="-7.94302167">
        <ele>456.0</ele>
        <time>2018-10-03T08:46:04.000Z</time>
      </trkpt>
      <trkpt lat="42.45664167" lon="-7.94304333">
        <ele>457.0</ele>
        <time>2018-10-03T08:46:05.000Z</time>
      </trkpt>
      <trkpt lat="42.45664" lon="-7.94306167">
        <ele>457.0</ele>
        <time>2018-10-03T08:46:06.000Z</time>
      </trkpt>
      <trkpt lat="42.45664" lon="-7.94308">
        <ele>457.0</ele>
        <time>2018-10-03T08:46:07.000Z</time>
      </trkpt>
      <trkpt lat="42.45664" lon="-7.94309833">
        <ele>457.0</ele>
        <time>2018-10-03T08:46:08.000Z</time>
      </trkpt>
      <trkpt lat="42.45664167" lon="-7.943115">
        <ele>457.0</ele>
        <time>2018-10-03T08:46:09.000Z</time>
      </trkpt>
      <trkpt lat="42.45664167" lon="-7.943135">
        <ele>457.0</ele>
        <time>2018-10-03T08:46:10.000Z</time>
      </trkpt>
      <trkpt lat="42.45664" lon="-7.94315333">
        <ele>457.0</ele>
        <time>2018-10-03T08:46:11.000Z</time>
      </trkpt>
      <trkpt lat="42.45663833" lon="-7.94316833">
        <ele>457.0</ele>
        <time>2018-10-03T08:46:12.000Z</time>
      </trkpt>
      <trkpt lat="42.45663667" lon="-7.94318167">
        <ele>457.0</ele>
        <time>2018-10-03T08:46:13.000Z</time>
      </trkpt>
      <trkpt lat="42.456635" lon="-7.94319333">
        <ele>457.0</ele>
        <time>2018-10-03T08:46:14.000Z</time>
      </trkpt>
      <trkpt lat="42.456635" lon="-7.943205">
        <ele>457.0</ele>
        <time>2018-10-03T08:46:15.000Z</time>
      </trkpt>
      <trkpt lat="42.456635" lon="-7.94321333">
        <ele>458.0</ele>
        <time>2018-10-03T08:46:16.000Z</time>
      </trkpt>
      <trkpt lat="42.45663667" lon="-7.94322333">
        <ele>458.0</ele>
        <time>2018-10-03T08:46:17.000Z</time>
      </trkpt>
      <trkpt lat="42.45663833" lon="-7.943235">
        <ele>458.0</ele>
        <time>2018-10-03T08:46:18.000Z</time>
      </trkpt>
      <trkpt lat="42.45663833" lon="-7.943245">
        <ele>458.0</ele>
        <time>2018-10-03T08:46:19.000Z</time>
      </trkpt>
      <trkpt lat="42.45663667" lon="-7.94325333">
        <ele>458.0</ele>
        <time>2018-10-03T08:46:20.000Z</time>
      </trkpt>
      <trkpt lat="42.45663667" lon="-7.94326333">
        <ele>458.0</ele>
        <time>2018-10-03T08:46:21.000Z</time>
      </trkpt>
      <trkpt lat="42.45663667" lon="-7.94327">
        <ele>458.0</ele>
        <time>2018-10-03T08:46:22.000Z</time>
      </trkpt>
      <trkpt lat="42.45663667" lon="-7.94327833">
        <ele>458.0</ele>
        <time>2018-10-03T08:46:23.000Z</time>
      </trkpt>
      <trkpt lat="42.45663833" lon="-7.94328833">
        <ele>458.0</ele>
        <time>2018-10-03T08:46:24.000Z</time>
      </trkpt>
      <trkpt lat="42.45663833" lon="-7.943295">
        <ele>458.0</ele>
        <time>2018-10-03T08:46:25.000Z</time>
      </trkpt>
      <trkpt lat="42.45663833" lon="-7.943305">
        <ele>458.0</ele>
        <time>2018-10-03T08:46:26.000Z</time>
      </trkpt>
      <trkpt lat="42.45663833" lon="-7.94331667">
        <ele>458.0</ele>
        <time>2018-10-03T08:46:27.000Z</time>
      </trkpt>
      <trkpt lat="42.45663667" lon="-7.94332833">
        <ele>458.0</ele>
        <time>2018-10-03T08:46:28.000Z</time>
      </trkpt>
      <trkpt lat="42.45663667" lon="-7.943345">
        <ele>458.0</ele>
        <time>2018-10-03T08:46:29.000Z</time>
      </trkpt>
      <trkpt lat="42.45663667" lon="-7.94336">
        <ele>458.0</ele>
        <time>2018-10-03T08:46:30.000Z</time>
      </trkpt>
      <trkpt lat="42.456635" lon="-7.94337667">
        <ele>458.0</ele>
        <time>2018-10-03T08:46:31.000Z</time>
      </trkpt>
      <trkpt lat="42.456635" lon="-7.94339333">
        <ele>458.0</ele>
        <time>2018-10-03T08:46:32.000Z</time>
      </trkpt>
      <trkpt lat="42.456635" lon="-7.94341">
        <ele>458.0</ele>
        <time>2018-10-03T08:46:33.000Z</time>
      </trkpt>
      <trkpt lat="42.456635" lon="-7.94342667">
        <ele>458.0</ele>
        <time>2018-10-03T08:46:34.000Z</time>
      </trkpt>
      <trkpt lat="42.45663333" lon="-7.943445">
        <ele>458.0</ele>
        <time>2018-10-03T08:46:35.000Z</time>
      </trkpt>
      <trkpt lat="42.45663" lon="-7.94346167">
        <ele>458.0</ele>
        <time>2018-10-03T08:46:36.000Z</time>
      </trkpt>
      <trkpt lat="42.45662833" lon="-7.94348167">
        <ele>459.0</ele>
        <time>2018-10-03T08:46:37.000Z</time>
      </trkpt>
      <trkpt lat="42.45662667" lon="-7.9435">
        <ele>459.0</ele>
        <time>2018-10-03T08:46:38.000Z</time>
      </trkpt>
      <trkpt lat="42.456625" lon="-7.94352">
        <ele>459.0</ele>
        <time>2018-10-03T08:46:39.000Z</time>
      </trkpt>
      <trkpt lat="42.456625" lon="-7.94354">
        <ele>459.0</ele>
        <time>2018-10-03T08:46:40.000Z</time>
      </trkpt>
      <trkpt lat="42.456625" lon="-7.94356">
        <ele>459.0</ele>
        <time>2018-10-03T08:46:41.000Z</time>
      </trkpt>
      <trkpt lat="42.45662667" lon="-7.94358167">
        <ele>459.0</ele>
        <time>2018-10-03T08:46:42.000Z</time>
      </trkpt>
      <trkpt lat="42.45662667" lon="-7.94360333">
        <ele>459.0</ele>
        <time>2018-10-03T08:46:43.000Z</time>
      </trkpt>
      <trkpt lat="42.45662833" lon="-7.94362333">
        <ele>460.0</ele>
        <time>2018-10-03T08:46:44.000Z</time>
      </trkpt>
      <trkpt lat="42.45663" lon="-7.94364167">
        <ele>460.0</ele>
        <time>2018-10-03T08:46:45.000Z</time>
      </trkpt>
      <trkpt lat="42.45663167" lon="-7.94365667">
        <ele>460.0</ele>
        <time>2018-10-03T08:46:46.000Z</time>
      </trkpt>
      <trkpt lat="42.45663" lon="-7.94367333">
        <ele>460.0</ele>
        <time>2018-10-03T08:46:47.000Z</time>
      </trkpt>
      <trkpt lat="42.45662667" lon="-7.94369167">
        <ele>460.0</ele>
        <time>2018-10-03T08:46:48.000Z</time>
      </trkpt>
      <trkpt lat="42.45662833" lon="-7.94371">
        <ele>460.0</ele>
        <time>2018-10-03T08:46:49.000Z</time>
      </trkpt>
      <trkpt lat="42.45662833" lon="-7.94373">
        <ele>460.0</ele>
        <time>2018-10-03T08:46:50.000Z</time>
      </trkpt>
      <trkpt lat="42.45662833" lon="-7.94375">
        <ele>460.0</ele>
        <time>2018-10-03T08:46:51.000Z</time>
      </trkpt>
      <trkpt lat="42.45662833" lon="-7.94377167">
        <ele>460.0</ele>
        <time>2018-10-03T08:46:52.000Z</time>
      </trkpt>
      <trkpt lat="42.45663" lon="-7.94379167">
        <ele>461.0</ele>
        <time>2018-10-03T08:46:53.000Z</time>
      </trkpt>
      <trkpt lat="42.45663" lon="-7.94381167">
        <ele>461.0</ele>
        <time>2018-10-03T08:46:54.000Z</time>
      </trkpt>
      <trkpt lat="42.456635" lon="-7.94383">
        <ele>461.0</ele>
        <time>2018-10-03T08:46:55.000Z</time>
      </trkpt>
      <trkpt lat="42.45663667" lon="-7.94384833">
        <ele>461.0</ele>
        <time>2018-10-03T08:46:56.000Z</time>
      </trkpt>
      <trkpt lat="42.45663833" lon="-7.94387">
        <ele>461.0</ele>
        <time>2018-10-03T08:46:57.000Z</time>
      </trkpt>
      <trkpt lat="42.45664" lon="-7.94389">
        <ele>461.0</ele>
        <time>2018-10-03T08:46:58.000Z</time>
      </trkpt>
      <trkpt lat="42.45664167" lon="-7.94390667">
        <ele>461.0</ele>
        <time>2018-10-03T08:46:59.000Z</time>
      </trkpt>
      <trkpt lat="42.45664" lon="-7.943925">
        <ele>461.0</ele>
        <time>2018-10-03T08:47:00.000Z</time>
      </trkpt>
      <trkpt lat="42.45664167" lon="-7.94394167">
        <ele>461.0</ele>
        <time>2018-10-03T08:47:01.000Z</time>
      </trkpt>
      <trkpt lat="42.45664167" lon="-7.94395833">
        <ele>462.0</ele>
        <time>2018-10-03T08:47:02.000Z</time>
      </trkpt>
      <trkpt lat="42.45664167" lon="-7.94397333">
        <ele>462.0</ele>
        <time>2018-10-03T08:47:03.000Z</time>
      </trkpt>
      <trkpt lat="42.45664167" lon="-7.94398667">
        <ele>462.0</ele>
        <time>2018-10-03T08:47:04.000Z</time>
      </trkpt>
      <trkpt lat="42.45664167" lon="-7.944">
        <ele>462.0</ele>
        <time>2018-10-03T08:47:05.000Z</time>
      </trkpt>
      <trkpt lat="42.45664167" lon="-7.94400333">
        <ele>462.0</ele>
        <time>2018-10-03T08:47:06.000Z</time>
      </trkpt>
      <trkpt lat="42.45664167" lon="-7.94401">
        <ele>462.0</ele>
        <time>2018-10-03T08:47:07.000Z</time>
      </trkpt>
      <trkpt lat="42.45664" lon="-7.94402333">
        <ele>462.0</ele>
        <time>2018-10-03T08:47:08.000Z</time>
      </trkpt>
      <trkpt lat="42.45664" lon="-7.944035">
        <ele>462.0</ele>
        <time>2018-10-03T08:47:09.000Z</time>
      </trkpt>
      <trkpt lat="42.45663833" lon="-7.944045">
        <ele>462.0</ele>
        <time>2018-10-03T08:47:10.000Z</time>
      </trkpt>
      <trkpt lat="42.45664" lon="-7.94405333">
        <ele>462.0</ele>
        <time>2018-10-03T08:47:11.000Z</time>
      </trkpt>
      <trkpt lat="42.45663833" lon="-7.94406333">
        <ele>462.0</ele>
        <time>2018-10-03T08:47:12.000Z</time>
      </trkpt>
      <trkpt lat="42.45663833" lon="-7.94407667">
        <ele>463.0</ele>
        <time>2018-10-03T08:47:13.000Z</time>
      </trkpt>
      <trkpt lat="42.456635" lon="-7.94408833">
        <ele>463.0</ele>
        <time>2018-10-03T08:47:14.000Z</time>
      </trkpt>
      <trkpt lat="42.45663167" lon="-7.94410333">
        <ele>463.0</ele>
        <time>2018-10-03T08:47:15.000Z</time>
      </trkpt>
      <trkpt lat="42.45663" lon="-7.94411667">
        <ele>463.0</ele>
        <time>2018-10-03T08:47:16.000Z</time>
      </trkpt>
      <trkpt lat="42.45662833" lon="-7.94412667">
        <ele>463.0</ele>
        <time>2018-10-03T08:47:17.000Z</time>
      </trkpt>
      <trkpt lat="42.45663167" lon="-7.94413833">
        <ele>463.0</ele>
        <time>2018-10-03T08:47:18.000Z</time>
      </trkpt>
      <trkpt lat="42.45663333" lon="-7.94415">
        <ele>464.0</ele>
        <time>2018-10-03T08:47:19.000Z</time>
      </trkpt>
      <trkpt lat="42.45663167" lon="-7.94416333">
        <ele>464.0</ele>
        <time>2018-10-03T08:47:20.000Z</time>
      </trkpt>
      <trkpt lat="42.45662667" lon="-7.94418167">
        <ele>464.0</ele>
        <time>2018-10-03T08:47:21.000Z</time>
      </trkpt>
      <trkpt lat="42.45662333" lon="-7.9442">
        <ele>465.0</ele>
        <time>2018-10-03T08:47:22.000Z</time>
      </trkpt>
      <trkpt lat="42.45662" lon="-7.94422">
        <ele>465.0</ele>
        <time>2018-10-03T08:47:23.000Z</time>
      </trkpt>
      <trkpt lat="42.456615" lon="-7.94423833">
        <ele>465.0</ele>
        <time>2018-10-03T08:47:24.000Z</time>
      </trkpt>
      <trkpt lat="42.45661" lon="-7.94426">
        <ele>465.0</ele>
        <time>2018-10-03T08:47:25.000Z</time>
      </trkpt>
      <trkpt lat="42.45660833" lon="-7.94428">
        <ele>466.0</ele>
        <time>2018-10-03T08:47:26.000Z</time>
      </trkpt>
      <trkpt lat="42.45660667" lon="-7.9443">
        <ele>466.0</ele>
        <time>2018-10-03T08:47:27.000Z</time>
      </trkpt>
      <trkpt lat="42.456605" lon="-7.94431833">
        <ele>466.0</ele>
        <time>2018-10-03T08:47:28.000Z</time>
      </trkpt>
      <trkpt lat="42.45660333" lon="-7.94433833">
        <ele>466.0</ele>
        <time>2018-10-03T08:47:29.000Z</time>
      </trkpt>
      <trkpt lat="42.4566" lon="-7.944355">
        <ele>466.0</ele>
        <time>2018-10-03T08:47:30.000Z</time>
      </trkpt>
      <trkpt lat="42.456595" lon="-7.94437333">
        <ele>466.0</ele>
        <time>2018-10-03T08:47:31.000Z</time>
      </trkpt>
      <trkpt lat="42.45659167" lon="-7.94439167">
        <ele>467.0</ele>
        <time>2018-10-03T08:47:32.000Z</time>
      </trkpt>
      <trkpt lat="42.45659" lon="-7.94441">
        <ele>467.0</ele>
        <time>2018-10-03T08:47:33.000Z</time>
      </trkpt>
      <trkpt lat="42.45658833" lon="-7.94442833">
        <ele>467.0</ele>
        <time>2018-10-03T08:47:34.000Z</time>
      </trkpt>
      <trkpt lat="42.45658667" lon="-7.944445">
        <ele>467.0</ele>
        <time>2018-10-03T08:47:35.000Z</time>
      </trkpt>
      <trkpt lat="42.45658333" lon="-7.944465">
        <ele>467.0</ele>
        <time>2018-10-03T08:47:36.000Z</time>
      </trkpt>
      <trkpt lat="42.45658167" lon="-7.944485">
        <ele>467.0</ele>
        <time>2018-10-03T08:47:37.000Z</time>
      </trkpt>
      <trkpt lat="42.45657833" lon="-7.94450333">
        <ele>468.0</ele>
        <time>2018-10-03T08:47:38.000Z</time>
      </trkpt>
      <trkpt lat="42.45657833" lon="-7.94451667">
        <ele>468.0</ele>
        <time>2018-10-03T08:47:39.000Z</time>
      </trkpt>
      <trkpt lat="42.456575" lon="-7.94453">
        <ele>468.0</ele>
        <time>2018-10-03T08:47:40.000Z</time>
      </trkpt>
      <trkpt lat="42.45657333" lon="-7.944545">
        <ele>468.0</ele>
        <time>2018-10-03T08:47:41.000Z</time>
      </trkpt>
      <trkpt lat="42.45657167" lon="-7.94456333">
        <ele>468.0</ele>
        <time>2018-10-03T08:47:42.000Z</time>
      </trkpt>
      <trkpt lat="42.45656833" lon="-7.94458167">
        <ele>468.0</ele>
        <time>2018-10-03T08:47:43.000Z</time>
      </trkpt>
      <trkpt lat="42.45656667" lon="-7.94459833">
        <ele>469.0</ele>
        <time>2018-10-03T08:47:44.000Z</time>
      </trkpt>
      <trkpt lat="42.456565" lon="-7.94461667">
        <ele>469.0</ele>
        <time>2018-10-03T08:47:45.000Z</time>
      </trkpt>
      <trkpt lat="42.45656333" lon="-7.94463667">
        <ele>469.0</ele>
        <time>2018-10-03T08:47:46.000Z</time>
      </trkpt>
      <trkpt lat="42.45656" lon="-7.94465333">
        <ele>469.0</ele>
        <time>2018-10-03T08:47:47.000Z</time>
      </trkpt>
      <trkpt lat="42.45655667" lon="-7.94467">
        <ele>469.0</ele>
        <time>2018-10-03T08:47:48.000Z</time>
      </trkpt>
      <trkpt lat="42.45655333" lon="-7.94468833">
        <ele>469.0</ele>
        <time>2018-10-03T08:47:49.000Z</time>
      </trkpt>
      <trkpt lat="42.45655167" lon="-7.94471">
        <ele>469.0</ele>
        <time>2018-10-03T08:47:50.000Z</time>
      </trkpt>
      <trkpt lat="42.45655" lon="-7.94473">
        <ele>469.0</ele>
        <time>2018-10-03T08:47:51.000Z</time>
      </trkpt>
      <trkpt lat="42.45654667" lon="-7.94475">
        <ele>469.0</ele>
        <time>2018-10-03T08:47:52.000Z</time>
      </trkpt>
      <trkpt lat="42.45654667" lon="-7.94476833">
        <ele>469.0</ele>
        <time>2018-10-03T08:47:53.000Z</time>
      </trkpt>
      <trkpt lat="42.456545" lon="-7.94478667">
        <ele>469.0</ele>
        <time>2018-10-03T08:47:54.000Z</time>
      </trkpt>
      <trkpt lat="42.456545" lon="-7.94480333">
        <ele>469.0</ele>
        <time>2018-10-03T08:47:55.000Z</time>
      </trkpt>
      <trkpt lat="42.456545" lon="-7.94482167">
        <ele>469.0</ele>
        <time>2018-10-03T08:47:56.000Z</time>
      </trkpt>
      <trkpt lat="42.456545" lon="-7.94484167">
        <ele>469.0</ele>
        <time>2018-10-03T08:47:57.000Z</time>
      </trkpt>
      <trkpt lat="42.456545" lon="-7.94486">
        <ele>470.0</ele>
        <time>2018-10-03T08:47:58.000Z</time>
      </trkpt>
      <trkpt lat="42.45654333" lon="-7.94487833">
        <ele>470.0</ele>
        <time>2018-10-03T08:47:59.000Z</time>
      </trkpt>
      <trkpt lat="42.45654167" lon="-7.94489833">
        <ele>470.0</ele>
        <time>2018-10-03T08:48:00.000Z</time>
      </trkpt>
      <trkpt lat="42.45654167" lon="-7.94491833">
        <ele>470.0</ele>
        <time>2018-10-03T08:48:01.000Z</time>
      </trkpt>
      <trkpt lat="42.45654" lon="-7.94493833">
        <ele>470.0</ele>
        <time>2018-10-03T08:48:02.000Z</time>
      </trkpt>
      <trkpt lat="42.45653833" lon="-7.94495667">
        <ele>470.0</ele>
        <time>2018-10-03T08:48:03.000Z</time>
      </trkpt>
      <trkpt lat="42.456535" lon="-7.944975">
        <ele>470.0</ele>
        <time>2018-10-03T08:48:04.000Z</time>
      </trkpt>
      <trkpt lat="42.45653333" lon="-7.94499167">
        <ele>470.0</ele>
        <time>2018-10-03T08:48:05.000Z</time>
      </trkpt>
      <trkpt lat="42.45653167" lon="-7.94500667">
        <ele>470.0</ele>
        <time>2018-10-03T08:48:06.000Z</time>
      </trkpt>
      <trkpt lat="42.45653" lon="-7.94501833">
        <ele>470.0</ele>
        <time>2018-10-03T08:48:07.000Z</time>
      </trkpt>
      <trkpt lat="42.45653" lon="-7.94503167">
        <ele>471.0</ele>
        <time>2018-10-03T08:48:08.000Z</time>
      </trkpt>
      <trkpt lat="42.45653167" lon="-7.94504333">
        <ele>471.0</ele>
        <time>2018-10-03T08:48:09.000Z</time>
      </trkpt>
      <trkpt lat="42.45653167" lon="-7.94505667">
        <ele>471.0</ele>
        <time>2018-10-03T08:48:10.000Z</time>
      </trkpt>
      <trkpt lat="42.45653" lon="-7.94507167">
        <ele>471.0</ele>
        <time>2018-10-03T08:48:11.000Z</time>
      </trkpt>
      <trkpt lat="42.45652833" lon="-7.94508667">
        <ele>471.0</ele>
        <time>2018-10-03T08:48:12.000Z</time>
      </trkpt>
      <trkpt lat="42.45652667" lon="-7.94510333">
        <ele>471.0</ele>
        <time>2018-10-03T08:48:13.000Z</time>
      </trkpt>
      <trkpt lat="42.456525" lon="-7.94511833">
        <ele>471.0</ele>
        <time>2018-10-03T08:48:14.000Z</time>
      </trkpt>
      <trkpt lat="42.45652167" lon="-7.94513333">
        <ele>471.0</ele>
        <time>2018-10-03T08:48:15.000Z</time>
      </trkpt>
      <trkpt lat="42.45651667" lon="-7.94515">
        <ele>471.0</ele>
        <time>2018-10-03T08:48:16.000Z</time>
      </trkpt>
      <trkpt lat="42.45651333" lon="-7.94517">
        <ele>471.0</ele>
        <time>2018-10-03T08:48:17.000Z</time>
      </trkpt>
      <trkpt lat="42.45650833" lon="-7.94518833">
        <ele>471.0</ele>
        <time>2018-10-03T08:48:18.000Z</time>
      </trkpt>
      <trkpt lat="42.45650333" lon="-7.94520667">
        <ele>471.0</ele>
        <time>2018-10-03T08:48:19.000Z</time>
      </trkpt>
      <trkpt lat="42.45649667" lon="-7.94522333">
        <ele>472.0</ele>
        <time>2018-10-03T08:48:20.000Z</time>
      </trkpt>
      <trkpt lat="42.45648833" lon="-7.94524">
        <ele>472.0</ele>
        <time>2018-10-03T08:48:21.000Z</time>
      </trkpt>
      <trkpt lat="42.45647833" lon="-7.94525667">
        <ele>472.0</ele>
        <time>2018-10-03T08:48:22.000Z</time>
      </trkpt>
      <trkpt lat="42.45647167" lon="-7.94527333">
        <ele>472.0</ele>
        <time>2018-10-03T08:48:23.000Z</time>
      </trkpt>
      <trkpt lat="42.45646333" lon="-7.94529167">
        <ele>473.0</ele>
        <time>2018-10-03T08:48:24.000Z</time>
      </trkpt>
      <trkpt lat="42.45645333" lon="-7.94530833">
        <ele>473.0</ele>
        <time>2018-10-03T08:48:25.000Z</time>
      </trkpt>
      <trkpt lat="42.45644667" lon="-7.945325">
        <ele>473.0</ele>
        <time>2018-10-03T08:48:26.000Z</time>
      </trkpt>
      <trkpt lat="42.45643833" lon="-7.94534333">
        <ele>473.0</ele>
        <time>2018-10-03T08:48:27.000Z</time>
      </trkpt>
      <trkpt lat="42.45643333" lon="-7.94536167">
        <ele>474.0</ele>
        <time>2018-10-03T08:48:28.000Z</time>
      </trkpt>
      <trkpt lat="42.45642667" lon="-7.94537667">
        <ele>474.0</ele>
        <time>2018-10-03T08:48:29.000Z</time>
      </trkpt>
      <trkpt lat="42.45642" lon="-7.94539333">
        <ele>474.0</ele>
        <time>2018-10-03T08:48:30.000Z</time>
      </trkpt>
      <trkpt lat="42.45641167" lon="-7.94541333">
        <ele>474.0</ele>
        <time>2018-10-03T08:48:31.000Z</time>
      </trkpt>
      <trkpt lat="42.456405" lon="-7.94543">
        <ele>474.0</ele>
        <time>2018-10-03T08:48:32.000Z</time>
      </trkpt>
      <trkpt lat="42.45639833" lon="-7.94544667">
        <ele>474.0</ele>
        <time>2018-10-03T08:48:33.000Z</time>
      </trkpt>
      <trkpt lat="42.45639167" lon="-7.945465">
        <ele>475.0</ele>
        <time>2018-10-03T08:48:34.000Z</time>
      </trkpt>
      <trkpt lat="42.456385" lon="-7.94548167">
        <ele>475.0</ele>
        <time>2018-10-03T08:48:35.000Z</time>
      </trkpt>
      <trkpt lat="42.45637667" lon="-7.9455">
        <ele>475.0</ele>
        <time>2018-10-03T08:48:36.000Z</time>
      </trkpt>
      <trkpt lat="42.45636833" lon="-7.945515">
        <ele>475.0</ele>
        <time>2018-10-03T08:48:37.000Z</time>
      </trkpt>
      <trkpt lat="42.45635833" lon="-7.94552833">
        <ele>475.0</ele>
        <time>2018-10-03T08:48:38.000Z</time>
      </trkpt>
      <trkpt lat="42.45635" lon="-7.945545">
        <ele>475.0</ele>
        <time>2018-10-03T08:48:39.000Z</time>
      </trkpt>
      <trkpt lat="42.45634167" lon="-7.945565">
        <ele>475.0</ele>
        <time>2018-10-03T08:48:40.000Z</time>
      </trkpt>
      <trkpt lat="42.456335" lon="-7.94558167">
        <ele>475.0</ele>
        <time>2018-10-03T08:48:41.000Z</time>
      </trkpt>
      <trkpt lat="42.45633" lon="-7.94560167">
        <ele>475.0</ele>
        <time>2018-10-03T08:48:42.000Z</time>
      </trkpt>
      <trkpt lat="42.45632333" lon="-7.94561833">
        <ele>475.0</ele>
        <time>2018-10-03T08:48:43.000Z</time>
      </trkpt>
      <trkpt lat="42.45631833" lon="-7.945635">
        <ele>475.0</ele>
        <time>2018-10-03T08:48:44.000Z</time>
      </trkpt>
      <trkpt lat="42.456315" lon="-7.94564833">
        <ele>475.0</ele>
        <time>2018-10-03T08:48:45.000Z</time>
      </trkpt>
      <trkpt lat="42.45631333" lon="-7.94566">
        <ele>475.0</ele>
        <time>2018-10-03T08:48:46.000Z</time>
      </trkpt>
      <trkpt lat="42.45631333" lon="-7.94566667">
        <ele>475.0</ele>
        <time>2018-10-03T08:48:47.000Z</time>
      </trkpt>
      <trkpt lat="42.45631" lon="-7.94567167">
        <ele>475.0</ele>
        <time>2018-10-03T08:48:48.000Z</time>
      </trkpt>
      <trkpt lat="42.45630833" lon="-7.94568167">
        <ele>475.0</ele>
        <time>2018-10-03T08:48:49.000Z</time>
      </trkpt>
      <trkpt lat="42.45630333" lon="-7.94569333">
        <ele>475.0</ele>
        <time>2018-10-03T08:48:50.000Z</time>
      </trkpt>
      <trkpt lat="42.45629833" lon="-7.94570667">
        <ele>475.0</ele>
        <time>2018-10-03T08:48:51.000Z</time>
      </trkpt>
      <trkpt lat="42.45629333" lon="-7.94572167">
        <ele>475.0</ele>
        <time>2018-10-03T08:48:52.000Z</time>
      </trkpt>
      <trkpt lat="42.45628833" lon="-7.94573333">
        <ele>475.0</ele>
        <time>2018-10-03T08:48:53.000Z</time>
      </trkpt>
      <trkpt lat="42.45628333" lon="-7.94574833">
        <ele>475.0</ele>
        <time>2018-10-03T08:48:54.000Z</time>
      </trkpt>
      <trkpt lat="42.45627667" lon="-7.94576333">
        <ele>475.0</ele>
        <time>2018-10-03T08:48:55.000Z</time>
      </trkpt>
      <trkpt lat="42.45627167" lon="-7.94578">
        <ele>475.0</ele>
        <time>2018-10-03T08:48:56.000Z</time>
      </trkpt>
      <trkpt lat="42.456265" lon="-7.94579667">
        <ele>475.0</ele>
        <time>2018-10-03T08:48:57.000Z</time>
      </trkpt>
      <trkpt lat="42.45626" lon="-7.94581333">
        <ele>475.0</ele>
        <time>2018-10-03T08:48:58.000Z</time>
      </trkpt>
      <trkpt lat="42.45625333" lon="-7.94583">
        <ele>475.0</ele>
        <time>2018-10-03T08:48:59.000Z</time>
      </trkpt>
      <trkpt lat="42.45624667" lon="-7.94584833">
        <ele>475.0</ele>
        <time>2018-10-03T08:49:00.000Z</time>
      </trkpt>
      <trkpt lat="42.45624167" lon="-7.94586667">
        <ele>476.0</ele>
        <time>2018-10-03T08:49:01.000Z</time>
      </trkpt>
      <trkpt lat="42.45623667" lon="-7.94588167">
        <ele>476.0</ele>
        <time>2018-10-03T08:49:02.000Z</time>
      </trkpt>
      <trkpt lat="42.45623167" lon="-7.94589667">
        <ele>476.0</ele>
        <time>2018-10-03T08:49:03.000Z</time>
      </trkpt>
      <trkpt lat="42.45622667" lon="-7.945905">
        <ele>476.0</ele>
        <time>2018-10-03T08:49:04.000Z</time>
      </trkpt>
      <trkpt lat="42.45622667" lon="-7.94590833">
        <ele>476.0</ele>
        <time>2018-10-03T08:49:05.000Z</time>
      </trkpt>
      <trkpt lat="42.45622667" lon="-7.94591">
        <ele>476.0</ele>
        <time>2018-10-03T08:49:06.000Z</time>
      </trkpt>
      <trkpt lat="42.45622833" lon="-7.94590667">
        <ele>476.0</ele>
        <time>2018-10-03T08:49:07.000Z</time>
      </trkpt>
      <trkpt lat="42.45622833" lon="-7.945905">
        <ele>476.0</ele>
        <time>2018-10-03T08:49:08.000Z</time>
      </trkpt>
      <trkpt lat="42.45622833" lon="-7.945905">
        <ele>476.0</ele>
        <time>2018-10-03T08:49:09.000Z</time>
      </trkpt>
      <trkpt lat="42.45622833" lon="-7.945905">
        <ele>476.0</ele>
        <time>2018-10-03T08:49:10.000Z</time>
      </trkpt>
      <trkpt lat="42.45622667" lon="-7.94591">
        <ele>476.0</ele>
        <time>2018-10-03T08:49:11.000Z</time>
      </trkpt>
      <trkpt lat="42.45622167" lon="-7.94592167">
        <ele>476.0</ele>
        <time>2018-10-03T08:49:12.000Z</time>
      </trkpt>
      <trkpt lat="42.456215" lon="-7.945935">
        <ele>476.0</ele>
        <time>2018-10-03T08:49:13.000Z</time>
      </trkpt>
      <trkpt lat="42.45621" lon="-7.94595">
        <ele>476.0</ele>
        <time>2018-10-03T08:49:14.000Z</time>
      </trkpt>
      <trkpt lat="42.45620333" lon="-7.945965">
        <ele>476.0</ele>
        <time>2018-10-03T08:49:15.000Z</time>
      </trkpt>
      <trkpt lat="42.45619667" lon="-7.94598">
        <ele>476.0</ele>
        <time>2018-10-03T08:49:16.000Z</time>
      </trkpt>
      <trkpt lat="42.45619333" lon="-7.94599833">
        <ele>476.0</ele>
        <time>2018-10-03T08:49:17.000Z</time>
      </trkpt>
      <trkpt lat="42.45618667" lon="-7.94601333">
        <ele>476.0</ele>
        <time>2018-10-03T08:49:18.000Z</time>
      </trkpt>
      <trkpt lat="42.45618" lon="-7.94603">
        <ele>476.0</ele>
        <time>2018-10-03T08:49:19.000Z</time>
      </trkpt>
      <trkpt lat="42.456175" lon="-7.94604333">
        <ele>476.0</ele>
        <time>2018-10-03T08:49:20.000Z</time>
      </trkpt>
      <trkpt lat="42.45617" lon="-7.94605833">
        <ele>477.0</ele>
        <time>2018-10-03T08:49:21.000Z</time>
      </trkpt>
      <trkpt lat="42.456165" lon="-7.94607167">
        <ele>477.0</ele>
        <time>2018-10-03T08:49:22.000Z</time>
      </trkpt>
      <trkpt lat="42.45616" lon="-7.94608667">
        <ele>477.0</ele>
        <time>2018-10-03T08:49:23.000Z</time>
      </trkpt>
      <trkpt lat="42.45615667" lon="-7.9461">
        <ele>477.0</ele>
        <time>2018-10-03T08:49:24.000Z</time>
      </trkpt>
      <trkpt lat="42.45615167" lon="-7.94611667">
        <ele>477.0</ele>
        <time>2018-10-03T08:49:25.000Z</time>
      </trkpt>
      <trkpt lat="42.45614667" lon="-7.94613333">
        <ele>477.0</ele>
        <time>2018-10-03T08:49:26.000Z</time>
      </trkpt>
      <trkpt lat="42.45614" lon="-7.94615167">
        <ele>477.0</ele>
        <time>2018-10-03T08:49:27.000Z</time>
      </trkpt>
      <trkpt lat="42.45613333" lon="-7.94617">
        <ele>477.0</ele>
        <time>2018-10-03T08:49:28.000Z</time>
      </trkpt>
      <trkpt lat="42.45612833" lon="-7.94618833">
        <ele>477.0</ele>
        <time>2018-10-03T08:49:29.000Z</time>
      </trkpt>
      <trkpt lat="42.45612333" lon="-7.94620667">
        <ele>476.0</ele>
        <time>2018-10-03T08:49:30.000Z</time>
      </trkpt>
      <trkpt lat="42.45611667" lon="-7.94622667">
        <ele>476.0</ele>
        <time>2018-10-03T08:49:31.000Z</time>
      </trkpt>
      <trkpt lat="42.45611" lon="-7.946245">
        <ele>476.0</ele>
        <time>2018-10-03T08:49:32.000Z</time>
      </trkpt>
      <trkpt lat="42.45610333" lon="-7.946265">
        <ele>476.0</ele>
        <time>2018-10-03T08:49:33.000Z</time>
      </trkpt>
      <trkpt lat="42.45609667" lon="-7.94628333">
        <ele>476.0</ele>
        <time>2018-10-03T08:49:34.000Z</time>
      </trkpt>
      <trkpt lat="42.45609" lon="-7.94630333">
        <ele>476.0</ele>
        <time>2018-10-03T08:49:35.000Z</time>
      </trkpt>
      <trkpt lat="42.456085" lon="-7.94632333">
        <ele>476.0</ele>
        <time>2018-10-03T08:49:36.000Z</time>
      </trkpt>
      <trkpt lat="42.45608167" lon="-7.946345">
        <ele>476.0</ele>
        <time>2018-10-03T08:49:37.000Z</time>
      </trkpt>
      <trkpt lat="42.45607833" lon="-7.94636667">
        <ele>476.0</ele>
        <time>2018-10-03T08:49:38.000Z</time>
      </trkpt>
      <trkpt lat="42.45607667" lon="-7.946385">
        <ele>476.0</ele>
        <time>2018-10-03T08:49:39.000Z</time>
      </trkpt>
      <trkpt lat="42.45607167" lon="-7.946405">
        <ele>475.0</ele>
        <time>2018-10-03T08:49:40.000Z</time>
      </trkpt>
      <trkpt lat="42.45606833" lon="-7.94642333">
        <ele>475.0</ele>
        <time>2018-10-03T08:49:41.000Z</time>
      </trkpt>
      <trkpt lat="42.45606333" lon="-7.94644167">
        <ele>475.0</ele>
        <time>2018-10-03T08:49:42.000Z</time>
      </trkpt>
      <trkpt lat="42.45606" lon="-7.94646167">
        <ele>475.0</ele>
        <time>2018-10-03T08:49:43.000Z</time>
      </trkpt>
      <trkpt lat="42.456055" lon="-7.94648167">
        <ele>475.0</ele>
        <time>2018-10-03T08:49:44.000Z</time>
      </trkpt>
      <trkpt lat="42.45605167" lon="-7.94650167">
        <ele>475.0</ele>
        <time>2018-10-03T08:49:45.000Z</time>
      </trkpt>
      <trkpt lat="42.45604667" lon="-7.94652167">
        <ele>475.0</ele>
        <time>2018-10-03T08:49:46.000Z</time>
      </trkpt>
      <trkpt lat="42.45604" lon="-7.94654">
        <ele>475.0</ele>
        <time>2018-10-03T08:49:47.000Z</time>
      </trkpt>
      <trkpt lat="42.45603333" lon="-7.94656">
        <ele>475.0</ele>
        <time>2018-10-03T08:49:48.000Z</time>
      </trkpt>
      <trkpt lat="42.45602667" lon="-7.946575">
        <ele>475.0</ele>
        <time>2018-10-03T08:49:49.000Z</time>
      </trkpt>
      <trkpt lat="42.45602333" lon="-7.946585">
        <ele>475.0</ele>
        <time>2018-10-03T08:49:50.000Z</time>
      </trkpt>
      <trkpt lat="42.45602" lon="-7.946595">
        <ele>475.0</ele>
        <time>2018-10-03T08:49:51.000Z</time>
      </trkpt>
      <trkpt lat="42.456015" lon="-7.94661">
        <ele>475.0</ele>
        <time>2018-10-03T08:49:52.000Z</time>
      </trkpt>
      <trkpt lat="42.45601" lon="-7.94662667">
        <ele>475.0</ele>
        <time>2018-10-03T08:49:53.000Z</time>
      </trkpt>
      <trkpt lat="42.456005" lon="-7.94664333">
        <ele>475.0</ele>
        <time>2018-10-03T08:49:54.000Z</time>
      </trkpt>
      <trkpt lat="42.45600167" lon="-7.94666333">
        <ele>475.0</ele>
        <time>2018-10-03T08:49:55.000Z</time>
      </trkpt>
      <trkpt lat="42.45599667" lon="-7.94668333">
        <ele>476.0</ele>
        <time>2018-10-03T08:49:56.000Z</time>
      </trkpt>
      <trkpt lat="42.45599" lon="-7.94670333">
        <ele>476.0</ele>
        <time>2018-10-03T08:49:57.000Z</time>
      </trkpt>
      <trkpt lat="42.455985" lon="-7.94672333">
        <ele>476.0</ele>
        <time>2018-10-03T08:49:58.000Z</time>
      </trkpt>
      <trkpt lat="42.45597833" lon="-7.94674333">
        <ele>476.0</ele>
        <time>2018-10-03T08:49:59.000Z</time>
      </trkpt>
      <trkpt lat="42.45597333" lon="-7.94676167">
        <ele>476.0</ele>
        <time>2018-10-03T08:50:00.000Z</time>
      </trkpt>
      <trkpt lat="42.45596667" lon="-7.94678">
        <ele>476.0</ele>
        <time>2018-10-03T08:50:01.000Z</time>
      </trkpt>
      <trkpt lat="42.45596167" lon="-7.94679833">
        <ele>476.0</ele>
        <time>2018-10-03T08:50:02.000Z</time>
      </trkpt>
      <trkpt lat="42.455955" lon="-7.94681833">
        <ele>476.0</ele>
        <time>2018-10-03T08:50:03.000Z</time>
      </trkpt>
      <trkpt lat="42.45594833" lon="-7.94683667">
        <ele>476.0</ele>
        <time>2018-10-03T08:50:04.000Z</time>
      </trkpt>
      <trkpt lat="42.45594333" lon="-7.94685667">
        <ele>476.0</ele>
        <time>2018-10-03T08:50:05.000Z</time>
      </trkpt>
      <trkpt lat="42.45593833" lon="-7.946875">
        <ele>476.0</ele>
        <time>2018-10-03T08:50:06.000Z</time>
      </trkpt>
      <trkpt lat="42.45593167" lon="-7.94689333">
        <ele>476.0</ele>
        <time>2018-10-03T08:50:07.000Z</time>
      </trkpt>
      <trkpt lat="42.45592667" lon="-7.94691333">
        <ele>476.0</ele>
        <time>2018-10-03T08:50:08.000Z</time>
      </trkpt>
      <trkpt lat="42.45592167" lon="-7.94693333">
        <ele>476.0</ele>
        <time>2018-10-03T08:50:09.000Z</time>
      </trkpt>
      <trkpt lat="42.455915" lon="-7.94695167">
        <ele>476.0</ele>
        <time>2018-10-03T08:50:10.000Z</time>
      </trkpt>
      <trkpt lat="42.45591" lon="-7.94697167">
        <ele>476.0</ele>
        <time>2018-10-03T08:50:11.000Z</time>
      </trkpt>
      <trkpt lat="42.45590667" lon="-7.94699167">
        <ele>476.0</ele>
        <time>2018-10-03T08:50:12.000Z</time>
      </trkpt>
      <trkpt lat="42.455905" lon="-7.94701167">
        <ele>476.0</ele>
        <time>2018-10-03T08:50:13.000Z</time>
      </trkpt>
      <trkpt lat="42.45590167" lon="-7.94703333">
        <ele>476.0</ele>
        <time>2018-10-03T08:50:14.000Z</time>
      </trkpt>
      <trkpt lat="42.4559" lon="-7.947055">
        <ele>476.0</ele>
        <time>2018-10-03T08:50:15.000Z</time>
      </trkpt>
      <trkpt lat="42.45589667" lon="-7.947075">
        <ele>476.0</ele>
        <time>2018-10-03T08:50:16.000Z</time>
      </trkpt>
      <trkpt lat="42.45589667" lon="-7.947095">
        <ele>476.0</ele>
        <time>2018-10-03T08:50:17.000Z</time>
      </trkpt>
      <trkpt lat="42.455895" lon="-7.947115">
        <ele>476.0</ele>
        <time>2018-10-03T08:50:18.000Z</time>
      </trkpt>
      <trkpt lat="42.455895" lon="-7.94713833">
        <ele>476.0</ele>
        <time>2018-10-03T08:50:19.000Z</time>
      </trkpt>
      <trkpt lat="42.455895" lon="-7.94715667">
        <ele>476.0</ele>
        <time>2018-10-03T08:50:20.000Z</time>
      </trkpt>
      <trkpt lat="42.45589667" lon="-7.947175">
        <ele>476.0</ele>
        <time>2018-10-03T08:50:21.000Z</time>
      </trkpt>
      <trkpt lat="42.4559" lon="-7.94719667">
        <ele>475.0</ele>
        <time>2018-10-03T08:50:22.000Z</time>
      </trkpt>
      <trkpt lat="42.45590333" lon="-7.947215">
        <ele>475.0</ele>
        <time>2018-10-03T08:50:23.000Z</time>
      </trkpt>
      <trkpt lat="42.45590667" lon="-7.94723333">
        <ele>475.0</ele>
        <time>2018-10-03T08:50:24.000Z</time>
      </trkpt>
      <trkpt lat="42.45590833" lon="-7.94725333">
        <ele>475.0</ele>
        <time>2018-10-03T08:50:25.000Z</time>
      </trkpt>
      <trkpt lat="42.45591167" lon="-7.94727667">
        <ele>475.0</ele>
        <time>2018-10-03T08:50:26.000Z</time>
      </trkpt>
      <trkpt lat="42.455915" lon="-7.94729667">
        <ele>475.0</ele>
        <time>2018-10-03T08:50:27.000Z</time>
      </trkpt>
      <trkpt lat="42.45591833" lon="-7.94731333">
        <ele>475.0</ele>
        <time>2018-10-03T08:50:28.000Z</time>
      </trkpt>
      <trkpt lat="42.45592" lon="-7.94733167">
        <ele>475.0</ele>
        <time>2018-10-03T08:50:29.000Z</time>
      </trkpt>
      <trkpt lat="42.45592333" lon="-7.947355">
        <ele>475.0</ele>
        <time>2018-10-03T08:50:30.000Z</time>
      </trkpt>
      <trkpt lat="42.45592833" lon="-7.94737667">
        <ele>475.0</ele>
        <time>2018-10-03T08:50:31.000Z</time>
      </trkpt>
      <trkpt lat="42.45593167" lon="-7.94739833">
        <ele>475.0</ele>
        <time>2018-10-03T08:50:32.000Z</time>
      </trkpt>
      <trkpt lat="42.45593833" lon="-7.94741833">
        <ele>475.0</ele>
        <time>2018-10-03T08:50:33.000Z</time>
      </trkpt>
      <trkpt lat="42.455945" lon="-7.94743833">
        <ele>475.0</ele>
        <time>2018-10-03T08:50:34.000Z</time>
      </trkpt>
      <trkpt lat="42.45595167" lon="-7.94745833">
        <ele>475.0</ele>
        <time>2018-10-03T08:50:35.000Z</time>
      </trkpt>
      <trkpt lat="42.45595667" lon="-7.94748">
        <ele>474.0</ele>
        <time>2018-10-03T08:50:36.000Z</time>
      </trkpt>
      <trkpt lat="42.45596167" lon="-7.94750167">
        <ele>474.0</ele>
        <time>2018-10-03T08:50:37.000Z</time>
      </trkpt>
      <trkpt lat="42.45596667" lon="-7.94752">
        <ele>474.0</ele>
        <time>2018-10-03T08:50:38.000Z</time>
      </trkpt>
      <trkpt lat="42.45597" lon="-7.94753833">
        <ele>474.0</ele>
        <time>2018-10-03T08:50:39.000Z</time>
      </trkpt>
      <trkpt lat="42.455975" lon="-7.947555">
        <ele>474.0</ele>
        <time>2018-10-03T08:50:40.000Z</time>
      </trkpt>
      <trkpt lat="42.45597833" lon="-7.94757333">
        <ele>474.0</ele>
        <time>2018-10-03T08:50:41.000Z</time>
      </trkpt>
      <trkpt lat="42.45598167" lon="-7.94759333">
        <ele>474.0</ele>
        <time>2018-10-03T08:50:42.000Z</time>
      </trkpt>
      <trkpt lat="42.455985" lon="-7.94761333">
        <ele>474.0</ele>
        <time>2018-10-03T08:50:43.000Z</time>
      </trkpt>
      <trkpt lat="42.45598833" lon="-7.947635">
        <ele>474.0</ele>
        <time>2018-10-03T08:50:44.000Z</time>
      </trkpt>
      <trkpt lat="42.45599167" lon="-7.947655">
        <ele>473.0</ele>
        <time>2018-10-03T08:50:45.000Z</time>
      </trkpt>
      <trkpt lat="42.45599833" lon="-7.947675">
        <ele>473.0</ele>
        <time>2018-10-03T08:50:46.000Z</time>
      </trkpt>
      <trkpt lat="42.45600333" lon="-7.94769333">
        <ele>473.0</ele>
        <time>2018-10-03T08:50:47.000Z</time>
      </trkpt>
      <trkpt lat="42.45601" lon="-7.94771333">
        <ele>473.0</ele>
        <time>2018-10-03T08:50:48.000Z</time>
      </trkpt>
      <trkpt lat="42.456015" lon="-7.94773167">
        <ele>473.0</ele>
        <time>2018-10-03T08:50:49.000Z</time>
      </trkpt>
      <trkpt lat="42.45602167" lon="-7.94775167">
        <ele>473.0</ele>
        <time>2018-10-03T08:50:50.000Z</time>
      </trkpt>
      <trkpt lat="42.45602667" lon="-7.94777">
        <ele>473.0</ele>
        <time>2018-10-03T08:50:51.000Z</time>
      </trkpt>
      <trkpt lat="42.45603" lon="-7.947785">
        <ele>473.0</ele>
        <time>2018-10-03T08:50:52.000Z</time>
      </trkpt>
      <trkpt lat="42.45603167" lon="-7.94779">
        <ele>473.0</ele>
        <time>2018-10-03T08:50:53.000Z</time>
      </trkpt>
      <trkpt lat="42.45603333" lon="-7.94779333">
        <ele>473.0</ele>
        <time>2018-10-03T08:50:54.000Z</time>
      </trkpt>
      <trkpt lat="42.45603333" lon="-7.947795">
        <ele>473.0</ele>
        <time>2018-10-03T08:50:55.000Z</time>
      </trkpt>
      <trkpt lat="42.456035" lon="-7.94779833">
        <ele>473.0</ele>
        <time>2018-10-03T08:50:56.000Z</time>
      </trkpt>
      <trkpt lat="42.45604" lon="-7.94780833">
        <ele>473.0</ele>
        <time>2018-10-03T08:50:57.000Z</time>
      </trkpt>
      <trkpt lat="42.45604333" lon="-7.94782167">
        <ele>473.0</ele>
        <time>2018-10-03T08:50:58.000Z</time>
      </trkpt>
      <trkpt lat="42.45604833" lon="-7.94783667">
        <ele>473.0</ele>
        <time>2018-10-03T08:50:59.000Z</time>
      </trkpt>
      <trkpt lat="42.45605333" lon="-7.94785333">
        <ele>473.0</ele>
        <time>2018-10-03T08:51:00.000Z</time>
      </trkpt>
      <trkpt lat="42.45605667" lon="-7.94787">
        <ele>473.0</ele>
        <time>2018-10-03T08:51:01.000Z</time>
      </trkpt>
      <trkpt lat="42.45606167" lon="-7.94788667">
        <ele>473.0</ele>
        <time>2018-10-03T08:51:02.000Z</time>
      </trkpt>
      <trkpt lat="42.456065" lon="-7.94790333">
        <ele>473.0</ele>
        <time>2018-10-03T08:51:03.000Z</time>
      </trkpt>
      <trkpt lat="42.45606833" lon="-7.94792">
        <ele>473.0</ele>
        <time>2018-10-03T08:51:04.000Z</time>
      </trkpt>
      <trkpt lat="42.45607167" lon="-7.94793667">
        <ele>473.0</ele>
        <time>2018-10-03T08:51:05.000Z</time>
      </trkpt>
      <trkpt lat="42.45607833" lon="-7.94795333">
        <ele>473.0</ele>
        <time>2018-10-03T08:51:06.000Z</time>
      </trkpt>
      <trkpt lat="42.45608333" lon="-7.94797167">
        <ele>473.0</ele>
        <time>2018-10-03T08:51:07.000Z</time>
      </trkpt>
      <trkpt lat="42.45608667" lon="-7.94799">
        <ele>473.0</ele>
        <time>2018-10-03T08:51:08.000Z</time>
      </trkpt>
      <trkpt lat="42.45609167" lon="-7.94800833">
        <ele>473.0</ele>
        <time>2018-10-03T08:51:09.000Z</time>
      </trkpt>
      <trkpt lat="42.45609667" lon="-7.94802667">
        <ele>473.0</ele>
        <time>2018-10-03T08:51:10.000Z</time>
      </trkpt>
      <trkpt lat="42.45610167" lon="-7.948045">
        <ele>473.0</ele>
        <time>2018-10-03T08:51:11.000Z</time>
      </trkpt>
      <trkpt lat="42.456105" lon="-7.94806667">
        <ele>473.0</ele>
        <time>2018-10-03T08:51:12.000Z</time>
      </trkpt>
      <trkpt lat="42.45610667" lon="-7.948085">
        <ele>473.0</ele>
        <time>2018-10-03T08:51:13.000Z</time>
      </trkpt>
      <trkpt lat="42.45611" lon="-7.948105">
        <ele>473.0</ele>
        <time>2018-10-03T08:51:14.000Z</time>
      </trkpt>
      <trkpt lat="42.45611167" lon="-7.94812167">
        <ele>473.0</ele>
        <time>2018-10-03T08:51:15.000Z</time>
      </trkpt>
      <trkpt lat="42.45611333" lon="-7.94813833">
        <ele>473.0</ele>
        <time>2018-10-03T08:51:16.000Z</time>
      </trkpt>
      <trkpt lat="42.45611667" lon="-7.94815667">
        <ele>473.0</ele>
        <time>2018-10-03T08:51:17.000Z</time>
      </trkpt>
      <trkpt lat="42.45612333" lon="-7.94817833">
        <ele>473.0</ele>
        <time>2018-10-03T08:51:18.000Z</time>
      </trkpt>
      <trkpt lat="42.45612833" lon="-7.94819833">
        <ele>473.0</ele>
        <time>2018-10-03T08:51:19.000Z</time>
      </trkpt>
      <trkpt lat="42.45613167" lon="-7.94821833">
        <ele>473.0</ele>
        <time>2018-10-03T08:51:20.000Z</time>
      </trkpt>
      <trkpt lat="42.45613667" lon="-7.94823667">
        <ele>473.0</ele>
        <time>2018-10-03T08:51:21.000Z</time>
      </trkpt>
      <trkpt lat="42.45614" lon="-7.94825667">
        <ele>473.0</ele>
        <time>2018-10-03T08:51:22.000Z</time>
      </trkpt>
      <trkpt lat="42.45614167" lon="-7.94828">
        <ele>473.0</ele>
        <time>2018-10-03T08:51:23.000Z</time>
      </trkpt>
      <trkpt lat="42.456145" lon="-7.9483">
        <ele>474.0</ele>
        <time>2018-10-03T08:51:24.000Z</time>
      </trkpt>
      <trkpt lat="42.45614833" lon="-7.94831833">
        <ele>474.0</ele>
        <time>2018-10-03T08:51:25.000Z</time>
      </trkpt>
      <trkpt lat="42.45615167" lon="-7.94833667">
        <ele>474.0</ele>
        <time>2018-10-03T08:51:26.000Z</time>
      </trkpt>
      <trkpt lat="42.456155" lon="-7.94835667">
        <ele>474.0</ele>
        <time>2018-10-03T08:51:27.000Z</time>
      </trkpt>
      <trkpt lat="42.45615667" lon="-7.94837667">
        <ele>474.0</ele>
        <time>2018-10-03T08:51:28.000Z</time>
      </trkpt>
      <trkpt lat="42.45615833" lon="-7.94839667">
        <ele>474.0</ele>
        <time>2018-10-03T08:51:29.000Z</time>
      </trkpt>
      <trkpt lat="42.45616" lon="-7.94841667">
        <ele>474.0</ele>
        <time>2018-10-03T08:51:30.000Z</time>
      </trkpt>
      <trkpt lat="42.45616" lon="-7.94843833">
        <ele>474.0</ele>
        <time>2018-10-03T08:51:31.000Z</time>
      </trkpt>
      <trkpt lat="42.45616167" lon="-7.94845833">
        <ele>474.0</ele>
        <time>2018-10-03T08:51:32.000Z</time>
      </trkpt>
      <trkpt lat="42.45616167" lon="-7.94847833">
        <ele>474.0</ele>
        <time>2018-10-03T08:51:33.000Z</time>
      </trkpt>
      <trkpt lat="42.45616333" lon="-7.94849833">
        <ele>474.0</ele>
        <time>2018-10-03T08:51:34.000Z</time>
      </trkpt>
      <trkpt lat="42.45616333" lon="-7.94851833">
        <ele>474.0</ele>
        <time>2018-10-03T08:51:35.000Z</time>
      </trkpt>
      <trkpt lat="42.45616333" lon="-7.94853833">
        <ele>474.0</ele>
        <time>2018-10-03T08:51:36.000Z</time>
      </trkpt>
      <trkpt lat="42.456165" lon="-7.94855833">
        <ele>474.0</ele>
        <time>2018-10-03T08:51:37.000Z</time>
      </trkpt>
      <trkpt lat="42.456165" lon="-7.94857833">
        <ele>474.0</ele>
        <time>2018-10-03T08:51:38.000Z</time>
      </trkpt>
      <trkpt lat="42.45616333" lon="-7.94859833">
        <ele>474.0</ele>
        <time>2018-10-03T08:51:39.000Z</time>
      </trkpt>
      <trkpt lat="42.45616333" lon="-7.94861833">
        <ele>474.0</ele>
        <time>2018-10-03T08:51:40.000Z</time>
      </trkpt>
      <trkpt lat="42.45616333" lon="-7.94864">
        <ele>474.0</ele>
        <time>2018-10-03T08:51:41.000Z</time>
      </trkpt>
      <trkpt lat="42.45616167" lon="-7.94866">
        <ele>474.0</ele>
        <time>2018-10-03T08:51:42.000Z</time>
      </trkpt>
      <trkpt lat="42.45616" lon="-7.94868">
        <ele>474.0</ele>
        <time>2018-10-03T08:51:43.000Z</time>
      </trkpt>
      <trkpt lat="42.45615833" lon="-7.9487">
        <ele>474.0</ele>
        <time>2018-10-03T08:51:44.000Z</time>
      </trkpt>
      <trkpt lat="42.45615667" lon="-7.94871833">
        <ele>474.0</ele>
        <time>2018-10-03T08:51:45.000Z</time>
      </trkpt>
      <trkpt lat="42.45615833" lon="-7.94873833">
        <ele>474.0</ele>
        <time>2018-10-03T08:51:46.000Z</time>
      </trkpt>
      <trkpt lat="42.45615667" lon="-7.94875667">
        <ele>475.0</ele>
        <time>2018-10-03T08:51:47.000Z</time>
      </trkpt>
      <trkpt lat="42.45615667" lon="-7.94877667">
        <ele>475.0</ele>
        <time>2018-10-03T08:51:48.000Z</time>
      </trkpt>
      <trkpt lat="42.45615667" lon="-7.94879667">
        <ele>475.0</ele>
        <time>2018-10-03T08:51:49.000Z</time>
      </trkpt>
      <trkpt lat="42.45615667" lon="-7.94881667">
        <ele>475.0</ele>
        <time>2018-10-03T08:51:50.000Z</time>
      </trkpt>
      <trkpt lat="42.45615833" lon="-7.94883833">
        <ele>475.0</ele>
        <time>2018-10-03T08:51:51.000Z</time>
      </trkpt>
      <trkpt lat="42.45615833" lon="-7.94886">
        <ele>475.0</ele>
        <time>2018-10-03T08:51:52.000Z</time>
      </trkpt>
      <trkpt lat="42.45615833" lon="-7.94888">
        <ele>475.0</ele>
        <time>2018-10-03T08:51:53.000Z</time>
      </trkpt>
      <trkpt lat="42.45616" lon="-7.9489">
        <ele>475.0</ele>
        <time>2018-10-03T08:51:54.000Z</time>
      </trkpt>
      <trkpt lat="42.45616167" lon="-7.94892167">
        <ele>475.0</ele>
        <time>2018-10-03T08:51:55.000Z</time>
      </trkpt>
      <trkpt lat="42.45616333" lon="-7.94894333">
        <ele>475.0</ele>
        <time>2018-10-03T08:51:56.000Z</time>
      </trkpt>
      <trkpt lat="42.456165" lon="-7.94896333">
        <ele>475.0</ele>
        <time>2018-10-03T08:51:57.000Z</time>
      </trkpt>
      <trkpt lat="42.45616667" lon="-7.948985">
        <ele>475.0</ele>
        <time>2018-10-03T08:51:58.000Z</time>
      </trkpt>
      <trkpt lat="42.45617167" lon="-7.94900167">
        <ele>476.0</ele>
        <time>2018-10-03T08:51:59.000Z</time>
      </trkpt>
      <trkpt lat="42.45617667" lon="-7.94902">
        <ele>476.0</ele>
        <time>2018-10-03T08:52:00.000Z</time>
      </trkpt>
      <trkpt lat="42.45618333" lon="-7.94903833">
        <ele>476.0</ele>
        <time>2018-10-03T08:52:01.000Z</time>
      </trkpt>
      <trkpt lat="42.45619" lon="-7.94905667">
        <ele>476.0</ele>
        <time>2018-10-03T08:52:02.000Z</time>
      </trkpt>
      <trkpt lat="42.45619667" lon="-7.949075">
        <ele>476.0</ele>
        <time>2018-10-03T08:52:03.000Z</time>
      </trkpt>
      <trkpt lat="42.4562" lon="-7.94909333">
        <ele>476.0</ele>
        <time>2018-10-03T08:52:04.000Z</time>
      </trkpt>
      <trkpt lat="42.45620167" lon="-7.94911167">
        <ele>476.0</ele>
        <time>2018-10-03T08:52:05.000Z</time>
      </trkpt>
      <trkpt lat="42.456205" lon="-7.94912833">
        <ele>476.0</ele>
        <time>2018-10-03T08:52:06.000Z</time>
      </trkpt>
      <trkpt lat="42.45621" lon="-7.94914667">
        <ele>476.0</ele>
        <time>2018-10-03T08:52:07.000Z</time>
      </trkpt>
      <trkpt lat="42.45621667" lon="-7.94916667">
        <ele>476.0</ele>
        <time>2018-10-03T08:52:08.000Z</time>
      </trkpt>
      <trkpt lat="42.45622333" lon="-7.94918333">
        <ele>476.0</ele>
        <time>2018-10-03T08:52:09.000Z</time>
      </trkpt>
      <trkpt lat="42.45623" lon="-7.94920167">
        <ele>476.0</ele>
        <time>2018-10-03T08:52:10.000Z</time>
      </trkpt>
      <trkpt lat="42.45623667" lon="-7.94922333">
        <ele>476.0</ele>
        <time>2018-10-03T08:52:11.000Z</time>
      </trkpt>
      <trkpt lat="42.456245" lon="-7.94924167">
        <ele>476.0</ele>
        <time>2018-10-03T08:52:12.000Z</time>
      </trkpt>
      <trkpt lat="42.45625333" lon="-7.94925833">
        <ele>477.0</ele>
        <time>2018-10-03T08:52:13.000Z</time>
      </trkpt>
      <trkpt lat="42.45626" lon="-7.949275">
        <ele>477.0</ele>
        <time>2018-10-03T08:52:14.000Z</time>
      </trkpt>
      <trkpt lat="42.45627" lon="-7.94929">
        <ele>477.0</ele>
        <time>2018-10-03T08:52:15.000Z</time>
      </trkpt>
      <trkpt lat="42.45627833" lon="-7.94930833">
        <ele>477.0</ele>
        <time>2018-10-03T08:52:16.000Z</time>
      </trkpt>
      <trkpt lat="42.45628833" lon="-7.949325">
        <ele>477.0</ele>
        <time>2018-10-03T08:52:17.000Z</time>
      </trkpt>
      <trkpt lat="42.45629667" lon="-7.94934333">
        <ele>477.0</ele>
        <time>2018-10-03T08:52:18.000Z</time>
      </trkpt>
      <trkpt lat="42.45630667" lon="-7.94935833">
        <ele>477.0</ele>
        <time>2018-10-03T08:52:19.000Z</time>
      </trkpt>
      <trkpt lat="42.45631833" lon="-7.94937667">
        <ele>477.0</ele>
        <time>2018-10-03T08:52:20.000Z</time>
      </trkpt>
      <trkpt lat="42.45632833" lon="-7.94939167">
        <ele>477.0</ele>
        <time>2018-10-03T08:52:21.000Z</time>
      </trkpt>
      <trkpt lat="42.45634" lon="-7.94940667">
        <ele>477.0</ele>
        <time>2018-10-03T08:52:22.000Z</time>
      </trkpt>
      <trkpt lat="42.45635" lon="-7.94942">
        <ele>477.0</ele>
        <time>2018-10-03T08:52:23.000Z</time>
      </trkpt>
      <trkpt lat="42.45636" lon="-7.94943333">
        <ele>477.0</ele>
        <time>2018-10-03T08:52:24.000Z</time>
      </trkpt>
      <trkpt lat="42.45637167" lon="-7.94944833">
        <ele>477.0</ele>
        <time>2018-10-03T08:52:25.000Z</time>
      </trkpt>
      <trkpt lat="42.45638" lon="-7.949465">
        <ele>477.0</ele>
        <time>2018-10-03T08:52:26.000Z</time>
      </trkpt>
      <trkpt lat="42.45639" lon="-7.94947833">
        <ele>477.0</ele>
        <time>2018-10-03T08:52:27.000Z</time>
      </trkpt>
      <trkpt lat="42.45640167" lon="-7.94949333">
        <ele>477.0</ele>
        <time>2018-10-03T08:52:28.000Z</time>
      </trkpt>
      <trkpt lat="42.45641167" lon="-7.94950833">
        <ele>477.0</ele>
        <time>2018-10-03T08:52:29.000Z</time>
      </trkpt>
      <trkpt lat="42.45642167" lon="-7.94952333">
        <ele>477.0</ele>
        <time>2018-10-03T08:52:30.000Z</time>
      </trkpt>
      <trkpt lat="42.45643333" lon="-7.94953833">
        <ele>477.0</ele>
        <time>2018-10-03T08:52:31.000Z</time>
      </trkpt>
      <trkpt lat="42.456445" lon="-7.949555">
        <ele>476.0</ele>
        <time>2018-10-03T08:52:32.000Z</time>
      </trkpt>
      <trkpt lat="42.456455" lon="-7.94957">
        <ele>476.0</ele>
        <time>2018-10-03T08:52:33.000Z</time>
      </trkpt>
      <trkpt lat="42.45646667" lon="-7.94958667">
        <ele>476.0</ele>
        <time>2018-10-03T08:52:34.000Z</time>
      </trkpt>
      <trkpt lat="42.45647833" lon="-7.94960333">
        <ele>476.0</ele>
        <time>2018-10-03T08:52:35.000Z</time>
      </trkpt>
      <trkpt lat="42.45649" lon="-7.94961667">
        <ele>476.0</ele>
        <time>2018-10-03T08:52:36.000Z</time>
      </trkpt>
      <trkpt lat="42.45650167" lon="-7.94963">
        <ele>476.0</ele>
        <time>2018-10-03T08:52:37.000Z</time>
      </trkpt>
      <trkpt lat="42.45651333" lon="-7.94964333">
        <ele>476.0</ele>
        <time>2018-10-03T08:52:38.000Z</time>
      </trkpt>
      <trkpt lat="42.45652333" lon="-7.94965833">
        <ele>476.0</ele>
        <time>2018-10-03T08:52:39.000Z</time>
      </trkpt>
      <trkpt lat="42.45653333" lon="-7.94967333">
        <ele>476.0</ele>
        <time>2018-10-03T08:52:40.000Z</time>
      </trkpt>
      <trkpt lat="42.45654333" lon="-7.94968667">
        <ele>476.0</ele>
        <time>2018-10-03T08:52:41.000Z</time>
      </trkpt>
      <trkpt lat="42.45655333" lon="-7.94970167">
        <ele>476.0</ele>
        <time>2018-10-03T08:52:42.000Z</time>
      </trkpt>
      <trkpt lat="42.456565" lon="-7.949715">
        <ele>476.0</ele>
        <time>2018-10-03T08:52:43.000Z</time>
      </trkpt>
      <trkpt lat="42.456575" lon="-7.94973">
        <ele>476.0</ele>
        <time>2018-10-03T08:52:44.000Z</time>
      </trkpt>
      <trkpt lat="42.45658667" lon="-7.949745">
        <ele>476.0</ele>
        <time>2018-10-03T08:52:45.000Z</time>
      </trkpt>
      <trkpt lat="42.45659667" lon="-7.94976">
        <ele>476.0</ele>
        <time>2018-10-03T08:52:46.000Z</time>
      </trkpt>
      <trkpt lat="42.45660667" lon="-7.94977333">
        <ele>476.0</ele>
        <time>2018-10-03T08:52:47.000Z</time>
      </trkpt>
      <trkpt lat="42.45661833" lon="-7.94978833">
        <ele>476.0</ele>
        <time>2018-10-03T08:52:48.000Z</time>
      </trkpt>
      <trkpt lat="42.45663" lon="-7.94980333">
        <ele>476.0</ele>
        <time>2018-10-03T08:52:49.000Z</time>
      </trkpt>
      <trkpt lat="42.45664167" lon="-7.94981833">
        <ele>476.0</ele>
        <time>2018-10-03T08:52:50.000Z</time>
      </trkpt>
      <trkpt lat="42.45665333" lon="-7.94983333">
        <ele>476.0</ele>
        <time>2018-10-03T08:52:51.000Z</time>
      </trkpt>
      <trkpt lat="42.45666333" lon="-7.94984833">
        <ele>476.0</ele>
        <time>2018-10-03T08:52:52.000Z</time>
      </trkpt>
      <trkpt lat="42.45667333" lon="-7.94986">
        <ele>476.0</ele>
        <time>2018-10-03T08:52:53.000Z</time>
      </trkpt>
      <trkpt lat="42.45668333" lon="-7.949875">
        <ele>476.0</ele>
        <time>2018-10-03T08:52:54.000Z</time>
      </trkpt>
      <trkpt lat="42.456695" lon="-7.94989">
        <ele>476.0</ele>
        <time>2018-10-03T08:52:55.000Z</time>
      </trkpt>
      <trkpt lat="42.456705" lon="-7.949905">
        <ele>476.0</ele>
        <time>2018-10-03T08:52:56.000Z</time>
      </trkpt>
      <trkpt lat="42.45671667" lon="-7.94992">
        <ele>476.0</ele>
        <time>2018-10-03T08:52:57.000Z</time>
      </trkpt>
      <trkpt lat="42.45672667" lon="-7.94993333">
        <ele>476.0</ele>
        <time>2018-10-03T08:52:58.000Z</time>
      </trkpt>
      <trkpt lat="42.45674" lon="-7.94994667">
        <ele>476.0</ele>
        <time>2018-10-03T08:52:59.000Z</time>
      </trkpt>
      <trkpt lat="42.45675" lon="-7.94995833">
        <ele>476.0</ele>
        <time>2018-10-03T08:53:00.000Z</time>
      </trkpt>
      <trkpt lat="42.45676" lon="-7.94997333">
        <ele>477.0</ele>
        <time>2018-10-03T08:53:01.000Z</time>
      </trkpt>
      <trkpt lat="42.45677" lon="-7.94998667">
        <ele>477.0</ele>
        <time>2018-10-03T08:53:02.000Z</time>
      </trkpt>
      <trkpt lat="42.45678" lon="-7.95">
        <ele>477.0</ele>
        <time>2018-10-03T08:53:03.000Z</time>
      </trkpt>
      <trkpt lat="42.45679" lon="-7.95001333">
        <ele>477.0</ele>
        <time>2018-10-03T08:53:04.000Z</time>
      </trkpt>
      <trkpt lat="42.4568" lon="-7.95002667">
        <ele>477.0</ele>
        <time>2018-10-03T08:53:05.000Z</time>
      </trkpt>
      <trkpt lat="42.45681" lon="-7.95004">
        <ele>477.0</ele>
        <time>2018-10-03T08:53:06.000Z</time>
      </trkpt>
      <trkpt lat="42.45682" lon="-7.95005333">
        <ele>477.0</ele>
        <time>2018-10-03T08:53:07.000Z</time>
      </trkpt>
      <trkpt lat="42.45683167" lon="-7.95006667">
        <ele>477.0</ele>
        <time>2018-10-03T08:53:08.000Z</time>
      </trkpt>
      <trkpt lat="42.456845" lon="-7.95007833">
        <ele>477.0</ele>
        <time>2018-10-03T08:53:09.000Z</time>
      </trkpt>
      <trkpt lat="42.45685667" lon="-7.95009">
        <ele>477.0</ele>
        <time>2018-10-03T08:53:10.000Z</time>
      </trkpt>
      <trkpt lat="42.45686667" lon="-7.95010167">
        <ele>477.0</ele>
        <time>2018-10-03T08:53:11.000Z</time>
      </trkpt>
      <trkpt lat="42.45687833" lon="-7.95011333">
        <ele>478.0</ele>
        <time>2018-10-03T08:53:12.000Z</time>
      </trkpt>
      <trkpt lat="42.45688833" lon="-7.95012667">
        <ele>478.0</ele>
        <time>2018-10-03T08:53:13.000Z</time>
      </trkpt>
      <trkpt lat="42.45689667" lon="-7.95013833">
        <ele>478.0</ele>
        <time>2018-10-03T08:53:14.000Z</time>
      </trkpt>
      <trkpt lat="42.45690333" lon="-7.95015167">
        <ele>478.0</ele>
        <time>2018-10-03T08:53:15.000Z</time>
      </trkpt>
      <trkpt lat="42.45691333" lon="-7.95016667">
        <ele>478.0</ele>
        <time>2018-10-03T08:53:16.000Z</time>
      </trkpt>
      <trkpt lat="42.45692333" lon="-7.95017833">
        <ele>479.0</ele>
        <time>2018-10-03T08:53:17.000Z</time>
      </trkpt>
      <trkpt lat="42.45693167" lon="-7.95019">
        <ele>479.0</ele>
        <time>2018-10-03T08:53:18.000Z</time>
      </trkpt>
      <trkpt lat="42.45693833" lon="-7.95020167">
        <ele>479.0</ele>
        <time>2018-10-03T08:53:19.000Z</time>
      </trkpt>
      <trkpt lat="42.45694333" lon="-7.95021167">
        <ele>479.0</ele>
        <time>2018-10-03T08:53:20.000Z</time>
      </trkpt>
      <trkpt lat="42.45695167" lon="-7.95022333">
        <ele>480.0</ele>
        <time>2018-10-03T08:53:21.000Z</time>
      </trkpt>
      <trkpt lat="42.45695833" lon="-7.95023667">
        <ele>480.0</ele>
        <time>2018-10-03T08:53:22.000Z</time>
      </trkpt>
      <trkpt lat="42.45696667" lon="-7.95025">
        <ele>480.0</ele>
        <time>2018-10-03T08:53:23.000Z</time>
      </trkpt>
      <trkpt lat="42.456975" lon="-7.95026333">
        <ele>480.0</ele>
        <time>2018-10-03T08:53:24.000Z</time>
      </trkpt>
      <trkpt lat="42.456985" lon="-7.95027833">
        <ele>480.0</ele>
        <time>2018-10-03T08:53:25.000Z</time>
      </trkpt>
      <trkpt lat="42.45699333" lon="-7.95029333">
        <ele>480.0</ele>
        <time>2018-10-03T08:53:26.000Z</time>
      </trkpt>
      <trkpt lat="42.45700333" lon="-7.95030667">
        <ele>480.0</ele>
        <time>2018-10-03T08:53:27.000Z</time>
      </trkpt>
      <trkpt lat="42.457015" lon="-7.95031833">
        <ele>480.0</ele>
        <time>2018-10-03T08:53:28.000Z</time>
      </trkpt>
      <trkpt lat="42.457025" lon="-7.95032833">
        <ele>480.0</ele>
        <time>2018-10-03T08:53:29.000Z</time>
      </trkpt>
      <trkpt lat="42.45703333" lon="-7.95034167">
        <ele>480.0</ele>
        <time>2018-10-03T08:53:30.000Z</time>
      </trkpt>
      <trkpt lat="42.45704333" lon="-7.95035333">
        <ele>480.0</ele>
        <time>2018-10-03T08:53:31.000Z</time>
      </trkpt>
      <trkpt lat="42.45705167" lon="-7.95036667">
        <ele>480.0</ele>
        <time>2018-10-03T08:53:32.000Z</time>
      </trkpt>
      <trkpt lat="42.45706167" lon="-7.95038">
        <ele>480.0</ele>
        <time>2018-10-03T08:53:33.000Z</time>
      </trkpt>
      <trkpt lat="42.45707167" lon="-7.950395">
        <ele>481.0</ele>
        <time>2018-10-03T08:53:34.000Z</time>
      </trkpt>
      <trkpt lat="42.45708167" lon="-7.95041">
        <ele>481.0</ele>
        <time>2018-10-03T08:53:35.000Z</time>
      </trkpt>
      <trkpt lat="42.45709" lon="-7.95042667">
        <ele>481.0</ele>
        <time>2018-10-03T08:53:36.000Z</time>
      </trkpt>
      <trkpt lat="42.45709833" lon="-7.95044167">
        <ele>481.0</ele>
        <time>2018-10-03T08:53:37.000Z</time>
      </trkpt>
      <trkpt lat="42.45710833" lon="-7.95046">
        <ele>481.0</ele>
        <time>2018-10-03T08:53:38.000Z</time>
      </trkpt>
      <trkpt lat="42.45712" lon="-7.950475">
        <ele>481.0</ele>
        <time>2018-10-03T08:53:39.000Z</time>
      </trkpt>
      <trkpt lat="42.45713" lon="-7.95049167">
        <ele>481.0</ele>
        <time>2018-10-03T08:53:40.000Z</time>
      </trkpt>
      <trkpt lat="42.45714167" lon="-7.95050833">
        <ele>481.0</ele>
        <time>2018-10-03T08:53:41.000Z</time>
      </trkpt>
      <trkpt lat="42.45715333" lon="-7.950525">
        <ele>481.0</ele>
        <time>2018-10-03T08:53:42.000Z</time>
      </trkpt>
      <trkpt lat="42.45716333" lon="-7.95054167">
        <ele>481.0</ele>
        <time>2018-10-03T08:53:43.000Z</time>
      </trkpt>
      <trkpt lat="42.45717333" lon="-7.95056">
        <ele>481.0</ele>
        <time>2018-10-03T08:53:44.000Z</time>
      </trkpt>
      <trkpt lat="42.45718333" lon="-7.95057667">
        <ele>482.0</ele>
        <time>2018-10-03T08:53:45.000Z</time>
      </trkpt>
      <trkpt lat="42.457195" lon="-7.95059167">
        <ele>482.0</ele>
        <time>2018-10-03T08:53:46.000Z</time>
      </trkpt>
      <trkpt lat="42.45720667" lon="-7.95061">
        <ele>482.0</ele>
        <time>2018-10-03T08:53:47.000Z</time>
      </trkpt>
      <trkpt lat="42.45721667" lon="-7.950625">
        <ele>482.0</ele>
        <time>2018-10-03T08:53:48.000Z</time>
      </trkpt>
      <trkpt lat="42.45722833" lon="-7.95064167">
        <ele>482.0</ele>
        <time>2018-10-03T08:53:49.000Z</time>
      </trkpt>
      <trkpt lat="42.45723667" lon="-7.95065833">
        <ele>482.0</ele>
        <time>2018-10-03T08:53:50.000Z</time>
      </trkpt>
      <trkpt lat="42.45724667" lon="-7.95067667">
        <ele>482.0</ele>
        <time>2018-10-03T08:53:51.000Z</time>
      </trkpt>
      <trkpt lat="42.457255" lon="-7.95069333">
        <ele>483.0</ele>
        <time>2018-10-03T08:53:52.000Z</time>
      </trkpt>
      <trkpt lat="42.45726333" lon="-7.95071167">
        <ele>483.0</ele>
        <time>2018-10-03T08:53:53.000Z</time>
      </trkpt>
      <trkpt lat="42.45727" lon="-7.95073">
        <ele>483.0</ele>
        <time>2018-10-03T08:53:54.000Z</time>
      </trkpt>
      <trkpt lat="42.45727667" lon="-7.95074833">
        <ele>483.0</ele>
        <time>2018-10-03T08:53:55.000Z</time>
      </trkpt>
      <trkpt lat="42.45728333" lon="-7.95076667">
        <ele>483.0</ele>
        <time>2018-10-03T08:53:56.000Z</time>
      </trkpt>
      <trkpt lat="42.45728833" lon="-7.95078667">
        <ele>483.0</ele>
        <time>2018-10-03T08:53:57.000Z</time>
      </trkpt>
      <trkpt lat="42.45729333" lon="-7.95080667">
        <ele>483.0</ele>
        <time>2018-10-03T08:53:58.000Z</time>
      </trkpt>
      <trkpt lat="42.45729667" lon="-7.950825">
        <ele>483.0</ele>
        <time>2018-10-03T08:53:59.000Z</time>
      </trkpt>
      <trkpt lat="42.45730167" lon="-7.950845">
        <ele>483.0</ele>
        <time>2018-10-03T08:54:00.000Z</time>
      </trkpt>
      <trkpt lat="42.45730667" lon="-7.95086333">
        <ele>483.0</ele>
        <time>2018-10-03T08:54:01.000Z</time>
      </trkpt>
      <trkpt lat="42.45730833" lon="-7.95088333">
        <ele>483.0</ele>
        <time>2018-10-03T08:54:02.000Z</time>
      </trkpt>
      <trkpt lat="42.45731" lon="-7.95090333">
        <ele>483.0</ele>
        <time>2018-10-03T08:54:03.000Z</time>
      </trkpt>
      <trkpt lat="42.45731333" lon="-7.95092">
        <ele>483.0</ele>
        <time>2018-10-03T08:54:04.000Z</time>
      </trkpt>
      <trkpt lat="42.45731333" lon="-7.95093833">
        <ele>483.0</ele>
        <time>2018-10-03T08:54:05.000Z</time>
      </trkpt>
      <trkpt lat="42.457315" lon="-7.950955">
        <ele>483.0</ele>
        <time>2018-10-03T08:54:06.000Z</time>
      </trkpt>
      <trkpt lat="42.45731333" lon="-7.95097333">
        <ele>483.0</ele>
        <time>2018-10-03T08:54:07.000Z</time>
      </trkpt>
      <trkpt lat="42.45731333" lon="-7.95099">
        <ele>483.0</ele>
        <time>2018-10-03T08:54:08.000Z</time>
      </trkpt>
      <trkpt lat="42.45731333" lon="-7.95101">
        <ele>483.0</ele>
        <time>2018-10-03T08:54:09.000Z</time>
      </trkpt>
      <trkpt lat="42.45731333" lon="-7.95103">
        <ele>483.0</ele>
        <time>2018-10-03T08:54:10.000Z</time>
      </trkpt>
      <trkpt lat="42.45731667" lon="-7.95105">
        <ele>483.0</ele>
        <time>2018-10-03T08:54:11.000Z</time>
      </trkpt>
      <trkpt lat="42.45732333" lon="-7.95107">
        <ele>483.0</ele>
        <time>2018-10-03T08:54:12.000Z</time>
      </trkpt>
      <trkpt lat="42.45733" lon="-7.95108833">
        <ele>483.0</ele>
        <time>2018-10-03T08:54:13.000Z</time>
      </trkpt>
      <trkpt lat="42.457335" lon="-7.95110667">
        <ele>483.0</ele>
        <time>2018-10-03T08:54:14.000Z</time>
      </trkpt>
      <trkpt lat="42.45734167" lon="-7.95112333">
        <ele>482.0</ele>
        <time>2018-10-03T08:54:15.000Z</time>
      </trkpt>
      <trkpt lat="42.45734833" lon="-7.95114167">
        <ele>482.0</ele>
        <time>2018-10-03T08:54:16.000Z</time>
      </trkpt>
      <trkpt lat="42.45735333" lon="-7.95116">
        <ele>482.0</ele>
        <time>2018-10-03T08:54:17.000Z</time>
      </trkpt>
      <trkpt lat="42.45735833" lon="-7.95117833">
        <ele>482.0</ele>
        <time>2018-10-03T08:54:18.000Z</time>
      </trkpt>
      <trkpt lat="42.45736333" lon="-7.951195">
        <ele>482.0</ele>
        <time>2018-10-03T08:54:19.000Z</time>
      </trkpt>
      <trkpt lat="42.45736833" lon="-7.95121333">
        <ele>482.0</ele>
        <time>2018-10-03T08:54:20.000Z</time>
      </trkpt>
      <trkpt lat="42.45737333" lon="-7.95123167">
        <ele>482.0</ele>
        <time>2018-10-03T08:54:21.000Z</time>
      </trkpt>
      <trkpt lat="42.45737833" lon="-7.95125">
        <ele>482.0</ele>
        <time>2018-10-03T08:54:22.000Z</time>
      </trkpt>
      <trkpt lat="42.457385" lon="-7.95126833">
        <ele>482.0</ele>
        <time>2018-10-03T08:54:23.000Z</time>
      </trkpt>
      <trkpt lat="42.45739" lon="-7.95128667">
        <ele>482.0</ele>
        <time>2018-10-03T08:54:24.000Z</time>
      </trkpt>
      <trkpt lat="42.45739667" lon="-7.951305">
        <ele>482.0</ele>
        <time>2018-10-03T08:54:25.000Z</time>
      </trkpt>
      <trkpt lat="42.457405" lon="-7.95132167">
        <ele>482.0</ele>
        <time>2018-10-03T08:54:26.000Z</time>
      </trkpt>
      <trkpt lat="42.45741" lon="-7.95134">
        <ele>482.0</ele>
        <time>2018-10-03T08:54:27.000Z</time>
      </trkpt>
      <trkpt lat="42.45741333" lon="-7.95135667">
        <ele>482.0</ele>
        <time>2018-10-03T08:54:28.000Z</time>
      </trkpt>
      <trkpt lat="42.45742" lon="-7.95137333">
        <ele>482.0</ele>
        <time>2018-10-03T08:54:29.000Z</time>
      </trkpt>
      <trkpt lat="42.45742667" lon="-7.95139167">
        <ele>482.0</ele>
        <time>2018-10-03T08:54:30.000Z</time>
      </trkpt>
      <trkpt lat="42.45743333" lon="-7.95140667">
        <ele>482.0</ele>
        <time>2018-10-03T08:54:31.000Z</time>
      </trkpt>
      <trkpt lat="42.45744" lon="-7.95142333">
        <ele>481.0</ele>
        <time>2018-10-03T08:54:32.000Z</time>
      </trkpt>
      <trkpt lat="42.45744667" lon="-7.95144">
        <ele>481.0</ele>
        <time>2018-10-03T08:54:33.000Z</time>
      </trkpt>
      <trkpt lat="42.45745333" lon="-7.95145667">
        <ele>481.0</ele>
        <time>2018-10-03T08:54:34.000Z</time>
      </trkpt>
      <trkpt lat="42.45746" lon="-7.951475">
        <ele>481.0</ele>
        <time>2018-10-03T08:54:35.000Z</time>
      </trkpt>
      <trkpt lat="42.45746833" lon="-7.95149167">
        <ele>481.0</ele>
        <time>2018-10-03T08:54:36.000Z</time>
      </trkpt>
      <trkpt lat="42.45747667" lon="-7.95151">
        <ele>481.0</ele>
        <time>2018-10-03T08:54:37.000Z</time>
      </trkpt>
      <trkpt lat="42.45748333" lon="-7.95153">
        <ele>481.0</ele>
        <time>2018-10-03T08:54:38.000Z</time>
      </trkpt>
      <trkpt lat="42.45748833" lon="-7.95154833">
        <ele>481.0</ele>
        <time>2018-10-03T08:54:39.000Z</time>
      </trkpt>
      <trkpt lat="42.457495" lon="-7.95156833">
        <ele>481.0</ele>
        <time>2018-10-03T08:54:40.000Z</time>
      </trkpt>
      <trkpt lat="42.45750333" lon="-7.95158833">
        <ele>481.0</ele>
        <time>2018-10-03T08:54:41.000Z</time>
      </trkpt>
      <trkpt lat="42.45750833" lon="-7.95160833">
        <ele>481.0</ele>
        <time>2018-10-03T08:54:42.000Z</time>
      </trkpt>
      <trkpt lat="42.45751333" lon="-7.95162833">
        <ele>481.0</ele>
        <time>2018-10-03T08:54:43.000Z</time>
      </trkpt>
      <trkpt lat="42.45752" lon="-7.95164667">
        <ele>481.0</ele>
        <time>2018-10-03T08:54:44.000Z</time>
      </trkpt>
      <trkpt lat="42.45752333" lon="-7.951665">
        <ele>481.0</ele>
        <time>2018-10-03T08:54:45.000Z</time>
      </trkpt>
      <trkpt lat="42.457525" lon="-7.95168167">
        <ele>481.0</ele>
        <time>2018-10-03T08:54:46.000Z</time>
      </trkpt>
      <trkpt lat="42.45753" lon="-7.95170167">
        <ele>481.0</ele>
        <time>2018-10-03T08:54:47.000Z</time>
      </trkpt>
      <trkpt lat="42.457535" lon="-7.95171833">
        <ele>481.0</ele>
        <time>2018-10-03T08:54:48.000Z</time>
      </trkpt>
      <trkpt lat="42.45754167" lon="-7.95173833">
        <ele>481.0</ele>
        <time>2018-10-03T08:54:49.000Z</time>
      </trkpt>
      <trkpt lat="42.45754667" lon="-7.95175667">
        <ele>481.0</ele>
        <time>2018-10-03T08:54:50.000Z</time>
      </trkpt>
      <trkpt lat="42.45755167" lon="-7.95177667">
        <ele>481.0</ele>
        <time>2018-10-03T08:54:51.000Z</time>
      </trkpt>
      <trkpt lat="42.45755833" lon="-7.951795">
        <ele>481.0</ele>
        <time>2018-10-03T08:54:52.000Z</time>
      </trkpt>
      <trkpt lat="42.457565" lon="-7.95181333">
        <ele>481.0</ele>
        <time>2018-10-03T08:54:53.000Z</time>
      </trkpt>
      <trkpt lat="42.45757167" lon="-7.95182833">
        <ele>481.0</ele>
        <time>2018-10-03T08:54:54.000Z</time>
      </trkpt>
      <trkpt lat="42.45757833" lon="-7.951845">
        <ele>481.0</ele>
        <time>2018-10-03T08:54:55.000Z</time>
      </trkpt>
      <trkpt lat="42.45758667" lon="-7.95186333">
        <ele>481.0</ele>
        <time>2018-10-03T08:54:56.000Z</time>
      </trkpt>
      <trkpt lat="42.457595" lon="-7.95188">
        <ele>481.0</ele>
        <time>2018-10-03T08:54:57.000Z</time>
      </trkpt>
      <trkpt lat="42.457605" lon="-7.95189667">
        <ele>481.0</ele>
        <time>2018-10-03T08:54:58.000Z</time>
      </trkpt>
      <trkpt lat="42.45761333" lon="-7.95191333">
        <ele>481.0</ele>
        <time>2018-10-03T08:54:59.000Z</time>
      </trkpt>
      <trkpt lat="42.45762167" lon="-7.95193">
        <ele>481.0</ele>
        <time>2018-10-03T08:55:00.000Z</time>
      </trkpt>
      <trkpt lat="42.45763" lon="-7.95194833">
        <ele>481.0</ele>
        <time>2018-10-03T08:55:01.000Z</time>
      </trkpt>
      <trkpt lat="42.45763667" lon="-7.951965">
        <ele>481.0</ele>
        <time>2018-10-03T08:55:02.000Z</time>
      </trkpt>
      <trkpt lat="42.45764333" lon="-7.95198167">
        <ele>481.0</ele>
        <time>2018-10-03T08:55:03.000Z</time>
      </trkpt>
      <trkpt lat="42.45765" lon="-7.952">
        <ele>481.0</ele>
        <time>2018-10-03T08:55:04.000Z</time>
      </trkpt>
      <trkpt lat="42.45765667" lon="-7.95202">
        <ele>481.0</ele>
        <time>2018-10-03T08:55:05.000Z</time>
      </trkpt>
      <trkpt lat="42.45766333" lon="-7.95203667">
        <ele>481.0</ele>
        <time>2018-10-03T08:55:06.000Z</time>
      </trkpt>
      <trkpt lat="42.45767" lon="-7.952055">
        <ele>481.0</ele>
        <time>2018-10-03T08:55:07.000Z</time>
      </trkpt>
      <trkpt lat="42.45767667" lon="-7.95207167">
        <ele>481.0</ele>
        <time>2018-10-03T08:55:08.000Z</time>
      </trkpt>
      <trkpt lat="42.45768333" lon="-7.952085">
        <ele>481.0</ele>
        <time>2018-10-03T08:55:09.000Z</time>
      </trkpt>
      <trkpt lat="42.45768667" lon="-7.95210167">
        <ele>481.0</ele>
        <time>2018-10-03T08:55:10.000Z</time>
      </trkpt>
      <trkpt lat="42.45769" lon="-7.95211833">
        <ele>481.0</ele>
        <time>2018-10-03T08:55:11.000Z</time>
      </trkpt>
      <trkpt lat="42.45768833" lon="-7.95213667">
        <ele>481.0</ele>
        <time>2018-10-03T08:55:12.000Z</time>
      </trkpt>
      <trkpt lat="42.45769" lon="-7.952155">
        <ele>481.0</ele>
        <time>2018-10-03T08:55:13.000Z</time>
      </trkpt>
      <trkpt lat="42.45769167" lon="-7.952175">
        <ele>481.0</ele>
        <time>2018-10-03T08:55:14.000Z</time>
      </trkpt>
      <trkpt lat="42.45769333" lon="-7.95219667">
        <ele>481.0</ele>
        <time>2018-10-03T08:55:15.000Z</time>
      </trkpt>
      <trkpt lat="42.45769333" lon="-7.95221667">
        <ele>481.0</ele>
        <time>2018-10-03T08:55:16.000Z</time>
      </trkpt>
      <trkpt lat="42.45769167" lon="-7.95223833">
        <ele>482.0</ele>
        <time>2018-10-03T08:55:17.000Z</time>
      </trkpt>
      <trkpt lat="42.45769" lon="-7.95225833">
        <ele>482.0</ele>
        <time>2018-10-03T08:55:18.000Z</time>
      </trkpt>
      <trkpt lat="42.45768667" lon="-7.95228167">
        <ele>482.0</ele>
        <time>2018-10-03T08:55:19.000Z</time>
      </trkpt>
      <trkpt lat="42.457685" lon="-7.95230333">
        <ele>482.0</ele>
        <time>2018-10-03T08:55:20.000Z</time>
      </trkpt>
      <trkpt lat="42.45768333" lon="-7.952325">
        <ele>483.0</ele>
        <time>2018-10-03T08:55:21.000Z</time>
      </trkpt>
      <trkpt lat="42.45768167" lon="-7.95234667">
        <ele>483.0</ele>
        <time>2018-10-03T08:55:22.000Z</time>
      </trkpt>
      <trkpt lat="42.45768" lon="-7.95236833">
        <ele>483.0</ele>
        <time>2018-10-03T08:55:23.000Z</time>
      </trkpt>
      <trkpt lat="42.45768" lon="-7.95238833">
        <ele>483.0</ele>
        <time>2018-10-03T08:55:24.000Z</time>
      </trkpt>
      <trkpt lat="42.45767833" lon="-7.95241">
        <ele>484.0</ele>
        <time>2018-10-03T08:55:25.000Z</time>
      </trkpt>
      <trkpt lat="42.45767833" lon="-7.95243167">
        <ele>484.0</ele>
        <time>2018-10-03T08:55:26.000Z</time>
      </trkpt>
      <trkpt lat="42.45767833" lon="-7.95245167">
        <ele>484.0</ele>
        <time>2018-10-03T08:55:27.000Z</time>
      </trkpt>
      <trkpt lat="42.45767833" lon="-7.95247167">
        <ele>484.0</ele>
        <time>2018-10-03T08:55:28.000Z</time>
      </trkpt>
      <trkpt lat="42.45767833" lon="-7.95249">
        <ele>484.0</ele>
        <time>2018-10-03T08:55:29.000Z</time>
      </trkpt>
      <trkpt lat="42.45767833" lon="-7.95250833">
        <ele>484.0</ele>
        <time>2018-10-03T08:55:30.000Z</time>
      </trkpt>
      <trkpt lat="42.45767833" lon="-7.952525">
        <ele>485.0</ele>
        <time>2018-10-03T08:55:31.000Z</time>
      </trkpt>
      <trkpt lat="42.45768" lon="-7.95254167">
        <ele>484.0</ele>
        <time>2018-10-03T08:55:32.000Z</time>
      </trkpt>
      <trkpt lat="42.45768167" lon="-7.95256">
        <ele>484.0</ele>
        <time>2018-10-03T08:55:33.000Z</time>
      </trkpt>
      <trkpt lat="42.45768333" lon="-7.95258">
        <ele>484.0</ele>
        <time>2018-10-03T08:55:34.000Z</time>
      </trkpt>
      <trkpt lat="42.457685" lon="-7.95259833">
        <ele>484.0</ele>
        <time>2018-10-03T08:55:35.000Z</time>
      </trkpt>
      <trkpt lat="42.457685" lon="-7.95262">
        <ele>484.0</ele>
        <time>2018-10-03T08:55:36.000Z</time>
      </trkpt>
      <trkpt lat="42.45768667" lon="-7.95263833">
        <ele>484.0</ele>
        <time>2018-10-03T08:55:37.000Z</time>
      </trkpt>
      <trkpt lat="42.45769" lon="-7.952655">
        <ele>484.0</ele>
        <time>2018-10-03T08:55:38.000Z</time>
      </trkpt>
      <trkpt lat="42.45769333" lon="-7.952675">
        <ele>484.0</ele>
        <time>2018-10-03T08:55:39.000Z</time>
      </trkpt>
      <trkpt lat="42.45769833" lon="-7.952695">
        <ele>484.0</ele>
        <time>2018-10-03T08:55:40.000Z</time>
      </trkpt>
      <trkpt lat="42.45770167" lon="-7.95271167">
        <ele>484.0</ele>
        <time>2018-10-03T08:55:41.000Z</time>
      </trkpt>
      <trkpt lat="42.457705" lon="-7.95273">
        <ele>484.0</ele>
        <time>2018-10-03T08:55:42.000Z</time>
      </trkpt>
      <trkpt lat="42.457705" lon="-7.95274833">
        <ele>485.0</ele>
        <time>2018-10-03T08:55:43.000Z</time>
      </trkpt>
      <trkpt lat="42.45770667" lon="-7.95276667">
        <ele>485.0</ele>
        <time>2018-10-03T08:55:44.000Z</time>
      </trkpt>
      <trkpt lat="42.457705" lon="-7.952785">
        <ele>485.0</ele>
        <time>2018-10-03T08:55:45.000Z</time>
      </trkpt>
      <trkpt lat="42.45770833" lon="-7.95280167">
        <ele>485.0</ele>
        <time>2018-10-03T08:55:46.000Z</time>
      </trkpt>
      <trkpt lat="42.45770833" lon="-7.95281333">
        <ele>485.0</ele>
        <time>2018-10-03T08:55:47.000Z</time>
      </trkpt>
      <trkpt lat="42.457715" lon="-7.95282333">
        <ele>485.0</ele>
        <time>2018-10-03T08:55:48.000Z</time>
      </trkpt>
      <trkpt lat="42.457725" lon="-7.95283167">
        <ele>485.0</ele>
        <time>2018-10-03T08:55:49.000Z</time>
      </trkpt>
      <trkpt lat="42.457735" lon="-7.95284167">
        <ele>485.0</ele>
        <time>2018-10-03T08:55:50.000Z</time>
      </trkpt>
      <trkpt lat="42.45774667" lon="-7.95285667">
        <ele>485.0</ele>
        <time>2018-10-03T08:55:51.000Z</time>
      </trkpt>
      <trkpt lat="42.45775833" lon="-7.95287167">
        <ele>485.0</ele>
        <time>2018-10-03T08:55:52.000Z</time>
      </trkpt>
      <trkpt lat="42.45777167" lon="-7.95288833">
        <ele>485.0</ele>
        <time>2018-10-03T08:55:53.000Z</time>
      </trkpt>
      <trkpt lat="42.45778" lon="-7.95290667">
        <ele>485.0</ele>
        <time>2018-10-03T08:55:54.000Z</time>
      </trkpt>
      <trkpt lat="42.457785" lon="-7.95292667">
        <ele>485.0</ele>
        <time>2018-10-03T08:55:55.000Z</time>
      </trkpt>
      <trkpt lat="42.45779" lon="-7.952945">
        <ele>485.0</ele>
        <time>2018-10-03T08:55:56.000Z</time>
      </trkpt>
      <trkpt lat="42.45779333" lon="-7.95296333">
        <ele>484.0</ele>
        <time>2018-10-03T08:55:57.000Z</time>
      </trkpt>
      <trkpt lat="42.457795" lon="-7.952985">
        <ele>484.0</ele>
        <time>2018-10-03T08:55:58.000Z</time>
      </trkpt>
      <trkpt lat="42.45779667" lon="-7.95300667">
        <ele>484.0</ele>
        <time>2018-10-03T08:55:59.000Z</time>
      </trkpt>
      <trkpt lat="42.4578" lon="-7.95303">
        <ele>484.0</ele>
        <time>2018-10-03T08:56:00.000Z</time>
      </trkpt>
      <trkpt lat="42.45780167" lon="-7.95305333">
        <ele>484.0</ele>
        <time>2018-10-03T08:56:01.000Z</time>
      </trkpt>
      <trkpt lat="42.45780167" lon="-7.95307667">
        <ele>484.0</ele>
        <time>2018-10-03T08:56:02.000Z</time>
      </trkpt>
      <trkpt lat="42.45780167" lon="-7.95309833">
        <ele>484.0</ele>
        <time>2018-10-03T08:56:03.000Z</time>
      </trkpt>
      <trkpt lat="42.457805" lon="-7.95312167">
        <ele>484.0</ele>
        <time>2018-10-03T08:56:04.000Z</time>
      </trkpt>
      <trkpt lat="42.45780667" lon="-7.95314167">
        <ele>484.0</ele>
        <time>2018-10-03T08:56:05.000Z</time>
      </trkpt>
      <trkpt lat="42.45781167" lon="-7.95316167">
        <ele>484.0</ele>
        <time>2018-10-03T08:56:06.000Z</time>
      </trkpt>
      <trkpt lat="42.45781333" lon="-7.95318">
        <ele>484.0</ele>
        <time>2018-10-03T08:56:07.000Z</time>
      </trkpt>
      <trkpt lat="42.45781667" lon="-7.95319833">
        <ele>484.0</ele>
        <time>2018-10-03T08:56:08.000Z</time>
      </trkpt>
      <trkpt lat="42.45781667" lon="-7.95321667">
        <ele>484.0</ele>
        <time>2018-10-03T08:56:09.000Z</time>
      </trkpt>
      <trkpt lat="42.45781667" lon="-7.95323333">
        <ele>484.0</ele>
        <time>2018-10-03T08:56:10.000Z</time>
      </trkpt>
      <trkpt lat="42.45781667" lon="-7.95325167">
        <ele>484.0</ele>
        <time>2018-10-03T08:56:11.000Z</time>
      </trkpt>
      <trkpt lat="42.45781833" lon="-7.95327167">
        <ele>484.0</ele>
        <time>2018-10-03T08:56:12.000Z</time>
      </trkpt>
      <trkpt lat="42.45782" lon="-7.95329167">
        <ele>484.0</ele>
        <time>2018-10-03T08:56:13.000Z</time>
      </trkpt>
      <trkpt lat="42.45782" lon="-7.95331333">
        <ele>484.0</ele>
        <time>2018-10-03T08:56:14.000Z</time>
      </trkpt>
      <trkpt lat="42.45782167" lon="-7.95333333">
        <ele>484.0</ele>
        <time>2018-10-03T08:56:15.000Z</time>
      </trkpt>
      <trkpt lat="42.457825" lon="-7.95335667">
        <ele>484.0</ele>
        <time>2018-10-03T08:56:16.000Z</time>
      </trkpt>
      <trkpt lat="42.45782667" lon="-7.95337667">
        <ele>484.0</ele>
        <time>2018-10-03T08:56:17.000Z</time>
      </trkpt>
      <trkpt lat="42.45783167" lon="-7.95339833">
        <ele>484.0</ele>
        <time>2018-10-03T08:56:18.000Z</time>
      </trkpt>
      <trkpt lat="42.457835" lon="-7.95342">
        <ele>484.0</ele>
        <time>2018-10-03T08:56:19.000Z</time>
      </trkpt>
      <trkpt lat="42.45784" lon="-7.953445">
        <ele>484.0</ele>
        <time>2018-10-03T08:56:20.000Z</time>
      </trkpt>
      <trkpt lat="42.45784833" lon="-7.953465">
        <ele>484.0</ele>
        <time>2018-10-03T08:56:21.000Z</time>
      </trkpt>
      <trkpt lat="42.45785667" lon="-7.95348167">
        <ele>484.0</ele>
        <time>2018-10-03T08:56:22.000Z</time>
      </trkpt>
      <trkpt lat="42.45786667" lon="-7.95349667">
        <ele>484.0</ele>
        <time>2018-10-03T08:56:23.000Z</time>
      </trkpt>
      <trkpt lat="42.45787333" lon="-7.95351167">
        <ele>484.0</ele>
        <time>2018-10-03T08:56:24.000Z</time>
      </trkpt>
      <trkpt lat="42.45787833" lon="-7.95352667">
        <ele>484.0</ele>
        <time>2018-10-03T08:56:25.000Z</time>
      </trkpt>
      <trkpt lat="42.45788333" lon="-7.95354333">
        <ele>484.0</ele>
        <time>2018-10-03T08:56:26.000Z</time>
      </trkpt>
      <trkpt lat="42.45788833" lon="-7.95356">
        <ele>484.0</ele>
        <time>2018-10-03T08:56:27.000Z</time>
      </trkpt>
      <trkpt lat="42.45789333" lon="-7.95357833">
        <ele>484.0</ele>
        <time>2018-10-03T08:56:28.000Z</time>
      </trkpt>
      <trkpt lat="42.4579" lon="-7.95359667">
        <ele>483.0</ele>
        <time>2018-10-03T08:56:29.000Z</time>
      </trkpt>
      <trkpt lat="42.457905" lon="-7.95361833">
        <ele>483.0</ele>
        <time>2018-10-03T08:56:30.000Z</time>
      </trkpt>
      <trkpt lat="42.45791" lon="-7.95363833">
        <ele>483.0</ele>
        <time>2018-10-03T08:56:31.000Z</time>
      </trkpt>
      <trkpt lat="42.45791333" lon="-7.95365667">
        <ele>483.0</ele>
        <time>2018-10-03T08:56:32.000Z</time>
      </trkpt>
      <trkpt lat="42.45792" lon="-7.953675">
        <ele>483.0</ele>
        <time>2018-10-03T08:56:33.000Z</time>
      </trkpt>
      <trkpt lat="42.457925" lon="-7.95369167">
        <ele>483.0</ele>
        <time>2018-10-03T08:56:34.000Z</time>
      </trkpt>
      <trkpt lat="42.45793" lon="-7.95370833">
        <ele>483.0</ele>
        <time>2018-10-03T08:56:35.000Z</time>
      </trkpt>
      <trkpt lat="42.45793667" lon="-7.95372333">
        <ele>483.0</ele>
        <time>2018-10-03T08:56:36.000Z</time>
      </trkpt>
      <trkpt lat="42.45794" lon="-7.95373667">
        <ele>483.0</ele>
        <time>2018-10-03T08:56:37.000Z</time>
      </trkpt>
      <trkpt lat="42.457945" lon="-7.95375">
        <ele>483.0</ele>
        <time>2018-10-03T08:56:38.000Z</time>
      </trkpt>
      <trkpt lat="42.45794833" lon="-7.95376333">
        <ele>483.0</ele>
        <time>2018-10-03T08:56:39.000Z</time>
      </trkpt>
      <trkpt lat="42.457955" lon="-7.95377667">
        <ele>483.0</ele>
        <time>2018-10-03T08:56:40.000Z</time>
      </trkpt>
      <trkpt lat="42.45796" lon="-7.95378833">
        <ele>483.0</ele>
        <time>2018-10-03T08:56:41.000Z</time>
      </trkpt>
      <trkpt lat="42.457965" lon="-7.95380167">
        <ele>484.0</ele>
        <time>2018-10-03T08:56:42.000Z</time>
      </trkpt>
      <trkpt lat="42.45797167" lon="-7.953815">
        <ele>484.0</ele>
        <time>2018-10-03T08:56:43.000Z</time>
      </trkpt>
      <trkpt lat="42.45797667" lon="-7.95382667">
        <ele>484.0</ele>
        <time>2018-10-03T08:56:44.000Z</time>
      </trkpt>
      <trkpt lat="42.45798" lon="-7.95384333">
        <ele>484.0</ele>
        <time>2018-10-03T08:56:45.000Z</time>
      </trkpt>
      <trkpt lat="42.45798667" lon="-7.95386">
        <ele>484.0</ele>
        <time>2018-10-03T08:56:46.000Z</time>
      </trkpt>
      <trkpt lat="42.45798833" lon="-7.95387667">
        <ele>484.0</ele>
        <time>2018-10-03T08:56:47.000Z</time>
      </trkpt>
      <trkpt lat="42.45799167" lon="-7.95389667">
        <ele>484.0</ele>
        <time>2018-10-03T08:56:48.000Z</time>
      </trkpt>
      <trkpt lat="42.45799667" lon="-7.95391833">
        <ele>484.0</ele>
        <time>2018-10-03T08:56:49.000Z</time>
      </trkpt>
      <trkpt lat="42.458" lon="-7.95393667">
        <ele>485.0</ele>
        <time>2018-10-03T08:56:50.000Z</time>
      </trkpt>
      <trkpt lat="42.458005" lon="-7.95395667">
        <ele>485.0</ele>
        <time>2018-10-03T08:56:51.000Z</time>
      </trkpt>
      <trkpt lat="42.45801" lon="-7.95397833">
        <ele>485.0</ele>
        <time>2018-10-03T08:56:52.000Z</time>
      </trkpt>
      <trkpt lat="42.45801333" lon="-7.95399667">
        <ele>484.0</ele>
        <time>2018-10-03T08:56:53.000Z</time>
      </trkpt>
      <trkpt lat="42.45801833" lon="-7.95401833">
        <ele>484.0</ele>
        <time>2018-10-03T08:56:54.000Z</time>
      </trkpt>
      <trkpt lat="42.458025" lon="-7.95403833">
        <ele>484.0</ele>
        <time>2018-10-03T08:56:55.000Z</time>
      </trkpt>
      <trkpt lat="42.45803" lon="-7.95405833">
        <ele>484.0</ele>
        <time>2018-10-03T08:56:56.000Z</time>
      </trkpt>
      <trkpt lat="42.45803333" lon="-7.95408">
        <ele>484.0</ele>
        <time>2018-10-03T08:56:57.000Z</time>
      </trkpt>
      <trkpt lat="42.45803833" lon="-7.95410333">
        <ele>485.0</ele>
        <time>2018-10-03T08:56:58.000Z</time>
      </trkpt>
      <trkpt lat="42.45804333" lon="-7.95412667">
        <ele>485.0</ele>
        <time>2018-10-03T08:56:59.000Z</time>
      </trkpt>
      <trkpt lat="42.45804667" lon="-7.954145">
        <ele>485.0</ele>
        <time>2018-10-03T08:57:00.000Z</time>
      </trkpt>
      <trkpt lat="42.45805" lon="-7.954165">
        <ele>485.0</ele>
        <time>2018-10-03T08:57:01.000Z</time>
      </trkpt>
      <trkpt lat="42.45805167" lon="-7.95418667">
        <ele>485.0</ele>
        <time>2018-10-03T08:57:02.000Z</time>
      </trkpt>
      <trkpt lat="42.458055" lon="-7.95420833">
        <ele>485.0</ele>
        <time>2018-10-03T08:57:03.000Z</time>
      </trkpt>
      <trkpt lat="42.45805667" lon="-7.95422833">
        <ele>485.0</ele>
        <time>2018-10-03T08:57:04.000Z</time>
      </trkpt>
      <trkpt lat="42.45806167" lon="-7.95425">
        <ele>485.0</ele>
        <time>2018-10-03T08:57:05.000Z</time>
      </trkpt>
      <trkpt lat="42.45806667" lon="-7.95427167">
        <ele>485.0</ele>
        <time>2018-10-03T08:57:06.000Z</time>
      </trkpt>
      <trkpt lat="42.45807333" lon="-7.95429167">
        <ele>485.0</ele>
        <time>2018-10-03T08:57:07.000Z</time>
      </trkpt>
      <trkpt lat="42.45807667" lon="-7.95431">
        <ele>485.0</ele>
        <time>2018-10-03T08:57:08.000Z</time>
      </trkpt>
      <trkpt lat="42.45808" lon="-7.95433">
        <ele>485.0</ele>
        <time>2018-10-03T08:57:09.000Z</time>
      </trkpt>
      <trkpt lat="42.45808167" lon="-7.95435">
        <ele>485.0</ele>
        <time>2018-10-03T08:57:10.000Z</time>
      </trkpt>
      <trkpt lat="42.45808333" lon="-7.95437">
        <ele>485.0</ele>
        <time>2018-10-03T08:57:11.000Z</time>
      </trkpt>
      <trkpt lat="42.458085" lon="-7.95439">
        <ele>485.0</ele>
        <time>2018-10-03T08:57:12.000Z</time>
      </trkpt>
      <trkpt lat="42.45808667" lon="-7.95441">
        <ele>485.0</ele>
        <time>2018-10-03T08:57:13.000Z</time>
      </trkpt>
      <trkpt lat="42.45809" lon="-7.954435">
        <ele>485.0</ele>
        <time>2018-10-03T08:57:14.000Z</time>
      </trkpt>
      <trkpt lat="42.45809333" lon="-7.95446">
        <ele>485.0</ele>
        <time>2018-10-03T08:57:15.000Z</time>
      </trkpt>
      <trkpt lat="42.45809667" lon="-7.954485">
        <ele>485.0</ele>
        <time>2018-10-03T08:57:16.000Z</time>
      </trkpt>
      <trkpt lat="42.45810167" lon="-7.95451">
        <ele>485.0</ele>
        <time>2018-10-03T08:57:17.000Z</time>
      </trkpt>
      <trkpt lat="42.458105" lon="-7.95453667">
        <ele>485.0</ele>
        <time>2018-10-03T08:57:18.000Z</time>
      </trkpt>
      <trkpt lat="42.458105" lon="-7.95455833">
        <ele>485.0</ele>
        <time>2018-10-03T08:57:19.000Z</time>
      </trkpt>
      <trkpt lat="42.45810333" lon="-7.95457833">
        <ele>485.0</ele>
        <time>2018-10-03T08:57:20.000Z</time>
      </trkpt>
      <trkpt lat="42.45810167" lon="-7.9546">
        <ele>485.0</ele>
        <time>2018-10-03T08:57:21.000Z</time>
      </trkpt>
      <trkpt lat="42.45810167" lon="-7.95462">
        <ele>485.0</ele>
        <time>2018-10-03T08:57:22.000Z</time>
      </trkpt>
      <trkpt lat="42.45810333" lon="-7.95463833">
        <ele>485.0</ele>
        <time>2018-10-03T08:57:23.000Z</time>
      </trkpt>
      <trkpt lat="42.45810333" lon="-7.954655">
        <ele>485.0</ele>
        <time>2018-10-03T08:57:24.000Z</time>
      </trkpt>
      <trkpt lat="42.45810333" lon="-7.954675">
        <ele>486.0</ele>
        <time>2018-10-03T08:57:25.000Z</time>
      </trkpt>
      <trkpt lat="42.45810333" lon="-7.95469333">
        <ele>486.0</ele>
        <time>2018-10-03T08:57:26.000Z</time>
      </trkpt>
      <trkpt lat="42.45810167" lon="-7.95471333">
        <ele>486.0</ele>
        <time>2018-10-03T08:57:27.000Z</time>
      </trkpt>
      <trkpt lat="42.45810167" lon="-7.95473333">
        <ele>486.0</ele>
        <time>2018-10-03T08:57:28.000Z</time>
      </trkpt>
      <trkpt lat="42.45810167" lon="-7.95475833">
        <ele>485.0</ele>
        <time>2018-10-03T08:57:29.000Z</time>
      </trkpt>
      <trkpt lat="42.45810167" lon="-7.95478">
        <ele>485.0</ele>
        <time>2018-10-03T08:57:30.000Z</time>
      </trkpt>
      <trkpt lat="42.4581" lon="-7.95480167">
        <ele>485.0</ele>
        <time>2018-10-03T08:57:31.000Z</time>
      </trkpt>
      <trkpt lat="42.45809833" lon="-7.954825">
        <ele>485.0</ele>
        <time>2018-10-03T08:57:32.000Z</time>
      </trkpt>
      <trkpt lat="42.45809833" lon="-7.95485">
        <ele>485.0</ele>
        <time>2018-10-03T08:57:33.000Z</time>
      </trkpt>
      <trkpt lat="42.45809833" lon="-7.95487333">
        <ele>485.0</ele>
        <time>2018-10-03T08:57:34.000Z</time>
      </trkpt>
      <trkpt lat="42.45809667" lon="-7.95489667">
        <ele>485.0</ele>
        <time>2018-10-03T08:57:35.000Z</time>
      </trkpt>
      <trkpt lat="42.458095" lon="-7.95492167">
        <ele>485.0</ele>
        <time>2018-10-03T08:57:36.000Z</time>
      </trkpt>
      <trkpt lat="42.45809333" lon="-7.95494667">
        <ele>485.0</ele>
        <time>2018-10-03T08:57:37.000Z</time>
      </trkpt>
      <trkpt lat="42.45809333" lon="-7.95497167">
        <ele>485.0</ele>
        <time>2018-10-03T08:57:38.000Z</time>
      </trkpt>
      <trkpt lat="42.45809333" lon="-7.95499333">
        <ele>485.0</ele>
        <time>2018-10-03T08:57:39.000Z</time>
      </trkpt>
      <trkpt lat="42.45809667" lon="-7.955015">
        <ele>485.0</ele>
        <time>2018-10-03T08:57:40.000Z</time>
      </trkpt>
      <trkpt lat="42.45809833" lon="-7.95503667">
        <ele>485.0</ele>
        <time>2018-10-03T08:57:41.000Z</time>
      </trkpt>
      <trkpt lat="42.45810167" lon="-7.95505833">
        <ele>485.0</ele>
        <time>2018-10-03T08:57:42.000Z</time>
      </trkpt>
      <trkpt lat="42.458105" lon="-7.95508333">
        <ele>485.0</ele>
        <time>2018-10-03T08:57:43.000Z</time>
      </trkpt>
      <trkpt lat="42.45810667" lon="-7.95510667">
        <ele>485.0</ele>
        <time>2018-10-03T08:57:44.000Z</time>
      </trkpt>
      <trkpt lat="42.45810833" lon="-7.95512667">
        <ele>485.0</ele>
        <time>2018-10-03T08:57:45.000Z</time>
      </trkpt>
      <trkpt lat="42.45811333" lon="-7.95514833">
        <ele>485.0</ele>
        <time>2018-10-03T08:57:46.000Z</time>
      </trkpt>
      <trkpt lat="42.45812" lon="-7.95517167">
        <ele>485.0</ele>
        <time>2018-10-03T08:57:47.000Z</time>
      </trkpt>
      <trkpt lat="42.458125" lon="-7.95519167">
        <ele>484.0</ele>
        <time>2018-10-03T08:57:48.000Z</time>
      </trkpt>
      <trkpt lat="42.45812833" lon="-7.95521333">
        <ele>484.0</ele>
        <time>2018-10-03T08:57:49.000Z</time>
      </trkpt>
      <trkpt lat="42.45813333" lon="-7.955235">
        <ele>484.0</ele>
        <time>2018-10-03T08:57:50.000Z</time>
      </trkpt>
      <trkpt lat="42.458135" lon="-7.955255">
        <ele>484.0</ele>
        <time>2018-10-03T08:57:51.000Z</time>
      </trkpt>
      <trkpt lat="42.45813667" lon="-7.95527833">
        <ele>484.0</ele>
        <time>2018-10-03T08:57:52.000Z</time>
      </trkpt>
      <trkpt lat="42.45813833" lon="-7.95530167">
        <ele>483.0</ele>
        <time>2018-10-03T08:57:53.000Z</time>
      </trkpt>
      <trkpt lat="42.45814" lon="-7.95532333">
        <ele>483.0</ele>
        <time>2018-10-03T08:57:54.000Z</time>
      </trkpt>
      <trkpt lat="42.45814167" lon="-7.955345">
        <ele>483.0</ele>
        <time>2018-10-03T08:57:55.000Z</time>
      </trkpt>
      <trkpt lat="42.458145" lon="-7.95536667">
        <ele>483.0</ele>
        <time>2018-10-03T08:57:56.000Z</time>
      </trkpt>
      <trkpt lat="42.45814833" lon="-7.95539">
        <ele>483.0</ele>
        <time>2018-10-03T08:57:57.000Z</time>
      </trkpt>
      <trkpt lat="42.45815333" lon="-7.95540833">
        <ele>483.0</ele>
        <time>2018-10-03T08:57:58.000Z</time>
      </trkpt>
      <trkpt lat="42.45815667" lon="-7.95541667">
        <ele>483.0</ele>
        <time>2018-10-03T08:57:59.000Z</time>
      </trkpt>
      <trkpt lat="42.45815833" lon="-7.95542">
        <ele>483.0</ele>
        <time>2018-10-03T08:58:00.000Z</time>
      </trkpt>
      <trkpt lat="42.45815833" lon="-7.95542167">
        <ele>483.0</ele>
        <time>2018-10-03T08:58:01.000Z</time>
      </trkpt>
      <trkpt lat="42.45815833" lon="-7.95542167">
        <ele>483.0</ele>
        <time>2018-10-03T08:58:02.000Z</time>
      </trkpt>
      <trkpt lat="42.45815833" lon="-7.95542333">
        <ele>483.0</ele>
        <time>2018-10-03T08:58:03.000Z</time>
      </trkpt>
      <trkpt lat="42.45815833" lon="-7.955425">
        <ele>483.0</ele>
        <time>2018-10-03T08:58:04.000Z</time>
      </trkpt>
      <trkpt lat="42.45816333" lon="-7.95543167">
        <ele>483.0</ele>
        <time>2018-10-03T08:58:05.000Z</time>
      </trkpt>
      <trkpt lat="42.45816667" lon="-7.955445">
        <ele>483.0</ele>
        <time>2018-10-03T08:58:06.000Z</time>
      </trkpt>
      <trkpt lat="42.45817167" lon="-7.95546">
        <ele>483.0</ele>
        <time>2018-10-03T08:58:07.000Z</time>
      </trkpt>
      <trkpt lat="42.458175" lon="-7.95547333">
        <ele>483.0</ele>
        <time>2018-10-03T08:58:08.000Z</time>
      </trkpt>
      <trkpt lat="42.45817833" lon="-7.95548667">
        <ele>483.0</ele>
        <time>2018-10-03T08:58:09.000Z</time>
      </trkpt>
      <trkpt lat="42.45818167" lon="-7.95549833">
        <ele>483.0</ele>
        <time>2018-10-03T08:58:10.000Z</time>
      </trkpt>
      <trkpt lat="42.45818333" lon="-7.95550167">
        <ele>483.0</ele>
        <time>2018-10-03T08:58:11.000Z</time>
      </trkpt>
      <trkpt lat="42.45818167" lon="-7.95550333">
        <ele>483.0</ele>
        <time>2018-10-03T08:58:12.000Z</time>
      </trkpt>
      <trkpt lat="42.45818" lon="-7.95550333">
        <ele>483.0</ele>
        <time>2018-10-03T08:58:13.000Z</time>
      </trkpt>
      <trkpt lat="42.45818" lon="-7.955505">
        <ele>482.0</ele>
        <time>2018-10-03T08:58:14.000Z</time>
      </trkpt>
      <trkpt lat="42.45818" lon="-7.95550667">
        <ele>482.0</ele>
        <time>2018-10-03T08:58:15.000Z</time>
      </trkpt>
      <trkpt lat="42.45818167" lon="-7.95550833">
        <ele>482.0</ele>
        <time>2018-10-03T08:58:16.000Z</time>
      </trkpt>
      <trkpt lat="42.45818167" lon="-7.95551">
        <ele>482.0</ele>
        <time>2018-10-03T08:58:17.000Z</time>
      </trkpt>
      <trkpt lat="42.45818167" lon="-7.95551">
        <ele>482.0</ele>
        <time>2018-10-03T08:58:18.000Z</time>
      </trkpt>
      <trkpt lat="42.45818167" lon="-7.95551167">
        <ele>482.0</ele>
        <time>2018-10-03T08:58:19.000Z</time>
      </trkpt>
      <trkpt lat="42.45818167" lon="-7.95551333">
        <ele>482.0</ele>
        <time>2018-10-03T08:58:20.000Z</time>
      </trkpt>
      <trkpt lat="42.45818" lon="-7.95551333">
        <ele>482.0</ele>
        <time>2018-10-03T08:58:21.000Z</time>
      </trkpt>
      <trkpt lat="42.45818" lon="-7.955515">
        <ele>482.0</ele>
        <time>2018-10-03T08:58:22.000Z</time>
      </trkpt>
      <trkpt lat="42.45818" lon="-7.955515">
        <ele>482.0</ele>
        <time>2018-10-03T08:58:23.000Z</time>
      </trkpt>
      <trkpt lat="42.45818" lon="-7.95551667">
        <ele>482.0</ele>
        <time>2018-10-03T08:58:24.000Z</time>
      </trkpt>
      <trkpt lat="42.45818" lon="-7.95551667">
        <ele>482.0</ele>
        <time>2018-10-03T08:58:25.000Z</time>
      </trkpt>
      <trkpt lat="42.45818" lon="-7.95551833">
        <ele>482.0</ele>
        <time>2018-10-03T08:58:26.000Z</time>
      </trkpt>
      <trkpt lat="42.45818" lon="-7.95551833">
        <ele>482.0</ele>
        <time>2018-10-03T08:58:27.000Z</time>
      </trkpt>
      <trkpt lat="42.45818" lon="-7.95551833">
        <ele>482.0</ele>
        <time>2018-10-03T08:58:28.000Z</time>
      </trkpt>
      <trkpt lat="42.45818" lon="-7.95552">
        <ele>482.0</ele>
        <time>2018-10-03T08:58:29.000Z</time>
      </trkpt>
      <trkpt lat="42.45818" lon="-7.95552">
        <ele>482.0</ele>
        <time>2018-10-03T08:58:30.000Z</time>
      </trkpt>
      <trkpt lat="42.45818" lon="-7.95552">
        <ele>482.0</ele>
        <time>2018-10-03T08:58:31.000Z</time>
      </trkpt>
      <trkpt lat="42.45818" lon="-7.95552167">
        <ele>482.0</ele>
        <time>2018-10-03T08:58:32.000Z</time>
      </trkpt>
      <trkpt lat="42.45818" lon="-7.95552167">
        <ele>482.0</ele>
        <time>2018-10-03T08:58:33.000Z</time>
      </trkpt>
      <trkpt lat="42.45817833" lon="-7.95552167">
        <ele>482.0</ele>
        <time>2018-10-03T08:58:34.000Z</time>
      </trkpt>
      <trkpt lat="42.45817833" lon="-7.95552167">
        <ele>482.0</ele>
        <time>2018-10-03T08:58:35.000Z</time>
      </trkpt>
      <trkpt lat="42.45817833" lon="-7.95552167">
        <ele>482.0</ele>
        <time>2018-10-03T08:58:36.000Z</time>
      </trkpt>
      <trkpt lat="42.45817833" lon="-7.95552333">
        <ele>482.0</ele>
        <time>2018-10-03T08:58:37.000Z</time>
      </trkpt>
      <trkpt lat="42.45817833" lon="-7.95552333">
        <ele>482.0</ele>
        <time>2018-10-03T08:58:38.000Z</time>
      </trkpt>
      <trkpt lat="42.45817833" lon="-7.95552333">
        <ele>482.0</ele>
        <time>2018-10-03T08:58:39.000Z</time>
      </trkpt>
      <trkpt lat="42.45817833" lon="-7.95552333">
        <ele>482.0</ele>
        <time>2018-10-03T08:58:40.000Z</time>
      </trkpt>
      <trkpt lat="42.45817833" lon="-7.95552333">
        <ele>482.0</ele>
        <time>2018-10-03T08:58:41.000Z</time>
      </trkpt>
      <trkpt lat="42.45817833" lon="-7.95552333">
        <ele>482.0</ele>
        <time>2018-10-03T08:58:42.000Z</time>
      </trkpt>
      <trkpt lat="42.45817833" lon="-7.95552333">
        <ele>482.0</ele>
        <time>2018-10-03T08:58:43.000Z</time>
      </trkpt>
      <trkpt lat="42.45817833" lon="-7.95552333">
        <ele>482.0</ele>
        <time>2018-10-03T08:58:44.000Z</time>
      </trkpt>
      <trkpt lat="42.45817833" lon="-7.95552333">
        <ele>482.0</ele>
        <time>2018-10-03T08:58:45.000Z</time>
      </trkpt>
      <trkpt lat="42.45818167" lon="-7.95552833">
        <ele>482.0</ele>
        <time>2018-10-03T08:58:46.000Z</time>
      </trkpt>
      <trkpt lat="42.45818667" lon="-7.95553833">
        <ele>482.0</ele>
        <time>2018-10-03T08:58:47.000Z</time>
      </trkpt>
      <trkpt lat="42.45819" lon="-7.95555167">
        <ele>482.0</ele>
        <time>2018-10-03T08:58:48.000Z</time>
      </trkpt>
      <trkpt lat="42.45819167" lon="-7.95556667">
        <ele>482.0</ele>
        <time>2018-10-03T08:58:49.000Z</time>
      </trkpt>
      <trkpt lat="42.458195" lon="-7.95558333">
        <ele>482.0</ele>
        <time>2018-10-03T08:58:50.000Z</time>
      </trkpt>
      <trkpt lat="42.4582" lon="-7.95560167">
        <ele>481.0</ele>
        <time>2018-10-03T08:58:51.000Z</time>
      </trkpt>
      <trkpt lat="42.45820333" lon="-7.95562167">
        <ele>481.0</ele>
        <time>2018-10-03T08:58:52.000Z</time>
      </trkpt>
      <trkpt lat="42.45821" lon="-7.95563667">
        <ele>481.0</ele>
        <time>2018-10-03T08:58:53.000Z</time>
      </trkpt>
      <trkpt lat="42.458215" lon="-7.95565333">
        <ele>481.0</ele>
        <time>2018-10-03T08:58:54.000Z</time>
      </trkpt>
      <trkpt lat="42.45821667" lon="-7.95567167">
        <ele>481.0</ele>
        <time>2018-10-03T08:58:55.000Z</time>
      </trkpt>
      <trkpt lat="42.45822167" lon="-7.95569167">
        <ele>481.0</ele>
        <time>2018-10-03T08:58:56.000Z</time>
      </trkpt>
      <trkpt lat="42.45822667" lon="-7.95571">
        <ele>481.0</ele>
        <time>2018-10-03T08:58:57.000Z</time>
      </trkpt>
      <trkpt lat="42.45823167" lon="-7.95573">
        <ele>481.0</ele>
        <time>2018-10-03T08:58:58.000Z</time>
      </trkpt>
      <trkpt lat="42.458235" lon="-7.95575">
        <ele>481.0</ele>
        <time>2018-10-03T08:58:59.000Z</time>
      </trkpt>
      <trkpt lat="42.45824" lon="-7.95576833">
        <ele>481.0</ele>
        <time>2018-10-03T08:59:00.000Z</time>
      </trkpt>
      <trkpt lat="42.458245" lon="-7.95578833">
        <ele>481.0</ele>
        <time>2018-10-03T08:59:01.000Z</time>
      </trkpt>
      <trkpt lat="42.45824833" lon="-7.95580667">
        <ele>481.0</ele>
        <time>2018-10-03T08:59:02.000Z</time>
      </trkpt>
      <trkpt lat="42.45825333" lon="-7.95582667">
        <ele>481.0</ele>
        <time>2018-10-03T08:59:03.000Z</time>
      </trkpt>
      <trkpt lat="42.45825833" lon="-7.95584667">
        <ele>481.0</ele>
        <time>2018-10-03T08:59:04.000Z</time>
      </trkpt>
      <trkpt lat="42.45826333" lon="-7.95586667">
        <ele>481.0</ele>
        <time>2018-10-03T08:59:05.000Z</time>
      </trkpt>
      <trkpt lat="42.45826667" lon="-7.955885">
        <ele>481.0</ele>
        <time>2018-10-03T08:59:06.000Z</time>
      </trkpt>
      <trkpt lat="42.45827167" lon="-7.955905">
        <ele>481.0</ele>
        <time>2018-10-03T08:59:07.000Z</time>
      </trkpt>
      <trkpt lat="42.458275" lon="-7.955925">
        <ele>481.0</ele>
        <time>2018-10-03T08:59:08.000Z</time>
      </trkpt>
      <trkpt lat="42.45827833" lon="-7.95594333">
        <ele>481.0</ele>
        <time>2018-10-03T08:59:09.000Z</time>
      </trkpt>
      <trkpt lat="42.45828167" lon="-7.95596333">
        <ele>481.0</ele>
        <time>2018-10-03T08:59:10.000Z</time>
      </trkpt>
      <trkpt lat="42.45828833" lon="-7.95598167">
        <ele>481.0</ele>
        <time>2018-10-03T08:59:11.000Z</time>
      </trkpt>
      <trkpt lat="42.458295" lon="-7.95600167">
        <ele>481.0</ele>
        <time>2018-10-03T08:59:12.000Z</time>
      </trkpt>
      <trkpt lat="42.45829833" lon="-7.95602167">
        <ele>481.0</ele>
        <time>2018-10-03T08:59:13.000Z</time>
      </trkpt>
      <trkpt lat="42.4583" lon="-7.95604167">
        <ele>481.0</ele>
        <time>2018-10-03T08:59:14.000Z</time>
      </trkpt>
      <trkpt lat="42.4583" lon="-7.95606167">
        <ele>481.0</ele>
        <time>2018-10-03T08:59:15.000Z</time>
      </trkpt>
      <trkpt lat="42.4583" lon="-7.95608333">
        <ele>481.0</ele>
        <time>2018-10-03T08:59:16.000Z</time>
      </trkpt>
      <trkpt lat="42.45829833" lon="-7.95610333">
        <ele>481.0</ele>
        <time>2018-10-03T08:59:17.000Z</time>
      </trkpt>
      <trkpt lat="42.45829833" lon="-7.956125">
        <ele>481.0</ele>
        <time>2018-10-03T08:59:18.000Z</time>
      </trkpt>
      <trkpt lat="42.4583" lon="-7.95614667">
        <ele>481.0</ele>
        <time>2018-10-03T08:59:19.000Z</time>
      </trkpt>
      <trkpt lat="42.4583" lon="-7.95616667">
        <ele>481.0</ele>
        <time>2018-10-03T08:59:20.000Z</time>
      </trkpt>
      <trkpt lat="42.45830167" lon="-7.95618833">
        <ele>481.0</ele>
        <time>2018-10-03T08:59:21.000Z</time>
      </trkpt>
      <trkpt lat="42.45830167" lon="-7.95620833">
        <ele>481.0</ele>
        <time>2018-10-03T08:59:22.000Z</time>
      </trkpt>
      <trkpt lat="42.45830333" lon="-7.95622833">
        <ele>481.0</ele>
        <time>2018-10-03T08:59:23.000Z</time>
      </trkpt>
      <trkpt lat="42.458305" lon="-7.95624833">
        <ele>481.0</ele>
        <time>2018-10-03T08:59:24.000Z</time>
      </trkpt>
      <trkpt lat="42.45830667" lon="-7.95627">
        <ele>481.0</ele>
        <time>2018-10-03T08:59:25.000Z</time>
      </trkpt>
      <trkpt lat="42.45831" lon="-7.95629">
        <ele>481.0</ele>
        <time>2018-10-03T08:59:26.000Z</time>
      </trkpt>
      <trkpt lat="42.45831333" lon="-7.95631">
        <ele>481.0</ele>
        <time>2018-10-03T08:59:27.000Z</time>
      </trkpt>
      <trkpt lat="42.45832" lon="-7.95633">
        <ele>481.0</ele>
        <time>2018-10-03T08:59:28.000Z</time>
      </trkpt>
      <trkpt lat="42.45832333" lon="-7.95635">
        <ele>481.0</ele>
        <time>2018-10-03T08:59:29.000Z</time>
      </trkpt>
      <trkpt lat="42.45832833" lon="-7.95637">
        <ele>481.0</ele>
        <time>2018-10-03T08:59:30.000Z</time>
      </trkpt>
      <trkpt lat="42.45833333" lon="-7.95639167">
        <ele>482.0</ele>
        <time>2018-10-03T08:59:31.000Z</time>
      </trkpt>
      <trkpt lat="42.45833833" lon="-7.95641167">
        <ele>482.0</ele>
        <time>2018-10-03T08:59:32.000Z</time>
      </trkpt>
      <trkpt lat="42.45834333" lon="-7.95643167">
        <ele>482.0</ele>
        <time>2018-10-03T08:59:33.000Z</time>
      </trkpt>
      <trkpt lat="42.45834833" lon="-7.95645167">
        <ele>482.0</ele>
        <time>2018-10-03T08:59:34.000Z</time>
      </trkpt>
      <trkpt lat="42.458355" lon="-7.95647167">
        <ele>482.0</ele>
        <time>2018-10-03T08:59:35.000Z</time>
      </trkpt>
      <trkpt lat="42.45836" lon="-7.95649167">
        <ele>482.0</ele>
        <time>2018-10-03T08:59:36.000Z</time>
      </trkpt>
      <trkpt lat="42.45836667" lon="-7.95651167">
        <ele>482.0</ele>
        <time>2018-10-03T08:59:37.000Z</time>
      </trkpt>
      <trkpt lat="42.45837167" lon="-7.95653167">
        <ele>482.0</ele>
        <time>2018-10-03T08:59:38.000Z</time>
      </trkpt>
      <trkpt lat="42.45837667" lon="-7.95655167">
        <ele>482.0</ele>
        <time>2018-10-03T08:59:39.000Z</time>
      </trkpt>
      <trkpt lat="42.45838167" lon="-7.95657333">
        <ele>482.0</ele>
        <time>2018-10-03T08:59:40.000Z</time>
      </trkpt>
      <trkpt lat="42.45838833" lon="-7.95659167">
        <ele>482.0</ele>
        <time>2018-10-03T08:59:41.000Z</time>
      </trkpt>
      <trkpt lat="42.458395" lon="-7.95661167">
        <ele>482.0</ele>
        <time>2018-10-03T08:59:42.000Z</time>
      </trkpt>
      <trkpt lat="42.4584" lon="-7.95663167">
        <ele>482.0</ele>
        <time>2018-10-03T08:59:43.000Z</time>
      </trkpt>
      <trkpt lat="42.45840667" lon="-7.95665167">
        <ele>482.0</ele>
        <time>2018-10-03T08:59:44.000Z</time>
      </trkpt>
      <trkpt lat="42.45841167" lon="-7.95667167">
        <ele>482.0</ele>
        <time>2018-10-03T08:59:45.000Z</time>
      </trkpt>
      <trkpt lat="42.45841833" lon="-7.95669167">
        <ele>482.0</ele>
        <time>2018-10-03T08:59:46.000Z</time>
      </trkpt>
      <trkpt lat="42.45842333" lon="-7.95671167">
        <ele>482.0</ele>
        <time>2018-10-03T08:59:47.000Z</time>
      </trkpt>
      <trkpt lat="42.45842833" lon="-7.95673167">
        <ele>482.0</ele>
        <time>2018-10-03T08:59:48.000Z</time>
      </trkpt>
      <trkpt lat="42.45843333" lon="-7.95675">
        <ele>482.0</ele>
        <time>2018-10-03T08:59:49.000Z</time>
      </trkpt>
      <trkpt lat="42.45844" lon="-7.95677">
        <ele>482.0</ele>
        <time>2018-10-03T08:59:50.000Z</time>
      </trkpt>
      <trkpt lat="42.458445" lon="-7.95678833">
        <ele>482.0</ele>
        <time>2018-10-03T08:59:51.000Z</time>
      </trkpt>
      <trkpt lat="42.45845167" lon="-7.95680833">
        <ele>482.0</ele>
        <time>2018-10-03T08:59:52.000Z</time>
      </trkpt>
      <trkpt lat="42.45845833" lon="-7.95682833">
        <ele>482.0</ele>
        <time>2018-10-03T08:59:53.000Z</time>
      </trkpt>
      <trkpt lat="42.458465" lon="-7.95684833">
        <ele>482.0</ele>
        <time>2018-10-03T08:59:54.000Z</time>
      </trkpt>
      <trkpt lat="42.45847" lon="-7.95686833">
        <ele>482.0</ele>
        <time>2018-10-03T08:59:55.000Z</time>
      </trkpt>
      <trkpt lat="42.45847667" lon="-7.95688833">
        <ele>482.0</ele>
        <time>2018-10-03T08:59:56.000Z</time>
      </trkpt>
      <trkpt lat="42.458485" lon="-7.95690833">
        <ele>482.0</ele>
        <time>2018-10-03T08:59:57.000Z</time>
      </trkpt>
      <trkpt lat="42.45849" lon="-7.95692833">
        <ele>482.0</ele>
        <time>2018-10-03T08:59:58.000Z</time>
      </trkpt>
      <trkpt lat="42.45849333" lon="-7.95695">
        <ele>482.0</ele>
        <time>2018-10-03T08:59:59.000Z</time>
      </trkpt>
      <trkpt lat="42.4585" lon="-7.95697">
        <ele>482.0</ele>
        <time>2018-10-03T09:00:00.000Z</time>
      </trkpt>
      <trkpt lat="42.458505" lon="-7.95699">
        <ele>482.0</ele>
        <time>2018-10-03T09:00:01.000Z</time>
      </trkpt>
      <trkpt lat="42.45851167" lon="-7.95701">
        <ele>482.0</ele>
        <time>2018-10-03T09:00:02.000Z</time>
      </trkpt>
      <trkpt lat="42.45851333" lon="-7.95702833">
        <ele>482.0</ele>
        <time>2018-10-03T09:00:03.000Z</time>
      </trkpt>
      <trkpt lat="42.45851833" lon="-7.95704667">
        <ele>482.0</ele>
        <time>2018-10-03T09:00:04.000Z</time>
      </trkpt>
      <trkpt lat="42.458525" lon="-7.95706667">
        <ele>482.0</ele>
        <time>2018-10-03T09:00:05.000Z</time>
      </trkpt>
      <trkpt lat="42.45853167" lon="-7.95708833">
        <ele>482.0</ele>
        <time>2018-10-03T09:00:06.000Z</time>
      </trkpt>
      <trkpt lat="42.45853833" lon="-7.95711">
        <ele>482.0</ele>
        <time>2018-10-03T09:00:07.000Z</time>
      </trkpt>
      <trkpt lat="42.45854667" lon="-7.95713333">
        <ele>482.0</ele>
        <time>2018-10-03T09:00:08.000Z</time>
      </trkpt>
      <trkpt lat="42.458555" lon="-7.95715167">
        <ele>482.0</ele>
        <time>2018-10-03T09:00:09.000Z</time>
      </trkpt>
      <trkpt lat="42.45856167" lon="-7.95717">
        <ele>482.0</ele>
        <time>2018-10-03T09:00:10.000Z</time>
      </trkpt>
      <trkpt lat="42.45856667" lon="-7.95719">
        <ele>482.0</ele>
        <time>2018-10-03T09:00:11.000Z</time>
      </trkpt>
      <trkpt lat="42.45857333" lon="-7.95721">
        <ele>482.0</ele>
        <time>2018-10-03T09:00:12.000Z</time>
      </trkpt>
      <trkpt lat="42.45858" lon="-7.95722833">
        <ele>482.0</ele>
        <time>2018-10-03T09:00:13.000Z</time>
      </trkpt>
      <trkpt lat="42.45858667" lon="-7.95724667">
        <ele>482.0</ele>
        <time>2018-10-03T09:00:14.000Z</time>
      </trkpt>
      <trkpt lat="42.45859167" lon="-7.95726667">
        <ele>481.0</ele>
        <time>2018-10-03T09:00:15.000Z</time>
      </trkpt>
      <trkpt lat="42.45859833" lon="-7.95728667">
        <ele>481.0</ele>
        <time>2018-10-03T09:00:16.000Z</time>
      </trkpt>
      <trkpt lat="42.458605" lon="-7.957305">
        <ele>481.0</ele>
        <time>2018-10-03T09:00:17.000Z</time>
      </trkpt>
      <trkpt lat="42.45861167" lon="-7.957325">
        <ele>481.0</ele>
        <time>2018-10-03T09:00:18.000Z</time>
      </trkpt>
      <trkpt lat="42.45861667" lon="-7.957345">
        <ele>481.0</ele>
        <time>2018-10-03T09:00:19.000Z</time>
      </trkpt>
      <trkpt lat="42.45862167" lon="-7.95736667">
        <ele>481.0</ele>
        <time>2018-10-03T09:00:20.000Z</time>
      </trkpt>
      <trkpt lat="42.45862833" lon="-7.95738667">
        <ele>481.0</ele>
        <time>2018-10-03T09:00:21.000Z</time>
      </trkpt>
      <trkpt lat="42.45863333" lon="-7.95740833">
        <ele>481.0</ele>
        <time>2018-10-03T09:00:22.000Z</time>
      </trkpt>
      <trkpt lat="42.45863833" lon="-7.95742833">
        <ele>480.0</ele>
        <time>2018-10-03T09:00:23.000Z</time>
      </trkpt>
      <trkpt lat="42.45864667" lon="-7.95744833">
        <ele>480.0</ele>
        <time>2018-10-03T09:00:24.000Z</time>
      </trkpt>
      <trkpt lat="42.45865333" lon="-7.95746833">
        <ele>480.0</ele>
        <time>2018-10-03T09:00:25.000Z</time>
      </trkpt>
      <trkpt lat="42.45865833" lon="-7.95748667">
        <ele>480.0</ele>
        <time>2018-10-03T09:00:26.000Z</time>
      </trkpt>
      <trkpt lat="42.458665" lon="-7.95750667">
        <ele>480.0</ele>
        <time>2018-10-03T09:00:27.000Z</time>
      </trkpt>
      <trkpt lat="42.45867167" lon="-7.957525">
        <ele>479.0</ele>
        <time>2018-10-03T09:00:28.000Z</time>
      </trkpt>
      <trkpt lat="42.45868" lon="-7.95754167">
        <ele>479.0</ele>
        <time>2018-10-03T09:00:29.000Z</time>
      </trkpt>
      <trkpt lat="42.45868833" lon="-7.95755333">
        <ele>479.0</ele>
        <time>2018-10-03T09:00:30.000Z</time>
      </trkpt>
      <trkpt lat="42.458695" lon="-7.95756333">
        <ele>479.0</ele>
        <time>2018-10-03T09:00:31.000Z</time>
      </trkpt>
      <trkpt lat="42.45870167" lon="-7.957575">
        <ele>479.0</ele>
        <time>2018-10-03T09:00:32.000Z</time>
      </trkpt>
      <trkpt lat="42.45871167" lon="-7.95758333">
        <ele>478.0</ele>
        <time>2018-10-03T09:00:33.000Z</time>
      </trkpt>
      <trkpt lat="42.45872333" lon="-7.95759333">
        <ele>478.0</ele>
        <time>2018-10-03T09:00:34.000Z</time>
      </trkpt>
      <trkpt lat="42.458735" lon="-7.95760167">
        <ele>478.0</ele>
        <time>2018-10-03T09:00:35.000Z</time>
      </trkpt>
      <trkpt lat="42.45874833" lon="-7.95761333">
        <ele>478.0</ele>
        <time>2018-10-03T09:00:36.000Z</time>
      </trkpt>
      <trkpt lat="42.45876" lon="-7.95762333">
        <ele>478.0</ele>
        <time>2018-10-03T09:00:37.000Z</time>
      </trkpt>
      <trkpt lat="42.45877333" lon="-7.95763167">
        <ele>477.0</ele>
        <time>2018-10-03T09:00:38.000Z</time>
      </trkpt>
      <trkpt lat="42.45878667" lon="-7.95763833">
        <ele>477.0</ele>
        <time>2018-10-03T09:00:39.000Z</time>
      </trkpt>
      <trkpt lat="42.45879833" lon="-7.95764667">
        <ele>477.0</ele>
        <time>2018-10-03T09:00:40.000Z</time>
      </trkpt>
      <trkpt lat="42.45881" lon="-7.95765833">
        <ele>477.0</ele>
        <time>2018-10-03T09:00:41.000Z</time>
      </trkpt>
      <trkpt lat="42.45882333" lon="-7.95766833">
        <ele>477.0</ele>
        <time>2018-10-03T09:00:42.000Z</time>
      </trkpt>
      <trkpt lat="42.45883333" lon="-7.95767833">
        <ele>476.0</ele>
        <time>2018-10-03T09:00:43.000Z</time>
      </trkpt>
      <trkpt lat="42.458845" lon="-7.95768667">
        <ele>476.0</ele>
        <time>2018-10-03T09:00:44.000Z</time>
      </trkpt>
      <trkpt lat="42.458855" lon="-7.95769667">
        <ele>476.0</ele>
        <time>2018-10-03T09:00:45.000Z</time>
      </trkpt>
      <trkpt lat="42.45886667" lon="-7.95770833">
        <ele>476.0</ele>
        <time>2018-10-03T09:00:46.000Z</time>
      </trkpt>
      <trkpt lat="42.45887667" lon="-7.95771833">
        <ele>476.0</ele>
        <time>2018-10-03T09:00:47.000Z</time>
      </trkpt>
      <trkpt lat="42.45888833" lon="-7.95773">
        <ele>476.0</ele>
        <time>2018-10-03T09:00:48.000Z</time>
      </trkpt>
      <trkpt lat="42.4589" lon="-7.95774">
        <ele>476.0</ele>
        <time>2018-10-03T09:00:49.000Z</time>
      </trkpt>
      <trkpt lat="42.45891333" lon="-7.95774833">
        <ele>476.0</ele>
        <time>2018-10-03T09:00:50.000Z</time>
      </trkpt>
      <trkpt lat="42.45892667" lon="-7.95775667">
        <ele>476.0</ele>
        <time>2018-10-03T09:00:51.000Z</time>
      </trkpt>
      <trkpt lat="42.45894" lon="-7.95776333">
        <ele>476.0</ele>
        <time>2018-10-03T09:00:52.000Z</time>
      </trkpt>
      <trkpt lat="42.458955" lon="-7.95776833">
        <ele>476.0</ele>
        <time>2018-10-03T09:00:53.000Z</time>
      </trkpt>
      <trkpt lat="42.45896833" lon="-7.95777333">
        <ele>475.0</ele>
        <time>2018-10-03T09:00:54.000Z</time>
      </trkpt>
      <trkpt lat="42.45898" lon="-7.95777667">
        <ele>475.0</ele>
        <time>2018-10-03T09:00:55.000Z</time>
      </trkpt>
      <trkpt lat="42.45899167" lon="-7.95777667">
        <ele>475.0</ele>
        <time>2018-10-03T09:00:56.000Z</time>
      </trkpt>
      <trkpt lat="42.459005" lon="-7.957775">
        <ele>475.0</ele>
        <time>2018-10-03T09:00:57.000Z</time>
      </trkpt>
      <trkpt lat="42.45901667" lon="-7.95777833">
        <ele>475.0</ele>
        <time>2018-10-03T09:00:58.000Z</time>
      </trkpt>
      <trkpt lat="42.45902667" lon="-7.95778167">
        <ele>475.0</ele>
        <time>2018-10-03T09:00:59.000Z</time>
      </trkpt>
      <trkpt lat="42.45904167" lon="-7.95778667">
        <ele>475.0</ele>
        <time>2018-10-03T09:01:00.000Z</time>
      </trkpt>
      <trkpt lat="42.45905667" lon="-7.95779167">
        <ele>475.0</ele>
        <time>2018-10-03T09:01:01.000Z</time>
      </trkpt>
      <trkpt lat="42.45907" lon="-7.95779667">
        <ele>474.0</ele>
        <time>2018-10-03T09:01:02.000Z</time>
      </trkpt>
      <trkpt lat="42.459085" lon="-7.95780667">
        <ele>474.0</ele>
        <time>2018-10-03T09:01:03.000Z</time>
      </trkpt>
      <trkpt lat="42.45909833" lon="-7.95781667">
        <ele>474.0</ele>
        <time>2018-10-03T09:01:04.000Z</time>
      </trkpt>
      <trkpt lat="42.45911167" lon="-7.957825">
        <ele>474.0</ele>
        <time>2018-10-03T09:01:05.000Z</time>
      </trkpt>
      <trkpt lat="42.459125" lon="-7.95783333">
        <ele>474.0</ele>
        <time>2018-10-03T09:01:06.000Z</time>
      </trkpt>
      <trkpt lat="42.45913667" lon="-7.95784167">
        <ele>474.0</ele>
        <time>2018-10-03T09:01:07.000Z</time>
      </trkpt>
      <trkpt lat="42.45915167" lon="-7.95784833">
        <ele>473.0</ele>
        <time>2018-10-03T09:01:08.000Z</time>
      </trkpt>
      <trkpt lat="42.45916333" lon="-7.957855">
        <ele>473.0</ele>
        <time>2018-10-03T09:01:09.000Z</time>
      </trkpt>
      <trkpt lat="42.45917333" lon="-7.95786167">
        <ele>473.0</ele>
        <time>2018-10-03T09:01:10.000Z</time>
      </trkpt>
      <trkpt lat="42.45918333" lon="-7.957865">
        <ele>473.0</ele>
        <time>2018-10-03T09:01:11.000Z</time>
      </trkpt>
      <trkpt lat="42.45919333" lon="-7.95787">
        <ele>473.0</ele>
        <time>2018-10-03T09:01:12.000Z</time>
      </trkpt>
      <trkpt lat="42.45920333" lon="-7.957875">
        <ele>473.0</ele>
        <time>2018-10-03T09:01:13.000Z</time>
      </trkpt>
      <trkpt lat="42.45921333" lon="-7.95788167">
        <ele>473.0</ele>
        <time>2018-10-03T09:01:14.000Z</time>
      </trkpt>
      <trkpt lat="42.45922333" lon="-7.95788833">
        <ele>473.0</ele>
        <time>2018-10-03T09:01:15.000Z</time>
      </trkpt>
      <trkpt lat="42.45923333" lon="-7.95789167">
        <ele>472.0</ele>
        <time>2018-10-03T09:01:16.000Z</time>
      </trkpt>
      <trkpt lat="42.45924333" lon="-7.95789833">
        <ele>472.0</ele>
        <time>2018-10-03T09:01:17.000Z</time>
      </trkpt>
      <trkpt lat="42.45925333" lon="-7.957905">
        <ele>472.0</ele>
        <time>2018-10-03T09:01:18.000Z</time>
      </trkpt>
      <trkpt lat="42.45926667" lon="-7.95791333">
        <ele>472.0</ele>
        <time>2018-10-03T09:01:19.000Z</time>
      </trkpt>
      <trkpt lat="42.45927833" lon="-7.95792">
        <ele>472.0</ele>
        <time>2018-10-03T09:01:20.000Z</time>
      </trkpt>
      <trkpt lat="42.45929" lon="-7.95793">
        <ele>472.0</ele>
        <time>2018-10-03T09:01:21.000Z</time>
      </trkpt>
      <trkpt lat="42.45930167" lon="-7.95794333">
        <ele>471.0</ele>
        <time>2018-10-03T09:01:22.000Z</time>
      </trkpt>
      <trkpt lat="42.45931333" lon="-7.957955">
        <ele>471.0</ele>
        <time>2018-10-03T09:01:23.000Z</time>
      </trkpt>
      <trkpt lat="42.45932667" lon="-7.95796333">
        <ele>471.0</ele>
        <time>2018-10-03T09:01:24.000Z</time>
      </trkpt>
      <trkpt lat="42.45933833" lon="-7.95797167">
        <ele>471.0</ele>
        <time>2018-10-03T09:01:25.000Z</time>
      </trkpt>
      <trkpt lat="42.45935" lon="-7.95798">
        <ele>471.0</ele>
        <time>2018-10-03T09:01:26.000Z</time>
      </trkpt>
      <trkpt lat="42.45935833" lon="-7.957985">
        <ele>471.0</ele>
        <time>2018-10-03T09:01:27.000Z</time>
      </trkpt>
      <trkpt lat="42.45936667" lon="-7.95799167">
        <ele>471.0</ele>
        <time>2018-10-03T09:01:28.000Z</time>
      </trkpt>
      <trkpt lat="42.459375" lon="-7.958">
        <ele>471.0</ele>
        <time>2018-10-03T09:01:29.000Z</time>
      </trkpt>
      <trkpt lat="42.45938167" lon="-7.95801">
        <ele>471.0</ele>
        <time>2018-10-03T09:01:30.000Z</time>
      </trkpt>
      <trkpt lat="42.45938833" lon="-7.95801667">
        <ele>470.0</ele>
        <time>2018-10-03T09:01:31.000Z</time>
      </trkpt>
      <trkpt lat="42.45939333" lon="-7.95802333">
        <ele>470.0</ele>
        <time>2018-10-03T09:01:32.000Z</time>
      </trkpt>
      <trkpt lat="42.45939667" lon="-7.95802667">
        <ele>470.0</ele>
        <time>2018-10-03T09:01:33.000Z</time>
      </trkpt>
      <trkpt lat="42.45939833" lon="-7.95803">
        <ele>470.0</ele>
        <time>2018-10-03T09:01:34.000Z</time>
      </trkpt>
      <trkpt lat="42.45939833" lon="-7.95803167">
        <ele>470.0</ele>
        <time>2018-10-03T09:01:35.000Z</time>
      </trkpt>
      <trkpt lat="42.45939667" lon="-7.95803667">
        <ele>470.0</ele>
        <time>2018-10-03T09:01:36.000Z</time>
      </trkpt>
      <trkpt lat="42.45939833" lon="-7.958045">
        <ele>470.0</ele>
        <time>2018-10-03T09:01:37.000Z</time>
      </trkpt>
      <trkpt lat="42.45940167" lon="-7.95805333">
        <ele>470.0</ele>
        <time>2018-10-03T09:01:38.000Z</time>
      </trkpt>
      <trkpt lat="42.45940667" lon="-7.958065">
        <ele>470.0</ele>
        <time>2018-10-03T09:01:39.000Z</time>
      </trkpt>
      <trkpt lat="42.459415" lon="-7.95807667">
        <ele>469.0</ele>
        <time>2018-10-03T09:01:40.000Z</time>
      </trkpt>
      <trkpt lat="42.459425" lon="-7.958085">
        <ele>469.0</ele>
        <time>2018-10-03T09:01:41.000Z</time>
      </trkpt>
      <trkpt lat="42.459435" lon="-7.95809333">
        <ele>469.0</ele>
        <time>2018-10-03T09:01:42.000Z</time>
      </trkpt>
      <trkpt lat="42.45944333" lon="-7.95810167">
        <ele>469.0</ele>
        <time>2018-10-03T09:01:43.000Z</time>
      </trkpt>
      <trkpt lat="42.45945333" lon="-7.95811167">
        <ele>469.0</ele>
        <time>2018-10-03T09:01:44.000Z</time>
      </trkpt>
      <trkpt lat="42.45946167" lon="-7.95812">
        <ele>470.0</ele>
        <time>2018-10-03T09:01:45.000Z</time>
      </trkpt>
      <trkpt lat="42.45947" lon="-7.95813167">
        <ele>470.0</ele>
        <time>2018-10-03T09:01:46.000Z</time>
      </trkpt>
      <trkpt lat="42.45947833" lon="-7.95814167">
        <ele>470.0</ele>
        <time>2018-10-03T09:01:47.000Z</time>
      </trkpt>
      <trkpt lat="42.45948833" lon="-7.95815333">
        <ele>470.0</ele>
        <time>2018-10-03T09:01:48.000Z</time>
      </trkpt>
      <trkpt lat="42.45949833" lon="-7.95816333">
        <ele>470.0</ele>
        <time>2018-10-03T09:01:49.000Z</time>
      </trkpt>
      <trkpt lat="42.45950667" lon="-7.958175">
        <ele>469.0</ele>
        <time>2018-10-03T09:01:50.000Z</time>
      </trkpt>
      <trkpt lat="42.45951667" lon="-7.95818667">
        <ele>469.0</ele>
        <time>2018-10-03T09:01:51.000Z</time>
      </trkpt>
      <trkpt lat="42.459525" lon="-7.958195">
        <ele>469.0</ele>
        <time>2018-10-03T09:01:52.000Z</time>
      </trkpt>
      <trkpt lat="42.45953167" lon="-7.95820167">
        <ele>469.0</ele>
        <time>2018-10-03T09:01:53.000Z</time>
      </trkpt>
      <trkpt lat="42.45954" lon="-7.95821">
        <ele>469.0</ele>
        <time>2018-10-03T09:01:54.000Z</time>
      </trkpt>
      <trkpt lat="42.45955" lon="-7.95822167">
        <ele>469.0</ele>
        <time>2018-10-03T09:01:55.000Z</time>
      </trkpt>
      <trkpt lat="42.45956167" lon="-7.95823333">
        <ele>469.0</ele>
        <time>2018-10-03T09:01:56.000Z</time>
      </trkpt>
      <trkpt lat="42.45957333" lon="-7.958245">
        <ele>468.0</ele>
        <time>2018-10-03T09:01:57.000Z</time>
      </trkpt>
      <trkpt lat="42.45958833" lon="-7.95825667">
        <ele>468.0</ele>
        <time>2018-10-03T09:01:58.000Z</time>
      </trkpt>
      <trkpt lat="42.4596" lon="-7.95826667">
        <ele>468.0</ele>
        <time>2018-10-03T09:01:59.000Z</time>
      </trkpt>
      <trkpt lat="42.45961167" lon="-7.958275">
        <ele>468.0</ele>
        <time>2018-10-03T09:02:00.000Z</time>
      </trkpt>
      <trkpt lat="42.45962167" lon="-7.95828333">
        <ele>468.0</ele>
        <time>2018-10-03T09:02:01.000Z</time>
      </trkpt>
      <trkpt lat="42.45963" lon="-7.95829167">
        <ele>468.0</ele>
        <time>2018-10-03T09:02:02.000Z</time>
      </trkpt>
      <trkpt lat="42.45963833" lon="-7.9583">
        <ele>468.0</ele>
        <time>2018-10-03T09:02:03.000Z</time>
      </trkpt>
      <trkpt lat="42.45964667" lon="-7.95830833">
        <ele>468.0</ele>
        <time>2018-10-03T09:02:04.000Z</time>
      </trkpt>
      <trkpt lat="42.459655" lon="-7.958315">
        <ele>468.0</ele>
        <time>2018-10-03T09:02:05.000Z</time>
      </trkpt>
      <trkpt lat="42.45966167" lon="-7.958325">
        <ele>468.0</ele>
        <time>2018-10-03T09:02:06.000Z</time>
      </trkpt>
      <trkpt lat="42.45967" lon="-7.958335">
        <ele>468.0</ele>
        <time>2018-10-03T09:02:07.000Z</time>
      </trkpt>
      <trkpt lat="42.45967667" lon="-7.958345">
        <ele>468.0</ele>
        <time>2018-10-03T09:02:08.000Z</time>
      </trkpt>
      <trkpt lat="42.459685" lon="-7.95835333">
        <ele>468.0</ele>
        <time>2018-10-03T09:02:09.000Z</time>
      </trkpt>
      <trkpt lat="42.45969167" lon="-7.95836167">
        <ele>468.0</ele>
        <time>2018-10-03T09:02:10.000Z</time>
      </trkpt>
      <trkpt lat="42.45969833" lon="-7.95837333">
        <ele>468.0</ele>
        <time>2018-10-03T09:02:11.000Z</time>
      </trkpt>
      <trkpt lat="42.459705" lon="-7.95838167">
        <ele>468.0</ele>
        <time>2018-10-03T09:02:12.000Z</time>
      </trkpt>
      <trkpt lat="42.45971333" lon="-7.95838833">
        <ele>468.0</ele>
        <time>2018-10-03T09:02:13.000Z</time>
      </trkpt>
      <trkpt lat="42.45972167" lon="-7.95839667">
        <ele>468.0</ele>
        <time>2018-10-03T09:02:14.000Z</time>
      </trkpt>
      <trkpt lat="42.45973167" lon="-7.95840333">
        <ele>468.0</ele>
        <time>2018-10-03T09:02:15.000Z</time>
      </trkpt>
      <trkpt lat="42.45974" lon="-7.95841167">
        <ele>468.0</ele>
        <time>2018-10-03T09:02:16.000Z</time>
      </trkpt>
      <trkpt lat="42.45974833" lon="-7.95842167">
        <ele>468.0</ele>
        <time>2018-10-03T09:02:17.000Z</time>
      </trkpt>
      <trkpt lat="42.45975667" lon="-7.958435">
        <ele>468.0</ele>
        <time>2018-10-03T09:02:18.000Z</time>
      </trkpt>
      <trkpt lat="42.45976833" lon="-7.95845">
        <ele>468.0</ele>
        <time>2018-10-03T09:02:19.000Z</time>
      </trkpt>
      <trkpt lat="42.45978333" lon="-7.958465">
        <ele>468.0</ele>
        <time>2018-10-03T09:02:20.000Z</time>
      </trkpt>
      <trkpt lat="42.45979667" lon="-7.95848333">
        <ele>468.0</ele>
        <time>2018-10-03T09:02:21.000Z</time>
      </trkpt>
      <trkpt lat="42.45981333" lon="-7.95849833">
        <ele>467.0</ele>
        <time>2018-10-03T09:02:22.000Z</time>
      </trkpt>
      <trkpt lat="42.45983" lon="-7.95851333">
        <ele>467.0</ele>
        <time>2018-10-03T09:02:23.000Z</time>
      </trkpt>
      <trkpt lat="42.45984833" lon="-7.95852833">
        <ele>467.0</ele>
        <time>2018-10-03T09:02:24.000Z</time>
      </trkpt>
      <trkpt lat="42.459865" lon="-7.95854667">
        <ele>467.0</ele>
        <time>2018-10-03T09:02:25.000Z</time>
      </trkpt>
      <trkpt lat="42.45988" lon="-7.958565">
        <ele>467.0</ele>
        <time>2018-10-03T09:02:26.000Z</time>
      </trkpt>
      <trkpt lat="42.459895" lon="-7.95858">
        <ele>467.0</ele>
        <time>2018-10-03T09:02:27.000Z</time>
      </trkpt>
      <trkpt lat="42.45991" lon="-7.958595">
        <ele>467.0</ele>
        <time>2018-10-03T09:02:28.000Z</time>
      </trkpt>
      <trkpt lat="42.45992167" lon="-7.95861167">
        <ele>467.0</ele>
        <time>2018-10-03T09:02:29.000Z</time>
      </trkpt>
      <trkpt lat="42.459935" lon="-7.95862667">
        <ele>467.0</ele>
        <time>2018-10-03T09:02:30.000Z</time>
      </trkpt>
      <trkpt lat="42.45995" lon="-7.95864167">
        <ele>466.0</ele>
        <time>2018-10-03T09:02:31.000Z</time>
      </trkpt>
      <trkpt lat="42.45996333" lon="-7.95865667">
        <ele>466.0</ele>
        <time>2018-10-03T09:02:32.000Z</time>
      </trkpt>
      <trkpt lat="42.459975" lon="-7.95867167">
        <ele>466.0</ele>
        <time>2018-10-03T09:02:33.000Z</time>
      </trkpt>
      <trkpt lat="42.45998667" lon="-7.95868">
        <ele>466.0</ele>
        <time>2018-10-03T09:02:34.000Z</time>
      </trkpt>
      <trkpt lat="42.459995" lon="-7.95869">
        <ele>466.0</ele>
        <time>2018-10-03T09:02:35.000Z</time>
      </trkpt>
      <trkpt lat="42.46000333" lon="-7.9587">
        <ele>466.0</ele>
        <time>2018-10-03T09:02:36.000Z</time>
      </trkpt>
      <trkpt lat="42.46001167" lon="-7.95871">
        <ele>466.0</ele>
        <time>2018-10-03T09:02:37.000Z</time>
      </trkpt>
      <trkpt lat="42.46001833" lon="-7.95872167">
        <ele>467.0</ele>
        <time>2018-10-03T09:02:38.000Z</time>
      </trkpt>
      <trkpt lat="42.460025" lon="-7.95873667">
        <ele>467.0</ele>
        <time>2018-10-03T09:02:39.000Z</time>
      </trkpt>
      <trkpt lat="42.46003333" lon="-7.95874833">
        <ele>466.0</ele>
        <time>2018-10-03T09:02:40.000Z</time>
      </trkpt>
      <trkpt lat="42.46004" lon="-7.95876">
        <ele>466.0</ele>
        <time>2018-10-03T09:02:41.000Z</time>
      </trkpt>
      <trkpt lat="42.46005" lon="-7.95877333">
        <ele>466.0</ele>
        <time>2018-10-03T09:02:42.000Z</time>
      </trkpt>
      <trkpt lat="42.46005833" lon="-7.95878833">
        <ele>466.0</ele>
        <time>2018-10-03T09:02:43.000Z</time>
      </trkpt>
      <trkpt lat="42.46007" lon="-7.958805">
        <ele>466.0</ele>
        <time>2018-10-03T09:02:44.000Z</time>
      </trkpt>
      <trkpt lat="42.46008" lon="-7.95882167">
        <ele>466.0</ele>
        <time>2018-10-03T09:02:45.000Z</time>
      </trkpt>
      <trkpt lat="42.46009167" lon="-7.95883833">
        <ele>466.0</ele>
        <time>2018-10-03T09:02:46.000Z</time>
      </trkpt>
      <trkpt lat="42.46010667" lon="-7.95885333">
        <ele>466.0</ele>
        <time>2018-10-03T09:02:47.000Z</time>
      </trkpt>
      <trkpt lat="42.46012167" lon="-7.95886833">
        <ele>466.0</ele>
        <time>2018-10-03T09:02:48.000Z</time>
      </trkpt>
      <trkpt lat="42.46013667" lon="-7.95888167">
        <ele>466.0</ele>
        <time>2018-10-03T09:02:49.000Z</time>
      </trkpt>
      <trkpt lat="42.46014833" lon="-7.95889667">
        <ele>466.0</ele>
        <time>2018-10-03T09:02:50.000Z</time>
      </trkpt>
      <trkpt lat="42.46016167" lon="-7.95890833">
        <ele>466.0</ele>
        <time>2018-10-03T09:02:51.000Z</time>
      </trkpt>
      <trkpt lat="42.46017667" lon="-7.95892333">
        <ele>466.0</ele>
        <time>2018-10-03T09:02:52.000Z</time>
      </trkpt>
      <trkpt lat="42.46019167" lon="-7.95893833">
        <ele>466.0</ele>
        <time>2018-10-03T09:02:53.000Z</time>
      </trkpt>
      <trkpt lat="42.46020667" lon="-7.95895667">
        <ele>466.0</ele>
        <time>2018-10-03T09:02:54.000Z</time>
      </trkpt>
      <trkpt lat="42.46022" lon="-7.95897333">
        <ele>466.0</ele>
        <time>2018-10-03T09:02:55.000Z</time>
      </trkpt>
      <trkpt lat="42.460235" lon="-7.95899167">
        <ele>467.0</ele>
        <time>2018-10-03T09:02:56.000Z</time>
      </trkpt>
      <trkpt lat="42.46024667" lon="-7.95901">
        <ele>467.0</ele>
        <time>2018-10-03T09:02:57.000Z</time>
      </trkpt>
      <trkpt lat="42.46025667" lon="-7.95902333">
        <ele>467.0</ele>
        <time>2018-10-03T09:02:58.000Z</time>
      </trkpt>
      <trkpt lat="42.46026667" lon="-7.95903833">
        <ele>467.0</ele>
        <time>2018-10-03T09:02:59.000Z</time>
      </trkpt>
      <trkpt lat="42.46027833" lon="-7.95905167">
        <ele>467.0</ele>
        <time>2018-10-03T09:03:00.000Z</time>
      </trkpt>
      <trkpt lat="42.46029" lon="-7.95906667">
        <ele>467.0</ele>
        <time>2018-10-03T09:03:01.000Z</time>
      </trkpt>
      <trkpt lat="42.4603" lon="-7.95908333">
        <ele>467.0</ele>
        <time>2018-10-03T09:03:02.000Z</time>
      </trkpt>
      <trkpt lat="42.46031" lon="-7.95910167">
        <ele>467.0</ele>
        <time>2018-10-03T09:03:03.000Z</time>
      </trkpt>
      <trkpt lat="42.46032" lon="-7.95911667">
        <ele>467.0</ele>
        <time>2018-10-03T09:03:04.000Z</time>
      </trkpt>
      <trkpt lat="42.46033167" lon="-7.95913333">
        <ele>467.0</ele>
        <time>2018-10-03T09:03:05.000Z</time>
      </trkpt>
      <trkpt lat="42.46034333" lon="-7.95914667">
        <ele>467.0</ele>
        <time>2018-10-03T09:03:06.000Z</time>
      </trkpt>
      <trkpt lat="42.460355" lon="-7.95916">
        <ele>467.0</ele>
        <time>2018-10-03T09:03:07.000Z</time>
      </trkpt>
      <trkpt lat="42.46037" lon="-7.95917333">
        <ele>468.0</ele>
        <time>2018-10-03T09:03:08.000Z</time>
      </trkpt>
      <trkpt lat="42.46038333" lon="-7.95918833">
        <ele>468.0</ele>
        <time>2018-10-03T09:03:09.000Z</time>
      </trkpt>
      <trkpt lat="42.460395" lon="-7.95920333">
        <ele>468.0</ele>
        <time>2018-10-03T09:03:10.000Z</time>
      </trkpt>
      <trkpt lat="42.46040833" lon="-7.95921667">
        <ele>468.0</ele>
        <time>2018-10-03T09:03:11.000Z</time>
      </trkpt>
      <trkpt lat="42.46041833" lon="-7.95923">
        <ele>468.0</ele>
        <time>2018-10-03T09:03:12.000Z</time>
      </trkpt>
      <trkpt lat="42.46043167" lon="-7.95924333">
        <ele>468.0</ele>
        <time>2018-10-03T09:03:13.000Z</time>
      </trkpt>
      <trkpt lat="42.46044333" lon="-7.959255">
        <ele>468.0</ele>
        <time>2018-10-03T09:03:14.000Z</time>
      </trkpt>
      <trkpt lat="42.46045833" lon="-7.95926833">
        <ele>468.0</ele>
        <time>2018-10-03T09:03:15.000Z</time>
      </trkpt>
      <trkpt lat="42.46047" lon="-7.95928333">
        <ele>468.0</ele>
        <time>2018-10-03T09:03:16.000Z</time>
      </trkpt>
      <trkpt lat="42.46048333" lon="-7.95929667">
        <ele>468.0</ele>
        <time>2018-10-03T09:03:17.000Z</time>
      </trkpt>
      <trkpt lat="42.460495" lon="-7.95931">
        <ele>468.0</ele>
        <time>2018-10-03T09:03:18.000Z</time>
      </trkpt>
      <trkpt lat="42.46050667" lon="-7.95932333">
        <ele>468.0</ele>
        <time>2018-10-03T09:03:19.000Z</time>
      </trkpt>
      <trkpt lat="42.46052167" lon="-7.95933667">
        <ele>468.0</ele>
        <time>2018-10-03T09:03:20.000Z</time>
      </trkpt>
      <trkpt lat="42.46053667" lon="-7.95935">
        <ele>468.0</ele>
        <time>2018-10-03T09:03:21.000Z</time>
      </trkpt>
      <trkpt lat="42.46055" lon="-7.95936">
        <ele>468.0</ele>
        <time>2018-10-03T09:03:22.000Z</time>
      </trkpt>
      <trkpt lat="42.46056167" lon="-7.95937167">
        <ele>468.0</ele>
        <time>2018-10-03T09:03:23.000Z</time>
      </trkpt>
      <trkpt lat="42.46057167" lon="-7.959385">
        <ele>468.0</ele>
        <time>2018-10-03T09:03:24.000Z</time>
      </trkpt>
      <trkpt lat="42.46058" lon="-7.95939833">
        <ele>468.0</ele>
        <time>2018-10-03T09:03:25.000Z</time>
      </trkpt>
      <trkpt lat="42.46059167" lon="-7.95941333">
        <ele>468.0</ele>
        <time>2018-10-03T09:03:26.000Z</time>
      </trkpt>
      <trkpt lat="42.46060167" lon="-7.95942667">
        <ele>468.0</ele>
        <time>2018-10-03T09:03:27.000Z</time>
      </trkpt>
      <trkpt lat="42.46061167" lon="-7.95944">
        <ele>468.0</ele>
        <time>2018-10-03T09:03:28.000Z</time>
      </trkpt>
      <trkpt lat="42.460625" lon="-7.95945333">
        <ele>468.0</ele>
        <time>2018-10-03T09:03:29.000Z</time>
      </trkpt>
      <trkpt lat="42.46063833" lon="-7.95946333">
        <ele>468.0</ele>
        <time>2018-10-03T09:03:30.000Z</time>
      </trkpt>
      <trkpt lat="42.46065167" lon="-7.95947667">
        <ele>468.0</ele>
        <time>2018-10-03T09:03:31.000Z</time>
      </trkpt>
      <trkpt lat="42.460665" lon="-7.95948833">
        <ele>467.0</ele>
        <time>2018-10-03T09:03:32.000Z</time>
      </trkpt>
      <trkpt lat="42.460675" lon="-7.95950167">
        <ele>467.0</ele>
        <time>2018-10-03T09:03:33.000Z</time>
      </trkpt>
      <trkpt lat="42.46068667" lon="-7.95951333">
        <ele>467.0</ele>
        <time>2018-10-03T09:03:34.000Z</time>
      </trkpt>
      <trkpt lat="42.46069833" lon="-7.95952667">
        <ele>467.0</ele>
        <time>2018-10-03T09:03:35.000Z</time>
      </trkpt>
      <trkpt lat="42.46070833" lon="-7.959545">
        <ele>467.0</ele>
        <time>2018-10-03T09:03:36.000Z</time>
      </trkpt>
      <trkpt lat="42.46071833" lon="-7.95956167">
        <ele>467.0</ele>
        <time>2018-10-03T09:03:37.000Z</time>
      </trkpt>
      <trkpt lat="42.46073" lon="-7.95957833">
        <ele>467.0</ele>
        <time>2018-10-03T09:03:38.000Z</time>
      </trkpt>
      <trkpt lat="42.46074333" lon="-7.959595">
        <ele>467.0</ele>
        <time>2018-10-03T09:03:39.000Z</time>
      </trkpt>
      <trkpt lat="42.46075667" lon="-7.95961167">
        <ele>467.0</ele>
        <time>2018-10-03T09:03:40.000Z</time>
      </trkpt>
      <trkpt lat="42.46077" lon="-7.959625">
        <ele>467.0</ele>
        <time>2018-10-03T09:03:41.000Z</time>
      </trkpt>
      <trkpt lat="42.46078167" lon="-7.95964">
        <ele>467.0</ele>
        <time>2018-10-03T09:03:42.000Z</time>
      </trkpt>
      <trkpt lat="42.46079333" lon="-7.95965667">
        <ele>467.0</ele>
        <time>2018-10-03T09:03:43.000Z</time>
      </trkpt>
      <trkpt lat="42.460805" lon="-7.95967">
        <ele>467.0</ele>
        <time>2018-10-03T09:03:44.000Z</time>
      </trkpt>
      <trkpt lat="42.460815" lon="-7.95968167">
        <ele>467.0</ele>
        <time>2018-10-03T09:03:45.000Z</time>
      </trkpt>
      <trkpt lat="42.46082667" lon="-7.959695">
        <ele>467.0</ele>
        <time>2018-10-03T09:03:46.000Z</time>
      </trkpt>
      <trkpt lat="42.46084" lon="-7.95970833">
        <ele>466.0</ele>
        <time>2018-10-03T09:03:47.000Z</time>
      </trkpt>
      <trkpt lat="42.46085167" lon="-7.95972333">
        <ele>466.0</ele>
        <time>2018-10-03T09:03:48.000Z</time>
      </trkpt>
      <trkpt lat="42.46086667" lon="-7.95973833">
        <ele>467.0</ele>
        <time>2018-10-03T09:03:49.000Z</time>
      </trkpt>
      <trkpt lat="42.46087833" lon="-7.95975167">
        <ele>467.0</ele>
        <time>2018-10-03T09:03:50.000Z</time>
      </trkpt>
      <trkpt lat="42.46088" lon="-7.959755">
        <ele>467.0</ele>
        <time>2018-10-03T09:03:51.000Z</time>
      </trkpt>
      <trkpt lat="42.46088" lon="-7.959755">
        <ele>467.0</ele>
        <time>2018-10-03T09:03:52.000Z</time>
      </trkpt>
      <trkpt lat="42.46088333" lon="-7.95975833">
        <ele>467.0</ele>
        <time>2018-10-03T09:03:53.000Z</time>
      </trkpt>
      <trkpt lat="42.46089167" lon="-7.95976833">
        <ele>467.0</ele>
        <time>2018-10-03T09:03:54.000Z</time>
      </trkpt>
      <trkpt lat="42.460905" lon="-7.95978167">
        <ele>467.0</ele>
        <time>2018-10-03T09:03:55.000Z</time>
      </trkpt>
      <trkpt lat="42.46091833" lon="-7.959795">
        <ele>467.0</ele>
        <time>2018-10-03T09:03:56.000Z</time>
      </trkpt>
      <trkpt lat="42.46093167" lon="-7.95981167">
        <ele>467.0</ele>
        <time>2018-10-03T09:03:57.000Z</time>
      </trkpt>
      <trkpt lat="42.460945" lon="-7.95982833">
        <ele>467.0</ele>
        <time>2018-10-03T09:03:58.000Z</time>
      </trkpt>
      <trkpt lat="42.46095667" lon="-7.95984333">
        <ele>467.0</ele>
        <time>2018-10-03T09:03:59.000Z</time>
      </trkpt>
      <trkpt lat="42.46097" lon="-7.95985667">
        <ele>467.0</ele>
        <time>2018-10-03T09:04:00.000Z</time>
      </trkpt>
      <trkpt lat="42.46098333" lon="-7.95987333">
        <ele>467.0</ele>
        <time>2018-10-03T09:04:01.000Z</time>
      </trkpt>
      <trkpt lat="42.46099667" lon="-7.95988833">
        <ele>467.0</ele>
        <time>2018-10-03T09:04:02.000Z</time>
      </trkpt>
      <trkpt lat="42.46101" lon="-7.959905">
        <ele>467.0</ele>
        <time>2018-10-03T09:04:03.000Z</time>
      </trkpt>
      <trkpt lat="42.46102333" lon="-7.95992">
        <ele>467.0</ele>
        <time>2018-10-03T09:04:04.000Z</time>
      </trkpt>
      <trkpt lat="42.46103667" lon="-7.95993667">
        <ele>467.0</ele>
        <time>2018-10-03T09:04:05.000Z</time>
      </trkpt>
      <trkpt lat="42.46105333" lon="-7.95995167">
        <ele>467.0</ele>
        <time>2018-10-03T09:04:06.000Z</time>
      </trkpt>
      <trkpt lat="42.46106667" lon="-7.95996833">
        <ele>467.0</ele>
        <time>2018-10-03T09:04:07.000Z</time>
      </trkpt>
      <trkpt lat="42.46108" lon="-7.959985">
        <ele>467.0</ele>
        <time>2018-10-03T09:04:08.000Z</time>
      </trkpt>
      <trkpt lat="42.46109167" lon="-7.96000333">
        <ele>467.0</ele>
        <time>2018-10-03T09:04:09.000Z</time>
      </trkpt>
      <trkpt lat="42.461105" lon="-7.96002167">
        <ele>467.0</ele>
        <time>2018-10-03T09:04:10.000Z</time>
      </trkpt>
      <trkpt lat="42.46111667" lon="-7.96003667">
        <ele>467.0</ele>
        <time>2018-10-03T09:04:11.000Z</time>
      </trkpt>
      <trkpt lat="42.46112833" lon="-7.96005333">
        <ele>468.0</ele>
        <time>2018-10-03T09:04:12.000Z</time>
      </trkpt>
      <trkpt lat="42.46114" lon="-7.96006833">
        <ele>468.0</ele>
        <time>2018-10-03T09:04:13.000Z</time>
      </trkpt>
      <trkpt lat="42.46115" lon="-7.96008333">
        <ele>468.0</ele>
        <time>2018-10-03T09:04:14.000Z</time>
      </trkpt>
      <trkpt lat="42.46116167" lon="-7.96010167">
        <ele>468.0</ele>
        <time>2018-10-03T09:04:15.000Z</time>
      </trkpt>
      <trkpt lat="42.46117333" lon="-7.96011833">
        <ele>468.0</ele>
        <time>2018-10-03T09:04:16.000Z</time>
      </trkpt>
      <trkpt lat="42.461185" lon="-7.96013333">
        <ele>468.0</ele>
        <time>2018-10-03T09:04:17.000Z</time>
      </trkpt>
      <trkpt lat="42.46119667" lon="-7.96015167">
        <ele>468.0</ele>
        <time>2018-10-03T09:04:18.000Z</time>
      </trkpt>
      <trkpt lat="42.461205" lon="-7.96017167">
        <ele>468.0</ele>
        <time>2018-10-03T09:04:19.000Z</time>
      </trkpt>
      <trkpt lat="42.461215" lon="-7.96019333">
        <ele>468.0</ele>
        <time>2018-10-03T09:04:20.000Z</time>
      </trkpt>
      <trkpt lat="42.46122333" lon="-7.960215">
        <ele>468.0</ele>
        <time>2018-10-03T09:04:21.000Z</time>
      </trkpt>
      <trkpt lat="42.46123" lon="-7.96023667">
        <ele>468.0</ele>
        <time>2018-10-03T09:04:22.000Z</time>
      </trkpt>
      <trkpt lat="42.461235" lon="-7.96025667">
        <ele>468.0</ele>
        <time>2018-10-03T09:04:23.000Z</time>
      </trkpt>
      <trkpt lat="42.46124" lon="-7.96027667">
        <ele>468.0</ele>
        <time>2018-10-03T09:04:24.000Z</time>
      </trkpt>
      <trkpt lat="42.461245" lon="-7.96029667">
        <ele>468.0</ele>
        <time>2018-10-03T09:04:25.000Z</time>
      </trkpt>
      <trkpt lat="42.46125167" lon="-7.96031667">
        <ele>468.0</ele>
        <time>2018-10-03T09:04:26.000Z</time>
      </trkpt>
      <trkpt lat="42.46125833" lon="-7.96033667">
        <ele>468.0</ele>
        <time>2018-10-03T09:04:27.000Z</time>
      </trkpt>
      <trkpt lat="42.46126667" lon="-7.96035667">
        <ele>468.0</ele>
        <time>2018-10-03T09:04:28.000Z</time>
      </trkpt>
      <trkpt lat="42.46127667" lon="-7.96037667">
        <ele>468.0</ele>
        <time>2018-10-03T09:04:29.000Z</time>
      </trkpt>
      <trkpt lat="42.46128333" lon="-7.96039167">
        <ele>468.0</ele>
        <time>2018-10-03T09:04:30.000Z</time>
      </trkpt>
      <trkpt lat="42.461295" lon="-7.96041">
        <ele>468.0</ele>
        <time>2018-10-03T09:04:31.000Z</time>
      </trkpt>
      <trkpt lat="42.461305" lon="-7.96042667">
        <ele>468.0</ele>
        <time>2018-10-03T09:04:32.000Z</time>
      </trkpt>
      <trkpt lat="42.46131667" lon="-7.96044333">
        <ele>468.0</ele>
        <time>2018-10-03T09:04:33.000Z</time>
      </trkpt>
      <trkpt lat="42.46132833" lon="-7.96045833">
        <ele>468.0</ele>
        <time>2018-10-03T09:04:34.000Z</time>
      </trkpt>
      <trkpt lat="42.46133833" lon="-7.96047333">
        <ele>468.0</ele>
        <time>2018-10-03T09:04:35.000Z</time>
      </trkpt>
      <trkpt lat="42.46134833" lon="-7.96048667">
        <ele>468.0</ele>
        <time>2018-10-03T09:04:36.000Z</time>
      </trkpt>
      <trkpt lat="42.46135667" lon="-7.96050167">
        <ele>469.0</ele>
        <time>2018-10-03T09:04:37.000Z</time>
      </trkpt>
      <trkpt lat="42.46136667" lon="-7.960515">
        <ele>469.0</ele>
        <time>2018-10-03T09:04:38.000Z</time>
      </trkpt>
      <trkpt lat="42.46137667" lon="-7.96052667">
        <ele>469.0</ele>
        <time>2018-10-03T09:04:39.000Z</time>
      </trkpt>
      <trkpt lat="42.46138833" lon="-7.96054">
        <ele>469.0</ele>
        <time>2018-10-03T09:04:40.000Z</time>
      </trkpt>
      <trkpt lat="42.4614" lon="-7.96055167">
        <ele>469.0</ele>
        <time>2018-10-03T09:04:41.000Z</time>
      </trkpt>
      <trkpt lat="42.46141167" lon="-7.96056333">
        <ele>469.0</ele>
        <time>2018-10-03T09:04:42.000Z</time>
      </trkpt>
      <trkpt lat="42.46142333" lon="-7.96057167">
        <ele>469.0</ele>
        <time>2018-10-03T09:04:43.000Z</time>
      </trkpt>
      <trkpt lat="42.46143667" lon="-7.96058167">
        <ele>469.0</ele>
        <time>2018-10-03T09:04:44.000Z</time>
      </trkpt>
      <trkpt lat="42.46144667" lon="-7.96059333">
        <ele>469.0</ele>
        <time>2018-10-03T09:04:45.000Z</time>
      </trkpt>
      <trkpt lat="42.46144833" lon="-7.960595">
        <ele>469.0</ele>
        <time>2018-10-03T09:04:46.000Z</time>
      </trkpt>
      <trkpt lat="42.46144667" lon="-7.960595">
        <ele>469.0</ele>
        <time>2018-10-03T09:04:47.000Z</time>
      </trkpt>
      <trkpt lat="42.46144667" lon="-7.96059667">
        <ele>469.0</ele>
        <time>2018-10-03T09:04:48.000Z</time>
      </trkpt>
      <trkpt lat="42.46144667" lon="-7.96059667">
        <ele>470.0</ele>
        <time>2018-10-03T09:04:49.000Z</time>
      </trkpt>
      <trkpt lat="42.46144667" lon="-7.96059833">
        <ele>470.0</ele>
        <time>2018-10-03T09:04:50.000Z</time>
      </trkpt>
      <trkpt lat="42.46144667" lon="-7.9606">
        <ele>470.0</ele>
        <time>2018-10-03T09:04:51.000Z</time>
      </trkpt>
      <trkpt lat="42.46144833" lon="-7.96060167">
        <ele>470.0</ele>
        <time>2018-10-03T09:04:52.000Z</time>
      </trkpt>
      <trkpt lat="42.46144833" lon="-7.96060167">
        <ele>470.0</ele>
        <time>2018-10-03T09:04:53.000Z</time>
      </trkpt>
      <trkpt lat="42.46144833" lon="-7.96060333">
        <ele>470.0</ele>
        <time>2018-10-03T09:04:54.000Z</time>
      </trkpt>
      <trkpt lat="42.46144833" lon="-7.96060333">
        <ele>470.0</ele>
        <time>2018-10-03T09:04:55.000Z</time>
      </trkpt>
      <trkpt lat="42.46144833" lon="-7.96060333">
        <ele>470.0</ele>
        <time>2018-10-03T09:04:56.000Z</time>
      </trkpt>
      <trkpt lat="42.46144833" lon="-7.960605">
        <ele>470.0</ele>
        <time>2018-10-03T09:04:57.000Z</time>
      </trkpt>
      <trkpt lat="42.46144833" lon="-7.960605">
        <ele>470.0</ele>
        <time>2018-10-03T09:04:58.000Z</time>
      </trkpt>
      <trkpt lat="42.46144833" lon="-7.96060667">
        <ele>470.0</ele>
        <time>2018-10-03T09:04:59.000Z</time>
      </trkpt>
      <trkpt lat="42.46144833" lon="-7.96060667">
        <ele>470.0</ele>
        <time>2018-10-03T09:05:00.000Z</time>
      </trkpt>
      <trkpt lat="42.46144833" lon="-7.96060667">
        <ele>470.0</ele>
        <time>2018-10-03T09:05:01.000Z</time>
      </trkpt>
      <trkpt lat="42.46145" lon="-7.96060833">
        <ele>470.0</ele>
        <time>2018-10-03T09:05:02.000Z</time>
      </trkpt>
      <trkpt lat="42.46145" lon="-7.96060833">
        <ele>470.0</ele>
        <time>2018-10-03T09:05:03.000Z</time>
      </trkpt>
      <trkpt lat="42.46145" lon="-7.96060833">
        <ele>470.0</ele>
        <time>2018-10-03T09:05:04.000Z</time>
      </trkpt>
      <trkpt lat="42.46145" lon="-7.96061">
        <ele>470.0</ele>
        <time>2018-10-03T09:05:05.000Z</time>
      </trkpt>
      <trkpt lat="42.46145" lon="-7.96061">
        <ele>470.0</ele>
        <time>2018-10-03T09:05:06.000Z</time>
      </trkpt>
      <trkpt lat="42.46145" lon="-7.96061">
        <ele>470.0</ele>
        <time>2018-10-03T09:05:07.000Z</time>
      </trkpt>
      <trkpt lat="42.46145" lon="-7.96061">
        <ele>470.0</ele>
        <time>2018-10-03T09:05:08.000Z</time>
      </trkpt>
      <trkpt lat="42.46145" lon="-7.96061167">
        <ele>471.0</ele>
        <time>2018-10-03T09:05:09.000Z</time>
      </trkpt>
      <trkpt lat="42.46145" lon="-7.96061">
        <ele>471.0</ele>
        <time>2018-10-03T09:05:10.000Z</time>
      </trkpt>
      <trkpt lat="42.46145" lon="-7.96061167">
        <ele>471.0</ele>
        <time>2018-10-03T09:05:11.000Z</time>
      </trkpt>
      <trkpt lat="42.461455" lon="-7.960615">
        <ele>471.0</ele>
        <time>2018-10-03T09:05:12.000Z</time>
      </trkpt>
      <trkpt lat="42.46146167" lon="-7.96062167">
        <ele>471.0</ele>
        <time>2018-10-03T09:05:13.000Z</time>
      </trkpt>
      <trkpt lat="42.46147" lon="-7.96062833">
        <ele>471.0</ele>
        <time>2018-10-03T09:05:14.000Z</time>
      </trkpt>
      <trkpt lat="42.46147833" lon="-7.96063833">
        <ele>471.0</ele>
        <time>2018-10-03T09:05:15.000Z</time>
      </trkpt>
      <trkpt lat="42.46149" lon="-7.96065">
        <ele>471.0</ele>
        <time>2018-10-03T09:05:16.000Z</time>
      </trkpt>
      <trkpt lat="42.46150167" lon="-7.96066167">
        <ele>471.0</ele>
        <time>2018-10-03T09:05:17.000Z</time>
      </trkpt>
      <trkpt lat="42.461515" lon="-7.96067333">
        <ele>471.0</ele>
        <time>2018-10-03T09:05:18.000Z</time>
      </trkpt>
      <trkpt lat="42.46152667" lon="-7.96068333">
        <ele>471.0</ele>
        <time>2018-10-03T09:05:19.000Z</time>
      </trkpt>
      <trkpt lat="42.46154" lon="-7.96069667">
        <ele>471.0</ele>
        <time>2018-10-03T09:05:20.000Z</time>
      </trkpt>
      <trkpt lat="42.46155333" lon="-7.96071">
        <ele>472.0</ele>
        <time>2018-10-03T09:05:21.000Z</time>
      </trkpt>
      <trkpt lat="42.46156667" lon="-7.96072">
        <ele>472.0</ele>
        <time>2018-10-03T09:05:22.000Z</time>
      </trkpt>
      <trkpt lat="42.46157833" lon="-7.96073">
        <ele>472.0</ele>
        <time>2018-10-03T09:05:23.000Z</time>
      </trkpt>
      <trkpt lat="42.46159167" lon="-7.96074167">
        <ele>472.0</ele>
        <time>2018-10-03T09:05:24.000Z</time>
      </trkpt>
      <trkpt lat="42.46160333" lon="-7.96075167">
        <ele>472.0</ele>
        <time>2018-10-03T09:05:25.000Z</time>
      </trkpt>
      <trkpt lat="42.461615" lon="-7.96076167">
        <ele>472.0</ele>
        <time>2018-10-03T09:05:26.000Z</time>
      </trkpt>
      <trkpt lat="42.46162667" lon="-7.96077333">
        <ele>472.0</ele>
        <time>2018-10-03T09:05:27.000Z</time>
      </trkpt>
      <trkpt lat="42.46163667" lon="-7.96078333">
        <ele>472.0</ele>
        <time>2018-10-03T09:05:28.000Z</time>
      </trkpt>
      <trkpt lat="42.46164667" lon="-7.96079333">
        <ele>472.0</ele>
        <time>2018-10-03T09:05:29.000Z</time>
      </trkpt>
      <trkpt lat="42.46165833" lon="-7.96080333">
        <ele>472.0</ele>
        <time>2018-10-03T09:05:30.000Z</time>
      </trkpt>
      <trkpt lat="42.46167167" lon="-7.96080833">
        <ele>472.0</ele>
        <time>2018-10-03T09:05:31.000Z</time>
      </trkpt>
      <trkpt lat="42.46168333" lon="-7.96081667">
        <ele>472.0</ele>
        <time>2018-10-03T09:05:32.000Z</time>
      </trkpt>
      <trkpt lat="42.46169667" lon="-7.96082333">
        <ele>472.0</ele>
        <time>2018-10-03T09:05:33.000Z</time>
      </trkpt>
      <trkpt lat="42.46171" lon="-7.96083167">
        <ele>472.0</ele>
        <time>2018-10-03T09:05:34.000Z</time>
      </trkpt>
      <trkpt lat="42.46172333" lon="-7.96084167">
        <ele>472.0</ele>
        <time>2018-10-03T09:05:35.000Z</time>
      </trkpt>
      <trkpt lat="42.46173667" lon="-7.96085167">
        <ele>472.0</ele>
        <time>2018-10-03T09:05:36.000Z</time>
      </trkpt>
      <trkpt lat="42.46175" lon="-7.96086">
        <ele>472.0</ele>
        <time>2018-10-03T09:05:37.000Z</time>
      </trkpt>
      <trkpt lat="42.461765" lon="-7.96087">
        <ele>472.0</ele>
        <time>2018-10-03T09:05:38.000Z</time>
      </trkpt>
      <trkpt lat="42.46178" lon="-7.96088167">
        <ele>472.0</ele>
        <time>2018-10-03T09:05:39.000Z</time>
      </trkpt>
      <trkpt lat="42.461795" lon="-7.96089333">
        <ele>472.0</ele>
        <time>2018-10-03T09:05:40.000Z</time>
      </trkpt>
      <trkpt lat="42.46181" lon="-7.960905">
        <ele>472.0</ele>
        <time>2018-10-03T09:05:41.000Z</time>
      </trkpt>
      <trkpt lat="42.461825" lon="-7.96091667">
        <ele>472.0</ele>
        <time>2018-10-03T09:05:42.000Z</time>
      </trkpt>
      <trkpt lat="42.46183833" lon="-7.96092833">
        <ele>472.0</ele>
        <time>2018-10-03T09:05:43.000Z</time>
      </trkpt>
      <trkpt lat="42.46185333" lon="-7.96093833">
        <ele>472.0</ele>
        <time>2018-10-03T09:05:44.000Z</time>
      </trkpt>
      <trkpt lat="42.46186667" lon="-7.96094833">
        <ele>472.0</ele>
        <time>2018-10-03T09:05:45.000Z</time>
      </trkpt>
      <trkpt lat="42.46188667" lon="-7.96095833">
        <ele>472.0</ele>
        <time>2018-10-03T09:05:46.000Z</time>
      </trkpt>
      <trkpt lat="42.46190333" lon="-7.96097167">
        <ele>472.0</ele>
        <time>2018-10-03T09:05:47.000Z</time>
      </trkpt>
      <trkpt lat="42.46192167" lon="-7.96098167">
        <ele>472.0</ele>
        <time>2018-10-03T09:05:48.000Z</time>
      </trkpt>
      <trkpt lat="42.46193667" lon="-7.96099333">
        <ele>473.0</ele>
        <time>2018-10-03T09:05:49.000Z</time>
      </trkpt>
      <trkpt lat="42.46195333" lon="-7.96100333">
        <ele>473.0</ele>
        <time>2018-10-03T09:05:50.000Z</time>
      </trkpt>
      <trkpt lat="42.46196833" lon="-7.96101333">
        <ele>473.0</ele>
        <time>2018-10-03T09:05:51.000Z</time>
      </trkpt>
      <trkpt lat="42.46198" lon="-7.96102333">
        <ele>473.0</ele>
        <time>2018-10-03T09:05:52.000Z</time>
      </trkpt>
      <trkpt lat="42.46199333" lon="-7.96102833">
        <ele>473.0</ele>
        <time>2018-10-03T09:05:53.000Z</time>
      </trkpt>
      <trkpt lat="42.462005" lon="-7.96104">
        <ele>473.0</ele>
        <time>2018-10-03T09:05:54.000Z</time>
      </trkpt>
      <trkpt lat="42.46201667" lon="-7.96105">
        <ele>473.0</ele>
        <time>2018-10-03T09:05:55.000Z</time>
      </trkpt>
      <trkpt lat="42.46202833" lon="-7.96106">
        <ele>473.0</ele>
        <time>2018-10-03T09:05:56.000Z</time>
      </trkpt>
      <trkpt lat="42.46204167" lon="-7.96107">
        <ele>473.0</ele>
        <time>2018-10-03T09:05:57.000Z</time>
      </trkpt>
      <trkpt lat="42.46205333" lon="-7.96108167">
        <ele>473.0</ele>
        <time>2018-10-03T09:05:58.000Z</time>
      </trkpt>
      <trkpt lat="42.462065" lon="-7.961095">
        <ele>473.0</ele>
        <time>2018-10-03T09:05:59.000Z</time>
      </trkpt>
      <trkpt lat="42.46207833" lon="-7.96110833">
        <ele>474.0</ele>
        <time>2018-10-03T09:06:00.000Z</time>
      </trkpt>
      <trkpt lat="42.46209167" lon="-7.96112167">
        <ele>474.0</ele>
        <time>2018-10-03T09:06:01.000Z</time>
      </trkpt>
      <trkpt lat="42.4621" lon="-7.961135">
        <ele>474.0</ele>
        <time>2018-10-03T09:06:02.000Z</time>
      </trkpt>
      <trkpt lat="42.46211" lon="-7.96114667">
        <ele>474.0</ele>
        <time>2018-10-03T09:06:03.000Z</time>
      </trkpt>
      <trkpt lat="42.46212167" lon="-7.96116">
        <ele>474.0</ele>
        <time>2018-10-03T09:06:04.000Z</time>
      </trkpt>
      <trkpt lat="42.46213167" lon="-7.96117333">
        <ele>474.0</ele>
        <time>2018-10-03T09:06:05.000Z</time>
      </trkpt>
      <trkpt lat="42.46214" lon="-7.96118833">
        <ele>474.0</ele>
        <time>2018-10-03T09:06:06.000Z</time>
      </trkpt>
      <trkpt lat="42.46214833" lon="-7.96120333">
        <ele>474.0</ele>
        <time>2018-10-03T09:06:07.000Z</time>
      </trkpt>
      <trkpt lat="42.462155" lon="-7.96122">
        <ele>474.0</ele>
        <time>2018-10-03T09:06:08.000Z</time>
      </trkpt>
      <trkpt lat="42.46216" lon="-7.96123833">
        <ele>474.0</ele>
        <time>2018-10-03T09:06:09.000Z</time>
      </trkpt>
      <trkpt lat="42.46216333" lon="-7.96125667">
        <ele>474.0</ele>
        <time>2018-10-03T09:06:10.000Z</time>
      </trkpt>
      <trkpt lat="42.462165" lon="-7.96127667">
        <ele>474.0</ele>
        <time>2018-10-03T09:06:11.000Z</time>
      </trkpt>
      <trkpt lat="42.462165" lon="-7.961295">
        <ele>475.0</ele>
        <time>2018-10-03T09:06:12.000Z</time>
      </trkpt>
      <trkpt lat="42.462165" lon="-7.961315">
        <ele>475.0</ele>
        <time>2018-10-03T09:06:13.000Z</time>
      </trkpt>
      <trkpt lat="42.46216667" lon="-7.961335">
        <ele>475.0</ele>
        <time>2018-10-03T09:06:14.000Z</time>
      </trkpt>
      <trkpt lat="42.46216833" lon="-7.96135667">
        <ele>475.0</ele>
        <time>2018-10-03T09:06:15.000Z</time>
      </trkpt>
      <trkpt lat="42.46217167" lon="-7.96137667">
        <ele>475.0</ele>
        <time>2018-10-03T09:06:16.000Z</time>
      </trkpt>
      <trkpt lat="42.46217333" lon="-7.96139667">
        <ele>475.0</ele>
        <time>2018-10-03T09:06:17.000Z</time>
      </trkpt>
      <trkpt lat="42.46217667" lon="-7.96141667">
        <ele>475.0</ele>
        <time>2018-10-03T09:06:18.000Z</time>
      </trkpt>
      <trkpt lat="42.46218167" lon="-7.96143667">
        <ele>475.0</ele>
        <time>2018-10-03T09:06:19.000Z</time>
      </trkpt>
      <trkpt lat="42.46218833" lon="-7.961455">
        <ele>475.0</ele>
        <time>2018-10-03T09:06:20.000Z</time>
      </trkpt>
      <trkpt lat="42.46219333" lon="-7.961475">
        <ele>475.0</ele>
        <time>2018-10-03T09:06:21.000Z</time>
      </trkpt>
      <trkpt lat="42.462195" lon="-7.96148667">
        <ele>475.0</ele>
        <time>2018-10-03T09:06:22.000Z</time>
      </trkpt>
      <trkpt lat="42.4622" lon="-7.96149833">
        <ele>475.0</ele>
        <time>2018-10-03T09:06:23.000Z</time>
      </trkpt>
      <trkpt lat="42.46220333" lon="-7.96151">
        <ele>475.0</ele>
        <time>2018-10-03T09:06:24.000Z</time>
      </trkpt>
      <trkpt lat="42.46220667" lon="-7.96152667">
        <ele>475.0</ele>
        <time>2018-10-03T09:06:25.000Z</time>
      </trkpt>
      <trkpt lat="42.46220833" lon="-7.961545">
        <ele>475.0</ele>
        <time>2018-10-03T09:06:26.000Z</time>
      </trkpt>
      <trkpt lat="42.46220833" lon="-7.96156">
        <ele>475.0</ele>
        <time>2018-10-03T09:06:27.000Z</time>
      </trkpt>
      <trkpt lat="42.46220833" lon="-7.96157667">
        <ele>475.0</ele>
        <time>2018-10-03T09:06:28.000Z</time>
      </trkpt>
      <trkpt lat="42.46220667" lon="-7.96157833">
        <ele>475.0</ele>
        <time>2018-10-03T09:06:29.000Z</time>
      </trkpt>
      <trkpt lat="42.46220667" lon="-7.961585">
        <ele>475.0</ele>
        <time>2018-10-03T09:06:30.000Z</time>
      </trkpt>
      <trkpt lat="42.46220667" lon="-7.961595">
        <ele>475.0</ele>
        <time>2018-10-03T09:06:31.000Z</time>
      </trkpt>
      <trkpt lat="42.46220833" lon="-7.96160833">
        <ele>475.0</ele>
        <time>2018-10-03T09:06:32.000Z</time>
      </trkpt>
      <trkpt lat="42.46221" lon="-7.961625">
        <ele>475.0</ele>
        <time>2018-10-03T09:06:33.000Z</time>
      </trkpt>
      <trkpt lat="42.46221167" lon="-7.96164167">
        <ele>475.0</ele>
        <time>2018-10-03T09:06:34.000Z</time>
      </trkpt>
      <trkpt lat="42.462215" lon="-7.96165833">
        <ele>475.0</ele>
        <time>2018-10-03T09:06:35.000Z</time>
      </trkpt>
      <trkpt lat="42.46222" lon="-7.96167667">
        <ele>475.0</ele>
        <time>2018-10-03T09:06:36.000Z</time>
      </trkpt>
      <trkpt lat="42.46222333" lon="-7.96169167">
        <ele>475.0</ele>
        <time>2018-10-03T09:06:37.000Z</time>
      </trkpt>
      <trkpt lat="42.46222333" lon="-7.96171">
        <ele>475.0</ele>
        <time>2018-10-03T09:06:38.000Z</time>
      </trkpt>
      <trkpt lat="42.46222667" lon="-7.96172833">
        <ele>475.0</ele>
        <time>2018-10-03T09:06:39.000Z</time>
      </trkpt>
      <trkpt lat="42.46223167" lon="-7.96174833">
        <ele>475.0</ele>
        <time>2018-10-03T09:06:40.000Z</time>
      </trkpt>
      <trkpt lat="42.46223667" lon="-7.96176667">
        <ele>475.0</ele>
        <time>2018-10-03T09:06:41.000Z</time>
      </trkpt>
      <trkpt lat="42.462245" lon="-7.961785">
        <ele>474.0</ele>
        <time>2018-10-03T09:06:42.000Z</time>
      </trkpt>
      <trkpt lat="42.46225" lon="-7.96180333">
        <ele>474.0</ele>
        <time>2018-10-03T09:06:43.000Z</time>
      </trkpt>
      <trkpt lat="42.46225667" lon="-7.96182">
        <ele>474.0</ele>
        <time>2018-10-03T09:06:44.000Z</time>
      </trkpt>
      <trkpt lat="42.46226333" lon="-7.96183667">
        <ele>474.0</ele>
        <time>2018-10-03T09:06:45.000Z</time>
      </trkpt>
      <trkpt lat="42.46226833" lon="-7.96185333">
        <ele>474.0</ele>
        <time>2018-10-03T09:06:46.000Z</time>
      </trkpt>
      <trkpt lat="42.46227" lon="-7.96186333">
        <ele>474.0</ele>
        <time>2018-10-03T09:06:47.000Z</time>
      </trkpt>
      <trkpt lat="42.46226833" lon="-7.96186667">
        <ele>474.0</ele>
        <time>2018-10-03T09:06:48.000Z</time>
      </trkpt>
      <trkpt lat="42.46226667" lon="-7.96186833">
        <ele>474.0</ele>
        <time>2018-10-03T09:06:49.000Z</time>
      </trkpt>
      <trkpt lat="42.46226667" lon="-7.96187167">
        <ele>474.0</ele>
        <time>2018-10-03T09:06:50.000Z</time>
      </trkpt>
      <trkpt lat="42.462265" lon="-7.96187333">
        <ele>473.0</ele>
        <time>2018-10-03T09:06:51.000Z</time>
      </trkpt>
      <trkpt lat="42.46226333" lon="-7.96187667">
        <ele>473.0</ele>
        <time>2018-10-03T09:06:52.000Z</time>
      </trkpt>
      <trkpt lat="42.46226333" lon="-7.96187833">
        <ele>473.0</ele>
        <time>2018-10-03T09:06:53.000Z</time>
      </trkpt>
      <trkpt lat="42.46226333" lon="-7.96188">
        <ele>473.0</ele>
        <time>2018-10-03T09:06:54.000Z</time>
      </trkpt>
      <trkpt lat="42.46226333" lon="-7.96188333">
        <ele>473.0</ele>
        <time>2018-10-03T09:06:55.000Z</time>
      </trkpt>
      <trkpt lat="42.46226167" lon="-7.961885">
        <ele>473.0</ele>
        <time>2018-10-03T09:06:56.000Z</time>
      </trkpt>
      <trkpt lat="42.46226167" lon="-7.96188667">
        <ele>473.0</ele>
        <time>2018-10-03T09:06:57.000Z</time>
      </trkpt>
      <trkpt lat="42.46226167" lon="-7.96188667">
        <ele>473.0</ele>
        <time>2018-10-03T09:06:58.000Z</time>
      </trkpt>
      <trkpt lat="42.46226167" lon="-7.96188833">
        <ele>473.0</ele>
        <time>2018-10-03T09:06:59.000Z</time>
      </trkpt>
      <trkpt lat="42.46226" lon="-7.96189">
        <ele>473.0</ele>
        <time>2018-10-03T09:07:00.000Z</time>
      </trkpt>
      <trkpt lat="42.46226" lon="-7.96189167">
        <ele>473.0</ele>
        <time>2018-10-03T09:07:01.000Z</time>
      </trkpt>
      <trkpt lat="42.46226" lon="-7.96189167">
        <ele>473.0</ele>
        <time>2018-10-03T09:07:02.000Z</time>
      </trkpt>
      <trkpt lat="42.46226" lon="-7.96189333">
        <ele>473.0</ele>
        <time>2018-10-03T09:07:03.000Z</time>
      </trkpt>
      <trkpt lat="42.46226" lon="-7.961895">
        <ele>473.0</ele>
        <time>2018-10-03T09:07:04.000Z</time>
      </trkpt>
      <trkpt lat="42.46226" lon="-7.961895">
        <ele>473.0</ele>
        <time>2018-10-03T09:07:05.000Z</time>
      </trkpt>
      <trkpt lat="42.46226" lon="-7.96189667">
        <ele>473.0</ele>
        <time>2018-10-03T09:07:06.000Z</time>
      </trkpt>
      <trkpt lat="42.46226" lon="-7.96189667">
        <ele>473.0</ele>
        <time>2018-10-03T09:07:07.000Z</time>
      </trkpt>
      <trkpt lat="42.46225833" lon="-7.96189667">
        <ele>473.0</ele>
        <time>2018-10-03T09:07:08.000Z</time>
      </trkpt>
      <trkpt lat="42.46225833" lon="-7.96189833">
        <ele>473.0</ele>
        <time>2018-10-03T09:07:09.000Z</time>
      </trkpt>
      <trkpt lat="42.46225833" lon="-7.96189833">
        <ele>473.0</ele>
        <time>2018-10-03T09:07:10.000Z</time>
      </trkpt>
      <trkpt lat="42.46225833" lon="-7.96189833">
        <ele>473.0</ele>
        <time>2018-10-03T09:07:11.000Z</time>
      </trkpt>
      <trkpt lat="42.46225833" lon="-7.96190167">
        <ele>473.0</ele>
        <time>2018-10-03T09:07:12.000Z</time>
      </trkpt>
      <trkpt lat="42.46225833" lon="-7.96191">
        <ele>473.0</ele>
        <time>2018-10-03T09:07:13.000Z</time>
      </trkpt>
      <trkpt lat="42.46226" lon="-7.96192167">
        <ele>473.0</ele>
        <time>2018-10-03T09:07:14.000Z</time>
      </trkpt>
      <trkpt lat="42.462265" lon="-7.96193333">
        <ele>473.0</ele>
        <time>2018-10-03T09:07:15.000Z</time>
      </trkpt>
      <trkpt lat="42.46226833" lon="-7.96195">
        <ele>473.0</ele>
        <time>2018-10-03T09:07:16.000Z</time>
      </trkpt>
      <trkpt lat="42.46227333" lon="-7.961965">
        <ele>474.0</ele>
        <time>2018-10-03T09:07:17.000Z</time>
      </trkpt>
      <trkpt lat="42.46227667" lon="-7.96198333">
        <ele>474.0</ele>
        <time>2018-10-03T09:07:18.000Z</time>
      </trkpt>
      <trkpt lat="42.46228167" lon="-7.96200167">
        <ele>474.0</ele>
        <time>2018-10-03T09:07:19.000Z</time>
      </trkpt>
      <trkpt lat="42.462285" lon="-7.96202167">
        <ele>474.0</ele>
        <time>2018-10-03T09:07:20.000Z</time>
      </trkpt>
      <trkpt lat="42.46229" lon="-7.96203833">
        <ele>474.0</ele>
        <time>2018-10-03T09:07:21.000Z</time>
      </trkpt>
      <trkpt lat="42.46229333" lon="-7.962055">
        <ele>474.0</ele>
        <time>2018-10-03T09:07:22.000Z</time>
      </trkpt>
      <trkpt lat="42.46229667" lon="-7.96207">
        <ele>474.0</ele>
        <time>2018-10-03T09:07:23.000Z</time>
      </trkpt>
      <trkpt lat="42.46229833" lon="-7.96208667">
        <ele>474.0</ele>
        <time>2018-10-03T09:07:24.000Z</time>
      </trkpt>
      <trkpt lat="42.4623" lon="-7.96210167">
        <ele>474.0</ele>
        <time>2018-10-03T09:07:25.000Z</time>
      </trkpt>
      <trkpt lat="42.46230333" lon="-7.96211667">
        <ele>474.0</ele>
        <time>2018-10-03T09:07:26.000Z</time>
      </trkpt>
      <trkpt lat="42.462305" lon="-7.96213167">
        <ele>474.0</ele>
        <time>2018-10-03T09:07:27.000Z</time>
      </trkpt>
      <trkpt lat="42.46230833" lon="-7.96214667">
        <ele>474.0</ele>
        <time>2018-10-03T09:07:28.000Z</time>
      </trkpt>
      <trkpt lat="42.462315" lon="-7.96216167">
        <ele>474.0</ele>
        <time>2018-10-03T09:07:29.000Z</time>
      </trkpt>
      <trkpt lat="42.46232167" lon="-7.96217667">
        <ele>475.0</ele>
        <time>2018-10-03T09:07:30.000Z</time>
      </trkpt>
      <trkpt lat="42.46233" lon="-7.96219333">
        <ele>475.0</ele>
        <time>2018-10-03T09:07:31.000Z</time>
      </trkpt>
      <trkpt lat="42.46234" lon="-7.96221">
        <ele>475.0</ele>
        <time>2018-10-03T09:07:32.000Z</time>
      </trkpt>
      <trkpt lat="42.46234833" lon="-7.962225">
        <ele>475.0</ele>
        <time>2018-10-03T09:07:33.000Z</time>
      </trkpt>
      <trkpt lat="42.46235833" lon="-7.96224333">
        <ele>475.0</ele>
        <time>2018-10-03T09:07:34.000Z</time>
      </trkpt>
      <trkpt lat="42.46236833" lon="-7.96226167">
        <ele>475.0</ele>
        <time>2018-10-03T09:07:35.000Z</time>
      </trkpt>
      <trkpt lat="42.46237667" lon="-7.96228167">
        <ele>475.0</ele>
        <time>2018-10-03T09:07:36.000Z</time>
      </trkpt>
      <trkpt lat="42.46238667" lon="-7.96230333">
        <ele>475.0</ele>
        <time>2018-10-03T09:07:37.000Z</time>
      </trkpt>
      <trkpt lat="42.462395" lon="-7.96232333">
        <ele>475.0</ele>
        <time>2018-10-03T09:07:38.000Z</time>
      </trkpt>
      <trkpt lat="42.462405" lon="-7.96234167">
        <ele>475.0</ele>
        <time>2018-10-03T09:07:39.000Z</time>
      </trkpt>
      <trkpt lat="42.46241667" lon="-7.96236167">
        <ele>475.0</ele>
        <time>2018-10-03T09:07:40.000Z</time>
      </trkpt>
      <trkpt lat="42.46242833" lon="-7.96237833">
        <ele>475.0</ele>
        <time>2018-10-03T09:07:41.000Z</time>
      </trkpt>
      <trkpt lat="42.46243833" lon="-7.96239667">
        <ele>475.0</ele>
        <time>2018-10-03T09:07:42.000Z</time>
      </trkpt>
      <trkpt lat="42.46244833" lon="-7.96241167">
        <ele>475.0</ele>
        <time>2018-10-03T09:07:43.000Z</time>
      </trkpt>
      <trkpt lat="42.46245667" lon="-7.96242833">
        <ele>476.0</ele>
        <time>2018-10-03T09:07:44.000Z</time>
      </trkpt>
      <trkpt lat="42.462465" lon="-7.96244333">
        <ele>476.0</ele>
        <time>2018-10-03T09:07:45.000Z</time>
      </trkpt>
      <trkpt lat="42.46247167" lon="-7.96246">
        <ele>476.0</ele>
        <time>2018-10-03T09:07:46.000Z</time>
      </trkpt>
      <trkpt lat="42.46248" lon="-7.962475">
        <ele>476.0</ele>
        <time>2018-10-03T09:07:47.000Z</time>
      </trkpt>
      <trkpt lat="42.46248833" lon="-7.96249167">
        <ele>476.0</ele>
        <time>2018-10-03T09:07:48.000Z</time>
      </trkpt>
      <trkpt lat="42.462495" lon="-7.96251167">
        <ele>476.0</ele>
        <time>2018-10-03T09:07:49.000Z</time>
      </trkpt>
      <trkpt lat="42.46250167" lon="-7.96253167">
        <ele>476.0</ele>
        <time>2018-10-03T09:07:50.000Z</time>
      </trkpt>
      <trkpt lat="42.46250833" lon="-7.96255167">
        <ele>476.0</ele>
        <time>2018-10-03T09:07:51.000Z</time>
      </trkpt>
      <trkpt lat="42.462515" lon="-7.96257333">
        <ele>476.0</ele>
        <time>2018-10-03T09:07:52.000Z</time>
      </trkpt>
      <trkpt lat="42.46252333" lon="-7.96259333">
        <ele>476.0</ele>
        <time>2018-10-03T09:07:53.000Z</time>
      </trkpt>
      <trkpt lat="42.46253" lon="-7.96261333">
        <ele>476.0</ele>
        <time>2018-10-03T09:07:54.000Z</time>
      </trkpt>
      <trkpt lat="42.46253667" lon="-7.96263333">
        <ele>476.0</ele>
        <time>2018-10-03T09:07:55.000Z</time>
      </trkpt>
      <trkpt lat="42.46254333" lon="-7.96265333">
        <ele>476.0</ele>
        <time>2018-10-03T09:07:56.000Z</time>
      </trkpt>
      <trkpt lat="42.46254667" lon="-7.96267667">
        <ele>475.0</ele>
        <time>2018-10-03T09:07:57.000Z</time>
      </trkpt>
      <trkpt lat="42.46255" lon="-7.96269833">
        <ele>475.0</ele>
        <time>2018-10-03T09:07:58.000Z</time>
      </trkpt>
      <trkpt lat="42.462555" lon="-7.96272167">
        <ele>475.0</ele>
        <time>2018-10-03T09:07:59.000Z</time>
      </trkpt>
      <trkpt lat="42.46255833" lon="-7.96274333">
        <ele>475.0</ele>
        <time>2018-10-03T09:08:00.000Z</time>
      </trkpt>
      <trkpt lat="42.46256167" lon="-7.96276667">
        <ele>475.0</ele>
        <time>2018-10-03T09:08:01.000Z</time>
      </trkpt>
      <trkpt lat="42.46256333" lon="-7.96278833">
        <ele>475.0</ele>
        <time>2018-10-03T09:08:02.000Z</time>
      </trkpt>
      <trkpt lat="42.46256667" lon="-7.96281167">
        <ele>475.0</ele>
        <time>2018-10-03T09:08:03.000Z</time>
      </trkpt>
      <trkpt lat="42.46257" lon="-7.96283167">
        <ele>475.0</ele>
        <time>2018-10-03T09:08:04.000Z</time>
      </trkpt>
      <trkpt lat="42.46257167" lon="-7.96285333">
        <ele>475.0</ele>
        <time>2018-10-03T09:08:05.000Z</time>
      </trkpt>
      <trkpt lat="42.46257167" lon="-7.962875">
        <ele>475.0</ele>
        <time>2018-10-03T09:08:06.000Z</time>
      </trkpt>
      <trkpt lat="42.46257333" lon="-7.96289833">
        <ele>475.0</ele>
        <time>2018-10-03T09:08:07.000Z</time>
      </trkpt>
      <trkpt lat="42.462575" lon="-7.96292">
        <ele>475.0</ele>
        <time>2018-10-03T09:08:08.000Z</time>
      </trkpt>
      <trkpt lat="42.462575" lon="-7.96294167">
        <ele>475.0</ele>
        <time>2018-10-03T09:08:09.000Z</time>
      </trkpt>
      <trkpt lat="42.462575" lon="-7.96296">
        <ele>475.0</ele>
        <time>2018-10-03T09:08:10.000Z</time>
      </trkpt>
      <trkpt lat="42.46257667" lon="-7.96297833">
        <ele>475.0</ele>
        <time>2018-10-03T09:08:11.000Z</time>
      </trkpt>
      <trkpt lat="42.46257667" lon="-7.96299667">
        <ele>475.0</ele>
        <time>2018-10-03T09:08:12.000Z</time>
      </trkpt>
      <trkpt lat="42.46257833" lon="-7.96301667">
        <ele>475.0</ele>
        <time>2018-10-03T09:08:13.000Z</time>
      </trkpt>
      <trkpt lat="42.46257833" lon="-7.96303667">
        <ele>475.0</ele>
        <time>2018-10-03T09:08:14.000Z</time>
      </trkpt>
      <trkpt lat="42.46258" lon="-7.96305667">
        <ele>475.0</ele>
        <time>2018-10-03T09:08:15.000Z</time>
      </trkpt>
      <trkpt lat="42.46258167" lon="-7.96307833">
        <ele>475.0</ele>
        <time>2018-10-03T09:08:16.000Z</time>
      </trkpt>
      <trkpt lat="42.462585" lon="-7.96309833">
        <ele>475.0</ele>
        <time>2018-10-03T09:08:17.000Z</time>
      </trkpt>
      <trkpt lat="42.46258667" lon="-7.96311833">
        <ele>476.0</ele>
        <time>2018-10-03T09:08:18.000Z</time>
      </trkpt>
      <trkpt lat="42.46258667" lon="-7.96313667">
        <ele>476.0</ele>
        <time>2018-10-03T09:08:19.000Z</time>
      </trkpt>
      <trkpt lat="42.46258833" lon="-7.96315667">
        <ele>476.0</ele>
        <time>2018-10-03T09:08:20.000Z</time>
      </trkpt>
      <trkpt lat="42.46258833" lon="-7.96317833">
        <ele>476.0</ele>
        <time>2018-10-03T09:08:21.000Z</time>
      </trkpt>
      <trkpt lat="42.46259" lon="-7.9632">
        <ele>476.0</ele>
        <time>2018-10-03T09:08:22.000Z</time>
      </trkpt>
      <trkpt lat="42.46259" lon="-7.96322">
        <ele>476.0</ele>
        <time>2018-10-03T09:08:23.000Z</time>
      </trkpt>
      <trkpt lat="42.46259167" lon="-7.96323833">
        <ele>477.0</ele>
        <time>2018-10-03T09:08:24.000Z</time>
      </trkpt>
      <trkpt lat="42.46259333" lon="-7.963255">
        <ele>477.0</ele>
        <time>2018-10-03T09:08:25.000Z</time>
      </trkpt>
      <trkpt lat="42.46259333" lon="-7.96327167">
        <ele>477.0</ele>
        <time>2018-10-03T09:08:26.000Z</time>
      </trkpt>
      <trkpt lat="42.46259333" lon="-7.96328833">
        <ele>477.0</ele>
        <time>2018-10-03T09:08:27.000Z</time>
      </trkpt>
      <trkpt lat="42.462595" lon="-7.96330667">
        <ele>477.0</ele>
        <time>2018-10-03T09:08:28.000Z</time>
      </trkpt>
      <trkpt lat="42.46259833" lon="-7.96332167">
        <ele>477.0</ele>
        <time>2018-10-03T09:08:29.000Z</time>
      </trkpt>
      <trkpt lat="42.46260167" lon="-7.963335">
        <ele>477.0</ele>
        <time>2018-10-03T09:08:30.000Z</time>
      </trkpt>
      <trkpt lat="42.462605" lon="-7.96335">
        <ele>478.0</ele>
        <time>2018-10-03T09:08:31.000Z</time>
      </trkpt>
      <trkpt lat="42.46260833" lon="-7.96336833">
        <ele>478.0</ele>
        <time>2018-10-03T09:08:32.000Z</time>
      </trkpt>
      <trkpt lat="42.46261167" lon="-7.96338833">
        <ele>478.0</ele>
        <time>2018-10-03T09:08:33.000Z</time>
      </trkpt>
      <trkpt lat="42.462615" lon="-7.96340833">
        <ele>478.0</ele>
        <time>2018-10-03T09:08:34.000Z</time>
      </trkpt>
      <trkpt lat="42.46261833" lon="-7.96342667">
        <ele>478.0</ele>
        <time>2018-10-03T09:08:35.000Z</time>
      </trkpt>
      <trkpt lat="42.46262167" lon="-7.96344833">
        <ele>478.0</ele>
        <time>2018-10-03T09:08:36.000Z</time>
      </trkpt>
      <trkpt lat="42.46262667" lon="-7.96346833">
        <ele>478.0</ele>
        <time>2018-10-03T09:08:37.000Z</time>
      </trkpt>
      <trkpt lat="42.46263" lon="-7.96349167">
        <ele>478.0</ele>
        <time>2018-10-03T09:08:38.000Z</time>
      </trkpt>
      <trkpt lat="42.462635" lon="-7.96351333">
        <ele>478.0</ele>
        <time>2018-10-03T09:08:39.000Z</time>
      </trkpt>
      <trkpt lat="42.46263667" lon="-7.96353333">
        <ele>478.0</ele>
        <time>2018-10-03T09:08:40.000Z</time>
      </trkpt>
      <trkpt lat="42.46264" lon="-7.963555">
        <ele>478.0</ele>
        <time>2018-10-03T09:08:41.000Z</time>
      </trkpt>
      <trkpt lat="42.462645" lon="-7.96357333">
        <ele>477.0</ele>
        <time>2018-10-03T09:08:42.000Z</time>
      </trkpt>
      <trkpt lat="42.46264667" lon="-7.96359167">
        <ele>477.0</ele>
        <time>2018-10-03T09:08:43.000Z</time>
      </trkpt>
      <trkpt lat="42.46264667" lon="-7.96359667">
        <ele>477.0</ele>
        <time>2018-10-03T09:08:44.000Z</time>
      </trkpt>
      <trkpt lat="42.46264667" lon="-7.96360833">
        <ele>477.0</ele>
        <time>2018-10-03T09:08:45.000Z</time>
      </trkpt>
      <trkpt lat="42.46264833" lon="-7.963625">
        <ele>477.0</ele>
        <time>2018-10-03T09:08:46.000Z</time>
      </trkpt>
      <trkpt lat="42.46264833" lon="-7.96364333">
        <ele>477.0</ele>
        <time>2018-10-03T09:08:47.000Z</time>
      </trkpt>
      <trkpt lat="42.46264833" lon="-7.96366167">
        <ele>477.0</ele>
        <time>2018-10-03T09:08:48.000Z</time>
      </trkpt>
      <trkpt lat="42.46264667" lon="-7.96367833">
        <ele>477.0</ele>
        <time>2018-10-03T09:08:49.000Z</time>
      </trkpt>
      <trkpt lat="42.46264667" lon="-7.9637">
        <ele>477.0</ele>
        <time>2018-10-03T09:08:50.000Z</time>
      </trkpt>
      <trkpt lat="42.46264333" lon="-7.96371833">
        <ele>477.0</ele>
        <time>2018-10-03T09:08:51.000Z</time>
      </trkpt>
      <trkpt lat="42.46264" lon="-7.96373833">
        <ele>477.0</ele>
        <time>2018-10-03T09:08:52.000Z</time>
      </trkpt>
      <trkpt lat="42.46264" lon="-7.96375667">
        <ele>477.0</ele>
        <time>2018-10-03T09:08:53.000Z</time>
      </trkpt>
      <trkpt lat="42.46264" lon="-7.96377667">
        <ele>477.0</ele>
        <time>2018-10-03T09:08:54.000Z</time>
      </trkpt>
      <trkpt lat="42.46263833" lon="-7.96379333">
        <ele>477.0</ele>
        <time>2018-10-03T09:08:55.000Z</time>
      </trkpt>
      <trkpt lat="42.46263833" lon="-7.96381">
        <ele>477.0</ele>
        <time>2018-10-03T09:08:56.000Z</time>
      </trkpt>
      <trkpt lat="42.46264" lon="-7.96382667">
        <ele>478.0</ele>
        <time>2018-10-03T09:08:57.000Z</time>
      </trkpt>
      <trkpt lat="42.46264" lon="-7.96384167">
        <ele>478.0</ele>
        <time>2018-10-03T09:08:58.000Z</time>
      </trkpt>
      <trkpt lat="42.46263833" lon="-7.963855">
        <ele>478.0</ele>
        <time>2018-10-03T09:08:59.000Z</time>
      </trkpt>
      <trkpt lat="42.46263833" lon="-7.96386833">
        <ele>478.0</ele>
        <time>2018-10-03T09:09:00.000Z</time>
      </trkpt>
      <trkpt lat="42.46263833" lon="-7.96388167">
        <ele>478.0</ele>
        <time>2018-10-03T09:09:01.000Z</time>
      </trkpt>
      <trkpt lat="42.46263833" lon="-7.963895">
        <ele>478.0</ele>
        <time>2018-10-03T09:09:02.000Z</time>
      </trkpt>
      <trkpt lat="42.46264" lon="-7.96391">
        <ele>478.0</ele>
        <time>2018-10-03T09:09:03.000Z</time>
      </trkpt>
      <trkpt lat="42.46264167" lon="-7.96392667">
        <ele>478.0</ele>
        <time>2018-10-03T09:09:04.000Z</time>
      </trkpt>
      <trkpt lat="42.46264333" lon="-7.96394167">
        <ele>478.0</ele>
        <time>2018-10-03T09:09:05.000Z</time>
      </trkpt>
      <trkpt lat="42.46264333" lon="-7.96395333">
        <ele>478.0</ele>
        <time>2018-10-03T09:09:06.000Z</time>
      </trkpt>
      <trkpt lat="42.46264167" lon="-7.96395667">
        <ele>478.0</ele>
        <time>2018-10-03T09:09:07.000Z</time>
      </trkpt>
      <trkpt lat="42.46264" lon="-7.96396667">
        <ele>478.0</ele>
        <time>2018-10-03T09:09:08.000Z</time>
      </trkpt>
      <trkpt lat="42.46263833" lon="-7.96397833">
        <ele>478.0</ele>
        <time>2018-10-03T09:09:09.000Z</time>
      </trkpt>
      <trkpt lat="42.46263833" lon="-7.96399167">
        <ele>478.0</ele>
        <time>2018-10-03T09:09:10.000Z</time>
      </trkpt>
      <trkpt lat="42.46263667" lon="-7.964005">
        <ele>478.0</ele>
        <time>2018-10-03T09:09:11.000Z</time>
      </trkpt>
      <trkpt lat="42.46263667" lon="-7.96402167">
        <ele>478.0</ele>
        <time>2018-10-03T09:09:12.000Z</time>
      </trkpt>
      <trkpt lat="42.46263833" lon="-7.96403833">
        <ele>478.0</ele>
        <time>2018-10-03T09:09:13.000Z</time>
      </trkpt>
      <trkpt lat="42.46263833" lon="-7.964055">
        <ele>478.0</ele>
        <time>2018-10-03T09:09:14.000Z</time>
      </trkpt>
      <trkpt lat="42.46264" lon="-7.96407167">
        <ele>478.0</ele>
        <time>2018-10-03T09:09:15.000Z</time>
      </trkpt>
      <trkpt lat="42.46264333" lon="-7.96408833">
        <ele>478.0</ele>
        <time>2018-10-03T09:09:16.000Z</time>
      </trkpt>
      <trkpt lat="42.46264667" lon="-7.964105">
        <ele>478.0</ele>
        <time>2018-10-03T09:09:17.000Z</time>
      </trkpt>
      <trkpt lat="42.46265" lon="-7.96412333">
        <ele>478.0</ele>
        <time>2018-10-03T09:09:18.000Z</time>
      </trkpt>
      <trkpt lat="42.46265333" lon="-7.96414">
        <ele>478.0</ele>
        <time>2018-10-03T09:09:19.000Z</time>
      </trkpt>
      <trkpt lat="42.46265667" lon="-7.96415333">
        <ele>478.0</ele>
        <time>2018-10-03T09:09:20.000Z</time>
      </trkpt>
      <trkpt lat="42.46266" lon="-7.96416833">
        <ele>478.0</ele>
        <time>2018-10-03T09:09:21.000Z</time>
      </trkpt>
      <trkpt lat="42.46266333" lon="-7.96418">
        <ele>478.0</ele>
        <time>2018-10-03T09:09:22.000Z</time>
      </trkpt>
      <trkpt lat="42.462665" lon="-7.964195">
        <ele>478.0</ele>
        <time>2018-10-03T09:09:23.000Z</time>
      </trkpt>
      <trkpt lat="42.46266667" lon="-7.96421333">
        <ele>478.0</ele>
        <time>2018-10-03T09:09:24.000Z</time>
      </trkpt>
      <trkpt lat="42.46267" lon="-7.96422833">
        <ele>478.0</ele>
        <time>2018-10-03T09:09:25.000Z</time>
      </trkpt>
      <trkpt lat="42.46267167" lon="-7.96424833">
        <ele>478.0</ele>
        <time>2018-10-03T09:09:26.000Z</time>
      </trkpt>
      <trkpt lat="42.462675" lon="-7.96426667">
        <ele>478.0</ele>
        <time>2018-10-03T09:09:27.000Z</time>
      </trkpt>
      <trkpt lat="42.46267833" lon="-7.96428667">
        <ele>479.0</ele>
        <time>2018-10-03T09:09:28.000Z</time>
      </trkpt>
      <trkpt lat="42.46268" lon="-7.964305">
        <ele>479.0</ele>
        <time>2018-10-03T09:09:29.000Z</time>
      </trkpt>
      <trkpt lat="42.46268333" lon="-7.96432333">
        <ele>479.0</ele>
        <time>2018-10-03T09:09:30.000Z</time>
      </trkpt>
      <trkpt lat="42.46268667" lon="-7.96434">
        <ele>479.0</ele>
        <time>2018-10-03T09:09:31.000Z</time>
      </trkpt>
      <trkpt lat="42.46268833" lon="-7.96436167">
        <ele>479.0</ele>
        <time>2018-10-03T09:09:32.000Z</time>
      </trkpt>
      <trkpt lat="42.46269167" lon="-7.96438">
        <ele>479.0</ele>
        <time>2018-10-03T09:09:33.000Z</time>
      </trkpt>
      <trkpt lat="42.46269333" lon="-7.96439833">
        <ele>479.0</ele>
        <time>2018-10-03T09:09:34.000Z</time>
      </trkpt>
      <trkpt lat="42.46269667" lon="-7.964415">
        <ele>479.0</ele>
        <time>2018-10-03T09:09:35.000Z</time>
      </trkpt>
      <trkpt lat="42.46269833" lon="-7.96443333">
        <ele>479.0</ele>
        <time>2018-10-03T09:09:36.000Z</time>
      </trkpt>
      <trkpt lat="42.46270167" lon="-7.96445167">
        <ele>479.0</ele>
        <time>2018-10-03T09:09:37.000Z</time>
      </trkpt>
      <trkpt lat="42.46270333" lon="-7.96446833">
        <ele>479.0</ele>
        <time>2018-10-03T09:09:38.000Z</time>
      </trkpt>
      <trkpt lat="42.46270667" lon="-7.964485">
        <ele>479.0</ele>
        <time>2018-10-03T09:09:39.000Z</time>
      </trkpt>
      <trkpt lat="42.46270833" lon="-7.96450333">
        <ele>480.0</ele>
        <time>2018-10-03T09:09:40.000Z</time>
      </trkpt>
      <trkpt lat="42.46271167" lon="-7.96452">
        <ele>480.0</ele>
        <time>2018-10-03T09:09:41.000Z</time>
      </trkpt>
      <trkpt lat="42.462715" lon="-7.964535">
        <ele>480.0</ele>
        <time>2018-10-03T09:09:42.000Z</time>
      </trkpt>
      <trkpt lat="42.46271833" lon="-7.96455167">
        <ele>480.0</ele>
        <time>2018-10-03T09:09:43.000Z</time>
      </trkpt>
      <trkpt lat="42.46272167" lon="-7.96456667">
        <ele>480.0</ele>
        <time>2018-10-03T09:09:44.000Z</time>
      </trkpt>
      <trkpt lat="42.46272333" lon="-7.96458167">
        <ele>480.0</ele>
        <time>2018-10-03T09:09:45.000Z</time>
      </trkpt>
      <trkpt lat="42.46272833" lon="-7.96459667">
        <ele>480.0</ele>
        <time>2018-10-03T09:09:46.000Z</time>
      </trkpt>
      <trkpt lat="42.46273167" lon="-7.96461167">
        <ele>481.0</ele>
        <time>2018-10-03T09:09:47.000Z</time>
      </trkpt>
      <trkpt lat="42.46273667" lon="-7.96462667">
        <ele>481.0</ele>
        <time>2018-10-03T09:09:48.000Z</time>
      </trkpt>
      <trkpt lat="42.46274" lon="-7.96464333">
        <ele>481.0</ele>
        <time>2018-10-03T09:09:49.000Z</time>
      </trkpt>
      <trkpt lat="42.46274333" lon="-7.96465667">
        <ele>481.0</ele>
        <time>2018-10-03T09:09:50.000Z</time>
      </trkpt>
      <trkpt lat="42.462745" lon="-7.96467">
        <ele>481.0</ele>
        <time>2018-10-03T09:09:51.000Z</time>
      </trkpt>
      <trkpt lat="42.46274833" lon="-7.96468333">
        <ele>481.0</ele>
        <time>2018-10-03T09:09:52.000Z</time>
      </trkpt>
      <trkpt lat="42.46275" lon="-7.964695">
        <ele>482.0</ele>
        <time>2018-10-03T09:09:53.000Z</time>
      </trkpt>
      <trkpt lat="42.46275333" lon="-7.96471167">
        <ele>482.0</ele>
        <time>2018-10-03T09:09:54.000Z</time>
      </trkpt>
      <trkpt lat="42.46275333" lon="-7.96472833">
        <ele>482.0</ele>
        <time>2018-10-03T09:09:55.000Z</time>
      </trkpt>
      <trkpt lat="42.462755" lon="-7.96474333">
        <ele>482.0</ele>
        <time>2018-10-03T09:09:56.000Z</time>
      </trkpt>
      <trkpt lat="42.46275667" lon="-7.96475667">
        <ele>482.0</ele>
        <time>2018-10-03T09:09:57.000Z</time>
      </trkpt>
      <trkpt lat="42.46276167" lon="-7.96476833">
        <ele>483.0</ele>
        <time>2018-10-03T09:09:58.000Z</time>
      </trkpt>
      <trkpt lat="42.46276667" lon="-7.96477833">
        <ele>483.0</ele>
        <time>2018-10-03T09:09:59.000Z</time>
      </trkpt>
      <trkpt lat="42.46277167" lon="-7.96478667">
        <ele>483.0</ele>
        <time>2018-10-03T09:10:00.000Z</time>
      </trkpt>
      <trkpt lat="42.462775" lon="-7.96479833">
        <ele>483.0</ele>
        <time>2018-10-03T09:10:01.000Z</time>
      </trkpt>
      <trkpt lat="42.46278" lon="-7.96481">
        <ele>484.0</ele>
        <time>2018-10-03T09:10:02.000Z</time>
      </trkpt>
      <trkpt lat="42.46278333" lon="-7.96482333">
        <ele>484.0</ele>
        <time>2018-10-03T09:10:03.000Z</time>
      </trkpt>
      <trkpt lat="42.46279" lon="-7.964835">
        <ele>484.0</ele>
        <time>2018-10-03T09:10:04.000Z</time>
      </trkpt>
      <trkpt lat="42.46279333" lon="-7.96485">
        <ele>484.0</ele>
        <time>2018-10-03T09:10:05.000Z</time>
      </trkpt>
      <trkpt lat="42.462795" lon="-7.964865">
        <ele>484.0</ele>
        <time>2018-10-03T09:10:06.000Z</time>
      </trkpt>
      <trkpt lat="42.46279833" lon="-7.96488333">
        <ele>484.0</ele>
        <time>2018-10-03T09:10:07.000Z</time>
      </trkpt>
      <trkpt lat="42.4628" lon="-7.96490167">
        <ele>485.0</ele>
        <time>2018-10-03T09:10:08.000Z</time>
      </trkpt>
      <trkpt lat="42.46280667" lon="-7.96492">
        <ele>485.0</ele>
        <time>2018-10-03T09:10:09.000Z</time>
      </trkpt>
      <trkpt lat="42.46281167" lon="-7.964935">
        <ele>485.0</ele>
        <time>2018-10-03T09:10:10.000Z</time>
      </trkpt>
      <trkpt lat="42.46281667" lon="-7.96495">
        <ele>485.0</ele>
        <time>2018-10-03T09:10:11.000Z</time>
      </trkpt>
      <trkpt lat="42.46282167" lon="-7.96496167">
        <ele>486.0</ele>
        <time>2018-10-03T09:10:12.000Z</time>
      </trkpt>
      <trkpt lat="42.462825" lon="-7.964975">
        <ele>486.0</ele>
        <time>2018-10-03T09:10:13.000Z</time>
      </trkpt>
      <trkpt lat="42.46282667" lon="-7.96499">
        <ele>486.0</ele>
        <time>2018-10-03T09:10:14.000Z</time>
      </trkpt>
      <trkpt lat="42.46282833" lon="-7.96500667">
        <ele>486.0</ele>
        <time>2018-10-03T09:10:15.000Z</time>
      </trkpt>
      <trkpt lat="42.46283167" lon="-7.965025">
        <ele>486.0</ele>
        <time>2018-10-03T09:10:16.000Z</time>
      </trkpt>
      <trkpt lat="42.462835" lon="-7.96504333">
        <ele>486.0</ele>
        <time>2018-10-03T09:10:17.000Z</time>
      </trkpt>
      <trkpt lat="42.46283667" lon="-7.96506">
        <ele>486.0</ele>
        <time>2018-10-03T09:10:18.000Z</time>
      </trkpt>
      <trkpt lat="42.46283833" lon="-7.965075">
        <ele>486.0</ele>
        <time>2018-10-03T09:10:19.000Z</time>
      </trkpt>
      <trkpt lat="42.46284" lon="-7.965095">
        <ele>487.0</ele>
        <time>2018-10-03T09:10:20.000Z</time>
      </trkpt>
      <trkpt lat="42.46284333" lon="-7.96511167">
        <ele>487.0</ele>
        <time>2018-10-03T09:10:21.000Z</time>
      </trkpt>
      <trkpt lat="42.46284833" lon="-7.96512833">
        <ele>487.0</ele>
        <time>2018-10-03T09:10:22.000Z</time>
      </trkpt>
      <trkpt lat="42.46285333" lon="-7.965145">
        <ele>487.0</ele>
        <time>2018-10-03T09:10:23.000Z</time>
      </trkpt>
      <trkpt lat="42.46285833" lon="-7.96516">
        <ele>487.0</ele>
        <time>2018-10-03T09:10:24.000Z</time>
      </trkpt>
      <trkpt lat="42.46286167" lon="-7.965175">
        <ele>487.0</ele>
        <time>2018-10-03T09:10:25.000Z</time>
      </trkpt>
      <trkpt lat="42.462865" lon="-7.96519167">
        <ele>488.0</ele>
        <time>2018-10-03T09:10:26.000Z</time>
      </trkpt>
      <trkpt lat="42.46286833" lon="-7.96520833">
        <ele>488.0</ele>
        <time>2018-10-03T09:10:27.000Z</time>
      </trkpt>
      <trkpt lat="42.46287167" lon="-7.96522333">
        <ele>488.0</ele>
        <time>2018-10-03T09:10:28.000Z</time>
      </trkpt>
      <trkpt lat="42.462875" lon="-7.96524">
        <ele>488.0</ele>
        <time>2018-10-03T09:10:29.000Z</time>
      </trkpt>
      <trkpt lat="42.46288" lon="-7.96526">
        <ele>488.0</ele>
        <time>2018-10-03T09:10:30.000Z</time>
      </trkpt>
      <trkpt lat="42.46288333" lon="-7.96528">
        <ele>488.0</ele>
        <time>2018-10-03T09:10:31.000Z</time>
      </trkpt>
      <trkpt lat="42.46288667" lon="-7.96530167">
        <ele>488.0</ele>
        <time>2018-10-03T09:10:32.000Z</time>
      </trkpt>
      <trkpt lat="42.46289167" lon="-7.96532">
        <ele>488.0</ele>
        <time>2018-10-03T09:10:33.000Z</time>
      </trkpt>
      <trkpt lat="42.46289833" lon="-7.96533833">
        <ele>488.0</ele>
        <time>2018-10-03T09:10:34.000Z</time>
      </trkpt>
      <trkpt lat="42.46290333" lon="-7.96535333">
        <ele>488.0</ele>
        <time>2018-10-03T09:10:35.000Z</time>
      </trkpt>
      <trkpt lat="42.46290667" lon="-7.96536833">
        <ele>488.0</ele>
        <time>2018-10-03T09:10:36.000Z</time>
      </trkpt>
      <trkpt lat="42.46291167" lon="-7.965385">
        <ele>488.0</ele>
        <time>2018-10-03T09:10:37.000Z</time>
      </trkpt>
      <trkpt lat="42.46291667" lon="-7.96539667">
        <ele>489.0</ele>
        <time>2018-10-03T09:10:38.000Z</time>
      </trkpt>
      <trkpt lat="42.46292167" lon="-7.96540667">
        <ele>489.0</ele>
        <time>2018-10-03T09:10:39.000Z</time>
      </trkpt>
      <trkpt lat="42.462925" lon="-7.96541833">
        <ele>489.0</ele>
        <time>2018-10-03T09:10:40.000Z</time>
      </trkpt>
      <trkpt lat="42.46293" lon="-7.96543">
        <ele>489.0</ele>
        <time>2018-10-03T09:10:41.000Z</time>
      </trkpt>
      <trkpt lat="42.46293167" lon="-7.96544167">
        <ele>489.0</ele>
        <time>2018-10-03T09:10:42.000Z</time>
      </trkpt>
      <trkpt lat="42.462935" lon="-7.965455">
        <ele>489.0</ele>
        <time>2018-10-03T09:10:43.000Z</time>
      </trkpt>
      <trkpt lat="42.46293667" lon="-7.96546667">
        <ele>489.0</ele>
        <time>2018-10-03T09:10:44.000Z</time>
      </trkpt>
      <trkpt lat="42.46294167" lon="-7.965485">
        <ele>489.0</ele>
        <time>2018-10-03T09:10:45.000Z</time>
      </trkpt>
      <trkpt lat="42.46294667" lon="-7.96550333">
        <ele>489.0</ele>
        <time>2018-10-03T09:10:46.000Z</time>
      </trkpt>
      <trkpt lat="42.46295333" lon="-7.96552167">
        <ele>489.0</ele>
        <time>2018-10-03T09:10:47.000Z</time>
      </trkpt>
      <trkpt lat="42.46295833" lon="-7.96554">
        <ele>489.0</ele>
        <time>2018-10-03T09:10:48.000Z</time>
      </trkpt>
      <trkpt lat="42.462965" lon="-7.96555833">
        <ele>489.0</ele>
        <time>2018-10-03T09:10:49.000Z</time>
      </trkpt>
      <trkpt lat="42.46297" lon="-7.96558">
        <ele>489.0</ele>
        <time>2018-10-03T09:10:50.000Z</time>
      </trkpt>
      <trkpt lat="42.46297667" lon="-7.9656">
        <ele>489.0</ele>
        <time>2018-10-03T09:10:51.000Z</time>
      </trkpt>
      <trkpt lat="42.46298167" lon="-7.96562">
        <ele>489.0</ele>
        <time>2018-10-03T09:10:52.000Z</time>
      </trkpt>
      <trkpt lat="42.46298833" lon="-7.96564167">
        <ele>489.0</ele>
        <time>2018-10-03T09:10:53.000Z</time>
      </trkpt>
      <trkpt lat="42.46299667" lon="-7.96565833">
        <ele>489.0</ele>
        <time>2018-10-03T09:10:54.000Z</time>
      </trkpt>
      <trkpt lat="42.46300333" lon="-7.96567667">
        <ele>489.0</ele>
        <time>2018-10-03T09:10:55.000Z</time>
      </trkpt>
      <trkpt lat="42.46301" lon="-7.96569333">
        <ele>488.0</ele>
        <time>2018-10-03T09:10:56.000Z</time>
      </trkpt>
      <trkpt lat="42.463015" lon="-7.96571333">
        <ele>488.0</ele>
        <time>2018-10-03T09:10:57.000Z</time>
      </trkpt>
      <trkpt lat="42.46302" lon="-7.96573333">
        <ele>488.0</ele>
        <time>2018-10-03T09:10:58.000Z</time>
      </trkpt>
      <trkpt lat="42.46302333" lon="-7.96575333">
        <ele>488.0</ele>
        <time>2018-10-03T09:10:59.000Z</time>
      </trkpt>
      <trkpt lat="42.46302833" lon="-7.965775">
        <ele>488.0</ele>
        <time>2018-10-03T09:11:00.000Z</time>
      </trkpt>
      <trkpt lat="42.46303333" lon="-7.965795">
        <ele>488.0</ele>
        <time>2018-10-03T09:11:01.000Z</time>
      </trkpt>
      <trkpt lat="42.46303833" lon="-7.96581833">
        <ele>489.0</ele>
        <time>2018-10-03T09:11:02.000Z</time>
      </trkpt>
      <trkpt lat="42.46304333" lon="-7.96583833">
        <ele>489.0</ele>
        <time>2018-10-03T09:11:03.000Z</time>
      </trkpt>
      <trkpt lat="42.46304833" lon="-7.96585833">
        <ele>489.0</ele>
        <time>2018-10-03T09:11:04.000Z</time>
      </trkpt>
      <trkpt lat="42.463055" lon="-7.96587833">
        <ele>489.0</ele>
        <time>2018-10-03T09:11:05.000Z</time>
      </trkpt>
      <trkpt lat="42.46306" lon="-7.96589667">
        <ele>489.0</ele>
        <time>2018-10-03T09:11:06.000Z</time>
      </trkpt>
      <trkpt lat="42.46306333" lon="-7.96591">
        <ele>489.0</ele>
        <time>2018-10-03T09:11:07.000Z</time>
      </trkpt>
      <trkpt lat="42.46306667" lon="-7.96592333">
        <ele>489.0</ele>
        <time>2018-10-03T09:11:08.000Z</time>
      </trkpt>
      <trkpt lat="42.46307167" lon="-7.96594">
        <ele>489.0</ele>
        <time>2018-10-03T09:11:09.000Z</time>
      </trkpt>
      <trkpt lat="42.463075" lon="-7.96595833">
        <ele>490.0</ele>
        <time>2018-10-03T09:11:10.000Z</time>
      </trkpt>
      <trkpt lat="42.46308" lon="-7.965975">
        <ele>490.0</ele>
        <time>2018-10-03T09:11:11.000Z</time>
      </trkpt>
      <trkpt lat="42.46308667" lon="-7.96599333">
        <ele>490.0</ele>
        <time>2018-10-03T09:11:12.000Z</time>
      </trkpt>
      <trkpt lat="42.46309333" lon="-7.96601">
        <ele>490.0</ele>
        <time>2018-10-03T09:11:13.000Z</time>
      </trkpt>
      <trkpt lat="42.46310167" lon="-7.96602667">
        <ele>490.0</ele>
        <time>2018-10-03T09:11:14.000Z</time>
      </trkpt>
      <trkpt lat="42.46310833" lon="-7.96604333">
        <ele>490.0</ele>
        <time>2018-10-03T09:11:15.000Z</time>
      </trkpt>
      <trkpt lat="42.46311667" lon="-7.96605833">
        <ele>491.0</ele>
        <time>2018-10-03T09:11:16.000Z</time>
      </trkpt>
      <trkpt lat="42.463125" lon="-7.96607333">
        <ele>491.0</ele>
        <time>2018-10-03T09:11:17.000Z</time>
      </trkpt>
      <trkpt lat="42.46313167" lon="-7.96608833">
        <ele>491.0</ele>
        <time>2018-10-03T09:11:18.000Z</time>
      </trkpt>
      <trkpt lat="42.46313667" lon="-7.966105">
        <ele>491.0</ele>
        <time>2018-10-03T09:11:19.000Z</time>
      </trkpt>
      <trkpt lat="42.46314333" lon="-7.96612167">
        <ele>491.0</ele>
        <time>2018-10-03T09:11:20.000Z</time>
      </trkpt>
      <trkpt lat="42.46315" lon="-7.96613833">
        <ele>491.0</ele>
        <time>2018-10-03T09:11:21.000Z</time>
      </trkpt>
      <trkpt lat="42.46315667" lon="-7.966155">
        <ele>491.0</ele>
        <time>2018-10-03T09:11:22.000Z</time>
      </trkpt>
      <trkpt lat="42.46316333" lon="-7.966175">
        <ele>492.0</ele>
        <time>2018-10-03T09:11:23.000Z</time>
      </trkpt>
      <trkpt lat="42.46316667" lon="-7.96619167">
        <ele>492.0</ele>
        <time>2018-10-03T09:11:24.000Z</time>
      </trkpt>
      <trkpt lat="42.46317167" lon="-7.96620667">
        <ele>492.0</ele>
        <time>2018-10-03T09:11:25.000Z</time>
      </trkpt>
      <trkpt lat="42.463175" lon="-7.96621833">
        <ele>492.0</ele>
        <time>2018-10-03T09:11:26.000Z</time>
      </trkpt>
      <trkpt lat="42.46317833" lon="-7.96623">
        <ele>492.0</ele>
        <time>2018-10-03T09:11:27.000Z</time>
      </trkpt>
      <trkpt lat="42.46318333" lon="-7.966245">
        <ele>492.0</ele>
        <time>2018-10-03T09:11:28.000Z</time>
      </trkpt>
      <trkpt lat="42.46319" lon="-7.96626167">
        <ele>492.0</ele>
        <time>2018-10-03T09:11:29.000Z</time>
      </trkpt>
      <trkpt lat="42.4632" lon="-7.96627667">
        <ele>492.0</ele>
        <time>2018-10-03T09:11:30.000Z</time>
      </trkpt>
      <trkpt lat="42.46320833" lon="-7.96629167">
        <ele>492.0</ele>
        <time>2018-10-03T09:11:31.000Z</time>
      </trkpt>
      <trkpt lat="42.46321667" lon="-7.96630667">
        <ele>492.0</ele>
        <time>2018-10-03T09:11:32.000Z</time>
      </trkpt>
      <trkpt lat="42.46322667" lon="-7.96632167">
        <ele>492.0</ele>
        <time>2018-10-03T09:11:33.000Z</time>
      </trkpt>
      <trkpt lat="42.463235" lon="-7.96633833">
        <ele>492.0</ele>
        <time>2018-10-03T09:11:34.000Z</time>
      </trkpt>
      <trkpt lat="42.46324333" lon="-7.96635333">
        <ele>492.0</ele>
        <time>2018-10-03T09:11:35.000Z</time>
      </trkpt>
      <trkpt lat="42.46325167" lon="-7.96637">
        <ele>492.0</ele>
        <time>2018-10-03T09:11:36.000Z</time>
      </trkpt>
      <trkpt lat="42.46325833" lon="-7.966385">
        <ele>492.0</ele>
        <time>2018-10-03T09:11:37.000Z</time>
      </trkpt>
      <trkpt lat="42.46326667" lon="-7.96640167">
        <ele>492.0</ele>
        <time>2018-10-03T09:11:38.000Z</time>
      </trkpt>
      <trkpt lat="42.46327333" lon="-7.966415">
        <ele>492.0</ele>
        <time>2018-10-03T09:11:39.000Z</time>
      </trkpt>
      <trkpt lat="42.46328" lon="-7.96642833">
        <ele>493.0</ele>
        <time>2018-10-03T09:11:40.000Z</time>
      </trkpt>
      <trkpt lat="42.46328667" lon="-7.96644333">
        <ele>493.0</ele>
        <time>2018-10-03T09:11:41.000Z</time>
      </trkpt>
      <trkpt lat="42.46329667" lon="-7.96646">
        <ele>493.0</ele>
        <time>2018-10-03T09:11:42.000Z</time>
      </trkpt>
      <trkpt lat="42.463305" lon="-7.966475">
        <ele>493.0</ele>
        <time>2018-10-03T09:11:43.000Z</time>
      </trkpt>
      <trkpt lat="42.46331167" lon="-7.96649">
        <ele>493.0</ele>
        <time>2018-10-03T09:11:44.000Z</time>
      </trkpt>
      <trkpt lat="42.46332" lon="-7.96650667">
        <ele>493.0</ele>
        <time>2018-10-03T09:11:45.000Z</time>
      </trkpt>
      <trkpt lat="42.46333" lon="-7.96652333">
        <ele>493.0</ele>
        <time>2018-10-03T09:11:46.000Z</time>
      </trkpt>
      <trkpt lat="42.46334" lon="-7.96654">
        <ele>493.0</ele>
        <time>2018-10-03T09:11:47.000Z</time>
      </trkpt>
      <trkpt lat="42.46335" lon="-7.96655833">
        <ele>493.0</ele>
        <time>2018-10-03T09:11:48.000Z</time>
      </trkpt>
      <trkpt lat="42.46335833" lon="-7.96657167">
        <ele>493.0</ele>
        <time>2018-10-03T09:11:49.000Z</time>
      </trkpt>
      <trkpt lat="42.46337" lon="-7.96658833">
        <ele>493.0</ele>
        <time>2018-10-03T09:11:50.000Z</time>
      </trkpt>
      <trkpt lat="42.46338" lon="-7.96660333">
        <ele>493.0</ele>
        <time>2018-10-03T09:11:51.000Z</time>
      </trkpt>
      <trkpt lat="42.46338667" lon="-7.96661667">
        <ele>493.0</ele>
        <time>2018-10-03T09:11:52.000Z</time>
      </trkpt>
      <trkpt lat="42.46339333" lon="-7.96663167">
        <ele>493.0</ele>
        <time>2018-10-03T09:11:53.000Z</time>
      </trkpt>
      <trkpt lat="42.46340333" lon="-7.96664667">
        <ele>493.0</ele>
        <time>2018-10-03T09:11:54.000Z</time>
      </trkpt>
      <trkpt lat="42.46341167" lon="-7.96666333">
        <ele>493.0</ele>
        <time>2018-10-03T09:11:55.000Z</time>
      </trkpt>
      <trkpt lat="42.46342167" lon="-7.96667667">
        <ele>493.0</ele>
        <time>2018-10-03T09:11:56.000Z</time>
      </trkpt>
      <trkpt lat="42.46343" lon="-7.96669">
        <ele>493.0</ele>
        <time>2018-10-03T09:11:57.000Z</time>
      </trkpt>
      <trkpt lat="42.46343667" lon="-7.96670333">
        <ele>493.0</ele>
        <time>2018-10-03T09:11:58.000Z</time>
      </trkpt>
      <trkpt lat="42.46344333" lon="-7.96671667">
        <ele>493.0</ele>
        <time>2018-10-03T09:11:59.000Z</time>
      </trkpt>
      <trkpt lat="42.46345167" lon="-7.96673333">
        <ele>493.0</ele>
        <time>2018-10-03T09:12:00.000Z</time>
      </trkpt>
      <trkpt lat="42.46345833" lon="-7.96674833">
        <ele>493.0</ele>
        <time>2018-10-03T09:12:01.000Z</time>
      </trkpt>
      <trkpt lat="42.46346833" lon="-7.96676333">
        <ele>493.0</ele>
        <time>2018-10-03T09:12:02.000Z</time>
      </trkpt>
      <trkpt lat="42.46347667" lon="-7.96677833">
        <ele>493.0</ele>
        <time>2018-10-03T09:12:03.000Z</time>
      </trkpt>
      <trkpt lat="42.46348667" lon="-7.96679167">
        <ele>493.0</ele>
        <time>2018-10-03T09:12:04.000Z</time>
      </trkpt>
      <trkpt lat="42.463495" lon="-7.96680833">
        <ele>492.0</ele>
        <time>2018-10-03T09:12:05.000Z</time>
      </trkpt>
      <trkpt lat="42.463505" lon="-7.96682333">
        <ele>492.0</ele>
        <time>2018-10-03T09:12:06.000Z</time>
      </trkpt>
      <trkpt lat="42.46351333" lon="-7.96683667">
        <ele>492.0</ele>
        <time>2018-10-03T09:12:07.000Z</time>
      </trkpt>
      <trkpt lat="42.46351833" lon="-7.96685167">
        <ele>492.0</ele>
        <time>2018-10-03T09:12:08.000Z</time>
      </trkpt>
      <trkpt lat="42.463525" lon="-7.96686833">
        <ele>492.0</ele>
        <time>2018-10-03T09:12:09.000Z</time>
      </trkpt>
      <trkpt lat="42.46353167" lon="-7.96688167">
        <ele>492.0</ele>
        <time>2018-10-03T09:12:10.000Z</time>
      </trkpt>
      <trkpt lat="42.46353667" lon="-7.96689833">
        <ele>492.0</ele>
        <time>2018-10-03T09:12:11.000Z</time>
      </trkpt>
      <trkpt lat="42.46354333" lon="-7.966915">
        <ele>492.0</ele>
        <time>2018-10-03T09:12:12.000Z</time>
      </trkpt>
      <trkpt lat="42.46355" lon="-7.96693167">
        <ele>492.0</ele>
        <time>2018-10-03T09:12:13.000Z</time>
      </trkpt>
      <trkpt lat="42.46355833" lon="-7.96694833">
        <ele>492.0</ele>
        <time>2018-10-03T09:12:14.000Z</time>
      </trkpt>
      <trkpt lat="42.463565" lon="-7.96696333">
        <ele>492.0</ele>
        <time>2018-10-03T09:12:15.000Z</time>
      </trkpt>
      <trkpt lat="42.46357" lon="-7.96698167">
        <ele>492.0</ele>
        <time>2018-10-03T09:12:16.000Z</time>
      </trkpt>
      <trkpt lat="42.46357667" lon="-7.967">
        <ele>492.0</ele>
        <time>2018-10-03T09:12:17.000Z</time>
      </trkpt>
      <trkpt lat="42.46358333" lon="-7.96701833">
        <ele>492.0</ele>
        <time>2018-10-03T09:12:18.000Z</time>
      </trkpt>
      <trkpt lat="42.463585" lon="-7.96703667">
        <ele>492.0</ele>
        <time>2018-10-03T09:12:19.000Z</time>
      </trkpt>
      <trkpt lat="42.46359167" lon="-7.967055">
        <ele>492.0</ele>
        <time>2018-10-03T09:12:20.000Z</time>
      </trkpt>
      <trkpt lat="42.46359833" lon="-7.96707333">
        <ele>492.0</ele>
        <time>2018-10-03T09:12:21.000Z</time>
      </trkpt>
      <trkpt lat="42.46360333" lon="-7.96709333">
        <ele>492.0</ele>
        <time>2018-10-03T09:12:22.000Z</time>
      </trkpt>
      <trkpt lat="42.46361" lon="-7.96711167">
        <ele>492.0</ele>
        <time>2018-10-03T09:12:23.000Z</time>
      </trkpt>
      <trkpt lat="42.463615" lon="-7.96713167">
        <ele>492.0</ele>
        <time>2018-10-03T09:12:24.000Z</time>
      </trkpt>
      <trkpt lat="42.46362167" lon="-7.96715">
        <ele>492.0</ele>
        <time>2018-10-03T09:12:25.000Z</time>
      </trkpt>
      <trkpt lat="42.46363" lon="-7.96717">
        <ele>492.0</ele>
        <time>2018-10-03T09:12:26.000Z</time>
      </trkpt>
      <trkpt lat="42.46363667" lon="-7.96719">
        <ele>492.0</ele>
        <time>2018-10-03T09:12:27.000Z</time>
      </trkpt>
      <trkpt lat="42.46364167" lon="-7.96721">
        <ele>492.0</ele>
        <time>2018-10-03T09:12:28.000Z</time>
      </trkpt>
      <trkpt lat="42.46364833" lon="-7.96723">
        <ele>493.0</ele>
        <time>2018-10-03T09:12:29.000Z</time>
      </trkpt>
      <trkpt lat="42.46365333" lon="-7.96724833">
        <ele>493.0</ele>
        <time>2018-10-03T09:12:30.000Z</time>
      </trkpt>
      <trkpt lat="42.46366" lon="-7.96726667">
        <ele>493.0</ele>
        <time>2018-10-03T09:12:31.000Z</time>
      </trkpt>
      <trkpt lat="42.463665" lon="-7.967285">
        <ele>493.0</ele>
        <time>2018-10-03T09:12:32.000Z</time>
      </trkpt>
      <trkpt lat="42.46367" lon="-7.96730167">
        <ele>493.0</ele>
        <time>2018-10-03T09:12:33.000Z</time>
      </trkpt>
      <trkpt lat="42.463675" lon="-7.96731833">
        <ele>493.0</ele>
        <time>2018-10-03T09:12:34.000Z</time>
      </trkpt>
      <trkpt lat="42.46368" lon="-7.96733833">
        <ele>493.0</ele>
        <time>2018-10-03T09:12:35.000Z</time>
      </trkpt>
      <trkpt lat="42.463685" lon="-7.96735333">
        <ele>493.0</ele>
        <time>2018-10-03T09:12:36.000Z</time>
      </trkpt>
      <trkpt lat="42.46369" lon="-7.96737">
        <ele>493.0</ele>
        <time>2018-10-03T09:12:37.000Z</time>
      </trkpt>
      <trkpt lat="42.46369333" lon="-7.96739">
        <ele>493.0</ele>
        <time>2018-10-03T09:12:38.000Z</time>
      </trkpt>
      <trkpt lat="42.46369667" lon="-7.96740833">
        <ele>493.0</ele>
        <time>2018-10-03T09:12:39.000Z</time>
      </trkpt>
      <trkpt lat="42.46370167" lon="-7.967425">
        <ele>493.0</ele>
        <time>2018-10-03T09:12:40.000Z</time>
      </trkpt>
      <trkpt lat="42.463705" lon="-7.96744667">
        <ele>493.0</ele>
        <time>2018-10-03T09:12:41.000Z</time>
      </trkpt>
      <trkpt lat="42.46371" lon="-7.96746667">
        <ele>493.0</ele>
        <time>2018-10-03T09:12:42.000Z</time>
      </trkpt>
      <trkpt lat="42.46371333" lon="-7.96748667">
        <ele>493.0</ele>
        <time>2018-10-03T09:12:43.000Z</time>
      </trkpt>
      <trkpt lat="42.46371833" lon="-7.96751">
        <ele>493.0</ele>
        <time>2018-10-03T09:12:44.000Z</time>
      </trkpt>
      <trkpt lat="42.46372333" lon="-7.96753333">
        <ele>493.0</ele>
        <time>2018-10-03T09:12:45.000Z</time>
      </trkpt>
      <trkpt lat="42.46372667" lon="-7.96755333">
        <ele>493.0</ele>
        <time>2018-10-03T09:12:46.000Z</time>
      </trkpt>
      <trkpt lat="42.46373167" lon="-7.96757167">
        <ele>493.0</ele>
        <time>2018-10-03T09:12:47.000Z</time>
      </trkpt>
      <trkpt lat="42.46373667" lon="-7.96758833">
        <ele>493.0</ele>
        <time>2018-10-03T09:12:48.000Z</time>
      </trkpt>
      <trkpt lat="42.46374167" lon="-7.96760667">
        <ele>493.0</ele>
        <time>2018-10-03T09:12:49.000Z</time>
      </trkpt>
      <trkpt lat="42.46374667" lon="-7.967625">
        <ele>493.0</ele>
        <time>2018-10-03T09:12:50.000Z</time>
      </trkpt>
      <trkpt lat="42.46375" lon="-7.96764333">
        <ele>493.0</ele>
        <time>2018-10-03T09:12:51.000Z</time>
      </trkpt>
      <trkpt lat="42.46375" lon="-7.96766167">
        <ele>493.0</ele>
        <time>2018-10-03T09:12:52.000Z</time>
      </trkpt>
      <trkpt lat="42.46374833" lon="-7.96768">
        <ele>493.0</ele>
        <time>2018-10-03T09:12:53.000Z</time>
      </trkpt>
      <trkpt lat="42.46374667" lon="-7.96770167">
        <ele>493.0</ele>
        <time>2018-10-03T09:12:54.000Z</time>
      </trkpt>
      <trkpt lat="42.46374833" lon="-7.96772167">
        <ele>493.0</ele>
        <time>2018-10-03T09:12:55.000Z</time>
      </trkpt>
      <trkpt lat="42.46375" lon="-7.96774167">
        <ele>493.0</ele>
        <time>2018-10-03T09:12:56.000Z</time>
      </trkpt>
      <trkpt lat="42.46375333" lon="-7.96776333">
        <ele>493.0</ele>
        <time>2018-10-03T09:12:57.000Z</time>
      </trkpt>
      <trkpt lat="42.46375833" lon="-7.96778333">
        <ele>493.0</ele>
        <time>2018-10-03T09:12:58.000Z</time>
      </trkpt>
      <trkpt lat="42.46376333" lon="-7.96780333">
        <ele>493.0</ele>
        <time>2018-10-03T09:12:59.000Z</time>
      </trkpt>
      <trkpt lat="42.46377" lon="-7.96782167">
        <ele>493.0</ele>
        <time>2018-10-03T09:13:00.000Z</time>
      </trkpt>
      <trkpt lat="42.46377667" lon="-7.96784">
        <ele>493.0</ele>
        <time>2018-10-03T09:13:01.000Z</time>
      </trkpt>
      <trkpt lat="42.46378333" lon="-7.96785833">
        <ele>493.0</ele>
        <time>2018-10-03T09:13:02.000Z</time>
      </trkpt>
      <trkpt lat="42.46379" lon="-7.96787667">
        <ele>493.0</ele>
        <time>2018-10-03T09:13:03.000Z</time>
      </trkpt>
      <trkpt lat="42.46379667" lon="-7.96789667">
        <ele>493.0</ele>
        <time>2018-10-03T09:13:04.000Z</time>
      </trkpt>
      <trkpt lat="42.463805" lon="-7.967915">
        <ele>493.0</ele>
        <time>2018-10-03T09:13:05.000Z</time>
      </trkpt>
      <trkpt lat="42.46381333" lon="-7.96793333">
        <ele>493.0</ele>
        <time>2018-10-03T09:13:06.000Z</time>
      </trkpt>
      <trkpt lat="42.46382167" lon="-7.96795167">
        <ele>493.0</ele>
        <time>2018-10-03T09:13:07.000Z</time>
      </trkpt>
      <trkpt lat="42.46383167" lon="-7.96796833">
        <ele>493.0</ele>
        <time>2018-10-03T09:13:08.000Z</time>
      </trkpt>
      <trkpt lat="42.46384" lon="-7.967985">
        <ele>493.0</ele>
        <time>2018-10-03T09:13:09.000Z</time>
      </trkpt>
      <trkpt lat="42.46384833" lon="-7.96800167">
        <ele>494.0</ele>
        <time>2018-10-03T09:13:10.000Z</time>
      </trkpt>
      <trkpt lat="42.46385667" lon="-7.96801667">
        <ele>494.0</ele>
        <time>2018-10-03T09:13:11.000Z</time>
      </trkpt>
      <trkpt lat="42.463865" lon="-7.96803333">
        <ele>494.0</ele>
        <time>2018-10-03T09:13:12.000Z</time>
      </trkpt>
      <trkpt lat="42.463875" lon="-7.96805">
        <ele>494.0</ele>
        <time>2018-10-03T09:13:13.000Z</time>
      </trkpt>
      <trkpt lat="42.46388167" lon="-7.968065">
        <ele>494.0</ele>
        <time>2018-10-03T09:13:14.000Z</time>
      </trkpt>
      <trkpt lat="42.46388833" lon="-7.96808">
        <ele>494.0</ele>
        <time>2018-10-03T09:13:15.000Z</time>
      </trkpt>
      <trkpt lat="42.46389667" lon="-7.968095">
        <ele>494.0</ele>
        <time>2018-10-03T09:13:16.000Z</time>
      </trkpt>
      <trkpt lat="42.46390333" lon="-7.96811">
        <ele>494.0</ele>
        <time>2018-10-03T09:13:17.000Z</time>
      </trkpt>
      <trkpt lat="42.46391167" lon="-7.96812667">
        <ele>494.0</ele>
        <time>2018-10-03T09:13:18.000Z</time>
      </trkpt>
      <trkpt lat="42.46391833" lon="-7.96814167">
        <ele>494.0</ele>
        <time>2018-10-03T09:13:19.000Z</time>
      </trkpt>
      <trkpt lat="42.463925" lon="-7.96815833">
        <ele>494.0</ele>
        <time>2018-10-03T09:13:20.000Z</time>
      </trkpt>
      <trkpt lat="42.46393167" lon="-7.968175">
        <ele>494.0</ele>
        <time>2018-10-03T09:13:21.000Z</time>
      </trkpt>
      <trkpt lat="42.46393667" lon="-7.96819167">
        <ele>494.0</ele>
        <time>2018-10-03T09:13:22.000Z</time>
      </trkpt>
      <trkpt lat="42.463945" lon="-7.96820667">
        <ele>494.0</ele>
        <time>2018-10-03T09:13:23.000Z</time>
      </trkpt>
      <trkpt lat="42.46395167" lon="-7.96822167">
        <ele>494.0</ele>
        <time>2018-10-03T09:13:24.000Z</time>
      </trkpt>
      <trkpt lat="42.46396" lon="-7.96823833">
        <ele>495.0</ele>
        <time>2018-10-03T09:13:25.000Z</time>
      </trkpt>
      <trkpt lat="42.46396667" lon="-7.96825667">
        <ele>495.0</ele>
        <time>2018-10-03T09:13:26.000Z</time>
      </trkpt>
      <trkpt lat="42.46397167" lon="-7.968275">
        <ele>495.0</ele>
        <time>2018-10-03T09:13:27.000Z</time>
      </trkpt>
      <trkpt lat="42.46397667" lon="-7.96829333">
        <ele>495.0</ele>
        <time>2018-10-03T09:13:28.000Z</time>
      </trkpt>
      <trkpt lat="42.46398333" lon="-7.96831333">
        <ele>495.0</ele>
        <time>2018-10-03T09:13:29.000Z</time>
      </trkpt>
      <trkpt lat="42.46399167" lon="-7.96833167">
        <ele>495.0</ele>
        <time>2018-10-03T09:13:30.000Z</time>
      </trkpt>
      <trkpt lat="42.46399833" lon="-7.96835">
        <ele>495.0</ele>
        <time>2018-10-03T09:13:31.000Z</time>
      </trkpt>
      <trkpt lat="42.46400333" lon="-7.96836667">
        <ele>494.0</ele>
        <time>2018-10-03T09:13:32.000Z</time>
      </trkpt>
      <trkpt lat="42.46401" lon="-7.968385">
        <ele>494.0</ele>
        <time>2018-10-03T09:13:33.000Z</time>
      </trkpt>
      <trkpt lat="42.464015" lon="-7.96840333">
        <ele>495.0</ele>
        <time>2018-10-03T09:13:34.000Z</time>
      </trkpt>
      <trkpt lat="42.46401667" lon="-7.96842167">
        <ele>495.0</ele>
        <time>2018-10-03T09:13:35.000Z</time>
      </trkpt>
      <trkpt lat="42.46401833" lon="-7.96844">
        <ele>495.0</ele>
        <time>2018-10-03T09:13:36.000Z</time>
      </trkpt>
      <trkpt lat="42.46402" lon="-7.96845833">
        <ele>495.0</ele>
        <time>2018-10-03T09:13:37.000Z</time>
      </trkpt>
      <trkpt lat="42.46402" lon="-7.96847333">
        <ele>495.0</ele>
        <time>2018-10-03T09:13:38.000Z</time>
      </trkpt>
      <trkpt lat="42.46401833" lon="-7.96849">
        <ele>495.0</ele>
        <time>2018-10-03T09:13:39.000Z</time>
      </trkpt>
      <trkpt lat="42.46401333" lon="-7.96850667">
        <ele>495.0</ele>
        <time>2018-10-03T09:13:40.000Z</time>
      </trkpt>
      <trkpt lat="42.46400667" lon="-7.96852333">
        <ele>495.0</ele>
        <time>2018-10-03T09:13:41.000Z</time>
      </trkpt>
      <trkpt lat="42.46399667" lon="-7.96854167">
        <ele>495.0</ele>
        <time>2018-10-03T09:13:42.000Z</time>
      </trkpt>
      <trkpt lat="42.46398667" lon="-7.96855833">
        <ele>496.0</ele>
        <time>2018-10-03T09:13:43.000Z</time>
      </trkpt>
      <trkpt lat="42.46397833" lon="-7.96857167">
        <ele>496.0</ele>
        <time>2018-10-03T09:13:44.000Z</time>
      </trkpt>
      <trkpt lat="42.46397" lon="-7.96858333">
        <ele>496.0</ele>
        <time>2018-10-03T09:13:45.000Z</time>
      </trkpt>
      <trkpt lat="42.46396" lon="-7.96859333">
        <ele>495.0</ele>
        <time>2018-10-03T09:13:46.000Z</time>
      </trkpt>
      <trkpt lat="42.46395167" lon="-7.968605">
        <ele>495.0</ele>
        <time>2018-10-03T09:13:47.000Z</time>
      </trkpt>
      <trkpt lat="42.463945" lon="-7.96862">
        <ele>495.0</ele>
        <time>2018-10-03T09:13:48.000Z</time>
      </trkpt>
      <trkpt lat="42.463935" lon="-7.968635">
        <ele>495.0</ele>
        <time>2018-10-03T09:13:49.000Z</time>
      </trkpt>
      <trkpt lat="42.46392667" lon="-7.96865">
        <ele>495.0</ele>
        <time>2018-10-03T09:13:50.000Z</time>
      </trkpt>
      <trkpt lat="42.46391667" lon="-7.968665">
        <ele>495.0</ele>
        <time>2018-10-03T09:13:51.000Z</time>
      </trkpt>
      <trkpt lat="42.46390833" lon="-7.96868">
        <ele>495.0</ele>
        <time>2018-10-03T09:13:52.000Z</time>
      </trkpt>
      <trkpt lat="42.46389833" lon="-7.968695">
        <ele>495.0</ele>
        <time>2018-10-03T09:13:53.000Z</time>
      </trkpt>
      <trkpt lat="42.46389" lon="-7.96871">
        <ele>495.0</ele>
        <time>2018-10-03T09:13:54.000Z</time>
      </trkpt>
      <trkpt lat="42.46388" lon="-7.968725">
        <ele>495.0</ele>
        <time>2018-10-03T09:13:55.000Z</time>
      </trkpt>
      <trkpt lat="42.46387167" lon="-7.96874167">
        <ele>495.0</ele>
        <time>2018-10-03T09:13:56.000Z</time>
      </trkpt>
      <trkpt lat="42.46386333" lon="-7.96876">
        <ele>495.0</ele>
        <time>2018-10-03T09:13:57.000Z</time>
      </trkpt>
      <trkpt lat="42.463855" lon="-7.96877667">
        <ele>495.0</ele>
        <time>2018-10-03T09:13:58.000Z</time>
      </trkpt>
      <trkpt lat="42.46384667" lon="-7.96879333">
        <ele>495.0</ele>
        <time>2018-10-03T09:13:59.000Z</time>
      </trkpt>
      <trkpt lat="42.46383833" lon="-7.96881">
        <ele>495.0</ele>
        <time>2018-10-03T09:14:00.000Z</time>
      </trkpt>
      <trkpt lat="42.46383" lon="-7.968825">
        <ele>495.0</ele>
        <time>2018-10-03T09:14:01.000Z</time>
      </trkpt>
      <trkpt lat="42.46382167" lon="-7.96884">
        <ele>495.0</ele>
        <time>2018-10-03T09:14:02.000Z</time>
      </trkpt>
      <trkpt lat="42.46381333" lon="-7.96885333">
        <ele>495.0</ele>
        <time>2018-10-03T09:14:03.000Z</time>
      </trkpt>
      <trkpt lat="42.46380667" lon="-7.968865">
        <ele>495.0</ele>
        <time>2018-10-03T09:14:04.000Z</time>
      </trkpt>
      <trkpt lat="42.46379667" lon="-7.96887833">
        <ele>495.0</ele>
        <time>2018-10-03T09:14:05.000Z</time>
      </trkpt>
      <trkpt lat="42.46378667" lon="-7.96889333">
        <ele>495.0</ele>
        <time>2018-10-03T09:14:06.000Z</time>
      </trkpt>
      <trkpt lat="42.46377833" lon="-7.96890833">
        <ele>495.0</ele>
        <time>2018-10-03T09:14:07.000Z</time>
      </trkpt>
      <trkpt lat="42.46376833" lon="-7.96892333">
        <ele>495.0</ele>
        <time>2018-10-03T09:14:08.000Z</time>
      </trkpt>
      <trkpt lat="42.46375833" lon="-7.96894">
        <ele>495.0</ele>
        <time>2018-10-03T09:14:09.000Z</time>
      </trkpt>
      <trkpt lat="42.46374833" lon="-7.968955">
        <ele>495.0</ele>
        <time>2018-10-03T09:14:10.000Z</time>
      </trkpt>
      <trkpt lat="42.46374" lon="-7.96897167">
        <ele>495.0</ele>
        <time>2018-10-03T09:14:11.000Z</time>
      </trkpt>
      <trkpt lat="42.46373" lon="-7.96898667">
        <ele>495.0</ele>
        <time>2018-10-03T09:14:12.000Z</time>
      </trkpt>
      <trkpt lat="42.46372333" lon="-7.96900333">
        <ele>495.0</ele>
        <time>2018-10-03T09:14:13.000Z</time>
      </trkpt>
      <trkpt lat="42.46372" lon="-7.96902167">
        <ele>495.0</ele>
        <time>2018-10-03T09:14:14.000Z</time>
      </trkpt>
      <trkpt lat="42.46371833" lon="-7.96904">
        <ele>495.0</ele>
        <time>2018-10-03T09:14:15.000Z</time>
      </trkpt>
      <trkpt lat="42.46371833" lon="-7.96906167">
        <ele>495.0</ele>
        <time>2018-10-03T09:14:16.000Z</time>
      </trkpt>
      <trkpt lat="42.46371833" lon="-7.969085">
        <ele>495.0</ele>
        <time>2018-10-03T09:14:17.000Z</time>
      </trkpt>
      <trkpt lat="42.46372167" lon="-7.96910667">
        <ele>495.0</ele>
        <time>2018-10-03T09:14:18.000Z</time>
      </trkpt>
      <trkpt lat="42.463725" lon="-7.96913">
        <ele>495.0</ele>
        <time>2018-10-03T09:14:19.000Z</time>
      </trkpt>
      <trkpt lat="42.46373167" lon="-7.96915167">
        <ele>495.0</ele>
        <time>2018-10-03T09:14:20.000Z</time>
      </trkpt>
      <trkpt lat="42.46373833" lon="-7.96917">
        <ele>495.0</ele>
        <time>2018-10-03T09:14:21.000Z</time>
      </trkpt>
      <trkpt lat="42.46374833" lon="-7.96918833">
        <ele>495.0</ele>
        <time>2018-10-03T09:14:22.000Z</time>
      </trkpt>
      <trkpt lat="42.46375667" lon="-7.96920667">
        <ele>495.0</ele>
        <time>2018-10-03T09:14:23.000Z</time>
      </trkpt>
      <trkpt lat="42.46376333" lon="-7.969225">
        <ele>495.0</ele>
        <time>2018-10-03T09:14:24.000Z</time>
      </trkpt>
      <trkpt lat="42.46377167" lon="-7.96924167">
        <ele>495.0</ele>
        <time>2018-10-03T09:14:25.000Z</time>
      </trkpt>
      <trkpt lat="42.46377667" lon="-7.96925833">
        <ele>494.0</ele>
        <time>2018-10-03T09:14:26.000Z</time>
      </trkpt>
      <trkpt lat="42.46378" lon="-7.969275">
        <ele>494.0</ele>
        <time>2018-10-03T09:14:27.000Z</time>
      </trkpt>
      <trkpt lat="42.463785" lon="-7.96929167">
        <ele>494.0</ele>
        <time>2018-10-03T09:14:28.000Z</time>
      </trkpt>
      <trkpt lat="42.46378833" lon="-7.96931">
        <ele>494.0</ele>
        <time>2018-10-03T09:14:29.000Z</time>
      </trkpt>
      <trkpt lat="42.46379" lon="-7.96933">
        <ele>494.0</ele>
        <time>2018-10-03T09:14:30.000Z</time>
      </trkpt>
      <trkpt lat="42.46379167" lon="-7.96935">
        <ele>494.0</ele>
        <time>2018-10-03T09:14:31.000Z</time>
      </trkpt>
      <trkpt lat="42.46379167" lon="-7.96937">
        <ele>494.0</ele>
        <time>2018-10-03T09:14:32.000Z</time>
      </trkpt>
      <trkpt lat="42.46379167" lon="-7.96939">
        <ele>494.0</ele>
        <time>2018-10-03T09:14:33.000Z</time>
      </trkpt>
      <trkpt lat="42.46379167" lon="-7.96940833">
        <ele>494.0</ele>
        <time>2018-10-03T09:14:34.000Z</time>
      </trkpt>
      <trkpt lat="42.46379333" lon="-7.96942667">
        <ele>493.0</ele>
        <time>2018-10-03T09:14:35.000Z</time>
      </trkpt>
      <trkpt lat="42.46379333" lon="-7.96944667">
        <ele>493.0</ele>
        <time>2018-10-03T09:14:36.000Z</time>
      </trkpt>
      <trkpt lat="42.463795" lon="-7.96946667">
        <ele>493.0</ele>
        <time>2018-10-03T09:14:37.000Z</time>
      </trkpt>
      <trkpt lat="42.46379667" lon="-7.96948667">
        <ele>493.0</ele>
        <time>2018-10-03T09:14:38.000Z</time>
      </trkpt>
      <trkpt lat="42.4638" lon="-7.969505">
        <ele>493.0</ele>
        <time>2018-10-03T09:14:39.000Z</time>
      </trkpt>
      <trkpt lat="42.46380333" lon="-7.96952167">
        <ele>493.0</ele>
        <time>2018-10-03T09:14:40.000Z</time>
      </trkpt>
      <trkpt lat="42.46380667" lon="-7.96953667">
        <ele>493.0</ele>
        <time>2018-10-03T09:14:41.000Z</time>
      </trkpt>
      <trkpt lat="42.46381" lon="-7.96955333">
        <ele>493.0</ele>
        <time>2018-10-03T09:14:42.000Z</time>
      </trkpt>
      <trkpt lat="42.463815" lon="-7.96956833">
        <ele>493.0</ele>
        <time>2018-10-03T09:14:43.000Z</time>
      </trkpt>
      <trkpt lat="42.46382" lon="-7.96958667">
        <ele>493.0</ele>
        <time>2018-10-03T09:14:44.000Z</time>
      </trkpt>
      <trkpt lat="42.463825" lon="-7.96960333">
        <ele>493.0</ele>
        <time>2018-10-03T09:14:45.000Z</time>
      </trkpt>
      <trkpt lat="42.46382833" lon="-7.96962167">
        <ele>492.0</ele>
        <time>2018-10-03T09:14:46.000Z</time>
      </trkpt>
      <trkpt lat="42.46383167" lon="-7.96964">
        <ele>492.0</ele>
        <time>2018-10-03T09:14:47.000Z</time>
      </trkpt>
      <trkpt lat="42.46383333" lon="-7.96965833">
        <ele>492.0</ele>
        <time>2018-10-03T09:14:48.000Z</time>
      </trkpt>
      <trkpt lat="42.463835" lon="-7.96967667">
        <ele>492.0</ele>
        <time>2018-10-03T09:14:49.000Z</time>
      </trkpt>
      <trkpt lat="42.46383833" lon="-7.96969167">
        <ele>492.0</ele>
        <time>2018-10-03T09:14:50.000Z</time>
      </trkpt>
      <trkpt lat="42.463845" lon="-7.96971">
        <ele>492.0</ele>
        <time>2018-10-03T09:14:51.000Z</time>
      </trkpt>
      <trkpt lat="42.46385" lon="-7.969725">
        <ele>492.0</ele>
        <time>2018-10-03T09:14:52.000Z</time>
      </trkpt>
      <trkpt lat="42.46385667" lon="-7.96974333">
        <ele>492.0</ele>
        <time>2018-10-03T09:14:53.000Z</time>
      </trkpt>
      <trkpt lat="42.46386" lon="-7.96975833">
        <ele>492.0</ele>
        <time>2018-10-03T09:14:54.000Z</time>
      </trkpt>
      <trkpt lat="42.46386333" lon="-7.96977333">
        <ele>492.0</ele>
        <time>2018-10-03T09:14:55.000Z</time>
      </trkpt>
      <trkpt lat="42.463865" lon="-7.96978833">
        <ele>492.0</ele>
        <time>2018-10-03T09:14:56.000Z</time>
      </trkpt>
      <trkpt lat="42.46386667" lon="-7.96980333">
        <ele>492.0</ele>
        <time>2018-10-03T09:14:57.000Z</time>
      </trkpt>
      <trkpt lat="42.46387" lon="-7.96981833">
        <ele>492.0</ele>
        <time>2018-10-03T09:14:58.000Z</time>
      </trkpt>
      <trkpt lat="42.46387333" lon="-7.96983667">
        <ele>492.0</ele>
        <time>2018-10-03T09:14:59.000Z</time>
      </trkpt>
      <trkpt lat="42.46387833" lon="-7.96985167">
        <ele>492.0</ele>
        <time>2018-10-03T09:15:00.000Z</time>
      </trkpt>
      <trkpt lat="42.46388167" lon="-7.96986833">
        <ele>491.0</ele>
        <time>2018-10-03T09:15:01.000Z</time>
      </trkpt>
      <trkpt lat="42.46388667" lon="-7.96988667">
        <ele>491.0</ele>
        <time>2018-10-03T09:15:02.000Z</time>
      </trkpt>
      <trkpt lat="42.46389" lon="-7.969905">
        <ele>491.0</ele>
        <time>2018-10-03T09:15:03.000Z</time>
      </trkpt>
      <trkpt lat="42.46389333" lon="-7.96992167">
        <ele>490.0</ele>
        <time>2018-10-03T09:15:04.000Z</time>
      </trkpt>
      <trkpt lat="42.463895" lon="-7.96993833">
        <ele>490.0</ele>
        <time>2018-10-03T09:15:05.000Z</time>
      </trkpt>
      <trkpt lat="42.46389667" lon="-7.96995667">
        <ele>490.0</ele>
        <time>2018-10-03T09:15:06.000Z</time>
      </trkpt>
      <trkpt lat="42.463895" lon="-7.969975">
        <ele>489.0</ele>
        <time>2018-10-03T09:15:07.000Z</time>
      </trkpt>
      <trkpt lat="42.463895" lon="-7.96998667">
        <ele>489.0</ele>
        <time>2018-10-03T09:15:08.000Z</time>
      </trkpt>
      <trkpt lat="42.463895" lon="-7.96999167">
        <ele>489.0</ele>
        <time>2018-10-03T09:15:09.000Z</time>
      </trkpt>
      <trkpt lat="42.463895" lon="-7.969995">
        <ele>488.0</ele>
        <time>2018-10-03T09:15:10.000Z</time>
      </trkpt>
      <trkpt lat="42.463895" lon="-7.97000333">
        <ele>488.0</ele>
        <time>2018-10-03T09:15:11.000Z</time>
      </trkpt>
      <trkpt lat="42.463895" lon="-7.97001833">
        <ele>488.0</ele>
        <time>2018-10-03T09:15:12.000Z</time>
      </trkpt>
      <trkpt lat="42.46389333" lon="-7.970035">
        <ele>487.0</ele>
        <time>2018-10-03T09:15:13.000Z</time>
      </trkpt>
      <trkpt lat="42.46389" lon="-7.97005333">
        <ele>487.0</ele>
        <time>2018-10-03T09:15:14.000Z</time>
      </trkpt>
      <trkpt lat="42.46388833" lon="-7.97007167">
        <ele>487.0</ele>
        <time>2018-10-03T09:15:15.000Z</time>
      </trkpt>
      <trkpt lat="42.46388833" lon="-7.97009">
        <ele>487.0</ele>
        <time>2018-10-03T09:15:16.000Z</time>
      </trkpt>
      <trkpt lat="42.46388667" lon="-7.97010833">
        <ele>486.0</ele>
        <time>2018-10-03T09:15:17.000Z</time>
      </trkpt>
      <trkpt lat="42.46388667" lon="-7.97012833">
        <ele>486.0</ele>
        <time>2018-10-03T09:15:18.000Z</time>
      </trkpt>
      <trkpt lat="42.46388667" lon="-7.97014833">
        <ele>486.0</ele>
        <time>2018-10-03T09:15:19.000Z</time>
      </trkpt>
      <trkpt lat="42.463885" lon="-7.97016833">
        <ele>486.0</ele>
        <time>2018-10-03T09:15:20.000Z</time>
      </trkpt>
      <trkpt lat="42.46388333" lon="-7.97018833">
        <ele>486.0</ele>
        <time>2018-10-03T09:15:21.000Z</time>
      </trkpt>
      <trkpt lat="42.46388167" lon="-7.97020667">
        <ele>486.0</ele>
        <time>2018-10-03T09:15:22.000Z</time>
      </trkpt>
      <trkpt lat="42.46388" lon="-7.970225">
        <ele>486.0</ele>
        <time>2018-10-03T09:15:23.000Z</time>
      </trkpt>
      <trkpt lat="42.46387833" lon="-7.97024333">
        <ele>486.0</ele>
        <time>2018-10-03T09:15:24.000Z</time>
      </trkpt>
      <trkpt lat="42.46387667" lon="-7.97026333">
        <ele>486.0</ele>
        <time>2018-10-03T09:15:25.000Z</time>
      </trkpt>
      <trkpt lat="42.46387333" lon="-7.97028167">
        <ele>486.0</ele>
        <time>2018-10-03T09:15:26.000Z</time>
      </trkpt>
      <trkpt lat="42.46387167" lon="-7.97030167">
        <ele>486.0</ele>
        <time>2018-10-03T09:15:27.000Z</time>
      </trkpt>
      <trkpt lat="42.46386833" lon="-7.97032167">
        <ele>486.0</ele>
        <time>2018-10-03T09:15:28.000Z</time>
      </trkpt>
      <trkpt lat="42.46386667" lon="-7.97034167">
        <ele>486.0</ele>
        <time>2018-10-03T09:15:29.000Z</time>
      </trkpt>
      <trkpt lat="42.46386333" lon="-7.97036167">
        <ele>486.0</ele>
        <time>2018-10-03T09:15:30.000Z</time>
      </trkpt>
      <trkpt lat="42.46386" lon="-7.97038167">
        <ele>486.0</ele>
        <time>2018-10-03T09:15:31.000Z</time>
      </trkpt>
      <trkpt lat="42.46385833" lon="-7.97040167">
        <ele>487.0</ele>
        <time>2018-10-03T09:15:32.000Z</time>
      </trkpt>
      <trkpt lat="42.463855" lon="-7.97042167">
        <ele>487.0</ele>
        <time>2018-10-03T09:15:33.000Z</time>
      </trkpt>
      <trkpt lat="42.46385167" lon="-7.97044167">
        <ele>487.0</ele>
        <time>2018-10-03T09:15:34.000Z</time>
      </trkpt>
      <trkpt lat="42.46384833" lon="-7.97046167">
        <ele>487.0</ele>
        <time>2018-10-03T09:15:35.000Z</time>
      </trkpt>
      <trkpt lat="42.46384667" lon="-7.97048333">
        <ele>487.0</ele>
        <time>2018-10-03T09:15:36.000Z</time>
      </trkpt>
      <trkpt lat="42.46384333" lon="-7.97050333">
        <ele>488.0</ele>
        <time>2018-10-03T09:15:37.000Z</time>
      </trkpt>
      <trkpt lat="42.46384" lon="-7.97052333">
        <ele>488.0</ele>
        <time>2018-10-03T09:15:38.000Z</time>
      </trkpt>
      <trkpt lat="42.46383833" lon="-7.97054333">
        <ele>488.0</ele>
        <time>2018-10-03T09:15:39.000Z</time>
      </trkpt>
      <trkpt lat="42.463835" lon="-7.97056333">
        <ele>489.0</ele>
        <time>2018-10-03T09:15:40.000Z</time>
      </trkpt>
      <trkpt lat="42.46383167" lon="-7.97058333">
        <ele>489.0</ele>
        <time>2018-10-03T09:15:41.000Z</time>
      </trkpt>
      <trkpt lat="42.46382833" lon="-7.970605">
        <ele>489.0</ele>
        <time>2018-10-03T09:15:42.000Z</time>
      </trkpt>
      <trkpt lat="42.46382667" lon="-7.970625">
        <ele>490.0</ele>
        <time>2018-10-03T09:15:43.000Z</time>
      </trkpt>
      <trkpt lat="42.46382333" lon="-7.970645">
        <ele>490.0</ele>
        <time>2018-10-03T09:15:44.000Z</time>
      </trkpt>
      <trkpt lat="42.46382167" lon="-7.970665">
        <ele>490.0</ele>
        <time>2018-10-03T09:15:45.000Z</time>
      </trkpt>
      <trkpt lat="42.46381833" lon="-7.970685">
        <ele>491.0</ele>
        <time>2018-10-03T09:15:46.000Z</time>
      </trkpt>
      <trkpt lat="42.46381333" lon="-7.97070167">
        <ele>491.0</ele>
        <time>2018-10-03T09:15:47.000Z</time>
      </trkpt>
      <trkpt lat="42.46381" lon="-7.97072">
        <ele>491.0</ele>
        <time>2018-10-03T09:15:48.000Z</time>
      </trkpt>
      <trkpt lat="42.46380667" lon="-7.97074">
        <ele>491.0</ele>
        <time>2018-10-03T09:15:49.000Z</time>
      </trkpt>
      <trkpt lat="42.46380333" lon="-7.97075833">
        <ele>491.0</ele>
        <time>2018-10-03T09:15:50.000Z</time>
      </trkpt>
      <trkpt lat="42.46379833" lon="-7.970775">
        <ele>491.0</ele>
        <time>2018-10-03T09:15:51.000Z</time>
      </trkpt>
      <trkpt lat="42.46379667" lon="-7.97079167">
        <ele>492.0</ele>
        <time>2018-10-03T09:15:52.000Z</time>
      </trkpt>
      <trkpt lat="42.46379333" lon="-7.97080167">
        <ele>492.0</ele>
        <time>2018-10-03T09:15:53.000Z</time>
      </trkpt>
      <trkpt lat="42.46379333" lon="-7.970805">
        <ele>492.0</ele>
        <time>2018-10-03T09:15:54.000Z</time>
      </trkpt>
      <trkpt lat="42.46379" lon="-7.970805">
        <ele>492.0</ele>
        <time>2018-10-03T09:15:55.000Z</time>
      </trkpt>
      <trkpt lat="42.46378833" lon="-7.97080667">
        <ele>492.0</ele>
        <time>2018-10-03T09:15:56.000Z</time>
      </trkpt>
      <trkpt lat="42.46378667" lon="-7.97080667">
        <ele>493.0</ele>
        <time>2018-10-03T09:15:57.000Z</time>
      </trkpt>
      <trkpt lat="42.463785" lon="-7.97080667">
        <ele>493.0</ele>
        <time>2018-10-03T09:15:58.000Z</time>
      </trkpt>
      <trkpt lat="42.463785" lon="-7.97080667">
        <ele>493.0</ele>
        <time>2018-10-03T09:15:59.000Z</time>
      </trkpt>
      <trkpt lat="42.463785" lon="-7.97080667">
        <ele>493.0</ele>
        <time>2018-10-03T09:16:00.000Z</time>
      </trkpt>
      <trkpt lat="42.463785" lon="-7.97080667">
        <ele>494.0</ele>
        <time>2018-10-03T09:16:01.000Z</time>
      </trkpt>
      <trkpt lat="42.463785" lon="-7.97081167">
        <ele>494.0</ele>
        <time>2018-10-03T09:16:02.000Z</time>
      </trkpt>
      <trkpt lat="42.46378333" lon="-7.97082">
        <ele>494.0</ele>
        <time>2018-10-03T09:16:03.000Z</time>
      </trkpt>
      <trkpt lat="42.46378167" lon="-7.97083667">
        <ele>494.0</ele>
        <time>2018-10-03T09:16:04.000Z</time>
      </trkpt>
      <trkpt lat="42.46377833" lon="-7.97085333">
        <ele>494.0</ele>
        <time>2018-10-03T09:16:05.000Z</time>
      </trkpt>
      <trkpt lat="42.463775" lon="-7.97087333">
        <ele>494.0</ele>
        <time>2018-10-03T09:16:06.000Z</time>
      </trkpt>
      <trkpt lat="42.46377333" lon="-7.97089">
        <ele>494.0</ele>
        <time>2018-10-03T09:16:07.000Z</time>
      </trkpt>
      <trkpt lat="42.46377167" lon="-7.97091">
        <ele>494.0</ele>
        <time>2018-10-03T09:16:08.000Z</time>
      </trkpt>
      <trkpt lat="42.46377167" lon="-7.97092833">
        <ele>495.0</ele>
        <time>2018-10-03T09:16:09.000Z</time>
      </trkpt>
      <trkpt lat="42.46377" lon="-7.97094667">
        <ele>495.0</ele>
        <time>2018-10-03T09:16:10.000Z</time>
      </trkpt>
      <trkpt lat="42.46376833" lon="-7.970965">
        <ele>495.0</ele>
        <time>2018-10-03T09:16:11.000Z</time>
      </trkpt>
      <trkpt lat="42.46376667" lon="-7.97098167">
        <ele>495.0</ele>
        <time>2018-10-03T09:16:12.000Z</time>
      </trkpt>
      <trkpt lat="42.463765" lon="-7.971">
        <ele>495.0</ele>
        <time>2018-10-03T09:16:13.000Z</time>
      </trkpt>
      <trkpt lat="42.46376167" lon="-7.97102">
        <ele>495.0</ele>
        <time>2018-10-03T09:16:14.000Z</time>
      </trkpt>
      <trkpt lat="42.46376" lon="-7.97103833">
        <ele>495.0</ele>
        <time>2018-10-03T09:16:15.000Z</time>
      </trkpt>
      <trkpt lat="42.46376" lon="-7.97105833">
        <ele>495.0</ele>
        <time>2018-10-03T09:16:16.000Z</time>
      </trkpt>
      <trkpt lat="42.46375833" lon="-7.97107833">
        <ele>495.0</ele>
        <time>2018-10-03T09:16:17.000Z</time>
      </trkpt>
      <trkpt lat="42.46375667" lon="-7.97109667">
        <ele>495.0</ele>
        <time>2018-10-03T09:16:18.000Z</time>
      </trkpt>
      <trkpt lat="42.463755" lon="-7.97111667">
        <ele>495.0</ele>
        <time>2018-10-03T09:16:19.000Z</time>
      </trkpt>
      <trkpt lat="42.46375333" lon="-7.971135">
        <ele>495.0</ele>
        <time>2018-10-03T09:16:20.000Z</time>
      </trkpt>
      <trkpt lat="42.46375333" lon="-7.97115667">
        <ele>495.0</ele>
        <time>2018-10-03T09:16:21.000Z</time>
      </trkpt>
      <trkpt lat="42.46375167" lon="-7.97117333">
        <ele>495.0</ele>
        <time>2018-10-03T09:16:22.000Z</time>
      </trkpt>
      <trkpt lat="42.46375167" lon="-7.97119">
        <ele>496.0</ele>
        <time>2018-10-03T09:16:23.000Z</time>
      </trkpt>
      <trkpt lat="42.46375167" lon="-7.97120833">
        <ele>496.0</ele>
        <time>2018-10-03T09:16:24.000Z</time>
      </trkpt>
      <trkpt lat="42.46375167" lon="-7.97122667">
        <ele>496.0</ele>
        <time>2018-10-03T09:16:25.000Z</time>
      </trkpt>
      <trkpt lat="42.46375333" lon="-7.97124667">
        <ele>496.0</ele>
        <time>2018-10-03T09:16:26.000Z</time>
      </trkpt>
      <trkpt lat="42.463755" lon="-7.97126667">
        <ele>496.0</ele>
        <time>2018-10-03T09:16:27.000Z</time>
      </trkpt>
      <trkpt lat="42.46375667" lon="-7.971285">
        <ele>496.0</ele>
        <time>2018-10-03T09:16:28.000Z</time>
      </trkpt>
      <trkpt lat="42.46375833" lon="-7.97130333">
        <ele>496.0</ele>
        <time>2018-10-03T09:16:29.000Z</time>
      </trkpt>
      <trkpt lat="42.46375833" lon="-7.97132333">
        <ele>496.0</ele>
        <time>2018-10-03T09:16:30.000Z</time>
      </trkpt>
      <trkpt lat="42.46375667" lon="-7.97134333">
        <ele>496.0</ele>
        <time>2018-10-03T09:16:31.000Z</time>
      </trkpt>
      <trkpt lat="42.463755" lon="-7.97136167">
        <ele>496.0</ele>
        <time>2018-10-03T09:16:32.000Z</time>
      </trkpt>
      <trkpt lat="42.46375333" lon="-7.97138">
        <ele>496.0</ele>
        <time>2018-10-03T09:16:33.000Z</time>
      </trkpt>
      <trkpt lat="42.46375" lon="-7.9714">
        <ele>496.0</ele>
        <time>2018-10-03T09:16:34.000Z</time>
      </trkpt>
      <trkpt lat="42.46374833" lon="-7.97142">
        <ele>496.0</ele>
        <time>2018-10-03T09:16:35.000Z</time>
      </trkpt>
      <trkpt lat="42.46374667" lon="-7.97144333">
        <ele>496.0</ele>
        <time>2018-10-03T09:16:36.000Z</time>
      </trkpt>
      <trkpt lat="42.463745" lon="-7.971465">
        <ele>496.0</ele>
        <time>2018-10-03T09:16:37.000Z</time>
      </trkpt>
      <trkpt lat="42.463745" lon="-7.97148667">
        <ele>496.0</ele>
        <time>2018-10-03T09:16:38.000Z</time>
      </trkpt>
      <trkpt lat="42.46374333" lon="-7.97150833">
        <ele>497.0</ele>
        <time>2018-10-03T09:16:39.000Z</time>
      </trkpt>
      <trkpt lat="42.46374167" lon="-7.97153">
        <ele>497.0</ele>
        <time>2018-10-03T09:16:40.000Z</time>
      </trkpt>
      <trkpt lat="42.46374" lon="-7.97155">
        <ele>497.0</ele>
        <time>2018-10-03T09:16:41.000Z</time>
      </trkpt>
      <trkpt lat="42.46374" lon="-7.97157333">
        <ele>497.0</ele>
        <time>2018-10-03T09:16:42.000Z</time>
      </trkpt>
      <trkpt lat="42.46374" lon="-7.971595">
        <ele>497.0</ele>
        <time>2018-10-03T09:16:43.000Z</time>
      </trkpt>
      <trkpt lat="42.46374" lon="-7.97161667">
        <ele>497.0</ele>
        <time>2018-10-03T09:16:44.000Z</time>
      </trkpt>
      <trkpt lat="42.46374167" lon="-7.971635">
        <ele>497.0</ele>
        <time>2018-10-03T09:16:45.000Z</time>
      </trkpt>
      <trkpt lat="42.46374667" lon="-7.97165167">
        <ele>497.0</ele>
        <time>2018-10-03T09:16:46.000Z</time>
      </trkpt>
      <trkpt lat="42.46374833" lon="-7.97167167">
        <ele>497.0</ele>
        <time>2018-10-03T09:16:47.000Z</time>
      </trkpt>
      <trkpt lat="42.46374667" lon="-7.97169333">
        <ele>496.0</ele>
        <time>2018-10-03T09:16:48.000Z</time>
      </trkpt>
      <trkpt lat="42.46374667" lon="-7.97171333">
        <ele>496.0</ele>
        <time>2018-10-03T09:16:49.000Z</time>
      </trkpt>
      <trkpt lat="42.463745" lon="-7.971735">
        <ele>496.0</ele>
        <time>2018-10-03T09:16:50.000Z</time>
      </trkpt>
      <trkpt lat="42.463745" lon="-7.97175667">
        <ele>496.0</ele>
        <time>2018-10-03T09:16:51.000Z</time>
      </trkpt>
      <trkpt lat="42.46374333" lon="-7.97178">
        <ele>496.0</ele>
        <time>2018-10-03T09:16:52.000Z</time>
      </trkpt>
      <trkpt lat="42.46374333" lon="-7.97180333">
        <ele>496.0</ele>
        <time>2018-10-03T09:16:53.000Z</time>
      </trkpt>
      <trkpt lat="42.46374167" lon="-7.971825">
        <ele>497.0</ele>
        <time>2018-10-03T09:16:54.000Z</time>
      </trkpt>
      <trkpt lat="42.46374167" lon="-7.97184667">
        <ele>497.0</ele>
        <time>2018-10-03T09:16:55.000Z</time>
      </trkpt>
      <trkpt lat="42.46374333" lon="-7.97187167">
        <ele>497.0</ele>
        <time>2018-10-03T09:16:56.000Z</time>
      </trkpt>
      <trkpt lat="42.46374333" lon="-7.97189333">
        <ele>497.0</ele>
        <time>2018-10-03T09:16:57.000Z</time>
      </trkpt>
      <trkpt lat="42.46374167" lon="-7.97191833">
        <ele>497.0</ele>
        <time>2018-10-03T09:16:58.000Z</time>
      </trkpt>
      <trkpt lat="42.46374167" lon="-7.97194">
        <ele>497.0</ele>
        <time>2018-10-03T09:16:59.000Z</time>
      </trkpt>
      <trkpt lat="42.46374" lon="-7.97196333">
        <ele>497.0</ele>
        <time>2018-10-03T09:17:00.000Z</time>
      </trkpt>
      <trkpt lat="42.46373833" lon="-7.971985">
        <ele>497.0</ele>
        <time>2018-10-03T09:17:01.000Z</time>
      </trkpt>
      <trkpt lat="42.46373667" lon="-7.97200667">
        <ele>497.0</ele>
        <time>2018-10-03T09:17:02.000Z</time>
      </trkpt>
      <trkpt lat="42.463735" lon="-7.97202833">
        <ele>497.0</ele>
        <time>2018-10-03T09:17:03.000Z</time>
      </trkpt>
      <trkpt lat="42.46373333" lon="-7.97204833">
        <ele>497.0</ele>
        <time>2018-10-03T09:17:04.000Z</time>
      </trkpt>
      <trkpt lat="42.46373333" lon="-7.97207167">
        <ele>497.0</ele>
        <time>2018-10-03T09:17:05.000Z</time>
      </trkpt>
      <trkpt lat="42.46373167" lon="-7.97209333">
        <ele>497.0</ele>
        <time>2018-10-03T09:17:06.000Z</time>
      </trkpt>
      <trkpt lat="42.46372833" lon="-7.97211167">
        <ele>497.0</ele>
        <time>2018-10-03T09:17:07.000Z</time>
      </trkpt>
      <trkpt lat="42.463725" lon="-7.97213333">
        <ele>497.0</ele>
        <time>2018-10-03T09:17:08.000Z</time>
      </trkpt>
      <trkpt lat="42.46372333" lon="-7.97215667">
        <ele>497.0</ele>
        <time>2018-10-03T09:17:09.000Z</time>
      </trkpt>
      <trkpt lat="42.46372" lon="-7.97218">
        <ele>497.0</ele>
        <time>2018-10-03T09:17:10.000Z</time>
      </trkpt>
      <trkpt lat="42.46371667" lon="-7.97220167">
        <ele>497.0</ele>
        <time>2018-10-03T09:17:11.000Z</time>
      </trkpt>
      <trkpt lat="42.46371333" lon="-7.97222167">
        <ele>497.0</ele>
        <time>2018-10-03T09:17:12.000Z</time>
      </trkpt>
      <trkpt lat="42.46371167" lon="-7.97224333">
        <ele>498.0</ele>
        <time>2018-10-03T09:17:13.000Z</time>
      </trkpt>
      <trkpt lat="42.46371167" lon="-7.97226833">
        <ele>498.0</ele>
        <time>2018-10-03T09:17:14.000Z</time>
      </trkpt>
      <trkpt lat="42.46371" lon="-7.97229167">
        <ele>498.0</ele>
        <time>2018-10-03T09:17:15.000Z</time>
      </trkpt>
      <trkpt lat="42.46371" lon="-7.97231333">
        <ele>498.0</ele>
        <time>2018-10-03T09:17:16.000Z</time>
      </trkpt>
      <trkpt lat="42.46370833" lon="-7.97233333">
        <ele>498.0</ele>
        <time>2018-10-03T09:17:17.000Z</time>
      </trkpt>
      <trkpt lat="42.463705" lon="-7.97235333">
        <ele>498.0</ele>
        <time>2018-10-03T09:17:18.000Z</time>
      </trkpt>
      <trkpt lat="42.4637" lon="-7.97237167">
        <ele>498.0</ele>
        <time>2018-10-03T09:17:19.000Z</time>
      </trkpt>
      <trkpt lat="42.46369833" lon="-7.97239167">
        <ele>498.0</ele>
        <time>2018-10-03T09:17:20.000Z</time>
      </trkpt>
      <trkpt lat="42.46369667" lon="-7.97241167">
        <ele>498.0</ele>
        <time>2018-10-03T09:17:21.000Z</time>
      </trkpt>
      <trkpt lat="42.4637" lon="-7.97243">
        <ele>498.0</ele>
        <time>2018-10-03T09:17:22.000Z</time>
      </trkpt>
      <trkpt lat="42.46370167" lon="-7.97245">
        <ele>498.0</ele>
        <time>2018-10-03T09:17:23.000Z</time>
      </trkpt>
      <trkpt lat="42.46370167" lon="-7.97247167">
        <ele>498.0</ele>
        <time>2018-10-03T09:17:24.000Z</time>
      </trkpt>
      <trkpt lat="42.4637" lon="-7.97249333">
        <ele>497.0</ele>
        <time>2018-10-03T09:17:25.000Z</time>
      </trkpt>
      <trkpt lat="42.46369833" lon="-7.97251333">
        <ele>497.0</ele>
        <time>2018-10-03T09:17:26.000Z</time>
      </trkpt>
      <trkpt lat="42.463695" lon="-7.97253333">
        <ele>497.0</ele>
        <time>2018-10-03T09:17:27.000Z</time>
      </trkpt>
      <trkpt lat="42.46369333" lon="-7.97255167">
        <ele>497.0</ele>
        <time>2018-10-03T09:17:28.000Z</time>
      </trkpt>
      <trkpt lat="42.46369" lon="-7.97257333">
        <ele>497.0</ele>
        <time>2018-10-03T09:17:29.000Z</time>
      </trkpt>
      <trkpt lat="42.46368833" lon="-7.97259667">
        <ele>497.0</ele>
        <time>2018-10-03T09:17:30.000Z</time>
      </trkpt>
      <trkpt lat="42.46368667" lon="-7.97261667">
        <ele>497.0</ele>
        <time>2018-10-03T09:17:31.000Z</time>
      </trkpt>
      <trkpt lat="42.463685" lon="-7.97263667">
        <ele>497.0</ele>
        <time>2018-10-03T09:17:32.000Z</time>
      </trkpt>
      <trkpt lat="42.463685" lon="-7.972655">
        <ele>498.0</ele>
        <time>2018-10-03T09:17:33.000Z</time>
      </trkpt>
      <trkpt lat="42.463685" lon="-7.97267667">
        <ele>498.0</ele>
        <time>2018-10-03T09:17:34.000Z</time>
      </trkpt>
      <trkpt lat="42.46368667" lon="-7.97269833">
        <ele>498.0</ele>
        <time>2018-10-03T09:17:35.000Z</time>
      </trkpt>
      <trkpt lat="42.46369" lon="-7.97271667">
        <ele>498.0</ele>
        <time>2018-10-03T09:17:36.000Z</time>
      </trkpt>
      <trkpt lat="42.46369667" lon="-7.97273667">
        <ele>498.0</ele>
        <time>2018-10-03T09:17:37.000Z</time>
      </trkpt>
      <trkpt lat="42.463705" lon="-7.97275667">
        <ele>498.0</ele>
        <time>2018-10-03T09:17:38.000Z</time>
      </trkpt>
      <trkpt lat="42.46371333" lon="-7.972775">
        <ele>498.0</ele>
        <time>2018-10-03T09:17:39.000Z</time>
      </trkpt>
      <trkpt lat="42.46372333" lon="-7.97279333">
        <ele>498.0</ele>
        <time>2018-10-03T09:17:40.000Z</time>
      </trkpt>
      <trkpt lat="42.46373333" lon="-7.97281167">
        <ele>498.0</ele>
        <time>2018-10-03T09:17:41.000Z</time>
      </trkpt>
      <trkpt lat="42.46374333" lon="-7.97283">
        <ele>498.0</ele>
        <time>2018-10-03T09:17:42.000Z</time>
      </trkpt>
      <trkpt lat="42.46375" lon="-7.97284833">
        <ele>498.0</ele>
        <time>2018-10-03T09:17:43.000Z</time>
      </trkpt>
      <trkpt lat="42.46376" lon="-7.972865">
        <ele>498.0</ele>
        <time>2018-10-03T09:17:44.000Z</time>
      </trkpt>
      <trkpt lat="42.46377" lon="-7.97288333">
        <ele>498.0</ele>
        <time>2018-10-03T09:17:45.000Z</time>
      </trkpt>
      <trkpt lat="42.46378" lon="-7.9729">
        <ele>498.0</ele>
        <time>2018-10-03T09:17:46.000Z</time>
      </trkpt>
      <trkpt lat="42.46378667" lon="-7.97291167">
        <ele>498.0</ele>
        <time>2018-10-03T09:17:47.000Z</time>
      </trkpt>
      <trkpt lat="42.46379333" lon="-7.97292">
        <ele>499.0</ele>
        <time>2018-10-03T09:17:48.000Z</time>
      </trkpt>
      <trkpt lat="42.4638" lon="-7.97293167">
        <ele>499.0</ele>
        <time>2018-10-03T09:17:49.000Z</time>
      </trkpt>
      <trkpt lat="42.46380667" lon="-7.972945">
        <ele>499.0</ele>
        <time>2018-10-03T09:17:50.000Z</time>
      </trkpt>
      <trkpt lat="42.46381667" lon="-7.97295833">
        <ele>499.0</ele>
        <time>2018-10-03T09:17:51.000Z</time>
      </trkpt>
      <trkpt lat="42.46382667" lon="-7.97297333">
        <ele>499.0</ele>
        <time>2018-10-03T09:17:52.000Z</time>
      </trkpt>
      <trkpt lat="42.463835" lon="-7.97298833">
        <ele>499.0</ele>
        <time>2018-10-03T09:17:53.000Z</time>
      </trkpt>
      <trkpt lat="42.463845" lon="-7.97300333">
        <ele>499.0</ele>
        <time>2018-10-03T09:17:54.000Z</time>
      </trkpt>
      <trkpt lat="42.46385667" lon="-7.97301833">
        <ele>499.0</ele>
        <time>2018-10-03T09:17:55.000Z</time>
      </trkpt>
      <trkpt lat="42.46386833" lon="-7.97303167">
        <ele>500.0</ele>
        <time>2018-10-03T09:17:56.000Z</time>
      </trkpt>
      <trkpt lat="42.46387833" lon="-7.97304667">
        <ele>500.0</ele>
        <time>2018-10-03T09:17:57.000Z</time>
      </trkpt>
      <trkpt lat="42.46389" lon="-7.97306167">
        <ele>500.0</ele>
        <time>2018-10-03T09:17:58.000Z</time>
      </trkpt>
      <trkpt lat="42.4639" lon="-7.97307667">
        <ele>500.0</ele>
        <time>2018-10-03T09:17:59.000Z</time>
      </trkpt>
      <trkpt lat="42.46391" lon="-7.97309167">
        <ele>500.0</ele>
        <time>2018-10-03T09:18:00.000Z</time>
      </trkpt>
      <trkpt lat="42.46392167" lon="-7.97310667">
        <ele>500.0</ele>
        <time>2018-10-03T09:18:01.000Z</time>
      </trkpt>
      <trkpt lat="42.46393167" lon="-7.97312167">
        <ele>500.0</ele>
        <time>2018-10-03T09:18:02.000Z</time>
      </trkpt>
      <trkpt lat="42.46394333" lon="-7.97313667">
        <ele>500.0</ele>
        <time>2018-10-03T09:18:03.000Z</time>
      </trkpt>
      <trkpt lat="42.463955" lon="-7.97315">
        <ele>501.0</ele>
        <time>2018-10-03T09:18:04.000Z</time>
      </trkpt>
      <trkpt lat="42.46396667" lon="-7.97316167">
        <ele>501.0</ele>
        <time>2018-10-03T09:18:05.000Z</time>
      </trkpt>
      <trkpt lat="42.46397667" lon="-7.97317333">
        <ele>501.0</ele>
        <time>2018-10-03T09:18:06.000Z</time>
      </trkpt>
      <trkpt lat="42.46398833" lon="-7.973185">
        <ele>501.0</ele>
        <time>2018-10-03T09:18:07.000Z</time>
      </trkpt>
      <trkpt lat="42.464" lon="-7.97319833">
        <ele>501.0</ele>
        <time>2018-10-03T09:18:08.000Z</time>
      </trkpt>
      <trkpt lat="42.46401167" lon="-7.97321167">
        <ele>502.0</ele>
        <time>2018-10-03T09:18:09.000Z</time>
      </trkpt>
      <trkpt lat="42.46402167" lon="-7.97322333">
        <ele>502.0</ele>
        <time>2018-10-03T09:18:10.000Z</time>
      </trkpt>
      <trkpt lat="42.46403167" lon="-7.97323333">
        <ele>502.0</ele>
        <time>2018-10-03T09:18:11.000Z</time>
      </trkpt>
      <trkpt lat="42.46404" lon="-7.97324667">
        <ele>502.0</ele>
        <time>2018-10-03T09:18:12.000Z</time>
      </trkpt>
      <trkpt lat="42.46405" lon="-7.97325833">
        <ele>502.0</ele>
        <time>2018-10-03T09:18:13.000Z</time>
      </trkpt>
      <trkpt lat="42.46406167" lon="-7.97327">
        <ele>503.0</ele>
        <time>2018-10-03T09:18:14.000Z</time>
      </trkpt>
      <trkpt lat="42.46407167" lon="-7.97328333">
        <ele>503.0</ele>
        <time>2018-10-03T09:18:15.000Z</time>
      </trkpt>
      <trkpt lat="42.46408167" lon="-7.97329833">
        <ele>503.0</ele>
        <time>2018-10-03T09:18:16.000Z</time>
      </trkpt>
      <trkpt lat="42.46409167" lon="-7.97331">
        <ele>503.0</ele>
        <time>2018-10-03T09:18:17.000Z</time>
      </trkpt>
      <trkpt lat="42.4641" lon="-7.97332333">
        <ele>503.0</ele>
        <time>2018-10-03T09:18:18.000Z</time>
      </trkpt>
      <trkpt lat="42.46411" lon="-7.97333833">
        <ele>503.0</ele>
        <time>2018-10-03T09:18:19.000Z</time>
      </trkpt>
      <trkpt lat="42.46411833" lon="-7.973355">
        <ele>503.0</ele>
        <time>2018-10-03T09:18:20.000Z</time>
      </trkpt>
      <trkpt lat="42.46412667" lon="-7.97337">
        <ele>503.0</ele>
        <time>2018-10-03T09:18:21.000Z</time>
      </trkpt>
      <trkpt lat="42.464135" lon="-7.97338667">
        <ele>503.0</ele>
        <time>2018-10-03T09:18:22.000Z</time>
      </trkpt>
      <trkpt lat="42.46414" lon="-7.97340333">
        <ele>503.0</ele>
        <time>2018-10-03T09:18:23.000Z</time>
      </trkpt>
      <trkpt lat="42.46414667" lon="-7.97342167">
        <ele>503.0</ele>
        <time>2018-10-03T09:18:24.000Z</time>
      </trkpt>
      <trkpt lat="42.46415333" lon="-7.97343833">
        <ele>503.0</ele>
        <time>2018-10-03T09:18:25.000Z</time>
      </trkpt>
      <trkpt lat="42.46416167" lon="-7.973455">
        <ele>503.0</ele>
        <time>2018-10-03T09:18:26.000Z</time>
      </trkpt>
      <trkpt lat="42.46416667" lon="-7.97347333">
        <ele>503.0</ele>
        <time>2018-10-03T09:18:27.000Z</time>
      </trkpt>
      <trkpt lat="42.46417333" lon="-7.97349167">
        <ele>503.0</ele>
        <time>2018-10-03T09:18:28.000Z</time>
      </trkpt>
      <trkpt lat="42.46418" lon="-7.97351">
        <ele>503.0</ele>
        <time>2018-10-03T09:18:29.000Z</time>
      </trkpt>
      <trkpt lat="42.464185" lon="-7.97353">
        <ele>503.0</ele>
        <time>2018-10-03T09:18:30.000Z</time>
      </trkpt>
      <trkpt lat="42.46419" lon="-7.97355">
        <ele>502.0</ele>
        <time>2018-10-03T09:18:31.000Z</time>
      </trkpt>
      <trkpt lat="42.46419333" lon="-7.97356833">
        <ele>502.0</ele>
        <time>2018-10-03T09:18:32.000Z</time>
      </trkpt>
      <trkpt lat="42.46419667" lon="-7.97358667">
        <ele>502.0</ele>
        <time>2018-10-03T09:18:33.000Z</time>
      </trkpt>
      <trkpt lat="42.46419833" lon="-7.97360833">
        <ele>502.0</ele>
        <time>2018-10-03T09:18:34.000Z</time>
      </trkpt>
      <trkpt lat="42.46420167" lon="-7.97363">
        <ele>502.0</ele>
        <time>2018-10-03T09:18:35.000Z</time>
      </trkpt>
      <trkpt lat="42.46420833" lon="-7.97365167">
        <ele>502.0</ele>
        <time>2018-10-03T09:18:36.000Z</time>
      </trkpt>
      <trkpt lat="42.46421333" lon="-7.97367333">
        <ele>502.0</ele>
        <time>2018-10-03T09:18:37.000Z</time>
      </trkpt>
      <trkpt lat="42.46421833" lon="-7.97369333">
        <ele>502.0</ele>
        <time>2018-10-03T09:18:38.000Z</time>
      </trkpt>
      <trkpt lat="42.464225" lon="-7.97371333">
        <ele>501.0</ele>
        <time>2018-10-03T09:18:39.000Z</time>
      </trkpt>
      <trkpt lat="42.46423167" lon="-7.97373333">
        <ele>501.0</ele>
        <time>2018-10-03T09:18:40.000Z</time>
      </trkpt>
      <trkpt lat="42.46423833" lon="-7.97375333">
        <ele>501.0</ele>
        <time>2018-10-03T09:18:41.000Z</time>
      </trkpt>
      <trkpt lat="42.464245" lon="-7.973775">
        <ele>501.0</ele>
        <time>2018-10-03T09:18:42.000Z</time>
      </trkpt>
      <trkpt lat="42.46424667" lon="-7.973795">
        <ele>501.0</ele>
        <time>2018-10-03T09:18:43.000Z</time>
      </trkpt>
      <trkpt lat="42.46424833" lon="-7.973815">
        <ele>501.0</ele>
        <time>2018-10-03T09:18:44.000Z</time>
      </trkpt>
      <trkpt lat="42.46425167" lon="-7.973835">
        <ele>501.0</ele>
        <time>2018-10-03T09:18:45.000Z</time>
      </trkpt>
      <trkpt lat="42.464255" lon="-7.97385667">
        <ele>501.0</ele>
        <time>2018-10-03T09:18:46.000Z</time>
      </trkpt>
      <trkpt lat="42.46426" lon="-7.97388">
        <ele>501.0</ele>
        <time>2018-10-03T09:18:47.000Z</time>
      </trkpt>
      <trkpt lat="42.46426333" lon="-7.973905">
        <ele>500.0</ele>
        <time>2018-10-03T09:18:48.000Z</time>
      </trkpt>
      <trkpt lat="42.46426833" lon="-7.97393">
        <ele>500.0</ele>
        <time>2018-10-03T09:18:49.000Z</time>
      </trkpt>
      <trkpt lat="42.46427" lon="-7.97395167">
        <ele>500.0</ele>
        <time>2018-10-03T09:18:50.000Z</time>
      </trkpt>
      <trkpt lat="42.46426833" lon="-7.97397">
        <ele>500.0</ele>
        <time>2018-10-03T09:18:51.000Z</time>
      </trkpt>
      <trkpt lat="42.46427" lon="-7.97399">
        <ele>500.0</ele>
        <time>2018-10-03T09:18:52.000Z</time>
      </trkpt>
      <trkpt lat="42.46427167" lon="-7.97401">
        <ele>500.0</ele>
        <time>2018-10-03T09:18:53.000Z</time>
      </trkpt>
      <trkpt lat="42.46427333" lon="-7.97403">
        <ele>500.0</ele>
        <time>2018-10-03T09:18:54.000Z</time>
      </trkpt>
      <trkpt lat="42.464275" lon="-7.97404833">
        <ele>500.0</ele>
        <time>2018-10-03T09:18:55.000Z</time>
      </trkpt>
      <trkpt lat="42.46427667" lon="-7.97407">
        <ele>500.0</ele>
        <time>2018-10-03T09:18:56.000Z</time>
      </trkpt>
      <trkpt lat="42.46427833" lon="-7.97409333">
        <ele>499.0</ele>
        <time>2018-10-03T09:18:57.000Z</time>
      </trkpt>
      <trkpt lat="42.46427833" lon="-7.97411833">
        <ele>499.0</ele>
        <time>2018-10-03T09:18:58.000Z</time>
      </trkpt>
      <trkpt lat="42.46428" lon="-7.97414167">
        <ele>500.0</ele>
        <time>2018-10-03T09:18:59.000Z</time>
      </trkpt>
      <trkpt lat="42.46428" lon="-7.97416333">
        <ele>500.0</ele>
        <time>2018-10-03T09:19:00.000Z</time>
      </trkpt>
      <trkpt lat="42.46428167" lon="-7.97418167">
        <ele>500.0</ele>
        <time>2018-10-03T09:19:01.000Z</time>
      </trkpt>
      <trkpt lat="42.46428333" lon="-7.97420333">
        <ele>500.0</ele>
        <time>2018-10-03T09:19:02.000Z</time>
      </trkpt>
      <trkpt lat="42.464285" lon="-7.974225">
        <ele>499.0</ele>
        <time>2018-10-03T09:19:03.000Z</time>
      </trkpt>
      <trkpt lat="42.46428667" lon="-7.97424333">
        <ele>499.0</ele>
        <time>2018-10-03T09:19:04.000Z</time>
      </trkpt>
      <trkpt lat="42.46428833" lon="-7.97426333">
        <ele>499.0</ele>
        <time>2018-10-03T09:19:05.000Z</time>
      </trkpt>
      <trkpt lat="42.46429" lon="-7.97428">
        <ele>499.0</ele>
        <time>2018-10-03T09:19:06.000Z</time>
      </trkpt>
      <trkpt lat="42.46429" lon="-7.97429833">
        <ele>499.0</ele>
        <time>2018-10-03T09:19:07.000Z</time>
      </trkpt>
      <trkpt lat="42.46429167" lon="-7.97431667">
        <ele>499.0</ele>
        <time>2018-10-03T09:19:08.000Z</time>
      </trkpt>
      <trkpt lat="42.464295" lon="-7.97433667">
        <ele>499.0</ele>
        <time>2018-10-03T09:19:09.000Z</time>
      </trkpt>
      <trkpt lat="42.46429667" lon="-7.97435833">
        <ele>499.0</ele>
        <time>2018-10-03T09:19:10.000Z</time>
      </trkpt>
      <trkpt lat="42.4643" lon="-7.97437833">
        <ele>499.0</ele>
        <time>2018-10-03T09:19:11.000Z</time>
      </trkpt>
      <trkpt lat="42.46430333" lon="-7.97439833">
        <ele>499.0</ele>
        <time>2018-10-03T09:19:12.000Z</time>
      </trkpt>
      <trkpt lat="42.46430833" lon="-7.97441667">
        <ele>499.0</ele>
        <time>2018-10-03T09:19:13.000Z</time>
      </trkpt>
      <trkpt lat="42.46431333" lon="-7.97443333">
        <ele>499.0</ele>
        <time>2018-10-03T09:19:14.000Z</time>
      </trkpt>
      <trkpt lat="42.46431333" lon="-7.97445">
        <ele>499.0</ele>
        <time>2018-10-03T09:19:15.000Z</time>
      </trkpt>
      <trkpt lat="42.464315" lon="-7.97446833">
        <ele>499.0</ele>
        <time>2018-10-03T09:19:16.000Z</time>
      </trkpt>
      <trkpt lat="42.46432" lon="-7.97448833">
        <ele>499.0</ele>
        <time>2018-10-03T09:19:17.000Z</time>
      </trkpt>
      <trkpt lat="42.46432333" lon="-7.97450833">
        <ele>499.0</ele>
        <time>2018-10-03T09:19:18.000Z</time>
      </trkpt>
      <trkpt lat="42.46432833" lon="-7.97452833">
        <ele>499.0</ele>
        <time>2018-10-03T09:19:19.000Z</time>
      </trkpt>
      <trkpt lat="42.464335" lon="-7.97455">
        <ele>499.0</ele>
        <time>2018-10-03T09:19:20.000Z</time>
      </trkpt>
      <trkpt lat="42.46434167" lon="-7.97457">
        <ele>498.0</ele>
        <time>2018-10-03T09:19:21.000Z</time>
      </trkpt>
      <trkpt lat="42.46434833" lon="-7.97459">
        <ele>498.0</ele>
        <time>2018-10-03T09:19:22.000Z</time>
      </trkpt>
      <trkpt lat="42.464355" lon="-7.97460833">
        <ele>498.0</ele>
        <time>2018-10-03T09:19:23.000Z</time>
      </trkpt>
      <trkpt lat="42.46436333" lon="-7.97462667">
        <ele>498.0</ele>
        <time>2018-10-03T09:19:24.000Z</time>
      </trkpt>
      <trkpt lat="42.46437" lon="-7.97464167">
        <ele>498.0</ele>
        <time>2018-10-03T09:19:25.000Z</time>
      </trkpt>
      <trkpt lat="42.46437833" lon="-7.97465833">
        <ele>498.0</ele>
        <time>2018-10-03T09:19:26.000Z</time>
      </trkpt>
      <trkpt lat="42.46438667" lon="-7.97467667">
        <ele>498.0</ele>
        <time>2018-10-03T09:19:27.000Z</time>
      </trkpt>
      <trkpt lat="42.46439667" lon="-7.97469333">
        <ele>498.0</ele>
        <time>2018-10-03T09:19:28.000Z</time>
      </trkpt>
      <trkpt lat="42.46440333" lon="-7.97470833">
        <ele>498.0</ele>
        <time>2018-10-03T09:19:29.000Z</time>
      </trkpt>
      <trkpt lat="42.464415" lon="-7.97472333">
        <ele>498.0</ele>
        <time>2018-10-03T09:19:30.000Z</time>
      </trkpt>
      <trkpt lat="42.464425" lon="-7.97473667">
        <ele>498.0</ele>
        <time>2018-10-03T09:19:31.000Z</time>
      </trkpt>
      <trkpt lat="42.46443833" lon="-7.97475167">
        <ele>498.0</ele>
        <time>2018-10-03T09:19:32.000Z</time>
      </trkpt>
      <trkpt lat="42.46445167" lon="-7.97476667">
        <ele>498.0</ele>
        <time>2018-10-03T09:19:33.000Z</time>
      </trkpt>
      <trkpt lat="42.46446167" lon="-7.97478333">
        <ele>498.0</ele>
        <time>2018-10-03T09:19:34.000Z</time>
      </trkpt>
      <trkpt lat="42.46447333" lon="-7.97479833">
        <ele>498.0</ele>
        <time>2018-10-03T09:19:35.000Z</time>
      </trkpt>
      <trkpt lat="42.464485" lon="-7.97481333">
        <ele>498.0</ele>
        <time>2018-10-03T09:19:36.000Z</time>
      </trkpt>
      <trkpt lat="42.46449833" lon="-7.97482833">
        <ele>498.0</ele>
        <time>2018-10-03T09:19:37.000Z</time>
      </trkpt>
      <trkpt lat="42.46451167" lon="-7.97484667">
        <ele>498.0</ele>
        <time>2018-10-03T09:19:38.000Z</time>
      </trkpt>
      <trkpt lat="42.46452333" lon="-7.97486167">
        <ele>498.0</ele>
        <time>2018-10-03T09:19:39.000Z</time>
      </trkpt>
      <trkpt lat="42.464535" lon="-7.97487833">
        <ele>498.0</ele>
        <time>2018-10-03T09:19:40.000Z</time>
      </trkpt>
      <trkpt lat="42.46454833" lon="-7.97489667">
        <ele>498.0</ele>
        <time>2018-10-03T09:19:41.000Z</time>
      </trkpt>
      <trkpt lat="42.46456167" lon="-7.97491167">
        <ele>498.0</ele>
        <time>2018-10-03T09:19:42.000Z</time>
      </trkpt>
      <trkpt lat="42.46457167" lon="-7.97492833">
        <ele>498.0</ele>
        <time>2018-10-03T09:19:43.000Z</time>
      </trkpt>
      <trkpt lat="42.46458" lon="-7.97494333">
        <ele>497.0</ele>
        <time>2018-10-03T09:19:44.000Z</time>
      </trkpt>
      <trkpt lat="42.46459" lon="-7.97495833">
        <ele>497.0</ele>
        <time>2018-10-03T09:19:45.000Z</time>
      </trkpt>
      <trkpt lat="42.46459833" lon="-7.97497333">
        <ele>497.0</ele>
        <time>2018-10-03T09:19:46.000Z</time>
      </trkpt>
      <trkpt lat="42.46460833" lon="-7.97498833">
        <ele>497.0</ele>
        <time>2018-10-03T09:19:47.000Z</time>
      </trkpt>
      <trkpt lat="42.46461667" lon="-7.975005">
        <ele>497.0</ele>
        <time>2018-10-03T09:19:48.000Z</time>
      </trkpt>
      <trkpt lat="42.46462833" lon="-7.97502167">
        <ele>497.0</ele>
        <time>2018-10-03T09:19:49.000Z</time>
      </trkpt>
      <trkpt lat="42.46464" lon="-7.97503667">
        <ele>497.0</ele>
        <time>2018-10-03T09:19:50.000Z</time>
      </trkpt>
      <trkpt lat="42.46465" lon="-7.97505333">
        <ele>497.0</ele>
        <time>2018-10-03T09:19:51.000Z</time>
      </trkpt>
      <trkpt lat="42.46466167" lon="-7.97507">
        <ele>497.0</ele>
        <time>2018-10-03T09:19:52.000Z</time>
      </trkpt>
      <trkpt lat="42.46467167" lon="-7.975085">
        <ele>497.0</ele>
        <time>2018-10-03T09:19:53.000Z</time>
      </trkpt>
      <trkpt lat="42.46468333" lon="-7.9751">
        <ele>497.0</ele>
        <time>2018-10-03T09:19:54.000Z</time>
      </trkpt>
      <trkpt lat="42.464695" lon="-7.97511333">
        <ele>497.0</ele>
        <time>2018-10-03T09:19:55.000Z</time>
      </trkpt>
      <trkpt lat="42.46470667" lon="-7.975125">
        <ele>496.0</ele>
        <time>2018-10-03T09:19:56.000Z</time>
      </trkpt>
      <trkpt lat="42.46471833" lon="-7.975135">
        <ele>496.0</ele>
        <time>2018-10-03T09:19:57.000Z</time>
      </trkpt>
      <trkpt lat="42.46472833" lon="-7.975145">
        <ele>496.0</ele>
        <time>2018-10-03T09:19:58.000Z</time>
      </trkpt>
      <trkpt lat="42.46473833" lon="-7.97515667">
        <ele>496.0</ele>
        <time>2018-10-03T09:19:59.000Z</time>
      </trkpt>
      <trkpt lat="42.46474833" lon="-7.97516833">
        <ele>496.0</ele>
        <time>2018-10-03T09:20:00.000Z</time>
      </trkpt>
      <trkpt lat="42.46475833" lon="-7.97518167">
        <ele>496.0</ele>
        <time>2018-10-03T09:20:01.000Z</time>
      </trkpt>
      <trkpt lat="42.46477333" lon="-7.975195">
        <ele>496.0</ele>
        <time>2018-10-03T09:20:02.000Z</time>
      </trkpt>
      <trkpt lat="42.46478667" lon="-7.975205">
        <ele>496.0</ele>
        <time>2018-10-03T09:20:03.000Z</time>
      </trkpt>
      <trkpt lat="42.4648" lon="-7.97521667">
        <ele>497.0</ele>
        <time>2018-10-03T09:20:04.000Z</time>
      </trkpt>
      <trkpt lat="42.46481333" lon="-7.97522833">
        <ele>497.0</ele>
        <time>2018-10-03T09:20:05.000Z</time>
      </trkpt>
      <trkpt lat="42.46482667" lon="-7.97523667">
        <ele>497.0</ele>
        <time>2018-10-03T09:20:06.000Z</time>
      </trkpt>
      <trkpt lat="42.46483833" lon="-7.975245">
        <ele>497.0</ele>
        <time>2018-10-03T09:20:07.000Z</time>
      </trkpt>
      <trkpt lat="42.46485167" lon="-7.975255">
        <ele>498.0</ele>
        <time>2018-10-03T09:20:08.000Z</time>
      </trkpt>
      <trkpt lat="42.464865" lon="-7.975265">
        <ele>498.0</ele>
        <time>2018-10-03T09:20:09.000Z</time>
      </trkpt>
      <trkpt lat="42.46487667" lon="-7.975275">
        <ele>498.0</ele>
        <time>2018-10-03T09:20:10.000Z</time>
      </trkpt>
      <trkpt lat="42.46489" lon="-7.97528333">
        <ele>498.0</ele>
        <time>2018-10-03T09:20:11.000Z</time>
      </trkpt>
      <trkpt lat="42.4649" lon="-7.97529167">
        <ele>498.0</ele>
        <time>2018-10-03T09:20:12.000Z</time>
      </trkpt>
      <trkpt lat="42.46491167" lon="-7.97529667">
        <ele>498.0</ele>
        <time>2018-10-03T09:20:13.000Z</time>
      </trkpt>
      <trkpt lat="42.46492" lon="-7.97530333">
        <ele>498.0</ele>
        <time>2018-10-03T09:20:14.000Z</time>
      </trkpt>
      <trkpt lat="42.46493167" lon="-7.97531167">
        <ele>498.0</ele>
        <time>2018-10-03T09:20:15.000Z</time>
      </trkpt>
      <trkpt lat="42.464945" lon="-7.97532">
        <ele>498.0</ele>
        <time>2018-10-03T09:20:16.000Z</time>
      </trkpt>
      <trkpt lat="42.46495833" lon="-7.97532833">
        <ele>498.0</ele>
        <time>2018-10-03T09:20:17.000Z</time>
      </trkpt>
      <trkpt lat="42.46497333" lon="-7.97533833">
        <ele>498.0</ele>
        <time>2018-10-03T09:20:18.000Z</time>
      </trkpt>
      <trkpt lat="42.464985" lon="-7.97535">
        <ele>498.0</ele>
        <time>2018-10-03T09:20:19.000Z</time>
      </trkpt>
      <trkpt lat="42.46499667" lon="-7.97536">
        <ele>498.0</ele>
        <time>2018-10-03T09:20:20.000Z</time>
      </trkpt>
      <trkpt lat="42.46501" lon="-7.97537167">
        <ele>498.0</ele>
        <time>2018-10-03T09:20:21.000Z</time>
      </trkpt>
      <trkpt lat="42.46502167" lon="-7.97538167">
        <ele>498.0</ele>
        <time>2018-10-03T09:20:22.000Z</time>
      </trkpt>
      <trkpt lat="42.46503333" lon="-7.97539167">
        <ele>498.0</ele>
        <time>2018-10-03T09:20:23.000Z</time>
      </trkpt>
      <trkpt lat="42.46504667" lon="-7.97540333">
        <ele>497.0</ele>
        <time>2018-10-03T09:20:24.000Z</time>
      </trkpt>
      <trkpt lat="42.46505833" lon="-7.975415">
        <ele>497.0</ele>
        <time>2018-10-03T09:20:25.000Z</time>
      </trkpt>
      <trkpt lat="42.46507167" lon="-7.975425">
        <ele>497.0</ele>
        <time>2018-10-03T09:20:26.000Z</time>
      </trkpt>
      <trkpt lat="42.465085" lon="-7.97543333">
        <ele>497.0</ele>
        <time>2018-10-03T09:20:27.000Z</time>
      </trkpt>
      <trkpt lat="42.46509833" lon="-7.97544333">
        <ele>497.0</ele>
        <time>2018-10-03T09:20:28.000Z</time>
      </trkpt>
      <trkpt lat="42.46511" lon="-7.97545167">
        <ele>497.0</ele>
        <time>2018-10-03T09:20:29.000Z</time>
      </trkpt>
      <trkpt lat="42.46512" lon="-7.97545833">
        <ele>497.0</ele>
        <time>2018-10-03T09:20:30.000Z</time>
      </trkpt>
      <trkpt lat="42.46512833" lon="-7.97546667">
        <ele>497.0</ele>
        <time>2018-10-03T09:20:31.000Z</time>
      </trkpt>
      <trkpt lat="42.46514" lon="-7.975475">
        <ele>497.0</ele>
        <time>2018-10-03T09:20:32.000Z</time>
      </trkpt>
      <trkpt lat="42.46515167" lon="-7.975485">
        <ele>497.0</ele>
        <time>2018-10-03T09:20:33.000Z</time>
      </trkpt>
      <trkpt lat="42.46516333" lon="-7.97549333">
        <ele>497.0</ele>
        <time>2018-10-03T09:20:34.000Z</time>
      </trkpt>
      <trkpt lat="42.465175" lon="-7.97550333">
        <ele>497.0</ele>
        <time>2018-10-03T09:20:35.000Z</time>
      </trkpt>
      <trkpt lat="42.46519" lon="-7.97551">
        <ele>497.0</ele>
        <time>2018-10-03T09:20:36.000Z</time>
      </trkpt>
      <trkpt lat="42.46520167" lon="-7.97551667">
        <ele>498.0</ele>
        <time>2018-10-03T09:20:37.000Z</time>
      </trkpt>
      <trkpt lat="42.46521333" lon="-7.975525">
        <ele>498.0</ele>
        <time>2018-10-03T09:20:38.000Z</time>
      </trkpt>
      <trkpt lat="42.465225" lon="-7.97553333">
        <ele>498.0</ele>
        <time>2018-10-03T09:20:39.000Z</time>
      </trkpt>
      <trkpt lat="42.46523667" lon="-7.97554167">
        <ele>498.0</ele>
        <time>2018-10-03T09:20:40.000Z</time>
      </trkpt>
      <trkpt lat="42.46524667" lon="-7.97554667">
        <ele>498.0</ele>
        <time>2018-10-03T09:20:41.000Z</time>
      </trkpt>
      <trkpt lat="42.46525667" lon="-7.97555167">
        <ele>499.0</ele>
        <time>2018-10-03T09:20:42.000Z</time>
      </trkpt>
      <trkpt lat="42.46526833" lon="-7.97555333">
        <ele>499.0</ele>
        <time>2018-10-03T09:20:43.000Z</time>
      </trkpt>
      <trkpt lat="42.46528" lon="-7.97555833">
        <ele>499.0</ele>
        <time>2018-10-03T09:20:44.000Z</time>
      </trkpt>
      <trkpt lat="42.46529333" lon="-7.97556">
        <ele>499.0</ele>
        <time>2018-10-03T09:20:45.000Z</time>
      </trkpt>
      <trkpt lat="42.46530667" lon="-7.97556333">
        <ele>500.0</ele>
        <time>2018-10-03T09:20:46.000Z</time>
      </trkpt>
      <trkpt lat="42.46532167" lon="-7.97556833">
        <ele>500.0</ele>
        <time>2018-10-03T09:20:47.000Z</time>
      </trkpt>
      <trkpt lat="42.46533667" lon="-7.97557">
        <ele>500.0</ele>
        <time>2018-10-03T09:20:48.000Z</time>
      </trkpt>
      <trkpt lat="42.46535167" lon="-7.97557167">
        <ele>500.0</ele>
        <time>2018-10-03T09:20:49.000Z</time>
      </trkpt>
      <trkpt lat="42.46536667" lon="-7.97557333">
        <ele>500.0</ele>
        <time>2018-10-03T09:20:50.000Z</time>
      </trkpt>
      <trkpt lat="42.46538" lon="-7.97557667">
        <ele>500.0</ele>
        <time>2018-10-03T09:20:51.000Z</time>
      </trkpt>
      <trkpt lat="42.46539333" lon="-7.97557667">
        <ele>500.0</ele>
        <time>2018-10-03T09:20:52.000Z</time>
      </trkpt>
      <trkpt lat="42.46540667" lon="-7.97557833">
        <ele>501.0</ele>
        <time>2018-10-03T09:20:53.000Z</time>
      </trkpt>
      <trkpt lat="42.46542" lon="-7.97557833">
        <ele>501.0</ele>
        <time>2018-10-03T09:20:54.000Z</time>
      </trkpt>
      <trkpt lat="42.46543167" lon="-7.975575">
        <ele>501.0</ele>
        <time>2018-10-03T09:20:55.000Z</time>
      </trkpt>
      <trkpt lat="42.465445" lon="-7.97557333">
        <ele>501.0</ele>
        <time>2018-10-03T09:20:56.000Z</time>
      </trkpt>
      <trkpt lat="42.46545667" lon="-7.97556833">
        <ele>501.0</ele>
        <time>2018-10-03T09:20:57.000Z</time>
      </trkpt>
      <trkpt lat="42.46547167" lon="-7.97556167">
        <ele>501.0</ele>
        <time>2018-10-03T09:20:58.000Z</time>
      </trkpt>
      <trkpt lat="42.46548667" lon="-7.97555333">
        <ele>501.0</ele>
        <time>2018-10-03T09:20:59.000Z</time>
      </trkpt>
      <trkpt lat="42.46549833" lon="-7.97555">
        <ele>501.0</ele>
        <time>2018-10-03T09:21:00.000Z</time>
      </trkpt>
      <trkpt lat="42.46551333" lon="-7.97554833">
        <ele>501.0</ele>
        <time>2018-10-03T09:21:01.000Z</time>
      </trkpt>
      <trkpt lat="42.46552833" lon="-7.97554667">
        <ele>501.0</ele>
        <time>2018-10-03T09:21:02.000Z</time>
      </trkpt>
      <trkpt lat="42.46554333" lon="-7.975545">
        <ele>501.0</ele>
        <time>2018-10-03T09:21:03.000Z</time>
      </trkpt>
      <trkpt lat="42.46555833" lon="-7.97554167">
        <ele>501.0</ele>
        <time>2018-10-03T09:21:04.000Z</time>
      </trkpt>
      <trkpt lat="42.46557167" lon="-7.97553833">
        <ele>501.0</ele>
        <time>2018-10-03T09:21:05.000Z</time>
      </trkpt>
      <trkpt lat="42.46558667" lon="-7.97553667">
        <ele>501.0</ele>
        <time>2018-10-03T09:21:06.000Z</time>
      </trkpt>
      <trkpt lat="42.46560333" lon="-7.97553333">
        <ele>501.0</ele>
        <time>2018-10-03T09:21:07.000Z</time>
      </trkpt>
      <trkpt lat="42.46562" lon="-7.97553">
        <ele>501.0</ele>
        <time>2018-10-03T09:21:08.000Z</time>
      </trkpt>
      <trkpt lat="42.46563667" lon="-7.97552667">
        <ele>501.0</ele>
        <time>2018-10-03T09:21:09.000Z</time>
      </trkpt>
      <trkpt lat="42.46565" lon="-7.975525">
        <ele>501.0</ele>
        <time>2018-10-03T09:21:10.000Z</time>
      </trkpt>
      <trkpt lat="42.465665" lon="-7.97552333">
        <ele>501.0</ele>
        <time>2018-10-03T09:21:11.000Z</time>
      </trkpt>
      <trkpt lat="42.46567833" lon="-7.97552">
        <ele>502.0</ele>
        <time>2018-10-03T09:21:12.000Z</time>
      </trkpt>
      <trkpt lat="42.46569" lon="-7.97552">
        <ele>502.0</ele>
        <time>2018-10-03T09:21:13.000Z</time>
      </trkpt>
      <trkpt lat="42.465705" lon="-7.97552">
        <ele>502.0</ele>
        <time>2018-10-03T09:21:14.000Z</time>
      </trkpt>
      <trkpt lat="42.46572" lon="-7.97552">
        <ele>502.0</ele>
        <time>2018-10-03T09:21:15.000Z</time>
      </trkpt>
      <trkpt lat="42.465735" lon="-7.97551833">
        <ele>502.0</ele>
        <time>2018-10-03T09:21:16.000Z</time>
      </trkpt>
      <trkpt lat="42.46575167" lon="-7.97551833">
        <ele>502.0</ele>
        <time>2018-10-03T09:21:17.000Z</time>
      </trkpt>
      <trkpt lat="42.465765" lon="-7.97551833">
        <ele>502.0</ele>
        <time>2018-10-03T09:21:18.000Z</time>
      </trkpt>
      <trkpt lat="42.46578" lon="-7.97551833">
        <ele>502.0</ele>
        <time>2018-10-03T09:21:19.000Z</time>
      </trkpt>
      <trkpt lat="42.465795" lon="-7.97551667">
        <ele>502.0</ele>
        <time>2018-10-03T09:21:20.000Z</time>
      </trkpt>
      <trkpt lat="42.46581" lon="-7.97551333">
        <ele>502.0</ele>
        <time>2018-10-03T09:21:21.000Z</time>
      </trkpt>
      <trkpt lat="42.465825" lon="-7.97551167">
        <ele>502.0</ele>
        <time>2018-10-03T09:21:22.000Z</time>
      </trkpt>
      <trkpt lat="42.46583833" lon="-7.97551333">
        <ele>503.0</ele>
        <time>2018-10-03T09:21:23.000Z</time>
      </trkpt>
      <trkpt lat="42.46585" lon="-7.97551167">
        <ele>503.0</ele>
        <time>2018-10-03T09:21:24.000Z</time>
      </trkpt>
      <trkpt lat="42.465865" lon="-7.97551">
        <ele>503.0</ele>
        <time>2018-10-03T09:21:25.000Z</time>
      </trkpt>
      <trkpt lat="42.46588" lon="-7.97550667">
        <ele>503.0</ele>
        <time>2018-10-03T09:21:26.000Z</time>
      </trkpt>
      <trkpt lat="42.46589667" lon="-7.97550333">
        <ele>503.0</ele>
        <time>2018-10-03T09:21:27.000Z</time>
      </trkpt>
      <trkpt lat="42.46591167" lon="-7.9755">
        <ele>503.0</ele>
        <time>2018-10-03T09:21:28.000Z</time>
      </trkpt>
      <trkpt lat="42.46592667" lon="-7.97549833">
        <ele>503.0</ele>
        <time>2018-10-03T09:21:29.000Z</time>
      </trkpt>
      <trkpt lat="42.46593833" lon="-7.97549667">
        <ele>503.0</ele>
        <time>2018-10-03T09:21:30.000Z</time>
      </trkpt>
      <trkpt lat="42.46595167" lon="-7.97549667">
        <ele>503.0</ele>
        <time>2018-10-03T09:21:31.000Z</time>
      </trkpt>
      <trkpt lat="42.46596667" lon="-7.975495">
        <ele>503.0</ele>
        <time>2018-10-03T09:21:32.000Z</time>
      </trkpt>
      <trkpt lat="42.46598167" lon="-7.97549333">
        <ele>503.0</ele>
        <time>2018-10-03T09:21:33.000Z</time>
      </trkpt>
      <trkpt lat="42.46599667" lon="-7.97549167">
        <ele>503.0</ele>
        <time>2018-10-03T09:21:34.000Z</time>
      </trkpt>
      <trkpt lat="42.46601333" lon="-7.97549167">
        <ele>503.0</ele>
        <time>2018-10-03T09:21:35.000Z</time>
      </trkpt>
      <trkpt lat="42.46603" lon="-7.97549167">
        <ele>503.0</ele>
        <time>2018-10-03T09:21:36.000Z</time>
      </trkpt>
      <trkpt lat="42.466045" lon="-7.97549333">
        <ele>503.0</ele>
        <time>2018-10-03T09:21:37.000Z</time>
      </trkpt>
      <trkpt lat="42.46606" lon="-7.97549333">
        <ele>504.0</ele>
        <time>2018-10-03T09:21:38.000Z</time>
      </trkpt>
      <trkpt lat="42.46607333" lon="-7.97549333">
        <ele>504.0</ele>
        <time>2018-10-03T09:21:39.000Z</time>
      </trkpt>
      <trkpt lat="42.46608833" lon="-7.975495">
        <ele>504.0</ele>
        <time>2018-10-03T09:21:40.000Z</time>
      </trkpt>
      <trkpt lat="42.46610167" lon="-7.97549667">
        <ele>504.0</ele>
        <time>2018-10-03T09:21:41.000Z</time>
      </trkpt>
      <trkpt lat="42.46611333" lon="-7.97549833">
        <ele>504.0</ele>
        <time>2018-10-03T09:21:42.000Z</time>
      </trkpt>
      <trkpt lat="42.466125" lon="-7.9755">
        <ele>504.0</ele>
        <time>2018-10-03T09:21:43.000Z</time>
      </trkpt>
      <trkpt lat="42.46613333" lon="-7.97550167">
        <ele>504.0</ele>
        <time>2018-10-03T09:21:44.000Z</time>
      </trkpt>
      <trkpt lat="42.46614333" lon="-7.9755">
        <ele>504.0</ele>
        <time>2018-10-03T09:21:45.000Z</time>
      </trkpt>
      <trkpt lat="42.46615333" lon="-7.9755">
        <ele>504.0</ele>
        <time>2018-10-03T09:21:46.000Z</time>
      </trkpt>
      <trkpt lat="42.46616333" lon="-7.9755">
        <ele>504.0</ele>
        <time>2018-10-03T09:21:47.000Z</time>
      </trkpt>
      <trkpt lat="42.466175" lon="-7.97550167">
        <ele>504.0</ele>
        <time>2018-10-03T09:21:48.000Z</time>
      </trkpt>
      <trkpt lat="42.46618833" lon="-7.975505">
        <ele>504.0</ele>
        <time>2018-10-03T09:21:49.000Z</time>
      </trkpt>
      <trkpt lat="42.46620167" lon="-7.97550667">
        <ele>504.0</ele>
        <time>2018-10-03T09:21:50.000Z</time>
      </trkpt>
      <trkpt lat="42.46621167" lon="-7.97550833">
        <ele>504.0</ele>
        <time>2018-10-03T09:21:51.000Z</time>
      </trkpt>
      <trkpt lat="42.466225" lon="-7.97551">
        <ele>504.0</ele>
        <time>2018-10-03T09:21:52.000Z</time>
      </trkpt>
      <trkpt lat="42.466235" lon="-7.97551333">
        <ele>504.0</ele>
        <time>2018-10-03T09:21:53.000Z</time>
      </trkpt>
      <trkpt lat="42.46624667" lon="-7.97551333">
        <ele>504.0</ele>
        <time>2018-10-03T09:21:54.000Z</time>
      </trkpt>
      <trkpt lat="42.46626" lon="-7.97551333">
        <ele>504.0</ele>
        <time>2018-10-03T09:21:55.000Z</time>
      </trkpt>
      <trkpt lat="42.46627333" lon="-7.97551333">
        <ele>504.0</ele>
        <time>2018-10-03T09:21:56.000Z</time>
      </trkpt>
      <trkpt lat="42.46628667" lon="-7.97551333">
        <ele>504.0</ele>
        <time>2018-10-03T09:21:57.000Z</time>
      </trkpt>
      <trkpt lat="42.4663" lon="-7.97551167">
        <ele>504.0</ele>
        <time>2018-10-03T09:21:58.000Z</time>
      </trkpt>
      <trkpt lat="42.466315" lon="-7.97551167">
        <ele>504.0</ele>
        <time>2018-10-03T09:21:59.000Z</time>
      </trkpt>
      <trkpt lat="42.46632833" lon="-7.97551167">
        <ele>504.0</ele>
        <time>2018-10-03T09:22:00.000Z</time>
      </trkpt>
      <trkpt lat="42.46633833" lon="-7.97551167">
        <ele>505.0</ele>
        <time>2018-10-03T09:22:01.000Z</time>
      </trkpt>
      <trkpt lat="42.46635333" lon="-7.97551333">
        <ele>505.0</ele>
        <time>2018-10-03T09:22:02.000Z</time>
      </trkpt>
      <trkpt lat="42.46636667" lon="-7.97551667">
        <ele>505.0</ele>
        <time>2018-10-03T09:22:03.000Z</time>
      </trkpt>
      <trkpt lat="42.46637833" lon="-7.97552">
        <ele>505.0</ele>
        <time>2018-10-03T09:22:04.000Z</time>
      </trkpt>
      <trkpt lat="42.466395" lon="-7.975525">
        <ele>505.0</ele>
        <time>2018-10-03T09:22:05.000Z</time>
      </trkpt>
      <trkpt lat="42.46641" lon="-7.97552667">
        <ele>505.0</ele>
        <time>2018-10-03T09:22:06.000Z</time>
      </trkpt>
      <trkpt lat="42.466425" lon="-7.97552833">
        <ele>505.0</ele>
        <time>2018-10-03T09:22:07.000Z</time>
      </trkpt>
      <trkpt lat="42.46644" lon="-7.97552833">
        <ele>505.0</ele>
        <time>2018-10-03T09:22:08.000Z</time>
      </trkpt>
      <trkpt lat="42.466455" lon="-7.975525">
        <ele>505.0</ele>
        <time>2018-10-03T09:22:09.000Z</time>
      </trkpt>
      <trkpt lat="42.46646833" lon="-7.97552833">
        <ele>505.0</ele>
        <time>2018-10-03T09:22:10.000Z</time>
      </trkpt>
      <trkpt lat="42.46648333" lon="-7.97553">
        <ele>506.0</ele>
        <time>2018-10-03T09:22:11.000Z</time>
      </trkpt>
      <trkpt lat="42.4665" lon="-7.975535">
        <ele>506.0</ele>
        <time>2018-10-03T09:22:12.000Z</time>
      </trkpt>
      <trkpt lat="42.466515" lon="-7.97553667">
        <ele>506.0</ele>
        <time>2018-10-03T09:22:13.000Z</time>
      </trkpt>
      <trkpt lat="42.46653167" lon="-7.97553667">
        <ele>506.0</ele>
        <time>2018-10-03T09:22:14.000Z</time>
      </trkpt>
      <trkpt lat="42.46654833" lon="-7.97553667">
        <ele>506.0</ele>
        <time>2018-10-03T09:22:15.000Z</time>
      </trkpt>
      <trkpt lat="42.466565" lon="-7.97553833">
        <ele>506.0</ele>
        <time>2018-10-03T09:22:16.000Z</time>
      </trkpt>
      <trkpt lat="42.46658" lon="-7.97554">
        <ele>506.0</ele>
        <time>2018-10-03T09:22:17.000Z</time>
      </trkpt>
      <trkpt lat="42.466595" lon="-7.97554333">
        <ele>506.0</ele>
        <time>2018-10-03T09:22:18.000Z</time>
      </trkpt>
      <trkpt lat="42.46661" lon="-7.97554667">
        <ele>506.0</ele>
        <time>2018-10-03T09:22:19.000Z</time>
      </trkpt>
      <trkpt lat="42.46662333" lon="-7.97555333">
        <ele>506.0</ele>
        <time>2018-10-03T09:22:20.000Z</time>
      </trkpt>
      <trkpt lat="42.46663833" lon="-7.97556">
        <ele>506.0</ele>
        <time>2018-10-03T09:22:21.000Z</time>
      </trkpt>
      <trkpt lat="42.46665167" lon="-7.97556833">
        <ele>506.0</ele>
        <time>2018-10-03T09:22:22.000Z</time>
      </trkpt>
      <trkpt lat="42.466665" lon="-7.97557833">
        <ele>505.0</ele>
        <time>2018-10-03T09:22:23.000Z</time>
      </trkpt>
      <trkpt lat="42.46667833" lon="-7.97559">
        <ele>505.0</ele>
        <time>2018-10-03T09:22:24.000Z</time>
      </trkpt>
      <trkpt lat="42.46669167" lon="-7.97559833">
        <ele>505.0</ele>
        <time>2018-10-03T09:22:25.000Z</time>
      </trkpt>
      <trkpt lat="42.46670333" lon="-7.97561">
        <ele>505.0</ele>
        <time>2018-10-03T09:22:26.000Z</time>
      </trkpt>
      <trkpt lat="42.466715" lon="-7.97562167">
        <ele>505.0</ele>
        <time>2018-10-03T09:22:27.000Z</time>
      </trkpt>
      <trkpt lat="42.466725" lon="-7.975635">
        <ele>505.0</ele>
        <time>2018-10-03T09:22:28.000Z</time>
      </trkpt>
      <trkpt lat="42.466735" lon="-7.97564833">
        <ele>505.0</ele>
        <time>2018-10-03T09:22:29.000Z</time>
      </trkpt>
      <trkpt lat="42.46674333" lon="-7.97566333">
        <ele>505.0</ele>
        <time>2018-10-03T09:22:30.000Z</time>
      </trkpt>
      <trkpt lat="42.46675333" lon="-7.97567667">
        <ele>505.0</ele>
        <time>2018-10-03T09:22:31.000Z</time>
      </trkpt>
      <trkpt lat="42.46676167" lon="-7.97569167">
        <ele>505.0</ele>
        <time>2018-10-03T09:22:32.000Z</time>
      </trkpt>
      <trkpt lat="42.46677167" lon="-7.975705">
        <ele>505.0</ele>
        <time>2018-10-03T09:22:33.000Z</time>
      </trkpt>
      <trkpt lat="42.46678" lon="-7.97571833">
        <ele>505.0</ele>
        <time>2018-10-03T09:22:34.000Z</time>
      </trkpt>
      <trkpt lat="42.46678333" lon="-7.975725">
        <ele>505.0</ele>
        <time>2018-10-03T09:22:35.000Z</time>
      </trkpt>
      <trkpt lat="42.46678833" lon="-7.97572333">
        <ele>505.0</ele>
        <time>2018-10-03T09:22:36.000Z</time>
      </trkpt>
      <trkpt lat="42.46678833" lon="-7.97573667">
        <ele>505.0</ele>
        <time>2018-10-03T09:22:37.000Z</time>
      </trkpt>
      <trkpt lat="42.46679167" lon="-7.97575167">
        <ele>505.0</ele>
        <time>2018-10-03T09:22:38.000Z</time>
      </trkpt>
      <trkpt lat="42.46679833" lon="-7.97576833">
        <ele>505.0</ele>
        <time>2018-10-03T09:22:39.000Z</time>
      </trkpt>
      <trkpt lat="42.466805" lon="-7.975785">
        <ele>505.0</ele>
        <time>2018-10-03T09:22:40.000Z</time>
      </trkpt>
      <trkpt lat="42.46681333" lon="-7.9758">
        <ele>505.0</ele>
        <time>2018-10-03T09:22:41.000Z</time>
      </trkpt>
      <trkpt lat="42.46682167" lon="-7.975815">
        <ele>505.0</ele>
        <time>2018-10-03T09:22:42.000Z</time>
      </trkpt>
      <trkpt lat="42.46683167" lon="-7.97583">
        <ele>505.0</ele>
        <time>2018-10-03T09:22:43.000Z</time>
      </trkpt>
      <trkpt lat="42.46684" lon="-7.975845">
        <ele>505.0</ele>
        <time>2018-10-03T09:22:44.000Z</time>
      </trkpt>
      <trkpt lat="42.46684833" lon="-7.97586167">
        <ele>505.0</ele>
        <time>2018-10-03T09:22:45.000Z</time>
      </trkpt>
      <trkpt lat="42.46686" lon="-7.97587667">
        <ele>505.0</ele>
        <time>2018-10-03T09:22:46.000Z</time>
      </trkpt>
      <trkpt lat="42.46686833" lon="-7.97589333">
        <ele>505.0</ele>
        <time>2018-10-03T09:22:47.000Z</time>
      </trkpt>
      <trkpt lat="42.46687667" lon="-7.97591167">
        <ele>505.0</ele>
        <time>2018-10-03T09:22:48.000Z</time>
      </trkpt>
      <trkpt lat="42.466885" lon="-7.97592667">
        <ele>505.0</ele>
        <time>2018-10-03T09:22:49.000Z</time>
      </trkpt>
      <trkpt lat="42.46689167" lon="-7.97594333">
        <ele>505.0</ele>
        <time>2018-10-03T09:22:50.000Z</time>
      </trkpt>
      <trkpt lat="42.46689833" lon="-7.97596">
        <ele>505.0</ele>
        <time>2018-10-03T09:22:51.000Z</time>
      </trkpt>
      <trkpt lat="42.46690667" lon="-7.975975">
        <ele>505.0</ele>
        <time>2018-10-03T09:22:52.000Z</time>
      </trkpt>
      <trkpt lat="42.466915" lon="-7.97599">
        <ele>505.0</ele>
        <time>2018-10-03T09:22:53.000Z</time>
      </trkpt>
      <trkpt lat="42.46692333" lon="-7.976005">
        <ele>505.0</ele>
        <time>2018-10-03T09:22:54.000Z</time>
      </trkpt>
      <trkpt lat="42.46693" lon="-7.97602">
        <ele>505.0</ele>
        <time>2018-10-03T09:22:55.000Z</time>
      </trkpt>
      <trkpt lat="42.46693667" lon="-7.976035">
        <ele>505.0</ele>
        <time>2018-10-03T09:22:56.000Z</time>
      </trkpt>
      <trkpt lat="42.466945" lon="-7.97604833">
        <ele>505.0</ele>
        <time>2018-10-03T09:22:57.000Z</time>
      </trkpt>
      <trkpt lat="42.46695333" lon="-7.97606333">
        <ele>505.0</ele>
        <time>2018-10-03T09:22:58.000Z</time>
      </trkpt>
      <trkpt lat="42.46696167" lon="-7.97607667">
        <ele>505.0</ele>
        <time>2018-10-03T09:22:59.000Z</time>
      </trkpt>
      <trkpt lat="42.46697" lon="-7.97608833">
        <ele>505.0</ele>
        <time>2018-10-03T09:23:00.000Z</time>
      </trkpt>
      <trkpt lat="42.46698" lon="-7.97610167">
        <ele>505.0</ele>
        <time>2018-10-03T09:23:01.000Z</time>
      </trkpt>
      <trkpt lat="42.46698833" lon="-7.97611333">
        <ele>505.0</ele>
        <time>2018-10-03T09:23:02.000Z</time>
      </trkpt>
      <trkpt lat="42.46699667" lon="-7.97612667">
        <ele>506.0</ele>
        <time>2018-10-03T09:23:03.000Z</time>
      </trkpt>
      <trkpt lat="42.467005" lon="-7.97613833">
        <ele>506.0</ele>
        <time>2018-10-03T09:23:04.000Z</time>
      </trkpt>
      <trkpt lat="42.46701333" lon="-7.97615167">
        <ele>506.0</ele>
        <time>2018-10-03T09:23:05.000Z</time>
      </trkpt>
      <trkpt lat="42.46702" lon="-7.976165">
        <ele>506.0</ele>
        <time>2018-10-03T09:23:06.000Z</time>
      </trkpt>
      <trkpt lat="42.46702833" lon="-7.97617833">
        <ele>506.0</ele>
        <time>2018-10-03T09:23:07.000Z</time>
      </trkpt>
      <trkpt lat="42.467035" lon="-7.97619">
        <ele>506.0</ele>
        <time>2018-10-03T09:23:08.000Z</time>
      </trkpt>
      <trkpt lat="42.46704333" lon="-7.97620333">
        <ele>506.0</ele>
        <time>2018-10-03T09:23:09.000Z</time>
      </trkpt>
      <trkpt lat="42.46705167" lon="-7.976215">
        <ele>506.0</ele>
        <time>2018-10-03T09:23:10.000Z</time>
      </trkpt>
      <trkpt lat="42.46706167" lon="-7.97622667">
        <ele>506.0</ele>
        <time>2018-10-03T09:23:11.000Z</time>
      </trkpt>
      <trkpt lat="42.46707" lon="-7.97624">
        <ele>507.0</ele>
        <time>2018-10-03T09:23:12.000Z</time>
      </trkpt>
      <trkpt lat="42.46707667" lon="-7.97625333">
        <ele>507.0</ele>
        <time>2018-10-03T09:23:13.000Z</time>
      </trkpt>
      <trkpt lat="42.467085" lon="-7.97626667">
        <ele>507.0</ele>
        <time>2018-10-03T09:23:14.000Z</time>
      </trkpt>
      <trkpt lat="42.46709333" lon="-7.97628">
        <ele>507.0</ele>
        <time>2018-10-03T09:23:15.000Z</time>
      </trkpt>
      <trkpt lat="42.4671" lon="-7.976295">
        <ele>507.0</ele>
        <time>2018-10-03T09:23:16.000Z</time>
      </trkpt>
      <trkpt lat="42.46711333" lon="-7.97631">
        <ele>507.0</ele>
        <time>2018-10-03T09:23:17.000Z</time>
      </trkpt>
      <trkpt lat="42.46711833" lon="-7.97632333">
        <ele>508.0</ele>
        <time>2018-10-03T09:23:18.000Z</time>
      </trkpt>
      <trkpt lat="42.46712833" lon="-7.97633667">
        <ele>508.0</ele>
        <time>2018-10-03T09:23:19.000Z</time>
      </trkpt>
      <trkpt lat="42.467135" lon="-7.97634833">
        <ele>508.0</ele>
        <time>2018-10-03T09:23:20.000Z</time>
      </trkpt>
      <trkpt lat="42.467145" lon="-7.97636333">
        <ele>508.0</ele>
        <time>2018-10-03T09:23:21.000Z</time>
      </trkpt>
      <trkpt lat="42.467155" lon="-7.97637833">
        <ele>508.0</ele>
        <time>2018-10-03T09:23:22.000Z</time>
      </trkpt>
      <trkpt lat="42.467165" lon="-7.97639167">
        <ele>508.0</ele>
        <time>2018-10-03T09:23:23.000Z</time>
      </trkpt>
      <trkpt lat="42.46717667" lon="-7.97640667">
        <ele>509.0</ele>
        <time>2018-10-03T09:23:24.000Z</time>
      </trkpt>
      <trkpt lat="42.46719" lon="-7.97642167">
        <ele>509.0</ele>
        <time>2018-10-03T09:23:25.000Z</time>
      </trkpt>
      <trkpt lat="42.46720167" lon="-7.976435">
        <ele>509.0</ele>
        <time>2018-10-03T09:23:26.000Z</time>
      </trkpt>
      <trkpt lat="42.46721167" lon="-7.97645">
        <ele>509.0</ele>
        <time>2018-10-03T09:23:27.000Z</time>
      </trkpt>
      <trkpt lat="42.46721833" lon="-7.97646333">
        <ele>509.0</ele>
        <time>2018-10-03T09:23:28.000Z</time>
      </trkpt>
      <trkpt lat="42.46722833" lon="-7.97647667">
        <ele>510.0</ele>
        <time>2018-10-03T09:23:29.000Z</time>
      </trkpt>
      <trkpt lat="42.46723667" lon="-7.97649">
        <ele>510.0</ele>
        <time>2018-10-03T09:23:30.000Z</time>
      </trkpt>
      <trkpt lat="42.46724833" lon="-7.97650167">
        <ele>510.0</ele>
        <time>2018-10-03T09:23:31.000Z</time>
      </trkpt>
      <trkpt lat="42.46726" lon="-7.976515">
        <ele>510.0</ele>
        <time>2018-10-03T09:23:32.000Z</time>
      </trkpt>
      <trkpt lat="42.46727" lon="-7.97652833">
        <ele>510.0</ele>
        <time>2018-10-03T09:23:33.000Z</time>
      </trkpt>
      <trkpt lat="42.46728" lon="-7.97654167">
        <ele>510.0</ele>
        <time>2018-10-03T09:23:34.000Z</time>
      </trkpt>
      <trkpt lat="42.46729" lon="-7.97655333">
        <ele>510.0</ele>
        <time>2018-10-03T09:23:35.000Z</time>
      </trkpt>
      <trkpt lat="42.46730167" lon="-7.97656667">
        <ele>510.0</ele>
        <time>2018-10-03T09:23:36.000Z</time>
      </trkpt>
      <trkpt lat="42.46731333" lon="-7.97657667">
        <ele>511.0</ele>
        <time>2018-10-03T09:23:37.000Z</time>
      </trkpt>
      <trkpt lat="42.467325" lon="-7.97659167">
        <ele>511.0</ele>
        <time>2018-10-03T09:23:38.000Z</time>
      </trkpt>
      <trkpt lat="42.46733333" lon="-7.97660333">
        <ele>511.0</ele>
        <time>2018-10-03T09:23:39.000Z</time>
      </trkpt>
      <trkpt lat="42.46734333" lon="-7.97661333">
        <ele>511.0</ele>
        <time>2018-10-03T09:23:40.000Z</time>
      </trkpt>
      <trkpt lat="42.46735167" lon="-7.97662333">
        <ele>511.0</ele>
        <time>2018-10-03T09:23:41.000Z</time>
      </trkpt>
      <trkpt lat="42.46736" lon="-7.97663333">
        <ele>511.0</ele>
        <time>2018-10-03T09:23:42.000Z</time>
      </trkpt>
      <trkpt lat="42.46736833" lon="-7.97664167">
        <ele>511.0</ele>
        <time>2018-10-03T09:23:43.000Z</time>
      </trkpt>
      <trkpt lat="42.46737667" lon="-7.97665">
        <ele>511.0</ele>
        <time>2018-10-03T09:23:44.000Z</time>
      </trkpt>
      <trkpt lat="42.46738333" lon="-7.97666">
        <ele>510.0</ele>
        <time>2018-10-03T09:23:45.000Z</time>
      </trkpt>
      <trkpt lat="42.46739167" lon="-7.97667167">
        <ele>510.0</ele>
        <time>2018-10-03T09:23:46.000Z</time>
      </trkpt>
      <trkpt lat="42.4674" lon="-7.97668333">
        <ele>510.0</ele>
        <time>2018-10-03T09:23:47.000Z</time>
      </trkpt>
      <trkpt lat="42.46740833" lon="-7.97669667">
        <ele>510.0</ele>
        <time>2018-10-03T09:23:48.000Z</time>
      </trkpt>
      <trkpt lat="42.467415" lon="-7.97671">
        <ele>510.0</ele>
        <time>2018-10-03T09:23:49.000Z</time>
      </trkpt>
      <trkpt lat="42.46742333" lon="-7.97672833">
        <ele>510.0</ele>
        <time>2018-10-03T09:23:50.000Z</time>
      </trkpt>
      <trkpt lat="42.46742833" lon="-7.976745">
        <ele>510.0</ele>
        <time>2018-10-03T09:23:51.000Z</time>
      </trkpt>
      <trkpt lat="42.467435" lon="-7.97676167">
        <ele>510.0</ele>
        <time>2018-10-03T09:23:52.000Z</time>
      </trkpt>
      <trkpt lat="42.46744333" lon="-7.97677833">
        <ele>510.0</ele>
        <time>2018-10-03T09:23:53.000Z</time>
      </trkpt>
      <trkpt lat="42.467455" lon="-7.976795">
        <ele>510.0</ele>
        <time>2018-10-03T09:23:54.000Z</time>
      </trkpt>
      <trkpt lat="42.46746833" lon="-7.97681">
        <ele>510.0</ele>
        <time>2018-10-03T09:23:55.000Z</time>
      </trkpt>
      <trkpt lat="42.46748167" lon="-7.976825">
        <ele>510.0</ele>
        <time>2018-10-03T09:23:56.000Z</time>
      </trkpt>
      <trkpt lat="42.46749167" lon="-7.97684">
        <ele>510.0</ele>
        <time>2018-10-03T09:23:57.000Z</time>
      </trkpt>
      <trkpt lat="42.46750333" lon="-7.976855">
        <ele>510.0</ele>
        <time>2018-10-03T09:23:58.000Z</time>
      </trkpt>
      <trkpt lat="42.46751333" lon="-7.97686833">
        <ele>510.0</ele>
        <time>2018-10-03T09:23:59.000Z</time>
      </trkpt>
      <trkpt lat="42.467525" lon="-7.97688333">
        <ele>510.0</ele>
        <time>2018-10-03T09:24:00.000Z</time>
      </trkpt>
      <trkpt lat="42.46753833" lon="-7.97689833">
        <ele>510.0</ele>
        <time>2018-10-03T09:24:01.000Z</time>
      </trkpt>
      <trkpt lat="42.46755167" lon="-7.97691333">
        <ele>510.0</ele>
        <time>2018-10-03T09:24:02.000Z</time>
      </trkpt>
      <trkpt lat="42.46756167" lon="-7.97692833">
        <ele>510.0</ele>
        <time>2018-10-03T09:24:03.000Z</time>
      </trkpt>
      <trkpt lat="42.46757333" lon="-7.97694167">
        <ele>510.0</ele>
        <time>2018-10-03T09:24:04.000Z</time>
      </trkpt>
      <trkpt lat="42.46758333" lon="-7.97695667">
        <ele>509.0</ele>
        <time>2018-10-03T09:24:05.000Z</time>
      </trkpt>
      <trkpt lat="42.467595" lon="-7.97697">
        <ele>509.0</ele>
        <time>2018-10-03T09:24:06.000Z</time>
      </trkpt>
      <trkpt lat="42.467605" lon="-7.97698333">
        <ele>509.0</ele>
        <time>2018-10-03T09:24:07.000Z</time>
      </trkpt>
      <trkpt lat="42.46761667" lon="-7.97699667">
        <ele>509.0</ele>
        <time>2018-10-03T09:24:08.000Z</time>
      </trkpt>
      <trkpt lat="42.46762833" lon="-7.97701">
        <ele>509.0</ele>
        <time>2018-10-03T09:24:09.000Z</time>
      </trkpt>
      <trkpt lat="42.46763833" lon="-7.977025">
        <ele>509.0</ele>
        <time>2018-10-03T09:24:10.000Z</time>
      </trkpt>
      <trkpt lat="42.46764833" lon="-7.97703833">
        <ele>509.0</ele>
        <time>2018-10-03T09:24:11.000Z</time>
      </trkpt>
      <trkpt lat="42.46766" lon="-7.97705167">
        <ele>509.0</ele>
        <time>2018-10-03T09:24:12.000Z</time>
      </trkpt>
      <trkpt lat="42.46767167" lon="-7.977065">
        <ele>509.0</ele>
        <time>2018-10-03T09:24:13.000Z</time>
      </trkpt>
      <trkpt lat="42.46768167" lon="-7.97707667">
        <ele>509.0</ele>
        <time>2018-10-03T09:24:14.000Z</time>
      </trkpt>
      <trkpt lat="42.46769167" lon="-7.97708833">
        <ele>509.0</ele>
        <time>2018-10-03T09:24:15.000Z</time>
      </trkpt>
      <trkpt lat="42.46770167" lon="-7.97710167">
        <ele>509.0</ele>
        <time>2018-10-03T09:24:16.000Z</time>
      </trkpt>
      <trkpt lat="42.46771167" lon="-7.97711333">
        <ele>509.0</ele>
        <time>2018-10-03T09:24:17.000Z</time>
      </trkpt>
      <trkpt lat="42.46772333" lon="-7.97712667">
        <ele>509.0</ele>
        <time>2018-10-03T09:24:18.000Z</time>
      </trkpt>
      <trkpt lat="42.467735" lon="-7.97713667">
        <ele>509.0</ele>
        <time>2018-10-03T09:24:19.000Z</time>
      </trkpt>
      <trkpt lat="42.46774667" lon="-7.97715">
        <ele>509.0</ele>
        <time>2018-10-03T09:24:20.000Z</time>
      </trkpt>
      <trkpt lat="42.46775833" lon="-7.97716">
        <ele>509.0</ele>
        <time>2018-10-03T09:24:21.000Z</time>
      </trkpt>
      <trkpt lat="42.46777167" lon="-7.97717167">
        <ele>509.0</ele>
        <time>2018-10-03T09:24:22.000Z</time>
      </trkpt>
      <trkpt lat="42.46778167" lon="-7.97718667">
        <ele>509.0</ele>
        <time>2018-10-03T09:24:23.000Z</time>
      </trkpt>
      <trkpt lat="42.46779" lon="-7.9772">
        <ele>509.0</ele>
        <time>2018-10-03T09:24:24.000Z</time>
      </trkpt>
      <trkpt lat="42.46779833" lon="-7.97721333">
        <ele>509.0</ele>
        <time>2018-10-03T09:24:25.000Z</time>
      </trkpt>
      <trkpt lat="42.46780833" lon="-7.97722667">
        <ele>509.0</ele>
        <time>2018-10-03T09:24:26.000Z</time>
      </trkpt>
      <trkpt lat="42.46781833" lon="-7.97724">
        <ele>509.0</ele>
        <time>2018-10-03T09:24:27.000Z</time>
      </trkpt>
      <trkpt lat="42.46782667" lon="-7.97725">
        <ele>509.0</ele>
        <time>2018-10-03T09:24:28.000Z</time>
      </trkpt>
      <trkpt lat="42.46783833" lon="-7.97726333">
        <ele>509.0</ele>
        <time>2018-10-03T09:24:29.000Z</time>
      </trkpt>
      <trkpt lat="42.46784833" lon="-7.97727667">
        <ele>509.0</ele>
        <time>2018-10-03T09:24:30.000Z</time>
      </trkpt>
      <trkpt lat="42.46786" lon="-7.97728833">
        <ele>509.0</ele>
        <time>2018-10-03T09:24:31.000Z</time>
      </trkpt>
      <trkpt lat="42.46786833" lon="-7.97729833">
        <ele>509.0</ele>
        <time>2018-10-03T09:24:32.000Z</time>
      </trkpt>
      <trkpt lat="42.46787333" lon="-7.97730333">
        <ele>509.0</ele>
        <time>2018-10-03T09:24:33.000Z</time>
      </trkpt>
      <trkpt lat="42.46787333" lon="-7.977305">
        <ele>509.0</ele>
        <time>2018-10-03T09:24:34.000Z</time>
      </trkpt>
      <trkpt lat="42.46787167" lon="-7.97730667">
        <ele>509.0</ele>
        <time>2018-10-03T09:24:35.000Z</time>
      </trkpt>
      <trkpt lat="42.46787167" lon="-7.97730833">
        <ele>509.0</ele>
        <time>2018-10-03T09:24:36.000Z</time>
      </trkpt>
      <trkpt lat="42.46787167" lon="-7.97731">
        <ele>509.0</ele>
        <time>2018-10-03T09:24:37.000Z</time>
      </trkpt>
      <trkpt lat="42.46787" lon="-7.97731167">
        <ele>509.0</ele>
        <time>2018-10-03T09:24:38.000Z</time>
      </trkpt>
      <trkpt lat="42.46787" lon="-7.97731333">
        <ele>509.0</ele>
        <time>2018-10-03T09:24:39.000Z</time>
      </trkpt>
      <trkpt lat="42.46787" lon="-7.97731333">
        <ele>509.0</ele>
        <time>2018-10-03T09:24:40.000Z</time>
      </trkpt>
      <trkpt lat="42.46787" lon="-7.977315">
        <ele>509.0</ele>
        <time>2018-10-03T09:24:41.000Z</time>
      </trkpt>
      <trkpt lat="42.46787167" lon="-7.97732">
        <ele>509.0</ele>
        <time>2018-10-03T09:24:42.000Z</time>
      </trkpt>
      <trkpt lat="42.46787833" lon="-7.97732833">
        <ele>509.0</ele>
        <time>2018-10-03T09:24:43.000Z</time>
      </trkpt>
      <trkpt lat="42.46788667" lon="-7.97733667">
        <ele>509.0</ele>
        <time>2018-10-03T09:24:44.000Z</time>
      </trkpt>
      <trkpt lat="42.467895" lon="-7.97734833">
        <ele>509.0</ele>
        <time>2018-10-03T09:24:45.000Z</time>
      </trkpt>
      <trkpt lat="42.46790667" lon="-7.97735833">
        <ele>509.0</ele>
        <time>2018-10-03T09:24:46.000Z</time>
      </trkpt>
      <trkpt lat="42.46791667" lon="-7.97737">
        <ele>509.0</ele>
        <time>2018-10-03T09:24:47.000Z</time>
      </trkpt>
      <trkpt lat="42.46792667" lon="-7.97738167">
        <ele>509.0</ele>
        <time>2018-10-03T09:24:48.000Z</time>
      </trkpt>
      <trkpt lat="42.46793667" lon="-7.977395">
        <ele>509.0</ele>
        <time>2018-10-03T09:24:49.000Z</time>
      </trkpt>
      <trkpt lat="42.467945" lon="-7.97741">
        <ele>509.0</ele>
        <time>2018-10-03T09:24:50.000Z</time>
      </trkpt>
      <trkpt lat="42.46795167" lon="-7.97742833">
        <ele>509.0</ele>
        <time>2018-10-03T09:24:51.000Z</time>
      </trkpt>
      <trkpt lat="42.46796" lon="-7.97744333">
        <ele>509.0</ele>
        <time>2018-10-03T09:24:52.000Z</time>
      </trkpt>
      <trkpt lat="42.46797" lon="-7.97745833">
        <ele>509.0</ele>
        <time>2018-10-03T09:24:53.000Z</time>
      </trkpt>
      <trkpt lat="42.46797833" lon="-7.97747167">
        <ele>509.0</ele>
        <time>2018-10-03T09:24:54.000Z</time>
      </trkpt>
      <trkpt lat="42.46798667" lon="-7.977485">
        <ele>509.0</ele>
        <time>2018-10-03T09:24:55.000Z</time>
      </trkpt>
      <trkpt lat="42.46799667" lon="-7.97749833">
        <ele>509.0</ele>
        <time>2018-10-03T09:24:56.000Z</time>
      </trkpt>
      <trkpt lat="42.468005" lon="-7.97751167">
        <ele>509.0</ele>
        <time>2018-10-03T09:24:57.000Z</time>
      </trkpt>
      <trkpt lat="42.46801167" lon="-7.97752167">
        <ele>509.0</ele>
        <time>2018-10-03T09:24:58.000Z</time>
      </trkpt>
      <trkpt lat="42.46801667" lon="-7.97753">
        <ele>509.0</ele>
        <time>2018-10-03T09:24:59.000Z</time>
      </trkpt>
      <trkpt lat="42.46802333" lon="-7.97753833">
        <ele>509.0</ele>
        <time>2018-10-03T09:25:00.000Z</time>
      </trkpt>
      <trkpt lat="42.46802667" lon="-7.97755">
        <ele>509.0</ele>
        <time>2018-10-03T09:25:01.000Z</time>
      </trkpt>
      <trkpt lat="42.46803" lon="-7.97756333">
        <ele>509.0</ele>
        <time>2018-10-03T09:25:02.000Z</time>
      </trkpt>
      <trkpt lat="42.46803333" lon="-7.97758">
        <ele>510.0</ele>
        <time>2018-10-03T09:25:03.000Z</time>
      </trkpt>
      <trkpt lat="42.46803667" lon="-7.97759667">
        <ele>510.0</ele>
        <time>2018-10-03T09:25:04.000Z</time>
      </trkpt>
      <trkpt lat="42.46804167" lon="-7.97761167">
        <ele>510.0</ele>
        <time>2018-10-03T09:25:05.000Z</time>
      </trkpt>
      <trkpt lat="42.46804833" lon="-7.977625">
        <ele>510.0</ele>
        <time>2018-10-03T09:25:06.000Z</time>
      </trkpt>
      <trkpt lat="42.468055" lon="-7.97763833">
        <ele>510.0</ele>
        <time>2018-10-03T09:25:07.000Z</time>
      </trkpt>
      <trkpt lat="42.46806" lon="-7.97765">
        <ele>510.0</ele>
        <time>2018-10-03T09:25:08.000Z</time>
      </trkpt>
      <trkpt lat="42.46806667" lon="-7.97766167">
        <ele>510.0</ele>
        <time>2018-10-03T09:25:09.000Z</time>
      </trkpt>
      <trkpt lat="42.46807167" lon="-7.97767333">
        <ele>511.0</ele>
        <time>2018-10-03T09:25:10.000Z</time>
      </trkpt>
      <trkpt lat="42.46807833" lon="-7.97768667">
        <ele>511.0</ele>
        <time>2018-10-03T09:25:11.000Z</time>
      </trkpt>
      <trkpt lat="42.46808333" lon="-7.9777">
        <ele>511.0</ele>
        <time>2018-10-03T09:25:12.000Z</time>
      </trkpt>
      <trkpt lat="42.46808833" lon="-7.97771333">
        <ele>512.0</ele>
        <time>2018-10-03T09:25:13.000Z</time>
      </trkpt>
      <trkpt lat="42.46809333" lon="-7.97772833">
        <ele>512.0</ele>
        <time>2018-10-03T09:25:14.000Z</time>
      </trkpt>
      <trkpt lat="42.46809833" lon="-7.97774333">
        <ele>512.0</ele>
        <time>2018-10-03T09:25:15.000Z</time>
      </trkpt>
      <trkpt lat="42.46810333" lon="-7.97776">
        <ele>512.0</ele>
        <time>2018-10-03T09:25:16.000Z</time>
      </trkpt>
      <trkpt lat="42.46810833" lon="-7.97777833">
        <ele>512.0</ele>
        <time>2018-10-03T09:25:17.000Z</time>
      </trkpt>
      <trkpt lat="42.468115" lon="-7.977795">
        <ele>512.0</ele>
        <time>2018-10-03T09:25:18.000Z</time>
      </trkpt>
      <trkpt lat="42.46812" lon="-7.97781167">
        <ele>512.0</ele>
        <time>2018-10-03T09:25:19.000Z</time>
      </trkpt>
      <trkpt lat="42.46812667" lon="-7.97782667">
        <ele>512.0</ele>
        <time>2018-10-03T09:25:20.000Z</time>
      </trkpt>
      <trkpt lat="42.46813167" lon="-7.97784">
        <ele>513.0</ele>
        <time>2018-10-03T09:25:21.000Z</time>
      </trkpt>
      <trkpt lat="42.468135" lon="-7.97785833">
        <ele>513.0</ele>
        <time>2018-10-03T09:25:22.000Z</time>
      </trkpt>
      <trkpt lat="42.46813833" lon="-7.97787667">
        <ele>513.0</ele>
        <time>2018-10-03T09:25:23.000Z</time>
      </trkpt>
      <trkpt lat="42.46814333" lon="-7.97789333">
        <ele>513.0</ele>
        <time>2018-10-03T09:25:24.000Z</time>
      </trkpt>
      <trkpt lat="42.46814833" lon="-7.97791333">
        <ele>513.0</ele>
        <time>2018-10-03T09:25:25.000Z</time>
      </trkpt>
      <trkpt lat="42.46815333" lon="-7.97793167">
        <ele>513.0</ele>
        <time>2018-10-03T09:25:26.000Z</time>
      </trkpt>
      <trkpt lat="42.46816" lon="-7.97795167">
        <ele>513.0</ele>
        <time>2018-10-03T09:25:27.000Z</time>
      </trkpt>
      <trkpt lat="42.46816667" lon="-7.97797167">
        <ele>513.0</ele>
        <time>2018-10-03T09:25:28.000Z</time>
      </trkpt>
      <trkpt lat="42.46817333" lon="-7.97799167">
        <ele>513.0</ele>
        <time>2018-10-03T09:25:29.000Z</time>
      </trkpt>
      <trkpt lat="42.46818" lon="-7.97801167">
        <ele>514.0</ele>
        <time>2018-10-03T09:25:30.000Z</time>
      </trkpt>
      <trkpt lat="42.468185" lon="-7.97803">
        <ele>514.0</ele>
        <time>2018-10-03T09:25:31.000Z</time>
      </trkpt>
      <trkpt lat="42.46819167" lon="-7.978045">
        <ele>514.0</ele>
        <time>2018-10-03T09:25:32.000Z</time>
      </trkpt>
      <trkpt lat="42.46819667" lon="-7.97806167">
        <ele>514.0</ele>
        <time>2018-10-03T09:25:33.000Z</time>
      </trkpt>
      <trkpt lat="42.46820167" lon="-7.97808">
        <ele>514.0</ele>
        <time>2018-10-03T09:25:34.000Z</time>
      </trkpt>
      <trkpt lat="42.46820833" lon="-7.97809833">
        <ele>515.0</ele>
        <time>2018-10-03T09:25:35.000Z</time>
      </trkpt>
      <trkpt lat="42.468215" lon="-7.97811833">
        <ele>515.0</ele>
        <time>2018-10-03T09:25:36.000Z</time>
      </trkpt>
      <trkpt lat="42.46822167" lon="-7.97813667">
        <ele>515.0</ele>
        <time>2018-10-03T09:25:37.000Z</time>
      </trkpt>
      <trkpt lat="42.46822667" lon="-7.978155">
        <ele>515.0</ele>
        <time>2018-10-03T09:25:38.000Z</time>
      </trkpt>
      <trkpt lat="42.46823167" lon="-7.978175">
        <ele>515.0</ele>
        <time>2018-10-03T09:25:39.000Z</time>
      </trkpt>
      <trkpt lat="42.46823667" lon="-7.97819333">
        <ele>515.0</ele>
        <time>2018-10-03T09:25:40.000Z</time>
      </trkpt>
      <trkpt lat="42.46824167" lon="-7.97821333">
        <ele>516.0</ele>
        <time>2018-10-03T09:25:41.000Z</time>
      </trkpt>
      <trkpt lat="42.46824667" lon="-7.97823333">
        <ele>516.0</ele>
        <time>2018-10-03T09:25:42.000Z</time>
      </trkpt>
      <trkpt lat="42.46825333" lon="-7.97825167">
        <ele>516.0</ele>
        <time>2018-10-03T09:25:43.000Z</time>
      </trkpt>
      <trkpt lat="42.46825833" lon="-7.97826833">
        <ele>516.0</ele>
        <time>2018-10-03T09:25:44.000Z</time>
      </trkpt>
      <trkpt lat="42.46826333" lon="-7.978285">
        <ele>516.0</ele>
        <time>2018-10-03T09:25:45.000Z</time>
      </trkpt>
      <trkpt lat="42.46826833" lon="-7.9783">
        <ele>516.0</ele>
        <time>2018-10-03T09:25:46.000Z</time>
      </trkpt>
      <trkpt lat="42.46827167" lon="-7.978315">
        <ele>516.0</ele>
        <time>2018-10-03T09:25:47.000Z</time>
      </trkpt>
      <trkpt lat="42.46827833" lon="-7.97832833">
        <ele>516.0</ele>
        <time>2018-10-03T09:25:48.000Z</time>
      </trkpt>
      <trkpt lat="42.468285" lon="-7.97834333">
        <ele>516.0</ele>
        <time>2018-10-03T09:25:49.000Z</time>
      </trkpt>
      <trkpt lat="42.46829167" lon="-7.97836">
        <ele>516.0</ele>
        <time>2018-10-03T09:25:50.000Z</time>
      </trkpt>
      <trkpt lat="42.46829667" lon="-7.97837333">
        <ele>516.0</ele>
        <time>2018-10-03T09:25:51.000Z</time>
      </trkpt>
      <trkpt lat="42.46830333" lon="-7.97838667">
        <ele>516.0</ele>
        <time>2018-10-03T09:25:52.000Z</time>
      </trkpt>
      <trkpt lat="42.46831" lon="-7.9784">
        <ele>516.0</ele>
        <time>2018-10-03T09:25:53.000Z</time>
      </trkpt>
      <trkpt lat="42.468315" lon="-7.97841333">
        <ele>516.0</ele>
        <time>2018-10-03T09:25:54.000Z</time>
      </trkpt>
      <trkpt lat="42.46831833" lon="-7.97842833">
        <ele>517.0</ele>
        <time>2018-10-03T09:25:55.000Z</time>
      </trkpt>
      <trkpt lat="42.46832333" lon="-7.97844167">
        <ele>517.0</ele>
        <time>2018-10-03T09:25:56.000Z</time>
      </trkpt>
      <trkpt lat="42.46832833" lon="-7.978455">
        <ele>517.0</ele>
        <time>2018-10-03T09:25:57.000Z</time>
      </trkpt>
      <trkpt lat="42.46833333" lon="-7.97846833">
        <ele>517.0</ele>
        <time>2018-10-03T09:25:58.000Z</time>
      </trkpt>
      <trkpt lat="42.46834" lon="-7.97848333">
        <ele>517.0</ele>
        <time>2018-10-03T09:25:59.000Z</time>
      </trkpt>
      <trkpt lat="42.468345" lon="-7.9785">
        <ele>518.0</ele>
        <time>2018-10-03T09:26:00.000Z</time>
      </trkpt>
      <trkpt lat="42.46835" lon="-7.97851667">
        <ele>518.0</ele>
        <time>2018-10-03T09:26:01.000Z</time>
      </trkpt>
      <trkpt lat="42.468355" lon="-7.978535">
        <ele>518.0</ele>
        <time>2018-10-03T09:26:02.000Z</time>
      </trkpt>
      <trkpt lat="42.46836" lon="-7.97855167">
        <ele>518.0</ele>
        <time>2018-10-03T09:26:03.000Z</time>
      </trkpt>
      <trkpt lat="42.468365" lon="-7.97857">
        <ele>518.0</ele>
        <time>2018-10-03T09:26:04.000Z</time>
      </trkpt>
      <trkpt lat="42.46837" lon="-7.97858833">
        <ele>518.0</ele>
        <time>2018-10-03T09:26:05.000Z</time>
      </trkpt>
      <trkpt lat="42.46837333" lon="-7.97860833">
        <ele>518.0</ele>
        <time>2018-10-03T09:26:06.000Z</time>
      </trkpt>
      <trkpt lat="42.46837833" lon="-7.97862833">
        <ele>518.0</ele>
        <time>2018-10-03T09:26:07.000Z</time>
      </trkpt>
      <trkpt lat="42.46838333" lon="-7.97864833">
        <ele>518.0</ele>
        <time>2018-10-03T09:26:08.000Z</time>
      </trkpt>
      <trkpt lat="42.46838667" lon="-7.97866833">
        <ele>518.0</ele>
        <time>2018-10-03T09:26:09.000Z</time>
      </trkpt>
      <trkpt lat="42.46839" lon="-7.97868333">
        <ele>519.0</ele>
        <time>2018-10-03T09:26:10.000Z</time>
      </trkpt>
      <trkpt lat="42.46839333" lon="-7.97869167">
        <ele>519.0</ele>
        <time>2018-10-03T09:26:11.000Z</time>
      </trkpt>
      <trkpt lat="42.468395" lon="-7.97869833">
        <ele>519.0</ele>
        <time>2018-10-03T09:26:12.000Z</time>
      </trkpt>
      <trkpt lat="42.46839667" lon="-7.97870667">
        <ele>519.0</ele>
        <time>2018-10-03T09:26:13.000Z</time>
      </trkpt>
      <trkpt lat="42.46840167" lon="-7.97872">
        <ele>519.0</ele>
        <time>2018-10-03T09:26:14.000Z</time>
      </trkpt>
      <trkpt lat="42.46840833" lon="-7.97873167">
        <ele>519.0</ele>
        <time>2018-10-03T09:26:15.000Z</time>
      </trkpt>
      <trkpt lat="42.46841167" lon="-7.97874667">
        <ele>519.0</ele>
        <time>2018-10-03T09:26:16.000Z</time>
      </trkpt>
      <trkpt lat="42.46841" lon="-7.97876167">
        <ele>520.0</ele>
        <time>2018-10-03T09:26:17.000Z</time>
      </trkpt>
      <trkpt lat="42.46840667" lon="-7.97877833">
        <ele>520.0</ele>
        <time>2018-10-03T09:26:18.000Z</time>
      </trkpt>
      <trkpt lat="42.468405" lon="-7.978795">
        <ele>520.0</ele>
        <time>2018-10-03T09:26:19.000Z</time>
      </trkpt>
      <trkpt lat="42.46840833" lon="-7.97881167">
        <ele>520.0</ele>
        <time>2018-10-03T09:26:20.000Z</time>
      </trkpt>
      <trkpt lat="42.46840833" lon="-7.97882667">
        <ele>521.0</ele>
        <time>2018-10-03T09:26:21.000Z</time>
      </trkpt>
      <trkpt lat="42.46841" lon="-7.97884333">
        <ele>521.0</ele>
        <time>2018-10-03T09:26:22.000Z</time>
      </trkpt>
      <trkpt lat="42.46841333" lon="-7.97886167">
        <ele>521.0</ele>
        <time>2018-10-03T09:26:23.000Z</time>
      </trkpt>
      <trkpt lat="42.468415" lon="-7.97888">
        <ele>521.0</ele>
        <time>2018-10-03T09:26:24.000Z</time>
      </trkpt>
      <trkpt lat="42.468415" lon="-7.97889667">
        <ele>522.0</ele>
        <time>2018-10-03T09:26:25.000Z</time>
      </trkpt>
      <trkpt lat="42.46841833" lon="-7.97891333">
        <ele>522.0</ele>
        <time>2018-10-03T09:26:26.000Z</time>
      </trkpt>
      <trkpt lat="42.46842167" lon="-7.97893167">
        <ele>522.0</ele>
        <time>2018-10-03T09:26:27.000Z</time>
      </trkpt>
      <trkpt lat="42.46842667" lon="-7.97894833">
        <ele>522.0</ele>
        <time>2018-10-03T09:26:28.000Z</time>
      </trkpt>
      <trkpt lat="42.46843" lon="-7.97896833">
        <ele>522.0</ele>
        <time>2018-10-03T09:26:29.000Z</time>
      </trkpt>
      <trkpt lat="42.46843333" lon="-7.97898667">
        <ele>522.0</ele>
        <time>2018-10-03T09:26:30.000Z</time>
      </trkpt>
      <trkpt lat="42.468435" lon="-7.97900667">
        <ele>522.0</ele>
        <time>2018-10-03T09:26:31.000Z</time>
      </trkpt>
      <trkpt lat="42.46843667" lon="-7.97902667">
        <ele>522.0</ele>
        <time>2018-10-03T09:26:32.000Z</time>
      </trkpt>
      <trkpt lat="42.46843833" lon="-7.97904667">
        <ele>522.0</ele>
        <time>2018-10-03T09:26:33.000Z</time>
      </trkpt>
      <trkpt lat="42.46844167" lon="-7.97906667">
        <ele>522.0</ele>
        <time>2018-10-03T09:26:34.000Z</time>
      </trkpt>
      <trkpt lat="42.46844333" lon="-7.97908667">
        <ele>522.0</ele>
        <time>2018-10-03T09:26:35.000Z</time>
      </trkpt>
      <trkpt lat="42.46844667" lon="-7.97910667">
        <ele>522.0</ele>
        <time>2018-10-03T09:26:36.000Z</time>
      </trkpt>
      <trkpt lat="42.46845" lon="-7.979125">
        <ele>522.0</ele>
        <time>2018-10-03T09:26:37.000Z</time>
      </trkpt>
      <trkpt lat="42.46845167" lon="-7.979145">
        <ele>522.0</ele>
        <time>2018-10-03T09:26:38.000Z</time>
      </trkpt>
      <trkpt lat="42.46845333" lon="-7.979165">
        <ele>522.0</ele>
        <time>2018-10-03T09:26:39.000Z</time>
      </trkpt>
      <trkpt lat="42.468455" lon="-7.979185">
        <ele>522.0</ele>
        <time>2018-10-03T09:26:40.000Z</time>
      </trkpt>
      <trkpt lat="42.46845667" lon="-7.97920667">
        <ele>522.0</ele>
        <time>2018-10-03T09:26:41.000Z</time>
      </trkpt>
      <trkpt lat="42.46845833" lon="-7.97922833">
        <ele>522.0</ele>
        <time>2018-10-03T09:26:42.000Z</time>
      </trkpt>
      <trkpt lat="42.46846167" lon="-7.97925">
        <ele>522.0</ele>
        <time>2018-10-03T09:26:43.000Z</time>
      </trkpt>
      <trkpt lat="42.46846333" lon="-7.97927167">
        <ele>523.0</ele>
        <time>2018-10-03T09:26:44.000Z</time>
      </trkpt>
      <trkpt lat="42.468465" lon="-7.97929167">
        <ele>523.0</ele>
        <time>2018-10-03T09:26:45.000Z</time>
      </trkpt>
      <trkpt lat="42.46846833" lon="-7.97931167">
        <ele>523.0</ele>
        <time>2018-10-03T09:26:46.000Z</time>
      </trkpt>
      <trkpt lat="42.46846833" lon="-7.97933167">
        <ele>523.0</ele>
        <time>2018-10-03T09:26:47.000Z</time>
      </trkpt>
      <trkpt lat="42.46847" lon="-7.97935167">
        <ele>523.0</ele>
        <time>2018-10-03T09:26:48.000Z</time>
      </trkpt>
      <trkpt lat="42.46847167" lon="-7.97937">
        <ele>523.0</ele>
        <time>2018-10-03T09:26:49.000Z</time>
      </trkpt>
      <trkpt lat="42.46847167" lon="-7.97938667">
        <ele>523.0</ele>
        <time>2018-10-03T09:26:50.000Z</time>
      </trkpt>
      <trkpt lat="42.46847333" lon="-7.979405">
        <ele>523.0</ele>
        <time>2018-10-03T09:26:51.000Z</time>
      </trkpt>
      <trkpt lat="42.468475" lon="-7.97942167">
        <ele>523.0</ele>
        <time>2018-10-03T09:26:52.000Z</time>
      </trkpt>
      <trkpt lat="42.46847833" lon="-7.97944">
        <ele>523.0</ele>
        <time>2018-10-03T09:26:53.000Z</time>
      </trkpt>
      <trkpt lat="42.46848167" lon="-7.97945667">
        <ele>523.0</ele>
        <time>2018-10-03T09:26:54.000Z</time>
      </trkpt>
      <trkpt lat="42.46848667" lon="-7.979475">
        <ele>523.0</ele>
        <time>2018-10-03T09:26:55.000Z</time>
      </trkpt>
      <trkpt lat="42.46849" lon="-7.97949">
        <ele>523.0</ele>
        <time>2018-10-03T09:26:56.000Z</time>
      </trkpt>
      <trkpt lat="42.468495" lon="-7.97950667">
        <ele>523.0</ele>
        <time>2018-10-03T09:26:57.000Z</time>
      </trkpt>
      <trkpt lat="42.46849833" lon="-7.97952167">
        <ele>523.0</ele>
        <time>2018-10-03T09:26:58.000Z</time>
      </trkpt>
      <trkpt lat="42.4685" lon="-7.97954">
        <ele>523.0</ele>
        <time>2018-10-03T09:26:59.000Z</time>
      </trkpt>
      <trkpt lat="42.46850333" lon="-7.97955667">
        <ele>523.0</ele>
        <time>2018-10-03T09:27:00.000Z</time>
      </trkpt>
      <trkpt lat="42.46850833" lon="-7.97957667">
        <ele>523.0</ele>
        <time>2018-10-03T09:27:01.000Z</time>
      </trkpt>
      <trkpt lat="42.46851333" lon="-7.979595">
        <ele>523.0</ele>
        <time>2018-10-03T09:27:02.000Z</time>
      </trkpt>
      <trkpt lat="42.46851833" lon="-7.97961333">
        <ele>523.0</ele>
        <time>2018-10-03T09:27:03.000Z</time>
      </trkpt>
      <trkpt lat="42.46852333" lon="-7.97963">
        <ele>523.0</ele>
        <time>2018-10-03T09:27:04.000Z</time>
      </trkpt>
      <trkpt lat="42.46853" lon="-7.97964667">
        <ele>523.0</ele>
        <time>2018-10-03T09:27:05.000Z</time>
      </trkpt>
      <trkpt lat="42.46853667" lon="-7.97966333">
        <ele>523.0</ele>
        <time>2018-10-03T09:27:06.000Z</time>
      </trkpt>
      <trkpt lat="42.46854167" lon="-7.97968167">
        <ele>522.0</ele>
        <time>2018-10-03T09:27:07.000Z</time>
      </trkpt>
      <trkpt lat="42.46854833" lon="-7.97970167">
        <ele>522.0</ele>
        <time>2018-10-03T09:27:08.000Z</time>
      </trkpt>
      <trkpt lat="42.468555" lon="-7.97972">
        <ele>522.0</ele>
        <time>2018-10-03T09:27:09.000Z</time>
      </trkpt>
      <trkpt lat="42.46856167" lon="-7.97973833">
        <ele>522.0</ele>
        <time>2018-10-03T09:27:10.000Z</time>
      </trkpt>
      <trkpt lat="42.46856667" lon="-7.97975667">
        <ele>522.0</ele>
        <time>2018-10-03T09:27:11.000Z</time>
      </trkpt>
      <trkpt lat="42.46857333" lon="-7.97977333">
        <ele>522.0</ele>
        <time>2018-10-03T09:27:12.000Z</time>
      </trkpt>
      <trkpt lat="42.46858" lon="-7.97979167">
        <ele>521.0</ele>
        <time>2018-10-03T09:27:13.000Z</time>
      </trkpt>
      <trkpt lat="42.468585" lon="-7.97981">
        <ele>521.0</ele>
        <time>2018-10-03T09:27:14.000Z</time>
      </trkpt>
      <trkpt lat="42.46859" lon="-7.97982667">
        <ele>521.0</ele>
        <time>2018-10-03T09:27:15.000Z</time>
      </trkpt>
      <trkpt lat="42.46859" lon="-7.97983833">
        <ele>520.0</ele>
        <time>2018-10-03T09:27:16.000Z</time>
      </trkpt>
      <trkpt lat="42.46859" lon="-7.979845">
        <ele>520.0</ele>
        <time>2018-10-03T09:27:17.000Z</time>
      </trkpt>
      <trkpt lat="42.46859" lon="-7.97985">
        <ele>520.0</ele>
        <time>2018-10-03T09:27:18.000Z</time>
      </trkpt>
      <trkpt lat="42.46858833" lon="-7.97985">
        <ele>520.0</ele>
        <time>2018-10-03T09:27:19.000Z</time>
      </trkpt>
      <trkpt lat="42.46858667" lon="-7.97985167">
        <ele>519.0</ele>
        <time>2018-10-03T09:27:20.000Z</time>
      </trkpt>
      <trkpt lat="42.46858667" lon="-7.97985167">
        <ele>519.0</ele>
        <time>2018-10-03T09:27:21.000Z</time>
      </trkpt>
      <trkpt lat="42.46858667" lon="-7.97985333">
        <ele>519.0</ele>
        <time>2018-10-03T09:27:22.000Z</time>
      </trkpt>
      <trkpt lat="42.468585" lon="-7.97985667">
        <ele>519.0</ele>
        <time>2018-10-03T09:27:23.000Z</time>
      </trkpt>
      <trkpt lat="42.468585" lon="-7.97985667">
        <ele>519.0</ele>
        <time>2018-10-03T09:27:24.000Z</time>
      </trkpt>
      <trkpt lat="42.468585" lon="-7.97985833">
        <ele>519.0</ele>
        <time>2018-10-03T09:27:25.000Z</time>
      </trkpt>
      <trkpt lat="42.46858333" lon="-7.97985833">
        <ele>519.0</ele>
        <time>2018-10-03T09:27:26.000Z</time>
      </trkpt>
      <trkpt lat="42.46858333" lon="-7.97985833">
        <ele>519.0</ele>
        <time>2018-10-03T09:27:27.000Z</time>
      </trkpt>
      <trkpt lat="42.46858333" lon="-7.97985667">
        <ele>518.0</ele>
        <time>2018-10-03T09:27:28.000Z</time>
      </trkpt>
      <trkpt lat="42.468585" lon="-7.97985667">
        <ele>518.0</ele>
        <time>2018-10-03T09:27:29.000Z</time>
      </trkpt>
      <trkpt lat="42.46858167" lon="-7.97985667">
        <ele>518.0</ele>
        <time>2018-10-03T09:27:30.000Z</time>
      </trkpt>
      <trkpt lat="42.46858" lon="-7.979855">
        <ele>518.0</ele>
        <time>2018-10-03T09:27:31.000Z</time>
      </trkpt>
      <trkpt lat="42.46857833" lon="-7.97985667">
        <ele>518.0</ele>
        <time>2018-10-03T09:27:32.000Z</time>
      </trkpt>
      <trkpt lat="42.46857833" lon="-7.97985667">
        <ele>518.0</ele>
        <time>2018-10-03T09:27:33.000Z</time>
      </trkpt>
      <trkpt lat="42.46857833" lon="-7.97985667">
        <ele>518.0</ele>
        <time>2018-10-03T09:27:34.000Z</time>
      </trkpt>
      <trkpt lat="42.46857833" lon="-7.97985833">
        <ele>518.0</ele>
        <time>2018-10-03T09:27:35.000Z</time>
      </trkpt>
      <trkpt lat="42.46857833" lon="-7.97985833">
        <ele>518.0</ele>
        <time>2018-10-03T09:27:36.000Z</time>
      </trkpt>
      <trkpt lat="42.46857833" lon="-7.97985833">
        <ele>518.0</ele>
        <time>2018-10-03T09:27:37.000Z</time>
      </trkpt>
      <trkpt lat="42.46857667" lon="-7.97985833">
        <ele>518.0</ele>
        <time>2018-10-03T09:27:38.000Z</time>
      </trkpt>
      <trkpt lat="42.46857667" lon="-7.97985833">
        <ele>518.0</ele>
        <time>2018-10-03T09:27:39.000Z</time>
      </trkpt>
      <trkpt lat="42.46857667" lon="-7.97985833">
        <ele>518.0</ele>
        <time>2018-10-03T09:27:40.000Z</time>
      </trkpt>
      <trkpt lat="42.46857667" lon="-7.97985833">
        <ele>518.0</ele>
        <time>2018-10-03T09:27:41.000Z</time>
      </trkpt>
      <trkpt lat="42.46857667" lon="-7.97985833">
        <ele>518.0</ele>
        <time>2018-10-03T09:27:42.000Z</time>
      </trkpt>
      <trkpt lat="42.46857667" lon="-7.97985833">
        <ele>518.0</ele>
        <time>2018-10-03T09:27:43.000Z</time>
      </trkpt>
      <trkpt lat="42.46857667" lon="-7.97985833">
        <ele>518.0</ele>
        <time>2018-10-03T09:27:44.000Z</time>
      </trkpt>
      <trkpt lat="42.46857667" lon="-7.97985833">
        <ele>518.0</ele>
        <time>2018-10-03T09:27:45.000Z</time>
      </trkpt>
      <trkpt lat="42.46857667" lon="-7.97986">
        <ele>517.0</ele>
        <time>2018-10-03T09:27:46.000Z</time>
      </trkpt>
      <trkpt lat="42.46857667" lon="-7.97986">
        <ele>517.0</ele>
        <time>2018-10-03T09:27:47.000Z</time>
      </trkpt>
      <trkpt lat="42.46857667" lon="-7.97986">
        <ele>517.0</ele>
        <time>2018-10-03T09:27:48.000Z</time>
      </trkpt>
      <trkpt lat="42.46857667" lon="-7.97986">
        <ele>517.0</ele>
        <time>2018-10-03T09:27:49.000Z</time>
      </trkpt>
      <trkpt lat="42.46857667" lon="-7.97986">
        <ele>517.0</ele>
        <time>2018-10-03T09:27:50.000Z</time>
      </trkpt>
      <trkpt lat="42.46857833" lon="-7.97986">
        <ele>517.0</ele>
        <time>2018-10-03T09:27:51.000Z</time>
      </trkpt>
      <trkpt lat="42.46857833" lon="-7.97986">
        <ele>517.0</ele>
        <time>2018-10-03T09:27:52.000Z</time>
      </trkpt>
      <trkpt lat="42.46857833" lon="-7.97986">
        <ele>517.0</ele>
        <time>2018-10-03T09:27:53.000Z</time>
      </trkpt>
      <trkpt lat="42.46857833" lon="-7.97985833">
        <ele>517.0</ele>
        <time>2018-10-03T09:27:54.000Z</time>
      </trkpt>
      <trkpt lat="42.46857667" lon="-7.97985833">
        <ele>517.0</ele>
        <time>2018-10-03T09:27:55.000Z</time>
      </trkpt>
      <trkpt lat="42.46857667" lon="-7.97985667">
        <ele>517.0</ele>
        <time>2018-10-03T09:27:56.000Z</time>
      </trkpt>
      <trkpt lat="42.46857667" lon="-7.97985667">
        <ele>517.0</ele>
        <time>2018-10-03T09:27:57.000Z</time>
      </trkpt>
      <trkpt lat="42.46857667" lon="-7.97985667">
        <ele>517.0</ele>
        <time>2018-10-03T09:27:58.000Z</time>
      </trkpt>
      <trkpt lat="42.46857833" lon="-7.97986">
        <ele>517.0</ele>
        <time>2018-10-03T09:27:59.000Z</time>
      </trkpt>
      <trkpt lat="42.46858167" lon="-7.97986667">
        <ele>517.0</ele>
        <time>2018-10-03T09:28:00.000Z</time>
      </trkpt>
      <trkpt lat="42.468585" lon="-7.97987167">
        <ele>517.0</ele>
        <time>2018-10-03T09:28:01.000Z</time>
      </trkpt>
      <trkpt lat="42.46859" lon="-7.97988333">
        <ele>517.0</ele>
        <time>2018-10-03T09:28:02.000Z</time>
      </trkpt>
      <trkpt lat="42.468595" lon="-7.97989667">
        <ele>517.0</ele>
        <time>2018-10-03T09:28:03.000Z</time>
      </trkpt>
      <trkpt lat="42.4686" lon="-7.97991167">
        <ele>517.0</ele>
        <time>2018-10-03T09:28:04.000Z</time>
      </trkpt>
      <trkpt lat="42.46860333" lon="-7.97992667">
        <ele>517.0</ele>
        <time>2018-10-03T09:28:05.000Z</time>
      </trkpt>
      <trkpt lat="42.46860833" lon="-7.97994333">
        <ele>517.0</ele>
        <time>2018-10-03T09:28:06.000Z</time>
      </trkpt>
      <trkpt lat="42.46861167" lon="-7.97996167">
        <ele>516.0</ele>
        <time>2018-10-03T09:28:07.000Z</time>
      </trkpt>
      <trkpt lat="42.46861667" lon="-7.97997833">
        <ele>516.0</ele>
        <time>2018-10-03T09:28:08.000Z</time>
      </trkpt>
      <trkpt lat="42.46862167" lon="-7.97999333">
        <ele>516.0</ele>
        <time>2018-10-03T09:28:09.000Z</time>
      </trkpt>
      <trkpt lat="42.46862833" lon="-7.98001167">
        <ele>516.0</ele>
        <time>2018-10-03T09:28:10.000Z</time>
      </trkpt>
      <trkpt lat="42.46863333" lon="-7.98003">
        <ele>516.0</ele>
        <time>2018-10-03T09:28:11.000Z</time>
      </trkpt>
      <trkpt lat="42.46863667" lon="-7.98004833">
        <ele>516.0</ele>
        <time>2018-10-03T09:28:12.000Z</time>
      </trkpt>
      <trkpt lat="42.46864" lon="-7.98006667">
        <ele>516.0</ele>
        <time>2018-10-03T09:28:13.000Z</time>
      </trkpt>
      <trkpt lat="42.46864667" lon="-7.980085">
        <ele>516.0</ele>
        <time>2018-10-03T09:28:14.000Z</time>
      </trkpt>
      <trkpt lat="42.46865333" lon="-7.98010333">
        <ele>517.0</ele>
        <time>2018-10-03T09:28:15.000Z</time>
      </trkpt>
      <trkpt lat="42.46865833" lon="-7.98012">
        <ele>517.0</ele>
        <time>2018-10-03T09:28:16.000Z</time>
      </trkpt>
      <trkpt lat="42.468665" lon="-7.98013833">
        <ele>517.0</ele>
        <time>2018-10-03T09:28:17.000Z</time>
      </trkpt>
      <trkpt lat="42.46867" lon="-7.98016">
        <ele>517.0</ele>
        <time>2018-10-03T09:28:18.000Z</time>
      </trkpt>
      <trkpt lat="42.46867667" lon="-7.98018167">
        <ele>517.0</ele>
        <time>2018-10-03T09:28:19.000Z</time>
      </trkpt>
      <trkpt lat="42.46868167" lon="-7.98020167">
        <ele>517.0</ele>
        <time>2018-10-03T09:28:20.000Z</time>
      </trkpt>
      <trkpt lat="42.468685" lon="-7.98022167">
        <ele>517.0</ele>
        <time>2018-10-03T09:28:21.000Z</time>
      </trkpt>
      <trkpt lat="42.46868833" lon="-7.98024333">
        <ele>517.0</ele>
        <time>2018-10-03T09:28:22.000Z</time>
      </trkpt>
      <trkpt lat="42.46869333" lon="-7.98026333">
        <ele>517.0</ele>
        <time>2018-10-03T09:28:23.000Z</time>
      </trkpt>
      <trkpt lat="42.46869833" lon="-7.98028167">
        <ele>517.0</ele>
        <time>2018-10-03T09:28:24.000Z</time>
      </trkpt>
      <trkpt lat="42.46870333" lon="-7.9803">
        <ele>517.0</ele>
        <time>2018-10-03T09:28:25.000Z</time>
      </trkpt>
      <trkpt lat="42.46871167" lon="-7.98031833">
        <ele>518.0</ele>
        <time>2018-10-03T09:28:26.000Z</time>
      </trkpt>
      <trkpt lat="42.46872" lon="-7.98033833">
        <ele>518.0</ele>
        <time>2018-10-03T09:28:27.000Z</time>
      </trkpt>
      <trkpt lat="42.468725" lon="-7.980355">
        <ele>518.0</ele>
        <time>2018-10-03T09:28:28.000Z</time>
      </trkpt>
      <trkpt lat="42.46873333" lon="-7.980375">
        <ele>518.0</ele>
        <time>2018-10-03T09:28:29.000Z</time>
      </trkpt>
      <trkpt lat="42.46874" lon="-7.98039167">
        <ele>519.0</ele>
        <time>2018-10-03T09:28:30.000Z</time>
      </trkpt>
      <trkpt lat="42.468745" lon="-7.98041167">
        <ele>519.0</ele>
        <time>2018-10-03T09:28:31.000Z</time>
      </trkpt>
      <trkpt lat="42.46875" lon="-7.98043167">
        <ele>519.0</ele>
        <time>2018-10-03T09:28:32.000Z</time>
      </trkpt>
      <trkpt lat="42.468755" lon="-7.98045333">
        <ele>520.0</ele>
        <time>2018-10-03T09:28:33.000Z</time>
      </trkpt>
      <trkpt lat="42.46875833" lon="-7.98047">
        <ele>520.0</ele>
        <time>2018-10-03T09:28:34.000Z</time>
      </trkpt>
      <trkpt lat="42.46876333" lon="-7.98048833">
        <ele>520.0</ele>
        <time>2018-10-03T09:28:35.000Z</time>
      </trkpt>
      <trkpt lat="42.46877" lon="-7.98050833">
        <ele>520.0</ele>
        <time>2018-10-03T09:28:36.000Z</time>
      </trkpt>
      <trkpt lat="42.46877667" lon="-7.98052667">
        <ele>521.0</ele>
        <time>2018-10-03T09:28:37.000Z</time>
      </trkpt>
      <trkpt lat="42.46878" lon="-7.980545">
        <ele>521.0</ele>
        <time>2018-10-03T09:28:38.000Z</time>
      </trkpt>
      <trkpt lat="42.46878" lon="-7.980565">
        <ele>521.0</ele>
        <time>2018-10-03T09:28:39.000Z</time>
      </trkpt>
      <trkpt lat="42.46878167" lon="-7.98058333">
        <ele>521.0</ele>
        <time>2018-10-03T09:28:40.000Z</time>
      </trkpt>
      <trkpt lat="42.46878167" lon="-7.98060167">
        <ele>521.0</ele>
        <time>2018-10-03T09:28:41.000Z</time>
      </trkpt>
      <trkpt lat="42.46878167" lon="-7.980615">
        <ele>521.0</ele>
        <time>2018-10-03T09:28:42.000Z</time>
      </trkpt>
      <trkpt lat="42.46878167" lon="-7.98063167">
        <ele>521.0</ele>
        <time>2018-10-03T09:28:43.000Z</time>
      </trkpt>
      <trkpt lat="42.46878167" lon="-7.98064833">
        <ele>522.0</ele>
        <time>2018-10-03T09:28:44.000Z</time>
      </trkpt>
      <trkpt lat="42.46878167" lon="-7.980665">
        <ele>522.0</ele>
        <time>2018-10-03T09:28:45.000Z</time>
      </trkpt>
      <trkpt lat="42.46878167" lon="-7.98068167">
        <ele>522.0</ele>
        <time>2018-10-03T09:28:46.000Z</time>
      </trkpt>
      <trkpt lat="42.46878167" lon="-7.98069833">
        <ele>522.0</ele>
        <time>2018-10-03T09:28:47.000Z</time>
      </trkpt>
      <trkpt lat="42.46878167" lon="-7.980715">
        <ele>522.0</ele>
        <time>2018-10-03T09:28:48.000Z</time>
      </trkpt>
      <trkpt lat="42.46878333" lon="-7.98073167">
        <ele>522.0</ele>
        <time>2018-10-03T09:28:49.000Z</time>
      </trkpt>
      <trkpt lat="42.46878333" lon="-7.98075">
        <ele>522.0</ele>
        <time>2018-10-03T09:28:50.000Z</time>
      </trkpt>
      <trkpt lat="42.468785" lon="-7.98077">
        <ele>522.0</ele>
        <time>2018-10-03T09:28:51.000Z</time>
      </trkpt>
      <trkpt lat="42.46878667" lon="-7.98078833">
        <ele>522.0</ele>
        <time>2018-10-03T09:28:52.000Z</time>
      </trkpt>
      <trkpt lat="42.46878833" lon="-7.98080667">
        <ele>522.0</ele>
        <time>2018-10-03T09:28:53.000Z</time>
      </trkpt>
      <trkpt lat="42.46879167" lon="-7.980825">
        <ele>522.0</ele>
        <time>2018-10-03T09:28:54.000Z</time>
      </trkpt>
      <trkpt lat="42.46879333" lon="-7.98084667">
        <ele>522.0</ele>
        <time>2018-10-03T09:28:55.000Z</time>
      </trkpt>
      <trkpt lat="42.468795" lon="-7.980865">
        <ele>522.0</ele>
        <time>2018-10-03T09:28:56.000Z</time>
      </trkpt>
      <trkpt lat="42.468795" lon="-7.980885">
        <ele>522.0</ele>
        <time>2018-10-03T09:28:57.000Z</time>
      </trkpt>
      <trkpt lat="42.46879333" lon="-7.98090333">
        <ele>522.0</ele>
        <time>2018-10-03T09:28:58.000Z</time>
      </trkpt>
      <trkpt lat="42.46879333" lon="-7.98092333">
        <ele>521.0</ele>
        <time>2018-10-03T09:28:59.000Z</time>
      </trkpt>
      <trkpt lat="42.46879333" lon="-7.98094333">
        <ele>521.0</ele>
        <time>2018-10-03T09:29:00.000Z</time>
      </trkpt>
      <trkpt lat="42.46879167" lon="-7.98096333">
        <ele>521.0</ele>
        <time>2018-10-03T09:29:01.000Z</time>
      </trkpt>
      <trkpt lat="42.46879" lon="-7.98098167">
        <ele>521.0</ele>
        <time>2018-10-03T09:29:02.000Z</time>
      </trkpt>
      <trkpt lat="42.46879" lon="-7.98100167">
        <ele>521.0</ele>
        <time>2018-10-03T09:29:03.000Z</time>
      </trkpt>
      <trkpt lat="42.46879" lon="-7.98102">
        <ele>521.0</ele>
        <time>2018-10-03T09:29:04.000Z</time>
      </trkpt>
      <trkpt lat="42.46879167" lon="-7.98104">
        <ele>520.0</ele>
        <time>2018-10-03T09:29:05.000Z</time>
      </trkpt>
      <trkpt lat="42.468795" lon="-7.98106167">
        <ele>520.0</ele>
        <time>2018-10-03T09:29:06.000Z</time>
      </trkpt>
      <trkpt lat="42.4688" lon="-7.981085">
        <ele>520.0</ele>
        <time>2018-10-03T09:29:07.000Z</time>
      </trkpt>
      <trkpt lat="42.46880667" lon="-7.98110667">
        <ele>520.0</ele>
        <time>2018-10-03T09:29:08.000Z</time>
      </trkpt>
      <trkpt lat="42.46881167" lon="-7.98112667">
        <ele>520.0</ele>
        <time>2018-10-03T09:29:09.000Z</time>
      </trkpt>
      <trkpt lat="42.46881667" lon="-7.981145">
        <ele>520.0</ele>
        <time>2018-10-03T09:29:10.000Z</time>
      </trkpt>
      <trkpt lat="42.46882" lon="-7.98116333">
        <ele>519.0</ele>
        <time>2018-10-03T09:29:11.000Z</time>
      </trkpt>
      <trkpt lat="42.46882333" lon="-7.98118333">
        <ele>519.0</ele>
        <time>2018-10-03T09:29:12.000Z</time>
      </trkpt>
      <trkpt lat="42.46882833" lon="-7.981205">
        <ele>519.0</ele>
        <time>2018-10-03T09:29:13.000Z</time>
      </trkpt>
      <trkpt lat="42.46883167" lon="-7.98122667">
        <ele>519.0</ele>
        <time>2018-10-03T09:29:14.000Z</time>
      </trkpt>
      <trkpt lat="42.46883167" lon="-7.98124667">
        <ele>518.0</ele>
        <time>2018-10-03T09:29:15.000Z</time>
      </trkpt>
      <trkpt lat="42.46883333" lon="-7.98126667">
        <ele>518.0</ele>
        <time>2018-10-03T09:29:16.000Z</time>
      </trkpt>
      <trkpt lat="42.46883667" lon="-7.98128667">
        <ele>518.0</ele>
        <time>2018-10-03T09:29:17.000Z</time>
      </trkpt>
      <trkpt lat="42.46884" lon="-7.98130667">
        <ele>518.0</ele>
        <time>2018-10-03T09:29:18.000Z</time>
      </trkpt>
      <trkpt lat="42.46884333" lon="-7.98132833">
        <ele>518.0</ele>
        <time>2018-10-03T09:29:19.000Z</time>
      </trkpt>
      <trkpt lat="42.46884667" lon="-7.98134667">
        <ele>517.0</ele>
        <time>2018-10-03T09:29:20.000Z</time>
      </trkpt>
      <trkpt lat="42.46885" lon="-7.98136667">
        <ele>517.0</ele>
        <time>2018-10-03T09:29:21.000Z</time>
      </trkpt>
      <trkpt lat="42.46885333" lon="-7.98138833">
        <ele>517.0</ele>
        <time>2018-10-03T09:29:22.000Z</time>
      </trkpt>
      <trkpt lat="42.46885667" lon="-7.98141">
        <ele>517.0</ele>
        <time>2018-10-03T09:29:23.000Z</time>
      </trkpt>
      <trkpt lat="42.46886" lon="-7.98143">
        <ele>517.0</ele>
        <time>2018-10-03T09:29:24.000Z</time>
      </trkpt>
      <trkpt lat="42.46886667" lon="-7.981455">
        <ele>516.0</ele>
        <time>2018-10-03T09:29:25.000Z</time>
      </trkpt>
      <trkpt lat="42.46887167" lon="-7.98147833">
        <ele>516.0</ele>
        <time>2018-10-03T09:29:26.000Z</time>
      </trkpt>
      <trkpt lat="42.468875" lon="-7.98149833">
        <ele>516.0</ele>
        <time>2018-10-03T09:29:27.000Z</time>
      </trkpt>
      <trkpt lat="42.46888" lon="-7.98152">
        <ele>516.0</ele>
        <time>2018-10-03T09:29:28.000Z</time>
      </trkpt>
      <trkpt lat="42.468885" lon="-7.98154">
        <ele>516.0</ele>
        <time>2018-10-03T09:29:29.000Z</time>
      </trkpt>
      <trkpt lat="42.46889" lon="-7.98156167">
        <ele>516.0</ele>
        <time>2018-10-03T09:29:30.000Z</time>
      </trkpt>
      <trkpt lat="42.46889833" lon="-7.98158333">
        <ele>516.0</ele>
        <time>2018-10-03T09:29:31.000Z</time>
      </trkpt>
      <trkpt lat="42.46890667" lon="-7.981605">
        <ele>516.0</ele>
        <time>2018-10-03T09:29:32.000Z</time>
      </trkpt>
      <trkpt lat="42.468915" lon="-7.981625">
        <ele>515.0</ele>
        <time>2018-10-03T09:29:33.000Z</time>
      </trkpt>
      <trkpt lat="42.46892167" lon="-7.981645">
        <ele>515.0</ele>
        <time>2018-10-03T09:29:34.000Z</time>
      </trkpt>
      <trkpt lat="42.46892833" lon="-7.98166333">
        <ele>515.0</ele>
        <time>2018-10-03T09:29:35.000Z</time>
      </trkpt>
      <trkpt lat="42.46893333" lon="-7.98168333">
        <ele>515.0</ele>
        <time>2018-10-03T09:29:36.000Z</time>
      </trkpt>
      <trkpt lat="42.46894" lon="-7.98170333">
        <ele>515.0</ele>
        <time>2018-10-03T09:29:37.000Z</time>
      </trkpt>
      <trkpt lat="42.468945" lon="-7.98171833">
        <ele>515.0</ele>
        <time>2018-10-03T09:29:38.000Z</time>
      </trkpt>
      <trkpt lat="42.46895167" lon="-7.98173667">
        <ele>515.0</ele>
        <time>2018-10-03T09:29:39.000Z</time>
      </trkpt>
      <trkpt lat="42.46895833" lon="-7.98175333">
        <ele>515.0</ele>
        <time>2018-10-03T09:29:40.000Z</time>
      </trkpt>
      <trkpt lat="42.46896667" lon="-7.98177">
        <ele>515.0</ele>
        <time>2018-10-03T09:29:41.000Z</time>
      </trkpt>
      <trkpt lat="42.468975" lon="-7.981785">
        <ele>515.0</ele>
        <time>2018-10-03T09:29:42.000Z</time>
      </trkpt>
      <trkpt lat="42.46898167" lon="-7.98180333">
        <ele>515.0</ele>
        <time>2018-10-03T09:29:43.000Z</time>
      </trkpt>
      <trkpt lat="42.46898833" lon="-7.98182167">
        <ele>515.0</ele>
        <time>2018-10-03T09:29:44.000Z</time>
      </trkpt>
      <trkpt lat="42.46899333" lon="-7.98184">
        <ele>515.0</ele>
        <time>2018-10-03T09:29:45.000Z</time>
      </trkpt>
      <trkpt lat="42.469" lon="-7.98186">
        <ele>515.0</ele>
        <time>2018-10-03T09:29:46.000Z</time>
      </trkpt>
      <trkpt lat="42.46900667" lon="-7.98187667">
        <ele>515.0</ele>
        <time>2018-10-03T09:29:47.000Z</time>
      </trkpt>
      <trkpt lat="42.46901667" lon="-7.98189333">
        <ele>515.0</ele>
        <time>2018-10-03T09:29:48.000Z</time>
      </trkpt>
      <trkpt lat="42.46902167" lon="-7.98190833">
        <ele>515.0</ele>
        <time>2018-10-03T09:29:49.000Z</time>
      </trkpt>
      <trkpt lat="42.469025" lon="-7.98191833">
        <ele>515.0</ele>
        <time>2018-10-03T09:29:50.000Z</time>
      </trkpt>
      <trkpt lat="42.469025" lon="-7.98192167">
        <ele>515.0</ele>
        <time>2018-10-03T09:29:51.000Z</time>
      </trkpt>
      <trkpt lat="42.46902333" lon="-7.98192167">
        <ele>516.0</ele>
        <time>2018-10-03T09:29:52.000Z</time>
      </trkpt>
      <trkpt lat="42.469025" lon="-7.981925">
        <ele>516.0</ele>
        <time>2018-10-03T09:29:53.000Z</time>
      </trkpt>
      <trkpt lat="42.46902833" lon="-7.98193167">
        <ele>516.0</ele>
        <time>2018-10-03T09:29:54.000Z</time>
      </trkpt>
      <trkpt lat="42.46903333" lon="-7.98194333">
        <ele>516.0</ele>
        <time>2018-10-03T09:29:55.000Z</time>
      </trkpt>
      <trkpt lat="42.46903833" lon="-7.98195833">
        <ele>516.0</ele>
        <time>2018-10-03T09:29:56.000Z</time>
      </trkpt>
      <trkpt lat="42.469045" lon="-7.981975">
        <ele>516.0</ele>
        <time>2018-10-03T09:29:57.000Z</time>
      </trkpt>
      <trkpt lat="42.46905167" lon="-7.98199">
        <ele>516.0</ele>
        <time>2018-10-03T09:29:58.000Z</time>
      </trkpt>
      <trkpt lat="42.46906" lon="-7.98200667">
        <ele>516.0</ele>
        <time>2018-10-03T09:29:59.000Z</time>
      </trkpt>
      <trkpt lat="42.46906667" lon="-7.98202333">
        <ele>516.0</ele>
        <time>2018-10-03T09:30:00.000Z</time>
      </trkpt>
      <trkpt lat="42.469075" lon="-7.98204">
        <ele>516.0</ele>
        <time>2018-10-03T09:30:01.000Z</time>
      </trkpt>
      <trkpt lat="42.46908167" lon="-7.98205667">
        <ele>516.0</ele>
        <time>2018-10-03T09:30:02.000Z</time>
      </trkpt>
      <trkpt lat="42.46909" lon="-7.982075">
        <ele>516.0</ele>
        <time>2018-10-03T09:30:03.000Z</time>
      </trkpt>
      <trkpt lat="42.46909667" lon="-7.98209167">
        <ele>517.0</ele>
        <time>2018-10-03T09:30:04.000Z</time>
      </trkpt>
      <trkpt lat="42.46910333" lon="-7.98210833">
        <ele>517.0</ele>
        <time>2018-10-03T09:30:05.000Z</time>
      </trkpt>
      <trkpt lat="42.46911167" lon="-7.982125">
        <ele>517.0</ele>
        <time>2018-10-03T09:30:06.000Z</time>
      </trkpt>
      <trkpt lat="42.46911833" lon="-7.98214167">
        <ele>517.0</ele>
        <time>2018-10-03T09:30:07.000Z</time>
      </trkpt>
      <trkpt lat="42.46912667" lon="-7.98215833">
        <ele>517.0</ele>
        <time>2018-10-03T09:30:08.000Z</time>
      </trkpt>
      <trkpt lat="42.469135" lon="-7.98217333">
        <ele>517.0</ele>
        <time>2018-10-03T09:30:09.000Z</time>
      </trkpt>
      <trkpt lat="42.46914" lon="-7.98219">
        <ele>517.0</ele>
        <time>2018-10-03T09:30:10.000Z</time>
      </trkpt>
      <trkpt lat="42.46914667" lon="-7.98220667">
        <ele>517.0</ele>
        <time>2018-10-03T09:30:11.000Z</time>
      </trkpt>
      <trkpt lat="42.46915333" lon="-7.982225">
        <ele>517.0</ele>
        <time>2018-10-03T09:30:12.000Z</time>
      </trkpt>
      <trkpt lat="42.46915833" lon="-7.98224333">
        <ele>517.0</ele>
        <time>2018-10-03T09:30:13.000Z</time>
      </trkpt>
      <trkpt lat="42.469165" lon="-7.98226">
        <ele>517.0</ele>
        <time>2018-10-03T09:30:14.000Z</time>
      </trkpt>
      <trkpt lat="42.46917167" lon="-7.98227667">
        <ele>517.0</ele>
        <time>2018-10-03T09:30:15.000Z</time>
      </trkpt>
      <trkpt lat="42.46917833" lon="-7.98229333">
        <ele>517.0</ele>
        <time>2018-10-03T09:30:16.000Z</time>
      </trkpt>
      <trkpt lat="42.46918333" lon="-7.98231167">
        <ele>517.0</ele>
        <time>2018-10-03T09:30:17.000Z</time>
      </trkpt>
      <trkpt lat="42.46919" lon="-7.98232667">
        <ele>517.0</ele>
        <time>2018-10-03T09:30:18.000Z</time>
      </trkpt>
      <trkpt lat="42.469195" lon="-7.98234">
        <ele>517.0</ele>
        <time>2018-10-03T09:30:19.000Z</time>
      </trkpt>
      <trkpt lat="42.46920167" lon="-7.982355">
        <ele>517.0</ele>
        <time>2018-10-03T09:30:20.000Z</time>
      </trkpt>
      <trkpt lat="42.46920833" lon="-7.98236833">
        <ele>517.0</ele>
        <time>2018-10-03T09:30:21.000Z</time>
      </trkpt>
      <trkpt lat="42.46921667" lon="-7.98238167">
        <ele>517.0</ele>
        <time>2018-10-03T09:30:22.000Z</time>
      </trkpt>
      <trkpt lat="42.469225" lon="-7.982395">
        <ele>517.0</ele>
        <time>2018-10-03T09:30:23.000Z</time>
      </trkpt>
      <trkpt lat="42.46923333" lon="-7.98240667">
        <ele>517.0</ele>
        <time>2018-10-03T09:30:24.000Z</time>
      </trkpt>
      <trkpt lat="42.46923833" lon="-7.98241833">
        <ele>517.0</ele>
        <time>2018-10-03T09:30:25.000Z</time>
      </trkpt>
      <trkpt lat="42.46924667" lon="-7.98243">
        <ele>516.0</ele>
        <time>2018-10-03T09:30:26.000Z</time>
      </trkpt>
      <trkpt lat="42.46925333" lon="-7.98244333">
        <ele>516.0</ele>
        <time>2018-10-03T09:30:27.000Z</time>
      </trkpt>
      <trkpt lat="42.46926" lon="-7.98245667">
        <ele>516.0</ele>
        <time>2018-10-03T09:30:28.000Z</time>
      </trkpt>
      <trkpt lat="42.46926667" lon="-7.98247">
        <ele>516.0</ele>
        <time>2018-10-03T09:30:29.000Z</time>
      </trkpt>
      <trkpt lat="42.46927667" lon="-7.98248333">
        <ele>515.0</ele>
        <time>2018-10-03T09:30:30.000Z</time>
      </trkpt>
      <trkpt lat="42.46928667" lon="-7.9825">
        <ele>515.0</ele>
        <time>2018-10-03T09:30:31.000Z</time>
      </trkpt>
      <trkpt lat="42.46929667" lon="-7.98251667">
        <ele>515.0</ele>
        <time>2018-10-03T09:30:32.000Z</time>
      </trkpt>
      <trkpt lat="42.46930667" lon="-7.98253167">
        <ele>515.0</ele>
        <time>2018-10-03T09:30:33.000Z</time>
      </trkpt>
      <trkpt lat="42.469315" lon="-7.98254333">
        <ele>514.0</ele>
        <time>2018-10-03T09:30:34.000Z</time>
      </trkpt>
      <trkpt lat="42.46932167" lon="-7.98255667">
        <ele>514.0</ele>
        <time>2018-10-03T09:30:35.000Z</time>
      </trkpt>
      <trkpt lat="42.46932667" lon="-7.98256833">
        <ele>514.0</ele>
        <time>2018-10-03T09:30:36.000Z</time>
      </trkpt>
      <trkpt lat="42.47058167" lon="-7.98430333">
        <ele>520.0</ele>
        <time>2018-10-03T09:30:37.000Z</time>
      </trkpt>
      <trkpt lat="42.47057167" lon="-7.98431167">
        <ele>520.0</ele>
        <time>2018-10-03T09:30:38.000Z</time>
      </trkpt>
      <trkpt lat="42.47055833" lon="-7.98431833">
        <ele>520.0</ele>
        <time>2018-10-03T09:30:39.000Z</time>
      </trkpt>
      <trkpt lat="42.470545" lon="-7.98432333">
        <ele>520.0</ele>
        <time>2018-10-03T09:30:40.000Z</time>
      </trkpt>
      <trkpt lat="42.47053167" lon="-7.98432833">
        <ele>520.0</ele>
        <time>2018-10-03T09:30:41.000Z</time>
      </trkpt>
      <trkpt lat="42.47051833" lon="-7.984335">
        <ele>520.0</ele>
        <time>2018-10-03T09:30:42.000Z</time>
      </trkpt>
      <trkpt lat="42.47050667" lon="-7.98434333">
        <ele>519.0</ele>
        <time>2018-10-03T09:30:43.000Z</time>
      </trkpt>
      <trkpt lat="42.47049333" lon="-7.98435333">
        <ele>520.0</ele>
        <time>2018-10-03T09:30:44.000Z</time>
      </trkpt>
      <trkpt lat="42.47048" lon="-7.98436167">
        <ele>520.0</ele>
        <time>2018-10-03T09:30:45.000Z</time>
      </trkpt>
      <trkpt lat="42.470465" lon="-7.98436833">
        <ele>520.0</ele>
        <time>2018-10-03T09:30:46.000Z</time>
      </trkpt>
      <trkpt lat="42.47045" lon="-7.984375">
        <ele>520.0</ele>
        <time>2018-10-03T09:30:47.000Z</time>
      </trkpt>
      <trkpt lat="42.47043667" lon="-7.98438333">
        <ele>520.0</ele>
        <time>2018-10-03T09:30:48.000Z</time>
      </trkpt>
      <trkpt lat="42.470425" lon="-7.98439167">
        <ele>520.0</ele>
        <time>2018-10-03T09:30:49.000Z</time>
      </trkpt>
      <trkpt lat="42.470415" lon="-7.9844">
        <ele>520.0</ele>
        <time>2018-10-03T09:30:50.000Z</time>
      </trkpt>
      <trkpt lat="42.47040333" lon="-7.98440833">
        <ele>520.0</ele>
        <time>2018-10-03T09:30:51.000Z</time>
      </trkpt>
      <trkpt lat="42.47039333" lon="-7.98441667">
        <ele>520.0</ele>
        <time>2018-10-03T09:30:52.000Z</time>
      </trkpt>
      <trkpt lat="42.470385" lon="-7.98442667">
        <ele>520.0</ele>
        <time>2018-10-03T09:30:53.000Z</time>
      </trkpt>
      <trkpt lat="42.470375" lon="-7.98443833">
        <ele>520.0</ele>
        <time>2018-10-03T09:30:54.000Z</time>
      </trkpt>
      <trkpt lat="42.470365" lon="-7.98445">
        <ele>520.0</ele>
        <time>2018-10-03T09:30:55.000Z</time>
      </trkpt>
      <trkpt lat="42.47035333" lon="-7.984465">
        <ele>520.0</ele>
        <time>2018-10-03T09:30:56.000Z</time>
      </trkpt>
      <trkpt lat="42.470345" lon="-7.98447833">
        <ele>520.0</ele>
        <time>2018-10-03T09:30:57.000Z</time>
      </trkpt>
      <trkpt lat="42.47033833" lon="-7.984495">
        <ele>520.0</ele>
        <time>2018-10-03T09:30:58.000Z</time>
      </trkpt>
      <trkpt lat="42.47033" lon="-7.98451333">
        <ele>520.0</ele>
        <time>2018-10-03T09:30:59.000Z</time>
      </trkpt>
      <trkpt lat="42.470325" lon="-7.98453333">
        <ele>520.0</ele>
        <time>2018-10-03T09:31:00.000Z</time>
      </trkpt>
      <trkpt lat="42.47032333" lon="-7.98456">
        <ele>520.0</ele>
        <time>2018-10-03T09:31:01.000Z</time>
      </trkpt>
      <trkpt lat="42.47032333" lon="-7.98458333">
        <ele>520.0</ele>
        <time>2018-10-03T09:31:02.000Z</time>
      </trkpt>
      <trkpt lat="42.47032667" lon="-7.98460667">
        <ele>520.0</ele>
        <time>2018-10-03T09:31:03.000Z</time>
      </trkpt>
      <trkpt lat="42.47033333" lon="-7.98463">
        <ele>520.0</ele>
        <time>2018-10-03T09:31:04.000Z</time>
      </trkpt>
      <trkpt lat="42.47034" lon="-7.98465">
        <ele>519.0</ele>
        <time>2018-10-03T09:31:05.000Z</time>
      </trkpt>
      <trkpt lat="42.47035" lon="-7.98467333">
        <ele>519.0</ele>
        <time>2018-10-03T09:31:06.000Z</time>
      </trkpt>
      <trkpt lat="42.470355" lon="-7.98469333">
        <ele>519.0</ele>
        <time>2018-10-03T09:31:07.000Z</time>
      </trkpt>
      <trkpt lat="42.470365" lon="-7.984715">
        <ele>519.0</ele>
        <time>2018-10-03T09:31:08.000Z</time>
      </trkpt>
      <trkpt lat="42.47037333" lon="-7.984735">
        <ele>519.0</ele>
        <time>2018-10-03T09:31:09.000Z</time>
      </trkpt>
      <trkpt lat="42.47038333" lon="-7.984755">
        <ele>519.0</ele>
        <time>2018-10-03T09:31:10.000Z</time>
      </trkpt>
      <trkpt lat="42.47039333" lon="-7.98477333">
        <ele>519.0</ele>
        <time>2018-10-03T09:31:11.000Z</time>
      </trkpt>
      <trkpt lat="42.47040333" lon="-7.98479">
        <ele>519.0</ele>
        <time>2018-10-03T09:31:12.000Z</time>
      </trkpt>
      <trkpt lat="42.470415" lon="-7.98480667">
        <ele>519.0</ele>
        <time>2018-10-03T09:31:13.000Z</time>
      </trkpt>
      <trkpt lat="42.470425" lon="-7.98482167">
        <ele>519.0</ele>
        <time>2018-10-03T09:31:14.000Z</time>
      </trkpt>
      <trkpt lat="42.470435" lon="-7.98484">
        <ele>519.0</ele>
        <time>2018-10-03T09:31:15.000Z</time>
      </trkpt>
      <trkpt lat="42.47044333" lon="-7.98485667">
        <ele>519.0</ele>
        <time>2018-10-03T09:31:16.000Z</time>
      </trkpt>
      <trkpt lat="42.47045167" lon="-7.984875">
        <ele>519.0</ele>
        <time>2018-10-03T09:31:17.000Z</time>
      </trkpt>
      <trkpt lat="42.47046167" lon="-7.98489167">
        <ele>519.0</ele>
        <time>2018-10-03T09:31:18.000Z</time>
      </trkpt>
      <trkpt lat="42.47047167" lon="-7.98490667">
        <ele>519.0</ele>
        <time>2018-10-03T09:31:19.000Z</time>
      </trkpt>
      <trkpt lat="42.47048" lon="-7.98492167">
        <ele>518.0</ele>
        <time>2018-10-03T09:31:20.000Z</time>
      </trkpt>
      <trkpt lat="42.47049333" lon="-7.98493667">
        <ele>518.0</ele>
        <time>2018-10-03T09:31:21.000Z</time>
      </trkpt>
      <trkpt lat="42.47050167" lon="-7.98495">
        <ele>518.0</ele>
        <time>2018-10-03T09:31:22.000Z</time>
      </trkpt>
      <trkpt lat="42.47051333" lon="-7.98496667">
        <ele>518.0</ele>
        <time>2018-10-03T09:31:23.000Z</time>
      </trkpt>
      <trkpt lat="42.47052167" lon="-7.98498167">
        <ele>517.0</ele>
        <time>2018-10-03T09:31:24.000Z</time>
      </trkpt>
      <trkpt lat="42.47053" lon="-7.985">
        <ele>517.0</ele>
        <time>2018-10-03T09:31:25.000Z</time>
      </trkpt>
      <trkpt lat="42.47054" lon="-7.98501667">
        <ele>517.0</ele>
        <time>2018-10-03T09:31:26.000Z</time>
      </trkpt>
      <trkpt lat="42.47055" lon="-7.98503333">
        <ele>517.0</ele>
        <time>2018-10-03T09:31:27.000Z</time>
      </trkpt>
      <trkpt lat="42.47055833" lon="-7.98505">
        <ele>517.0</ele>
        <time>2018-10-03T09:31:28.000Z</time>
      </trkpt>
      <trkpt lat="42.47056833" lon="-7.98506667">
        <ele>517.0</ele>
        <time>2018-10-03T09:31:29.000Z</time>
      </trkpt>
      <trkpt lat="42.47057833" lon="-7.98508333">
        <ele>517.0</ele>
        <time>2018-10-03T09:31:30.000Z</time>
      </trkpt>
      <trkpt lat="42.47058833" lon="-7.98510167">
        <ele>517.0</ele>
        <time>2018-10-03T09:31:31.000Z</time>
      </trkpt>
      <trkpt lat="42.47059833" lon="-7.98511833">
        <ele>517.0</ele>
        <time>2018-10-03T09:31:32.000Z</time>
      </trkpt>
      <trkpt lat="42.47060833" lon="-7.985135">
        <ele>517.0</ele>
        <time>2018-10-03T09:31:33.000Z</time>
      </trkpt>
      <trkpt lat="42.47062" lon="-7.98515167">
        <ele>517.0</ele>
        <time>2018-10-03T09:31:34.000Z</time>
      </trkpt>
      <trkpt lat="42.47063167" lon="-7.98516833">
        <ele>517.0</ele>
        <time>2018-10-03T09:31:35.000Z</time>
      </trkpt>
      <trkpt lat="42.47064333" lon="-7.98518333">
        <ele>517.0</ele>
        <time>2018-10-03T09:31:36.000Z</time>
      </trkpt>
      <trkpt lat="42.470655" lon="-7.9852">
        <ele>517.0</ele>
        <time>2018-10-03T09:31:37.000Z</time>
      </trkpt>
      <trkpt lat="42.47066667" lon="-7.985215">
        <ele>517.0</ele>
        <time>2018-10-03T09:31:38.000Z</time>
      </trkpt>
      <trkpt lat="42.47067333" lon="-7.98522333">
        <ele>518.0</ele>
        <time>2018-10-03T09:31:39.000Z</time>
      </trkpt>
      <trkpt lat="42.47068" lon="-7.98523167">
        <ele>518.0</ele>
        <time>2018-10-03T09:31:40.000Z</time>
      </trkpt>
      <trkpt lat="42.470685" lon="-7.98523667">
        <ele>518.0</ele>
        <time>2018-10-03T09:31:41.000Z</time>
      </trkpt>
      <trkpt lat="42.470685" lon="-7.98523833">
        <ele>518.0</ele>
        <time>2018-10-03T09:31:42.000Z</time>
      </trkpt>
      <trkpt lat="42.47069167" lon="-7.98524333">
        <ele>518.0</ele>
        <time>2018-10-03T09:31:43.000Z</time>
      </trkpt>
      <trkpt lat="42.4707" lon="-7.98525333">
        <ele>518.0</ele>
        <time>2018-10-03T09:31:44.000Z</time>
      </trkpt>
      <trkpt lat="42.47071" lon="-7.98526333">
        <ele>518.0</ele>
        <time>2018-10-03T09:31:45.000Z</time>
      </trkpt>
      <trkpt lat="42.47072167" lon="-7.98527333">
        <ele>518.0</ele>
        <time>2018-10-03T09:31:46.000Z</time>
      </trkpt>
      <trkpt lat="42.47073333" lon="-7.98528667">
        <ele>518.0</ele>
        <time>2018-10-03T09:31:47.000Z</time>
      </trkpt>
      <trkpt lat="42.470745" lon="-7.98529833">
        <ele>518.0</ele>
        <time>2018-10-03T09:31:48.000Z</time>
      </trkpt>
      <trkpt lat="42.47075667" lon="-7.98531">
        <ele>518.0</ele>
        <time>2018-10-03T09:31:49.000Z</time>
      </trkpt>
      <trkpt lat="42.47077" lon="-7.98532167">
        <ele>518.0</ele>
        <time>2018-10-03T09:31:50.000Z</time>
      </trkpt>
      <trkpt lat="42.47078167" lon="-7.98533333">
        <ele>518.0</ele>
        <time>2018-10-03T09:31:51.000Z</time>
      </trkpt>
      <trkpt lat="42.470795" lon="-7.98534667">
        <ele>518.0</ele>
        <time>2018-10-03T09:31:52.000Z</time>
      </trkpt>
      <trkpt lat="42.47081" lon="-7.98535833">
        <ele>518.0</ele>
        <time>2018-10-03T09:31:53.000Z</time>
      </trkpt>
      <trkpt lat="42.470825" lon="-7.98536833">
        <ele>517.0</ele>
        <time>2018-10-03T09:31:54.000Z</time>
      </trkpt>
      <trkpt lat="42.47084" lon="-7.98537833">
        <ele>517.0</ele>
        <time>2018-10-03T09:31:55.000Z</time>
      </trkpt>
      <trkpt lat="42.470855" lon="-7.98538667">
        <ele>517.0</ele>
        <time>2018-10-03T09:31:56.000Z</time>
      </trkpt>
      <trkpt lat="42.47086833" lon="-7.98539333">
        <ele>517.0</ele>
        <time>2018-10-03T09:31:57.000Z</time>
      </trkpt>
      <trkpt lat="42.47088333" lon="-7.98539833">
        <ele>517.0</ele>
        <time>2018-10-03T09:31:58.000Z</time>
      </trkpt>
      <trkpt lat="42.47089667" lon="-7.98540333">
        <ele>517.0</ele>
        <time>2018-10-03T09:31:59.000Z</time>
      </trkpt>
      <trkpt lat="42.47091" lon="-7.98540667">
        <ele>517.0</ele>
        <time>2018-10-03T09:32:00.000Z</time>
      </trkpt>
      <trkpt lat="42.47092333" lon="-7.98541167">
        <ele>517.0</ele>
        <time>2018-10-03T09:32:01.000Z</time>
      </trkpt>
      <trkpt lat="42.47093667" lon="-7.98541333">
        <ele>517.0</ele>
        <time>2018-10-03T09:32:02.000Z</time>
      </trkpt>
      <trkpt lat="42.47094833" lon="-7.985415">
        <ele>517.0</ele>
        <time>2018-10-03T09:32:03.000Z</time>
      </trkpt>
      <trkpt lat="42.47096" lon="-7.985415">
        <ele>517.0</ele>
        <time>2018-10-03T09:32:04.000Z</time>
      </trkpt>
      <trkpt lat="42.47097167" lon="-7.985415">
        <ele>517.0</ele>
        <time>2018-10-03T09:32:05.000Z</time>
      </trkpt>
      <trkpt lat="42.47098333" lon="-7.985415">
        <ele>517.0</ele>
        <time>2018-10-03T09:32:06.000Z</time>
      </trkpt>
      <trkpt lat="42.47099833" lon="-7.98541833">
        <ele>517.0</ele>
        <time>2018-10-03T09:32:07.000Z</time>
      </trkpt>
      <trkpt lat="42.471015" lon="-7.98542167">
        <ele>517.0</ele>
        <time>2018-10-03T09:32:08.000Z</time>
      </trkpt>
      <trkpt lat="42.47103333" lon="-7.98542333">
        <ele>517.0</ele>
        <time>2018-10-03T09:32:09.000Z</time>
      </trkpt>
      <trkpt lat="42.47105167" lon="-7.98542167">
        <ele>517.0</ele>
        <time>2018-10-03T09:32:10.000Z</time>
      </trkpt>
      <trkpt lat="42.47106833" lon="-7.98542167">
        <ele>517.0</ele>
        <time>2018-10-03T09:32:11.000Z</time>
      </trkpt>
      <trkpt lat="42.471085" lon="-7.98542333">
        <ele>517.0</ele>
        <time>2018-10-03T09:32:12.000Z</time>
      </trkpt>
      <trkpt lat="42.4711" lon="-7.98542333">
        <ele>517.0</ele>
        <time>2018-10-03T09:32:13.000Z</time>
      </trkpt>
      <trkpt lat="42.47111667" lon="-7.98542667">
        <ele>517.0</ele>
        <time>2018-10-03T09:32:14.000Z</time>
      </trkpt>
      <trkpt lat="42.47113167" lon="-7.98542833">
        <ele>517.0</ele>
        <time>2018-10-03T09:32:15.000Z</time>
      </trkpt>
      <trkpt lat="42.47115" lon="-7.98542667">
        <ele>517.0</ele>
        <time>2018-10-03T09:32:16.000Z</time>
      </trkpt>
      <trkpt lat="42.471165" lon="-7.98542333">
        <ele>517.0</ele>
        <time>2018-10-03T09:32:17.000Z</time>
      </trkpt>
      <trkpt lat="42.47117833" lon="-7.98541833">
        <ele>517.0</ele>
        <time>2018-10-03T09:32:18.000Z</time>
      </trkpt>
      <trkpt lat="42.47119" lon="-7.98541167">
        <ele>518.0</ele>
        <time>2018-10-03T09:32:19.000Z</time>
      </trkpt>
      <trkpt lat="42.47120333" lon="-7.98540667">
        <ele>518.0</ele>
        <time>2018-10-03T09:32:20.000Z</time>
      </trkpt>
      <trkpt lat="42.47121333" lon="-7.98539833">
        <ele>518.0</ele>
        <time>2018-10-03T09:32:21.000Z</time>
      </trkpt>
      <trkpt lat="42.471225" lon="-7.98539167">
        <ele>518.0</ele>
        <time>2018-10-03T09:32:22.000Z</time>
      </trkpt>
      <trkpt lat="42.471235" lon="-7.98538167">
        <ele>518.0</ele>
        <time>2018-10-03T09:32:23.000Z</time>
      </trkpt>
      <trkpt lat="42.471245" lon="-7.98537333">
        <ele>518.0</ele>
        <time>2018-10-03T09:32:24.000Z</time>
      </trkpt>
      <trkpt lat="42.47125667" lon="-7.98536667">
        <ele>519.0</ele>
        <time>2018-10-03T09:32:25.000Z</time>
      </trkpt>
      <trkpt lat="42.471265" lon="-7.98535667">
        <ele>519.0</ele>
        <time>2018-10-03T09:32:26.000Z</time>
      </trkpt>
      <trkpt lat="42.47127667" lon="-7.98534833">
        <ele>519.0</ele>
        <time>2018-10-03T09:32:27.000Z</time>
      </trkpt>
      <trkpt lat="42.47128667" lon="-7.98533667">
        <ele>519.0</ele>
        <time>2018-10-03T09:32:28.000Z</time>
      </trkpt>
      <trkpt lat="42.47129667" lon="-7.985325">
        <ele>520.0</ele>
        <time>2018-10-03T09:32:29.000Z</time>
      </trkpt>
      <trkpt lat="42.47130667" lon="-7.98531333">
        <ele>520.0</ele>
        <time>2018-10-03T09:32:30.000Z</time>
      </trkpt>
      <trkpt lat="42.471315" lon="-7.98530167">
        <ele>520.0</ele>
        <time>2018-10-03T09:32:31.000Z</time>
      </trkpt>
      <trkpt lat="42.471325" lon="-7.98528833">
        <ele>520.0</ele>
        <time>2018-10-03T09:32:32.000Z</time>
      </trkpt>
      <trkpt lat="42.47133333" lon="-7.98527667">
        <ele>520.0</ele>
        <time>2018-10-03T09:32:33.000Z</time>
      </trkpt>
      <trkpt lat="42.47134" lon="-7.98527">
        <ele>521.0</ele>
        <time>2018-10-03T09:32:34.000Z</time>
      </trkpt>
      <trkpt lat="42.47134667" lon="-7.98526333">
        <ele>521.0</ele>
        <time>2018-10-03T09:32:35.000Z</time>
      </trkpt>
      <trkpt lat="42.471355" lon="-7.98525333">
        <ele>521.0</ele>
        <time>2018-10-03T09:32:36.000Z</time>
      </trkpt>
      <trkpt lat="42.47136333" lon="-7.98524333">
        <ele>521.0</ele>
        <time>2018-10-03T09:32:37.000Z</time>
      </trkpt>
      <trkpt lat="42.47137" lon="-7.98523167">
        <ele>521.0</ele>
        <time>2018-10-03T09:32:38.000Z</time>
      </trkpt>
      <trkpt lat="42.47137833" lon="-7.98522">
        <ele>521.0</ele>
        <time>2018-10-03T09:32:39.000Z</time>
      </trkpt>
      <trkpt lat="42.471385" lon="-7.98520667">
        <ele>521.0</ele>
        <time>2018-10-03T09:32:40.000Z</time>
      </trkpt>
      <trkpt lat="42.47139" lon="-7.98519167">
        <ele>521.0</ele>
        <time>2018-10-03T09:32:41.000Z</time>
      </trkpt>
      <trkpt lat="42.47139667" lon="-7.98517833">
        <ele>521.0</ele>
        <time>2018-10-03T09:32:42.000Z</time>
      </trkpt>
      <trkpt lat="42.471405" lon="-7.98516667">
        <ele>522.0</ele>
        <time>2018-10-03T09:32:43.000Z</time>
      </trkpt>
      <trkpt lat="42.47141333" lon="-7.985155">
        <ele>522.0</ele>
        <time>2018-10-03T09:32:44.000Z</time>
      </trkpt>
      <trkpt lat="42.47142" lon="-7.985145">
        <ele>522.0</ele>
        <time>2018-10-03T09:32:45.000Z</time>
      </trkpt>
      <trkpt lat="42.47142667" lon="-7.985135">
        <ele>522.0</ele>
        <time>2018-10-03T09:32:46.000Z</time>
      </trkpt>
      <trkpt lat="42.471435" lon="-7.98512667">
        <ele>522.0</ele>
        <time>2018-10-03T09:32:47.000Z</time>
      </trkpt>
      <trkpt lat="42.47144333" lon="-7.985115">
        <ele>522.0</ele>
        <time>2018-10-03T09:32:48.000Z</time>
      </trkpt>
      <trkpt lat="42.47145" lon="-7.98510167">
        <ele>523.0</ele>
        <time>2018-10-03T09:32:49.000Z</time>
      </trkpt>
      <trkpt lat="42.47145833" lon="-7.98508833">
        <ele>523.0</ele>
        <time>2018-10-03T09:32:50.000Z</time>
      </trkpt>
      <trkpt lat="42.471465" lon="-7.985075">
        <ele>523.0</ele>
        <time>2018-10-03T09:32:51.000Z</time>
      </trkpt>
      <trkpt lat="42.47147333" lon="-7.985065">
        <ele>523.0</ele>
        <time>2018-10-03T09:32:52.000Z</time>
      </trkpt>
      <trkpt lat="42.47148333" lon="-7.98505333">
        <ele>523.0</ele>
        <time>2018-10-03T09:32:53.000Z</time>
      </trkpt>
      <trkpt lat="42.47149333" lon="-7.98504167">
        <ele>523.0</ele>
        <time>2018-10-03T09:32:54.000Z</time>
      </trkpt>
      <trkpt lat="42.47150333" lon="-7.98503333">
        <ele>523.0</ele>
        <time>2018-10-03T09:32:55.000Z</time>
      </trkpt>
      <trkpt lat="42.47151167" lon="-7.98502667">
        <ele>524.0</ele>
        <time>2018-10-03T09:32:56.000Z</time>
      </trkpt>
      <trkpt lat="42.47152" lon="-7.98502">
        <ele>524.0</ele>
        <time>2018-10-03T09:32:57.000Z</time>
      </trkpt>
      <trkpt lat="42.47152667" lon="-7.985015">
        <ele>524.0</ele>
        <time>2018-10-03T09:32:58.000Z</time>
      </trkpt>
      <trkpt lat="42.471535" lon="-7.98501">
        <ele>524.0</ele>
        <time>2018-10-03T09:32:59.000Z</time>
      </trkpt>
      <trkpt lat="42.47154333" lon="-7.985005">
        <ele>524.0</ele>
        <time>2018-10-03T09:33:00.000Z</time>
      </trkpt>
      <trkpt lat="42.47155333" lon="-7.98500167">
        <ele>524.0</ele>
        <time>2018-10-03T09:33:01.000Z</time>
      </trkpt>
      <trkpt lat="42.471565" lon="-7.98499833">
        <ele>524.0</ele>
        <time>2018-10-03T09:33:02.000Z</time>
      </trkpt>
      <trkpt lat="42.47157333" lon="-7.98499667">
        <ele>524.0</ele>
        <time>2018-10-03T09:33:03.000Z</time>
      </trkpt>
      <trkpt lat="42.47158333" lon="-7.984995">
        <ele>524.0</ele>
        <time>2018-10-03T09:33:04.000Z</time>
      </trkpt>
      <trkpt lat="42.471595" lon="-7.98499167">
        <ele>524.0</ele>
        <time>2018-10-03T09:33:05.000Z</time>
      </trkpt>
      <trkpt lat="42.47160667" lon="-7.98499167">
        <ele>524.0</ele>
        <time>2018-10-03T09:33:06.000Z</time>
      </trkpt>
      <trkpt lat="42.47161833" lon="-7.98499167">
        <ele>524.0</ele>
        <time>2018-10-03T09:33:07.000Z</time>
      </trkpt>
      <trkpt lat="42.47163" lon="-7.98499167">
        <ele>524.0</ele>
        <time>2018-10-03T09:33:08.000Z</time>
      </trkpt>
      <trkpt lat="42.47164167" lon="-7.984995">
        <ele>525.0</ele>
        <time>2018-10-03T09:33:09.000Z</time>
      </trkpt>
      <trkpt lat="42.47165333" lon="-7.98499667">
        <ele>525.0</ele>
        <time>2018-10-03T09:33:10.000Z</time>
      </trkpt>
      <trkpt lat="42.47166667" lon="-7.985">
        <ele>525.0</ele>
        <time>2018-10-03T09:33:11.000Z</time>
      </trkpt>
      <trkpt lat="42.47168" lon="-7.98500167">
        <ele>525.0</ele>
        <time>2018-10-03T09:33:12.000Z</time>
      </trkpt>
      <trkpt lat="42.47169333" lon="-7.98500667">
        <ele>525.0</ele>
        <time>2018-10-03T09:33:13.000Z</time>
      </trkpt>
      <trkpt lat="42.47170667" lon="-7.98501">
        <ele>525.0</ele>
        <time>2018-10-03T09:33:14.000Z</time>
      </trkpt>
      <trkpt lat="42.47172" lon="-7.985015">
        <ele>524.0</ele>
        <time>2018-10-03T09:33:15.000Z</time>
      </trkpt>
      <trkpt lat="42.471735" lon="-7.98501667">
        <ele>524.0</ele>
        <time>2018-10-03T09:33:16.000Z</time>
      </trkpt>
      <trkpt lat="42.47174833" lon="-7.98502">
        <ele>524.0</ele>
        <time>2018-10-03T09:33:17.000Z</time>
      </trkpt>
      <trkpt lat="42.47176333" lon="-7.98502333">
        <ele>524.0</ele>
        <time>2018-10-03T09:33:18.000Z</time>
      </trkpt>
      <trkpt lat="42.47177667" lon="-7.98502667">
        <ele>524.0</ele>
        <time>2018-10-03T09:33:19.000Z</time>
      </trkpt>
      <trkpt lat="42.47179167" lon="-7.98503">
        <ele>524.0</ele>
        <time>2018-10-03T09:33:20.000Z</time>
      </trkpt>
      <trkpt lat="42.471805" lon="-7.98503333">
        <ele>524.0</ele>
        <time>2018-10-03T09:33:21.000Z</time>
      </trkpt>
      <trkpt lat="42.47182" lon="-7.985035">
        <ele>524.0</ele>
        <time>2018-10-03T09:33:22.000Z</time>
      </trkpt>
      <trkpt lat="42.47183333" lon="-7.98503667">
        <ele>524.0</ele>
        <time>2018-10-03T09:33:23.000Z</time>
      </trkpt>
      <trkpt lat="42.47184667" lon="-7.98503833">
        <ele>524.0</ele>
        <time>2018-10-03T09:33:24.000Z</time>
      </trkpt>
      <trkpt lat="42.47186" lon="-7.98504">
        <ele>524.0</ele>
        <time>2018-10-03T09:33:25.000Z</time>
      </trkpt>
      <trkpt lat="42.471875" lon="-7.98504167">
        <ele>524.0</ele>
        <time>2018-10-03T09:33:26.000Z</time>
      </trkpt>
      <trkpt lat="42.47188833" lon="-7.98504333">
        <ele>524.0</ele>
        <time>2018-10-03T09:33:27.000Z</time>
      </trkpt>
      <trkpt lat="42.47190333" lon="-7.985045">
        <ele>524.0</ele>
        <time>2018-10-03T09:33:28.000Z</time>
      </trkpt>
      <trkpt lat="42.47191833" lon="-7.98504833">
        <ele>524.0</ele>
        <time>2018-10-03T09:33:29.000Z</time>
      </trkpt>
      <trkpt lat="42.47193167" lon="-7.98504833">
        <ele>524.0</ele>
        <time>2018-10-03T09:33:30.000Z</time>
      </trkpt>
      <trkpt lat="42.47194667" lon="-7.98504833">
        <ele>524.0</ele>
        <time>2018-10-03T09:33:31.000Z</time>
      </trkpt>
      <trkpt lat="42.47196167" lon="-7.98504833">
        <ele>524.0</ele>
        <time>2018-10-03T09:33:32.000Z</time>
      </trkpt>
      <trkpt lat="42.47197667" lon="-7.98504833">
        <ele>523.0</ele>
        <time>2018-10-03T09:33:33.000Z</time>
      </trkpt>
      <trkpt lat="42.47199167" lon="-7.98505">
        <ele>523.0</ele>
        <time>2018-10-03T09:33:34.000Z</time>
      </trkpt>
      <trkpt lat="42.47200667" lon="-7.98505">
        <ele>523.0</ele>
        <time>2018-10-03T09:33:35.000Z</time>
      </trkpt>
      <trkpt lat="42.47202167" lon="-7.98505">
        <ele>523.0</ele>
        <time>2018-10-03T09:33:36.000Z</time>
      </trkpt>
      <trkpt lat="42.47203667" lon="-7.98505">
        <ele>523.0</ele>
        <time>2018-10-03T09:33:37.000Z</time>
      </trkpt>
      <trkpt lat="42.47205167" lon="-7.98505">
        <ele>523.0</ele>
        <time>2018-10-03T09:33:38.000Z</time>
      </trkpt>
      <trkpt lat="42.47206667" lon="-7.98505167">
        <ele>523.0</ele>
        <time>2018-10-03T09:33:39.000Z</time>
      </trkpt>
      <trkpt lat="42.47208167" lon="-7.98505">
        <ele>523.0</ele>
        <time>2018-10-03T09:33:40.000Z</time>
      </trkpt>
      <trkpt lat="42.47209667" lon="-7.98504833">
        <ele>523.0</ele>
        <time>2018-10-03T09:33:41.000Z</time>
      </trkpt>
      <trkpt lat="42.47211167" lon="-7.98504833">
        <ele>523.0</ele>
        <time>2018-10-03T09:33:42.000Z</time>
      </trkpt>
      <trkpt lat="42.47212667" lon="-7.98504667">
        <ele>523.0</ele>
        <time>2018-10-03T09:33:43.000Z</time>
      </trkpt>
      <trkpt lat="42.47214167" lon="-7.98504333">
        <ele>523.0</ele>
        <time>2018-10-03T09:33:44.000Z</time>
      </trkpt>
      <trkpt lat="42.47215667" lon="-7.98504167">
        <ele>522.0</ele>
        <time>2018-10-03T09:33:45.000Z</time>
      </trkpt>
      <trkpt lat="42.47217167" lon="-7.98504">
        <ele>522.0</ele>
        <time>2018-10-03T09:33:46.000Z</time>
      </trkpt>
      <trkpt lat="42.47218667" lon="-7.98503833">
        <ele>522.0</ele>
        <time>2018-10-03T09:33:47.000Z</time>
      </trkpt>
      <trkpt lat="42.47220167" lon="-7.98503833">
        <ele>522.0</ele>
        <time>2018-10-03T09:33:48.000Z</time>
      </trkpt>
      <trkpt lat="42.472215" lon="-7.985035">
        <ele>522.0</ele>
        <time>2018-10-03T09:33:49.000Z</time>
      </trkpt>
      <trkpt lat="42.47223" lon="-7.98503">
        <ele>522.0</ele>
        <time>2018-10-03T09:33:50.000Z</time>
      </trkpt>
      <trkpt lat="42.472245" lon="-7.98502667">
        <ele>522.0</ele>
        <time>2018-10-03T09:33:51.000Z</time>
      </trkpt>
      <trkpt lat="42.47226" lon="-7.98502333">
        <ele>521.0</ele>
        <time>2018-10-03T09:33:52.000Z</time>
      </trkpt>
      <trkpt lat="42.472275" lon="-7.98502">
        <ele>521.0</ele>
        <time>2018-10-03T09:33:53.000Z</time>
      </trkpt>
      <trkpt lat="42.47228833" lon="-7.98501833">
        <ele>521.0</ele>
        <time>2018-10-03T09:33:54.000Z</time>
      </trkpt>
      <trkpt lat="42.47230167" lon="-7.98501833">
        <ele>521.0</ele>
        <time>2018-10-03T09:33:55.000Z</time>
      </trkpt>
      <trkpt lat="42.47231667" lon="-7.98502167">
        <ele>521.0</ele>
        <time>2018-10-03T09:33:56.000Z</time>
      </trkpt>
      <trkpt lat="42.47233" lon="-7.98502333">
        <ele>521.0</ele>
        <time>2018-10-03T09:33:57.000Z</time>
      </trkpt>
      <trkpt lat="42.47234333" lon="-7.985025">
        <ele>521.0</ele>
        <time>2018-10-03T09:33:58.000Z</time>
      </trkpt>
      <trkpt lat="42.47235833" lon="-7.98502667">
        <ele>521.0</ele>
        <time>2018-10-03T09:33:59.000Z</time>
      </trkpt>
      <trkpt lat="42.47237333" lon="-7.98502667">
        <ele>521.0</ele>
        <time>2018-10-03T09:34:00.000Z</time>
      </trkpt>
      <trkpt lat="42.47238833" lon="-7.98502833">
        <ele>521.0</ele>
        <time>2018-10-03T09:34:01.000Z</time>
      </trkpt>
      <trkpt lat="42.47240333" lon="-7.98502833">
        <ele>521.0</ele>
        <time>2018-10-03T09:34:02.000Z</time>
      </trkpt>
      <trkpt lat="42.47241833" lon="-7.98502667">
        <ele>521.0</ele>
        <time>2018-10-03T09:34:03.000Z</time>
      </trkpt>
      <trkpt lat="42.47243167" lon="-7.98502667">
        <ele>521.0</ele>
        <time>2018-10-03T09:34:04.000Z</time>
      </trkpt>
      <trkpt lat="42.47244667" lon="-7.98502833">
        <ele>521.0</ele>
        <time>2018-10-03T09:34:05.000Z</time>
      </trkpt>
      <trkpt lat="42.47246167" lon="-7.98503167">
        <ele>521.0</ele>
        <time>2018-10-03T09:34:06.000Z</time>
      </trkpt>
      <trkpt lat="42.47247333" lon="-7.985035">
        <ele>521.0</ele>
        <time>2018-10-03T09:34:07.000Z</time>
      </trkpt>
      <trkpt lat="42.472485" lon="-7.98503667">
        <ele>521.0</ele>
        <time>2018-10-03T09:34:08.000Z</time>
      </trkpt>
      <trkpt lat="42.47249833" lon="-7.98503833">
        <ele>521.0</ele>
        <time>2018-10-03T09:34:09.000Z</time>
      </trkpt>
      <trkpt lat="42.47251167" lon="-7.98504">
        <ele>521.0</ele>
        <time>2018-10-03T09:34:10.000Z</time>
      </trkpt>
      <trkpt lat="42.47252667" lon="-7.98504">
        <ele>521.0</ele>
        <time>2018-10-03T09:34:11.000Z</time>
      </trkpt>
      <trkpt lat="42.47254167" lon="-7.98504167">
        <ele>521.0</ele>
        <time>2018-10-03T09:34:12.000Z</time>
      </trkpt>
      <trkpt lat="42.47255667" lon="-7.98504167">
        <ele>521.0</ele>
        <time>2018-10-03T09:34:13.000Z</time>
      </trkpt>
      <trkpt lat="42.47257167" lon="-7.98504333">
        <ele>521.0</ele>
        <time>2018-10-03T09:34:14.000Z</time>
      </trkpt>
      <trkpt lat="42.47258667" lon="-7.98504667">
        <ele>520.0</ele>
        <time>2018-10-03T09:34:15.000Z</time>
      </trkpt>
      <trkpt lat="42.4726" lon="-7.98504833">
        <ele>520.0</ele>
        <time>2018-10-03T09:34:16.000Z</time>
      </trkpt>
      <trkpt lat="42.47261333" lon="-7.98505167">
        <ele>520.0</ele>
        <time>2018-10-03T09:34:17.000Z</time>
      </trkpt>
      <trkpt lat="42.47262833" lon="-7.985055">
        <ele>520.0</ele>
        <time>2018-10-03T09:34:18.000Z</time>
      </trkpt>
      <trkpt lat="42.47264167" lon="-7.98505833">
        <ele>520.0</ele>
        <time>2018-10-03T09:34:19.000Z</time>
      </trkpt>
      <trkpt lat="42.47265667" lon="-7.98506167">
        <ele>520.0</ele>
        <time>2018-10-03T09:34:20.000Z</time>
      </trkpt>
      <trkpt lat="42.47267" lon="-7.985065">
        <ele>520.0</ele>
        <time>2018-10-03T09:34:21.000Z</time>
      </trkpt>
      <trkpt lat="42.472685" lon="-7.98506833">
        <ele>519.0</ele>
        <time>2018-10-03T09:34:22.000Z</time>
      </trkpt>
      <trkpt lat="42.4727" lon="-7.98507167">
        <ele>519.0</ele>
        <time>2018-10-03T09:34:23.000Z</time>
      </trkpt>
      <trkpt lat="42.47271667" lon="-7.98507333">
        <ele>519.0</ele>
        <time>2018-10-03T09:34:24.000Z</time>
      </trkpt>
      <trkpt lat="42.47273333" lon="-7.98507333">
        <ele>519.0</ele>
        <time>2018-10-03T09:34:25.000Z</time>
      </trkpt>
      <trkpt lat="42.47274833" lon="-7.98507833">
        <ele>519.0</ele>
        <time>2018-10-03T09:34:26.000Z</time>
      </trkpt>
      <trkpt lat="42.47276333" lon="-7.98508333">
        <ele>519.0</ele>
        <time>2018-10-03T09:34:27.000Z</time>
      </trkpt>
      <trkpt lat="42.47277833" lon="-7.98509167">
        <ele>519.0</ele>
        <time>2018-10-03T09:34:28.000Z</time>
      </trkpt>
      <trkpt lat="42.47279333" lon="-7.98509667">
        <ele>518.0</ele>
        <time>2018-10-03T09:34:29.000Z</time>
      </trkpt>
      <trkpt lat="42.47280833" lon="-7.9851">
        <ele>518.0</ele>
        <time>2018-10-03T09:34:30.000Z</time>
      </trkpt>
      <trkpt lat="42.47282167" lon="-7.985105">
        <ele>518.0</ele>
        <time>2018-10-03T09:34:31.000Z</time>
      </trkpt>
      <trkpt lat="42.47283167" lon="-7.98511">
        <ele>518.0</ele>
        <time>2018-10-03T09:34:32.000Z</time>
      </trkpt>
      <trkpt lat="42.47284333" lon="-7.985115">
        <ele>518.0</ele>
        <time>2018-10-03T09:34:33.000Z</time>
      </trkpt>
      <trkpt lat="42.472855" lon="-7.98512167">
        <ele>517.0</ele>
        <time>2018-10-03T09:34:34.000Z</time>
      </trkpt>
      <trkpt lat="42.472865" lon="-7.98512833">
        <ele>517.0</ele>
        <time>2018-10-03T09:34:35.000Z</time>
      </trkpt>
      <trkpt lat="42.47287833" lon="-7.98513667">
        <ele>517.0</ele>
        <time>2018-10-03T09:34:36.000Z</time>
      </trkpt>
      <trkpt lat="42.47289" lon="-7.98514667">
        <ele>517.0</ele>
        <time>2018-10-03T09:34:37.000Z</time>
      </trkpt>
      <trkpt lat="42.47290333" lon="-7.985155">
        <ele>517.0</ele>
        <time>2018-10-03T09:34:38.000Z</time>
      </trkpt>
      <trkpt lat="42.472915" lon="-7.985165">
        <ele>517.0</ele>
        <time>2018-10-03T09:34:39.000Z</time>
      </trkpt>
      <trkpt lat="42.47292833" lon="-7.98517833">
        <ele>516.0</ele>
        <time>2018-10-03T09:34:40.000Z</time>
      </trkpt>
      <trkpt lat="42.47293833" lon="-7.98519333">
        <ele>516.0</ele>
        <time>2018-10-03T09:34:41.000Z</time>
      </trkpt>
      <trkpt lat="42.47295167" lon="-7.98520833">
        <ele>516.0</ele>
        <time>2018-10-03T09:34:42.000Z</time>
      </trkpt>
      <trkpt lat="42.47296333" lon="-7.98522333">
        <ele>516.0</ele>
        <time>2018-10-03T09:34:43.000Z</time>
      </trkpt>
      <trkpt lat="42.472975" lon="-7.98523833">
        <ele>516.0</ele>
        <time>2018-10-03T09:34:44.000Z</time>
      </trkpt>
      <trkpt lat="42.472985" lon="-7.985255">
        <ele>516.0</ele>
        <time>2018-10-03T09:34:45.000Z</time>
      </trkpt>
      <trkpt lat="42.472995" lon="-7.98527167">
        <ele>516.0</ele>
        <time>2018-10-03T09:34:46.000Z</time>
      </trkpt>
      <trkpt lat="42.47300333" lon="-7.98528833">
        <ele>516.0</ele>
        <time>2018-10-03T09:34:47.000Z</time>
      </trkpt>
      <trkpt lat="42.47301" lon="-7.985305">
        <ele>516.0</ele>
        <time>2018-10-03T09:34:48.000Z</time>
      </trkpt>
      <trkpt lat="42.47301667" lon="-7.98532333">
        <ele>516.0</ele>
        <time>2018-10-03T09:34:49.000Z</time>
      </trkpt>
      <trkpt lat="42.47302333" lon="-7.98534167">
        <ele>516.0</ele>
        <time>2018-10-03T09:34:50.000Z</time>
      </trkpt>
      <trkpt lat="42.47303" lon="-7.98535833">
        <ele>516.0</ele>
        <time>2018-10-03T09:34:51.000Z</time>
      </trkpt>
      <trkpt lat="42.47303833" lon="-7.985375">
        <ele>516.0</ele>
        <time>2018-10-03T09:34:52.000Z</time>
      </trkpt>
      <trkpt lat="42.47304667" lon="-7.98539167">
        <ele>516.0</ele>
        <time>2018-10-03T09:34:53.000Z</time>
      </trkpt>
      <trkpt lat="42.47305333" lon="-7.98540833">
        <ele>516.0</ele>
        <time>2018-10-03T09:34:54.000Z</time>
      </trkpt>
      <trkpt lat="42.47306" lon="-7.985425">
        <ele>516.0</ele>
        <time>2018-10-03T09:34:55.000Z</time>
      </trkpt>
      <trkpt lat="42.47306833" lon="-7.98544167">
        <ele>516.0</ele>
        <time>2018-10-03T09:34:56.000Z</time>
      </trkpt>
      <trkpt lat="42.473075" lon="-7.98545833">
        <ele>516.0</ele>
        <time>2018-10-03T09:34:57.000Z</time>
      </trkpt>
      <trkpt lat="42.47308" lon="-7.985475">
        <ele>516.0</ele>
        <time>2018-10-03T09:34:58.000Z</time>
      </trkpt>
      <trkpt lat="42.473085" lon="-7.98549333">
        <ele>516.0</ele>
        <time>2018-10-03T09:34:59.000Z</time>
      </trkpt>
      <trkpt lat="42.47309" lon="-7.98551">
        <ele>516.0</ele>
        <time>2018-10-03T09:35:00.000Z</time>
      </trkpt>
      <trkpt lat="42.473095" lon="-7.98552833">
        <ele>516.0</ele>
        <time>2018-10-03T09:35:01.000Z</time>
      </trkpt>
      <trkpt lat="42.47310167" lon="-7.98554667">
        <ele>516.0</ele>
        <time>2018-10-03T09:35:02.000Z</time>
      </trkpt>
      <trkpt lat="42.47310667" lon="-7.98556333">
        <ele>516.0</ele>
        <time>2018-10-03T09:35:03.000Z</time>
      </trkpt>
      <trkpt lat="42.47311" lon="-7.98558167">
        <ele>516.0</ele>
        <time>2018-10-03T09:35:04.000Z</time>
      </trkpt>
      <trkpt lat="42.473115" lon="-7.98559667">
        <ele>516.0</ele>
        <time>2018-10-03T09:35:05.000Z</time>
      </trkpt>
      <trkpt lat="42.47312167" lon="-7.98561">
        <ele>517.0</ele>
        <time>2018-10-03T09:35:06.000Z</time>
      </trkpt>
      <trkpt lat="42.47312833" lon="-7.985625">
        <ele>517.0</ele>
        <time>2018-10-03T09:35:07.000Z</time>
      </trkpt>
      <trkpt lat="42.47313667" lon="-7.98563833">
        <ele>517.0</ele>
        <time>2018-10-03T09:35:08.000Z</time>
      </trkpt>
      <trkpt lat="42.473145" lon="-7.98565333">
        <ele>517.0</ele>
        <time>2018-10-03T09:35:09.000Z</time>
      </trkpt>
      <trkpt lat="42.473155" lon="-7.98566833">
        <ele>517.0</ele>
        <time>2018-10-03T09:35:10.000Z</time>
      </trkpt>
      <trkpt lat="42.47316333" lon="-7.98568333">
        <ele>517.0</ele>
        <time>2018-10-03T09:35:11.000Z</time>
      </trkpt>
      <trkpt lat="42.47317167" lon="-7.98569833">
        <ele>517.0</ele>
        <time>2018-10-03T09:35:12.000Z</time>
      </trkpt>
      <trkpt lat="42.47318167" lon="-7.98571333">
        <ele>517.0</ele>
        <time>2018-10-03T09:35:13.000Z</time>
      </trkpt>
      <trkpt lat="42.47319" lon="-7.98572833">
        <ele>517.0</ele>
        <time>2018-10-03T09:35:14.000Z</time>
      </trkpt>
      <trkpt lat="42.4732" lon="-7.98574333">
        <ele>517.0</ele>
        <time>2018-10-03T09:35:15.000Z</time>
      </trkpt>
      <trkpt lat="42.47320667" lon="-7.98575667">
        <ele>517.0</ele>
        <time>2018-10-03T09:35:16.000Z</time>
      </trkpt>
      <trkpt lat="42.47321333" lon="-7.98576667">
        <ele>517.0</ele>
        <time>2018-10-03T09:35:17.000Z</time>
      </trkpt>
      <trkpt lat="42.47322167" lon="-7.98577667">
        <ele>518.0</ele>
        <time>2018-10-03T09:35:18.000Z</time>
      </trkpt>
      <trkpt lat="42.47323" lon="-7.98578667">
        <ele>518.0</ele>
        <time>2018-10-03T09:35:19.000Z</time>
      </trkpt>
      <trkpt lat="42.47324167" lon="-7.985795">
        <ele>518.0</ele>
        <time>2018-10-03T09:35:20.000Z</time>
      </trkpt>
      <trkpt lat="42.47325167" lon="-7.98580333">
        <ele>518.0</ele>
        <time>2018-10-03T09:35:21.000Z</time>
      </trkpt>
      <trkpt lat="42.47325833" lon="-7.98581167">
        <ele>518.0</ele>
        <time>2018-10-03T09:35:22.000Z</time>
      </trkpt>
      <trkpt lat="42.47326333" lon="-7.98582333">
        <ele>518.0</ele>
        <time>2018-10-03T09:35:23.000Z</time>
      </trkpt>
      <trkpt lat="42.47326333" lon="-7.98584">
        <ele>518.0</ele>
        <time>2018-10-03T09:35:24.000Z</time>
      </trkpt>
      <trkpt lat="42.47326" lon="-7.98585833">
        <ele>518.0</ele>
        <time>2018-10-03T09:35:25.000Z</time>
      </trkpt>
      <trkpt lat="42.47325667" lon="-7.985875">
        <ele>518.0</ele>
        <time>2018-10-03T09:35:26.000Z</time>
      </trkpt>
      <trkpt lat="42.47325167" lon="-7.98589">
        <ele>518.0</ele>
        <time>2018-10-03T09:35:27.000Z</time>
      </trkpt>
      <trkpt lat="42.473245" lon="-7.98590667">
        <ele>518.0</ele>
        <time>2018-10-03T09:35:28.000Z</time>
      </trkpt>
      <trkpt lat="42.47324" lon="-7.985925">
        <ele>518.0</ele>
        <time>2018-10-03T09:35:29.000Z</time>
      </trkpt>
      <trkpt lat="42.47323333" lon="-7.985945">
        <ele>518.0</ele>
        <time>2018-10-03T09:35:30.000Z</time>
      </trkpt>
      <trkpt lat="42.47322833" lon="-7.985965">
        <ele>518.0</ele>
        <time>2018-10-03T09:35:31.000Z</time>
      </trkpt>
      <trkpt lat="42.47322167" lon="-7.98598167">
        <ele>518.0</ele>
        <time>2018-10-03T09:35:32.000Z</time>
      </trkpt>
      <trkpt lat="42.473215" lon="-7.98599833">
        <ele>518.0</ele>
        <time>2018-10-03T09:35:33.000Z</time>
      </trkpt>
      <trkpt lat="42.47320833" lon="-7.98601667">
        <ele>518.0</ele>
        <time>2018-10-03T09:35:34.000Z</time>
      </trkpt>
      <trkpt lat="42.47319833" lon="-7.98603333">
        <ele>519.0</ele>
        <time>2018-10-03T09:35:35.000Z</time>
      </trkpt>
      <trkpt lat="42.47319" lon="-7.98605">
        <ele>519.0</ele>
        <time>2018-10-03T09:35:36.000Z</time>
      </trkpt>
      <trkpt lat="42.47318" lon="-7.986065">
        <ele>519.0</ele>
        <time>2018-10-03T09:35:37.000Z</time>
      </trkpt>
      <trkpt lat="42.47317167" lon="-7.98608333">
        <ele>519.0</ele>
        <time>2018-10-03T09:35:38.000Z</time>
      </trkpt>
      <trkpt lat="42.473165" lon="-7.98610167">
        <ele>519.0</ele>
        <time>2018-10-03T09:35:39.000Z</time>
      </trkpt>
      <trkpt lat="42.47315833" lon="-7.98611833">
        <ele>519.0</ele>
        <time>2018-10-03T09:35:40.000Z</time>
      </trkpt>
      <trkpt lat="42.47315333" lon="-7.98613833">
        <ele>519.0</ele>
        <time>2018-10-03T09:35:41.000Z</time>
      </trkpt>
      <trkpt lat="42.47314667" lon="-7.98615833">
        <ele>519.0</ele>
        <time>2018-10-03T09:35:42.000Z</time>
      </trkpt>
      <trkpt lat="42.47314333" lon="-7.98617833">
        <ele>519.0</ele>
        <time>2018-10-03T09:35:43.000Z</time>
      </trkpt>
      <trkpt lat="42.47314167" lon="-7.98619667">
        <ele>519.0</ele>
        <time>2018-10-03T09:35:44.000Z</time>
      </trkpt>
      <trkpt lat="42.47314" lon="-7.98621667">
        <ele>519.0</ele>
        <time>2018-10-03T09:35:45.000Z</time>
      </trkpt>
      <trkpt lat="42.47313833" lon="-7.98623667">
        <ele>519.0</ele>
        <time>2018-10-03T09:35:46.000Z</time>
      </trkpt>
      <trkpt lat="42.473135" lon="-7.98625333">
        <ele>519.0</ele>
        <time>2018-10-03T09:35:47.000Z</time>
      </trkpt>
      <trkpt lat="42.473135" lon="-7.98627167">
        <ele>519.0</ele>
        <time>2018-10-03T09:35:48.000Z</time>
      </trkpt>
      <trkpt lat="42.473135" lon="-7.98629">
        <ele>519.0</ele>
        <time>2018-10-03T09:35:49.000Z</time>
      </trkpt>
      <trkpt lat="42.473135" lon="-7.98630833">
        <ele>519.0</ele>
        <time>2018-10-03T09:35:50.000Z</time>
      </trkpt>
      <trkpt lat="42.47313667" lon="-7.98633167">
        <ele>519.0</ele>
        <time>2018-10-03T09:35:51.000Z</time>
      </trkpt>
      <trkpt lat="42.47313667" lon="-7.98635">
        <ele>519.0</ele>
        <time>2018-10-03T09:35:52.000Z</time>
      </trkpt>
      <trkpt lat="42.473135" lon="-7.98636833">
        <ele>519.0</ele>
        <time>2018-10-03T09:35:53.000Z</time>
      </trkpt>
      <trkpt lat="42.47313333" lon="-7.98638667">
        <ele>519.0</ele>
        <time>2018-10-03T09:35:54.000Z</time>
      </trkpt>
      <trkpt lat="42.47313333" lon="-7.98640333">
        <ele>519.0</ele>
        <time>2018-10-03T09:35:55.000Z</time>
      </trkpt>
      <trkpt lat="42.473135" lon="-7.98641833">
        <ele>519.0</ele>
        <time>2018-10-03T09:35:56.000Z</time>
      </trkpt>
      <trkpt lat="42.47313667" lon="-7.98643167">
        <ele>519.0</ele>
        <time>2018-10-03T09:35:57.000Z</time>
      </trkpt>
      <trkpt lat="42.47314167" lon="-7.98643833">
        <ele>519.0</ele>
        <time>2018-10-03T09:35:58.000Z</time>
      </trkpt>
      <trkpt lat="42.47314833" lon="-7.98644333">
        <ele>519.0</ele>
        <time>2018-10-03T09:35:59.000Z</time>
      </trkpt>
      <trkpt lat="42.47315833" lon="-7.98644667">
        <ele>519.0</ele>
        <time>2018-10-03T09:36:00.000Z</time>
      </trkpt>
      <trkpt lat="42.47317" lon="-7.98644833">
        <ele>519.0</ele>
        <time>2018-10-03T09:36:01.000Z</time>
      </trkpt>
      <trkpt lat="42.47318333" lon="-7.98645167">
        <ele>519.0</ele>
        <time>2018-10-03T09:36:02.000Z</time>
      </trkpt>
      <trkpt lat="42.47319833" lon="-7.98645167">
        <ele>519.0</ele>
        <time>2018-10-03T09:36:03.000Z</time>
      </trkpt>
      <trkpt lat="42.47321333" lon="-7.98645167">
        <ele>519.0</ele>
        <time>2018-10-03T09:36:04.000Z</time>
      </trkpt>
      <trkpt lat="42.47323" lon="-7.98645333">
        <ele>519.0</ele>
        <time>2018-10-03T09:36:05.000Z</time>
      </trkpt>
      <trkpt lat="42.47324333" lon="-7.986455">
        <ele>519.0</ele>
        <time>2018-10-03T09:36:06.000Z</time>
      </trkpt>
      <trkpt lat="42.47325667" lon="-7.98645833">
        <ele>519.0</ele>
        <time>2018-10-03T09:36:07.000Z</time>
      </trkpt>
      <trkpt lat="42.47326833" lon="-7.98646333">
        <ele>519.0</ele>
        <time>2018-10-03T09:36:08.000Z</time>
      </trkpt>
      <trkpt lat="42.47328" lon="-7.98646667">
        <ele>519.0</ele>
        <time>2018-10-03T09:36:09.000Z</time>
      </trkpt>
      <trkpt lat="42.473295" lon="-7.98647333">
        <ele>519.0</ele>
        <time>2018-10-03T09:36:10.000Z</time>
      </trkpt>
      <trkpt lat="42.47331" lon="-7.98647833">
        <ele>519.0</ele>
        <time>2018-10-03T09:36:11.000Z</time>
      </trkpt>
      <trkpt lat="42.473325" lon="-7.98648333">
        <ele>519.0</ele>
        <time>2018-10-03T09:36:12.000Z</time>
      </trkpt>
      <trkpt lat="42.47334333" lon="-7.98649">
        <ele>519.0</ele>
        <time>2018-10-03T09:36:13.000Z</time>
      </trkpt>
      <trkpt lat="42.47335833" lon="-7.98649833">
        <ele>519.0</ele>
        <time>2018-10-03T09:36:14.000Z</time>
      </trkpt>
      <trkpt lat="42.47337333" lon="-7.98650667">
        <ele>518.0</ele>
        <time>2018-10-03T09:36:15.000Z</time>
      </trkpt>
      <trkpt lat="42.47338833" lon="-7.986515">
        <ele>518.0</ele>
        <time>2018-10-03T09:36:16.000Z</time>
      </trkpt>
      <trkpt lat="42.47340333" lon="-7.98652333">
        <ele>518.0</ele>
        <time>2018-10-03T09:36:17.000Z</time>
      </trkpt>
      <trkpt lat="42.47341833" lon="-7.98653167">
        <ele>518.0</ele>
        <time>2018-10-03T09:36:18.000Z</time>
      </trkpt>
      <trkpt lat="42.47343167" lon="-7.98653667">
        <ele>518.0</ele>
        <time>2018-10-03T09:36:19.000Z</time>
      </trkpt>
      <trkpt lat="42.47344667" lon="-7.98654333">
        <ele>518.0</ele>
        <time>2018-10-03T09:36:20.000Z</time>
      </trkpt>
      <trkpt lat="42.47345833" lon="-7.98655333">
        <ele>518.0</ele>
        <time>2018-10-03T09:36:21.000Z</time>
      </trkpt>
      <trkpt lat="42.47347" lon="-7.98656167">
        <ele>518.0</ele>
        <time>2018-10-03T09:36:22.000Z</time>
      </trkpt>
      <trkpt lat="42.47348167" lon="-7.98657">
        <ele>518.0</ele>
        <time>2018-10-03T09:36:23.000Z</time>
      </trkpt>
      <trkpt lat="42.473495" lon="-7.98657667">
        <ele>519.0</ele>
        <time>2018-10-03T09:36:24.000Z</time>
      </trkpt>
      <trkpt lat="42.47350667" lon="-7.98658333">
        <ele>519.0</ele>
        <time>2018-10-03T09:36:25.000Z</time>
      </trkpt>
      <trkpt lat="42.47352167" lon="-7.98658333">
        <ele>519.0</ele>
        <time>2018-10-03T09:36:26.000Z</time>
      </trkpt>
      <trkpt lat="42.473535" lon="-7.98658333">
        <ele>519.0</ele>
        <time>2018-10-03T09:36:27.000Z</time>
      </trkpt>
      <trkpt lat="42.47354333" lon="-7.98658333">
        <ele>519.0</ele>
        <time>2018-10-03T09:36:28.000Z</time>
      </trkpt>
      <trkpt lat="42.47355333" lon="-7.986585">
        <ele>519.0</ele>
        <time>2018-10-03T09:36:29.000Z</time>
      </trkpt>
      <trkpt lat="42.47356" lon="-7.98659333">
        <ele>519.0</ele>
        <time>2018-10-03T09:36:30.000Z</time>
      </trkpt>
      <trkpt lat="42.47357" lon="-7.986605">
        <ele>519.0</ele>
        <time>2018-10-03T09:36:31.000Z</time>
      </trkpt>
      <trkpt lat="42.47357833" lon="-7.986615">
        <ele>519.0</ele>
        <time>2018-10-03T09:36:32.000Z</time>
      </trkpt>
      <trkpt lat="42.47358167" lon="-7.98661333">
        <ele>519.0</ele>
        <time>2018-10-03T09:36:33.000Z</time>
      </trkpt>
      <trkpt lat="42.47358167" lon="-7.98660833">
        <ele>519.0</ele>
        <time>2018-10-03T09:36:34.000Z</time>
      </trkpt>
      <trkpt lat="42.47358333" lon="-7.98661167">
        <ele>520.0</ele>
        <time>2018-10-03T09:36:35.000Z</time>
      </trkpt>
      <trkpt lat="42.47358333" lon="-7.98661333">
        <ele>520.0</ele>
        <time>2018-10-03T09:36:36.000Z</time>
      </trkpt>
      <trkpt lat="42.47358667" lon="-7.98661167">
        <ele>520.0</ele>
        <time>2018-10-03T09:36:37.000Z</time>
      </trkpt>
      <trkpt lat="42.47358833" lon="-7.986605">
        <ele>520.0</ele>
        <time>2018-10-03T09:36:38.000Z</time>
      </trkpt>
      <trkpt lat="42.47359333" lon="-7.986605">
        <ele>520.0</ele>
        <time>2018-10-03T09:36:39.000Z</time>
      </trkpt>
      <trkpt lat="42.4736" lon="-7.98661167">
        <ele>520.0</ele>
        <time>2018-10-03T09:36:40.000Z</time>
      </trkpt>
      <trkpt lat="42.47360667" lon="-7.98662167">
        <ele>520.0</ele>
        <time>2018-10-03T09:36:41.000Z</time>
      </trkpt>
      <trkpt lat="42.473615" lon="-7.98663333">
        <ele>520.0</ele>
        <time>2018-10-03T09:36:42.000Z</time>
      </trkpt>
      <trkpt lat="42.47362167" lon="-7.98664333">
        <ele>520.0</ele>
        <time>2018-10-03T09:36:43.000Z</time>
      </trkpt>
      <trkpt lat="42.473625" lon="-7.98665333">
        <ele>520.0</ele>
        <time>2018-10-03T09:36:44.000Z</time>
      </trkpt>
      <trkpt lat="42.47362167" lon="-7.98664833">
        <ele>520.0</ele>
        <time>2018-10-03T09:36:45.000Z</time>
      </trkpt>
      <trkpt lat="42.47361667" lon="-7.98664167">
        <ele>520.0</ele>
        <time>2018-10-03T09:36:46.000Z</time>
      </trkpt>
      <trkpt lat="42.47361" lon="-7.98663">
        <ele>521.0</ele>
        <time>2018-10-03T09:36:47.000Z</time>
      </trkpt>
      <trkpt lat="42.473605" lon="-7.98661667">
        <ele>521.0</ele>
        <time>2018-10-03T09:36:48.000Z</time>
      </trkpt>
      <trkpt lat="42.47360167" lon="-7.98660167">
        <ele>521.0</ele>
        <time>2018-10-03T09:36:49.000Z</time>
      </trkpt>
      <trkpt lat="42.47359667" lon="-7.98659">
        <ele>521.0</ele>
        <time>2018-10-03T09:36:50.000Z</time>
      </trkpt>
      <trkpt lat="42.47359" lon="-7.98658">
        <ele>521.0</ele>
        <time>2018-10-03T09:36:51.000Z</time>
      </trkpt>
      <trkpt lat="42.47358333" lon="-7.98656833">
        <ele>522.0</ele>
        <time>2018-10-03T09:36:52.000Z</time>
      </trkpt>
      <trkpt lat="42.47358" lon="-7.98655667">
        <ele>522.0</ele>
        <time>2018-10-03T09:36:53.000Z</time>
      </trkpt>
      <trkpt lat="42.47357833" lon="-7.98654333">
        <ele>522.0</ele>
        <time>2018-10-03T09:36:54.000Z</time>
      </trkpt>
      <trkpt lat="42.47358" lon="-7.98653">
        <ele>522.0</ele>
        <time>2018-10-03T09:36:55.000Z</time>
      </trkpt>
      <trkpt lat="42.47358333" lon="-7.986515">
        <ele>522.0</ele>
        <time>2018-10-03T09:36:56.000Z</time>
      </trkpt>
      <trkpt lat="42.47358833" lon="-7.98649833">
        <ele>522.0</ele>
        <time>2018-10-03T09:36:57.000Z</time>
      </trkpt>
      <trkpt lat="42.47359167" lon="-7.98648167">
        <ele>522.0</ele>
        <time>2018-10-03T09:36:58.000Z</time>
      </trkpt>
      <trkpt lat="42.47359667" lon="-7.98646833">
        <ele>522.0</ele>
        <time>2018-10-03T09:36:59.000Z</time>
      </trkpt>
      <trkpt lat="42.4736" lon="-7.98645167">
        <ele>522.0</ele>
        <time>2018-10-03T09:37:00.000Z</time>
      </trkpt>
      <trkpt lat="42.473605" lon="-7.98643333">
        <ele>522.0</ele>
        <time>2018-10-03T09:37:01.000Z</time>
      </trkpt>
      <trkpt lat="42.47361333" lon="-7.98641667">
        <ele>522.0</ele>
        <time>2018-10-03T09:37:02.000Z</time>
      </trkpt>
      <trkpt lat="42.47362167" lon="-7.98639833">
        <ele>522.0</ele>
        <time>2018-10-03T09:37:03.000Z</time>
      </trkpt>
      <trkpt lat="42.47363" lon="-7.98638">
        <ele>522.0</ele>
        <time>2018-10-03T09:37:04.000Z</time>
      </trkpt>
      <trkpt lat="42.47363833" lon="-7.98636167">
        <ele>522.0</ele>
        <time>2018-10-03T09:37:05.000Z</time>
      </trkpt>
      <trkpt lat="42.47364667" lon="-7.98634167">
        <ele>522.0</ele>
        <time>2018-10-03T09:37:06.000Z</time>
      </trkpt>
      <trkpt lat="42.47365167" lon="-7.98632">
        <ele>522.0</ele>
        <time>2018-10-03T09:37:07.000Z</time>
      </trkpt>
      <trkpt lat="42.47365333" lon="-7.9863">
        <ele>522.0</ele>
        <time>2018-10-03T09:37:08.000Z</time>
      </trkpt>
      <trkpt lat="42.47365333" lon="-7.98627833">
        <ele>522.0</ele>
        <time>2018-10-03T09:37:09.000Z</time>
      </trkpt>
      <trkpt lat="42.47365333" lon="-7.98626">
        <ele>522.0</ele>
        <time>2018-10-03T09:37:10.000Z</time>
      </trkpt>
      <trkpt lat="42.47365167" lon="-7.98624">
        <ele>522.0</ele>
        <time>2018-10-03T09:37:11.000Z</time>
      </trkpt>
      <trkpt lat="42.47365" lon="-7.98622167">
        <ele>522.0</ele>
        <time>2018-10-03T09:37:12.000Z</time>
      </trkpt>
      <trkpt lat="42.47364833" lon="-7.98620167">
        <ele>522.0</ele>
        <time>2018-10-03T09:37:13.000Z</time>
      </trkpt>
      <trkpt lat="42.47364667" lon="-7.98618333">
        <ele>522.0</ele>
        <time>2018-10-03T09:37:14.000Z</time>
      </trkpt>
      <trkpt lat="42.473645" lon="-7.98616333">
        <ele>522.0</ele>
        <time>2018-10-03T09:37:15.000Z</time>
      </trkpt>
      <trkpt lat="42.47364333" lon="-7.98614167">
        <ele>522.0</ele>
        <time>2018-10-03T09:37:16.000Z</time>
      </trkpt>
      <trkpt lat="42.47364167" lon="-7.98612333">
        <ele>522.0</ele>
        <time>2018-10-03T09:37:17.000Z</time>
      </trkpt>
      <trkpt lat="42.47364167" lon="-7.986105">
        <ele>522.0</ele>
        <time>2018-10-03T09:37:18.000Z</time>
      </trkpt>
      <trkpt lat="42.47364333" lon="-7.986085">
        <ele>522.0</ele>
        <time>2018-10-03T09:37:19.000Z</time>
      </trkpt>
      <trkpt lat="42.47364167" lon="-7.986065">
        <ele>522.0</ele>
        <time>2018-10-03T09:37:20.000Z</time>
      </trkpt>
      <trkpt lat="42.47364167" lon="-7.98604667">
        <ele>522.0</ele>
        <time>2018-10-03T09:37:21.000Z</time>
      </trkpt>
      <trkpt lat="42.47364" lon="-7.98602667">
        <ele>522.0</ele>
        <time>2018-10-03T09:37:22.000Z</time>
      </trkpt>
      <trkpt lat="42.47363833" lon="-7.98600833">
        <ele>522.0</ele>
        <time>2018-10-03T09:37:23.000Z</time>
      </trkpt>
      <trkpt lat="42.47363833" lon="-7.98598833">
        <ele>522.0</ele>
        <time>2018-10-03T09:37:24.000Z</time>
      </trkpt>
      <trkpt lat="42.47363833" lon="-7.985975">
        <ele>522.0</ele>
        <time>2018-10-03T09:37:25.000Z</time>
      </trkpt>
      <trkpt lat="42.47364167" lon="-7.98596833">
        <ele>522.0</ele>
        <time>2018-10-03T09:37:26.000Z</time>
      </trkpt>
      <trkpt lat="42.473645" lon="-7.98597">
        <ele>522.0</ele>
        <time>2018-10-03T09:37:27.000Z</time>
      </trkpt>
      <trkpt lat="42.47365" lon="-7.98597333">
        <ele>522.0</ele>
        <time>2018-10-03T09:37:28.000Z</time>
      </trkpt>
      <trkpt lat="42.47365833" lon="-7.985975">
        <ele>522.0</ele>
        <time>2018-10-03T09:37:29.000Z</time>
      </trkpt>
      <trkpt lat="42.473665" lon="-7.98597667">
        <ele>522.0</ele>
        <time>2018-10-03T09:37:30.000Z</time>
      </trkpt>
      <trkpt lat="42.47367167" lon="-7.98597833">
        <ele>522.0</ele>
        <time>2018-10-03T09:37:31.000Z</time>
      </trkpt>
      <trkpt lat="42.47368" lon="-7.98598167">
        <ele>522.0</ele>
        <time>2018-10-03T09:37:32.000Z</time>
      </trkpt>
      <trkpt lat="42.47368833" lon="-7.98598333">
        <ele>522.0</ele>
        <time>2018-10-03T09:37:33.000Z</time>
      </trkpt>
      <trkpt lat="42.47369667" lon="-7.98598667">
        <ele>522.0</ele>
        <time>2018-10-03T09:37:34.000Z</time>
      </trkpt>
      <trkpt lat="42.473705" lon="-7.98599">
        <ele>522.0</ele>
        <time>2018-10-03T09:37:35.000Z</time>
      </trkpt>
      <trkpt lat="42.473715" lon="-7.98599333">
        <ele>522.0</ele>
        <time>2018-10-03T09:37:36.000Z</time>
      </trkpt>
      <trkpt lat="42.473725" lon="-7.98599667">
        <ele>522.0</ele>
        <time>2018-10-03T09:37:37.000Z</time>
      </trkpt>
      <trkpt lat="42.47373333" lon="-7.986">
        <ele>522.0</ele>
        <time>2018-10-03T09:37:38.000Z</time>
      </trkpt>
      <trkpt lat="42.47374" lon="-7.98600333">
        <ele>522.0</ele>
        <time>2018-10-03T09:37:39.000Z</time>
      </trkpt>
      <trkpt lat="42.47374833" lon="-7.98600667">
        <ele>523.0</ele>
        <time>2018-10-03T09:37:40.000Z</time>
      </trkpt>
      <trkpt lat="42.47375667" lon="-7.98601167">
        <ele>523.0</ele>
        <time>2018-10-03T09:37:41.000Z</time>
      </trkpt>
      <trkpt lat="42.47376333" lon="-7.98601833">
        <ele>523.0</ele>
        <time>2018-10-03T09:37:42.000Z</time>
      </trkpt>
      <trkpt lat="42.47376667" lon="-7.98602333">
        <ele>523.0</ele>
        <time>2018-10-03T09:37:43.000Z</time>
      </trkpt>
      <trkpt lat="42.47377333" lon="-7.98603">
        <ele>523.0</ele>
        <time>2018-10-03T09:37:44.000Z</time>
      </trkpt>
      <trkpt lat="42.47378333" lon="-7.98603333">
        <ele>523.0</ele>
        <time>2018-10-03T09:37:45.000Z</time>
      </trkpt>
      <trkpt lat="42.47379333" lon="-7.98604">
        <ele>523.0</ele>
        <time>2018-10-03T09:37:46.000Z</time>
      </trkpt>
      <trkpt lat="42.47380167" lon="-7.98604667">
        <ele>524.0</ele>
        <time>2018-10-03T09:37:47.000Z</time>
      </trkpt>
      <trkpt lat="42.47381167" lon="-7.98605333">
        <ele>524.0</ele>
        <time>2018-10-03T09:37:48.000Z</time>
      </trkpt>
      <trkpt lat="42.47382333" lon="-7.98606">
        <ele>524.0</ele>
        <time>2018-10-03T09:37:49.000Z</time>
      </trkpt>
      <trkpt lat="42.47383333" lon="-7.98606667">
        <ele>524.0</ele>
        <time>2018-10-03T09:37:50.000Z</time>
      </trkpt>
      <trkpt lat="42.473845" lon="-7.98607167">
        <ele>525.0</ele>
        <time>2018-10-03T09:37:51.000Z</time>
      </trkpt>
      <trkpt lat="42.473855" lon="-7.986075">
        <ele>525.0</ele>
        <time>2018-10-03T09:37:52.000Z</time>
      </trkpt>
      <trkpt lat="42.473865" lon="-7.98608">
        <ele>525.0</ele>
        <time>2018-10-03T09:37:53.000Z</time>
      </trkpt>
      <trkpt lat="42.473875" lon="-7.986085">
        <ele>525.0</ele>
        <time>2018-10-03T09:37:54.000Z</time>
      </trkpt>
      <trkpt lat="42.473885" lon="-7.98609167">
        <ele>525.0</ele>
        <time>2018-10-03T09:37:55.000Z</time>
      </trkpt>
      <trkpt lat="42.47389333" lon="-7.98609333">
        <ele>526.0</ele>
        <time>2018-10-03T09:37:56.000Z</time>
      </trkpt>
      <trkpt lat="42.47390333" lon="-7.98609667">
        <ele>526.0</ele>
        <time>2018-10-03T09:37:57.000Z</time>
      </trkpt>
      <trkpt lat="42.473915" lon="-7.98609667">
        <ele>526.0</ele>
        <time>2018-10-03T09:37:58.000Z</time>
      </trkpt>
      <trkpt lat="42.47392667" lon="-7.98609833">
        <ele>527.0</ele>
        <time>2018-10-03T09:37:59.000Z</time>
      </trkpt>
      <trkpt lat="42.47393833" lon="-7.98609667">
        <ele>527.0</ele>
        <time>2018-10-03T09:38:00.000Z</time>
      </trkpt>
      <trkpt lat="42.47395" lon="-7.98609667">
        <ele>527.0</ele>
        <time>2018-10-03T09:38:01.000Z</time>
      </trkpt>
      <trkpt lat="42.47396" lon="-7.98609667">
        <ele>527.0</ele>
        <time>2018-10-03T09:38:02.000Z</time>
      </trkpt>
      <trkpt lat="42.47397" lon="-7.986095">
        <ele>527.0</ele>
        <time>2018-10-03T09:38:03.000Z</time>
      </trkpt>
      <trkpt lat="42.47398" lon="-7.98609333">
        <ele>527.0</ele>
        <time>2018-10-03T09:38:04.000Z</time>
      </trkpt>
      <trkpt lat="42.47399" lon="-7.98609333">
        <ele>528.0</ele>
        <time>2018-10-03T09:38:05.000Z</time>
      </trkpt>
      <trkpt lat="42.47399833" lon="-7.98609333">
        <ele>528.0</ele>
        <time>2018-10-03T09:38:06.000Z</time>
      </trkpt>
      <trkpt lat="42.47400833" lon="-7.98609">
        <ele>528.0</ele>
        <time>2018-10-03T09:38:07.000Z</time>
      </trkpt>
      <trkpt lat="42.47401833" lon="-7.98608833">
        <ele>528.0</ele>
        <time>2018-10-03T09:38:08.000Z</time>
      </trkpt>
      <trkpt lat="42.47402833" lon="-7.98608667">
        <ele>528.0</ele>
        <time>2018-10-03T09:38:09.000Z</time>
      </trkpt>
      <trkpt lat="42.474035" lon="-7.986085">
        <ele>528.0</ele>
        <time>2018-10-03T09:38:10.000Z</time>
      </trkpt>
      <trkpt lat="42.47404167" lon="-7.986085">
        <ele>529.0</ele>
        <time>2018-10-03T09:38:11.000Z</time>
      </trkpt>
      <trkpt lat="42.47405167" lon="-7.98608333">
        <ele>529.0</ele>
        <time>2018-10-03T09:38:12.000Z</time>
      </trkpt>
      <trkpt lat="42.47406167" lon="-7.98608167">
        <ele>529.0</ele>
        <time>2018-10-03T09:38:13.000Z</time>
      </trkpt>
      <trkpt lat="42.47407333" lon="-7.98608">
        <ele>529.0</ele>
        <time>2018-10-03T09:38:14.000Z</time>
      </trkpt>
      <trkpt lat="42.474085" lon="-7.98608167">
        <ele>529.0</ele>
        <time>2018-10-03T09:38:15.000Z</time>
      </trkpt>
      <trkpt lat="42.474095" lon="-7.98608">
        <ele>529.0</ele>
        <time>2018-10-03T09:38:16.000Z</time>
      </trkpt>
      <trkpt lat="42.474105" lon="-7.98607833">
        <ele>530.0</ele>
        <time>2018-10-03T09:38:17.000Z</time>
      </trkpt>
      <trkpt lat="42.474115" lon="-7.98607667">
        <ele>530.0</ele>
        <time>2018-10-03T09:38:18.000Z</time>
      </trkpt>
      <trkpt lat="42.474125" lon="-7.98607">
        <ele>530.0</ele>
        <time>2018-10-03T09:38:19.000Z</time>
      </trkpt>
      <trkpt lat="42.47413667" lon="-7.986065">
        <ele>530.0</ele>
        <time>2018-10-03T09:38:20.000Z</time>
      </trkpt>
      <trkpt lat="42.47414833" lon="-7.98605833">
        <ele>530.0</ele>
        <time>2018-10-03T09:38:21.000Z</time>
      </trkpt>
      <trkpt lat="42.47415833" lon="-7.98605333">
        <ele>531.0</ele>
        <time>2018-10-03T09:38:22.000Z</time>
      </trkpt>
      <trkpt lat="42.47417" lon="-7.98605">
        <ele>531.0</ele>
        <time>2018-10-03T09:38:23.000Z</time>
      </trkpt>
      <trkpt lat="42.47418167" lon="-7.98604333">
        <ele>531.0</ele>
        <time>2018-10-03T09:38:24.000Z</time>
      </trkpt>
      <trkpt lat="42.474195" lon="-7.98603833">
        <ele>532.0</ele>
        <time>2018-10-03T09:38:25.000Z</time>
      </trkpt>
      <trkpt lat="42.47420667" lon="-7.98603333">
        <ele>532.0</ele>
        <time>2018-10-03T09:38:26.000Z</time>
      </trkpt>
      <trkpt lat="42.47421667" lon="-7.98602833">
        <ele>532.0</ele>
        <time>2018-10-03T09:38:27.000Z</time>
      </trkpt>
      <trkpt lat="42.47422833" lon="-7.98602167">
        <ele>532.0</ele>
        <time>2018-10-03T09:38:28.000Z</time>
      </trkpt>
      <trkpt lat="42.47423667" lon="-7.986015">
        <ele>533.0</ele>
        <time>2018-10-03T09:38:29.000Z</time>
      </trkpt>
      <trkpt lat="42.474245" lon="-7.98601">
        <ele>533.0</ele>
        <time>2018-10-03T09:38:30.000Z</time>
      </trkpt>
      <trkpt lat="42.47425333" lon="-7.986005">
        <ele>533.0</ele>
        <time>2018-10-03T09:38:31.000Z</time>
      </trkpt>
      <trkpt lat="42.47426667" lon="-7.986">
        <ele>533.0</ele>
        <time>2018-10-03T09:38:32.000Z</time>
      </trkpt>
      <trkpt lat="42.47427667" lon="-7.98599667">
        <ele>533.0</ele>
        <time>2018-10-03T09:38:33.000Z</time>
      </trkpt>
      <trkpt lat="42.47429" lon="-7.98599333">
        <ele>534.0</ele>
        <time>2018-10-03T09:38:34.000Z</time>
      </trkpt>
      <trkpt lat="42.47430167" lon="-7.98599167">
        <ele>534.0</ele>
        <time>2018-10-03T09:38:35.000Z</time>
      </trkpt>
      <trkpt lat="42.474315" lon="-7.98598833">
        <ele>534.0</ele>
        <time>2018-10-03T09:38:36.000Z</time>
      </trkpt>
      <trkpt lat="42.47432667" lon="-7.985985">
        <ele>534.0</ele>
        <time>2018-10-03T09:38:37.000Z</time>
      </trkpt>
      <trkpt lat="42.47434" lon="-7.98598333">
        <ele>534.0</ele>
        <time>2018-10-03T09:38:38.000Z</time>
      </trkpt>
      <trkpt lat="42.47435167" lon="-7.98598">
        <ele>534.0</ele>
        <time>2018-10-03T09:38:39.000Z</time>
      </trkpt>
      <trkpt lat="42.47436667" lon="-7.98597667">
        <ele>534.0</ele>
        <time>2018-10-03T09:38:40.000Z</time>
      </trkpt>
      <trkpt lat="42.47438167" lon="-7.98597">
        <ele>534.0</ele>
        <time>2018-10-03T09:38:41.000Z</time>
      </trkpt>
      <trkpt lat="42.474395" lon="-7.985965">
        <ele>534.0</ele>
        <time>2018-10-03T09:38:42.000Z</time>
      </trkpt>
      <trkpt lat="42.47440833" lon="-7.98596">
        <ele>534.0</ele>
        <time>2018-10-03T09:38:43.000Z</time>
      </trkpt>
      <trkpt lat="42.47442167" lon="-7.98595833">
        <ele>534.0</ele>
        <time>2018-10-03T09:38:44.000Z</time>
      </trkpt>
      <trkpt lat="42.474435" lon="-7.98595833">
        <ele>534.0</ele>
        <time>2018-10-03T09:38:45.000Z</time>
      </trkpt>
      <trkpt lat="42.47444833" lon="-7.985955">
        <ele>534.0</ele>
        <time>2018-10-03T09:38:46.000Z</time>
      </trkpt>
      <trkpt lat="42.47446167" lon="-7.98595333">
        <ele>534.0</ele>
        <time>2018-10-03T09:38:47.000Z</time>
      </trkpt>
      <trkpt lat="42.474475" lon="-7.98595167">
        <ele>534.0</ele>
        <time>2018-10-03T09:38:48.000Z</time>
      </trkpt>
      <trkpt lat="42.474485" lon="-7.98594667">
        <ele>534.0</ele>
        <time>2018-10-03T09:38:49.000Z</time>
      </trkpt>
      <trkpt lat="42.47449333" lon="-7.98594">
        <ele>534.0</ele>
        <time>2018-10-03T09:38:50.000Z</time>
      </trkpt>
      <trkpt lat="42.4745" lon="-7.98593167">
        <ele>535.0</ele>
        <time>2018-10-03T09:38:51.000Z</time>
      </trkpt>
      <trkpt lat="42.474505" lon="-7.98591833">
        <ele>535.0</ele>
        <time>2018-10-03T09:38:52.000Z</time>
      </trkpt>
      <trkpt lat="42.47450667" lon="-7.9859">
        <ele>535.0</ele>
        <time>2018-10-03T09:38:53.000Z</time>
      </trkpt>
      <trkpt lat="42.47450833" lon="-7.98588333">
        <ele>535.0</ele>
        <time>2018-10-03T09:38:54.000Z</time>
      </trkpt>
      <trkpt lat="42.47451" lon="-7.98586833">
        <ele>535.0</ele>
        <time>2018-10-03T09:38:55.000Z</time>
      </trkpt>
      <trkpt lat="42.47451167" lon="-7.98585167">
        <ele>535.0</ele>
        <time>2018-10-03T09:38:56.000Z</time>
      </trkpt>
      <trkpt lat="42.47451333" lon="-7.985835">
        <ele>535.0</ele>
        <time>2018-10-03T09:38:57.000Z</time>
      </trkpt>
      <trkpt lat="42.474515" lon="-7.98581667">
        <ele>536.0</ele>
        <time>2018-10-03T09:38:58.000Z</time>
      </trkpt>
      <trkpt lat="42.474515" lon="-7.9858">
        <ele>536.0</ele>
        <time>2018-10-03T09:38:59.000Z</time>
      </trkpt>
      <trkpt lat="42.474515" lon="-7.98578333">
        <ele>536.0</ele>
        <time>2018-10-03T09:39:00.000Z</time>
      </trkpt>
      <trkpt lat="42.47451667" lon="-7.985765">
        <ele>536.0</ele>
        <time>2018-10-03T09:39:01.000Z</time>
      </trkpt>
      <trkpt lat="42.47451667" lon="-7.98574667">
        <ele>536.0</ele>
        <time>2018-10-03T09:39:02.000Z</time>
      </trkpt>
      <trkpt lat="42.47451833" lon="-7.98572833">
        <ele>536.0</ele>
        <time>2018-10-03T09:39:03.000Z</time>
      </trkpt>
      <trkpt lat="42.47451833" lon="-7.98571">
        <ele>536.0</ele>
        <time>2018-10-03T09:39:04.000Z</time>
      </trkpt>
      <trkpt lat="42.47452" lon="-7.98569">
        <ele>536.0</ele>
        <time>2018-10-03T09:39:05.000Z</time>
      </trkpt>
      <trkpt lat="42.47452" lon="-7.98567333">
        <ele>536.0</ele>
        <time>2018-10-03T09:39:06.000Z</time>
      </trkpt>
      <trkpt lat="42.47452" lon="-7.98565667">
        <ele>536.0</ele>
        <time>2018-10-03T09:39:07.000Z</time>
      </trkpt>
      <trkpt lat="42.47452" lon="-7.98564">
        <ele>536.0</ele>
        <time>2018-10-03T09:39:08.000Z</time>
      </trkpt>
      <trkpt lat="42.47452" lon="-7.98562333">
        <ele>536.0</ele>
        <time>2018-10-03T09:39:09.000Z</time>
      </trkpt>
      <trkpt lat="42.47452167" lon="-7.985605">
        <ele>536.0</ele>
        <time>2018-10-03T09:39:10.000Z</time>
      </trkpt>
      <trkpt lat="42.47452333" lon="-7.98559167">
        <ele>536.0</ele>
        <time>2018-10-03T09:39:11.000Z</time>
      </trkpt>
      <trkpt lat="42.474525" lon="-7.985575">
        <ele>536.0</ele>
        <time>2018-10-03T09:39:12.000Z</time>
      </trkpt>
      <trkpt lat="42.47452667" lon="-7.98555833">
        <ele>536.0</ele>
        <time>2018-10-03T09:39:13.000Z</time>
      </trkpt>
      <trkpt lat="42.47452667" lon="-7.98554167">
        <ele>536.0</ele>
        <time>2018-10-03T09:39:14.000Z</time>
      </trkpt>
      <trkpt lat="42.47453" lon="-7.98552833">
        <ele>536.0</ele>
        <time>2018-10-03T09:39:15.000Z</time>
      </trkpt>
      <trkpt lat="42.47453667" lon="-7.98551333">
        <ele>536.0</ele>
        <time>2018-10-03T09:39:16.000Z</time>
      </trkpt>
      <trkpt lat="42.47454333" lon="-7.98549833">
        <ele>536.0</ele>
        <time>2018-10-03T09:39:17.000Z</time>
      </trkpt>
      <trkpt lat="42.47455167" lon="-7.98548167">
        <ele>536.0</ele>
        <time>2018-10-03T09:39:18.000Z</time>
      </trkpt>
      <trkpt lat="42.47455833" lon="-7.985465">
        <ele>536.0</ele>
        <time>2018-10-03T09:39:19.000Z</time>
      </trkpt>
      <trkpt lat="42.47456167" lon="-7.98545">
        <ele>536.0</ele>
        <time>2018-10-03T09:39:20.000Z</time>
      </trkpt>
      <trkpt lat="42.47456667" lon="-7.98543667">
        <ele>537.0</ele>
        <time>2018-10-03T09:39:21.000Z</time>
      </trkpt>
      <trkpt lat="42.47457333" lon="-7.98541833">
        <ele>537.0</ele>
        <time>2018-10-03T09:39:22.000Z</time>
      </trkpt>
      <trkpt lat="42.47458167" lon="-7.98540167">
        <ele>537.0</ele>
        <time>2018-10-03T09:39:23.000Z</time>
      </trkpt>
      <trkpt lat="42.47459167" lon="-7.985385">
        <ele>537.0</ele>
        <time>2018-10-03T09:39:24.000Z</time>
      </trkpt>
      <trkpt lat="42.47460333" lon="-7.98537333">
        <ele>537.0</ele>
        <time>2018-10-03T09:39:25.000Z</time>
      </trkpt>
      <trkpt lat="42.47461833" lon="-7.98536">
        <ele>537.0</ele>
        <time>2018-10-03T09:39:26.000Z</time>
      </trkpt>
      <trkpt lat="42.47463" lon="-7.98534667">
        <ele>537.0</ele>
        <time>2018-10-03T09:39:27.000Z</time>
      </trkpt>
      <trkpt lat="42.47464333" lon="-7.98533">
        <ele>537.0</ele>
        <time>2018-10-03T09:39:28.000Z</time>
      </trkpt>
      <trkpt lat="42.47465333" lon="-7.98531667">
        <ele>537.0</ele>
        <time>2018-10-03T09:39:29.000Z</time>
      </trkpt>
      <trkpt lat="42.47466167" lon="-7.98530333">
        <ele>537.0</ele>
        <time>2018-10-03T09:39:30.000Z</time>
      </trkpt>
      <trkpt lat="42.47467" lon="-7.98529">
        <ele>537.0</ele>
        <time>2018-10-03T09:39:31.000Z</time>
      </trkpt>
      <trkpt lat="42.47467667" lon="-7.98527833">
        <ele>537.0</ele>
        <time>2018-10-03T09:39:32.000Z</time>
      </trkpt>
      <trkpt lat="42.47468167" lon="-7.98527167">
        <ele>537.0</ele>
        <time>2018-10-03T09:39:33.000Z</time>
      </trkpt>
      <trkpt lat="42.47468667" lon="-7.985265">
        <ele>538.0</ele>
        <time>2018-10-03T09:39:34.000Z</time>
      </trkpt>
      <trkpt lat="42.47469167" lon="-7.98526167">
        <ele>538.0</ele>
        <time>2018-10-03T09:39:35.000Z</time>
      </trkpt>
      <trkpt lat="42.47469833" lon="-7.98525667">
        <ele>538.0</ele>
        <time>2018-10-03T09:39:36.000Z</time>
      </trkpt>
      <trkpt lat="42.474705" lon="-7.98525">
        <ele>538.0</ele>
        <time>2018-10-03T09:39:37.000Z</time>
      </trkpt>
      <trkpt lat="42.47471333" lon="-7.985245">
        <ele>538.0</ele>
        <time>2018-10-03T09:39:38.000Z</time>
      </trkpt>
      <trkpt lat="42.47472333" lon="-7.98523833">
        <ele>538.0</ele>
        <time>2018-10-03T09:39:39.000Z</time>
      </trkpt>
      <trkpt lat="42.474735" lon="-7.98523167">
        <ele>538.0</ele>
        <time>2018-10-03T09:39:40.000Z</time>
      </trkpt>
      <trkpt lat="42.47474667" lon="-7.98522333">
        <ele>538.0</ele>
        <time>2018-10-03T09:39:41.000Z</time>
      </trkpt>
      <trkpt lat="42.47475833" lon="-7.985215">
        <ele>538.0</ele>
        <time>2018-10-03T09:39:42.000Z</time>
      </trkpt>
      <trkpt lat="42.47477167" lon="-7.985205">
        <ele>538.0</ele>
        <time>2018-10-03T09:39:43.000Z</time>
      </trkpt>
      <trkpt lat="42.47478667" lon="-7.98519333">
        <ele>539.0</ele>
        <time>2018-10-03T09:39:44.000Z</time>
      </trkpt>
      <trkpt lat="42.4748" lon="-7.985185">
        <ele>539.0</ele>
        <time>2018-10-03T09:39:45.000Z</time>
      </trkpt>
      <trkpt lat="42.47481333" lon="-7.98517333">
        <ele>539.0</ele>
        <time>2018-10-03T09:39:46.000Z</time>
      </trkpt>
      <trkpt lat="42.474825" lon="-7.98516333">
        <ele>539.0</ele>
        <time>2018-10-03T09:39:47.000Z</time>
      </trkpt>
      <trkpt lat="42.47483833" lon="-7.98515">
        <ele>539.0</ele>
        <time>2018-10-03T09:39:48.000Z</time>
      </trkpt>
      <trkpt lat="42.47485167" lon="-7.98513667">
        <ele>539.0</ele>
        <time>2018-10-03T09:39:49.000Z</time>
      </trkpt>
      <trkpt lat="42.474865" lon="-7.98512">
        <ele>539.0</ele>
        <time>2018-10-03T09:39:50.000Z</time>
      </trkpt>
      <trkpt lat="42.474875" lon="-7.985105">
        <ele>539.0</ele>
        <time>2018-10-03T09:39:51.000Z</time>
      </trkpt>
      <trkpt lat="42.47488667" lon="-7.98509167">
        <ele>539.0</ele>
        <time>2018-10-03T09:39:52.000Z</time>
      </trkpt>
      <trkpt lat="42.474895" lon="-7.98507667">
        <ele>539.0</ele>
        <time>2018-10-03T09:39:53.000Z</time>
      </trkpt>
      <trkpt lat="42.474905" lon="-7.98506">
        <ele>539.0</ele>
        <time>2018-10-03T09:39:54.000Z</time>
      </trkpt>
      <trkpt lat="42.474915" lon="-7.98504333">
        <ele>539.0</ele>
        <time>2018-10-03T09:39:55.000Z</time>
      </trkpt>
      <trkpt lat="42.47492333" lon="-7.98502833">
        <ele>539.0</ele>
        <time>2018-10-03T09:39:56.000Z</time>
      </trkpt>
      <trkpt lat="42.47493167" lon="-7.98501">
        <ele>540.0</ele>
        <time>2018-10-03T09:39:57.000Z</time>
      </trkpt>
      <trkpt lat="42.47493833" lon="-7.98499333">
        <ele>540.0</ele>
        <time>2018-10-03T09:39:58.000Z</time>
      </trkpt>
      <trkpt lat="42.47494" lon="-7.98497333">
        <ele>540.0</ele>
        <time>2018-10-03T09:39:59.000Z</time>
      </trkpt>
      <trkpt lat="42.474945" lon="-7.984955">
        <ele>540.0</ele>
        <time>2018-10-03T09:40:00.000Z</time>
      </trkpt>
      <trkpt lat="42.47494833" lon="-7.98493667">
        <ele>540.0</ele>
        <time>2018-10-03T09:40:01.000Z</time>
      </trkpt>
      <trkpt lat="42.47495333" lon="-7.98492">
        <ele>540.0</ele>
        <time>2018-10-03T09:40:02.000Z</time>
      </trkpt>
      <trkpt lat="42.47586" lon="-7.98712667">
        <ele>539.0</ele>
        <time>2018-10-03T10:25:39.000Z</time>
      </trkpt>
      <trkpt lat="42.47586167" lon="-7.98713667">
        <ele>538.0</ele>
        <time>2018-10-03T10:25:40.000Z</time>
      </trkpt>
      <trkpt lat="42.475865" lon="-7.98715167">
        <ele>538.0</ele>
        <time>2018-10-03T10:25:41.000Z</time>
      </trkpt>
      <trkpt lat="42.47587167" lon="-7.98716833">
        <ele>538.0</ele>
        <time>2018-10-03T10:25:42.000Z</time>
      </trkpt>
      <trkpt lat="42.47587833" lon="-7.98718333">
        <ele>537.0</ele>
        <time>2018-10-03T10:25:43.000Z</time>
      </trkpt>
      <trkpt lat="42.47588833" lon="-7.98719833">
        <ele>537.0</ele>
        <time>2018-10-03T10:25:44.000Z</time>
      </trkpt>
      <trkpt lat="42.47589833" lon="-7.987215">
        <ele>537.0</ele>
        <time>2018-10-03T10:25:45.000Z</time>
      </trkpt>
      <trkpt lat="42.47590833" lon="-7.98722833">
        <ele>536.0</ele>
        <time>2018-10-03T10:25:46.000Z</time>
      </trkpt>
      <trkpt lat="42.47591667" lon="-7.98724167">
        <ele>536.0</ele>
        <time>2018-10-03T10:25:47.000Z</time>
      </trkpt>
      <trkpt lat="42.47592667" lon="-7.98725333">
        <ele>536.0</ele>
        <time>2018-10-03T10:25:48.000Z</time>
      </trkpt>
      <trkpt lat="42.475935" lon="-7.98726667">
        <ele>535.0</ele>
        <time>2018-10-03T10:25:49.000Z</time>
      </trkpt>
      <trkpt lat="42.47594833" lon="-7.98728167">
        <ele>535.0</ele>
        <time>2018-10-03T10:25:50.000Z</time>
      </trkpt>
      <trkpt lat="42.47596167" lon="-7.987295">
        <ele>535.0</ele>
        <time>2018-10-03T10:25:51.000Z</time>
      </trkpt>
      <trkpt lat="42.475975" lon="-7.987305">
        <ele>534.0</ele>
        <time>2018-10-03T10:25:52.000Z</time>
      </trkpt>
      <trkpt lat="42.47599" lon="-7.987315">
        <ele>534.0</ele>
        <time>2018-10-03T10:25:53.000Z</time>
      </trkpt>
      <trkpt lat="42.47600333" lon="-7.98732333">
        <ele>534.0</ele>
        <time>2018-10-03T10:25:54.000Z</time>
      </trkpt>
      <trkpt lat="42.47601833" lon="-7.98733167">
        <ele>534.0</ele>
        <time>2018-10-03T10:25:55.000Z</time>
      </trkpt>
      <trkpt lat="42.47603333" lon="-7.98733833">
        <ele>534.0</ele>
        <time>2018-10-03T10:25:56.000Z</time>
      </trkpt>
      <trkpt lat="42.47604667" lon="-7.98734833">
        <ele>534.0</ele>
        <time>2018-10-03T10:25:57.000Z</time>
      </trkpt>
      <trkpt lat="42.47606" lon="-7.98735667">
        <ele>534.0</ele>
        <time>2018-10-03T10:25:58.000Z</time>
      </trkpt>
      <trkpt lat="42.476075" lon="-7.987365">
        <ele>534.0</ele>
        <time>2018-10-03T10:25:59.000Z</time>
      </trkpt>
      <trkpt lat="42.47608833" lon="-7.987375">
        <ele>534.0</ele>
        <time>2018-10-03T10:26:00.000Z</time>
      </trkpt>
      <trkpt lat="42.47610333" lon="-7.98738333">
        <ele>535.0</ele>
        <time>2018-10-03T10:26:01.000Z</time>
      </trkpt>
      <trkpt lat="42.47611667" lon="-7.98739167">
        <ele>535.0</ele>
        <time>2018-10-03T10:26:02.000Z</time>
      </trkpt>
      <trkpt lat="42.47613333" lon="-7.9874">
        <ele>536.0</ele>
        <time>2018-10-03T10:26:03.000Z</time>
      </trkpt>
      <trkpt lat="42.47614833" lon="-7.98740833">
        <ele>536.0</ele>
        <time>2018-10-03T10:26:04.000Z</time>
      </trkpt>
      <trkpt lat="42.47616333" lon="-7.987415">
        <ele>536.0</ele>
        <time>2018-10-03T10:26:05.000Z</time>
      </trkpt>
      <trkpt lat="42.47617667" lon="-7.98742333">
        <ele>537.0</ele>
        <time>2018-10-03T10:26:06.000Z</time>
      </trkpt>
      <trkpt lat="42.47619167" lon="-7.98743167">
        <ele>537.0</ele>
        <time>2018-10-03T10:26:07.000Z</time>
      </trkpt>
      <trkpt lat="42.476205" lon="-7.98743833">
        <ele>537.0</ele>
        <time>2018-10-03T10:26:08.000Z</time>
      </trkpt>
      <trkpt lat="42.47622" lon="-7.98744667">
        <ele>537.0</ele>
        <time>2018-10-03T10:26:09.000Z</time>
      </trkpt>
      <trkpt lat="42.47623333" lon="-7.98745667">
        <ele>537.0</ele>
        <time>2018-10-03T10:26:10.000Z</time>
      </trkpt>
      <trkpt lat="42.47624833" lon="-7.987465">
        <ele>537.0</ele>
        <time>2018-10-03T10:26:11.000Z</time>
      </trkpt>
      <trkpt lat="42.47626333" lon="-7.98747167">
        <ele>537.0</ele>
        <time>2018-10-03T10:26:12.000Z</time>
      </trkpt>
      <trkpt lat="42.47627833" lon="-7.98747833">
        <ele>537.0</ele>
        <time>2018-10-03T10:26:13.000Z</time>
      </trkpt>
      <trkpt lat="42.476295" lon="-7.98748667">
        <ele>537.0</ele>
        <time>2018-10-03T10:26:14.000Z</time>
      </trkpt>
      <trkpt lat="42.47630833" lon="-7.98749333">
        <ele>537.0</ele>
        <time>2018-10-03T10:26:15.000Z</time>
      </trkpt>
      <trkpt lat="42.47632333" lon="-7.98750333">
        <ele>537.0</ele>
        <time>2018-10-03T10:26:16.000Z</time>
      </trkpt>
      <trkpt lat="42.47633667" lon="-7.98751333">
        <ele>537.0</ele>
        <time>2018-10-03T10:26:17.000Z</time>
      </trkpt>
      <trkpt lat="42.47634833" lon="-7.98752167">
        <ele>537.0</ele>
        <time>2018-10-03T10:26:18.000Z</time>
      </trkpt>
      <trkpt lat="42.47636167" lon="-7.98753333">
        <ele>537.0</ele>
        <time>2018-10-03T10:26:19.000Z</time>
      </trkpt>
      <trkpt lat="42.47637667" lon="-7.98754167">
        <ele>537.0</ele>
        <time>2018-10-03T10:26:20.000Z</time>
      </trkpt>
      <trkpt lat="42.47639167" lon="-7.98755">
        <ele>537.0</ele>
        <time>2018-10-03T10:26:21.000Z</time>
      </trkpt>
      <trkpt lat="42.47640667" lon="-7.98755833">
        <ele>537.0</ele>
        <time>2018-10-03T10:26:22.000Z</time>
      </trkpt>
      <trkpt lat="42.47642167" lon="-7.98756833">
        <ele>538.0</ele>
        <time>2018-10-03T10:26:23.000Z</time>
      </trkpt>
      <trkpt lat="42.47643833" lon="-7.98757833">
        <ele>538.0</ele>
        <time>2018-10-03T10:26:24.000Z</time>
      </trkpt>
      <trkpt lat="42.47645333" lon="-7.98758667">
        <ele>538.0</ele>
        <time>2018-10-03T10:26:25.000Z</time>
      </trkpt>
      <trkpt lat="42.476465" lon="-7.98759667">
        <ele>538.0</ele>
        <time>2018-10-03T10:26:26.000Z</time>
      </trkpt>
      <trkpt lat="42.47648" lon="-7.98760667">
        <ele>539.0</ele>
        <time>2018-10-03T10:26:27.000Z</time>
      </trkpt>
      <trkpt lat="42.47649333" lon="-7.987615">
        <ele>539.0</ele>
        <time>2018-10-03T10:26:28.000Z</time>
      </trkpt>
      <trkpt lat="42.47651" lon="-7.98762333">
        <ele>539.0</ele>
        <time>2018-10-03T10:26:29.000Z</time>
      </trkpt>
      <trkpt lat="42.476525" lon="-7.98763">
        <ele>539.0</ele>
        <time>2018-10-03T10:26:30.000Z</time>
      </trkpt>
      <trkpt lat="42.476545" lon="-7.987635">
        <ele>539.0</ele>
        <time>2018-10-03T10:26:31.000Z</time>
      </trkpt>
      <trkpt lat="42.47656333" lon="-7.98763833">
        <ele>539.0</ele>
        <time>2018-10-03T10:26:32.000Z</time>
      </trkpt>
      <trkpt lat="42.47658167" lon="-7.98763833">
        <ele>539.0</ele>
        <time>2018-10-03T10:26:33.000Z</time>
      </trkpt>
      <trkpt lat="42.4766" lon="-7.98763833">
        <ele>539.0</ele>
        <time>2018-10-03T10:26:34.000Z</time>
      </trkpt>
      <trkpt lat="42.47661667" lon="-7.98764">
        <ele>539.0</ele>
        <time>2018-10-03T10:26:35.000Z</time>
      </trkpt>
      <trkpt lat="42.476625" lon="-7.98764833">
        <ele>539.0</ele>
        <time>2018-10-03T10:26:36.000Z</time>
      </trkpt>
      <trkpt lat="42.47663833" lon="-7.98765333">
        <ele>539.0</ele>
        <time>2018-10-03T10:26:37.000Z</time>
      </trkpt>
      <trkpt lat="42.47665333" lon="-7.98765167">
        <ele>539.0</ele>
        <time>2018-10-03T10:26:38.000Z</time>
      </trkpt>
      <trkpt lat="42.47667" lon="-7.98765167">
        <ele>538.0</ele>
        <time>2018-10-03T10:26:39.000Z</time>
      </trkpt>
      <trkpt lat="42.476685" lon="-7.98765333">
        <ele>538.0</ele>
        <time>2018-10-03T10:26:40.000Z</time>
      </trkpt>
      <trkpt lat="42.47670167" lon="-7.98765333">
        <ele>538.0</ele>
        <time>2018-10-03T10:26:41.000Z</time>
      </trkpt>
      <trkpt lat="42.47671833" lon="-7.987655">
        <ele>538.0</ele>
        <time>2018-10-03T10:26:42.000Z</time>
      </trkpt>
      <trkpt lat="42.476735" lon="-7.98765667">
        <ele>538.0</ele>
        <time>2018-10-03T10:26:43.000Z</time>
      </trkpt>
      <trkpt lat="42.476755" lon="-7.987655">
        <ele>538.0</ele>
        <time>2018-10-03T10:26:44.000Z</time>
      </trkpt>
      <trkpt lat="42.476775" lon="-7.98765667">
        <ele>538.0</ele>
        <time>2018-10-03T10:26:45.000Z</time>
      </trkpt>
      <trkpt lat="42.47679167" lon="-7.98765833">
        <ele>538.0</ele>
        <time>2018-10-03T10:26:46.000Z</time>
      </trkpt>
      <trkpt lat="42.47680667" lon="-7.98766">
        <ele>538.0</ele>
        <time>2018-10-03T10:26:47.000Z</time>
      </trkpt>
      <trkpt lat="42.47680833" lon="-7.98766333">
        <ele>538.0</ele>
        <time>2018-10-03T10:26:48.000Z</time>
      </trkpt>
      <trkpt lat="42.47681" lon="-7.98767667">
        <ele>537.0</ele>
        <time>2018-10-03T10:26:49.000Z</time>
      </trkpt>
      <trkpt lat="42.476825" lon="-7.98768">
        <ele>537.0</ele>
        <time>2018-10-03T10:26:50.000Z</time>
      </trkpt>
      <trkpt lat="42.47684" lon="-7.987685">
        <ele>537.0</ele>
        <time>2018-10-03T10:26:51.000Z</time>
      </trkpt>
      <trkpt lat="42.476865" lon="-7.98768667">
        <ele>537.0</ele>
        <time>2018-10-03T10:26:52.000Z</time>
      </trkpt>
      <trkpt lat="42.4769" lon="-7.98768">
        <ele>538.0</ele>
        <time>2018-10-03T10:26:53.000Z</time>
      </trkpt>
      <trkpt lat="42.47692" lon="-7.98768167">
        <ele>538.0</ele>
        <time>2018-10-03T10:26:54.000Z</time>
      </trkpt>
      <trkpt lat="42.47694" lon="-7.987685">
        <ele>538.0</ele>
        <time>2018-10-03T10:26:55.000Z</time>
      </trkpt>
      <trkpt lat="42.47694667" lon="-7.987695">
        <ele>538.0</ele>
        <time>2018-10-03T10:26:56.000Z</time>
      </trkpt>
      <trkpt lat="42.47694667" lon="-7.98770833">
        <ele>538.0</ele>
        <time>2018-10-03T10:26:57.000Z</time>
      </trkpt>
      <trkpt lat="42.47696167" lon="-7.98771167">
        <ele>538.0</ele>
        <time>2018-10-03T10:26:58.000Z</time>
      </trkpt>
      <trkpt lat="42.47697833" lon="-7.987715">
        <ele>538.0</ele>
        <time>2018-10-03T10:26:59.000Z</time>
      </trkpt>
      <trkpt lat="42.476995" lon="-7.98771667">
        <ele>538.0</ele>
        <time>2018-10-03T10:27:00.000Z</time>
      </trkpt>
      <trkpt lat="42.477015" lon="-7.98771833">
        <ele>538.0</ele>
        <time>2018-10-03T10:27:01.000Z</time>
      </trkpt>
      <trkpt lat="42.477035" lon="-7.98772167">
        <ele>538.0</ele>
        <time>2018-10-03T10:27:02.000Z</time>
      </trkpt>
      <trkpt lat="42.477055" lon="-7.987725">
        <ele>538.0</ele>
        <time>2018-10-03T10:27:03.000Z</time>
      </trkpt>
      <trkpt lat="42.47707167" lon="-7.98773">
        <ele>538.0</ele>
        <time>2018-10-03T10:27:04.000Z</time>
      </trkpt>
      <trkpt lat="42.47709167" lon="-7.987735">
        <ele>538.0</ele>
        <time>2018-10-03T10:27:05.000Z</time>
      </trkpt>
      <trkpt lat="42.47710667" lon="-7.98774167">
        <ele>538.0</ele>
        <time>2018-10-03T10:27:06.000Z</time>
      </trkpt>
      <trkpt lat="42.47712" lon="-7.98774833">
        <ele>539.0</ele>
        <time>2018-10-03T10:27:07.000Z</time>
      </trkpt>
      <trkpt lat="42.47713667" lon="-7.987755">
        <ele>539.0</ele>
        <time>2018-10-03T10:27:08.000Z</time>
      </trkpt>
      <trkpt lat="42.47715" lon="-7.98776333">
        <ele>539.0</ele>
        <time>2018-10-03T10:27:09.000Z</time>
      </trkpt>
      <trkpt lat="42.47716667" lon="-7.98777167">
        <ele>539.0</ele>
        <time>2018-10-03T10:27:10.000Z</time>
      </trkpt>
      <trkpt lat="42.477185" lon="-7.98777833">
        <ele>539.0</ele>
        <time>2018-10-03T10:27:11.000Z</time>
      </trkpt>
      <trkpt lat="42.47720167" lon="-7.98778667">
        <ele>539.0</ele>
        <time>2018-10-03T10:27:12.000Z</time>
      </trkpt>
      <trkpt lat="42.47721833" lon="-7.987795">
        <ele>539.0</ele>
        <time>2018-10-03T10:27:13.000Z</time>
      </trkpt>
      <trkpt lat="42.47723167" lon="-7.98780667">
        <ele>539.0</ele>
        <time>2018-10-03T10:27:14.000Z</time>
      </trkpt>
      <trkpt lat="42.47724333" lon="-7.98781667">
        <ele>539.0</ele>
        <time>2018-10-03T10:27:15.000Z</time>
      </trkpt>
      <trkpt lat="42.47725667" lon="-7.98783">
        <ele>539.0</ele>
        <time>2018-10-03T10:27:16.000Z</time>
      </trkpt>
      <trkpt lat="42.47727333" lon="-7.98784333">
        <ele>539.0</ele>
        <time>2018-10-03T10:27:17.000Z</time>
      </trkpt>
      <trkpt lat="42.47728667" lon="-7.987855">
        <ele>539.0</ele>
        <time>2018-10-03T10:27:18.000Z</time>
      </trkpt>
      <trkpt lat="42.47730167" lon="-7.98786833">
        <ele>539.0</ele>
        <time>2018-10-03T10:27:19.000Z</time>
      </trkpt>
      <trkpt lat="42.477315" lon="-7.98788167">
        <ele>539.0</ele>
        <time>2018-10-03T10:27:20.000Z</time>
      </trkpt>
      <trkpt lat="42.47732833" lon="-7.98789333">
        <ele>539.0</ele>
        <time>2018-10-03T10:27:21.000Z</time>
      </trkpt>
      <trkpt lat="42.47734" lon="-7.987905">
        <ele>539.0</ele>
        <time>2018-10-03T10:27:22.000Z</time>
      </trkpt>
      <trkpt lat="42.47735167" lon="-7.98791833">
        <ele>539.0</ele>
        <time>2018-10-03T10:27:23.000Z</time>
      </trkpt>
      <trkpt lat="42.477365" lon="-7.98793333">
        <ele>539.0</ele>
        <time>2018-10-03T10:27:24.000Z</time>
      </trkpt>
      <trkpt lat="42.47737667" lon="-7.98794667">
        <ele>539.0</ele>
        <time>2018-10-03T10:27:25.000Z</time>
      </trkpt>
      <trkpt lat="42.47739167" lon="-7.98796">
        <ele>540.0</ele>
        <time>2018-10-03T10:27:26.000Z</time>
      </trkpt>
      <trkpt lat="42.47740667" lon="-7.98797333">
        <ele>540.0</ele>
        <time>2018-10-03T10:27:27.000Z</time>
      </trkpt>
      <trkpt lat="42.47742167" lon="-7.98798833">
        <ele>540.0</ele>
        <time>2018-10-03T10:27:28.000Z</time>
      </trkpt>
      <trkpt lat="42.47743333" lon="-7.988005">
        <ele>539.0</ele>
        <time>2018-10-03T10:27:29.000Z</time>
      </trkpt>
      <trkpt lat="42.47744333" lon="-7.98802">
        <ele>539.0</ele>
        <time>2018-10-03T10:27:30.000Z</time>
      </trkpt>
      <trkpt lat="42.47745333" lon="-7.988035">
        <ele>539.0</ele>
        <time>2018-10-03T10:27:31.000Z</time>
      </trkpt>
      <trkpt lat="42.477465" lon="-7.98804833">
        <ele>539.0</ele>
        <time>2018-10-03T10:27:32.000Z</time>
      </trkpt>
      <trkpt lat="42.47747667" lon="-7.98806167">
        <ele>539.0</ele>
        <time>2018-10-03T10:27:33.000Z</time>
      </trkpt>
      <trkpt lat="42.47748833" lon="-7.98807833">
        <ele>539.0</ele>
        <time>2018-10-03T10:27:34.000Z</time>
      </trkpt>
      <trkpt lat="42.47749833" lon="-7.98809667">
        <ele>539.0</ele>
        <time>2018-10-03T10:27:35.000Z</time>
      </trkpt>
      <trkpt lat="42.47750667" lon="-7.98811333">
        <ele>539.0</ele>
        <time>2018-10-03T10:27:36.000Z</time>
      </trkpt>
      <trkpt lat="42.477515" lon="-7.98813">
        <ele>539.0</ele>
        <time>2018-10-03T10:27:37.000Z</time>
      </trkpt>
      <trkpt lat="42.47752167" lon="-7.98815">
        <ele>539.0</ele>
        <time>2018-10-03T10:27:38.000Z</time>
      </trkpt>
      <trkpt lat="42.47753" lon="-7.988165">
        <ele>539.0</ele>
        <time>2018-10-03T10:27:39.000Z</time>
      </trkpt>
      <trkpt lat="42.47753833" lon="-7.98818167">
        <ele>539.0</ele>
        <time>2018-10-03T10:27:40.000Z</time>
      </trkpt>
      <trkpt lat="42.47754667" lon="-7.98819833">
        <ele>539.0</ele>
        <time>2018-10-03T10:27:41.000Z</time>
      </trkpt>
      <trkpt lat="42.47755667" lon="-7.98821667">
        <ele>539.0</ele>
        <time>2018-10-03T10:27:42.000Z</time>
      </trkpt>
      <trkpt lat="42.47756667" lon="-7.98823667">
        <ele>539.0</ele>
        <time>2018-10-03T10:27:43.000Z</time>
      </trkpt>
      <trkpt lat="42.47757667" lon="-7.988255">
        <ele>539.0</ele>
        <time>2018-10-03T10:27:44.000Z</time>
      </trkpt>
      <trkpt lat="42.477585" lon="-7.988275">
        <ele>539.0</ele>
        <time>2018-10-03T10:27:45.000Z</time>
      </trkpt>
      <trkpt lat="42.47759333" lon="-7.98829167">
        <ele>539.0</ele>
        <time>2018-10-03T10:27:46.000Z</time>
      </trkpt>
      <trkpt lat="42.4776" lon="-7.98830667">
        <ele>539.0</ele>
        <time>2018-10-03T10:27:47.000Z</time>
      </trkpt>
      <trkpt lat="42.47760167" lon="-7.988325">
        <ele>538.0</ele>
        <time>2018-10-03T10:27:48.000Z</time>
      </trkpt>
      <trkpt lat="42.47760167" lon="-7.98834167">
        <ele>538.0</ele>
        <time>2018-10-03T10:27:49.000Z</time>
      </trkpt>
      <trkpt lat="42.47760167" lon="-7.98836167">
        <ele>538.0</ele>
        <time>2018-10-03T10:27:50.000Z</time>
      </trkpt>
      <trkpt lat="42.47760167" lon="-7.98838167">
        <ele>538.0</ele>
        <time>2018-10-03T10:27:51.000Z</time>
      </trkpt>
      <trkpt lat="42.47760167" lon="-7.988405">
        <ele>538.0</ele>
        <time>2018-10-03T10:27:52.000Z</time>
      </trkpt>
      <trkpt lat="42.47760333" lon="-7.98843">
        <ele>537.0</ele>
        <time>2018-10-03T10:27:53.000Z</time>
      </trkpt>
      <trkpt lat="42.477605" lon="-7.98845167">
        <ele>537.0</ele>
        <time>2018-10-03T10:27:54.000Z</time>
      </trkpt>
      <trkpt lat="42.47760667" lon="-7.98847167">
        <ele>537.0</ele>
        <time>2018-10-03T10:27:55.000Z</time>
      </trkpt>
      <trkpt lat="42.47760833" lon="-7.98849">
        <ele>537.0</ele>
        <time>2018-10-03T10:27:56.000Z</time>
      </trkpt>
      <trkpt lat="42.47761" lon="-7.98850667">
        <ele>537.0</ele>
        <time>2018-10-03T10:27:57.000Z</time>
      </trkpt>
      <trkpt lat="42.47761333" lon="-7.98852333">
        <ele>537.0</ele>
        <time>2018-10-03T10:27:58.000Z</time>
      </trkpt>
      <trkpt lat="42.47761833" lon="-7.98854">
        <ele>537.0</ele>
        <time>2018-10-03T10:27:59.000Z</time>
      </trkpt>
      <trkpt lat="42.477625" lon="-7.98856">
        <ele>537.0</ele>
        <time>2018-10-03T10:28:00.000Z</time>
      </trkpt>
      <trkpt lat="42.47763167" lon="-7.98858">
        <ele>536.0</ele>
        <time>2018-10-03T10:28:01.000Z</time>
      </trkpt>
      <trkpt lat="42.47764" lon="-7.9886">
        <ele>536.0</ele>
        <time>2018-10-03T10:28:02.000Z</time>
      </trkpt>
      <trkpt lat="42.47764833" lon="-7.98861833">
        <ele>536.0</ele>
        <time>2018-10-03T10:28:03.000Z</time>
      </trkpt>
      <trkpt lat="42.47765833" lon="-7.98863833">
        <ele>536.0</ele>
        <time>2018-10-03T10:28:04.000Z</time>
      </trkpt>
      <trkpt lat="42.47766667" lon="-7.98866">
        <ele>536.0</ele>
        <time>2018-10-03T10:28:05.000Z</time>
      </trkpt>
      <trkpt lat="42.47767" lon="-7.98867833">
        <ele>536.0</ele>
        <time>2018-10-03T10:28:06.000Z</time>
      </trkpt>
      <trkpt lat="42.477675" lon="-7.9887">
        <ele>536.0</ele>
        <time>2018-10-03T10:28:07.000Z</time>
      </trkpt>
      <trkpt lat="42.47767833" lon="-7.98872167">
        <ele>536.0</ele>
        <time>2018-10-03T10:28:08.000Z</time>
      </trkpt>
      <trkpt lat="42.47767833" lon="-7.988745">
        <ele>536.0</ele>
        <time>2018-10-03T10:28:09.000Z</time>
      </trkpt>
      <trkpt lat="42.47767833" lon="-7.98877">
        <ele>536.0</ele>
        <time>2018-10-03T10:28:10.000Z</time>
      </trkpt>
      <trkpt lat="42.47768" lon="-7.98879667">
        <ele>536.0</ele>
        <time>2018-10-03T10:28:11.000Z</time>
      </trkpt>
      <trkpt lat="42.477685" lon="-7.98882">
        <ele>536.0</ele>
        <time>2018-10-03T10:28:12.000Z</time>
      </trkpt>
      <trkpt lat="42.47769167" lon="-7.98884333">
        <ele>536.0</ele>
        <time>2018-10-03T10:28:13.000Z</time>
      </trkpt>
      <trkpt lat="42.4777" lon="-7.988865">
        <ele>536.0</ele>
        <time>2018-10-03T10:28:14.000Z</time>
      </trkpt>
      <trkpt lat="42.47770667" lon="-7.98888667">
        <ele>536.0</ele>
        <time>2018-10-03T10:28:15.000Z</time>
      </trkpt>
      <trkpt lat="42.47771167" lon="-7.98890833">
        <ele>536.0</ele>
        <time>2018-10-03T10:28:16.000Z</time>
      </trkpt>
      <trkpt lat="42.47771667" lon="-7.98892833">
        <ele>536.0</ele>
        <time>2018-10-03T10:28:17.000Z</time>
      </trkpt>
      <trkpt lat="42.47772333" lon="-7.98895167">
        <ele>536.0</ele>
        <time>2018-10-03T10:28:18.000Z</time>
      </trkpt>
      <trkpt lat="42.47773333" lon="-7.988975">
        <ele>536.0</ele>
        <time>2018-10-03T10:28:19.000Z</time>
      </trkpt>
      <trkpt lat="42.47774167" lon="-7.98899667">
        <ele>537.0</ele>
        <time>2018-10-03T10:28:20.000Z</time>
      </trkpt>
      <trkpt lat="42.47775" lon="-7.98902">
        <ele>537.0</ele>
        <time>2018-10-03T10:28:21.000Z</time>
      </trkpt>
      <trkpt lat="42.47775667" lon="-7.98904">
        <ele>537.0</ele>
        <time>2018-10-03T10:28:22.000Z</time>
      </trkpt>
      <trkpt lat="42.47776333" lon="-7.98906167">
        <ele>537.0</ele>
        <time>2018-10-03T10:28:23.000Z</time>
      </trkpt>
      <trkpt lat="42.47776833" lon="-7.98908167">
        <ele>537.0</ele>
        <time>2018-10-03T10:28:24.000Z</time>
      </trkpt>
      <trkpt lat="42.477775" lon="-7.98910167">
        <ele>537.0</ele>
        <time>2018-10-03T10:28:25.000Z</time>
      </trkpt>
      <trkpt lat="42.47778167" lon="-7.98912">
        <ele>538.0</ele>
        <time>2018-10-03T10:28:26.000Z</time>
      </trkpt>
      <trkpt lat="42.47779167" lon="-7.98914">
        <ele>538.0</ele>
        <time>2018-10-03T10:28:27.000Z</time>
      </trkpt>
      <trkpt lat="42.47780167" lon="-7.98916">
        <ele>538.0</ele>
        <time>2018-10-03T10:28:28.000Z</time>
      </trkpt>
      <trkpt lat="42.47781333" lon="-7.98918167">
        <ele>538.0</ele>
        <time>2018-10-03T10:28:29.000Z</time>
      </trkpt>
      <trkpt lat="42.47782167" lon="-7.9892">
        <ele>538.0</ele>
        <time>2018-10-03T10:28:30.000Z</time>
      </trkpt>
      <trkpt lat="42.47783167" lon="-7.98921833">
        <ele>538.0</ele>
        <time>2018-10-03T10:28:31.000Z</time>
      </trkpt>
      <trkpt lat="42.47784" lon="-7.98923833">
        <ele>538.0</ele>
        <time>2018-10-03T10:28:32.000Z</time>
      </trkpt>
      <trkpt lat="42.47784833" lon="-7.98925667">
        <ele>538.0</ele>
        <time>2018-10-03T10:28:33.000Z</time>
      </trkpt>
      <trkpt lat="42.47785833" lon="-7.989275">
        <ele>538.0</ele>
        <time>2018-10-03T10:28:34.000Z</time>
      </trkpt>
      <trkpt lat="42.477865" lon="-7.98929">
        <ele>538.0</ele>
        <time>2018-10-03T10:28:35.000Z</time>
      </trkpt>
      <trkpt lat="42.47787333" lon="-7.98930667">
        <ele>538.0</ele>
        <time>2018-10-03T10:28:36.000Z</time>
      </trkpt>
      <trkpt lat="42.47788333" lon="-7.98932333">
        <ele>538.0</ele>
        <time>2018-10-03T10:28:37.000Z</time>
      </trkpt>
      <trkpt lat="42.47789333" lon="-7.98934167">
        <ele>537.0</ele>
        <time>2018-10-03T10:28:38.000Z</time>
      </trkpt>
      <trkpt lat="42.47790667" lon="-7.98936">
        <ele>537.0</ele>
        <time>2018-10-03T10:28:39.000Z</time>
      </trkpt>
      <trkpt lat="42.47792" lon="-7.98938167">
        <ele>537.0</ele>
        <time>2018-10-03T10:28:40.000Z</time>
      </trkpt>
      <trkpt lat="42.47793833" lon="-7.98939833">
        <ele>538.0</ele>
        <time>2018-10-03T10:28:41.000Z</time>
      </trkpt>
      <trkpt lat="42.477955" lon="-7.989415">
        <ele>538.0</ele>
        <time>2018-10-03T10:28:42.000Z</time>
      </trkpt>
      <trkpt lat="42.47796833" lon="-7.98943">
        <ele>538.0</ele>
        <time>2018-10-03T10:28:43.000Z</time>
      </trkpt>
      <trkpt lat="42.47798" lon="-7.989445">
        <ele>538.0</ele>
        <time>2018-10-03T10:28:44.000Z</time>
      </trkpt>
      <trkpt lat="42.47799167" lon="-7.98946">
        <ele>538.0</ele>
        <time>2018-10-03T10:28:45.000Z</time>
      </trkpt>
      <trkpt lat="42.47800167" lon="-7.989475">
        <ele>538.0</ele>
        <time>2018-10-03T10:28:46.000Z</time>
      </trkpt>
      <trkpt lat="42.47801333" lon="-7.98949">
        <ele>538.0</ele>
        <time>2018-10-03T10:28:47.000Z</time>
      </trkpt>
      <trkpt lat="42.47802667" lon="-7.989505">
        <ele>538.0</ele>
        <time>2018-10-03T10:28:48.000Z</time>
      </trkpt>
      <trkpt lat="42.47804" lon="-7.98952">
        <ele>538.0</ele>
        <time>2018-10-03T10:28:49.000Z</time>
      </trkpt>
      <trkpt lat="42.478055" lon="-7.98953167">
        <ele>538.0</ele>
        <time>2018-10-03T10:28:50.000Z</time>
      </trkpt>
      <trkpt lat="42.47806667" lon="-7.98954667">
        <ele>538.0</ele>
        <time>2018-10-03T10:28:51.000Z</time>
      </trkpt>
      <trkpt lat="42.47807667" lon="-7.98956167">
        <ele>538.0</ele>
        <time>2018-10-03T10:28:52.000Z</time>
      </trkpt>
      <trkpt lat="42.47808833" lon="-7.98957667">
        <ele>538.0</ele>
        <time>2018-10-03T10:28:53.000Z</time>
      </trkpt>
      <trkpt lat="42.4781" lon="-7.98958833">
        <ele>538.0</ele>
        <time>2018-10-03T10:28:54.000Z</time>
      </trkpt>
      <trkpt lat="42.47811333" lon="-7.9896">
        <ele>538.0</ele>
        <time>2018-10-03T10:28:55.000Z</time>
      </trkpt>
      <trkpt lat="42.478125" lon="-7.98961333">
        <ele>538.0</ele>
        <time>2018-10-03T10:28:56.000Z</time>
      </trkpt>
      <trkpt lat="42.47814" lon="-7.989625">
        <ele>538.0</ele>
        <time>2018-10-03T10:28:57.000Z</time>
      </trkpt>
      <trkpt lat="42.478155" lon="-7.98963333">
        <ele>538.0</ele>
        <time>2018-10-03T10:28:58.000Z</time>
      </trkpt>
      <trkpt lat="42.47816833" lon="-7.98964333">
        <ele>538.0</ele>
        <time>2018-10-03T10:28:59.000Z</time>
      </trkpt>
      <trkpt lat="42.47818333" lon="-7.98965333">
        <ele>538.0</ele>
        <time>2018-10-03T10:29:00.000Z</time>
      </trkpt>
      <trkpt lat="42.4782" lon="-7.98966333">
        <ele>538.0</ele>
        <time>2018-10-03T10:29:01.000Z</time>
      </trkpt>
      <trkpt lat="42.47821333" lon="-7.98967333">
        <ele>538.0</ele>
        <time>2018-10-03T10:29:02.000Z</time>
      </trkpt>
      <trkpt lat="42.47822667" lon="-7.989685">
        <ele>538.0</ele>
        <time>2018-10-03T10:29:03.000Z</time>
      </trkpt>
      <trkpt lat="42.47824" lon="-7.989695">
        <ele>538.0</ele>
        <time>2018-10-03T10:29:04.000Z</time>
      </trkpt>
      <trkpt lat="42.47825333" lon="-7.98970667">
        <ele>538.0</ele>
        <time>2018-10-03T10:29:05.000Z</time>
      </trkpt>
      <trkpt lat="42.47826667" lon="-7.98971833">
        <ele>537.0</ele>
        <time>2018-10-03T10:29:06.000Z</time>
      </trkpt>
      <trkpt lat="42.47828167" lon="-7.98972833">
        <ele>537.0</ele>
        <time>2018-10-03T10:29:07.000Z</time>
      </trkpt>
      <trkpt lat="42.4783" lon="-7.98973833">
        <ele>537.0</ele>
        <time>2018-10-03T10:29:08.000Z</time>
      </trkpt>
      <trkpt lat="42.47831667" lon="-7.98974667">
        <ele>537.0</ele>
        <time>2018-10-03T10:29:09.000Z</time>
      </trkpt>
      <trkpt lat="42.47833333" lon="-7.98975333">
        <ele>538.0</ele>
        <time>2018-10-03T10:29:10.000Z</time>
      </trkpt>
      <trkpt lat="42.47834833" lon="-7.98976167">
        <ele>538.0</ele>
        <time>2018-10-03T10:29:11.000Z</time>
      </trkpt>
      <trkpt lat="42.47836333" lon="-7.98976667">
        <ele>538.0</ele>
        <time>2018-10-03T10:29:12.000Z</time>
      </trkpt>
      <trkpt lat="42.47837667" lon="-7.98977333">
        <ele>538.0</ele>
        <time>2018-10-03T10:29:13.000Z</time>
      </trkpt>
      <trkpt lat="42.47839167" lon="-7.98978">
        <ele>537.0</ele>
        <time>2018-10-03T10:29:14.000Z</time>
      </trkpt>
      <trkpt lat="42.47840667" lon="-7.98978333">
        <ele>537.0</ele>
        <time>2018-10-03T10:29:15.000Z</time>
      </trkpt>
      <trkpt lat="42.478425" lon="-7.98978667">
        <ele>537.0</ele>
        <time>2018-10-03T10:29:16.000Z</time>
      </trkpt>
      <trkpt lat="42.47844167" lon="-7.98979">
        <ele>537.0</ele>
        <time>2018-10-03T10:29:17.000Z</time>
      </trkpt>
      <trkpt lat="42.47845833" lon="-7.98979167">
        <ele>537.0</ele>
        <time>2018-10-03T10:29:18.000Z</time>
      </trkpt>
      <trkpt lat="42.478475" lon="-7.98979333">
        <ele>537.0</ele>
        <time>2018-10-03T10:29:19.000Z</time>
      </trkpt>
      <trkpt lat="42.47849167" lon="-7.98979833">
        <ele>537.0</ele>
        <time>2018-10-03T10:29:20.000Z</time>
      </trkpt>
      <trkpt lat="42.47850833" lon="-7.98980167">
        <ele>537.0</ele>
        <time>2018-10-03T10:29:21.000Z</time>
      </trkpt>
      <trkpt lat="42.478525" lon="-7.989805">
        <ele>537.0</ele>
        <time>2018-10-03T10:29:22.000Z</time>
      </trkpt>
      <trkpt lat="42.47854167" lon="-7.98981">
        <ele>537.0</ele>
        <time>2018-10-03T10:29:23.000Z</time>
      </trkpt>
      <trkpt lat="42.47855833" lon="-7.98981333">
        <ele>537.0</ele>
        <time>2018-10-03T10:29:24.000Z</time>
      </trkpt>
      <trkpt lat="42.47857667" lon="-7.98981667">
        <ele>537.0</ele>
        <time>2018-10-03T10:29:25.000Z</time>
      </trkpt>
      <trkpt lat="42.47859333" lon="-7.98982">
        <ele>537.0</ele>
        <time>2018-10-03T10:29:26.000Z</time>
      </trkpt>
      <trkpt lat="42.47861" lon="-7.98982333">
        <ele>537.0</ele>
        <time>2018-10-03T10:29:27.000Z</time>
      </trkpt>
      <trkpt lat="42.47862833" lon="-7.989825">
        <ele>537.0</ele>
        <time>2018-10-03T10:29:28.000Z</time>
      </trkpt>
      <trkpt lat="42.478645" lon="-7.98982833">
        <ele>537.0</ele>
        <time>2018-10-03T10:29:29.000Z</time>
      </trkpt>
      <trkpt lat="42.47866167" lon="-7.98983167">
        <ele>537.0</ele>
        <time>2018-10-03T10:29:30.000Z</time>
      </trkpt>
      <trkpt lat="42.47867833" lon="-7.989835">
        <ele>537.0</ele>
        <time>2018-10-03T10:29:31.000Z</time>
      </trkpt>
      <trkpt lat="42.478695" lon="-7.98984">
        <ele>537.0</ele>
        <time>2018-10-03T10:29:32.000Z</time>
      </trkpt>
      <trkpt lat="42.47871167" lon="-7.98984167">
        <ele>537.0</ele>
        <time>2018-10-03T10:29:33.000Z</time>
      </trkpt>
      <trkpt lat="42.47872833" lon="-7.98984667">
        <ele>537.0</ele>
        <time>2018-10-03T10:29:34.000Z</time>
      </trkpt>
      <trkpt lat="42.478745" lon="-7.98985167">
        <ele>537.0</ele>
        <time>2018-10-03T10:29:35.000Z</time>
      </trkpt>
      <trkpt lat="42.47876167" lon="-7.989855">
        <ele>537.0</ele>
        <time>2018-10-03T10:29:36.000Z</time>
      </trkpt>
      <trkpt lat="42.47877667" lon="-7.98985833">
        <ele>537.0</ele>
        <time>2018-10-03T10:29:37.000Z</time>
      </trkpt>
      <trkpt lat="42.47879333" lon="-7.98986333">
        <ele>537.0</ele>
        <time>2018-10-03T10:29:38.000Z</time>
      </trkpt>
      <trkpt lat="42.47881" lon="-7.98986667">
        <ele>537.0</ele>
        <time>2018-10-03T10:29:39.000Z</time>
      </trkpt>
      <trkpt lat="42.47882667" lon="-7.98987167">
        <ele>538.0</ele>
        <time>2018-10-03T10:29:40.000Z</time>
      </trkpt>
      <trkpt lat="42.47884333" lon="-7.989875">
        <ele>538.0</ele>
        <time>2018-10-03T10:29:41.000Z</time>
      </trkpt>
      <trkpt lat="42.47886" lon="-7.98987833">
        <ele>538.0</ele>
        <time>2018-10-03T10:29:42.000Z</time>
      </trkpt>
      <trkpt lat="42.47887667" lon="-7.98988333">
        <ele>538.0</ele>
        <time>2018-10-03T10:29:43.000Z</time>
      </trkpt>
      <trkpt lat="42.47889333" lon="-7.98988667">
        <ele>538.0</ele>
        <time>2018-10-03T10:29:44.000Z</time>
      </trkpt>
      <trkpt lat="42.47890833" lon="-7.98988833">
        <ele>538.0</ele>
        <time>2018-10-03T10:29:45.000Z</time>
      </trkpt>
      <trkpt lat="42.478925" lon="-7.98989167">
        <ele>538.0</ele>
        <time>2018-10-03T10:29:46.000Z</time>
      </trkpt>
      <trkpt lat="42.47894167" lon="-7.989895">
        <ele>538.0</ele>
        <time>2018-10-03T10:29:47.000Z</time>
      </trkpt>
      <trkpt lat="42.47895833" lon="-7.98989833">
        <ele>538.0</ele>
        <time>2018-10-03T10:29:48.000Z</time>
      </trkpt>
      <trkpt lat="42.478975" lon="-7.98990167">
        <ele>538.0</ele>
        <time>2018-10-03T10:29:49.000Z</time>
      </trkpt>
      <trkpt lat="42.47899" lon="-7.989905">
        <ele>538.0</ele>
        <time>2018-10-03T10:29:50.000Z</time>
      </trkpt>
      <trkpt lat="42.47900667" lon="-7.98991">
        <ele>538.0</ele>
        <time>2018-10-03T10:29:51.000Z</time>
      </trkpt>
      <trkpt lat="42.47902167" lon="-7.98991333">
        <ele>538.0</ele>
        <time>2018-10-03T10:29:52.000Z</time>
      </trkpt>
      <trkpt lat="42.47903833" lon="-7.98992">
        <ele>539.0</ele>
        <time>2018-10-03T10:29:53.000Z</time>
      </trkpt>
      <trkpt lat="42.47905333" lon="-7.989925">
        <ele>539.0</ele>
        <time>2018-10-03T10:29:54.000Z</time>
      </trkpt>
      <trkpt lat="42.47907" lon="-7.98992833">
        <ele>539.0</ele>
        <time>2018-10-03T10:29:55.000Z</time>
      </trkpt>
      <trkpt lat="42.47908667" lon="-7.98993333">
        <ele>539.0</ele>
        <time>2018-10-03T10:29:56.000Z</time>
      </trkpt>
      <trkpt lat="42.47910167" lon="-7.98993833">
        <ele>539.0</ele>
        <time>2018-10-03T10:29:57.000Z</time>
      </trkpt>
      <trkpt lat="42.47911833" lon="-7.98994333">
        <ele>539.0</ele>
        <time>2018-10-03T10:29:58.000Z</time>
      </trkpt>
      <trkpt lat="42.479135" lon="-7.98994833">
        <ele>539.0</ele>
        <time>2018-10-03T10:29:59.000Z</time>
      </trkpt>
      <trkpt lat="42.47915" lon="-7.98995333">
        <ele>538.0</ele>
        <time>2018-10-03T10:30:00.000Z</time>
      </trkpt>
      <trkpt lat="42.47916667" lon="-7.98995833">
        <ele>538.0</ele>
        <time>2018-10-03T10:30:01.000Z</time>
      </trkpt>
      <trkpt lat="42.47918167" lon="-7.98996167">
        <ele>538.0</ele>
        <time>2018-10-03T10:30:02.000Z</time>
      </trkpt>
      <trkpt lat="42.47919833" lon="-7.989965">
        <ele>538.0</ele>
        <time>2018-10-03T10:30:03.000Z</time>
      </trkpt>
      <trkpt lat="42.479215" lon="-7.98996833">
        <ele>538.0</ele>
        <time>2018-10-03T10:30:04.000Z</time>
      </trkpt>
      <trkpt lat="42.47923" lon="-7.98997167">
        <ele>538.0</ele>
        <time>2018-10-03T10:30:05.000Z</time>
      </trkpt>
      <trkpt lat="42.479245" lon="-7.989975">
        <ele>538.0</ele>
        <time>2018-10-03T10:30:06.000Z</time>
      </trkpt>
      <trkpt lat="42.47926167" lon="-7.98997667">
        <ele>538.0</ele>
        <time>2018-10-03T10:30:07.000Z</time>
      </trkpt>
      <trkpt lat="42.479275" lon="-7.98997833">
        <ele>538.0</ele>
        <time>2018-10-03T10:30:08.000Z</time>
      </trkpt>
      <trkpt lat="42.47929167" lon="-7.98998167">
        <ele>538.0</ele>
        <time>2018-10-03T10:30:09.000Z</time>
      </trkpt>
      <trkpt lat="42.47930667" lon="-7.98998333">
        <ele>538.0</ele>
        <time>2018-10-03T10:30:10.000Z</time>
      </trkpt>
      <trkpt lat="42.47932167" lon="-7.98998333">
        <ele>538.0</ele>
        <time>2018-10-03T10:30:11.000Z</time>
      </trkpt>
      <trkpt lat="42.47933833" lon="-7.989985">
        <ele>538.0</ele>
        <time>2018-10-03T10:30:12.000Z</time>
      </trkpt>
      <trkpt lat="42.47935333" lon="-7.98998833">
        <ele>537.0</ele>
        <time>2018-10-03T10:30:13.000Z</time>
      </trkpt>
      <trkpt lat="42.47936833" lon="-7.98999167">
        <ele>537.0</ele>
        <time>2018-10-03T10:30:14.000Z</time>
      </trkpt>
      <trkpt lat="42.479385" lon="-7.98999333">
        <ele>537.0</ele>
        <time>2018-10-03T10:30:15.000Z</time>
      </trkpt>
      <trkpt lat="42.47940167" lon="-7.98999667">
        <ele>537.0</ele>
        <time>2018-10-03T10:30:16.000Z</time>
      </trkpt>
      <trkpt lat="42.479415" lon="-7.98999833">
        <ele>537.0</ele>
        <time>2018-10-03T10:30:17.000Z</time>
      </trkpt>
      <trkpt lat="42.47943167" lon="-7.99">
        <ele>537.0</ele>
        <time>2018-10-03T10:30:18.000Z</time>
      </trkpt>
      <trkpt lat="42.47944667" lon="-7.99000167">
        <ele>537.0</ele>
        <time>2018-10-03T10:30:19.000Z</time>
      </trkpt>
      <trkpt lat="42.47946167" lon="-7.990005">
        <ele>537.0</ele>
        <time>2018-10-03T10:30:20.000Z</time>
      </trkpt>
      <trkpt lat="42.47947667" lon="-7.99000833">
        <ele>536.0</ele>
        <time>2018-10-03T10:30:21.000Z</time>
      </trkpt>
      <trkpt lat="42.47949167" lon="-7.99001167">
        <ele>536.0</ele>
        <time>2018-10-03T10:30:22.000Z</time>
      </trkpt>
      <trkpt lat="42.47950667" lon="-7.990015">
        <ele>536.0</ele>
        <time>2018-10-03T10:30:23.000Z</time>
      </trkpt>
      <trkpt lat="42.47952" lon="-7.990015">
        <ele>536.0</ele>
        <time>2018-10-03T10:30:24.000Z</time>
      </trkpt>
      <trkpt lat="42.479535" lon="-7.99001833">
        <ele>536.0</ele>
        <time>2018-10-03T10:30:25.000Z</time>
      </trkpt>
      <trkpt lat="42.47955167" lon="-7.99002167">
        <ele>535.0</ele>
        <time>2018-10-03T10:30:26.000Z</time>
      </trkpt>
      <trkpt lat="42.47956833" lon="-7.99002667">
        <ele>535.0</ele>
        <time>2018-10-03T10:30:27.000Z</time>
      </trkpt>
      <trkpt lat="42.47958333" lon="-7.99003">
        <ele>535.0</ele>
        <time>2018-10-03T10:30:28.000Z</time>
      </trkpt>
      <trkpt lat="42.47959833" lon="-7.99003667">
        <ele>535.0</ele>
        <time>2018-10-03T10:30:29.000Z</time>
      </trkpt>
      <trkpt lat="42.47961333" lon="-7.99004333">
        <ele>535.0</ele>
        <time>2018-10-03T10:30:30.000Z</time>
      </trkpt>
      <trkpt lat="42.47963" lon="-7.99005">
        <ele>535.0</ele>
        <time>2018-10-03T10:30:31.000Z</time>
      </trkpt>
      <trkpt lat="42.47964667" lon="-7.99005667">
        <ele>535.0</ele>
        <time>2018-10-03T10:30:32.000Z</time>
      </trkpt>
      <trkpt lat="42.47966167" lon="-7.99006333">
        <ele>535.0</ele>
        <time>2018-10-03T10:30:33.000Z</time>
      </trkpt>
      <trkpt lat="42.47967667" lon="-7.990075">
        <ele>534.0</ele>
        <time>2018-10-03T10:30:34.000Z</time>
      </trkpt>
      <trkpt lat="42.47969167" lon="-7.990085">
        <ele>534.0</ele>
        <time>2018-10-03T10:30:35.000Z</time>
      </trkpt>
      <trkpt lat="42.47970833" lon="-7.99009333">
        <ele>534.0</ele>
        <time>2018-10-03T10:30:36.000Z</time>
      </trkpt>
      <trkpt lat="42.47972333" lon="-7.9901">
        <ele>534.0</ele>
        <time>2018-10-03T10:30:37.000Z</time>
      </trkpt>
      <trkpt lat="42.47973833" lon="-7.99010833">
        <ele>534.0</ele>
        <time>2018-10-03T10:30:38.000Z</time>
      </trkpt>
      <trkpt lat="42.47975333" lon="-7.99011333">
        <ele>534.0</ele>
        <time>2018-10-03T10:30:39.000Z</time>
      </trkpt>
      <trkpt lat="42.47977" lon="-7.99012">
        <ele>534.0</ele>
        <time>2018-10-03T10:30:40.000Z</time>
      </trkpt>
      <trkpt lat="42.47978333" lon="-7.99012667">
        <ele>534.0</ele>
        <time>2018-10-03T10:30:41.000Z</time>
      </trkpt>
      <trkpt lat="42.47979667" lon="-7.99013833">
        <ele>533.0</ele>
        <time>2018-10-03T10:30:42.000Z</time>
      </trkpt>
      <trkpt lat="42.47981" lon="-7.99015">
        <ele>533.0</ele>
        <time>2018-10-03T10:30:43.000Z</time>
      </trkpt>
      <trkpt lat="42.47982167" lon="-7.99016">
        <ele>533.0</ele>
        <time>2018-10-03T10:30:44.000Z</time>
      </trkpt>
      <trkpt lat="42.47983667" lon="-7.99017333">
        <ele>533.0</ele>
        <time>2018-10-03T10:30:45.000Z</time>
      </trkpt>
      <trkpt lat="42.47985" lon="-7.99018333">
        <ele>533.0</ele>
        <time>2018-10-03T10:30:46.000Z</time>
      </trkpt>
      <trkpt lat="42.47986333" lon="-7.99019333">
        <ele>533.0</ele>
        <time>2018-10-03T10:30:47.000Z</time>
      </trkpt>
      <trkpt lat="42.47987333" lon="-7.99020667">
        <ele>533.0</ele>
        <time>2018-10-03T10:30:48.000Z</time>
      </trkpt>
      <trkpt lat="42.47988333" lon="-7.99021833">
        <ele>532.0</ele>
        <time>2018-10-03T10:30:49.000Z</time>
      </trkpt>
      <trkpt lat="42.47989667" lon="-7.99023167">
        <ele>532.0</ele>
        <time>2018-10-03T10:30:50.000Z</time>
      </trkpt>
      <trkpt lat="42.47991167" lon="-7.99024667">
        <ele>532.0</ele>
        <time>2018-10-03T10:30:51.000Z</time>
      </trkpt>
      <trkpt lat="42.47992667" lon="-7.99026">
        <ele>532.0</ele>
        <time>2018-10-03T10:30:52.000Z</time>
      </trkpt>
      <trkpt lat="42.47994" lon="-7.99027667">
        <ele>532.0</ele>
        <time>2018-10-03T10:30:53.000Z</time>
      </trkpt>
      <trkpt lat="42.47995333" lon="-7.99029">
        <ele>532.0</ele>
        <time>2018-10-03T10:30:54.000Z</time>
      </trkpt>
      <trkpt lat="42.47996333" lon="-7.990305">
        <ele>532.0</ele>
        <time>2018-10-03T10:30:55.000Z</time>
      </trkpt>
      <trkpt lat="42.479975" lon="-7.99032167">
        <ele>532.0</ele>
        <time>2018-10-03T10:30:56.000Z</time>
      </trkpt>
      <trkpt lat="42.47998667" lon="-7.99033667">
        <ele>531.0</ele>
        <time>2018-10-03T10:30:57.000Z</time>
      </trkpt>
      <trkpt lat="42.479995" lon="-7.99035167">
        <ele>531.0</ele>
        <time>2018-10-03T10:30:58.000Z</time>
      </trkpt>
      <trkpt lat="42.48000667" lon="-7.99037">
        <ele>531.0</ele>
        <time>2018-10-03T10:30:59.000Z</time>
      </trkpt>
      <trkpt lat="42.48001667" lon="-7.99038667">
        <ele>531.0</ele>
        <time>2018-10-03T10:31:00.000Z</time>
      </trkpt>
      <trkpt lat="42.48002667" lon="-7.990405">
        <ele>531.0</ele>
        <time>2018-10-03T10:31:01.000Z</time>
      </trkpt>
      <trkpt lat="42.48003833" lon="-7.990425">
        <ele>531.0</ele>
        <time>2018-10-03T10:31:02.000Z</time>
      </trkpt>
      <trkpt lat="42.48004833" lon="-7.99044">
        <ele>531.0</ele>
        <time>2018-10-03T10:31:03.000Z</time>
      </trkpt>
      <trkpt lat="42.480055" lon="-7.99045833">
        <ele>531.0</ele>
        <time>2018-10-03T10:31:04.000Z</time>
      </trkpt>
      <trkpt lat="42.48006333" lon="-7.99047833">
        <ele>531.0</ele>
        <time>2018-10-03T10:31:05.000Z</time>
      </trkpt>
      <trkpt lat="42.48007" lon="-7.990495">
        <ele>530.0</ele>
        <time>2018-10-03T10:31:06.000Z</time>
      </trkpt>
      <trkpt lat="42.48007667" lon="-7.99051">
        <ele>530.0</ele>
        <time>2018-10-03T10:31:07.000Z</time>
      </trkpt>
      <trkpt lat="42.480085" lon="-7.99052833">
        <ele>530.0</ele>
        <time>2018-10-03T10:31:08.000Z</time>
      </trkpt>
      <trkpt lat="42.48009333" lon="-7.99054667">
        <ele>530.0</ele>
        <time>2018-10-03T10:31:09.000Z</time>
      </trkpt>
      <trkpt lat="42.48010333" lon="-7.99056667">
        <ele>530.0</ele>
        <time>2018-10-03T10:31:10.000Z</time>
      </trkpt>
      <trkpt lat="42.48011167" lon="-7.99058667">
        <ele>530.0</ele>
        <time>2018-10-03T10:31:11.000Z</time>
      </trkpt>
      <trkpt lat="42.48012167" lon="-7.99060333">
        <ele>530.0</ele>
        <time>2018-10-03T10:31:12.000Z</time>
      </trkpt>
      <trkpt lat="42.48013" lon="-7.99062">
        <ele>529.0</ele>
        <time>2018-10-03T10:31:13.000Z</time>
      </trkpt>
      <trkpt lat="42.48013833" lon="-7.99063833">
        <ele>529.0</ele>
        <time>2018-10-03T10:31:14.000Z</time>
      </trkpt>
      <trkpt lat="42.480145" lon="-7.990655">
        <ele>529.0</ele>
        <time>2018-10-03T10:31:15.000Z</time>
      </trkpt>
      <trkpt lat="42.48015167" lon="-7.99067167">
        <ele>529.0</ele>
        <time>2018-10-03T10:31:16.000Z</time>
      </trkpt>
      <trkpt lat="42.48015833" lon="-7.99069">
        <ele>529.0</ele>
        <time>2018-10-03T10:31:17.000Z</time>
      </trkpt>
      <trkpt lat="42.48016333" lon="-7.99071">
        <ele>529.0</ele>
        <time>2018-10-03T10:31:18.000Z</time>
      </trkpt>
      <trkpt lat="42.48017333" lon="-7.99073">
        <ele>529.0</ele>
        <time>2018-10-03T10:31:19.000Z</time>
      </trkpt>
      <trkpt lat="42.48018333" lon="-7.99074667">
        <ele>528.0</ele>
        <time>2018-10-03T10:31:20.000Z</time>
      </trkpt>
      <trkpt lat="42.480195" lon="-7.99076167">
        <ele>528.0</ele>
        <time>2018-10-03T10:31:21.000Z</time>
      </trkpt>
      <trkpt lat="42.48020667" lon="-7.99077667">
        <ele>528.0</ele>
        <time>2018-10-03T10:31:22.000Z</time>
      </trkpt>
      <trkpt lat="42.48021833" lon="-7.99079167">
        <ele>528.0</ele>
        <time>2018-10-03T10:31:23.000Z</time>
      </trkpt>
      <trkpt lat="42.48023167" lon="-7.99080333">
        <ele>528.0</ele>
        <time>2018-10-03T10:31:24.000Z</time>
      </trkpt>
      <trkpt lat="42.480245" lon="-7.99081333">
        <ele>528.0</ele>
        <time>2018-10-03T10:31:25.000Z</time>
      </trkpt>
      <trkpt lat="42.48026" lon="-7.990825">
        <ele>528.0</ele>
        <time>2018-10-03T10:31:26.000Z</time>
      </trkpt>
      <trkpt lat="42.48027333" lon="-7.99083333">
        <ele>528.0</ele>
        <time>2018-10-03T10:31:27.000Z</time>
      </trkpt>
      <trkpt lat="42.48028833" lon="-7.990845">
        <ele>527.0</ele>
        <time>2018-10-03T10:31:28.000Z</time>
      </trkpt>
      <trkpt lat="42.480305" lon="-7.99085">
        <ele>527.0</ele>
        <time>2018-10-03T10:31:29.000Z</time>
      </trkpt>
      <trkpt lat="42.48032167" lon="-7.99085667">
        <ele>527.0</ele>
        <time>2018-10-03T10:31:30.000Z</time>
      </trkpt>
      <trkpt lat="42.48033833" lon="-7.99086167">
        <ele>527.0</ele>
        <time>2018-10-03T10:31:31.000Z</time>
      </trkpt>
      <trkpt lat="42.480355" lon="-7.990865">
        <ele>527.0</ele>
        <time>2018-10-03T10:31:32.000Z</time>
      </trkpt>
      <trkpt lat="42.48037167" lon="-7.99086833">
        <ele>527.0</ele>
        <time>2018-10-03T10:31:33.000Z</time>
      </trkpt>
      <trkpt lat="42.48039" lon="-7.99087167">
        <ele>527.0</ele>
        <time>2018-10-03T10:31:34.000Z</time>
      </trkpt>
      <trkpt lat="42.48040833" lon="-7.99087333">
        <ele>527.0</ele>
        <time>2018-10-03T10:31:35.000Z</time>
      </trkpt>
      <trkpt lat="42.48042833" lon="-7.990875">
        <ele>527.0</ele>
        <time>2018-10-03T10:31:36.000Z</time>
      </trkpt>
      <trkpt lat="42.48044333" lon="-7.99087667">
        <ele>526.0</ele>
        <time>2018-10-03T10:31:37.000Z</time>
      </trkpt>
      <trkpt lat="42.48046" lon="-7.99087667">
        <ele>526.0</ele>
        <time>2018-10-03T10:31:38.000Z</time>
      </trkpt>
      <trkpt lat="42.480475" lon="-7.99087833">
        <ele>526.0</ele>
        <time>2018-10-03T10:31:39.000Z</time>
      </trkpt>
      <trkpt lat="42.48049333" lon="-7.99087667">
        <ele>526.0</ele>
        <time>2018-10-03T10:31:40.000Z</time>
      </trkpt>
      <trkpt lat="42.48051167" lon="-7.99087333">
        <ele>526.0</ele>
        <time>2018-10-03T10:31:41.000Z</time>
      </trkpt>
      <trkpt lat="42.48053" lon="-7.99087">
        <ele>525.0</ele>
        <time>2018-10-03T10:31:42.000Z</time>
      </trkpt>
      <trkpt lat="42.48054833" lon="-7.99086333">
        <ele>525.0</ele>
        <time>2018-10-03T10:31:43.000Z</time>
      </trkpt>
      <trkpt lat="42.48056667" lon="-7.99085833">
        <ele>525.0</ele>
        <time>2018-10-03T10:31:44.000Z</time>
      </trkpt>
      <trkpt lat="42.48058667" lon="-7.99085167">
        <ele>525.0</ele>
        <time>2018-10-03T10:31:45.000Z</time>
      </trkpt>
      <trkpt lat="42.48060667" lon="-7.990845">
        <ele>524.0</ele>
        <time>2018-10-03T10:31:46.000Z</time>
      </trkpt>
      <trkpt lat="42.48062333" lon="-7.99083667">
        <ele>524.0</ele>
        <time>2018-10-03T10:31:47.000Z</time>
      </trkpt>
      <trkpt lat="42.48064167" lon="-7.99083">
        <ele>523.0</ele>
        <time>2018-10-03T10:31:48.000Z</time>
      </trkpt>
      <trkpt lat="42.48065833" lon="-7.99082167">
        <ele>523.0</ele>
        <time>2018-10-03T10:31:49.000Z</time>
      </trkpt>
      <trkpt lat="42.480675" lon="-7.99081667">
        <ele>523.0</ele>
        <time>2018-10-03T10:31:50.000Z</time>
      </trkpt>
      <trkpt lat="42.48069333" lon="-7.99081">
        <ele>522.0</ele>
        <time>2018-10-03T10:31:51.000Z</time>
      </trkpt>
      <trkpt lat="42.48071167" lon="-7.99080167">
        <ele>522.0</ele>
        <time>2018-10-03T10:31:52.000Z</time>
      </trkpt>
      <trkpt lat="42.48073" lon="-7.99079333">
        <ele>522.0</ele>
        <time>2018-10-03T10:31:53.000Z</time>
      </trkpt>
      <trkpt lat="42.48074667" lon="-7.990785">
        <ele>522.0</ele>
        <time>2018-10-03T10:31:54.000Z</time>
      </trkpt>
      <trkpt lat="42.48076667" lon="-7.99077667">
        <ele>522.0</ele>
        <time>2018-10-03T10:31:55.000Z</time>
      </trkpt>
      <trkpt lat="42.48078333" lon="-7.99076833">
        <ele>522.0</ele>
        <time>2018-10-03T10:31:56.000Z</time>
      </trkpt>
      <trkpt lat="42.48079833" lon="-7.99076">
        <ele>522.0</ele>
        <time>2018-10-03T10:31:57.000Z</time>
      </trkpt>
      <trkpt lat="42.48081333" lon="-7.99075">
        <ele>521.0</ele>
        <time>2018-10-03T10:31:58.000Z</time>
      </trkpt>
      <trkpt lat="42.48082833" lon="-7.99074">
        <ele>521.0</ele>
        <time>2018-10-03T10:31:59.000Z</time>
      </trkpt>
      <trkpt lat="42.48084333" lon="-7.99073333">
        <ele>521.0</ele>
        <time>2018-10-03T10:32:00.000Z</time>
      </trkpt>
      <trkpt lat="42.48085833" lon="-7.99072333">
        <ele>521.0</ele>
        <time>2018-10-03T10:32:01.000Z</time>
      </trkpt>
      <trkpt lat="42.480875" lon="-7.99071167">
        <ele>521.0</ele>
        <time>2018-10-03T10:32:02.000Z</time>
      </trkpt>
      <trkpt lat="42.48089" lon="-7.9907">
        <ele>521.0</ele>
        <time>2018-10-03T10:32:03.000Z</time>
      </trkpt>
      <trkpt lat="42.48090333" lon="-7.99069167">
        <ele>520.0</ele>
        <time>2018-10-03T10:32:04.000Z</time>
      </trkpt>
      <trkpt lat="42.48091833" lon="-7.99068333">
        <ele>520.0</ele>
        <time>2018-10-03T10:32:05.000Z</time>
      </trkpt>
      <trkpt lat="42.48093167" lon="-7.990675">
        <ele>520.0</ele>
        <time>2018-10-03T10:32:06.000Z</time>
      </trkpt>
      <trkpt lat="42.48094667" lon="-7.990665">
        <ele>520.0</ele>
        <time>2018-10-03T10:32:07.000Z</time>
      </trkpt>
      <trkpt lat="42.48096333" lon="-7.990655">
        <ele>519.0</ele>
        <time>2018-10-03T10:32:08.000Z</time>
      </trkpt>
      <trkpt lat="42.48098167" lon="-7.990645">
        <ele>519.0</ele>
        <time>2018-10-03T10:32:09.000Z</time>
      </trkpt>
      <trkpt lat="42.48099833" lon="-7.99063833">
        <ele>519.0</ele>
        <time>2018-10-03T10:32:10.000Z</time>
      </trkpt>
      <trkpt lat="42.481015" lon="-7.99063">
        <ele>519.0</ele>
        <time>2018-10-03T10:32:11.000Z</time>
      </trkpt>
      <trkpt lat="42.48103333" lon="-7.99062167">
        <ele>519.0</ele>
        <time>2018-10-03T10:32:12.000Z</time>
      </trkpt>
      <trkpt lat="42.48105" lon="-7.99061167">
        <ele>519.0</ele>
        <time>2018-10-03T10:32:13.000Z</time>
      </trkpt>
      <trkpt lat="42.48106667" lon="-7.99060167">
        <ele>518.0</ele>
        <time>2018-10-03T10:32:14.000Z</time>
      </trkpt>
      <trkpt lat="42.48108167" lon="-7.99059">
        <ele>518.0</ele>
        <time>2018-10-03T10:32:15.000Z</time>
      </trkpt>
      <trkpt lat="42.48109667" lon="-7.99058">
        <ele>518.0</ele>
        <time>2018-10-03T10:32:16.000Z</time>
      </trkpt>
      <trkpt lat="42.48111167" lon="-7.99057">
        <ele>518.0</ele>
        <time>2018-10-03T10:32:17.000Z</time>
      </trkpt>
      <trkpt lat="42.481125" lon="-7.99055833">
        <ele>517.0</ele>
        <time>2018-10-03T10:32:18.000Z</time>
      </trkpt>
      <trkpt lat="42.48113833" lon="-7.99054667">
        <ele>517.0</ele>
        <time>2018-10-03T10:32:19.000Z</time>
      </trkpt>
      <trkpt lat="42.48115167" lon="-7.99053667">
        <ele>517.0</ele>
        <time>2018-10-03T10:32:20.000Z</time>
      </trkpt>
      <trkpt lat="42.48116667" lon="-7.99052833">
        <ele>517.0</ele>
        <time>2018-10-03T10:32:21.000Z</time>
      </trkpt>
      <trkpt lat="42.48118" lon="-7.99052167">
        <ele>517.0</ele>
        <time>2018-10-03T10:32:22.000Z</time>
      </trkpt>
      <trkpt lat="42.481195" lon="-7.99051667">
        <ele>517.0</ele>
        <time>2018-10-03T10:32:23.000Z</time>
      </trkpt>
      <trkpt lat="42.48120833" lon="-7.99051">
        <ele>516.0</ele>
        <time>2018-10-03T10:32:24.000Z</time>
      </trkpt>
      <trkpt lat="42.48122333" lon="-7.99050167">
        <ele>516.0</ele>
        <time>2018-10-03T10:32:25.000Z</time>
      </trkpt>
      <trkpt lat="42.48123667" lon="-7.99049167">
        <ele>516.0</ele>
        <time>2018-10-03T10:32:26.000Z</time>
      </trkpt>
      <trkpt lat="42.48125167" lon="-7.99048167">
        <ele>516.0</ele>
        <time>2018-10-03T10:32:27.000Z</time>
      </trkpt>
      <trkpt lat="42.48126667" lon="-7.990475">
        <ele>516.0</ele>
        <time>2018-10-03T10:32:28.000Z</time>
      </trkpt>
      <trkpt lat="42.48128" lon="-7.99046833">
        <ele>516.0</ele>
        <time>2018-10-03T10:32:29.000Z</time>
      </trkpt>
      <trkpt lat="42.48129667" lon="-7.99046167">
        <ele>516.0</ele>
        <time>2018-10-03T10:32:30.000Z</time>
      </trkpt>
      <trkpt lat="42.48131167" lon="-7.990455">
        <ele>516.0</ele>
        <time>2018-10-03T10:32:31.000Z</time>
      </trkpt>
      <trkpt lat="42.481325" lon="-7.99044333">
        <ele>516.0</ele>
        <time>2018-10-03T10:32:32.000Z</time>
      </trkpt>
      <trkpt lat="42.48134" lon="-7.99043333">
        <ele>516.0</ele>
        <time>2018-10-03T10:32:33.000Z</time>
      </trkpt>
      <trkpt lat="42.481355" lon="-7.99042667">
        <ele>515.0</ele>
        <time>2018-10-03T10:32:34.000Z</time>
      </trkpt>
      <trkpt lat="42.48137" lon="-7.99042">
        <ele>515.0</ele>
        <time>2018-10-03T10:32:35.000Z</time>
      </trkpt>
      <trkpt lat="42.481385" lon="-7.990415">
        <ele>515.0</ele>
        <time>2018-10-03T10:32:36.000Z</time>
      </trkpt>
      <trkpt lat="42.4814" lon="-7.99040833">
        <ele>515.0</ele>
        <time>2018-10-03T10:32:37.000Z</time>
      </trkpt>
      <trkpt lat="42.48141667" lon="-7.9904">
        <ele>515.0</ele>
        <time>2018-10-03T10:32:38.000Z</time>
      </trkpt>
      <trkpt lat="42.48142833" lon="-7.990395">
        <ele>515.0</ele>
        <time>2018-10-03T10:32:39.000Z</time>
      </trkpt>
      <trkpt lat="42.48144" lon="-7.99039667">
        <ele>515.0</ele>
        <time>2018-10-03T10:32:40.000Z</time>
      </trkpt>
      <trkpt lat="42.48145" lon="-7.990405">
        <ele>515.0</ele>
        <time>2018-10-03T10:32:41.000Z</time>
      </trkpt>
      <trkpt lat="42.48146167" lon="-7.99040833">
        <ele>515.0</ele>
        <time>2018-10-03T10:32:42.000Z</time>
      </trkpt>
      <trkpt lat="42.481475" lon="-7.99040833">
        <ele>515.0</ele>
        <time>2018-10-03T10:32:43.000Z</time>
      </trkpt>
      <trkpt lat="42.48149" lon="-7.990405">
        <ele>514.0</ele>
        <time>2018-10-03T10:32:44.000Z</time>
      </trkpt>
      <trkpt lat="42.481505" lon="-7.99040333">
        <ele>514.0</ele>
        <time>2018-10-03T10:32:45.000Z</time>
      </trkpt>
      <trkpt lat="42.48152" lon="-7.99039833">
        <ele>514.0</ele>
        <time>2018-10-03T10:32:46.000Z</time>
      </trkpt>
      <trkpt lat="42.481535" lon="-7.99039333">
        <ele>513.0</ele>
        <time>2018-10-03T10:32:47.000Z</time>
      </trkpt>
      <trkpt lat="42.48155" lon="-7.99038667">
        <ele>513.0</ele>
        <time>2018-10-03T10:32:48.000Z</time>
      </trkpt>
      <trkpt lat="42.481565" lon="-7.99038">
        <ele>513.0</ele>
        <time>2018-10-03T10:32:49.000Z</time>
      </trkpt>
      <trkpt lat="42.48158167" lon="-7.99037167">
        <ele>513.0</ele>
        <time>2018-10-03T10:32:50.000Z</time>
      </trkpt>
      <trkpt lat="42.48159667" lon="-7.99036667">
        <ele>513.0</ele>
        <time>2018-10-03T10:32:51.000Z</time>
      </trkpt>
      <trkpt lat="42.48161167" lon="-7.99036">
        <ele>513.0</ele>
        <time>2018-10-03T10:32:52.000Z</time>
      </trkpt>
      <trkpt lat="42.48162667" lon="-7.99035167">
        <ele>513.0</ele>
        <time>2018-10-03T10:32:53.000Z</time>
      </trkpt>
      <trkpt lat="42.48164333" lon="-7.99034167">
        <ele>513.0</ele>
        <time>2018-10-03T10:32:54.000Z</time>
      </trkpt>
      <trkpt lat="42.48165833" lon="-7.99033167">
        <ele>513.0</ele>
        <time>2018-10-03T10:32:55.000Z</time>
      </trkpt>
      <trkpt lat="42.48167167" lon="-7.99032">
        <ele>513.0</ele>
        <time>2018-10-03T10:32:56.000Z</time>
      </trkpt>
      <trkpt lat="42.48168833" lon="-7.99030667">
        <ele>513.0</ele>
        <time>2018-10-03T10:32:57.000Z</time>
      </trkpt>
      <trkpt lat="42.481705" lon="-7.990295">
        <ele>513.0</ele>
        <time>2018-10-03T10:32:58.000Z</time>
      </trkpt>
      <trkpt lat="42.48172167" lon="-7.990285">
        <ele>513.0</ele>
        <time>2018-10-03T10:32:59.000Z</time>
      </trkpt>
      <trkpt lat="42.48174" lon="-7.99027833">
        <ele>513.0</ele>
        <time>2018-10-03T10:33:00.000Z</time>
      </trkpt>
      <trkpt lat="42.481755" lon="-7.99027167">
        <ele>513.0</ele>
        <time>2018-10-03T10:33:01.000Z</time>
      </trkpt>
      <trkpt lat="42.48177" lon="-7.99026333">
        <ele>513.0</ele>
        <time>2018-10-03T10:33:02.000Z</time>
      </trkpt>
      <trkpt lat="42.48178667" lon="-7.990255">
        <ele>513.0</ele>
        <time>2018-10-03T10:33:03.000Z</time>
      </trkpt>
      <trkpt lat="42.48180333" lon="-7.99025">
        <ele>513.0</ele>
        <time>2018-10-03T10:33:04.000Z</time>
      </trkpt>
      <trkpt lat="42.48182167" lon="-7.990245">
        <ele>513.0</ele>
        <time>2018-10-03T10:33:05.000Z</time>
      </trkpt>
      <trkpt lat="42.48183833" lon="-7.99023667">
        <ele>513.0</ele>
        <time>2018-10-03T10:33:06.000Z</time>
      </trkpt>
      <trkpt lat="42.48185333" lon="-7.99023">
        <ele>513.0</ele>
        <time>2018-10-03T10:33:07.000Z</time>
      </trkpt>
      <trkpt lat="42.48186833" lon="-7.99021833">
        <ele>513.0</ele>
        <time>2018-10-03T10:33:08.000Z</time>
      </trkpt>
      <trkpt lat="42.48188167" lon="-7.99021">
        <ele>513.0</ele>
        <time>2018-10-03T10:33:09.000Z</time>
      </trkpt>
      <trkpt lat="42.48189667" lon="-7.99020333">
        <ele>513.0</ele>
        <time>2018-10-03T10:33:10.000Z</time>
      </trkpt>
      <trkpt lat="42.48191167" lon="-7.990195">
        <ele>513.0</ele>
        <time>2018-10-03T10:33:11.000Z</time>
      </trkpt>
      <trkpt lat="42.48192667" lon="-7.990185">
        <ele>514.0</ele>
        <time>2018-10-03T10:33:12.000Z</time>
      </trkpt>
      <trkpt lat="42.48194333" lon="-7.990175">
        <ele>514.0</ele>
        <time>2018-10-03T10:33:13.000Z</time>
      </trkpt>
      <trkpt lat="42.48196" lon="-7.990165">
        <ele>514.0</ele>
        <time>2018-10-03T10:33:14.000Z</time>
      </trkpt>
      <trkpt lat="42.481975" lon="-7.99015667">
        <ele>514.0</ele>
        <time>2018-10-03T10:33:15.000Z</time>
      </trkpt>
      <trkpt lat="42.48199167" lon="-7.99014833">
        <ele>514.0</ele>
        <time>2018-10-03T10:33:16.000Z</time>
      </trkpt>
      <trkpt lat="42.48200667" lon="-7.99013833">
        <ele>514.0</ele>
        <time>2018-10-03T10:33:17.000Z</time>
      </trkpt>
      <trkpt lat="42.48202167" lon="-7.99013167">
        <ele>514.0</ele>
        <time>2018-10-03T10:33:18.000Z</time>
      </trkpt>
      <trkpt lat="42.48203833" lon="-7.99012667">
        <ele>514.0</ele>
        <time>2018-10-03T10:33:19.000Z</time>
      </trkpt>
      <trkpt lat="42.48205333" lon="-7.99012333">
        <ele>514.0</ele>
        <time>2018-10-03T10:33:20.000Z</time>
      </trkpt>
      <trkpt lat="42.48206667" lon="-7.99011167">
        <ele>514.0</ele>
        <time>2018-10-03T10:33:21.000Z</time>
      </trkpt>
      <trkpt lat="42.48208167" lon="-7.99010833">
        <ele>514.0</ele>
        <time>2018-10-03T10:33:22.000Z</time>
      </trkpt>
      <trkpt lat="42.48209333" lon="-7.990105">
        <ele>514.0</ele>
        <time>2018-10-03T10:33:23.000Z</time>
      </trkpt>
      <trkpt lat="42.48210833" lon="-7.99010167">
        <ele>514.0</ele>
        <time>2018-10-03T10:33:24.000Z</time>
      </trkpt>
      <trkpt lat="42.48212333" lon="-7.990095">
        <ele>514.0</ele>
        <time>2018-10-03T10:33:25.000Z</time>
      </trkpt>
      <trkpt lat="42.482135" lon="-7.99009">
        <ele>514.0</ele>
        <time>2018-10-03T10:33:26.000Z</time>
      </trkpt>
      <trkpt lat="42.48214667" lon="-7.990085">
        <ele>514.0</ele>
        <time>2018-10-03T10:33:27.000Z</time>
      </trkpt>
      <trkpt lat="42.482155" lon="-7.99007167">
        <ele>514.0</ele>
        <time>2018-10-03T10:33:28.000Z</time>
      </trkpt>
      <trkpt lat="42.48216333" lon="-7.99005833">
        <ele>515.0</ele>
        <time>2018-10-03T10:33:29.000Z</time>
      </trkpt>
      <trkpt lat="42.48217" lon="-7.99004333">
        <ele>515.0</ele>
        <time>2018-10-03T10:33:30.000Z</time>
      </trkpt>
      <trkpt lat="42.48217833" lon="-7.99003">
        <ele>515.0</ele>
        <time>2018-10-03T10:33:31.000Z</time>
      </trkpt>
      <trkpt lat="42.48219" lon="-7.99002">
        <ele>515.0</ele>
        <time>2018-10-03T10:33:32.000Z</time>
      </trkpt>
      <trkpt lat="42.4822" lon="-7.99001">
        <ele>515.0</ele>
        <time>2018-10-03T10:33:33.000Z</time>
      </trkpt>
      <trkpt lat="42.48221167" lon="-7.99">
        <ele>515.0</ele>
        <time>2018-10-03T10:33:34.000Z</time>
      </trkpt>
      <trkpt lat="42.48222167" lon="-7.98999167">
        <ele>516.0</ele>
        <time>2018-10-03T10:33:35.000Z</time>
      </trkpt>
      <trkpt lat="42.482235" lon="-7.989985">
        <ele>516.0</ele>
        <time>2018-10-03T10:33:36.000Z</time>
      </trkpt>
      <trkpt lat="42.48224833" lon="-7.98998">
        <ele>516.0</ele>
        <time>2018-10-03T10:33:37.000Z</time>
      </trkpt>
      <trkpt lat="42.48226167" lon="-7.98997833">
        <ele>516.0</ele>
        <time>2018-10-03T10:33:38.000Z</time>
      </trkpt>
      <trkpt lat="42.48227833" lon="-7.989975">
        <ele>516.0</ele>
        <time>2018-10-03T10:33:39.000Z</time>
      </trkpt>
      <trkpt lat="42.48229333" lon="-7.98997333">
        <ele>516.0</ele>
        <time>2018-10-03T10:33:40.000Z</time>
      </trkpt>
      <trkpt lat="42.48231" lon="-7.98997333">
        <ele>516.0</ele>
        <time>2018-10-03T10:33:41.000Z</time>
      </trkpt>
      <trkpt lat="42.48232333" lon="-7.98997333">
        <ele>516.0</ele>
        <time>2018-10-03T10:33:42.000Z</time>
      </trkpt>
      <trkpt lat="42.48233833" lon="-7.98997333">
        <ele>517.0</ele>
        <time>2018-10-03T10:33:43.000Z</time>
      </trkpt>
      <trkpt lat="42.48235167" lon="-7.98997333">
        <ele>517.0</ele>
        <time>2018-10-03T10:33:44.000Z</time>
      </trkpt>
      <trkpt lat="42.482365" lon="-7.989975">
        <ele>517.0</ele>
        <time>2018-10-03T10:33:45.000Z</time>
      </trkpt>
      <trkpt lat="42.48237833" lon="-7.989975">
        <ele>517.0</ele>
        <time>2018-10-03T10:33:46.000Z</time>
      </trkpt>
      <trkpt lat="42.48239167" lon="-7.98997833">
        <ele>517.0</ele>
        <time>2018-10-03T10:33:47.000Z</time>
      </trkpt>
      <trkpt lat="42.482405" lon="-7.98998167">
        <ele>518.0</ele>
        <time>2018-10-03T10:33:48.000Z</time>
      </trkpt>
      <trkpt lat="42.48242" lon="-7.98998167">
        <ele>518.0</ele>
        <time>2018-10-03T10:33:49.000Z</time>
      </trkpt>
      <trkpt lat="42.48243667" lon="-7.98998">
        <ele>518.0</ele>
        <time>2018-10-03T10:33:50.000Z</time>
      </trkpt>
      <trkpt lat="42.48245167" lon="-7.98998167">
        <ele>518.0</ele>
        <time>2018-10-03T10:33:51.000Z</time>
      </trkpt>
      <trkpt lat="42.48246833" lon="-7.98998167">
        <ele>519.0</ele>
        <time>2018-10-03T10:33:52.000Z</time>
      </trkpt>
      <trkpt lat="42.48248333" lon="-7.989985">
        <ele>519.0</ele>
        <time>2018-10-03T10:33:53.000Z</time>
      </trkpt>
      <trkpt lat="42.48249833" lon="-7.989985">
        <ele>519.0</ele>
        <time>2018-10-03T10:33:54.000Z</time>
      </trkpt>
      <trkpt lat="42.48251333" lon="-7.98998667">
        <ele>519.0</ele>
        <time>2018-10-03T10:33:55.000Z</time>
      </trkpt>
      <trkpt lat="42.48252833" lon="-7.98998667">
        <ele>519.0</ele>
        <time>2018-10-03T10:33:56.000Z</time>
      </trkpt>
      <trkpt lat="42.482545" lon="-7.98998667">
        <ele>520.0</ele>
        <time>2018-10-03T10:33:57.000Z</time>
      </trkpt>
      <trkpt lat="42.48256" lon="-7.98998667">
        <ele>520.0</ele>
        <time>2018-10-03T10:33:58.000Z</time>
      </trkpt>
      <trkpt lat="42.482575" lon="-7.98998667">
        <ele>520.0</ele>
        <time>2018-10-03T10:33:59.000Z</time>
      </trkpt>
      <trkpt lat="42.48259" lon="-7.98998667">
        <ele>520.0</ele>
        <time>2018-10-03T10:34:00.000Z</time>
      </trkpt>
      <trkpt lat="42.482605" lon="-7.989985">
        <ele>520.0</ele>
        <time>2018-10-03T10:34:01.000Z</time>
      </trkpt>
      <trkpt lat="42.48261833" lon="-7.989985">
        <ele>521.0</ele>
        <time>2018-10-03T10:34:02.000Z</time>
      </trkpt>
      <trkpt lat="42.482635" lon="-7.989985">
        <ele>521.0</ele>
        <time>2018-10-03T10:34:03.000Z</time>
      </trkpt>
      <trkpt lat="42.48265" lon="-7.989985">
        <ele>521.0</ele>
        <time>2018-10-03T10:34:04.000Z</time>
      </trkpt>
      <trkpt lat="42.48266667" lon="-7.98998333">
        <ele>521.0</ele>
        <time>2018-10-03T10:34:05.000Z</time>
      </trkpt>
      <trkpt lat="42.48268167" lon="-7.989985">
        <ele>521.0</ele>
        <time>2018-10-03T10:34:06.000Z</time>
      </trkpt>
      <trkpt lat="42.48269667" lon="-7.98998667">
        <ele>522.0</ele>
        <time>2018-10-03T10:34:07.000Z</time>
      </trkpt>
      <trkpt lat="42.48271333" lon="-7.98998833">
        <ele>522.0</ele>
        <time>2018-10-03T10:34:08.000Z</time>
      </trkpt>
      <trkpt lat="42.48273" lon="-7.98999">
        <ele>522.0</ele>
        <time>2018-10-03T10:34:09.000Z</time>
      </trkpt>
      <trkpt lat="42.482745" lon="-7.989995">
        <ele>522.0</ele>
        <time>2018-10-03T10:34:10.000Z</time>
      </trkpt>
      <trkpt lat="42.48275833" lon="-7.98999667">
        <ele>522.0</ele>
        <time>2018-10-03T10:34:11.000Z</time>
      </trkpt>
      <trkpt lat="42.48276833" lon="-7.99000167">
        <ele>522.0</ele>
        <time>2018-10-03T10:34:12.000Z</time>
      </trkpt>
      <trkpt lat="42.48278167" lon="-7.990005">
        <ele>522.0</ele>
        <time>2018-10-03T10:34:13.000Z</time>
      </trkpt>
      <trkpt lat="42.48279333" lon="-7.99001167">
        <ele>522.0</ele>
        <time>2018-10-03T10:34:14.000Z</time>
      </trkpt>
      <trkpt lat="42.48280667" lon="-7.99001833">
        <ele>522.0</ele>
        <time>2018-10-03T10:34:15.000Z</time>
      </trkpt>
      <trkpt lat="42.48282" lon="-7.990025">
        <ele>522.0</ele>
        <time>2018-10-03T10:34:16.000Z</time>
      </trkpt>
      <trkpt lat="42.482835" lon="-7.990035">
        <ele>523.0</ele>
        <time>2018-10-03T10:34:17.000Z</time>
      </trkpt>
      <trkpt lat="42.48284833" lon="-7.99004667">
        <ele>523.0</ele>
        <time>2018-10-03T10:34:18.000Z</time>
      </trkpt>
      <trkpt lat="42.48286167" lon="-7.99005833">
        <ele>523.0</ele>
        <time>2018-10-03T10:34:19.000Z</time>
      </trkpt>
      <trkpt lat="42.482875" lon="-7.99006667">
        <ele>523.0</ele>
        <time>2018-10-03T10:34:20.000Z</time>
      </trkpt>
      <trkpt lat="42.48288667" lon="-7.990075">
        <ele>523.0</ele>
        <time>2018-10-03T10:34:21.000Z</time>
      </trkpt>
      <trkpt lat="42.48290167" lon="-7.990085">
        <ele>524.0</ele>
        <time>2018-10-03T10:34:22.000Z</time>
      </trkpt>
      <trkpt lat="42.48291667" lon="-7.990095">
        <ele>524.0</ele>
        <time>2018-10-03T10:34:23.000Z</time>
      </trkpt>
      <trkpt lat="42.48293" lon="-7.99010333">
        <ele>524.0</ele>
        <time>2018-10-03T10:34:24.000Z</time>
      </trkpt>
      <trkpt lat="42.482945" lon="-7.99011333">
        <ele>524.0</ele>
        <time>2018-10-03T10:34:25.000Z</time>
      </trkpt>
      <trkpt lat="42.48295833" lon="-7.99012333">
        <ele>525.0</ele>
        <time>2018-10-03T10:34:26.000Z</time>
      </trkpt>
      <trkpt lat="42.48297333" lon="-7.99013167">
        <ele>525.0</ele>
        <time>2018-10-03T10:34:27.000Z</time>
      </trkpt>
      <trkpt lat="42.48298833" lon="-7.99013833">
        <ele>525.0</ele>
        <time>2018-10-03T10:34:28.000Z</time>
      </trkpt>
      <trkpt lat="42.48300167" lon="-7.99014667">
        <ele>525.0</ele>
        <time>2018-10-03T10:34:29.000Z</time>
      </trkpt>
      <trkpt lat="42.48301667" lon="-7.990155">
        <ele>526.0</ele>
        <time>2018-10-03T10:34:30.000Z</time>
      </trkpt>
      <trkpt lat="42.48303167" lon="-7.99016333">
        <ele>526.0</ele>
        <time>2018-10-03T10:34:31.000Z</time>
      </trkpt>
      <trkpt lat="42.483045" lon="-7.99017167">
        <ele>526.0</ele>
        <time>2018-10-03T10:34:32.000Z</time>
      </trkpt>
      <trkpt lat="42.48306" lon="-7.99017833">
        <ele>526.0</ele>
        <time>2018-10-03T10:34:33.000Z</time>
      </trkpt>
      <trkpt lat="42.483075" lon="-7.99018667">
        <ele>527.0</ele>
        <time>2018-10-03T10:34:34.000Z</time>
      </trkpt>
      <trkpt lat="42.48309" lon="-7.99019333">
        <ele>527.0</ele>
        <time>2018-10-03T10:34:35.000Z</time>
      </trkpt>
      <trkpt lat="42.483105" lon="-7.99020167">
        <ele>527.0</ele>
        <time>2018-10-03T10:34:36.000Z</time>
      </trkpt>
      <trkpt lat="42.48312" lon="-7.99020833">
        <ele>528.0</ele>
        <time>2018-10-03T10:34:37.000Z</time>
      </trkpt>
      <trkpt lat="42.483135" lon="-7.99021333">
        <ele>528.0</ele>
        <time>2018-10-03T10:34:38.000Z</time>
      </trkpt>
      <trkpt lat="42.48315167" lon="-7.99021667">
        <ele>528.0</ele>
        <time>2018-10-03T10:34:39.000Z</time>
      </trkpt>
      <trkpt lat="42.48316667" lon="-7.99022167">
        <ele>528.0</ele>
        <time>2018-10-03T10:34:40.000Z</time>
      </trkpt>
      <trkpt lat="42.48318167" lon="-7.990225">
        <ele>528.0</ele>
        <time>2018-10-03T10:34:41.000Z</time>
      </trkpt>
      <trkpt lat="42.48319833" lon="-7.99022833">
        <ele>528.0</ele>
        <time>2018-10-03T10:34:42.000Z</time>
      </trkpt>
      <trkpt lat="42.48321167" lon="-7.99023167">
        <ele>528.0</ele>
        <time>2018-10-03T10:34:43.000Z</time>
      </trkpt>
      <trkpt lat="42.48322667" lon="-7.99023667">
        <ele>528.0</ele>
        <time>2018-10-03T10:34:44.000Z</time>
      </trkpt>
      <trkpt lat="42.48324167" lon="-7.99023833">
        <ele>528.0</ele>
        <time>2018-10-03T10:34:45.000Z</time>
      </trkpt>
      <trkpt lat="42.483255" lon="-7.99024667">
        <ele>528.0</ele>
        <time>2018-10-03T10:34:46.000Z</time>
      </trkpt>
      <trkpt lat="42.48326833" lon="-7.99025333">
        <ele>528.0</ele>
        <time>2018-10-03T10:34:47.000Z</time>
      </trkpt>
      <trkpt lat="42.48328167" lon="-7.99025833">
        <ele>528.0</ele>
        <time>2018-10-03T10:34:48.000Z</time>
      </trkpt>
      <trkpt lat="42.48329833" lon="-7.990265">
        <ele>529.0</ele>
        <time>2018-10-03T10:34:49.000Z</time>
      </trkpt>
      <trkpt lat="42.48331333" lon="-7.99027167">
        <ele>529.0</ele>
        <time>2018-10-03T10:34:50.000Z</time>
      </trkpt>
      <trkpt lat="42.48332667" lon="-7.99027833">
        <ele>529.0</ele>
        <time>2018-10-03T10:34:51.000Z</time>
      </trkpt>
      <trkpt lat="42.48334167" lon="-7.990285">
        <ele>529.0</ele>
        <time>2018-10-03T10:34:52.000Z</time>
      </trkpt>
      <trkpt lat="42.483355" lon="-7.99029">
        <ele>529.0</ele>
        <time>2018-10-03T10:34:53.000Z</time>
      </trkpt>
      <trkpt lat="42.48337" lon="-7.99029333">
        <ele>529.0</ele>
        <time>2018-10-03T10:34:54.000Z</time>
      </trkpt>
      <trkpt lat="42.483385" lon="-7.99029667">
        <ele>529.0</ele>
        <time>2018-10-03T10:34:55.000Z</time>
      </trkpt>
      <trkpt lat="42.4834" lon="-7.99030167">
        <ele>529.0</ele>
        <time>2018-10-03T10:34:56.000Z</time>
      </trkpt>
      <trkpt lat="42.48341833" lon="-7.99030667">
        <ele>530.0</ele>
        <time>2018-10-03T10:34:57.000Z</time>
      </trkpt>
      <trkpt lat="42.483435" lon="-7.99031">
        <ele>530.0</ele>
        <time>2018-10-03T10:34:58.000Z</time>
      </trkpt>
      <trkpt lat="42.483455" lon="-7.99031">
        <ele>530.0</ele>
        <time>2018-10-03T10:34:59.000Z</time>
      </trkpt>
      <trkpt lat="42.48347167" lon="-7.99031167">
        <ele>530.0</ele>
        <time>2018-10-03T10:35:00.000Z</time>
      </trkpt>
      <trkpt lat="42.48348833" lon="-7.99031667">
        <ele>530.0</ele>
        <time>2018-10-03T10:35:01.000Z</time>
      </trkpt>
      <trkpt lat="42.483505" lon="-7.99032167">
        <ele>530.0</ele>
        <time>2018-10-03T10:35:02.000Z</time>
      </trkpt>
      <trkpt lat="42.48352" lon="-7.99032667">
        <ele>530.0</ele>
        <time>2018-10-03T10:35:03.000Z</time>
      </trkpt>
      <trkpt lat="42.483535" lon="-7.99033167">
        <ele>530.0</ele>
        <time>2018-10-03T10:35:04.000Z</time>
      </trkpt>
      <trkpt lat="42.48355" lon="-7.990335">
        <ele>530.0</ele>
        <time>2018-10-03T10:35:05.000Z</time>
      </trkpt>
      <trkpt lat="42.483565" lon="-7.99034">
        <ele>530.0</ele>
        <time>2018-10-03T10:35:06.000Z</time>
      </trkpt>
      <trkpt lat="42.48357833" lon="-7.99034333">
        <ele>529.0</ele>
        <time>2018-10-03T10:35:07.000Z</time>
      </trkpt>
      <trkpt lat="42.483595" lon="-7.99034833">
        <ele>529.0</ele>
        <time>2018-10-03T10:35:08.000Z</time>
      </trkpt>
      <trkpt lat="42.48361167" lon="-7.99035167">
        <ele>530.0</ele>
        <time>2018-10-03T10:35:09.000Z</time>
      </trkpt>
      <trkpt lat="42.48362667" lon="-7.99035333">
        <ele>530.0</ele>
        <time>2018-10-03T10:35:10.000Z</time>
      </trkpt>
      <trkpt lat="42.48364333" lon="-7.990355">
        <ele>530.0</ele>
        <time>2018-10-03T10:35:11.000Z</time>
      </trkpt>
      <trkpt lat="42.48366" lon="-7.99035667">
        <ele>530.0</ele>
        <time>2018-10-03T10:35:12.000Z</time>
      </trkpt>
      <trkpt lat="42.483675" lon="-7.99035833">
        <ele>530.0</ele>
        <time>2018-10-03T10:35:13.000Z</time>
      </trkpt>
      <trkpt lat="42.48369" lon="-7.99036">
        <ele>530.0</ele>
        <time>2018-10-03T10:35:14.000Z</time>
      </trkpt>
      <trkpt lat="42.48370333" lon="-7.99036167">
        <ele>530.0</ele>
        <time>2018-10-03T10:35:15.000Z</time>
      </trkpt>
      <trkpt lat="42.48371833" lon="-7.99036333">
        <ele>530.0</ele>
        <time>2018-10-03T10:35:16.000Z</time>
      </trkpt>
      <trkpt lat="42.48373333" lon="-7.990365">
        <ele>530.0</ele>
        <time>2018-10-03T10:35:17.000Z</time>
      </trkpt>
      <trkpt lat="42.48374833" lon="-7.99036833">
        <ele>531.0</ele>
        <time>2018-10-03T10:35:18.000Z</time>
      </trkpt>
      <trkpt lat="42.48376167" lon="-7.99036833">
        <ele>531.0</ele>
        <time>2018-10-03T10:35:19.000Z</time>
      </trkpt>
      <trkpt lat="42.48377667" lon="-7.99036833">
        <ele>531.0</ele>
        <time>2018-10-03T10:35:20.000Z</time>
      </trkpt>
      <trkpt lat="42.48379333" lon="-7.99036667">
        <ele>532.0</ele>
        <time>2018-10-03T10:35:21.000Z</time>
      </trkpt>
      <trkpt lat="42.48381" lon="-7.99036667">
        <ele>532.0</ele>
        <time>2018-10-03T10:35:22.000Z</time>
      </trkpt>
      <trkpt lat="42.483825" lon="-7.99036833">
        <ele>532.0</ele>
        <time>2018-10-03T10:35:23.000Z</time>
      </trkpt>
      <trkpt lat="42.48384" lon="-7.99036833">
        <ele>533.0</ele>
        <time>2018-10-03T10:35:24.000Z</time>
      </trkpt>
      <trkpt lat="42.48385333" lon="-7.99037">
        <ele>533.0</ele>
        <time>2018-10-03T10:35:25.000Z</time>
      </trkpt>
      <trkpt lat="42.48386833" lon="-7.99036833">
        <ele>533.0</ele>
        <time>2018-10-03T10:35:26.000Z</time>
      </trkpt>
      <trkpt lat="42.48388167" lon="-7.99037">
        <ele>533.0</ele>
        <time>2018-10-03T10:35:27.000Z</time>
      </trkpt>
      <trkpt lat="42.48389833" lon="-7.99037333">
        <ele>533.0</ele>
        <time>2018-10-03T10:35:28.000Z</time>
      </trkpt>
      <trkpt lat="42.48391667" lon="-7.99037333">
        <ele>534.0</ele>
        <time>2018-10-03T10:35:29.000Z</time>
      </trkpt>
      <trkpt lat="42.48393333" lon="-7.99037333">
        <ele>534.0</ele>
        <time>2018-10-03T10:35:30.000Z</time>
      </trkpt>
      <trkpt lat="42.48395" lon="-7.990375">
        <ele>534.0</ele>
        <time>2018-10-03T10:35:31.000Z</time>
      </trkpt>
      <trkpt lat="42.48396667" lon="-7.99037333">
        <ele>534.0</ele>
        <time>2018-10-03T10:35:32.000Z</time>
      </trkpt>
      <trkpt lat="42.48398167" lon="-7.990375">
        <ele>535.0</ele>
        <time>2018-10-03T10:35:33.000Z</time>
      </trkpt>
      <trkpt lat="42.48399667" lon="-7.99037667">
        <ele>535.0</ele>
        <time>2018-10-03T10:35:34.000Z</time>
      </trkpt>
      <trkpt lat="42.48401" lon="-7.990375">
        <ele>535.0</ele>
        <time>2018-10-03T10:35:35.000Z</time>
      </trkpt>
      <trkpt lat="42.484025" lon="-7.99037667">
        <ele>535.0</ele>
        <time>2018-10-03T10:35:36.000Z</time>
      </trkpt>
      <trkpt lat="42.48403833" lon="-7.99037667">
        <ele>536.0</ele>
        <time>2018-10-03T10:35:37.000Z</time>
      </trkpt>
      <trkpt lat="42.48405333" lon="-7.99037833">
        <ele>536.0</ele>
        <time>2018-10-03T10:35:38.000Z</time>
      </trkpt>
      <trkpt lat="42.48407" lon="-7.99038">
        <ele>536.0</ele>
        <time>2018-10-03T10:35:39.000Z</time>
      </trkpt>
      <trkpt lat="42.484085" lon="-7.99038167">
        <ele>536.0</ele>
        <time>2018-10-03T10:35:40.000Z</time>
      </trkpt>
      <trkpt lat="42.48410167" lon="-7.99038333">
        <ele>536.0</ele>
        <time>2018-10-03T10:35:41.000Z</time>
      </trkpt>
      <trkpt lat="42.48412" lon="-7.99038167">
        <ele>536.0</ele>
        <time>2018-10-03T10:35:42.000Z</time>
      </trkpt>
      <trkpt lat="42.484135" lon="-7.99038167">
        <ele>536.0</ele>
        <time>2018-10-03T10:35:43.000Z</time>
      </trkpt>
      <trkpt lat="42.48415167" lon="-7.99037833">
        <ele>536.0</ele>
        <time>2018-10-03T10:35:44.000Z</time>
      </trkpt>
      <trkpt lat="42.48416667" lon="-7.990375">
        <ele>536.0</ele>
        <time>2018-10-03T10:35:45.000Z</time>
      </trkpt>
      <trkpt lat="42.48418333" lon="-7.99037167">
        <ele>536.0</ele>
        <time>2018-10-03T10:35:46.000Z</time>
      </trkpt>
      <trkpt lat="42.4842" lon="-7.99037167">
        <ele>535.0</ele>
        <time>2018-10-03T10:35:47.000Z</time>
      </trkpt>
      <trkpt lat="42.48421333" lon="-7.99037333">
        <ele>535.0</ele>
        <time>2018-10-03T10:35:48.000Z</time>
      </trkpt>
      <trkpt lat="42.48423" lon="-7.99037167">
        <ele>535.0</ele>
        <time>2018-10-03T10:35:49.000Z</time>
      </trkpt>
      <trkpt lat="42.48424333" lon="-7.99037">
        <ele>535.0</ele>
        <time>2018-10-03T10:35:50.000Z</time>
      </trkpt>
      <trkpt lat="42.48426" lon="-7.990365">
        <ele>535.0</ele>
        <time>2018-10-03T10:35:51.000Z</time>
      </trkpt>
      <trkpt lat="42.48427667" lon="-7.99036167">
        <ele>535.0</ele>
        <time>2018-10-03T10:35:52.000Z</time>
      </trkpt>
      <trkpt lat="42.48429167" lon="-7.99036">
        <ele>535.0</ele>
        <time>2018-10-03T10:35:53.000Z</time>
      </trkpt>
      <trkpt lat="42.48430667" lon="-7.99036167">
        <ele>535.0</ele>
        <time>2018-10-03T10:35:54.000Z</time>
      </trkpt>
      <trkpt lat="42.48432333" lon="-7.99036333">
        <ele>534.0</ele>
        <time>2018-10-03T10:35:55.000Z</time>
      </trkpt>
      <trkpt lat="42.48433833" lon="-7.99036167">
        <ele>534.0</ele>
        <time>2018-10-03T10:35:56.000Z</time>
      </trkpt>
      <trkpt lat="42.48435333" lon="-7.99035833">
        <ele>534.0</ele>
        <time>2018-10-03T10:35:57.000Z</time>
      </trkpt>
      <trkpt lat="42.48437167" lon="-7.990355">
        <ele>534.0</ele>
        <time>2018-10-03T10:35:58.000Z</time>
      </trkpt>
      <trkpt lat="42.48439" lon="-7.99035167">
        <ele>534.0</ele>
        <time>2018-10-03T10:35:59.000Z</time>
      </trkpt>
      <trkpt lat="42.48440833" lon="-7.99035333">
        <ele>534.0</ele>
        <time>2018-10-03T10:36:00.000Z</time>
      </trkpt>
      <trkpt lat="42.484425" lon="-7.99035333">
        <ele>534.0</ele>
        <time>2018-10-03T10:36:01.000Z</time>
      </trkpt>
      <trkpt lat="42.48444" lon="-7.990355">
        <ele>534.0</ele>
        <time>2018-10-03T10:36:02.000Z</time>
      </trkpt>
      <trkpt lat="42.48445833" lon="-7.990355">
        <ele>534.0</ele>
        <time>2018-10-03T10:36:03.000Z</time>
      </trkpt>
      <trkpt lat="42.48447333" lon="-7.990355">
        <ele>534.0</ele>
        <time>2018-10-03T10:36:04.000Z</time>
      </trkpt>
      <trkpt lat="42.48449167" lon="-7.990355">
        <ele>534.0</ele>
        <time>2018-10-03T10:36:05.000Z</time>
      </trkpt>
      <trkpt lat="42.48451" lon="-7.990355">
        <ele>534.0</ele>
        <time>2018-10-03T10:36:06.000Z</time>
      </trkpt>
      <trkpt lat="42.48452667" lon="-7.99035333">
        <ele>534.0</ele>
        <time>2018-10-03T10:36:07.000Z</time>
      </trkpt>
      <trkpt lat="42.48454333" lon="-7.99035">
        <ele>534.0</ele>
        <time>2018-10-03T10:36:08.000Z</time>
      </trkpt>
      <trkpt lat="42.48456" lon="-7.99034833">
        <ele>534.0</ele>
        <time>2018-10-03T10:36:09.000Z</time>
      </trkpt>
      <trkpt lat="42.48457667" lon="-7.99035">
        <ele>534.0</ele>
        <time>2018-10-03T10:36:10.000Z</time>
      </trkpt>
      <trkpt lat="42.48459333" lon="-7.99034833">
        <ele>534.0</ele>
        <time>2018-10-03T10:36:11.000Z</time>
      </trkpt>
      <trkpt lat="42.48461" lon="-7.99034333">
        <ele>534.0</ele>
        <time>2018-10-03T10:36:12.000Z</time>
      </trkpt>
      <trkpt lat="42.48463" lon="-7.99034333">
        <ele>534.0</ele>
        <time>2018-10-03T10:36:13.000Z</time>
      </trkpt>
      <trkpt lat="42.48464833" lon="-7.99034167">
        <ele>534.0</ele>
        <time>2018-10-03T10:36:14.000Z</time>
      </trkpt>
      <trkpt lat="42.48466667" lon="-7.99033833">
        <ele>534.0</ele>
        <time>2018-10-03T10:36:15.000Z</time>
      </trkpt>
      <trkpt lat="42.484685" lon="-7.990335">
        <ele>534.0</ele>
        <time>2018-10-03T10:36:16.000Z</time>
      </trkpt>
      <trkpt lat="42.48470167" lon="-7.99033167">
        <ele>534.0</ele>
        <time>2018-10-03T10:36:17.000Z</time>
      </trkpt>
      <trkpt lat="42.48471667" lon="-7.99033333">
        <ele>534.0</ele>
        <time>2018-10-03T10:36:18.000Z</time>
      </trkpt>
      <trkpt lat="42.484735" lon="-7.990335">
        <ele>534.0</ele>
        <time>2018-10-03T10:36:19.000Z</time>
      </trkpt>
      <trkpt lat="42.48475" lon="-7.99033333">
        <ele>534.0</ele>
        <time>2018-10-03T10:36:20.000Z</time>
      </trkpt>
      <trkpt lat="42.484765" lon="-7.990335">
        <ele>534.0</ele>
        <time>2018-10-03T10:36:21.000Z</time>
      </trkpt>
      <trkpt lat="42.48478167" lon="-7.99033333">
        <ele>534.0</ele>
        <time>2018-10-03T10:36:22.000Z</time>
      </trkpt>
      <trkpt lat="42.48479667" lon="-7.99033333">
        <ele>534.0</ele>
        <time>2018-10-03T10:36:23.000Z</time>
      </trkpt>
      <trkpt lat="42.48481333" lon="-7.99033333">
        <ele>534.0</ele>
        <time>2018-10-03T10:36:24.000Z</time>
      </trkpt>
      <trkpt lat="42.48483" lon="-7.99033333">
        <ele>534.0</ele>
        <time>2018-10-03T10:36:25.000Z</time>
      </trkpt>
      <trkpt lat="42.48484333" lon="-7.990335">
        <ele>534.0</ele>
        <time>2018-10-03T10:36:26.000Z</time>
      </trkpt>
      <trkpt lat="42.48485833" lon="-7.99033833">
        <ele>534.0</ele>
        <time>2018-10-03T10:36:27.000Z</time>
      </trkpt>
      <trkpt lat="42.484875" lon="-7.99034">
        <ele>533.0</ele>
        <time>2018-10-03T10:36:28.000Z</time>
      </trkpt>
      <trkpt lat="42.48489" lon="-7.99033833">
        <ele>533.0</ele>
        <time>2018-10-03T10:36:29.000Z</time>
      </trkpt>
      <trkpt lat="42.48490833" lon="-7.99034">
        <ele>533.0</ele>
        <time>2018-10-03T10:36:30.000Z</time>
      </trkpt>
      <trkpt lat="42.48492667" lon="-7.99034333">
        <ele>533.0</ele>
        <time>2018-10-03T10:36:31.000Z</time>
      </trkpt>
      <trkpt lat="42.48494167" lon="-7.99034667">
        <ele>533.0</ele>
        <time>2018-10-03T10:36:32.000Z</time>
      </trkpt>
      <trkpt lat="42.48495667" lon="-7.99034833">
        <ele>533.0</ele>
        <time>2018-10-03T10:36:33.000Z</time>
      </trkpt>
      <trkpt lat="42.48497333" lon="-7.99035333">
        <ele>533.0</ele>
        <time>2018-10-03T10:36:34.000Z</time>
      </trkpt>
      <trkpt lat="42.48499" lon="-7.990355">
        <ele>533.0</ele>
        <time>2018-10-03T10:36:35.000Z</time>
      </trkpt>
      <trkpt lat="42.48500667" lon="-7.99035667">
        <ele>532.0</ele>
        <time>2018-10-03T10:36:36.000Z</time>
      </trkpt>
      <trkpt lat="42.48502167" lon="-7.99036167">
        <ele>532.0</ele>
        <time>2018-10-03T10:36:37.000Z</time>
      </trkpt>
      <trkpt lat="42.48503833" lon="-7.99036667">
        <ele>532.0</ele>
        <time>2018-10-03T10:36:38.000Z</time>
      </trkpt>
      <trkpt lat="42.48505833" lon="-7.99037">
        <ele>531.0</ele>
        <time>2018-10-03T10:36:39.000Z</time>
      </trkpt>
      <trkpt lat="42.48507333" lon="-7.99037333">
        <ele>531.0</ele>
        <time>2018-10-03T10:36:40.000Z</time>
      </trkpt>
      <trkpt lat="42.48508833" lon="-7.99037333">
        <ele>531.0</ele>
        <time>2018-10-03T10:36:41.000Z</time>
      </trkpt>
      <trkpt lat="42.48510333" lon="-7.990375">
        <ele>530.0</ele>
        <time>2018-10-03T10:36:42.000Z</time>
      </trkpt>
      <trkpt lat="42.48512167" lon="-7.99037833">
        <ele>530.0</ele>
        <time>2018-10-03T10:36:43.000Z</time>
      </trkpt>
      <trkpt lat="42.48514" lon="-7.990385">
        <ele>530.0</ele>
        <time>2018-10-03T10:36:44.000Z</time>
      </trkpt>
      <trkpt lat="42.48515833" lon="-7.99039">
        <ele>530.0</ele>
        <time>2018-10-03T10:36:45.000Z</time>
      </trkpt>
      <trkpt lat="42.48517833" lon="-7.990395">
        <ele>529.0</ele>
        <time>2018-10-03T10:36:46.000Z</time>
      </trkpt>
      <trkpt lat="42.48519667" lon="-7.99039833">
        <ele>529.0</ele>
        <time>2018-10-03T10:36:47.000Z</time>
      </trkpt>
      <trkpt lat="42.485215" lon="-7.990405">
        <ele>529.0</ele>
        <time>2018-10-03T10:36:48.000Z</time>
      </trkpt>
      <trkpt lat="42.48523167" lon="-7.99041">
        <ele>528.0</ele>
        <time>2018-10-03T10:36:49.000Z</time>
      </trkpt>
      <trkpt lat="42.48524833" lon="-7.99041667">
        <ele>528.0</ele>
        <time>2018-10-03T10:36:50.000Z</time>
      </trkpt>
      <trkpt lat="42.48526667" lon="-7.99042167">
        <ele>528.0</ele>
        <time>2018-10-03T10:36:51.000Z</time>
      </trkpt>
      <trkpt lat="42.485285" lon="-7.99042833">
        <ele>527.0</ele>
        <time>2018-10-03T10:36:52.000Z</time>
      </trkpt>
      <trkpt lat="42.48530333" lon="-7.99043167">
        <ele>527.0</ele>
        <time>2018-10-03T10:36:53.000Z</time>
      </trkpt>
      <trkpt lat="42.48532" lon="-7.99043667">
        <ele>527.0</ele>
        <time>2018-10-03T10:36:54.000Z</time>
      </trkpt>
      <trkpt lat="42.48533833" lon="-7.99044">
        <ele>526.0</ele>
        <time>2018-10-03T10:36:55.000Z</time>
      </trkpt>
      <trkpt lat="42.48535333" lon="-7.99044333">
        <ele>526.0</ele>
        <time>2018-10-03T10:36:56.000Z</time>
      </trkpt>
      <trkpt lat="42.48537" lon="-7.99044833">
        <ele>526.0</ele>
        <time>2018-10-03T10:36:57.000Z</time>
      </trkpt>
      <trkpt lat="42.485385" lon="-7.990455">
        <ele>525.0</ele>
        <time>2018-10-03T10:36:58.000Z</time>
      </trkpt>
      <trkpt lat="42.48540167" lon="-7.99046333">
        <ele>525.0</ele>
        <time>2018-10-03T10:36:59.000Z</time>
      </trkpt>
      <trkpt lat="42.48542" lon="-7.99046833">
        <ele>524.0</ele>
        <time>2018-10-03T10:37:00.000Z</time>
      </trkpt>
      <trkpt lat="42.48543833" lon="-7.99047333">
        <ele>524.0</ele>
        <time>2018-10-03T10:37:01.000Z</time>
      </trkpt>
      <trkpt lat="42.48545667" lon="-7.99047833">
        <ele>524.0</ele>
        <time>2018-10-03T10:37:02.000Z</time>
      </trkpt>
      <trkpt lat="42.48547167" lon="-7.990485">
        <ele>524.0</ele>
        <time>2018-10-03T10:37:03.000Z</time>
      </trkpt>
      <trkpt lat="42.48548667" lon="-7.99049">
        <ele>523.0</ele>
        <time>2018-10-03T10:37:04.000Z</time>
      </trkpt>
      <trkpt lat="42.48550333" lon="-7.99049667">
        <ele>523.0</ele>
        <time>2018-10-03T10:37:05.000Z</time>
      </trkpt>
      <trkpt lat="42.48552" lon="-7.990505">
        <ele>523.0</ele>
        <time>2018-10-03T10:37:06.000Z</time>
      </trkpt>
      <trkpt lat="42.48553667" lon="-7.99051167">
        <ele>523.0</ele>
        <time>2018-10-03T10:37:07.000Z</time>
      </trkpt>
      <trkpt lat="42.485555" lon="-7.99051833">
        <ele>523.0</ele>
        <time>2018-10-03T10:37:08.000Z</time>
      </trkpt>
      <trkpt lat="42.48557167" lon="-7.99052167">
        <ele>522.0</ele>
        <time>2018-10-03T10:37:09.000Z</time>
      </trkpt>
      <trkpt lat="42.48558833" lon="-7.99052667">
        <ele>522.0</ele>
        <time>2018-10-03T10:37:10.000Z</time>
      </trkpt>
      <trkpt lat="42.48560667" lon="-7.99053333">
        <ele>522.0</ele>
        <time>2018-10-03T10:37:11.000Z</time>
      </trkpt>
      <trkpt lat="42.48562167" lon="-7.99053833">
        <ele>522.0</ele>
        <time>2018-10-03T10:37:12.000Z</time>
      </trkpt>
      <trkpt lat="42.48563833" lon="-7.99054333">
        <ele>522.0</ele>
        <time>2018-10-03T10:37:13.000Z</time>
      </trkpt>
      <trkpt lat="42.485655" lon="-7.99055">
        <ele>522.0</ele>
        <time>2018-10-03T10:37:14.000Z</time>
      </trkpt>
      <trkpt lat="42.48567167" lon="-7.99055667">
        <ele>522.0</ele>
        <time>2018-10-03T10:37:15.000Z</time>
      </trkpt>
      <trkpt lat="42.48568833" lon="-7.99056">
        <ele>522.0</ele>
        <time>2018-10-03T10:37:16.000Z</time>
      </trkpt>
      <trkpt lat="42.485705" lon="-7.990565">
        <ele>522.0</ele>
        <time>2018-10-03T10:37:17.000Z</time>
      </trkpt>
      <trkpt lat="42.48572167" lon="-7.99056833">
        <ele>522.0</ele>
        <time>2018-10-03T10:37:18.000Z</time>
      </trkpt>
      <trkpt lat="42.48573833" lon="-7.99057167">
        <ele>522.0</ele>
        <time>2018-10-03T10:37:19.000Z</time>
      </trkpt>
      <trkpt lat="42.485755" lon="-7.99057833">
        <ele>521.0</ele>
        <time>2018-10-03T10:37:20.000Z</time>
      </trkpt>
      <trkpt lat="42.48576833" lon="-7.99058333">
        <ele>521.0</ele>
        <time>2018-10-03T10:37:21.000Z</time>
      </trkpt>
      <trkpt lat="42.48578333" lon="-7.99059167">
        <ele>521.0</ele>
        <time>2018-10-03T10:37:22.000Z</time>
      </trkpt>
      <trkpt lat="42.48580167" lon="-7.99059667">
        <ele>521.0</ele>
        <time>2018-10-03T10:37:23.000Z</time>
      </trkpt>
      <trkpt lat="42.48582167" lon="-7.99060167">
        <ele>521.0</ele>
        <time>2018-10-03T10:37:24.000Z</time>
      </trkpt>
      <trkpt lat="42.48584" lon="-7.99060833">
        <ele>521.0</ele>
        <time>2018-10-03T10:37:25.000Z</time>
      </trkpt>
      <trkpt lat="42.48585667" lon="-7.99061333">
        <ele>521.0</ele>
        <time>2018-10-03T10:37:26.000Z</time>
      </trkpt>
      <trkpt lat="42.48587167" lon="-7.99061833">
        <ele>521.0</ele>
        <time>2018-10-03T10:37:27.000Z</time>
      </trkpt>
      <trkpt lat="42.485885" lon="-7.99062333">
        <ele>521.0</ele>
        <time>2018-10-03T10:37:28.000Z</time>
      </trkpt>
      <trkpt lat="42.48589833" lon="-7.99063167">
        <ele>521.0</ele>
        <time>2018-10-03T10:37:29.000Z</time>
      </trkpt>
      <trkpt lat="42.485915" lon="-7.99063833">
        <ele>521.0</ele>
        <time>2018-10-03T10:37:30.000Z</time>
      </trkpt>
      <trkpt lat="42.48593333" lon="-7.99064333">
        <ele>521.0</ele>
        <time>2018-10-03T10:37:31.000Z</time>
      </trkpt>
      <trkpt lat="42.48595" lon="-7.99065">
        <ele>521.0</ele>
        <time>2018-10-03T10:37:32.000Z</time>
      </trkpt>
      <trkpt lat="42.48596667" lon="-7.99065667">
        <ele>521.0</ele>
        <time>2018-10-03T10:37:33.000Z</time>
      </trkpt>
      <trkpt lat="42.485985" lon="-7.99066333">
        <ele>521.0</ele>
        <time>2018-10-03T10:37:34.000Z</time>
      </trkpt>
      <trkpt lat="42.48600167" lon="-7.99067167">
        <ele>521.0</ele>
        <time>2018-10-03T10:37:35.000Z</time>
      </trkpt>
      <trkpt lat="42.486015" lon="-7.99068333">
        <ele>521.0</ele>
        <time>2018-10-03T10:37:36.000Z</time>
      </trkpt>
      <trkpt lat="42.48602833" lon="-7.990695">
        <ele>521.0</ele>
        <time>2018-10-03T10:37:37.000Z</time>
      </trkpt>
      <trkpt lat="42.48604333" lon="-7.99070667">
        <ele>521.0</ele>
        <time>2018-10-03T10:37:38.000Z</time>
      </trkpt>
      <trkpt lat="42.48605833" lon="-7.99071667">
        <ele>521.0</ele>
        <time>2018-10-03T10:37:39.000Z</time>
      </trkpt>
      <trkpt lat="42.48607333" lon="-7.99072333">
        <ele>521.0</ele>
        <time>2018-10-03T10:37:40.000Z</time>
      </trkpt>
      <trkpt lat="42.48609" lon="-7.99073167">
        <ele>521.0</ele>
        <time>2018-10-03T10:37:41.000Z</time>
      </trkpt>
      <trkpt lat="42.48610667" lon="-7.99073667">
        <ele>521.0</ele>
        <time>2018-10-03T10:37:42.000Z</time>
      </trkpt>
      <trkpt lat="42.486125" lon="-7.99074333">
        <ele>520.0</ele>
        <time>2018-10-03T10:37:43.000Z</time>
      </trkpt>
      <trkpt lat="42.48614167" lon="-7.99074667">
        <ele>520.0</ele>
        <time>2018-10-03T10:37:44.000Z</time>
      </trkpt>
      <trkpt lat="42.486155" lon="-7.99075167">
        <ele>520.0</ele>
        <time>2018-10-03T10:37:45.000Z</time>
      </trkpt>
      <trkpt lat="42.48616833" lon="-7.99075167">
        <ele>520.0</ele>
        <time>2018-10-03T10:37:46.000Z</time>
      </trkpt>
      <trkpt lat="42.48618333" lon="-7.99074667">
        <ele>520.0</ele>
        <time>2018-10-03T10:37:47.000Z</time>
      </trkpt>
      <trkpt lat="42.48619833" lon="-7.99074">
        <ele>520.0</ele>
        <time>2018-10-03T10:37:48.000Z</time>
      </trkpt>
      <trkpt lat="42.486215" lon="-7.99073">
        <ele>520.0</ele>
        <time>2018-10-03T10:37:49.000Z</time>
      </trkpt>
      <trkpt lat="42.48623333" lon="-7.99072167">
        <ele>520.0</ele>
        <time>2018-10-03T10:37:50.000Z</time>
      </trkpt>
      <trkpt lat="42.48624833" lon="-7.99072167">
        <ele>520.0</ele>
        <time>2018-10-03T10:37:51.000Z</time>
      </trkpt>
      <trkpt lat="42.48626333" lon="-7.99072167">
        <ele>520.0</ele>
        <time>2018-10-03T10:37:52.000Z</time>
      </trkpt>
      <trkpt lat="42.48628167" lon="-7.99071833">
        <ele>520.0</ele>
        <time>2018-10-03T10:37:53.000Z</time>
      </trkpt>
      <trkpt lat="42.4863" lon="-7.99071667">
        <ele>520.0</ele>
        <time>2018-10-03T10:37:54.000Z</time>
      </trkpt>
      <trkpt lat="42.486315" lon="-7.99071833">
        <ele>520.0</ele>
        <time>2018-10-03T10:37:55.000Z</time>
      </trkpt>
      <trkpt lat="42.48633167" lon="-7.99072167">
        <ele>520.0</ele>
        <time>2018-10-03T10:37:56.000Z</time>
      </trkpt>
      <trkpt lat="42.48634667" lon="-7.99072667">
        <ele>520.0</ele>
        <time>2018-10-03T10:37:57.000Z</time>
      </trkpt>
      <trkpt lat="42.48636167" lon="-7.99073167">
        <ele>520.0</ele>
        <time>2018-10-03T10:37:58.000Z</time>
      </trkpt>
      <trkpt lat="42.48637667" lon="-7.990735">
        <ele>520.0</ele>
        <time>2018-10-03T10:37:59.000Z</time>
      </trkpt>
      <trkpt lat="42.48638833" lon="-7.99074167">
        <ele>520.0</ele>
        <time>2018-10-03T10:38:00.000Z</time>
      </trkpt>
      <trkpt lat="42.48640333" lon="-7.990745">
        <ele>520.0</ele>
        <time>2018-10-03T10:38:01.000Z</time>
      </trkpt>
      <trkpt lat="42.48642" lon="-7.99075">
        <ele>520.0</ele>
        <time>2018-10-03T10:38:02.000Z</time>
      </trkpt>
      <trkpt lat="42.48643667" lon="-7.990755">
        <ele>520.0</ele>
        <time>2018-10-03T10:38:03.000Z</time>
      </trkpt>
      <trkpt lat="42.48645333" lon="-7.99076167">
        <ele>520.0</ele>
        <time>2018-10-03T10:38:04.000Z</time>
      </trkpt>
      <trkpt lat="42.48647" lon="-7.99076667">
        <ele>520.0</ele>
        <time>2018-10-03T10:38:05.000Z</time>
      </trkpt>
      <trkpt lat="42.48648667" lon="-7.99077167">
        <ele>520.0</ele>
        <time>2018-10-03T10:38:06.000Z</time>
      </trkpt>
      <trkpt lat="42.48650333" lon="-7.990775">
        <ele>520.0</ele>
        <time>2018-10-03T10:38:07.000Z</time>
      </trkpt>
      <trkpt lat="42.48652" lon="-7.99078">
        <ele>520.0</ele>
        <time>2018-10-03T10:38:08.000Z</time>
      </trkpt>
      <trkpt lat="42.486535" lon="-7.990785">
        <ele>520.0</ele>
        <time>2018-10-03T10:38:09.000Z</time>
      </trkpt>
      <trkpt lat="42.48655" lon="-7.99079167">
        <ele>520.0</ele>
        <time>2018-10-03T10:38:10.000Z</time>
      </trkpt>
      <trkpt lat="42.48656333" lon="-7.99079833">
        <ele>520.0</ele>
        <time>2018-10-03T10:38:11.000Z</time>
      </trkpt>
      <trkpt lat="42.48657833" lon="-7.990805">
        <ele>520.0</ele>
        <time>2018-10-03T10:38:12.000Z</time>
      </trkpt>
      <trkpt lat="42.48659333" lon="-7.99081333">
        <ele>520.0</ele>
        <time>2018-10-03T10:38:13.000Z</time>
      </trkpt>
      <trkpt lat="42.48660833" lon="-7.99082">
        <ele>520.0</ele>
        <time>2018-10-03T10:38:14.000Z</time>
      </trkpt>
      <trkpt lat="42.48662167" lon="-7.99082667">
        <ele>520.0</ele>
        <time>2018-10-03T10:38:15.000Z</time>
      </trkpt>
      <trkpt lat="42.486635" lon="-7.99083333">
        <ele>520.0</ele>
        <time>2018-10-03T10:38:16.000Z</time>
      </trkpt>
      <trkpt lat="42.48664667" lon="-7.99084">
        <ele>520.0</ele>
        <time>2018-10-03T10:38:17.000Z</time>
      </trkpt>
      <trkpt lat="42.48666333" lon="-7.99084667">
        <ele>520.0</ele>
        <time>2018-10-03T10:38:18.000Z</time>
      </trkpt>
      <trkpt lat="42.48667667" lon="-7.990855">
        <ele>520.0</ele>
        <time>2018-10-03T10:38:19.000Z</time>
      </trkpt>
      <trkpt lat="42.48669167" lon="-7.99086333">
        <ele>520.0</ele>
        <time>2018-10-03T10:38:20.000Z</time>
      </trkpt>
      <trkpt lat="42.48670833" lon="-7.99087">
        <ele>520.0</ele>
        <time>2018-10-03T10:38:21.000Z</time>
      </trkpt>
      <trkpt lat="42.486725" lon="-7.99087667">
        <ele>520.0</ele>
        <time>2018-10-03T10:38:22.000Z</time>
      </trkpt>
      <trkpt lat="42.48674" lon="-7.99088333">
        <ele>520.0</ele>
        <time>2018-10-03T10:38:23.000Z</time>
      </trkpt>
      <trkpt lat="42.486755" lon="-7.99088833">
        <ele>520.0</ele>
        <time>2018-10-03T10:38:24.000Z</time>
      </trkpt>
      <trkpt lat="42.48677" lon="-7.990895">
        <ele>520.0</ele>
        <time>2018-10-03T10:38:25.000Z</time>
      </trkpt>
      <trkpt lat="42.486785" lon="-7.99090167">
        <ele>520.0</ele>
        <time>2018-10-03T10:38:26.000Z</time>
      </trkpt>
      <trkpt lat="42.48679833" lon="-7.99090833">
        <ele>520.0</ele>
        <time>2018-10-03T10:38:27.000Z</time>
      </trkpt>
      <trkpt lat="42.48681333" lon="-7.990915">
        <ele>520.0</ele>
        <time>2018-10-03T10:38:28.000Z</time>
      </trkpt>
      <trkpt lat="42.48683" lon="-7.99092167">
        <ele>520.0</ele>
        <time>2018-10-03T10:38:29.000Z</time>
      </trkpt>
      <trkpt lat="42.486845" lon="-7.99093167">
        <ele>520.0</ele>
        <time>2018-10-03T10:38:30.000Z</time>
      </trkpt>
      <trkpt lat="42.48686167" lon="-7.99093833">
        <ele>520.0</ele>
        <time>2018-10-03T10:38:31.000Z</time>
      </trkpt>
      <trkpt lat="42.48687667" lon="-7.99094833">
        <ele>520.0</ele>
        <time>2018-10-03T10:38:32.000Z</time>
      </trkpt>
      <trkpt lat="42.48689333" lon="-7.99095333">
        <ele>520.0</ele>
        <time>2018-10-03T10:38:33.000Z</time>
      </trkpt>
      <trkpt lat="42.48690833" lon="-7.99096167">
        <ele>520.0</ele>
        <time>2018-10-03T10:38:34.000Z</time>
      </trkpt>
      <trkpt lat="42.48692167" lon="-7.99096833">
        <ele>520.0</ele>
        <time>2018-10-03T10:38:35.000Z</time>
      </trkpt>
      <trkpt lat="42.486935" lon="-7.990975">
        <ele>520.0</ele>
        <time>2018-10-03T10:38:36.000Z</time>
      </trkpt>
      <trkpt lat="42.48694833" lon="-7.99098333">
        <ele>520.0</ele>
        <time>2018-10-03T10:38:37.000Z</time>
      </trkpt>
      <trkpt lat="42.48696167" lon="-7.99099333">
        <ele>520.0</ele>
        <time>2018-10-03T10:38:38.000Z</time>
      </trkpt>
      <trkpt lat="42.48697667" lon="-7.99100167">
        <ele>520.0</ele>
        <time>2018-10-03T10:38:39.000Z</time>
      </trkpt>
      <trkpt lat="42.48699333" lon="-7.99101">
        <ele>519.0</ele>
        <time>2018-10-03T10:38:40.000Z</time>
      </trkpt>
      <trkpt lat="42.48700833" lon="-7.99101667">
        <ele>519.0</ele>
        <time>2018-10-03T10:38:41.000Z</time>
      </trkpt>
      <trkpt lat="42.48702333" lon="-7.99102333">
        <ele>519.0</ele>
        <time>2018-10-03T10:38:42.000Z</time>
      </trkpt>
      <trkpt lat="42.48703833" lon="-7.99103">
        <ele>519.0</ele>
        <time>2018-10-03T10:38:43.000Z</time>
      </trkpt>
      <trkpt lat="42.487055" lon="-7.99103667">
        <ele>519.0</ele>
        <time>2018-10-03T10:38:44.000Z</time>
      </trkpt>
      <trkpt lat="42.48706833" lon="-7.99104333">
        <ele>519.0</ele>
        <time>2018-10-03T10:38:45.000Z</time>
      </trkpt>
      <trkpt lat="42.48708333" lon="-7.99104833">
        <ele>519.0</ele>
        <time>2018-10-03T10:38:46.000Z</time>
      </trkpt>
      <trkpt lat="42.48709833" lon="-7.991055">
        <ele>519.0</ele>
        <time>2018-10-03T10:38:47.000Z</time>
      </trkpt>
      <trkpt lat="42.487115" lon="-7.99106167">
        <ele>519.0</ele>
        <time>2018-10-03T10:38:48.000Z</time>
      </trkpt>
      <trkpt lat="42.48713167" lon="-7.99106667">
        <ele>519.0</ele>
        <time>2018-10-03T10:38:49.000Z</time>
      </trkpt>
      <trkpt lat="42.48714667" lon="-7.99107333">
        <ele>518.0</ele>
        <time>2018-10-03T10:38:50.000Z</time>
      </trkpt>
      <trkpt lat="42.48716333" lon="-7.99107833">
        <ele>518.0</ele>
        <time>2018-10-03T10:38:51.000Z</time>
      </trkpt>
      <trkpt lat="42.48717833" lon="-7.99108333">
        <ele>518.0</ele>
        <time>2018-10-03T10:38:52.000Z</time>
      </trkpt>
      <trkpt lat="42.48719167" lon="-7.99109">
        <ele>518.0</ele>
        <time>2018-10-03T10:38:53.000Z</time>
      </trkpt>
      <trkpt lat="42.48720833" lon="-7.99109833">
        <ele>518.0</ele>
        <time>2018-10-03T10:38:54.000Z</time>
      </trkpt>
      <trkpt lat="42.48722333" lon="-7.991105">
        <ele>518.0</ele>
        <time>2018-10-03T10:38:55.000Z</time>
      </trkpt>
      <trkpt lat="42.48723833" lon="-7.99111333">
        <ele>518.0</ele>
        <time>2018-10-03T10:38:56.000Z</time>
      </trkpt>
      <trkpt lat="42.48725333" lon="-7.99112167">
        <ele>518.0</ele>
        <time>2018-10-03T10:38:57.000Z</time>
      </trkpt>
      <trkpt lat="42.48726667" lon="-7.99113">
        <ele>518.0</ele>
        <time>2018-10-03T10:38:58.000Z</time>
      </trkpt>
      <trkpt lat="42.48728167" lon="-7.99113833">
        <ele>518.0</ele>
        <time>2018-10-03T10:38:59.000Z</time>
      </trkpt>
      <trkpt lat="42.487295" lon="-7.99115">
        <ele>518.0</ele>
        <time>2018-10-03T10:39:00.000Z</time>
      </trkpt>
      <trkpt lat="42.48730833" lon="-7.99116167">
        <ele>518.0</ele>
        <time>2018-10-03T10:39:01.000Z</time>
      </trkpt>
      <trkpt lat="42.48732333" lon="-7.99117167">
        <ele>518.0</ele>
        <time>2018-10-03T10:39:02.000Z</time>
      </trkpt>
      <trkpt lat="42.487335" lon="-7.99118167">
        <ele>518.0</ele>
        <time>2018-10-03T10:39:03.000Z</time>
      </trkpt>
      <trkpt lat="42.48734667" lon="-7.99119333">
        <ele>518.0</ele>
        <time>2018-10-03T10:39:04.000Z</time>
      </trkpt>
      <trkpt lat="42.48736" lon="-7.99120333">
        <ele>518.0</ele>
        <time>2018-10-03T10:39:05.000Z</time>
      </trkpt>
      <trkpt lat="42.48737167" lon="-7.99121667">
        <ele>518.0</ele>
        <time>2018-10-03T10:39:06.000Z</time>
      </trkpt>
      <trkpt lat="42.48738833" lon="-7.99122667">
        <ele>518.0</ele>
        <time>2018-10-03T10:39:07.000Z</time>
      </trkpt>
      <trkpt lat="42.4874" lon="-7.99123667">
        <ele>519.0</ele>
        <time>2018-10-03T10:39:08.000Z</time>
      </trkpt>
      <trkpt lat="42.48741333" lon="-7.99124833">
        <ele>519.0</ele>
        <time>2018-10-03T10:39:09.000Z</time>
      </trkpt>
      <trkpt lat="42.48742333" lon="-7.99126">
        <ele>519.0</ele>
        <time>2018-10-03T10:39:10.000Z</time>
      </trkpt>
      <trkpt lat="42.48743" lon="-7.99127833">
        <ele>519.0</ele>
        <time>2018-10-03T10:39:11.000Z</time>
      </trkpt>
      <trkpt lat="42.48743833" lon="-7.99129667">
        <ele>519.0</ele>
        <time>2018-10-03T10:39:12.000Z</time>
      </trkpt>
      <trkpt lat="42.487445" lon="-7.991315">
        <ele>519.0</ele>
        <time>2018-10-03T10:39:13.000Z</time>
      </trkpt>
      <trkpt lat="42.48745" lon="-7.99133333">
        <ele>519.0</ele>
        <time>2018-10-03T10:39:14.000Z</time>
      </trkpt>
      <trkpt lat="42.487455" lon="-7.99135333">
        <ele>519.0</ele>
        <time>2018-10-03T10:39:15.000Z</time>
      </trkpt>
      <trkpt lat="42.487465" lon="-7.99137167">
        <ele>519.0</ele>
        <time>2018-10-03T10:39:16.000Z</time>
      </trkpt>
      <trkpt lat="42.487475" lon="-7.99139">
        <ele>519.0</ele>
        <time>2018-10-03T10:39:17.000Z</time>
      </trkpt>
      <trkpt lat="42.48748333" lon="-7.991405">
        <ele>519.0</ele>
        <time>2018-10-03T10:39:18.000Z</time>
      </trkpt>
      <trkpt lat="42.48749333" lon="-7.99141667">
        <ele>519.0</ele>
        <time>2018-10-03T10:39:19.000Z</time>
      </trkpt>
      <trkpt lat="42.48750667" lon="-7.99143">
        <ele>520.0</ele>
        <time>2018-10-03T10:39:20.000Z</time>
      </trkpt>
      <trkpt lat="42.48752" lon="-7.99144333">
        <ele>520.0</ele>
        <time>2018-10-03T10:39:21.000Z</time>
      </trkpt>
      <trkpt lat="42.48753667" lon="-7.99145833">
        <ele>520.0</ele>
        <time>2018-10-03T10:39:22.000Z</time>
      </trkpt>
      <trkpt lat="42.48755" lon="-7.99147167">
        <ele>520.0</ele>
        <time>2018-10-03T10:39:23.000Z</time>
      </trkpt>
      <trkpt lat="42.48756167" lon="-7.99148667">
        <ele>520.0</ele>
        <time>2018-10-03T10:39:24.000Z</time>
      </trkpt>
      <trkpt lat="42.48757" lon="-7.99150167">
        <ele>520.0</ele>
        <time>2018-10-03T10:39:25.000Z</time>
      </trkpt>
      <trkpt lat="42.48758167" lon="-7.99151667">
        <ele>520.0</ele>
        <time>2018-10-03T10:39:26.000Z</time>
      </trkpt>
      <trkpt lat="42.48759333" lon="-7.99153167">
        <ele>520.0</ele>
        <time>2018-10-03T10:39:27.000Z</time>
      </trkpt>
      <trkpt lat="42.48760833" lon="-7.99154833">
        <ele>520.0</ele>
        <time>2018-10-03T10:39:28.000Z</time>
      </trkpt>
      <trkpt lat="42.48762167" lon="-7.99156167">
        <ele>520.0</ele>
        <time>2018-10-03T10:39:29.000Z</time>
      </trkpt>
      <trkpt lat="42.487635" lon="-7.991575">
        <ele>521.0</ele>
        <time>2018-10-03T10:39:30.000Z</time>
      </trkpt>
      <trkpt lat="42.48765" lon="-7.991585">
        <ele>521.0</ele>
        <time>2018-10-03T10:39:31.000Z</time>
      </trkpt>
      <trkpt lat="42.48766167" lon="-7.99159667">
        <ele>521.0</ele>
        <time>2018-10-03T10:39:32.000Z</time>
      </trkpt>
      <trkpt lat="42.487675" lon="-7.99161">
        <ele>521.0</ele>
        <time>2018-10-03T10:39:33.000Z</time>
      </trkpt>
      <trkpt lat="42.48768667" lon="-7.99162333">
        <ele>521.0</ele>
        <time>2018-10-03T10:39:34.000Z</time>
      </trkpt>
      <trkpt lat="42.48770167" lon="-7.99163667">
        <ele>521.0</ele>
        <time>2018-10-03T10:39:35.000Z</time>
      </trkpt>
      <trkpt lat="42.48771333" lon="-7.99165167">
        <ele>522.0</ele>
        <time>2018-10-03T10:39:36.000Z</time>
      </trkpt>
      <trkpt lat="42.48772667" lon="-7.991665">
        <ele>522.0</ele>
        <time>2018-10-03T10:39:37.000Z</time>
      </trkpt>
      <trkpt lat="42.48773833" lon="-7.99167667">
        <ele>522.0</ele>
        <time>2018-10-03T10:39:38.000Z</time>
      </trkpt>
      <trkpt lat="42.48775167" lon="-7.99169">
        <ele>522.0</ele>
        <time>2018-10-03T10:39:39.000Z</time>
      </trkpt>
      <trkpt lat="42.48776333" lon="-7.99170167">
        <ele>522.0</ele>
        <time>2018-10-03T10:39:40.000Z</time>
      </trkpt>
      <trkpt lat="42.487775" lon="-7.991715">
        <ele>522.0</ele>
        <time>2018-10-03T10:39:41.000Z</time>
      </trkpt>
      <trkpt lat="42.48778667" lon="-7.99172833">
        <ele>522.0</ele>
        <time>2018-10-03T10:39:42.000Z</time>
      </trkpt>
      <trkpt lat="42.48779667" lon="-7.99174167">
        <ele>522.0</ele>
        <time>2018-10-03T10:39:43.000Z</time>
      </trkpt>
      <trkpt lat="42.48780667" lon="-7.991755">
        <ele>522.0</ele>
        <time>2018-10-03T10:39:44.000Z</time>
      </trkpt>
      <trkpt lat="42.48781667" lon="-7.99176833">
        <ele>523.0</ele>
        <time>2018-10-03T10:39:45.000Z</time>
      </trkpt>
      <trkpt lat="42.48782667" lon="-7.99178167">
        <ele>523.0</ele>
        <time>2018-10-03T10:39:46.000Z</time>
      </trkpt>
      <trkpt lat="42.487835" lon="-7.991795">
        <ele>523.0</ele>
        <time>2018-10-03T10:39:47.000Z</time>
      </trkpt>
      <trkpt lat="42.487845" lon="-7.99180833">
        <ele>523.0</ele>
        <time>2018-10-03T10:39:48.000Z</time>
      </trkpt>
      <trkpt lat="42.487855" lon="-7.99182333">
        <ele>523.0</ele>
        <time>2018-10-03T10:39:49.000Z</time>
      </trkpt>
      <trkpt lat="42.487865" lon="-7.99184">
        <ele>523.0</ele>
        <time>2018-10-03T10:39:50.000Z</time>
      </trkpt>
      <trkpt lat="42.487875" lon="-7.99185333">
        <ele>523.0</ele>
        <time>2018-10-03T10:39:51.000Z</time>
      </trkpt>
      <trkpt lat="42.48788667" lon="-7.99186833">
        <ele>523.0</ele>
        <time>2018-10-03T10:39:52.000Z</time>
      </trkpt>
      <trkpt lat="42.48789833" lon="-7.99188167">
        <ele>523.0</ele>
        <time>2018-10-03T10:39:53.000Z</time>
      </trkpt>
      <trkpt lat="42.48790667" lon="-7.99189667">
        <ele>523.0</ele>
        <time>2018-10-03T10:39:54.000Z</time>
      </trkpt>
      <trkpt lat="42.48791667" lon="-7.99191167">
        <ele>523.0</ele>
        <time>2018-10-03T10:39:55.000Z</time>
      </trkpt>
      <trkpt lat="42.487925" lon="-7.99192667">
        <ele>523.0</ele>
        <time>2018-10-03T10:39:56.000Z</time>
      </trkpt>
      <trkpt lat="42.48793333" lon="-7.99194">
        <ele>523.0</ele>
        <time>2018-10-03T10:39:57.000Z</time>
      </trkpt>
      <trkpt lat="42.487945" lon="-7.99195333">
        <ele>523.0</ele>
        <time>2018-10-03T10:39:58.000Z</time>
      </trkpt>
      <trkpt lat="42.48795333" lon="-7.99196833">
        <ele>524.0</ele>
        <time>2018-10-03T10:39:59.000Z</time>
      </trkpt>
      <trkpt lat="42.48796167" lon="-7.99198333">
        <ele>524.0</ele>
        <time>2018-10-03T10:40:00.000Z</time>
      </trkpt>
      <trkpt lat="42.48797" lon="-7.992">
        <ele>524.0</ele>
        <time>2018-10-03T10:40:01.000Z</time>
      </trkpt>
      <trkpt lat="42.48798" lon="-7.992015">
        <ele>524.0</ele>
        <time>2018-10-03T10:40:02.000Z</time>
      </trkpt>
      <trkpt lat="42.48798833" lon="-7.99203167">
        <ele>524.0</ele>
        <time>2018-10-03T10:40:03.000Z</time>
      </trkpt>
      <trkpt lat="42.48799667" lon="-7.99204833">
        <ele>524.0</ele>
        <time>2018-10-03T10:40:04.000Z</time>
      </trkpt>
      <trkpt lat="42.488005" lon="-7.992065">
        <ele>524.0</ele>
        <time>2018-10-03T10:40:05.000Z</time>
      </trkpt>
      <trkpt lat="42.48801333" lon="-7.99208167">
        <ele>524.0</ele>
        <time>2018-10-03T10:40:06.000Z</time>
      </trkpt>
      <trkpt lat="42.48801833" lon="-7.99209833">
        <ele>524.0</ele>
        <time>2018-10-03T10:40:07.000Z</time>
      </trkpt>
      <trkpt lat="42.48802333" lon="-7.992115">
        <ele>524.0</ele>
        <time>2018-10-03T10:40:08.000Z</time>
      </trkpt>
      <trkpt lat="42.48803" lon="-7.99213333">
        <ele>524.0</ele>
        <time>2018-10-03T10:40:09.000Z</time>
      </trkpt>
      <trkpt lat="42.48804" lon="-7.99215333">
        <ele>525.0</ele>
        <time>2018-10-03T10:40:10.000Z</time>
      </trkpt>
      <trkpt lat="42.48804833" lon="-7.99217">
        <ele>525.0</ele>
        <time>2018-10-03T10:40:11.000Z</time>
      </trkpt>
      <trkpt lat="42.48805833" lon="-7.99218833">
        <ele>525.0</ele>
        <time>2018-10-03T10:40:12.000Z</time>
      </trkpt>
      <trkpt lat="42.48806833" lon="-7.992205">
        <ele>525.0</ele>
        <time>2018-10-03T10:40:13.000Z</time>
      </trkpt>
      <trkpt lat="42.48807667" lon="-7.99222167">
        <ele>525.0</ele>
        <time>2018-10-03T10:40:14.000Z</time>
      </trkpt>
      <trkpt lat="42.48808667" lon="-7.99223667">
        <ele>525.0</ele>
        <time>2018-10-03T10:40:15.000Z</time>
      </trkpt>
      <trkpt lat="42.48809667" lon="-7.992255">
        <ele>525.0</ele>
        <time>2018-10-03T10:40:16.000Z</time>
      </trkpt>
      <trkpt lat="42.48810667" lon="-7.99227333">
        <ele>526.0</ele>
        <time>2018-10-03T10:40:17.000Z</time>
      </trkpt>
      <trkpt lat="42.488115" lon="-7.99229">
        <ele>525.0</ele>
        <time>2018-10-03T10:40:18.000Z</time>
      </trkpt>
      <trkpt lat="42.48812333" lon="-7.992305">
        <ele>525.0</ele>
        <time>2018-10-03T10:40:19.000Z</time>
      </trkpt>
      <trkpt lat="42.488135" lon="-7.99232">
        <ele>525.0</ele>
        <time>2018-10-03T10:40:20.000Z</time>
      </trkpt>
      <trkpt lat="42.48814333" lon="-7.99233">
        <ele>526.0</ele>
        <time>2018-10-03T10:40:21.000Z</time>
      </trkpt>
      <trkpt lat="42.48814833" lon="-7.99234">
        <ele>526.0</ele>
        <time>2018-10-03T10:40:22.000Z</time>
      </trkpt>
      <trkpt lat="42.48815667" lon="-7.99235167">
        <ele>526.0</ele>
        <time>2018-10-03T10:40:23.000Z</time>
      </trkpt>
      <trkpt lat="42.488165" lon="-7.99236333">
        <ele>526.0</ele>
        <time>2018-10-03T10:40:24.000Z</time>
      </trkpt>
      <trkpt lat="42.48817333" lon="-7.99237667">
        <ele>526.0</ele>
        <time>2018-10-03T10:40:25.000Z</time>
      </trkpt>
      <trkpt lat="42.48818" lon="-7.99239">
        <ele>526.0</ele>
        <time>2018-10-03T10:40:26.000Z</time>
      </trkpt>
      <trkpt lat="42.48818833" lon="-7.99240333">
        <ele>526.0</ele>
        <time>2018-10-03T10:40:27.000Z</time>
      </trkpt>
      <trkpt lat="42.488195" lon="-7.99241667">
        <ele>526.0</ele>
        <time>2018-10-03T10:40:28.000Z</time>
      </trkpt>
      <trkpt lat="42.48820167" lon="-7.99243333">
        <ele>526.0</ele>
        <time>2018-10-03T10:40:29.000Z</time>
      </trkpt>
      <trkpt lat="42.48820667" lon="-7.99244833">
        <ele>527.0</ele>
        <time>2018-10-03T10:40:30.000Z</time>
      </trkpt>
      <trkpt lat="42.48821167" lon="-7.99246333">
        <ele>527.0</ele>
        <time>2018-10-03T10:40:31.000Z</time>
      </trkpt>
      <trkpt lat="42.48822" lon="-7.99248167">
        <ele>527.0</ele>
        <time>2018-10-03T10:40:32.000Z</time>
      </trkpt>
      <trkpt lat="42.48823167" lon="-7.99249833">
        <ele>527.0</ele>
        <time>2018-10-03T10:40:33.000Z</time>
      </trkpt>
      <trkpt lat="42.48823833" lon="-7.99251333">
        <ele>527.0</ele>
        <time>2018-10-03T10:40:34.000Z</time>
      </trkpt>
      <trkpt lat="42.488245" lon="-7.99253">
        <ele>527.0</ele>
        <time>2018-10-03T10:40:35.000Z</time>
      </trkpt>
      <trkpt lat="42.488255" lon="-7.99254833">
        <ele>527.0</ele>
        <time>2018-10-03T10:40:36.000Z</time>
      </trkpt>
      <trkpt lat="42.488265" lon="-7.992565">
        <ele>527.0</ele>
        <time>2018-10-03T10:40:37.000Z</time>
      </trkpt>
      <trkpt lat="42.48827667" lon="-7.99258">
        <ele>528.0</ele>
        <time>2018-10-03T10:40:38.000Z</time>
      </trkpt>
      <trkpt lat="42.48828833" lon="-7.992595">
        <ele>528.0</ele>
        <time>2018-10-03T10:40:39.000Z</time>
      </trkpt>
      <trkpt lat="42.4883" lon="-7.99261">
        <ele>528.0</ele>
        <time>2018-10-03T10:40:40.000Z</time>
      </trkpt>
      <trkpt lat="42.48831167" lon="-7.992625">
        <ele>528.0</ele>
        <time>2018-10-03T10:40:41.000Z</time>
      </trkpt>
      <trkpt lat="42.48832167" lon="-7.99263833">
        <ele>528.0</ele>
        <time>2018-10-03T10:40:42.000Z</time>
      </trkpt>
      <trkpt lat="42.48833167" lon="-7.99265167">
        <ele>528.0</ele>
        <time>2018-10-03T10:40:43.000Z</time>
      </trkpt>
      <trkpt lat="42.48834333" lon="-7.99266667">
        <ele>528.0</ele>
        <time>2018-10-03T10:40:44.000Z</time>
      </trkpt>
      <trkpt lat="42.48835667" lon="-7.99267833">
        <ele>528.0</ele>
        <time>2018-10-03T10:40:45.000Z</time>
      </trkpt>
      <trkpt lat="42.48836667" lon="-7.99269167">
        <ele>528.0</ele>
        <time>2018-10-03T10:40:46.000Z</time>
      </trkpt>
      <trkpt lat="42.48838" lon="-7.99270167">
        <ele>528.0</ele>
        <time>2018-10-03T10:40:47.000Z</time>
      </trkpt>
      <trkpt lat="42.48839167" lon="-7.99271167">
        <ele>529.0</ele>
        <time>2018-10-03T10:40:48.000Z</time>
      </trkpt>
      <trkpt lat="42.48840333" lon="-7.99271833">
        <ele>529.0</ele>
        <time>2018-10-03T10:40:49.000Z</time>
      </trkpt>
      <trkpt lat="42.48841333" lon="-7.99272">
        <ele>529.0</ele>
        <time>2018-10-03T10:40:50.000Z</time>
      </trkpt>
      <trkpt lat="42.48842167" lon="-7.99272167">
        <ele>529.0</ele>
        <time>2018-10-03T10:40:51.000Z</time>
      </trkpt>
      <trkpt lat="42.488435" lon="-7.99271667">
        <ele>529.0</ele>
        <time>2018-10-03T10:40:52.000Z</time>
      </trkpt>
      <trkpt lat="42.48845" lon="-7.99271167">
        <ele>529.0</ele>
        <time>2018-10-03T10:40:53.000Z</time>
      </trkpt>
      <trkpt lat="42.488465" lon="-7.99270667">
        <ele>529.0</ele>
        <time>2018-10-03T10:40:54.000Z</time>
      </trkpt>
      <trkpt lat="42.48848" lon="-7.99270333">
        <ele>530.0</ele>
        <time>2018-10-03T10:40:55.000Z</time>
      </trkpt>
      <trkpt lat="42.48849333" lon="-7.99270167">
        <ele>530.0</ele>
        <time>2018-10-03T10:40:56.000Z</time>
      </trkpt>
      <trkpt lat="42.488505" lon="-7.99270167">
        <ele>530.0</ele>
        <time>2018-10-03T10:40:57.000Z</time>
      </trkpt>
      <trkpt lat="42.48851333" lon="-7.9927">
        <ele>530.0</ele>
        <time>2018-10-03T10:40:58.000Z</time>
      </trkpt>
      <trkpt lat="42.48851833" lon="-7.9927">
        <ele>531.0</ele>
        <time>2018-10-03T10:40:59.000Z</time>
      </trkpt>
      <trkpt lat="42.48852333" lon="-7.9927">
        <ele>531.0</ele>
        <time>2018-10-03T10:41:00.000Z</time>
      </trkpt>
      <trkpt lat="42.48852833" lon="-7.99270167">
        <ele>531.0</ele>
        <time>2018-10-03T10:41:01.000Z</time>
      </trkpt>
      <trkpt lat="42.48853167" lon="-7.99270167">
        <ele>531.0</ele>
        <time>2018-10-03T10:41:02.000Z</time>
      </trkpt>
      <trkpt lat="42.48853" lon="-7.9927">
        <ele>532.0</ele>
        <time>2018-10-03T10:41:03.000Z</time>
      </trkpt>
      <trkpt lat="42.48853" lon="-7.992705">
        <ele>532.0</ele>
        <time>2018-10-03T10:41:04.000Z</time>
      </trkpt>
      <trkpt lat="42.48852833" lon="-7.99271">
        <ele>532.0</ele>
        <time>2018-10-03T10:41:05.000Z</time>
      </trkpt>
      <trkpt lat="42.48852833" lon="-7.99271333">
        <ele>532.0</ele>
        <time>2018-10-03T10:41:06.000Z</time>
      </trkpt>
      <trkpt lat="42.48853" lon="-7.99271667">
        <ele>533.0</ele>
        <time>2018-10-03T10:41:07.000Z</time>
      </trkpt>
      <trkpt lat="42.48853167" lon="-7.99272">
        <ele>533.0</ele>
        <time>2018-10-03T10:41:08.000Z</time>
      </trkpt>
      <trkpt lat="42.48853167" lon="-7.99272167">
        <ele>534.0</ele>
        <time>2018-10-03T10:41:09.000Z</time>
      </trkpt>
      <trkpt lat="42.48853167" lon="-7.99272667">
        <ele>534.0</ele>
        <time>2018-10-03T10:41:10.000Z</time>
      </trkpt>
      <trkpt lat="42.48853167" lon="-7.99272833">
        <ele>534.0</ele>
        <time>2018-10-03T10:41:11.000Z</time>
      </trkpt>
      <trkpt lat="42.48853" lon="-7.99273167">
        <ele>534.0</ele>
        <time>2018-10-03T10:41:12.000Z</time>
      </trkpt>
      <trkpt lat="42.48852833" lon="-7.992735">
        <ele>535.0</ele>
        <time>2018-10-03T10:41:13.000Z</time>
      </trkpt>
      <trkpt lat="42.48852833" lon="-7.99273833">
        <ele>535.0</ele>
        <time>2018-10-03T10:41:14.000Z</time>
      </trkpt>
      <trkpt lat="42.48852667" lon="-7.99274">
        <ele>535.0</ele>
        <time>2018-10-03T10:41:15.000Z</time>
      </trkpt>
      <trkpt lat="42.48852667" lon="-7.99274167">
        <ele>535.0</ele>
        <time>2018-10-03T10:41:16.000Z</time>
      </trkpt>
      <trkpt lat="42.48852667" lon="-7.99274333">
        <ele>535.0</ele>
        <time>2018-10-03T10:41:17.000Z</time>
      </trkpt>
      <trkpt lat="42.488525" lon="-7.99274333">
        <ele>535.0</ele>
        <time>2018-10-03T10:41:18.000Z</time>
      </trkpt>
      <trkpt lat="42.48852167" lon="-7.992745">
        <ele>536.0</ele>
        <time>2018-10-03T10:41:19.000Z</time>
      </trkpt>
      <trkpt lat="42.48852" lon="-7.99274667">
        <ele>536.0</ele>
        <time>2018-10-03T10:41:20.000Z</time>
      </trkpt>
      <trkpt lat="42.48852" lon="-7.99274833">
        <ele>536.0</ele>
        <time>2018-10-03T10:41:21.000Z</time>
      </trkpt>
      <trkpt lat="42.48851667" lon="-7.992745">
        <ele>536.0</ele>
        <time>2018-10-03T10:41:22.000Z</time>
      </trkpt>
      <trkpt lat="42.48851833" lon="-7.992745">
        <ele>536.0</ele>
        <time>2018-10-03T10:41:23.000Z</time>
      </trkpt>
      <trkpt lat="42.48852667" lon="-7.99275">
        <ele>536.0</ele>
        <time>2018-10-03T10:41:24.000Z</time>
      </trkpt>
      <trkpt lat="42.488535" lon="-7.99275833">
        <ele>537.0</ele>
        <time>2018-10-03T10:41:25.000Z</time>
      </trkpt>
      <trkpt lat="42.488545" lon="-7.99276833">
        <ele>537.0</ele>
        <time>2018-10-03T10:41:26.000Z</time>
      </trkpt>
      <trkpt lat="42.488555" lon="-7.99278">
        <ele>537.0</ele>
        <time>2018-10-03T10:41:27.000Z</time>
      </trkpt>
      <trkpt lat="42.48856667" lon="-7.99279167">
        <ele>537.0</ele>
        <time>2018-10-03T10:41:28.000Z</time>
      </trkpt>
      <trkpt lat="42.48857833" lon="-7.99280333">
        <ele>537.0</ele>
        <time>2018-10-03T10:41:29.000Z</time>
      </trkpt>
      <trkpt lat="42.48858833" lon="-7.99281667">
        <ele>537.0</ele>
        <time>2018-10-03T10:41:30.000Z</time>
      </trkpt>
      <trkpt lat="42.48860333" lon="-7.99282833">
        <ele>538.0</ele>
        <time>2018-10-03T10:41:31.000Z</time>
      </trkpt>
      <trkpt lat="42.488615" lon="-7.99284">
        <ele>538.0</ele>
        <time>2018-10-03T10:41:32.000Z</time>
      </trkpt>
      <trkpt lat="42.48862833" lon="-7.99285333">
        <ele>538.0</ele>
        <time>2018-10-03T10:41:33.000Z</time>
      </trkpt>
      <trkpt lat="42.48864" lon="-7.992865">
        <ele>538.0</ele>
        <time>2018-10-03T10:41:34.000Z</time>
      </trkpt>
      <trkpt lat="42.488655" lon="-7.99287667">
        <ele>538.0</ele>
        <time>2018-10-03T10:41:35.000Z</time>
      </trkpt>
      <trkpt lat="42.48866833" lon="-7.99288833">
        <ele>539.0</ele>
        <time>2018-10-03T10:41:36.000Z</time>
      </trkpt>
      <trkpt lat="42.48868" lon="-7.99289833">
        <ele>539.0</ele>
        <time>2018-10-03T10:41:37.000Z</time>
      </trkpt>
      <trkpt lat="42.48869333" lon="-7.99291">
        <ele>539.0</ele>
        <time>2018-10-03T10:41:38.000Z</time>
      </trkpt>
      <trkpt lat="42.488705" lon="-7.99291833">
        <ele>539.0</ele>
        <time>2018-10-03T10:41:39.000Z</time>
      </trkpt>
      <trkpt lat="42.48871667" lon="-7.99293">
        <ele>539.0</ele>
        <time>2018-10-03T10:41:40.000Z</time>
      </trkpt>
      <trkpt lat="42.48872833" lon="-7.99294">
        <ele>539.0</ele>
        <time>2018-10-03T10:41:41.000Z</time>
      </trkpt>
      <trkpt lat="42.48874167" lon="-7.99295167">
        <ele>539.0</ele>
        <time>2018-10-03T10:41:42.000Z</time>
      </trkpt>
      <trkpt lat="42.48875333" lon="-7.992965">
        <ele>539.0</ele>
        <time>2018-10-03T10:41:43.000Z</time>
      </trkpt>
      <trkpt lat="42.488765" lon="-7.99297667">
        <ele>539.0</ele>
        <time>2018-10-03T10:41:44.000Z</time>
      </trkpt>
      <trkpt lat="42.48877667" lon="-7.99299">
        <ele>539.0</ele>
        <time>2018-10-03T10:41:45.000Z</time>
      </trkpt>
      <trkpt lat="42.48878833" lon="-7.993">
        <ele>539.0</ele>
        <time>2018-10-03T10:41:46.000Z</time>
      </trkpt>
      <trkpt lat="42.4888" lon="-7.99301">
        <ele>539.0</ele>
        <time>2018-10-03T10:41:47.000Z</time>
      </trkpt>
      <trkpt lat="42.48881" lon="-7.99302">
        <ele>539.0</ele>
        <time>2018-10-03T10:41:48.000Z</time>
      </trkpt>
      <trkpt lat="42.48882167" lon="-7.99303">
        <ele>539.0</ele>
        <time>2018-10-03T10:41:49.000Z</time>
      </trkpt>
      <trkpt lat="42.48883333" lon="-7.99304">
        <ele>539.0</ele>
        <time>2018-10-03T10:41:50.000Z</time>
      </trkpt>
      <trkpt lat="42.48884333" lon="-7.99305">
        <ele>539.0</ele>
        <time>2018-10-03T10:41:51.000Z</time>
      </trkpt>
      <trkpt lat="42.488855" lon="-7.99306167">
        <ele>539.0</ele>
        <time>2018-10-03T10:41:52.000Z</time>
      </trkpt>
      <trkpt lat="42.48886833" lon="-7.99307167">
        <ele>539.0</ele>
        <time>2018-10-03T10:41:53.000Z</time>
      </trkpt>
      <trkpt lat="42.48888333" lon="-7.99308333">
        <ele>539.0</ele>
        <time>2018-10-03T10:41:54.000Z</time>
      </trkpt>
      <trkpt lat="42.48889667" lon="-7.99309667">
        <ele>539.0</ele>
        <time>2018-10-03T10:41:55.000Z</time>
      </trkpt>
      <trkpt lat="42.48891" lon="-7.99310833">
        <ele>539.0</ele>
        <time>2018-10-03T10:41:56.000Z</time>
      </trkpt>
      <trkpt lat="42.48892167" lon="-7.99311833">
        <ele>539.0</ele>
        <time>2018-10-03T10:41:57.000Z</time>
      </trkpt>
      <trkpt lat="42.48893333" lon="-7.99313167">
        <ele>539.0</ele>
        <time>2018-10-03T10:41:58.000Z</time>
      </trkpt>
      <trkpt lat="42.48894333" lon="-7.99314333">
        <ele>539.0</ele>
        <time>2018-10-03T10:41:59.000Z</time>
      </trkpt>
      <trkpt lat="42.488955" lon="-7.993155">
        <ele>539.0</ele>
        <time>2018-10-03T10:42:00.000Z</time>
      </trkpt>
      <trkpt lat="42.488965" lon="-7.99316833">
        <ele>539.0</ele>
        <time>2018-10-03T10:42:01.000Z</time>
      </trkpt>
      <trkpt lat="42.488975" lon="-7.99318167">
        <ele>539.0</ele>
        <time>2018-10-03T10:42:02.000Z</time>
      </trkpt>
      <trkpt lat="42.488985" lon="-7.993195">
        <ele>539.0</ele>
        <time>2018-10-03T10:42:03.000Z</time>
      </trkpt>
      <trkpt lat="42.48899667" lon="-7.99320833">
        <ele>539.0</ele>
        <time>2018-10-03T10:42:04.000Z</time>
      </trkpt>
      <trkpt lat="42.48900667" lon="-7.99322167">
        <ele>539.0</ele>
        <time>2018-10-03T10:42:05.000Z</time>
      </trkpt>
      <trkpt lat="42.489015" lon="-7.99323667">
        <ele>539.0</ele>
        <time>2018-10-03T10:42:06.000Z</time>
      </trkpt>
      <trkpt lat="42.48902667" lon="-7.99325167">
        <ele>539.0</ele>
        <time>2018-10-03T10:42:07.000Z</time>
      </trkpt>
      <trkpt lat="42.48903667" lon="-7.99326833">
        <ele>539.0</ele>
        <time>2018-10-03T10:42:08.000Z</time>
      </trkpt>
      <trkpt lat="42.489045" lon="-7.993285">
        <ele>539.0</ele>
        <time>2018-10-03T10:42:09.000Z</time>
      </trkpt>
      <trkpt lat="42.489055" lon="-7.99330167">
        <ele>539.0</ele>
        <time>2018-10-03T10:42:10.000Z</time>
      </trkpt>
      <trkpt lat="42.48906167" lon="-7.99331833">
        <ele>539.0</ele>
        <time>2018-10-03T10:42:11.000Z</time>
      </trkpt>
      <trkpt lat="42.48907" lon="-7.993335">
        <ele>539.0</ele>
        <time>2018-10-03T10:42:12.000Z</time>
      </trkpt>
      <trkpt lat="42.48907667" lon="-7.99335">
        <ele>539.0</ele>
        <time>2018-10-03T10:42:13.000Z</time>
      </trkpt>
      <trkpt lat="42.48908667" lon="-7.99336667">
        <ele>539.0</ele>
        <time>2018-10-03T10:42:14.000Z</time>
      </trkpt>
      <trkpt lat="42.489095" lon="-7.99338333">
        <ele>539.0</ele>
        <time>2018-10-03T10:42:15.000Z</time>
      </trkpt>
      <trkpt lat="42.489105" lon="-7.9934">
        <ele>539.0</ele>
        <time>2018-10-03T10:42:16.000Z</time>
      </trkpt>
      <trkpt lat="42.48911333" lon="-7.99341667">
        <ele>540.0</ele>
        <time>2018-10-03T10:42:17.000Z</time>
      </trkpt>
      <trkpt lat="42.48912167" lon="-7.99343333">
        <ele>540.0</ele>
        <time>2018-10-03T10:42:18.000Z</time>
      </trkpt>
      <trkpt lat="42.48913167" lon="-7.99345">
        <ele>540.0</ele>
        <time>2018-10-03T10:42:19.000Z</time>
      </trkpt>
      <trkpt lat="42.48914" lon="-7.993465">
        <ele>540.0</ele>
        <time>2018-10-03T10:42:20.000Z</time>
      </trkpt>
      <trkpt lat="42.48914667" lon="-7.99348167">
        <ele>540.0</ele>
        <time>2018-10-03T10:42:21.000Z</time>
      </trkpt>
      <trkpt lat="42.48915" lon="-7.993495">
        <ele>540.0</ele>
        <time>2018-10-03T10:42:22.000Z</time>
      </trkpt>
      <trkpt lat="42.48915333" lon="-7.99350333">
        <ele>540.0</ele>
        <time>2018-10-03T10:42:23.000Z</time>
      </trkpt>
      <trkpt lat="42.48915667" lon="-7.99350667">
        <ele>540.0</ele>
        <time>2018-10-03T10:42:24.000Z</time>
      </trkpt>
      <trkpt lat="42.489155" lon="-7.99350833">
        <ele>540.0</ele>
        <time>2018-10-03T10:42:25.000Z</time>
      </trkpt>
      <trkpt lat="42.489155" lon="-7.99350833">
        <ele>540.0</ele>
        <time>2018-10-03T10:42:26.000Z</time>
      </trkpt>
      <trkpt lat="42.48915667" lon="-7.99351">
        <ele>540.0</ele>
        <time>2018-10-03T10:42:27.000Z</time>
      </trkpt>
      <trkpt lat="42.48916" lon="-7.99352">
        <ele>540.0</ele>
        <time>2018-10-03T10:42:28.000Z</time>
      </trkpt>
      <trkpt lat="42.489165" lon="-7.99353333">
        <ele>541.0</ele>
        <time>2018-10-03T10:42:29.000Z</time>
      </trkpt>
      <trkpt lat="42.48917167" lon="-7.99354667">
        <ele>541.0</ele>
        <time>2018-10-03T10:42:30.000Z</time>
      </trkpt>
      <trkpt lat="42.48917833" lon="-7.99356167">
        <ele>541.0</ele>
        <time>2018-10-03T10:42:31.000Z</time>
      </trkpt>
      <trkpt lat="42.489185" lon="-7.99357667">
        <ele>541.0</ele>
        <time>2018-10-03T10:42:32.000Z</time>
      </trkpt>
      <trkpt lat="42.48919167" lon="-7.99359333">
        <ele>541.0</ele>
        <time>2018-10-03T10:42:33.000Z</time>
      </trkpt>
      <trkpt lat="42.4892" lon="-7.99361">
        <ele>541.0</ele>
        <time>2018-10-03T10:42:34.000Z</time>
      </trkpt>
      <trkpt lat="42.489205" lon="-7.99362833">
        <ele>541.0</ele>
        <time>2018-10-03T10:42:35.000Z</time>
      </trkpt>
      <trkpt lat="42.48921333" lon="-7.99364667">
        <ele>541.0</ele>
        <time>2018-10-03T10:42:36.000Z</time>
      </trkpt>
      <trkpt lat="42.48922167" lon="-7.99366167">
        <ele>541.0</ele>
        <time>2018-10-03T10:42:37.000Z</time>
      </trkpt>
      <trkpt lat="42.48922833" lon="-7.99367833">
        <ele>541.0</ele>
        <time>2018-10-03T10:42:38.000Z</time>
      </trkpt>
      <trkpt lat="42.48923667" lon="-7.99369667">
        <ele>541.0</ele>
        <time>2018-10-03T10:42:39.000Z</time>
      </trkpt>
      <trkpt lat="42.48924833" lon="-7.99371333">
        <ele>541.0</ele>
        <time>2018-10-03T10:42:40.000Z</time>
      </trkpt>
      <trkpt lat="42.489255" lon="-7.99373">
        <ele>541.0</ele>
        <time>2018-10-03T10:42:41.000Z</time>
      </trkpt>
      <trkpt lat="42.48926333" lon="-7.99374667">
        <ele>541.0</ele>
        <time>2018-10-03T10:42:42.000Z</time>
      </trkpt>
      <trkpt lat="42.48927333" lon="-7.99376333">
        <ele>541.0</ele>
        <time>2018-10-03T10:42:43.000Z</time>
      </trkpt>
      <trkpt lat="42.48928167" lon="-7.99377833">
        <ele>542.0</ele>
        <time>2018-10-03T10:42:44.000Z</time>
      </trkpt>
      <trkpt lat="42.48929167" lon="-7.993795">
        <ele>542.0</ele>
        <time>2018-10-03T10:42:45.000Z</time>
      </trkpt>
      <trkpt lat="42.48930167" lon="-7.99381">
        <ele>542.0</ele>
        <time>2018-10-03T10:42:46.000Z</time>
      </trkpt>
      <trkpt lat="42.48931167" lon="-7.993825">
        <ele>542.0</ele>
        <time>2018-10-03T10:42:47.000Z</time>
      </trkpt>
      <trkpt lat="42.48932" lon="-7.99384167">
        <ele>542.0</ele>
        <time>2018-10-03T10:42:48.000Z</time>
      </trkpt>
      <trkpt lat="42.48932833" lon="-7.99385667">
        <ele>542.0</ele>
        <time>2018-10-03T10:42:49.000Z</time>
      </trkpt>
      <trkpt lat="42.48933833" lon="-7.99387333">
        <ele>542.0</ele>
        <time>2018-10-03T10:42:50.000Z</time>
      </trkpt>
      <trkpt lat="42.48934667" lon="-7.99388833">
        <ele>542.0</ele>
        <time>2018-10-03T10:42:51.000Z</time>
      </trkpt>
      <trkpt lat="42.48935833" lon="-7.99390167">
        <ele>543.0</ele>
        <time>2018-10-03T10:42:52.000Z</time>
      </trkpt>
      <trkpt lat="42.48937" lon="-7.99391333">
        <ele>543.0</ele>
        <time>2018-10-03T10:42:53.000Z</time>
      </trkpt>
      <trkpt lat="42.48937833" lon="-7.993925">
        <ele>543.0</ele>
        <time>2018-10-03T10:42:54.000Z</time>
      </trkpt>
      <trkpt lat="42.48938833" lon="-7.99393667">
        <ele>543.0</ele>
        <time>2018-10-03T10:42:55.000Z</time>
      </trkpt>
      <trkpt lat="42.4894" lon="-7.99394833">
        <ele>543.0</ele>
        <time>2018-10-03T10:42:56.000Z</time>
      </trkpt>
      <trkpt lat="42.48941" lon="-7.99396">
        <ele>543.0</ele>
        <time>2018-10-03T10:42:57.000Z</time>
      </trkpt>
      <trkpt lat="42.48942" lon="-7.99397167">
        <ele>543.0</ele>
        <time>2018-10-03T10:42:58.000Z</time>
      </trkpt>
      <trkpt lat="42.48943167" lon="-7.99398167">
        <ele>543.0</ele>
        <time>2018-10-03T10:42:59.000Z</time>
      </trkpt>
      <trkpt lat="42.48944167" lon="-7.99399">
        <ele>543.0</ele>
        <time>2018-10-03T10:43:00.000Z</time>
      </trkpt>
      <trkpt lat="42.48944833" lon="-7.99399833">
        <ele>543.0</ele>
        <time>2018-10-03T10:43:01.000Z</time>
      </trkpt>
      <trkpt lat="42.489455" lon="-7.99401667">
        <ele>543.0</ele>
        <time>2018-10-03T10:43:02.000Z</time>
      </trkpt>
      <trkpt lat="42.48946" lon="-7.99403333">
        <ele>544.0</ele>
        <time>2018-10-03T10:43:03.000Z</time>
      </trkpt>
      <trkpt lat="42.48946667" lon="-7.99405167">
        <ele>544.0</ele>
        <time>2018-10-03T10:43:04.000Z</time>
      </trkpt>
      <trkpt lat="42.489475" lon="-7.99406833">
        <ele>544.0</ele>
        <time>2018-10-03T10:43:05.000Z</time>
      </trkpt>
      <trkpt lat="42.48948333" lon="-7.994085">
        <ele>544.0</ele>
        <time>2018-10-03T10:43:06.000Z</time>
      </trkpt>
      <trkpt lat="42.48949" lon="-7.99410167">
        <ele>544.0</ele>
        <time>2018-10-03T10:43:07.000Z</time>
      </trkpt>
      <trkpt lat="42.48949667" lon="-7.99412">
        <ele>544.0</ele>
        <time>2018-10-03T10:43:08.000Z</time>
      </trkpt>
      <trkpt lat="42.489505" lon="-7.99413833">
        <ele>544.0</ele>
        <time>2018-10-03T10:43:09.000Z</time>
      </trkpt>
      <trkpt lat="42.48951" lon="-7.99415667">
        <ele>544.0</ele>
        <time>2018-10-03T10:43:10.000Z</time>
      </trkpt>
      <trkpt lat="42.489515" lon="-7.99417667">
        <ele>544.0</ele>
        <time>2018-10-03T10:43:11.000Z</time>
      </trkpt>
      <trkpt lat="42.48952" lon="-7.994195">
        <ele>544.0</ele>
        <time>2018-10-03T10:43:12.000Z</time>
      </trkpt>
      <trkpt lat="42.489525" lon="-7.99421333">
        <ele>544.0</ele>
        <time>2018-10-03T10:43:13.000Z</time>
      </trkpt>
      <trkpt lat="42.48953167" lon="-7.99423">
        <ele>544.0</ele>
        <time>2018-10-03T10:43:14.000Z</time>
      </trkpt>
      <trkpt lat="42.48953667" lon="-7.994245">
        <ele>544.0</ele>
        <time>2018-10-03T10:43:15.000Z</time>
      </trkpt>
      <trkpt lat="42.489545" lon="-7.99426333">
        <ele>544.0</ele>
        <time>2018-10-03T10:43:16.000Z</time>
      </trkpt>
      <trkpt lat="42.48955333" lon="-7.99428333">
        <ele>544.0</ele>
        <time>2018-10-03T10:43:17.000Z</time>
      </trkpt>
      <trkpt lat="42.48955833" lon="-7.99429833">
        <ele>544.0</ele>
        <time>2018-10-03T10:43:18.000Z</time>
      </trkpt>
      <trkpt lat="42.489565" lon="-7.99431833">
        <ele>544.0</ele>
        <time>2018-10-03T10:43:19.000Z</time>
      </trkpt>
      <trkpt lat="42.48957167" lon="-7.99433833">
        <ele>544.0</ele>
        <time>2018-10-03T10:43:20.000Z</time>
      </trkpt>
      <trkpt lat="42.48958" lon="-7.99435667">
        <ele>544.0</ele>
        <time>2018-10-03T10:43:21.000Z</time>
      </trkpt>
      <trkpt lat="42.48958833" lon="-7.99437833">
        <ele>544.0</ele>
        <time>2018-10-03T10:43:22.000Z</time>
      </trkpt>
      <trkpt lat="42.48959833" lon="-7.99439667">
        <ele>544.0</ele>
        <time>2018-10-03T10:43:23.000Z</time>
      </trkpt>
      <trkpt lat="42.48960667" lon="-7.99441167">
        <ele>544.0</ele>
        <time>2018-10-03T10:43:24.000Z</time>
      </trkpt>
      <trkpt lat="42.48961" lon="-7.99442167">
        <ele>544.0</ele>
        <time>2018-10-03T10:43:25.000Z</time>
      </trkpt>
      <trkpt lat="42.48961167" lon="-7.99442667">
        <ele>544.0</ele>
        <time>2018-10-03T10:43:26.000Z</time>
      </trkpt>
      <trkpt lat="42.48960667" lon="-7.99444667">
        <ele>544.0</ele>
        <time>2018-10-03T10:43:27.000Z</time>
      </trkpt>
      <trkpt lat="42.48961" lon="-7.99447167">
        <ele>544.0</ele>
        <time>2018-10-03T10:43:28.000Z</time>
      </trkpt>
      <trkpt lat="42.48961333" lon="-7.99449667">
        <ele>544.0</ele>
        <time>2018-10-03T10:43:29.000Z</time>
      </trkpt>
      <trkpt lat="42.489615" lon="-7.99452167">
        <ele>544.0</ele>
        <time>2018-10-03T10:43:30.000Z</time>
      </trkpt>
      <trkpt lat="42.48962" lon="-7.99454333">
        <ele>545.0</ele>
        <time>2018-10-03T10:43:31.000Z</time>
      </trkpt>
      <trkpt lat="42.48963" lon="-7.99456833">
        <ele>545.0</ele>
        <time>2018-10-03T10:43:32.000Z</time>
      </trkpt>
      <trkpt lat="42.48964333" lon="-7.994595">
        <ele>545.0</ele>
        <time>2018-10-03T10:43:33.000Z</time>
      </trkpt>
      <trkpt lat="42.48965167" lon="-7.99461833">
        <ele>545.0</ele>
        <time>2018-10-03T10:43:34.000Z</time>
      </trkpt>
      <trkpt lat="42.48965333" lon="-7.99463667">
        <ele>545.0</ele>
        <time>2018-10-03T10:43:35.000Z</time>
      </trkpt>
      <trkpt lat="42.48965" lon="-7.994645">
        <ele>545.0</ele>
        <time>2018-10-03T10:43:36.000Z</time>
      </trkpt>
      <trkpt lat="42.48965167" lon="-7.994655">
        <ele>545.0</ele>
        <time>2018-10-03T10:43:37.000Z</time>
      </trkpt>
      <trkpt lat="42.48965667" lon="-7.99467167">
        <ele>545.0</ele>
        <time>2018-10-03T10:43:38.000Z</time>
      </trkpt>
      <trkpt lat="42.48966333" lon="-7.99469167">
        <ele>545.0</ele>
        <time>2018-10-03T10:43:39.000Z</time>
      </trkpt>
      <trkpt lat="42.48966833" lon="-7.994715">
        <ele>545.0</ele>
        <time>2018-10-03T10:43:40.000Z</time>
      </trkpt>
      <trkpt lat="42.48967333" lon="-7.994735">
        <ele>545.0</ele>
        <time>2018-10-03T10:43:41.000Z</time>
      </trkpt>
      <trkpt lat="42.48967833" lon="-7.99475333">
        <ele>545.0</ele>
        <time>2018-10-03T10:43:42.000Z</time>
      </trkpt>
      <trkpt lat="42.48968333" lon="-7.99477">
        <ele>545.0</ele>
        <time>2018-10-03T10:43:43.000Z</time>
      </trkpt>
      <trkpt lat="42.48969" lon="-7.99478667">
        <ele>545.0</ele>
        <time>2018-10-03T10:43:44.000Z</time>
      </trkpt>
      <trkpt lat="42.48969833" lon="-7.994805">
        <ele>545.0</ele>
        <time>2018-10-03T10:43:45.000Z</time>
      </trkpt>
      <trkpt lat="42.48970833" lon="-7.994825">
        <ele>545.0</ele>
        <time>2018-10-03T10:43:46.000Z</time>
      </trkpt>
      <trkpt lat="42.48971833" lon="-7.99484667">
        <ele>546.0</ele>
        <time>2018-10-03T10:43:47.000Z</time>
      </trkpt>
      <trkpt lat="42.48972333" lon="-7.99486833">
        <ele>546.0</ele>
        <time>2018-10-03T10:43:48.000Z</time>
      </trkpt>
      <trkpt lat="42.48972333" lon="-7.99489">
        <ele>546.0</ele>
        <time>2018-10-03T10:43:49.000Z</time>
      </trkpt>
      <trkpt lat="42.48972333" lon="-7.99491333">
        <ele>546.0</ele>
        <time>2018-10-03T10:43:50.000Z</time>
      </trkpt>
      <trkpt lat="42.48973167" lon="-7.99493833">
        <ele>547.0</ele>
        <time>2018-10-03T10:43:51.000Z</time>
      </trkpt>
      <trkpt lat="42.489745" lon="-7.99497167">
        <ele>547.0</ele>
        <time>2018-10-03T10:43:52.000Z</time>
      </trkpt>
      <trkpt lat="42.48976167" lon="-7.99500667">
        <ele>547.0</ele>
        <time>2018-10-03T10:43:53.000Z</time>
      </trkpt>
      <trkpt lat="42.48977833" lon="-7.995035">
        <ele>547.0</ele>
        <time>2018-10-03T10:43:54.000Z</time>
      </trkpt>
      <trkpt lat="42.48979167" lon="-7.99505833">
        <ele>547.0</ele>
        <time>2018-10-03T10:43:55.000Z</time>
      </trkpt>
      <trkpt lat="42.48980667" lon="-7.99508">
        <ele>547.0</ele>
        <time>2018-10-03T10:43:56.000Z</time>
      </trkpt>
      <trkpt lat="42.48981333" lon="-7.9951">
        <ele>548.0</ele>
        <time>2018-10-03T10:43:57.000Z</time>
      </trkpt>
      <trkpt lat="42.48981167" lon="-7.99511667">
        <ele>548.0</ele>
        <time>2018-10-03T10:43:58.000Z</time>
      </trkpt>
      <trkpt lat="42.48981333" lon="-7.99513333">
        <ele>548.0</ele>
        <time>2018-10-03T10:43:59.000Z</time>
      </trkpt>
      <trkpt lat="42.48981667" lon="-7.99515167">
        <ele>548.0</ele>
        <time>2018-10-03T10:44:00.000Z</time>
      </trkpt>
      <trkpt lat="42.48982333" lon="-7.99517">
        <ele>548.0</ele>
        <time>2018-10-03T10:44:01.000Z</time>
      </trkpt>
      <trkpt lat="42.489835" lon="-7.99519667">
        <ele>548.0</ele>
        <time>2018-10-03T10:44:02.000Z</time>
      </trkpt>
      <trkpt lat="42.48984333" lon="-7.99520833">
        <ele>548.0</ele>
        <time>2018-10-03T10:44:03.000Z</time>
      </trkpt>
      <trkpt lat="42.48984833" lon="-7.995225">
        <ele>548.0</ele>
        <time>2018-10-03T10:44:04.000Z</time>
      </trkpt>
      <trkpt lat="42.489855" lon="-7.995235">
        <ele>548.0</ele>
        <time>2018-10-03T10:44:05.000Z</time>
      </trkpt>
      <trkpt lat="42.48986333" lon="-7.99524167">
        <ele>548.0</ele>
        <time>2018-10-03T10:44:06.000Z</time>
      </trkpt>
      <trkpt lat="42.48987" lon="-7.995245">
        <ele>547.0</ele>
        <time>2018-10-03T10:44:07.000Z</time>
      </trkpt>
      <trkpt lat="42.489875" lon="-7.995255">
        <ele>547.0</ele>
        <time>2018-10-03T10:44:08.000Z</time>
      </trkpt>
      <trkpt lat="42.48988167" lon="-7.99526833">
        <ele>547.0</ele>
        <time>2018-10-03T10:44:09.000Z</time>
      </trkpt>
      <trkpt lat="42.48988833" lon="-7.99528833">
        <ele>547.0</ele>
        <time>2018-10-03T10:44:10.000Z</time>
      </trkpt>
      <trkpt lat="42.48989833" lon="-7.995315">
        <ele>547.0</ele>
        <time>2018-10-03T10:44:11.000Z</time>
      </trkpt>
      <trkpt lat="42.48991" lon="-7.99534333">
        <ele>546.0</ele>
        <time>2018-10-03T10:44:12.000Z</time>
      </trkpt>
      <trkpt lat="42.48992167" lon="-7.99537167">
        <ele>546.0</ele>
        <time>2018-10-03T10:44:13.000Z</time>
      </trkpt>
      <trkpt lat="42.48993167" lon="-7.995395">
        <ele>546.0</ele>
        <time>2018-10-03T10:44:14.000Z</time>
      </trkpt>
      <trkpt lat="42.48993833" lon="-7.99541333">
        <ele>546.0</ele>
        <time>2018-10-03T10:44:15.000Z</time>
      </trkpt>
      <trkpt lat="42.489945" lon="-7.99543">
        <ele>546.0</ele>
        <time>2018-10-03T10:44:16.000Z</time>
      </trkpt>
      <trkpt lat="42.48995167" lon="-7.995445">
        <ele>546.0</ele>
        <time>2018-10-03T10:44:17.000Z</time>
      </trkpt>
      <trkpt lat="42.48995667" lon="-7.99547">
        <ele>546.0</ele>
        <time>2018-10-03T10:44:18.000Z</time>
      </trkpt>
      <trkpt lat="42.48996167" lon="-7.99549167">
        <ele>545.0</ele>
        <time>2018-10-03T10:44:19.000Z</time>
      </trkpt>
      <trkpt lat="42.48996667" lon="-7.99551167">
        <ele>545.0</ele>
        <time>2018-10-03T10:44:20.000Z</time>
      </trkpt>
      <trkpt lat="42.48997333" lon="-7.99553333">
        <ele>545.0</ele>
        <time>2018-10-03T10:44:21.000Z</time>
      </trkpt>
      <trkpt lat="42.48998167" lon="-7.99556">
        <ele>546.0</ele>
        <time>2018-10-03T10:44:22.000Z</time>
      </trkpt>
      <trkpt lat="42.48999167" lon="-7.99558167">
        <ele>546.0</ele>
        <time>2018-10-03T10:44:23.000Z</time>
      </trkpt>
      <trkpt lat="42.48999833" lon="-7.99560333">
        <ele>546.0</ele>
        <time>2018-10-03T10:44:24.000Z</time>
      </trkpt>
      <trkpt lat="42.490005" lon="-7.995625">
        <ele>546.0</ele>
        <time>2018-10-03T10:44:25.000Z</time>
      </trkpt>
      <trkpt lat="42.49001167" lon="-7.99564167">
        <ele>546.0</ele>
        <time>2018-10-03T10:44:26.000Z</time>
      </trkpt>
      <trkpt lat="42.49002167" lon="-7.995655">
        <ele>546.0</ele>
        <time>2018-10-03T10:44:27.000Z</time>
      </trkpt>
      <trkpt lat="42.49003167" lon="-7.99566333">
        <ele>546.0</ele>
        <time>2018-10-03T10:44:28.000Z</time>
      </trkpt>
      <trkpt lat="42.49004333" lon="-7.99566833">
        <ele>546.0</ele>
        <time>2018-10-03T10:44:29.000Z</time>
      </trkpt>
      <trkpt lat="42.490055" lon="-7.99567833">
        <ele>546.0</ele>
        <time>2018-10-03T10:44:30.000Z</time>
      </trkpt>
      <trkpt lat="42.49006667" lon="-7.995685">
        <ele>546.0</ele>
        <time>2018-10-03T10:44:31.000Z</time>
      </trkpt>
      <trkpt lat="42.49007667" lon="-7.99569667">
        <ele>545.0</ele>
        <time>2018-10-03T10:44:32.000Z</time>
      </trkpt>
      <trkpt lat="42.49008833" lon="-7.99570833">
        <ele>545.0</ele>
        <time>2018-10-03T10:44:33.000Z</time>
      </trkpt>
      <trkpt lat="42.4901" lon="-7.99571667">
        <ele>545.0</ele>
        <time>2018-10-03T10:44:34.000Z</time>
      </trkpt>
      <trkpt lat="42.49011333" lon="-7.99573333">
        <ele>545.0</ele>
        <time>2018-10-03T10:44:35.000Z</time>
      </trkpt>
      <trkpt lat="42.49012333" lon="-7.99574667">
        <ele>545.0</ele>
        <time>2018-10-03T10:44:36.000Z</time>
      </trkpt>
      <trkpt lat="42.49013167" lon="-7.99575833">
        <ele>544.0</ele>
        <time>2018-10-03T10:44:37.000Z</time>
      </trkpt>
      <trkpt lat="42.49013833" lon="-7.99577">
        <ele>544.0</ele>
        <time>2018-10-03T10:44:38.000Z</time>
      </trkpt>
      <trkpt lat="42.49014667" lon="-7.99578333">
        <ele>544.0</ele>
        <time>2018-10-03T10:44:39.000Z</time>
      </trkpt>
      <trkpt lat="42.49015667" lon="-7.99579">
        <ele>544.0</ele>
        <time>2018-10-03T10:44:40.000Z</time>
      </trkpt>
      <trkpt lat="42.490165" lon="-7.99579833">
        <ele>544.0</ele>
        <time>2018-10-03T10:44:41.000Z</time>
      </trkpt>
      <trkpt lat="42.49017833" lon="-7.995805">
        <ele>544.0</ele>
        <time>2018-10-03T10:44:42.000Z</time>
      </trkpt>
      <trkpt lat="42.49019" lon="-7.99581667">
        <ele>544.0</ele>
        <time>2018-10-03T10:44:43.000Z</time>
      </trkpt>
      <trkpt lat="42.4902" lon="-7.99583">
        <ele>543.0</ele>
        <time>2018-10-03T10:44:44.000Z</time>
      </trkpt>
      <trkpt lat="42.49021" lon="-7.99584667">
        <ele>543.0</ele>
        <time>2018-10-03T10:44:45.000Z</time>
      </trkpt>
      <trkpt lat="42.49022667" lon="-7.99586">
        <ele>543.0</ele>
        <time>2018-10-03T10:44:46.000Z</time>
      </trkpt>
      <trkpt lat="42.49023833" lon="-7.99586833">
        <ele>543.0</ele>
        <time>2018-10-03T10:44:47.000Z</time>
      </trkpt>
      <trkpt lat="42.49025" lon="-7.99587167">
        <ele>543.0</ele>
        <time>2018-10-03T10:44:48.000Z</time>
      </trkpt>
      <trkpt lat="42.49026167" lon="-7.99588">
        <ele>543.0</ele>
        <time>2018-10-03T10:44:49.000Z</time>
      </trkpt>
      <trkpt lat="42.49027167" lon="-7.99589667">
        <ele>543.0</ele>
        <time>2018-10-03T10:44:50.000Z</time>
      </trkpt>
      <trkpt lat="42.49028167" lon="-7.99591167">
        <ele>543.0</ele>
        <time>2018-10-03T10:44:51.000Z</time>
      </trkpt>
      <trkpt lat="42.49030167" lon="-7.99592833">
        <ele>543.0</ele>
        <time>2018-10-03T10:44:52.000Z</time>
      </trkpt>
      <trkpt lat="42.490315" lon="-7.99594667">
        <ele>543.0</ele>
        <time>2018-10-03T10:44:53.000Z</time>
      </trkpt>
      <trkpt lat="42.49033833" lon="-7.99598333">
        <ele>543.0</ele>
        <time>2018-10-03T10:44:54.000Z</time>
      </trkpt>
      <trkpt lat="42.49035833" lon="-7.99600833">
        <ele>543.0</ele>
        <time>2018-10-03T10:44:55.000Z</time>
      </trkpt>
      <trkpt lat="42.49037167" lon="-7.99602167">
        <ele>543.0</ele>
        <time>2018-10-03T10:44:56.000Z</time>
      </trkpt>
      <trkpt lat="42.49038167" lon="-7.99603667">
        <ele>542.0</ele>
        <time>2018-10-03T10:44:57.000Z</time>
      </trkpt>
      <trkpt lat="42.49039167" lon="-7.99605167">
        <ele>542.0</ele>
        <time>2018-10-03T10:44:58.000Z</time>
      </trkpt>
      <trkpt lat="42.4904" lon="-7.99606667">
        <ele>542.0</ele>
        <time>2018-10-03T10:44:59.000Z</time>
      </trkpt>
      <trkpt lat="42.490405" lon="-7.99608">
        <ele>542.0</ele>
        <time>2018-10-03T10:45:00.000Z</time>
      </trkpt>
      <trkpt lat="42.49041167" lon="-7.99609333">
        <ele>541.0</ele>
        <time>2018-10-03T10:45:01.000Z</time>
      </trkpt>
      <trkpt lat="42.49041833" lon="-7.996105">
        <ele>541.0</ele>
        <time>2018-10-03T10:45:02.000Z</time>
      </trkpt>
      <trkpt lat="42.49042667" lon="-7.996115">
        <ele>541.0</ele>
        <time>2018-10-03T10:45:03.000Z</time>
      </trkpt>
      <trkpt lat="42.49043667" lon="-7.996125">
        <ele>541.0</ele>
        <time>2018-10-03T10:45:04.000Z</time>
      </trkpt>
      <trkpt lat="42.49045" lon="-7.99613833">
        <ele>540.0</ele>
        <time>2018-10-03T10:45:05.000Z</time>
      </trkpt>
      <trkpt lat="42.490465" lon="-7.99615">
        <ele>540.0</ele>
        <time>2018-10-03T10:45:06.000Z</time>
      </trkpt>
      <trkpt lat="42.49048" lon="-7.99616833">
        <ele>540.0</ele>
        <time>2018-10-03T10:45:07.000Z</time>
      </trkpt>
      <trkpt lat="42.49048833" lon="-7.996185">
        <ele>540.0</ele>
        <time>2018-10-03T10:45:08.000Z</time>
      </trkpt>
      <trkpt lat="42.49048333" lon="-7.99620167">
        <ele>539.0</ele>
        <time>2018-10-03T10:45:09.000Z</time>
      </trkpt>
      <trkpt lat="42.49048" lon="-7.99621167">
        <ele>539.0</ele>
        <time>2018-10-03T10:45:10.000Z</time>
      </trkpt>
      <trkpt lat="42.49047833" lon="-7.99622333">
        <ele>539.0</ele>
        <time>2018-10-03T10:45:11.000Z</time>
      </trkpt>
      <trkpt lat="42.49048" lon="-7.99624">
        <ele>539.0</ele>
        <time>2018-10-03T10:45:12.000Z</time>
      </trkpt>
      <trkpt lat="42.49048833" lon="-7.99626">
        <ele>539.0</ele>
        <time>2018-10-03T10:45:13.000Z</time>
      </trkpt>
      <trkpt lat="42.49049667" lon="-7.99627833">
        <ele>539.0</ele>
        <time>2018-10-03T10:45:14.000Z</time>
      </trkpt>
      <trkpt lat="42.49050833" lon="-7.996295">
        <ele>538.0</ele>
        <time>2018-10-03T10:45:15.000Z</time>
      </trkpt>
      <trkpt lat="42.49052" lon="-7.99631167">
        <ele>538.0</ele>
        <time>2018-10-03T10:45:16.000Z</time>
      </trkpt>
      <trkpt lat="42.49053" lon="-7.99632833">
        <ele>538.0</ele>
        <time>2018-10-03T10:45:17.000Z</time>
      </trkpt>
      <trkpt lat="42.49053667" lon="-7.99634333">
        <ele>538.0</ele>
        <time>2018-10-03T10:45:18.000Z</time>
      </trkpt>
      <trkpt lat="42.49054667" lon="-7.996365">
        <ele>538.0</ele>
        <time>2018-10-03T10:45:19.000Z</time>
      </trkpt>
      <trkpt lat="42.49055833" lon="-7.996385">
        <ele>538.0</ele>
        <time>2018-10-03T10:45:20.000Z</time>
      </trkpt>
      <trkpt lat="42.49057333" lon="-7.996405">
        <ele>538.0</ele>
        <time>2018-10-03T10:45:21.000Z</time>
      </trkpt>
      <trkpt lat="42.49059333" lon="-7.99643">
        <ele>538.0</ele>
        <time>2018-10-03T10:45:22.000Z</time>
      </trkpt>
      <trkpt lat="42.49061333" lon="-7.99645333">
        <ele>538.0</ele>
        <time>2018-10-03T10:45:23.000Z</time>
      </trkpt>
      <trkpt lat="42.49063333" lon="-7.99647667">
        <ele>538.0</ele>
        <time>2018-10-03T10:45:24.000Z</time>
      </trkpt>
      <trkpt lat="42.49065" lon="-7.99649833">
        <ele>537.0</ele>
        <time>2018-10-03T10:45:25.000Z</time>
      </trkpt>
      <trkpt lat="42.49066167" lon="-7.99651667">
        <ele>537.0</ele>
        <time>2018-10-03T10:45:26.000Z</time>
      </trkpt>
      <trkpt lat="42.49067167" lon="-7.99653167">
        <ele>537.0</ele>
        <time>2018-10-03T10:45:27.000Z</time>
      </trkpt>
      <trkpt lat="42.49068167" lon="-7.99655">
        <ele>537.0</ele>
        <time>2018-10-03T10:45:28.000Z</time>
      </trkpt>
      <trkpt lat="42.49069333" lon="-7.99657167">
        <ele>536.0</ele>
        <time>2018-10-03T10:45:29.000Z</time>
      </trkpt>
      <trkpt lat="42.49070667" lon="-7.996595">
        <ele>536.0</ele>
        <time>2018-10-03T10:45:30.000Z</time>
      </trkpt>
      <trkpt lat="42.49072" lon="-7.99662167">
        <ele>536.0</ele>
        <time>2018-10-03T10:45:31.000Z</time>
      </trkpt>
      <trkpt lat="42.49073667" lon="-7.996645">
        <ele>536.0</ele>
        <time>2018-10-03T10:45:32.000Z</time>
      </trkpt>
      <trkpt lat="42.490755" lon="-7.996665">
        <ele>536.0</ele>
        <time>2018-10-03T10:45:33.000Z</time>
      </trkpt>
      <trkpt lat="42.49077167" lon="-7.99668">
        <ele>536.0</ele>
        <time>2018-10-03T10:45:34.000Z</time>
      </trkpt>
      <trkpt lat="42.49078333" lon="-7.99668833">
        <ele>536.0</ele>
        <time>2018-10-03T10:45:35.000Z</time>
      </trkpt>
      <trkpt lat="42.49079667" lon="-7.996695">
        <ele>536.0</ele>
        <time>2018-10-03T10:45:36.000Z</time>
      </trkpt>
      <trkpt lat="42.49080833" lon="-7.99670167">
        <ele>536.0</ele>
        <time>2018-10-03T10:45:37.000Z</time>
      </trkpt>
      <trkpt lat="42.49082167" lon="-7.99671167">
        <ele>536.0</ele>
        <time>2018-10-03T10:45:38.000Z</time>
      </trkpt>
      <trkpt lat="42.490835" lon="-7.99672333">
        <ele>536.0</ele>
        <time>2018-10-03T10:45:39.000Z</time>
      </trkpt>
      <trkpt lat="42.49084833" lon="-7.99673667">
        <ele>536.0</ele>
        <time>2018-10-03T10:45:40.000Z</time>
      </trkpt>
      <trkpt lat="42.49086333" lon="-7.99675">
        <ele>536.0</ele>
        <time>2018-10-03T10:45:41.000Z</time>
      </trkpt>
      <trkpt lat="42.49087667" lon="-7.99676333">
        <ele>536.0</ele>
        <time>2018-10-03T10:45:42.000Z</time>
      </trkpt>
      <trkpt lat="42.490885" lon="-7.99677667">
        <ele>535.0</ele>
        <time>2018-10-03T10:45:43.000Z</time>
      </trkpt>
      <trkpt lat="42.49089167" lon="-7.99679333">
        <ele>535.0</ele>
        <time>2018-10-03T10:45:44.000Z</time>
      </trkpt>
      <trkpt lat="42.49089667" lon="-7.99681167">
        <ele>534.0</ele>
        <time>2018-10-03T10:45:45.000Z</time>
      </trkpt>
      <trkpt lat="42.49090333" lon="-7.99682833">
        <ele>534.0</ele>
        <time>2018-10-03T10:45:46.000Z</time>
      </trkpt>
      <trkpt lat="42.49091" lon="-7.99684833">
        <ele>534.0</ele>
        <time>2018-10-03T10:45:47.000Z</time>
      </trkpt>
      <trkpt lat="42.49091833" lon="-7.99686667">
        <ele>533.0</ele>
        <time>2018-10-03T10:45:48.000Z</time>
      </trkpt>
      <trkpt lat="42.49093" lon="-7.99689">
        <ele>533.0</ele>
        <time>2018-10-03T10:45:49.000Z</time>
      </trkpt>
      <trkpt lat="42.49094333" lon="-7.99691167">
        <ele>533.0</ele>
        <time>2018-10-03T10:45:50.000Z</time>
      </trkpt>
      <trkpt lat="42.490955" lon="-7.99693333">
        <ele>532.0</ele>
        <time>2018-10-03T10:45:51.000Z</time>
      </trkpt>
      <trkpt lat="42.49096333" lon="-7.996955">
        <ele>532.0</ele>
        <time>2018-10-03T10:45:52.000Z</time>
      </trkpt>
      <trkpt lat="42.49096833" lon="-7.996975">
        <ele>532.0</ele>
        <time>2018-10-03T10:45:53.000Z</time>
      </trkpt>
      <trkpt lat="42.49097167" lon="-7.99699167">
        <ele>531.0</ele>
        <time>2018-10-03T10:45:54.000Z</time>
      </trkpt>
      <trkpt lat="42.49098" lon="-7.99701167">
        <ele>531.0</ele>
        <time>2018-10-03T10:45:55.000Z</time>
      </trkpt>
      <trkpt lat="42.49099" lon="-7.997035">
        <ele>531.0</ele>
        <time>2018-10-03T10:45:56.000Z</time>
      </trkpt>
      <trkpt lat="42.49100333" lon="-7.99706167">
        <ele>531.0</ele>
        <time>2018-10-03T10:45:57.000Z</time>
      </trkpt>
      <trkpt lat="42.49101833" lon="-7.99708333">
        <ele>531.0</ele>
        <time>2018-10-03T10:45:58.000Z</time>
      </trkpt>
      <trkpt lat="42.491035" lon="-7.99710333">
        <ele>530.0</ele>
        <time>2018-10-03T10:45:59.000Z</time>
      </trkpt>
      <trkpt lat="42.49105167" lon="-7.99712333">
        <ele>530.0</ele>
        <time>2018-10-03T10:46:00.000Z</time>
      </trkpt>
      <trkpt lat="42.49106167" lon="-7.99714333">
        <ele>530.0</ele>
        <time>2018-10-03T10:46:01.000Z</time>
      </trkpt>
      <trkpt lat="42.49106833" lon="-7.99715833">
        <ele>530.0</ele>
        <time>2018-10-03T10:46:02.000Z</time>
      </trkpt>
      <trkpt lat="42.49107833" lon="-7.99717833">
        <ele>529.0</ele>
        <time>2018-10-03T10:46:03.000Z</time>
      </trkpt>
      <trkpt lat="42.49109" lon="-7.9972">
        <ele>529.0</ele>
        <time>2018-10-03T10:46:04.000Z</time>
      </trkpt>
      <trkpt lat="42.491105" lon="-7.99722667">
        <ele>529.0</ele>
        <time>2018-10-03T10:46:05.000Z</time>
      </trkpt>
      <trkpt lat="42.49111833" lon="-7.99724833">
        <ele>529.0</ele>
        <time>2018-10-03T10:46:06.000Z</time>
      </trkpt>
      <trkpt lat="42.49113167" lon="-7.997265">
        <ele>529.0</ele>
        <time>2018-10-03T10:46:07.000Z</time>
      </trkpt>
      <trkpt lat="42.49114167" lon="-7.99727833">
        <ele>528.0</ele>
        <time>2018-10-03T10:46:08.000Z</time>
      </trkpt>
      <trkpt lat="42.49114833" lon="-7.99728833">
        <ele>528.0</ele>
        <time>2018-10-03T10:46:09.000Z</time>
      </trkpt>
      <trkpt lat="42.49115167" lon="-7.99730167">
        <ele>528.0</ele>
        <time>2018-10-03T10:46:10.000Z</time>
      </trkpt>
      <trkpt lat="42.491155" lon="-7.99731833">
        <ele>528.0</ele>
        <time>2018-10-03T10:46:11.000Z</time>
      </trkpt>
      <trkpt lat="42.49115833" lon="-7.99734">
        <ele>527.0</ele>
        <time>2018-10-03T10:46:12.000Z</time>
      </trkpt>
      <trkpt lat="42.49116667" lon="-7.99736333">
        <ele>527.0</ele>
        <time>2018-10-03T10:46:13.000Z</time>
      </trkpt>
      <trkpt lat="42.491175" lon="-7.99739167">
        <ele>527.0</ele>
        <time>2018-10-03T10:46:14.000Z</time>
      </trkpt>
      <trkpt lat="42.49118167" lon="-7.99742">
        <ele>527.0</ele>
        <time>2018-10-03T10:46:15.000Z</time>
      </trkpt>
      <trkpt lat="42.49118667" lon="-7.997445">
        <ele>526.0</ele>
        <time>2018-10-03T10:46:16.000Z</time>
      </trkpt>
      <trkpt lat="42.49118667" lon="-7.99746333">
        <ele>526.0</ele>
        <time>2018-10-03T10:46:17.000Z</time>
      </trkpt>
      <trkpt lat="42.49118667" lon="-7.99748333">
        <ele>526.0</ele>
        <time>2018-10-03T10:46:18.000Z</time>
      </trkpt>
      <trkpt lat="42.49119" lon="-7.99750333">
        <ele>526.0</ele>
        <time>2018-10-03T10:46:19.000Z</time>
      </trkpt>
      <trkpt lat="42.491195" lon="-7.99753">
        <ele>525.0</ele>
        <time>2018-10-03T10:46:20.000Z</time>
      </trkpt>
      <trkpt lat="42.49120167" lon="-7.99756">
        <ele>525.0</ele>
        <time>2018-10-03T10:46:21.000Z</time>
      </trkpt>
      <trkpt lat="42.49120833" lon="-7.99758833">
        <ele>525.0</ele>
        <time>2018-10-03T10:46:22.000Z</time>
      </trkpt>
      <trkpt lat="42.49121667" lon="-7.99761333">
        <ele>525.0</ele>
        <time>2018-10-03T10:46:23.000Z</time>
      </trkpt>
      <trkpt lat="42.49122333" lon="-7.99763">
        <ele>525.0</ele>
        <time>2018-10-03T10:46:24.000Z</time>
      </trkpt>
      <trkpt lat="42.49123167" lon="-7.997645">
        <ele>525.0</ele>
        <time>2018-10-03T10:46:25.000Z</time>
      </trkpt>
      <trkpt lat="42.49123833" lon="-7.99766333">
        <ele>524.0</ele>
        <time>2018-10-03T10:46:26.000Z</time>
      </trkpt>
      <trkpt lat="42.49124833" lon="-7.99768">
        <ele>524.0</ele>
        <time>2018-10-03T10:46:27.000Z</time>
      </trkpt>
      <trkpt lat="42.49126167" lon="-7.997695">
        <ele>524.0</ele>
        <time>2018-10-03T10:46:28.000Z</time>
      </trkpt>
      <trkpt lat="42.491275" lon="-7.99770333">
        <ele>524.0</ele>
        <time>2018-10-03T10:46:29.000Z</time>
      </trkpt>
      <trkpt lat="42.49128833" lon="-7.99771">
        <ele>524.0</ele>
        <time>2018-10-03T10:46:30.000Z</time>
      </trkpt>
      <trkpt lat="42.4913" lon="-7.997715">
        <ele>524.0</ele>
        <time>2018-10-03T10:46:31.000Z</time>
      </trkpt>
      <trkpt lat="42.49130667" lon="-7.99772167">
        <ele>524.0</ele>
        <time>2018-10-03T10:46:32.000Z</time>
      </trkpt>
      <trkpt lat="42.49132" lon="-7.99773333">
        <ele>524.0</ele>
        <time>2018-10-03T10:46:33.000Z</time>
      </trkpt>
      <trkpt lat="42.49133333" lon="-7.99774833">
        <ele>524.0</ele>
        <time>2018-10-03T10:46:34.000Z</time>
      </trkpt>
      <trkpt lat="42.49135333" lon="-7.99776667">
        <ele>523.0</ele>
        <time>2018-10-03T10:46:35.000Z</time>
      </trkpt>
      <trkpt lat="42.49137333" lon="-7.99778">
        <ele>523.0</ele>
        <time>2018-10-03T10:46:36.000Z</time>
      </trkpt>
      <trkpt lat="42.49139333" lon="-7.99779167">
        <ele>523.0</ele>
        <time>2018-10-03T10:46:37.000Z</time>
      </trkpt>
      <trkpt lat="42.49141167" lon="-7.99780167">
        <ele>523.0</ele>
        <time>2018-10-03T10:46:38.000Z</time>
      </trkpt>
      <trkpt lat="42.491425" lon="-7.99780667">
        <ele>523.0</ele>
        <time>2018-10-03T10:46:39.000Z</time>
      </trkpt>
      <trkpt lat="42.49143667" lon="-7.99781667">
        <ele>523.0</ele>
        <time>2018-10-03T10:46:40.000Z</time>
      </trkpt>
      <trkpt lat="42.49145" lon="-7.997825">
        <ele>523.0</ele>
        <time>2018-10-03T10:46:41.000Z</time>
      </trkpt>
      <trkpt lat="42.49146333" lon="-7.997835">
        <ele>522.0</ele>
        <time>2018-10-03T10:46:42.000Z</time>
      </trkpt>
      <trkpt lat="42.49148167" lon="-7.99784667">
        <ele>522.0</ele>
        <time>2018-10-03T10:46:43.000Z</time>
      </trkpt>
      <trkpt lat="42.49150333" lon="-7.997855">
        <ele>522.0</ele>
        <time>2018-10-03T10:46:44.000Z</time>
      </trkpt>
      <trkpt lat="42.49152167" lon="-7.99786333">
        <ele>522.0</ele>
        <time>2018-10-03T10:46:45.000Z</time>
      </trkpt>
      <trkpt lat="42.49153833" lon="-7.99786667">
        <ele>522.0</ele>
        <time>2018-10-03T10:46:46.000Z</time>
      </trkpt>
      <trkpt lat="42.49155" lon="-7.99787167">
        <ele>521.0</ele>
        <time>2018-10-03T10:46:47.000Z</time>
      </trkpt>
      <trkpt lat="42.49155833" lon="-7.99787667">
        <ele>521.0</ele>
        <time>2018-10-03T10:46:48.000Z</time>
      </trkpt>
      <trkpt lat="42.491565" lon="-7.99788333">
        <ele>521.0</ele>
        <time>2018-10-03T10:46:49.000Z</time>
      </trkpt>
      <trkpt lat="42.49157667" lon="-7.99789">
        <ele>521.0</ele>
        <time>2018-10-03T10:46:50.000Z</time>
      </trkpt>
      <trkpt lat="42.49159333" lon="-7.99789833">
        <ele>521.0</ele>
        <time>2018-10-03T10:46:51.000Z</time>
      </trkpt>
      <trkpt lat="42.491615" lon="-7.997915">
        <ele>520.0</ele>
        <time>2018-10-03T10:46:52.000Z</time>
      </trkpt>
      <trkpt lat="42.49163667" lon="-7.99792833">
        <ele>520.0</ele>
        <time>2018-10-03T10:46:53.000Z</time>
      </trkpt>
      <trkpt lat="42.49165667" lon="-7.99794167">
        <ele>520.0</ele>
        <time>2018-10-03T10:46:54.000Z</time>
      </trkpt>
      <trkpt lat="42.49167167" lon="-7.99795333">
        <ele>520.0</ele>
        <time>2018-10-03T10:46:55.000Z</time>
      </trkpt>
      <trkpt lat="42.49168333" lon="-7.99796167">
        <ele>520.0</ele>
        <time>2018-10-03T10:46:56.000Z</time>
      </trkpt>
      <trkpt lat="42.491695" lon="-7.99797333">
        <ele>519.0</ele>
        <time>2018-10-03T10:46:57.000Z</time>
      </trkpt>
      <trkpt lat="42.49170833" lon="-7.99798667">
        <ele>519.0</ele>
        <time>2018-10-03T10:46:58.000Z</time>
      </trkpt>
      <trkpt lat="42.49172333" lon="-7.99800333">
        <ele>519.0</ele>
        <time>2018-10-03T10:46:59.000Z</time>
      </trkpt>
      <trkpt lat="42.49174167" lon="-7.99802167">
        <ele>519.0</ele>
        <time>2018-10-03T10:47:00.000Z</time>
      </trkpt>
      <trkpt lat="42.49176167" lon="-7.99803833">
        <ele>519.0</ele>
        <time>2018-10-03T10:47:01.000Z</time>
      </trkpt>
      <trkpt lat="42.49178" lon="-7.99805">
        <ele>519.0</ele>
        <time>2018-10-03T10:47:02.000Z</time>
      </trkpt>
      <trkpt lat="42.491795" lon="-7.998055">
        <ele>519.0</ele>
        <time>2018-10-03T10:47:03.000Z</time>
      </trkpt>
      <trkpt lat="42.49180833" lon="-7.99805667">
        <ele>519.0</ele>
        <time>2018-10-03T10:47:04.000Z</time>
      </trkpt>
      <trkpt lat="42.49181667" lon="-7.99805833">
        <ele>518.0</ele>
        <time>2018-10-03T10:47:05.000Z</time>
      </trkpt>
      <trkpt lat="42.491825" lon="-7.998065">
        <ele>518.0</ele>
        <time>2018-10-03T10:47:06.000Z</time>
      </trkpt>
      <trkpt lat="42.491835" lon="-7.99807333">
        <ele>518.0</ele>
        <time>2018-10-03T10:47:07.000Z</time>
      </trkpt>
      <trkpt lat="42.49185167" lon="-7.998085">
        <ele>518.0</ele>
        <time>2018-10-03T10:47:08.000Z</time>
      </trkpt>
      <trkpt lat="42.49186833" lon="-7.99809667">
        <ele>517.0</ele>
        <time>2018-10-03T10:47:09.000Z</time>
      </trkpt>
      <trkpt lat="42.49188667" lon="-7.99810167">
        <ele>517.0</ele>
        <time>2018-10-03T10:47:10.000Z</time>
      </trkpt>
      <trkpt lat="42.49190667" lon="-7.9981">
        <ele>517.0</ele>
        <time>2018-10-03T10:47:11.000Z</time>
      </trkpt>
      <trkpt lat="42.49192167" lon="-7.99809167">
        <ele>517.0</ele>
        <time>2018-10-03T10:47:12.000Z</time>
      </trkpt>
      <trkpt lat="42.491935" lon="-7.99808333">
        <ele>517.0</ele>
        <time>2018-10-03T10:47:13.000Z</time>
      </trkpt>
      <trkpt lat="42.49194667" lon="-7.99807667">
        <ele>517.0</ele>
        <time>2018-10-03T10:47:14.000Z</time>
      </trkpt>
      <trkpt lat="42.49195333" lon="-7.99807167">
        <ele>517.0</ele>
        <time>2018-10-03T10:47:15.000Z</time>
      </trkpt>
      <trkpt lat="42.49196333" lon="-7.99806667">
        <ele>517.0</ele>
        <time>2018-10-03T10:47:16.000Z</time>
      </trkpt>
      <trkpt lat="42.49197333" lon="-7.99805667">
        <ele>517.0</ele>
        <time>2018-10-03T10:47:17.000Z</time>
      </trkpt>
      <trkpt lat="42.49198167" lon="-7.99804667">
        <ele>516.0</ele>
        <time>2018-10-03T10:47:18.000Z</time>
      </trkpt>
      <trkpt lat="42.49199333" lon="-7.99803667">
        <ele>516.0</ele>
        <time>2018-10-03T10:47:19.000Z</time>
      </trkpt>
      <trkpt lat="42.492005" lon="-7.99802833">
        <ele>516.0</ele>
        <time>2018-10-03T10:47:20.000Z</time>
      </trkpt>
      <trkpt lat="42.49201833" lon="-7.99802">
        <ele>516.0</ele>
        <time>2018-10-03T10:47:21.000Z</time>
      </trkpt>
      <trkpt lat="42.49203" lon="-7.99801167">
        <ele>516.0</ele>
        <time>2018-10-03T10:47:22.000Z</time>
      </trkpt>
      <trkpt lat="42.49204" lon="-7.99800333">
        <ele>516.0</ele>
        <time>2018-10-03T10:47:23.000Z</time>
      </trkpt>
      <trkpt lat="42.49205" lon="-7.99799">
        <ele>516.0</ele>
        <time>2018-10-03T10:47:24.000Z</time>
      </trkpt>
      <trkpt lat="42.49205833" lon="-7.99797167">
        <ele>516.0</ele>
        <time>2018-10-03T10:47:25.000Z</time>
      </trkpt>
      <trkpt lat="42.49207" lon="-7.99795167">
        <ele>516.0</ele>
        <time>2018-10-03T10:47:26.000Z</time>
      </trkpt>
      <trkpt lat="42.49208333" lon="-7.99793167">
        <ele>516.0</ele>
        <time>2018-10-03T10:47:27.000Z</time>
      </trkpt>
      <trkpt lat="42.49209833" lon="-7.99791667">
        <ele>516.0</ele>
        <time>2018-10-03T10:47:28.000Z</time>
      </trkpt>
      <trkpt lat="42.49211167" lon="-7.99791333">
        <ele>516.0</ele>
        <time>2018-10-03T10:47:29.000Z</time>
      </trkpt>
      <trkpt lat="42.49212667" lon="-7.99790667">
        <ele>515.0</ele>
        <time>2018-10-03T10:47:30.000Z</time>
      </trkpt>
      <trkpt lat="42.49213833" lon="-7.997895">
        <ele>515.0</ele>
        <time>2018-10-03T10:47:31.000Z</time>
      </trkpt>
      <trkpt lat="42.49215333" lon="-7.99788333">
        <ele>515.0</ele>
        <time>2018-10-03T10:47:32.000Z</time>
      </trkpt>
      <trkpt lat="42.49217" lon="-7.99786833">
        <ele>515.0</ele>
        <time>2018-10-03T10:47:33.000Z</time>
      </trkpt>
      <trkpt lat="42.49218833" lon="-7.99785333">
        <ele>515.0</ele>
        <time>2018-10-03T10:47:34.000Z</time>
      </trkpt>
      <trkpt lat="42.49220667" lon="-7.99784667">
        <ele>515.0</ele>
        <time>2018-10-03T10:47:35.000Z</time>
      </trkpt>
      <trkpt lat="42.492225" lon="-7.99783667">
        <ele>514.0</ele>
        <time>2018-10-03T10:47:36.000Z</time>
      </trkpt>
      <trkpt lat="42.49224333" lon="-7.99782833">
        <ele>514.0</ele>
        <time>2018-10-03T10:47:37.000Z</time>
      </trkpt>
      <trkpt lat="42.49226167" lon="-7.99781667">
        <ele>514.0</ele>
        <time>2018-10-03T10:47:38.000Z</time>
      </trkpt>
      <trkpt lat="42.49228" lon="-7.99780167">
        <ele>514.0</ele>
        <time>2018-10-03T10:47:39.000Z</time>
      </trkpt>
      <trkpt lat="42.49229833" lon="-7.99778167">
        <ele>514.0</ele>
        <time>2018-10-03T10:47:40.000Z</time>
      </trkpt>
      <trkpt lat="42.492315" lon="-7.99776667">
        <ele>514.0</ele>
        <time>2018-10-03T10:47:41.000Z</time>
      </trkpt>
      <trkpt lat="42.49233333" lon="-7.99775333">
        <ele>514.0</ele>
        <time>2018-10-03T10:47:42.000Z</time>
      </trkpt>
      <trkpt lat="42.49235167" lon="-7.99774">
        <ele>514.0</ele>
        <time>2018-10-03T10:47:43.000Z</time>
      </trkpt>
      <trkpt lat="42.49236333" lon="-7.997725">
        <ele>514.0</ele>
        <time>2018-10-03T10:47:44.000Z</time>
      </trkpt>
      <trkpt lat="42.49237833" lon="-7.99771167">
        <ele>514.0</ele>
        <time>2018-10-03T10:47:45.000Z</time>
      </trkpt>
      <trkpt lat="42.49239" lon="-7.99769667">
        <ele>513.0</ele>
        <time>2018-10-03T10:47:46.000Z</time>
      </trkpt>
      <trkpt lat="42.49239833" lon="-7.997685">
        <ele>513.0</ele>
        <time>2018-10-03T10:47:47.000Z</time>
      </trkpt>
      <trkpt lat="42.49240667" lon="-7.99767667">
        <ele>513.0</ele>
        <time>2018-10-03T10:47:48.000Z</time>
      </trkpt>
      <trkpt lat="42.49241667" lon="-7.99766833">
        <ele>513.0</ele>
        <time>2018-10-03T10:47:49.000Z</time>
      </trkpt>
      <trkpt lat="42.49242833" lon="-7.99766">
        <ele>513.0</ele>
        <time>2018-10-03T10:47:50.000Z</time>
      </trkpt>
      <trkpt lat="42.49244" lon="-7.99764833">
        <ele>513.0</ele>
        <time>2018-10-03T10:47:51.000Z</time>
      </trkpt>
      <trkpt lat="42.49245" lon="-7.997635">
        <ele>513.0</ele>
        <time>2018-10-03T10:47:52.000Z</time>
      </trkpt>
      <trkpt lat="42.49246167" lon="-7.99761833">
        <ele>512.0</ele>
        <time>2018-10-03T10:47:53.000Z</time>
      </trkpt>
      <trkpt lat="42.492475" lon="-7.997605">
        <ele>512.0</ele>
        <time>2018-10-03T10:47:54.000Z</time>
      </trkpt>
      <trkpt lat="42.492485" lon="-7.99759333">
        <ele>512.0</ele>
        <time>2018-10-03T10:47:55.000Z</time>
      </trkpt>
      <trkpt lat="42.49249833" lon="-7.99758">
        <ele>512.0</ele>
        <time>2018-10-03T10:47:56.000Z</time>
      </trkpt>
      <trkpt lat="42.49251333" lon="-7.99757">
        <ele>511.0</ele>
        <time>2018-10-03T10:47:57.000Z</time>
      </trkpt>
      <trkpt lat="42.49253" lon="-7.99755833">
        <ele>511.0</ele>
        <time>2018-10-03T10:47:58.000Z</time>
      </trkpt>
      <trkpt lat="42.492545" lon="-7.99754667">
        <ele>511.0</ele>
        <time>2018-10-03T10:47:59.000Z</time>
      </trkpt>
      <trkpt lat="42.49255833" lon="-7.99753333">
        <ele>511.0</ele>
        <time>2018-10-03T10:48:00.000Z</time>
      </trkpt>
      <trkpt lat="42.49257167" lon="-7.99752167">
        <ele>511.0</ele>
        <time>2018-10-03T10:48:01.000Z</time>
      </trkpt>
      <trkpt lat="42.492585" lon="-7.99751">
        <ele>511.0</ele>
        <time>2018-10-03T10:48:02.000Z</time>
      </trkpt>
      <trkpt lat="42.49259667" lon="-7.99750333">
        <ele>511.0</ele>
        <time>2018-10-03T10:48:03.000Z</time>
      </trkpt>
      <trkpt lat="42.492605" lon="-7.99749833">
        <ele>511.0</ele>
        <time>2018-10-03T10:48:04.000Z</time>
      </trkpt>
      <trkpt lat="42.49261167" lon="-7.997495">
        <ele>511.0</ele>
        <time>2018-10-03T10:48:05.000Z</time>
      </trkpt>
      <trkpt lat="42.49262" lon="-7.997495">
        <ele>510.0</ele>
        <time>2018-10-03T10:48:06.000Z</time>
      </trkpt>
      <trkpt lat="42.49262833" lon="-7.99749333">
        <ele>510.0</ele>
        <time>2018-10-03T10:48:07.000Z</time>
      </trkpt>
      <trkpt lat="42.49263833" lon="-7.997495">
        <ele>510.0</ele>
        <time>2018-10-03T10:48:08.000Z</time>
      </trkpt>
      <trkpt lat="42.49265" lon="-7.99749833">
        <ele>510.0</ele>
        <time>2018-10-03T10:48:09.000Z</time>
      </trkpt>
      <trkpt lat="42.49266167" lon="-7.99750667">
        <ele>509.0</ele>
        <time>2018-10-03T10:48:10.000Z</time>
      </trkpt>
      <trkpt lat="42.49267333" lon="-7.99751833">
        <ele>509.0</ele>
        <time>2018-10-03T10:48:11.000Z</time>
      </trkpt>
      <trkpt lat="42.49269" lon="-7.99753167">
        <ele>509.0</ele>
        <time>2018-10-03T10:48:12.000Z</time>
      </trkpt>
      <trkpt lat="42.49271" lon="-7.99754667">
        <ele>509.0</ele>
        <time>2018-10-03T10:48:13.000Z</time>
      </trkpt>
      <trkpt lat="42.49273" lon="-7.99756167">
        <ele>508.0</ele>
        <time>2018-10-03T10:48:14.000Z</time>
      </trkpt>
      <trkpt lat="42.49274833" lon="-7.997575">
        <ele>508.0</ele>
        <time>2018-10-03T10:48:15.000Z</time>
      </trkpt>
      <trkpt lat="42.492765" lon="-7.99758667">
        <ele>508.0</ele>
        <time>2018-10-03T10:48:16.000Z</time>
      </trkpt>
      <trkpt lat="42.49277667" lon="-7.99759167">
        <ele>508.0</ele>
        <time>2018-10-03T10:48:17.000Z</time>
      </trkpt>
      <trkpt lat="42.49278667" lon="-7.99759333">
        <ele>508.0</ele>
        <time>2018-10-03T10:48:18.000Z</time>
      </trkpt>
      <trkpt lat="42.49279167" lon="-7.9976">
        <ele>507.0</ele>
        <time>2018-10-03T10:48:19.000Z</time>
      </trkpt>
      <trkpt lat="42.49279667" lon="-7.99761167">
        <ele>507.0</ele>
        <time>2018-10-03T10:48:20.000Z</time>
      </trkpt>
      <trkpt lat="42.49280167" lon="-7.997625">
        <ele>506.0</ele>
        <time>2018-10-03T10:48:21.000Z</time>
      </trkpt>
      <trkpt lat="42.49281167" lon="-7.997645">
        <ele>506.0</ele>
        <time>2018-10-03T10:48:22.000Z</time>
      </trkpt>
      <trkpt lat="42.49282333" lon="-7.997665">
        <ele>506.0</ele>
        <time>2018-10-03T10:48:23.000Z</time>
      </trkpt>
      <trkpt lat="42.49283167" lon="-7.99768833">
        <ele>505.0</ele>
        <time>2018-10-03T10:48:24.000Z</time>
      </trkpt>
      <trkpt lat="42.49283667" lon="-7.99770833">
        <ele>504.0</ele>
        <time>2018-10-03T10:48:25.000Z</time>
      </trkpt>
      <trkpt lat="42.49283833" lon="-7.99772333">
        <ele>504.0</ele>
        <time>2018-10-03T10:48:26.000Z</time>
      </trkpt>
      <trkpt lat="42.49283833" lon="-7.99773833">
        <ele>503.0</ele>
        <time>2018-10-03T10:48:27.000Z</time>
      </trkpt>
      <trkpt lat="42.49284167" lon="-7.99775">
        <ele>503.0</ele>
        <time>2018-10-03T10:48:28.000Z</time>
      </trkpt>
      <trkpt lat="42.49284667" lon="-7.99776833">
        <ele>502.0</ele>
        <time>2018-10-03T10:48:29.000Z</time>
      </trkpt>
      <trkpt lat="42.492855" lon="-7.99778833">
        <ele>501.0</ele>
        <time>2018-10-03T10:48:30.000Z</time>
      </trkpt>
      <trkpt lat="42.49287333" lon="-7.997815">
        <ele>501.0</ele>
        <time>2018-10-03T10:48:31.000Z</time>
      </trkpt>
      <trkpt lat="42.49289167" lon="-7.997845">
        <ele>500.0</ele>
        <time>2018-10-03T10:48:32.000Z</time>
      </trkpt>
      <trkpt lat="42.49290667" lon="-7.99787333">
        <ele>500.0</ele>
        <time>2018-10-03T10:48:33.000Z</time>
      </trkpt>
      <trkpt lat="42.49291833" lon="-7.99789833">
        <ele>500.0</ele>
        <time>2018-10-03T10:48:34.000Z</time>
      </trkpt>
      <trkpt lat="42.492925" lon="-7.99791667">
        <ele>499.0</ele>
        <time>2018-10-03T10:48:35.000Z</time>
      </trkpt>
      <trkpt lat="42.49292833" lon="-7.99793333">
        <ele>499.0</ele>
        <time>2018-10-03T10:48:36.000Z</time>
      </trkpt>
      <trkpt lat="42.49293667" lon="-7.99795167">
        <ele>499.0</ele>
        <time>2018-10-03T10:48:37.000Z</time>
      </trkpt>
      <trkpt lat="42.49295" lon="-7.99797167">
        <ele>499.0</ele>
        <time>2018-10-03T10:48:38.000Z</time>
      </trkpt>
      <trkpt lat="42.49296167" lon="-7.99799333">
        <ele>498.0</ele>
        <time>2018-10-03T10:48:39.000Z</time>
      </trkpt>
      <trkpt lat="42.49297" lon="-7.99801">
        <ele>498.0</ele>
        <time>2018-10-03T10:48:40.000Z</time>
      </trkpt>
      <trkpt lat="42.49297667" lon="-7.99802667">
        <ele>498.0</ele>
        <time>2018-10-03T10:48:41.000Z</time>
      </trkpt>
      <trkpt lat="42.49298333" lon="-7.99804167">
        <ele>498.0</ele>
        <time>2018-10-03T10:48:42.000Z</time>
      </trkpt>
      <trkpt lat="42.49299333" lon="-7.998055">
        <ele>498.0</ele>
        <time>2018-10-03T10:48:43.000Z</time>
      </trkpt>
      <trkpt lat="42.49300333" lon="-7.99807333">
        <ele>498.0</ele>
        <time>2018-10-03T10:48:44.000Z</time>
      </trkpt>
      <trkpt lat="42.49301667" lon="-7.998095">
        <ele>498.0</ele>
        <time>2018-10-03T10:48:45.000Z</time>
      </trkpt>
      <trkpt lat="42.49303" lon="-7.998115">
        <ele>498.0</ele>
        <time>2018-10-03T10:48:46.000Z</time>
      </trkpt>
      <trkpt lat="42.49304333" lon="-7.99813667">
        <ele>498.0</ele>
        <time>2018-10-03T10:48:47.000Z</time>
      </trkpt>
      <trkpt lat="42.49305167" lon="-7.998155">
        <ele>497.0</ele>
        <time>2018-10-03T10:48:48.000Z</time>
      </trkpt>
      <trkpt lat="42.49306" lon="-7.99817333">
        <ele>497.0</ele>
        <time>2018-10-03T10:48:49.000Z</time>
      </trkpt>
      <trkpt lat="42.49306667" lon="-7.99818833">
        <ele>497.0</ele>
        <time>2018-10-03T10:48:50.000Z</time>
      </trkpt>
      <trkpt lat="42.49307333" lon="-7.998205">
        <ele>497.0</ele>
        <time>2018-10-03T10:48:51.000Z</time>
      </trkpt>
      <trkpt lat="42.49308167" lon="-7.99822167">
        <ele>497.0</ele>
        <time>2018-10-03T10:48:52.000Z</time>
      </trkpt>
      <trkpt lat="42.49309333" lon="-7.99824333">
        <ele>496.0</ele>
        <time>2018-10-03T10:48:53.000Z</time>
      </trkpt>
      <trkpt lat="42.49310167" lon="-7.998265">
        <ele>496.0</ele>
        <time>2018-10-03T10:48:54.000Z</time>
      </trkpt>
      <trkpt lat="42.49311" lon="-7.99828333">
        <ele>496.0</ele>
        <time>2018-10-03T10:48:55.000Z</time>
      </trkpt>
      <trkpt lat="42.49311333" lon="-7.9983">
        <ele>496.0</ele>
        <time>2018-10-03T10:48:56.000Z</time>
      </trkpt>
      <trkpt lat="42.49311333" lon="-7.99831333">
        <ele>495.0</ele>
        <time>2018-10-03T10:48:57.000Z</time>
      </trkpt>
      <trkpt lat="42.49311667" lon="-7.99832667">
        <ele>495.0</ele>
        <time>2018-10-03T10:48:58.000Z</time>
      </trkpt>
      <trkpt lat="42.49312167" lon="-7.99834333">
        <ele>495.0</ele>
        <time>2018-10-03T10:48:59.000Z</time>
      </trkpt>
      <trkpt lat="42.49313" lon="-7.99836333">
        <ele>495.0</ele>
        <time>2018-10-03T10:49:00.000Z</time>
      </trkpt>
      <trkpt lat="42.49313833" lon="-7.99838833">
        <ele>494.0</ele>
        <time>2018-10-03T10:49:01.000Z</time>
      </trkpt>
      <trkpt lat="42.49315" lon="-7.998415">
        <ele>494.0</ele>
        <time>2018-10-03T10:49:02.000Z</time>
      </trkpt>
      <trkpt lat="42.49316167" lon="-7.99844167">
        <ele>494.0</ele>
        <time>2018-10-03T10:49:03.000Z</time>
      </trkpt>
      <trkpt lat="42.49316833" lon="-7.99846667">
        <ele>494.0</ele>
        <time>2018-10-03T10:49:04.000Z</time>
      </trkpt>
      <trkpt lat="42.49317333" lon="-7.99849">
        <ele>494.0</ele>
        <time>2018-10-03T10:49:05.000Z</time>
      </trkpt>
      <trkpt lat="42.493175" lon="-7.99850833">
        <ele>494.0</ele>
        <time>2018-10-03T10:49:06.000Z</time>
      </trkpt>
      <trkpt lat="42.49318" lon="-7.99852833">
        <ele>494.0</ele>
        <time>2018-10-03T10:49:07.000Z</time>
      </trkpt>
      <trkpt lat="42.49318833" lon="-7.99855">
        <ele>494.0</ele>
        <time>2018-10-03T10:49:08.000Z</time>
      </trkpt>
      <trkpt lat="42.49319833" lon="-7.99857333">
        <ele>493.0</ele>
        <time>2018-10-03T10:49:09.000Z</time>
      </trkpt>
      <trkpt lat="42.49321" lon="-7.99860333">
        <ele>493.0</ele>
        <time>2018-10-03T10:49:10.000Z</time>
      </trkpt>
      <trkpt lat="42.49322" lon="-7.99863167">
        <ele>494.0</ele>
        <time>2018-10-03T10:49:11.000Z</time>
      </trkpt>
      <trkpt lat="42.49322833" lon="-7.99865667">
        <ele>494.0</ele>
        <time>2018-10-03T10:49:12.000Z</time>
      </trkpt>
      <trkpt lat="42.493235" lon="-7.99868">
        <ele>494.0</ele>
        <time>2018-10-03T10:49:13.000Z</time>
      </trkpt>
      <trkpt lat="42.49323833" lon="-7.99870167">
        <ele>494.0</ele>
        <time>2018-10-03T10:49:14.000Z</time>
      </trkpt>
      <trkpt lat="42.49324167" lon="-7.99872">
        <ele>494.0</ele>
        <time>2018-10-03T10:49:15.000Z</time>
      </trkpt>
      <trkpt lat="42.49325" lon="-7.99873667">
        <ele>494.0</ele>
        <time>2018-10-03T10:49:16.000Z</time>
      </trkpt>
      <trkpt lat="42.49326333" lon="-7.998755">
        <ele>494.0</ele>
        <time>2018-10-03T10:49:17.000Z</time>
      </trkpt>
      <trkpt lat="42.49327667" lon="-7.99877333">
        <ele>494.0</ele>
        <time>2018-10-03T10:49:18.000Z</time>
      </trkpt>
      <trkpt lat="42.49328667" lon="-7.998795">
        <ele>494.0</ele>
        <time>2018-10-03T10:49:19.000Z</time>
      </trkpt>
      <trkpt lat="42.49329333" lon="-7.99881333">
        <ele>494.0</ele>
        <time>2018-10-03T10:49:20.000Z</time>
      </trkpt>
      <trkpt lat="42.49329833" lon="-7.99882833">
        <ele>493.0</ele>
        <time>2018-10-03T10:49:21.000Z</time>
      </trkpt>
      <trkpt lat="42.49330667" lon="-7.998845">
        <ele>493.0</ele>
        <time>2018-10-03T10:49:22.000Z</time>
      </trkpt>
      <trkpt lat="42.49331667" lon="-7.99886167">
        <ele>493.0</ele>
        <time>2018-10-03T10:49:23.000Z</time>
      </trkpt>
      <trkpt lat="42.49332667" lon="-7.99888">
        <ele>493.0</ele>
        <time>2018-10-03T10:49:24.000Z</time>
      </trkpt>
      <trkpt lat="42.49333667" lon="-7.99889833">
        <ele>493.0</ele>
        <time>2018-10-03T10:49:25.000Z</time>
      </trkpt>
      <trkpt lat="42.49334667" lon="-7.99891667">
        <ele>493.0</ele>
        <time>2018-10-03T10:49:26.000Z</time>
      </trkpt>
      <trkpt lat="42.49335167" lon="-7.998935">
        <ele>493.0</ele>
        <time>2018-10-03T10:49:27.000Z</time>
      </trkpt>
      <trkpt lat="42.49335333" lon="-7.99895167">
        <ele>493.0</ele>
        <time>2018-10-03T10:49:28.000Z</time>
      </trkpt>
      <trkpt lat="42.493355" lon="-7.99896833">
        <ele>493.0</ele>
        <time>2018-10-03T10:49:29.000Z</time>
      </trkpt>
      <trkpt lat="42.49335833" lon="-7.99898167">
        <ele>493.0</ele>
        <time>2018-10-03T10:49:30.000Z</time>
      </trkpt>
      <trkpt lat="42.49336167" lon="-7.99899">
        <ele>493.0</ele>
        <time>2018-10-03T10:49:31.000Z</time>
      </trkpt>
      <trkpt lat="42.49336" lon="-7.999">
        <ele>493.0</ele>
        <time>2018-10-03T10:49:32.000Z</time>
      </trkpt>
      <trkpt lat="42.49336167" lon="-7.99901333">
        <ele>493.0</ele>
        <time>2018-10-03T10:49:33.000Z</time>
      </trkpt>
      <trkpt lat="42.49336667" lon="-7.99903">
        <ele>493.0</ele>
        <time>2018-10-03T10:49:34.000Z</time>
      </trkpt>
      <trkpt lat="42.49337667" lon="-7.99904833">
        <ele>493.0</ele>
        <time>2018-10-03T10:49:35.000Z</time>
      </trkpt>
      <trkpt lat="42.49338833" lon="-7.999065">
        <ele>493.0</ele>
        <time>2018-10-03T10:49:36.000Z</time>
      </trkpt>
      <trkpt lat="42.49340167" lon="-7.99908">
        <ele>493.0</ele>
        <time>2018-10-03T10:49:37.000Z</time>
      </trkpt>
      <trkpt lat="42.49341667" lon="-7.99909333">
        <ele>493.0</ele>
        <time>2018-10-03T10:49:38.000Z</time>
      </trkpt>
      <trkpt lat="42.49343" lon="-7.99910667">
        <ele>493.0</ele>
        <time>2018-10-03T10:49:39.000Z</time>
      </trkpt>
      <trkpt lat="42.49344" lon="-7.99912167">
        <ele>493.0</ele>
        <time>2018-10-03T10:49:40.000Z</time>
      </trkpt>
      <trkpt lat="42.49345333" lon="-7.99914">
        <ele>493.0</ele>
        <time>2018-10-03T10:49:41.000Z</time>
      </trkpt>
      <trkpt lat="42.49346" lon="-7.99915667">
        <ele>493.0</ele>
        <time>2018-10-03T10:49:42.000Z</time>
      </trkpt>
      <trkpt lat="42.49347167" lon="-7.99917167">
        <ele>493.0</ele>
        <time>2018-10-03T10:49:43.000Z</time>
      </trkpt>
      <trkpt lat="42.49348333" lon="-7.99918667">
        <ele>493.0</ele>
        <time>2018-10-03T10:49:44.000Z</time>
      </trkpt>
      <trkpt lat="42.49349833" lon="-7.9992">
        <ele>493.0</ele>
        <time>2018-10-03T10:49:45.000Z</time>
      </trkpt>
      <trkpt lat="42.49351333" lon="-7.999215">
        <ele>493.0</ele>
        <time>2018-10-03T10:49:46.000Z</time>
      </trkpt>
      <trkpt lat="42.49352833" lon="-7.99923167">
        <ele>494.0</ele>
        <time>2018-10-03T10:49:47.000Z</time>
      </trkpt>
      <trkpt lat="42.49354" lon="-7.99924667">
        <ele>494.0</ele>
        <time>2018-10-03T10:49:48.000Z</time>
      </trkpt>
      <trkpt lat="42.49355" lon="-7.99926">
        <ele>494.0</ele>
        <time>2018-10-03T10:49:49.000Z</time>
      </trkpt>
      <trkpt lat="42.49356" lon="-7.99927167">
        <ele>494.0</ele>
        <time>2018-10-03T10:49:50.000Z</time>
      </trkpt>
      <trkpt lat="42.49357333" lon="-7.99928667">
        <ele>494.0</ele>
        <time>2018-10-03T10:49:51.000Z</time>
      </trkpt>
      <trkpt lat="42.49358667" lon="-7.99930333">
        <ele>494.0</ele>
        <time>2018-10-03T10:49:52.000Z</time>
      </trkpt>
      <trkpt lat="42.49360167" lon="-7.99932">
        <ele>494.0</ele>
        <time>2018-10-03T10:49:53.000Z</time>
      </trkpt>
      <trkpt lat="42.49362" lon="-7.99933333">
        <ele>494.0</ele>
        <time>2018-10-03T10:49:54.000Z</time>
      </trkpt>
      <trkpt lat="42.493635" lon="-7.99934167">
        <ele>494.0</ele>
        <time>2018-10-03T10:49:55.000Z</time>
      </trkpt>
      <trkpt lat="42.49365" lon="-7.99935">
        <ele>494.0</ele>
        <time>2018-10-03T10:49:56.000Z</time>
      </trkpt>
      <trkpt lat="42.493665" lon="-7.99936">
        <ele>495.0</ele>
        <time>2018-10-03T10:49:57.000Z</time>
      </trkpt>
      <trkpt lat="42.49367833" lon="-7.99936667">
        <ele>495.0</ele>
        <time>2018-10-03T10:49:58.000Z</time>
      </trkpt>
      <trkpt lat="42.493695" lon="-7.99937167">
        <ele>495.0</ele>
        <time>2018-10-03T10:49:59.000Z</time>
      </trkpt>
      <trkpt lat="42.49371" lon="-7.99937167">
        <ele>495.0</ele>
        <time>2018-10-03T10:50:00.000Z</time>
      </trkpt>
      <trkpt lat="42.49372833" lon="-7.999375">
        <ele>495.0</ele>
        <time>2018-10-03T10:50:01.000Z</time>
      </trkpt>
      <trkpt lat="42.49374667" lon="-7.999375">
        <ele>495.0</ele>
        <time>2018-10-03T10:50:02.000Z</time>
      </trkpt>
      <trkpt lat="42.493765" lon="-7.999375">
        <ele>495.0</ele>
        <time>2018-10-03T10:50:03.000Z</time>
      </trkpt>
      <trkpt lat="42.49378" lon="-7.99938167">
        <ele>496.0</ele>
        <time>2018-10-03T10:50:04.000Z</time>
      </trkpt>
      <trkpt lat="42.493795" lon="-7.99938833">
        <ele>496.0</ele>
        <time>2018-10-03T10:50:05.000Z</time>
      </trkpt>
      <trkpt lat="42.493805" lon="-7.99939667">
        <ele>496.0</ele>
        <time>2018-10-03T10:50:06.000Z</time>
      </trkpt>
      <trkpt lat="42.49381333" lon="-7.99940667">
        <ele>496.0</ele>
        <time>2018-10-03T10:50:07.000Z</time>
      </trkpt>
      <trkpt lat="42.49381833" lon="-7.99941833">
        <ele>497.0</ele>
        <time>2018-10-03T10:50:08.000Z</time>
      </trkpt>
      <trkpt lat="42.49382333" lon="-7.99943167">
        <ele>497.0</ele>
        <time>2018-10-03T10:50:09.000Z</time>
      </trkpt>
      <trkpt lat="42.493825" lon="-7.99944667">
        <ele>497.0</ele>
        <time>2018-10-03T10:50:10.000Z</time>
      </trkpt>
      <trkpt lat="42.49382667" lon="-7.999465">
        <ele>497.0</ele>
        <time>2018-10-03T10:50:11.000Z</time>
      </trkpt>
      <trkpt lat="42.493825" lon="-7.99948833">
        <ele>497.0</ele>
        <time>2018-10-03T10:50:12.000Z</time>
      </trkpt>
      <trkpt lat="42.493825" lon="-7.99950667">
        <ele>497.0</ele>
        <time>2018-10-03T10:50:13.000Z</time>
      </trkpt>
      <trkpt lat="42.493825" lon="-7.99952333">
        <ele>497.0</ele>
        <time>2018-10-03T10:50:14.000Z</time>
      </trkpt>
      <trkpt lat="42.49382333" lon="-7.99953333">
        <ele>497.0</ele>
        <time>2018-10-03T10:50:15.000Z</time>
      </trkpt>
      <trkpt lat="42.49382167" lon="-7.99954">
        <ele>497.0</ele>
        <time>2018-10-03T10:50:16.000Z</time>
      </trkpt>
      <trkpt lat="42.49381833" lon="-7.99954667">
        <ele>498.0</ele>
        <time>2018-10-03T10:50:17.000Z</time>
      </trkpt>
      <trkpt lat="42.493815" lon="-7.99955667">
        <ele>498.0</ele>
        <time>2018-10-03T10:50:18.000Z</time>
      </trkpt>
      <trkpt lat="42.49381167" lon="-7.99957167">
        <ele>498.0</ele>
        <time>2018-10-03T10:50:19.000Z</time>
      </trkpt>
      <trkpt lat="42.49381167" lon="-7.99958833">
        <ele>498.0</ele>
        <time>2018-10-03T10:50:20.000Z</time>
      </trkpt>
      <trkpt lat="42.49381167" lon="-7.99960667">
        <ele>498.0</ele>
        <time>2018-10-03T10:50:21.000Z</time>
      </trkpt>
      <trkpt lat="42.49381333" lon="-7.99962667">
        <ele>498.0</ele>
        <time>2018-10-03T10:50:22.000Z</time>
      </trkpt>
      <trkpt lat="42.49381833" lon="-7.99964833">
        <ele>498.0</ele>
        <time>2018-10-03T10:50:23.000Z</time>
      </trkpt>
      <trkpt lat="42.49382333" lon="-7.99967">
        <ele>498.0</ele>
        <time>2018-10-03T10:50:24.000Z</time>
      </trkpt>
      <trkpt lat="42.49382833" lon="-7.99969167">
        <ele>498.0</ele>
        <time>2018-10-03T10:50:25.000Z</time>
      </trkpt>
      <trkpt lat="42.49383167" lon="-7.99970833">
        <ele>499.0</ele>
        <time>2018-10-03T10:50:26.000Z</time>
      </trkpt>
      <trkpt lat="42.49383833" lon="-7.99972333">
        <ele>499.0</ele>
        <time>2018-10-03T10:50:27.000Z</time>
      </trkpt>
      <trkpt lat="42.49384333" lon="-7.999735">
        <ele>499.0</ele>
        <time>2018-10-03T10:50:28.000Z</time>
      </trkpt>
      <trkpt lat="42.49384667" lon="-7.99974833">
        <ele>499.0</ele>
        <time>2018-10-03T10:50:29.000Z</time>
      </trkpt>
      <trkpt lat="42.49385167" lon="-7.99976167">
        <ele>499.0</ele>
        <time>2018-10-03T10:50:30.000Z</time>
      </trkpt>
      <trkpt lat="42.49386" lon="-7.99977667">
        <ele>499.0</ele>
        <time>2018-10-03T10:50:31.000Z</time>
      </trkpt>
      <trkpt lat="42.49387167" lon="-7.99979333">
        <ele>499.0</ele>
        <time>2018-10-03T10:50:32.000Z</time>
      </trkpt>
      <trkpt lat="42.49388667" lon="-7.99981167">
        <ele>499.0</ele>
        <time>2018-10-03T10:50:33.000Z</time>
      </trkpt>
      <trkpt lat="42.49390333" lon="-7.99982667">
        <ele>500.0</ele>
        <time>2018-10-03T10:50:34.000Z</time>
      </trkpt>
      <trkpt lat="42.49392167" lon="-7.99984333">
        <ele>500.0</ele>
        <time>2018-10-03T10:50:35.000Z</time>
      </trkpt>
      <trkpt lat="42.49393833" lon="-7.99985667">
        <ele>500.0</ele>
        <time>2018-10-03T10:50:36.000Z</time>
      </trkpt>
      <trkpt lat="42.49395333" lon="-7.999865">
        <ele>500.0</ele>
        <time>2018-10-03T10:50:37.000Z</time>
      </trkpt>
      <trkpt lat="42.49396667" lon="-7.99987333">
        <ele>501.0</ele>
        <time>2018-10-03T10:50:38.000Z</time>
      </trkpt>
      <trkpt lat="42.49397667" lon="-7.99988">
        <ele>501.0</ele>
        <time>2018-10-03T10:50:39.000Z</time>
      </trkpt>
      <trkpt lat="42.49399" lon="-7.99988667">
        <ele>501.0</ele>
        <time>2018-10-03T10:50:40.000Z</time>
      </trkpt>
      <trkpt lat="42.49400167" lon="-7.99989167">
        <ele>501.0</ele>
        <time>2018-10-03T10:50:41.000Z</time>
      </trkpt>
      <trkpt lat="42.49401167" lon="-7.99989167">
        <ele>502.0</ele>
        <time>2018-10-03T10:50:42.000Z</time>
      </trkpt>
      <trkpt lat="42.49402" lon="-7.99989333">
        <ele>502.0</ele>
        <time>2018-10-03T10:50:43.000Z</time>
      </trkpt>
      <trkpt lat="42.49403" lon="-7.99989833">
        <ele>502.0</ele>
        <time>2018-10-03T10:50:44.000Z</time>
      </trkpt>
      <trkpt lat="42.49403833" lon="-7.99990333">
        <ele>502.0</ele>
        <time>2018-10-03T10:50:45.000Z</time>
      </trkpt>
      <trkpt lat="42.49404667" lon="-7.99990833">
        <ele>502.0</ele>
        <time>2018-10-03T10:50:46.000Z</time>
      </trkpt>
      <trkpt lat="42.49405833" lon="-7.99991167">
        <ele>503.0</ele>
        <time>2018-10-03T10:50:47.000Z</time>
      </trkpt>
      <trkpt lat="42.49407" lon="-7.999915">
        <ele>503.0</ele>
        <time>2018-10-03T10:50:48.000Z</time>
      </trkpt>
      <trkpt lat="42.49408167" lon="-7.99991667">
        <ele>503.0</ele>
        <time>2018-10-03T10:50:49.000Z</time>
      </trkpt>
      <trkpt lat="42.49409833" lon="-7.999915">
        <ele>503.0</ele>
        <time>2018-10-03T10:50:50.000Z</time>
      </trkpt>
      <trkpt lat="42.49411667" lon="-7.999915">
        <ele>504.0</ele>
        <time>2018-10-03T10:50:51.000Z</time>
      </trkpt>
      <trkpt lat="42.49413167" lon="-7.99991333">
        <ele>504.0</ele>
        <time>2018-10-03T10:50:52.000Z</time>
      </trkpt>
      <trkpt lat="42.494145" lon="-7.999915">
        <ele>504.0</ele>
        <time>2018-10-03T10:50:53.000Z</time>
      </trkpt>
      <trkpt lat="42.49415833" lon="-7.99992">
        <ele>505.0</ele>
        <time>2018-10-03T10:50:54.000Z</time>
      </trkpt>
      <trkpt lat="42.49416833" lon="-7.99992667">
        <ele>505.0</ele>
        <time>2018-10-03T10:50:55.000Z</time>
      </trkpt>
      <trkpt lat="42.49418167" lon="-7.99993333">
        <ele>505.0</ele>
        <time>2018-10-03T10:50:56.000Z</time>
      </trkpt>
      <trkpt lat="42.49419333" lon="-7.99994">
        <ele>505.0</ele>
        <time>2018-10-03T10:50:57.000Z</time>
      </trkpt>
      <trkpt lat="42.49420833" lon="-7.99994167">
        <ele>506.0</ele>
        <time>2018-10-03T10:50:58.000Z</time>
      </trkpt>
      <trkpt lat="42.49422333" lon="-7.99994167">
        <ele>506.0</ele>
        <time>2018-10-03T10:50:59.000Z</time>
      </trkpt>
      <trkpt lat="42.49423833" lon="-7.99993833">
        <ele>506.0</ele>
        <time>2018-10-03T10:51:00.000Z</time>
      </trkpt>
      <trkpt lat="42.49425" lon="-7.99993667">
        <ele>507.0</ele>
        <time>2018-10-03T10:51:01.000Z</time>
      </trkpt>
      <trkpt lat="42.49425833" lon="-7.99993667">
        <ele>507.0</ele>
        <time>2018-10-03T10:51:02.000Z</time>
      </trkpt>
      <trkpt lat="42.49426833" lon="-7.99994">
        <ele>507.0</ele>
        <time>2018-10-03T10:51:03.000Z</time>
      </trkpt>
      <trkpt lat="42.49427833" lon="-7.999945">
        <ele>507.0</ele>
        <time>2018-10-03T10:51:04.000Z</time>
      </trkpt>
      <trkpt lat="42.49429167" lon="-7.99995333">
        <ele>508.0</ele>
        <time>2018-10-03T10:51:05.000Z</time>
      </trkpt>
      <trkpt lat="42.49430167" lon="-7.99995833">
        <ele>508.0</ele>
        <time>2018-10-03T10:51:06.000Z</time>
      </trkpt>
      <trkpt lat="42.49431333" lon="-7.999965">
        <ele>508.0</ele>
        <time>2018-10-03T10:51:07.000Z</time>
      </trkpt>
      <trkpt lat="42.494325" lon="-7.99997333">
        <ele>508.0</ele>
        <time>2018-10-03T10:51:08.000Z</time>
      </trkpt>
      <trkpt lat="42.494335" lon="-7.99998167">
        <ele>508.0</ele>
        <time>2018-10-03T10:51:09.000Z</time>
      </trkpt>
      <trkpt lat="42.49434167" lon="-7.99999">
        <ele>508.0</ele>
        <time>2018-10-03T10:51:10.000Z</time>
      </trkpt>
      <trkpt lat="42.49435" lon="-8.00000333">
        <ele>508.0</ele>
        <time>2018-10-03T10:51:11.000Z</time>
      </trkpt>
      <trkpt lat="42.494355" lon="-8.000015">
        <ele>508.0</ele>
        <time>2018-10-03T10:51:12.000Z</time>
      </trkpt>
      <trkpt lat="42.49436" lon="-8.000025">
        <ele>509.0</ele>
        <time>2018-10-03T10:51:13.000Z</time>
      </trkpt>
      <trkpt lat="42.49436833" lon="-8.00003833">
        <ele>509.0</ele>
        <time>2018-10-03T10:51:14.000Z</time>
      </trkpt>
      <trkpt lat="42.49437833" lon="-8.00004833">
        <ele>509.0</ele>
        <time>2018-10-03T10:51:15.000Z</time>
      </trkpt>
      <trkpt lat="42.494385" lon="-8.00006">
        <ele>509.0</ele>
        <time>2018-10-03T10:51:16.000Z</time>
      </trkpt>
      <trkpt lat="42.49439167" lon="-8.00006833">
        <ele>510.0</ele>
        <time>2018-10-03T10:51:17.000Z</time>
      </trkpt>
      <trkpt lat="42.4944" lon="-8.00008167">
        <ele>510.0</ele>
        <time>2018-10-03T10:51:18.000Z</time>
      </trkpt>
      <trkpt lat="42.49440833" lon="-8.000095">
        <ele>510.0</ele>
        <time>2018-10-03T10:51:19.000Z</time>
      </trkpt>
      <trkpt lat="42.49442167" lon="-8.00011">
        <ele>510.0</ele>
        <time>2018-10-03T10:51:20.000Z</time>
      </trkpt>
      <trkpt lat="42.494435" lon="-8.00012667">
        <ele>511.0</ele>
        <time>2018-10-03T10:51:21.000Z</time>
      </trkpt>
      <trkpt lat="42.49444833" lon="-8.00013833">
        <ele>511.0</ele>
        <time>2018-10-03T10:51:22.000Z</time>
      </trkpt>
      <trkpt lat="42.49446" lon="-8.00015167">
        <ele>511.0</ele>
        <time>2018-10-03T10:51:23.000Z</time>
      </trkpt>
      <trkpt lat="42.494465" lon="-8.00015833">
        <ele>511.0</ele>
        <time>2018-10-03T10:51:24.000Z</time>
      </trkpt>
      <trkpt lat="42.49446833" lon="-8.00016333">
        <ele>512.0</ele>
        <time>2018-10-03T10:51:25.000Z</time>
      </trkpt>
      <trkpt lat="42.49447333" lon="-8.00017167">
        <ele>512.0</ele>
        <time>2018-10-03T10:51:26.000Z</time>
      </trkpt>
      <trkpt lat="42.49447833" lon="-8.00018333">
        <ele>512.0</ele>
        <time>2018-10-03T10:51:27.000Z</time>
      </trkpt>
      <trkpt lat="42.494485" lon="-8.00019333">
        <ele>512.0</ele>
        <time>2018-10-03T10:51:28.000Z</time>
      </trkpt>
      <trkpt lat="42.49449167" lon="-8.000205">
        <ele>512.0</ele>
        <time>2018-10-03T10:51:29.000Z</time>
      </trkpt>
      <trkpt lat="42.49449833" lon="-8.000215">
        <ele>512.0</ele>
        <time>2018-10-03T10:51:30.000Z</time>
      </trkpt>
      <trkpt lat="42.49450667" lon="-8.000225">
        <ele>512.0</ele>
        <time>2018-10-03T10:51:31.000Z</time>
      </trkpt>
      <trkpt lat="42.49451333" lon="-8.000235">
        <ele>512.0</ele>
        <time>2018-10-03T10:51:32.000Z</time>
      </trkpt>
      <trkpt lat="42.49452167" lon="-8.000245">
        <ele>512.0</ele>
        <time>2018-10-03T10:51:33.000Z</time>
      </trkpt>
      <trkpt lat="42.49452833" lon="-8.00025833">
        <ele>511.0</ele>
        <time>2018-10-03T10:51:34.000Z</time>
      </trkpt>
      <trkpt lat="42.49453333" lon="-8.00027167">
        <ele>511.0</ele>
        <time>2018-10-03T10:51:35.000Z</time>
      </trkpt>
      <trkpt lat="42.49454" lon="-8.00028">
        <ele>511.0</ele>
        <time>2018-10-03T10:51:36.000Z</time>
      </trkpt>
      <trkpt lat="42.49454667" lon="-8.00029167">
        <ele>511.0</ele>
        <time>2018-10-03T10:51:37.000Z</time>
      </trkpt>
      <trkpt lat="42.49455333" lon="-8.0003">
        <ele>511.0</ele>
        <time>2018-10-03T10:51:38.000Z</time>
      </trkpt>
      <trkpt lat="42.49456" lon="-8.00030833">
        <ele>511.0</ele>
        <time>2018-10-03T10:51:39.000Z</time>
      </trkpt>
      <trkpt lat="42.49456667" lon="-8.00031833">
        <ele>511.0</ele>
        <time>2018-10-03T10:51:40.000Z</time>
      </trkpt>
      <trkpt lat="42.49457333" lon="-8.00032833">
        <ele>511.0</ele>
        <time>2018-10-03T10:51:41.000Z</time>
      </trkpt>
      <trkpt lat="42.49458167" lon="-8.00034">
        <ele>511.0</ele>
        <time>2018-10-03T10:51:42.000Z</time>
      </trkpt>
      <trkpt lat="42.494585" lon="-8.00034833">
        <ele>511.0</ele>
        <time>2018-10-03T10:51:43.000Z</time>
      </trkpt>
      <trkpt lat="42.494585" lon="-8.00035167">
        <ele>511.0</ele>
        <time>2018-10-03T10:51:44.000Z</time>
      </trkpt>
      <trkpt lat="42.494585" lon="-8.00035333">
        <ele>511.0</ele>
        <time>2018-10-03T10:51:45.000Z</time>
      </trkpt>
      <trkpt lat="42.494585" lon="-8.00035833">
        <ele>511.0</ele>
        <time>2018-10-03T10:51:46.000Z</time>
      </trkpt>
      <trkpt lat="42.494585" lon="-8.000365">
        <ele>512.0</ele>
        <time>2018-10-03T10:51:47.000Z</time>
      </trkpt>
      <trkpt lat="42.49458667" lon="-8.00037667">
        <ele>512.0</ele>
        <time>2018-10-03T10:51:48.000Z</time>
      </trkpt>
      <trkpt lat="42.49459" lon="-8.00039">
        <ele>512.0</ele>
        <time>2018-10-03T10:51:49.000Z</time>
      </trkpt>
      <trkpt lat="42.49459167" lon="-8.00040333">
        <ele>512.0</ele>
        <time>2018-10-03T10:51:50.000Z</time>
      </trkpt>
      <trkpt lat="42.49459167" lon="-8.00041833">
        <ele>512.0</ele>
        <time>2018-10-03T10:51:51.000Z</time>
      </trkpt>
      <trkpt lat="42.49459333" lon="-8.00043667">
        <ele>513.0</ele>
        <time>2018-10-03T10:51:52.000Z</time>
      </trkpt>
      <trkpt lat="42.49459333" lon="-8.00045667">
        <ele>513.0</ele>
        <time>2018-10-03T10:51:53.000Z</time>
      </trkpt>
      <trkpt lat="42.49459833" lon="-8.00047667">
        <ele>514.0</ele>
        <time>2018-10-03T10:51:54.000Z</time>
      </trkpt>
      <trkpt lat="42.494605" lon="-8.00049333">
        <ele>514.0</ele>
        <time>2018-10-03T10:51:55.000Z</time>
      </trkpt>
      <trkpt lat="42.49461" lon="-8.00050333">
        <ele>514.0</ele>
        <time>2018-10-03T10:51:56.000Z</time>
      </trkpt>
      <trkpt lat="42.49461667" lon="-8.00051">
        <ele>515.0</ele>
        <time>2018-10-03T10:51:57.000Z</time>
      </trkpt>
      <trkpt lat="42.49462333" lon="-8.00051833">
        <ele>515.0</ele>
        <time>2018-10-03T10:51:58.000Z</time>
      </trkpt>
      <trkpt lat="42.49463167" lon="-8.00052833">
        <ele>515.0</ele>
        <time>2018-10-03T10:51:59.000Z</time>
      </trkpt>
      <trkpt lat="42.49463833" lon="-8.00054167">
        <ele>516.0</ele>
        <time>2018-10-03T10:52:00.000Z</time>
      </trkpt>
      <trkpt lat="42.49464667" lon="-8.00055833">
        <ele>516.0</ele>
        <time>2018-10-03T10:52:01.000Z</time>
      </trkpt>
      <trkpt lat="42.494655" lon="-8.00057833">
        <ele>516.0</ele>
        <time>2018-10-03T10:52:02.000Z</time>
      </trkpt>
      <trkpt lat="42.49466167" lon="-8.00060333">
        <ele>516.0</ele>
        <time>2018-10-03T10:52:03.000Z</time>
      </trkpt>
      <trkpt lat="42.49467" lon="-8.00062833">
        <ele>516.0</ele>
        <time>2018-10-03T10:52:04.000Z</time>
      </trkpt>
      <trkpt lat="42.49467833" lon="-8.00065333">
        <ele>517.0</ele>
        <time>2018-10-03T10:52:05.000Z</time>
      </trkpt>
      <trkpt lat="42.494685" lon="-8.00067833">
        <ele>517.0</ele>
        <time>2018-10-03T10:52:06.000Z</time>
      </trkpt>
      <trkpt lat="42.49469333" lon="-8.0007">
        <ele>517.0</ele>
        <time>2018-10-03T10:52:07.000Z</time>
      </trkpt>
      <trkpt lat="42.49470167" lon="-8.00072">
        <ele>517.0</ele>
        <time>2018-10-03T10:52:08.000Z</time>
      </trkpt>
      <trkpt lat="42.49471" lon="-8.00074333">
        <ele>517.0</ele>
        <time>2018-10-03T10:52:09.000Z</time>
      </trkpt>
      <trkpt lat="42.49471667" lon="-8.000765">
        <ele>518.0</ele>
        <time>2018-10-03T10:52:10.000Z</time>
      </trkpt>
      <trkpt lat="42.49472667" lon="-8.00078667">
        <ele>518.0</ele>
        <time>2018-10-03T10:52:11.000Z</time>
      </trkpt>
      <trkpt lat="42.49473333" lon="-8.00081">
        <ele>518.0</ele>
        <time>2018-10-03T10:52:12.000Z</time>
      </trkpt>
      <trkpt lat="42.49473667" lon="-8.00083167">
        <ele>518.0</ele>
        <time>2018-10-03T10:52:13.000Z</time>
      </trkpt>
      <trkpt lat="42.49474167" lon="-8.00085167">
        <ele>519.0</ele>
        <time>2018-10-03T10:52:14.000Z</time>
      </trkpt>
      <trkpt lat="42.49474667" lon="-8.00087">
        <ele>519.0</ele>
        <time>2018-10-03T10:52:15.000Z</time>
      </trkpt>
      <trkpt lat="42.49475" lon="-8.00089167">
        <ele>519.0</ele>
        <time>2018-10-03T10:52:16.000Z</time>
      </trkpt>
      <trkpt lat="42.49475167" lon="-8.00090833">
        <ele>520.0</ele>
        <time>2018-10-03T10:52:17.000Z</time>
      </trkpt>
      <trkpt lat="42.494755" lon="-8.00092333">
        <ele>520.0</ele>
        <time>2018-10-03T10:52:18.000Z</time>
      </trkpt>
      <trkpt lat="42.49476" lon="-8.00093833">
        <ele>520.0</ele>
        <time>2018-10-03T10:52:19.000Z</time>
      </trkpt>
      <trkpt lat="42.49476667" lon="-8.00095167">
        <ele>521.0</ele>
        <time>2018-10-03T10:52:20.000Z</time>
      </trkpt>
      <trkpt lat="42.49477167" lon="-8.00096833">
        <ele>521.0</ele>
        <time>2018-10-03T10:52:21.000Z</time>
      </trkpt>
      <trkpt lat="42.49478" lon="-8.000985">
        <ele>521.0</ele>
        <time>2018-10-03T10:52:22.000Z</time>
      </trkpt>
      <trkpt lat="42.49478667" lon="-8.00099833">
        <ele>522.0</ele>
        <time>2018-10-03T10:52:23.000Z</time>
      </trkpt>
      <trkpt lat="42.494795" lon="-8.00101167">
        <ele>522.0</ele>
        <time>2018-10-03T10:52:24.000Z</time>
      </trkpt>
      <trkpt lat="42.49480667" lon="-8.00102333">
        <ele>522.0</ele>
        <time>2018-10-03T10:52:25.000Z</time>
      </trkpt>
      <trkpt lat="42.49481667" lon="-8.00103667">
        <ele>523.0</ele>
        <time>2018-10-03T10:52:26.000Z</time>
      </trkpt>
      <trkpt lat="42.494825" lon="-8.00105167">
        <ele>523.0</ele>
        <time>2018-10-03T10:52:27.000Z</time>
      </trkpt>
      <trkpt lat="42.49483167" lon="-8.00106667">
        <ele>523.0</ele>
        <time>2018-10-03T10:52:28.000Z</time>
      </trkpt>
      <trkpt lat="42.494835" lon="-8.00108167">
        <ele>523.0</ele>
        <time>2018-10-03T10:52:29.000Z</time>
      </trkpt>
      <trkpt lat="42.49483333" lon="-8.00109333">
        <ele>523.0</ele>
        <time>2018-10-03T10:52:30.000Z</time>
      </trkpt>
      <trkpt lat="42.49483333" lon="-8.001105">
        <ele>523.0</ele>
        <time>2018-10-03T10:52:31.000Z</time>
      </trkpt>
      <trkpt lat="42.494835" lon="-8.00112">
        <ele>524.0</ele>
        <time>2018-10-03T10:52:32.000Z</time>
      </trkpt>
      <trkpt lat="42.494835" lon="-8.00113333">
        <ele>524.0</ele>
        <time>2018-10-03T10:52:33.000Z</time>
      </trkpt>
      <trkpt lat="42.49483667" lon="-8.00114667">
        <ele>524.0</ele>
        <time>2018-10-03T10:52:34.000Z</time>
      </trkpt>
      <trkpt lat="42.49483833" lon="-8.00116167">
        <ele>523.0</ele>
        <time>2018-10-03T10:52:35.000Z</time>
      </trkpt>
      <trkpt lat="42.49484167" lon="-8.00117833">
        <ele>523.0</ele>
        <time>2018-10-03T10:52:36.000Z</time>
      </trkpt>
      <trkpt lat="42.494845" lon="-8.001195">
        <ele>523.0</ele>
        <time>2018-10-03T10:52:37.000Z</time>
      </trkpt>
      <trkpt lat="42.49484833" lon="-8.00121167">
        <ele>523.0</ele>
        <time>2018-10-03T10:52:38.000Z</time>
      </trkpt>
      <trkpt lat="42.49485" lon="-8.00122667">
        <ele>522.0</ele>
        <time>2018-10-03T10:52:39.000Z</time>
      </trkpt>
      <trkpt lat="42.49485333" lon="-8.00124">
        <ele>522.0</ele>
        <time>2018-10-03T10:52:40.000Z</time>
      </trkpt>
      <trkpt lat="42.49485667" lon="-8.00125167">
        <ele>522.0</ele>
        <time>2018-10-03T10:52:41.000Z</time>
      </trkpt>
      <trkpt lat="42.49486167" lon="-8.00126667">
        <ele>522.0</ele>
        <time>2018-10-03T10:52:42.000Z</time>
      </trkpt>
      <trkpt lat="42.49486667" lon="-8.00128333">
        <ele>521.0</ele>
        <time>2018-10-03T10:52:43.000Z</time>
      </trkpt>
      <trkpt lat="42.49487167" lon="-8.0013">
        <ele>521.0</ele>
        <time>2018-10-03T10:52:44.000Z</time>
      </trkpt>
      <trkpt lat="42.494875" lon="-8.00131667">
        <ele>521.0</ele>
        <time>2018-10-03T10:52:45.000Z</time>
      </trkpt>
      <trkpt lat="42.49488" lon="-8.00133">
        <ele>521.0</ele>
        <time>2018-10-03T10:52:46.000Z</time>
      </trkpt>
      <trkpt lat="42.49488333" lon="-8.00134667">
        <ele>521.0</ele>
        <time>2018-10-03T10:52:47.000Z</time>
      </trkpt>
      <trkpt lat="42.49488667" lon="-8.00136167">
        <ele>520.0</ele>
        <time>2018-10-03T10:52:48.000Z</time>
      </trkpt>
      <trkpt lat="42.49489167" lon="-8.00137667">
        <ele>520.0</ele>
        <time>2018-10-03T10:52:49.000Z</time>
      </trkpt>
      <trkpt lat="42.49489833" lon="-8.00139167">
        <ele>520.0</ele>
        <time>2018-10-03T10:52:50.000Z</time>
      </trkpt>
      <trkpt lat="42.49490333" lon="-8.00140667">
        <ele>520.0</ele>
        <time>2018-10-03T10:52:51.000Z</time>
      </trkpt>
      <trkpt lat="42.49490833" lon="-8.00142167">
        <ele>520.0</ele>
        <time>2018-10-03T10:52:52.000Z</time>
      </trkpt>
      <trkpt lat="42.49491333" lon="-8.00143667">
        <ele>520.0</ele>
        <time>2018-10-03T10:52:53.000Z</time>
      </trkpt>
      <trkpt lat="42.49491833" lon="-8.00145333">
        <ele>520.0</ele>
        <time>2018-10-03T10:52:54.000Z</time>
      </trkpt>
      <trkpt lat="42.49492333" lon="-8.00147167">
        <ele>519.0</ele>
        <time>2018-10-03T10:52:55.000Z</time>
      </trkpt>
      <trkpt lat="42.49492833" lon="-8.00148833">
        <ele>519.0</ele>
        <time>2018-10-03T10:52:56.000Z</time>
      </trkpt>
      <trkpt lat="42.49493333" lon="-8.00150667">
        <ele>519.0</ele>
        <time>2018-10-03T10:52:57.000Z</time>
      </trkpt>
      <trkpt lat="42.49493667" lon="-8.00152333">
        <ele>519.0</ele>
        <time>2018-10-03T10:52:58.000Z</time>
      </trkpt>
      <trkpt lat="42.49494" lon="-8.00154333">
        <ele>518.0</ele>
        <time>2018-10-03T10:52:59.000Z</time>
      </trkpt>
      <trkpt lat="42.49494333" lon="-8.00156167">
        <ele>518.0</ele>
        <time>2018-10-03T10:53:00.000Z</time>
      </trkpt>
      <trkpt lat="42.49494667" lon="-8.00158167">
        <ele>518.0</ele>
        <time>2018-10-03T10:53:01.000Z</time>
      </trkpt>
      <trkpt lat="42.49495167" lon="-8.00160333">
        <ele>518.0</ele>
        <time>2018-10-03T10:53:02.000Z</time>
      </trkpt>
      <trkpt lat="42.49495333" lon="-8.00162333">
        <ele>518.0</ele>
        <time>2018-10-03T10:53:03.000Z</time>
      </trkpt>
      <trkpt lat="42.494955" lon="-8.001645">
        <ele>518.0</ele>
        <time>2018-10-03T10:53:04.000Z</time>
      </trkpt>
      <trkpt lat="42.49495667" lon="-8.00166667">
        <ele>518.0</ele>
        <time>2018-10-03T10:53:05.000Z</time>
      </trkpt>
      <trkpt lat="42.49495833" lon="-8.00168833">
        <ele>518.0</ele>
        <time>2018-10-03T10:53:06.000Z</time>
      </trkpt>
      <trkpt lat="42.49496" lon="-8.00171167">
        <ele>518.0</ele>
        <time>2018-10-03T10:53:07.000Z</time>
      </trkpt>
      <trkpt lat="42.49496167" lon="-8.001735">
        <ele>518.0</ele>
        <time>2018-10-03T10:53:08.000Z</time>
      </trkpt>
      <trkpt lat="42.494965" lon="-8.00175667">
        <ele>518.0</ele>
        <time>2018-10-03T10:53:09.000Z</time>
      </trkpt>
      <trkpt lat="42.49496833" lon="-8.00178">
        <ele>518.0</ele>
        <time>2018-10-03T10:53:10.000Z</time>
      </trkpt>
      <trkpt lat="42.49497333" lon="-8.00180333">
        <ele>518.0</ele>
        <time>2018-10-03T10:53:11.000Z</time>
      </trkpt>
      <trkpt lat="42.49497667" lon="-8.00182667">
        <ele>518.0</ele>
        <time>2018-10-03T10:53:12.000Z</time>
      </trkpt>
      <trkpt lat="42.49498" lon="-8.00184833">
        <ele>518.0</ele>
        <time>2018-10-03T10:53:13.000Z</time>
      </trkpt>
      <trkpt lat="42.49498333" lon="-8.00186833">
        <ele>518.0</ele>
        <time>2018-10-03T10:53:14.000Z</time>
      </trkpt>
      <trkpt lat="42.49499" lon="-8.00188833">
        <ele>519.0</ele>
        <time>2018-10-03T10:53:15.000Z</time>
      </trkpt>
      <trkpt lat="42.494995" lon="-8.00191">
        <ele>519.0</ele>
        <time>2018-10-03T10:53:16.000Z</time>
      </trkpt>
      <trkpt lat="42.49500333" lon="-8.00193">
        <ele>519.0</ele>
        <time>2018-10-03T10:53:17.000Z</time>
      </trkpt>
      <trkpt lat="42.49501167" lon="-8.00195">
        <ele>519.0</ele>
        <time>2018-10-03T10:53:18.000Z</time>
      </trkpt>
      <trkpt lat="42.49502" lon="-8.00196833">
        <ele>520.0</ele>
        <time>2018-10-03T10:53:19.000Z</time>
      </trkpt>
      <trkpt lat="42.49503167" lon="-8.00199">
        <ele>520.0</ele>
        <time>2018-10-03T10:53:20.000Z</time>
      </trkpt>
      <trkpt lat="42.49504167" lon="-8.00200667">
        <ele>520.0</ele>
        <time>2018-10-03T10:53:21.000Z</time>
      </trkpt>
      <trkpt lat="42.49505" lon="-8.00202667">
        <ele>521.0</ele>
        <time>2018-10-03T10:53:22.000Z</time>
      </trkpt>
      <trkpt lat="42.49506" lon="-8.00204667">
        <ele>521.0</ele>
        <time>2018-10-03T10:53:23.000Z</time>
      </trkpt>
      <trkpt lat="42.49507" lon="-8.002065">
        <ele>521.0</ele>
        <time>2018-10-03T10:53:24.000Z</time>
      </trkpt>
      <trkpt lat="42.49507833" lon="-8.00208">
        <ele>521.0</ele>
        <time>2018-10-03T10:53:25.000Z</time>
      </trkpt>
      <trkpt lat="42.495085" lon="-8.00209333">
        <ele>522.0</ele>
        <time>2018-10-03T10:53:26.000Z</time>
      </trkpt>
      <trkpt lat="42.49509" lon="-8.00210667">
        <ele>522.0</ele>
        <time>2018-10-03T10:53:27.000Z</time>
      </trkpt>
      <trkpt lat="42.49509667" lon="-8.00212">
        <ele>522.0</ele>
        <time>2018-10-03T10:53:28.000Z</time>
      </trkpt>
      <trkpt lat="42.495105" lon="-8.00213667">
        <ele>523.0</ele>
        <time>2018-10-03T10:53:29.000Z</time>
      </trkpt>
      <trkpt lat="42.49511167" lon="-8.002155">
        <ele>523.0</ele>
        <time>2018-10-03T10:53:30.000Z</time>
      </trkpt>
      <trkpt lat="42.49512" lon="-8.00217667">
        <ele>523.0</ele>
        <time>2018-10-03T10:53:31.000Z</time>
      </trkpt>
      <trkpt lat="42.49513167" lon="-8.0022">
        <ele>523.0</ele>
        <time>2018-10-03T10:53:32.000Z</time>
      </trkpt>
      <trkpt lat="42.49514833" lon="-8.00222">
        <ele>524.0</ele>
        <time>2018-10-03T10:53:33.000Z</time>
      </trkpt>
      <trkpt lat="42.495165" lon="-8.00223833">
        <ele>524.0</ele>
        <time>2018-10-03T10:53:34.000Z</time>
      </trkpt>
      <trkpt lat="42.49517667" lon="-8.00225667">
        <ele>524.0</ele>
        <time>2018-10-03T10:53:35.000Z</time>
      </trkpt>
      <trkpt lat="42.49519" lon="-8.00227">
        <ele>525.0</ele>
        <time>2018-10-03T10:53:36.000Z</time>
      </trkpt>
      <trkpt lat="42.49521" lon="-8.00228333">
        <ele>525.0</ele>
        <time>2018-10-03T10:53:37.000Z</time>
      </trkpt>
      <trkpt lat="42.49522333" lon="-8.00229667">
        <ele>525.0</ele>
        <time>2018-10-03T10:53:38.000Z</time>
      </trkpt>
      <trkpt lat="42.495235" lon="-8.00230667">
        <ele>525.0</ele>
        <time>2018-10-03T10:53:39.000Z</time>
      </trkpt>
      <trkpt lat="42.495245" lon="-8.00232">
        <ele>525.0</ele>
        <time>2018-10-03T10:53:40.000Z</time>
      </trkpt>
      <trkpt lat="42.49525333" lon="-8.00233167">
        <ele>526.0</ele>
        <time>2018-10-03T10:53:41.000Z</time>
      </trkpt>
      <trkpt lat="42.49526167" lon="-8.00234167">
        <ele>526.0</ele>
        <time>2018-10-03T10:53:42.000Z</time>
      </trkpt>
      <trkpt lat="42.49527" lon="-8.00235">
        <ele>526.0</ele>
        <time>2018-10-03T10:53:43.000Z</time>
      </trkpt>
      <trkpt lat="42.49527167" lon="-8.002355">
        <ele>526.0</ele>
        <time>2018-10-03T10:53:44.000Z</time>
      </trkpt>
      <trkpt lat="42.49527167" lon="-8.00235667">
        <ele>526.0</ele>
        <time>2018-10-03T10:53:45.000Z</time>
      </trkpt>
      <trkpt lat="42.49527333" lon="-8.00235667">
        <ele>527.0</ele>
        <time>2018-10-03T10:53:46.000Z</time>
      </trkpt>
      <trkpt lat="42.49527833" lon="-8.00236167">
        <ele>527.0</ele>
        <time>2018-10-03T10:53:47.000Z</time>
      </trkpt>
      <trkpt lat="42.49528333" lon="-8.00237167">
        <ele>527.0</ele>
        <time>2018-10-03T10:53:48.000Z</time>
      </trkpt>
      <trkpt lat="42.49529" lon="-8.002385">
        <ele>527.0</ele>
        <time>2018-10-03T10:53:49.000Z</time>
      </trkpt>
      <trkpt lat="42.495295" lon="-8.00240167">
        <ele>528.0</ele>
        <time>2018-10-03T10:53:50.000Z</time>
      </trkpt>
      <trkpt lat="42.49530333" lon="-8.00242">
        <ele>528.0</ele>
        <time>2018-10-03T10:53:51.000Z</time>
      </trkpt>
      <trkpt lat="42.49530833" lon="-8.00243333">
        <ele>528.0</ele>
        <time>2018-10-03T10:53:52.000Z</time>
      </trkpt>
      <trkpt lat="42.49531667" lon="-8.00244667">
        <ele>528.0</ele>
        <time>2018-10-03T10:53:53.000Z</time>
      </trkpt>
      <trkpt lat="42.49532667" lon="-8.00245833">
        <ele>529.0</ele>
        <time>2018-10-03T10:53:54.000Z</time>
      </trkpt>
      <trkpt lat="42.49533667" lon="-8.002475">
        <ele>529.0</ele>
        <time>2018-10-03T10:53:55.000Z</time>
      </trkpt>
      <trkpt lat="42.49534833" lon="-8.002495">
        <ele>529.0</ele>
        <time>2018-10-03T10:53:56.000Z</time>
      </trkpt>
      <trkpt lat="42.49536167" lon="-8.00251333">
        <ele>530.0</ele>
        <time>2018-10-03T10:53:57.000Z</time>
      </trkpt>
      <trkpt lat="42.49537167" lon="-8.00252833">
        <ele>530.0</ele>
        <time>2018-10-03T10:53:58.000Z</time>
      </trkpt>
      <trkpt lat="42.49538167" lon="-8.00254333">
        <ele>530.0</ele>
        <time>2018-10-03T10:53:59.000Z</time>
      </trkpt>
      <trkpt lat="42.495385" lon="-8.002565">
        <ele>530.0</ele>
        <time>2018-10-03T10:54:00.000Z</time>
      </trkpt>
      <trkpt lat="42.49538833" lon="-8.00259">
        <ele>530.0</ele>
        <time>2018-10-03T10:54:01.000Z</time>
      </trkpt>
      <trkpt lat="42.49539333" lon="-8.00260833">
        <ele>530.0</ele>
        <time>2018-10-03T10:54:02.000Z</time>
      </trkpt>
      <trkpt lat="42.49539667" lon="-8.00262167">
        <ele>530.0</ele>
        <time>2018-10-03T10:54:03.000Z</time>
      </trkpt>
      <trkpt lat="42.49540333" lon="-8.00263333">
        <ele>530.0</ele>
        <time>2018-10-03T10:54:04.000Z</time>
      </trkpt>
      <trkpt lat="42.49540833" lon="-8.002645">
        <ele>530.0</ele>
        <time>2018-10-03T10:54:05.000Z</time>
      </trkpt>
      <trkpt lat="42.49541833" lon="-8.00266">
        <ele>530.0</ele>
        <time>2018-10-03T10:54:06.000Z</time>
      </trkpt>
      <trkpt lat="42.49542833" lon="-8.00267833">
        <ele>530.0</ele>
        <time>2018-10-03T10:54:07.000Z</time>
      </trkpt>
      <trkpt lat="42.49543833" lon="-8.00269">
        <ele>531.0</ele>
        <time>2018-10-03T10:54:08.000Z</time>
      </trkpt>
      <trkpt lat="42.49544833" lon="-8.00270667">
        <ele>531.0</ele>
        <time>2018-10-03T10:54:09.000Z</time>
      </trkpt>
      <trkpt lat="42.49545833" lon="-8.00272">
        <ele>531.0</ele>
        <time>2018-10-03T10:54:10.000Z</time>
      </trkpt>
      <trkpt lat="42.49547167" lon="-8.00272833">
        <ele>531.0</ele>
        <time>2018-10-03T10:54:11.000Z</time>
      </trkpt>
      <trkpt lat="42.49548167" lon="-8.00274167">
        <ele>531.0</ele>
        <time>2018-10-03T10:54:12.000Z</time>
      </trkpt>
      <trkpt lat="42.49549167" lon="-8.002755">
        <ele>531.0</ele>
        <time>2018-10-03T10:54:13.000Z</time>
      </trkpt>
      <trkpt lat="42.49550167" lon="-8.00276667">
        <ele>531.0</ele>
        <time>2018-10-03T10:54:14.000Z</time>
      </trkpt>
      <trkpt lat="42.49551167" lon="-8.00277833">
        <ele>531.0</ele>
        <time>2018-10-03T10:54:15.000Z</time>
      </trkpt>
      <trkpt lat="42.49552167" lon="-8.00279333">
        <ele>531.0</ele>
        <time>2018-10-03T10:54:16.000Z</time>
      </trkpt>
      <trkpt lat="42.49553167" lon="-8.00280667">
        <ele>531.0</ele>
        <time>2018-10-03T10:54:17.000Z</time>
      </trkpt>
      <trkpt lat="42.49554" lon="-8.00282">
        <ele>531.0</ele>
        <time>2018-10-03T10:54:18.000Z</time>
      </trkpt>
      <trkpt lat="42.49555" lon="-8.00283667">
        <ele>531.0</ele>
        <time>2018-10-03T10:54:19.000Z</time>
      </trkpt>
      <trkpt lat="42.49555833" lon="-8.00285">
        <ele>531.0</ele>
        <time>2018-10-03T10:54:20.000Z</time>
      </trkpt>
      <trkpt lat="42.49556667" lon="-8.002865">
        <ele>532.0</ele>
        <time>2018-10-03T10:54:21.000Z</time>
      </trkpt>
      <trkpt lat="42.49558" lon="-8.00288333">
        <ele>532.0</ele>
        <time>2018-10-03T10:54:22.000Z</time>
      </trkpt>
      <trkpt lat="42.495595" lon="-8.0029">
        <ele>532.0</ele>
        <time>2018-10-03T10:54:23.000Z</time>
      </trkpt>
      <trkpt lat="42.49561" lon="-8.00291333">
        <ele>532.0</ele>
        <time>2018-10-03T10:54:24.000Z</time>
      </trkpt>
      <trkpt lat="42.49562667" lon="-8.00292833">
        <ele>532.0</ele>
        <time>2018-10-03T10:54:25.000Z</time>
      </trkpt>
      <trkpt lat="42.49564333" lon="-8.002945">
        <ele>532.0</ele>
        <time>2018-10-03T10:54:26.000Z</time>
      </trkpt>
      <trkpt lat="42.49565833" lon="-8.00296333">
        <ele>532.0</ele>
        <time>2018-10-03T10:54:27.000Z</time>
      </trkpt>
      <trkpt lat="42.49567167" lon="-8.00298333">
        <ele>532.0</ele>
        <time>2018-10-03T10:54:28.000Z</time>
      </trkpt>
      <trkpt lat="42.49567833" lon="-8.00300333">
        <ele>532.0</ele>
        <time>2018-10-03T10:54:29.000Z</time>
      </trkpt>
      <trkpt lat="42.49568167" lon="-8.00302">
        <ele>532.0</ele>
        <time>2018-10-03T10:54:30.000Z</time>
      </trkpt>
      <trkpt lat="42.495685" lon="-8.00303667">
        <ele>533.0</ele>
        <time>2018-10-03T10:54:31.000Z</time>
      </trkpt>
      <trkpt lat="42.49569333" lon="-8.00305167">
        <ele>533.0</ele>
        <time>2018-10-03T10:54:32.000Z</time>
      </trkpt>
      <trkpt lat="42.495705" lon="-8.00306833">
        <ele>533.0</ele>
        <time>2018-10-03T10:54:33.000Z</time>
      </trkpt>
      <trkpt lat="42.49571833" lon="-8.00308333">
        <ele>533.0</ele>
        <time>2018-10-03T10:54:34.000Z</time>
      </trkpt>
      <trkpt lat="42.495735" lon="-8.0031">
        <ele>533.0</ele>
        <time>2018-10-03T10:54:35.000Z</time>
      </trkpt>
      <trkpt lat="42.49575333" lon="-8.00311333">
        <ele>533.0</ele>
        <time>2018-10-03T10:54:36.000Z</time>
      </trkpt>
      <trkpt lat="42.49576833" lon="-8.00312667">
        <ele>533.0</ele>
        <time>2018-10-03T10:54:37.000Z</time>
      </trkpt>
      <trkpt lat="42.49578" lon="-8.00314167">
        <ele>533.0</ele>
        <time>2018-10-03T10:54:38.000Z</time>
      </trkpt>
      <trkpt lat="42.49579" lon="-8.00315833">
        <ele>534.0</ele>
        <time>2018-10-03T10:54:39.000Z</time>
      </trkpt>
      <trkpt lat="42.495795" lon="-8.00317">
        <ele>534.0</ele>
        <time>2018-10-03T10:54:40.000Z</time>
      </trkpt>
      <trkpt lat="42.4958" lon="-8.00317833">
        <ele>534.0</ele>
        <time>2018-10-03T10:54:41.000Z</time>
      </trkpt>
      <trkpt lat="42.49581167" lon="-8.00319">
        <ele>534.0</ele>
        <time>2018-10-03T10:54:42.000Z</time>
      </trkpt>
      <trkpt lat="42.49582167" lon="-8.00319833">
        <ele>535.0</ele>
        <time>2018-10-03T10:54:43.000Z</time>
      </trkpt>
      <trkpt lat="42.49583333" lon="-8.00320833">
        <ele>535.0</ele>
        <time>2018-10-03T10:54:44.000Z</time>
      </trkpt>
      <trkpt lat="42.49584667" lon="-8.00322">
        <ele>535.0</ele>
        <time>2018-10-03T10:54:45.000Z</time>
      </trkpt>
      <trkpt lat="42.49585667" lon="-8.00323333">
        <ele>535.0</ele>
        <time>2018-10-03T10:54:46.000Z</time>
      </trkpt>
      <trkpt lat="42.49586833" lon="-8.00324167">
        <ele>535.0</ele>
        <time>2018-10-03T10:54:47.000Z</time>
      </trkpt>
      <trkpt lat="42.49588" lon="-8.00324833">
        <ele>536.0</ele>
        <time>2018-10-03T10:54:48.000Z</time>
      </trkpt>
      <trkpt lat="42.49589" lon="-8.00326">
        <ele>536.0</ele>
        <time>2018-10-03T10:54:49.000Z</time>
      </trkpt>
      <trkpt lat="42.49589833" lon="-8.00327333">
        <ele>536.0</ele>
        <time>2018-10-03T10:54:50.000Z</time>
      </trkpt>
      <trkpt lat="42.49591" lon="-8.00328333">
        <ele>536.0</ele>
        <time>2018-10-03T10:54:51.000Z</time>
      </trkpt>
      <trkpt lat="42.49591833" lon="-8.00329333">
        <ele>537.0</ele>
        <time>2018-10-03T10:54:52.000Z</time>
      </trkpt>
      <trkpt lat="42.49591667" lon="-8.00329833">
        <ele>537.0</ele>
        <time>2018-10-03T10:54:53.000Z</time>
      </trkpt>
      <trkpt lat="42.495915" lon="-8.00329833">
        <ele>537.0</ele>
        <time>2018-10-03T10:54:54.000Z</time>
      </trkpt>
      <trkpt lat="42.49591333" lon="-8.00329833">
        <ele>537.0</ele>
        <time>2018-10-03T10:54:55.000Z</time>
      </trkpt>
      <trkpt lat="42.495915" lon="-8.0033">
        <ele>537.0</ele>
        <time>2018-10-03T10:54:56.000Z</time>
      </trkpt>
      <trkpt lat="42.49592167" lon="-8.003305">
        <ele>537.0</ele>
        <time>2018-10-03T10:54:57.000Z</time>
      </trkpt>
      <trkpt lat="42.49592833" lon="-8.00331667">
        <ele>537.0</ele>
        <time>2018-10-03T10:54:58.000Z</time>
      </trkpt>
      <trkpt lat="42.49594" lon="-8.00333">
        <ele>537.0</ele>
        <time>2018-10-03T10:54:59.000Z</time>
      </trkpt>
      <trkpt lat="42.49594833" lon="-8.00334167">
        <ele>537.0</ele>
        <time>2018-10-03T10:55:00.000Z</time>
      </trkpt>
      <trkpt lat="42.49596" lon="-8.00335667">
        <ele>537.0</ele>
        <time>2018-10-03T10:55:01.000Z</time>
      </trkpt>
      <trkpt lat="42.49597333" lon="-8.00337">
        <ele>537.0</ele>
        <time>2018-10-03T10:55:02.000Z</time>
      </trkpt>
      <trkpt lat="42.49598333" lon="-8.003385">
        <ele>537.0</ele>
        <time>2018-10-03T10:55:03.000Z</time>
      </trkpt>
      <trkpt lat="42.49599667" lon="-8.0034">
        <ele>537.0</ele>
        <time>2018-10-03T10:55:04.000Z</time>
      </trkpt>
      <trkpt lat="42.49600833" lon="-8.00341667">
        <ele>537.0</ele>
        <time>2018-10-03T10:55:05.000Z</time>
      </trkpt>
      <trkpt lat="42.496015" lon="-8.003435">
        <ele>537.0</ele>
        <time>2018-10-03T10:55:06.000Z</time>
      </trkpt>
      <trkpt lat="42.49602333" lon="-8.003455">
        <ele>537.0</ele>
        <time>2018-10-03T10:55:07.000Z</time>
      </trkpt>
      <trkpt lat="42.49602833" lon="-8.003475">
        <ele>537.0</ele>
        <time>2018-10-03T10:55:08.000Z</time>
      </trkpt>
      <trkpt lat="42.49602833" lon="-8.00349667">
        <ele>537.0</ele>
        <time>2018-10-03T10:55:09.000Z</time>
      </trkpt>
      <trkpt lat="42.49602833" lon="-8.00351833">
        <ele>537.0</ele>
        <time>2018-10-03T10:55:10.000Z</time>
      </trkpt>
      <trkpt lat="42.49603" lon="-8.00354">
        <ele>537.0</ele>
        <time>2018-10-03T10:55:11.000Z</time>
      </trkpt>
      <trkpt lat="42.496035" lon="-8.003555">
        <ele>537.0</ele>
        <time>2018-10-03T10:55:12.000Z</time>
      </trkpt>
      <trkpt lat="42.49604833" lon="-8.00356667">
        <ele>537.0</ele>
        <time>2018-10-03T10:55:13.000Z</time>
      </trkpt>
      <trkpt lat="42.49606" lon="-8.00357833">
        <ele>537.0</ele>
        <time>2018-10-03T10:55:14.000Z</time>
      </trkpt>
      <trkpt lat="42.49607" lon="-8.00359833">
        <ele>537.0</ele>
        <time>2018-10-03T10:55:15.000Z</time>
      </trkpt>
      <trkpt lat="42.49608333" lon="-8.00361833">
        <ele>537.0</ele>
        <time>2018-10-03T10:55:16.000Z</time>
      </trkpt>
      <trkpt lat="42.496095" lon="-8.00363833">
        <ele>537.0</ele>
        <time>2018-10-03T10:55:17.000Z</time>
      </trkpt>
      <trkpt lat="42.49610667" lon="-8.00365667">
        <ele>537.0</ele>
        <time>2018-10-03T10:55:18.000Z</time>
      </trkpt>
      <trkpt lat="42.49612" lon="-8.00366833">
        <ele>537.0</ele>
        <time>2018-10-03T10:55:19.000Z</time>
      </trkpt>
      <trkpt lat="42.49613167" lon="-8.00367833">
        <ele>537.0</ele>
        <time>2018-10-03T10:55:20.000Z</time>
      </trkpt>
      <trkpt lat="42.49614667" lon="-8.00368833">
        <ele>537.0</ele>
        <time>2018-10-03T10:55:21.000Z</time>
      </trkpt>
      <trkpt lat="42.49615833" lon="-8.00369833">
        <ele>537.0</ele>
        <time>2018-10-03T10:55:22.000Z</time>
      </trkpt>
      <trkpt lat="42.49617" lon="-8.00371">
        <ele>537.0</ele>
        <time>2018-10-03T10:55:23.000Z</time>
      </trkpt>
      <trkpt lat="42.49617833" lon="-8.00372333">
        <ele>538.0</ele>
        <time>2018-10-03T10:55:24.000Z</time>
      </trkpt>
      <trkpt lat="42.496185" lon="-8.00373833">
        <ele>538.0</ele>
        <time>2018-10-03T10:55:25.000Z</time>
      </trkpt>
      <trkpt lat="42.49619" lon="-8.00375167">
        <ele>538.0</ele>
        <time>2018-10-03T10:55:26.000Z</time>
      </trkpt>
      <trkpt lat="42.49619667" lon="-8.00376333">
        <ele>538.0</ele>
        <time>2018-10-03T10:55:27.000Z</time>
      </trkpt>
      <trkpt lat="42.49620333" lon="-8.00378">
        <ele>538.0</ele>
        <time>2018-10-03T10:55:28.000Z</time>
      </trkpt>
      <trkpt lat="42.49621167" lon="-8.00379167">
        <ele>538.0</ele>
        <time>2018-10-03T10:55:29.000Z</time>
      </trkpt>
      <trkpt lat="42.49622167" lon="-8.00379667">
        <ele>538.0</ele>
        <time>2018-10-03T10:55:30.000Z</time>
      </trkpt>
      <trkpt lat="42.496235" lon="-8.0038">
        <ele>538.0</ele>
        <time>2018-10-03T10:55:31.000Z</time>
      </trkpt>
      <trkpt lat="42.49625" lon="-8.00380333">
        <ele>539.0</ele>
        <time>2018-10-03T10:55:32.000Z</time>
      </trkpt>
      <trkpt lat="42.49626333" lon="-8.00381">
        <ele>539.0</ele>
        <time>2018-10-03T10:55:33.000Z</time>
      </trkpt>
      <trkpt lat="42.496275" lon="-8.00381667">
        <ele>539.0</ele>
        <time>2018-10-03T10:55:34.000Z</time>
      </trkpt>
      <trkpt lat="42.49628833" lon="-8.00382333">
        <ele>539.0</ele>
        <time>2018-10-03T10:55:35.000Z</time>
      </trkpt>
      <trkpt lat="42.496305" lon="-8.00383167">
        <ele>539.0</ele>
        <time>2018-10-03T10:55:36.000Z</time>
      </trkpt>
      <trkpt lat="42.49632" lon="-8.00384">
        <ele>539.0</ele>
        <time>2018-10-03T10:55:37.000Z</time>
      </trkpt>
      <trkpt lat="42.49633333" lon="-8.00384833">
        <ele>539.0</ele>
        <time>2018-10-03T10:55:38.000Z</time>
      </trkpt>
      <trkpt lat="42.49634833" lon="-8.00385333">
        <ele>539.0</ele>
        <time>2018-10-03T10:55:39.000Z</time>
      </trkpt>
      <trkpt lat="42.496365" lon="-8.00386333">
        <ele>539.0</ele>
        <time>2018-10-03T10:55:40.000Z</time>
      </trkpt>
      <trkpt lat="42.49638" lon="-8.00387167">
        <ele>540.0</ele>
        <time>2018-10-03T10:55:41.000Z</time>
      </trkpt>
      <trkpt lat="42.49639333" lon="-8.00388167">
        <ele>540.0</ele>
        <time>2018-10-03T10:55:42.000Z</time>
      </trkpt>
      <trkpt lat="42.49640667" lon="-8.00389">
        <ele>540.0</ele>
        <time>2018-10-03T10:55:43.000Z</time>
      </trkpt>
      <trkpt lat="42.49642" lon="-8.00389833">
        <ele>540.0</ele>
        <time>2018-10-03T10:55:44.000Z</time>
      </trkpt>
      <trkpt lat="42.49643167" lon="-8.00390333">
        <ele>540.0</ele>
        <time>2018-10-03T10:55:45.000Z</time>
      </trkpt>
      <trkpt lat="42.496445" lon="-8.00391167">
        <ele>540.0</ele>
        <time>2018-10-03T10:55:46.000Z</time>
      </trkpt>
      <trkpt lat="42.49645833" lon="-8.00392">
        <ele>540.0</ele>
        <time>2018-10-03T10:55:47.000Z</time>
      </trkpt>
      <trkpt lat="42.49647167" lon="-8.00392833">
        <ele>540.0</ele>
        <time>2018-10-03T10:55:48.000Z</time>
      </trkpt>
      <trkpt lat="42.496485" lon="-8.00393667">
        <ele>540.0</ele>
        <time>2018-10-03T10:55:49.000Z</time>
      </trkpt>
      <trkpt lat="42.49649667" lon="-8.00394333">
        <ele>540.0</ele>
        <time>2018-10-03T10:55:50.000Z</time>
      </trkpt>
      <trkpt lat="42.49650833" lon="-8.00395167">
        <ele>541.0</ele>
        <time>2018-10-03T10:55:51.000Z</time>
      </trkpt>
      <trkpt lat="42.49651667" lon="-8.00395833">
        <ele>541.0</ele>
        <time>2018-10-03T10:55:52.000Z</time>
      </trkpt>
      <trkpt lat="42.49653167" lon="-8.00396667">
        <ele>541.0</ele>
        <time>2018-10-03T10:55:53.000Z</time>
      </trkpt>
      <trkpt lat="42.496545" lon="-8.003975">
        <ele>541.0</ele>
        <time>2018-10-03T10:55:54.000Z</time>
      </trkpt>
      <trkpt lat="42.49656" lon="-8.00398167">
        <ele>541.0</ele>
        <time>2018-10-03T10:55:55.000Z</time>
      </trkpt>
      <trkpt lat="42.49657333" lon="-8.00398833">
        <ele>542.0</ele>
        <time>2018-10-03T10:55:56.000Z</time>
      </trkpt>
      <trkpt lat="42.496585" lon="-8.00399667">
        <ele>542.0</ele>
        <time>2018-10-03T10:55:57.000Z</time>
      </trkpt>
      <trkpt lat="42.49659667" lon="-8.004005">
        <ele>542.0</ele>
        <time>2018-10-03T10:55:58.000Z</time>
      </trkpt>
      <trkpt lat="42.49660667" lon="-8.00401333">
        <ele>542.0</ele>
        <time>2018-10-03T10:55:59.000Z</time>
      </trkpt>
      <trkpt lat="42.49661667" lon="-8.00402167">
        <ele>542.0</ele>
        <time>2018-10-03T10:56:00.000Z</time>
      </trkpt>
      <trkpt lat="42.49663" lon="-8.00404">
        <ele>542.0</ele>
        <time>2018-10-03T10:56:01.000Z</time>
      </trkpt>
      <trkpt lat="42.49664167" lon="-8.004055">
        <ele>543.0</ele>
        <time>2018-10-03T10:56:02.000Z</time>
      </trkpt>
      <trkpt lat="42.496655" lon="-8.00406333">
        <ele>543.0</ele>
        <time>2018-10-03T10:56:03.000Z</time>
      </trkpt>
      <trkpt lat="42.49666833" lon="-8.00407167">
        <ele>543.0</ele>
        <time>2018-10-03T10:56:04.000Z</time>
      </trkpt>
      <trkpt lat="42.49668" lon="-8.00408167">
        <ele>543.0</ele>
        <time>2018-10-03T10:56:05.000Z</time>
      </trkpt>
      <trkpt lat="42.49669167" lon="-8.00409167">
        <ele>543.0</ele>
        <time>2018-10-03T10:56:06.000Z</time>
      </trkpt>
      <trkpt lat="42.496705" lon="-8.00410333">
        <ele>543.0</ele>
        <time>2018-10-03T10:56:07.000Z</time>
      </trkpt>
      <trkpt lat="42.49671667" lon="-8.004115">
        <ele>544.0</ele>
        <time>2018-10-03T10:56:08.000Z</time>
      </trkpt>
      <trkpt lat="42.49672667" lon="-8.00412667">
        <ele>544.0</ele>
        <time>2018-10-03T10:56:09.000Z</time>
      </trkpt>
      <trkpt lat="42.49673833" lon="-8.00413833">
        <ele>544.0</ele>
        <time>2018-10-03T10:56:10.000Z</time>
      </trkpt>
      <trkpt lat="42.49675" lon="-8.00414833">
        <ele>544.0</ele>
        <time>2018-10-03T10:56:11.000Z</time>
      </trkpt>
      <trkpt lat="42.49676333" lon="-8.00415833">
        <ele>544.0</ele>
        <time>2018-10-03T10:56:12.000Z</time>
      </trkpt>
      <trkpt lat="42.496775" lon="-8.00416667">
        <ele>544.0</ele>
        <time>2018-10-03T10:56:13.000Z</time>
      </trkpt>
      <trkpt lat="42.49678667" lon="-8.00417833">
        <ele>544.0</ele>
        <time>2018-10-03T10:56:14.000Z</time>
      </trkpt>
      <trkpt lat="42.4968" lon="-8.00418667">
        <ele>544.0</ele>
        <time>2018-10-03T10:56:15.000Z</time>
      </trkpt>
      <trkpt lat="42.49681167" lon="-8.004195">
        <ele>545.0</ele>
        <time>2018-10-03T10:56:16.000Z</time>
      </trkpt>
      <trkpt lat="42.49682333" lon="-8.004205">
        <ele>545.0</ele>
        <time>2018-10-03T10:56:17.000Z</time>
      </trkpt>
      <trkpt lat="42.49683833" lon="-8.00421667">
        <ele>545.0</ele>
        <time>2018-10-03T10:56:18.000Z</time>
      </trkpt>
      <trkpt lat="42.49685167" lon="-8.00422667">
        <ele>545.0</ele>
        <time>2018-10-03T10:56:19.000Z</time>
      </trkpt>
      <trkpt lat="42.496865" lon="-8.00423833">
        <ele>545.0</ele>
        <time>2018-10-03T10:56:20.000Z</time>
      </trkpt>
      <trkpt lat="42.49688" lon="-8.00425">
        <ele>545.0</ele>
        <time>2018-10-03T10:56:21.000Z</time>
      </trkpt>
      <trkpt lat="42.49689333" lon="-8.00426333">
        <ele>546.0</ele>
        <time>2018-10-03T10:56:22.000Z</time>
      </trkpt>
      <trkpt lat="42.49690667" lon="-8.004275">
        <ele>546.0</ele>
        <time>2018-10-03T10:56:23.000Z</time>
      </trkpt>
      <trkpt lat="42.49691833" lon="-8.00428667">
        <ele>546.0</ele>
        <time>2018-10-03T10:56:24.000Z</time>
      </trkpt>
      <trkpt lat="42.49693" lon="-8.004295">
        <ele>546.0</ele>
        <time>2018-10-03T10:56:25.000Z</time>
      </trkpt>
      <trkpt lat="42.49694333" lon="-8.004305">
        <ele>547.0</ele>
        <time>2018-10-03T10:56:26.000Z</time>
      </trkpt>
      <trkpt lat="42.49695667" lon="-8.00431333">
        <ele>547.0</ele>
        <time>2018-10-03T10:56:27.000Z</time>
      </trkpt>
      <trkpt lat="42.49697" lon="-8.00432">
        <ele>547.0</ele>
        <time>2018-10-03T10:56:28.000Z</time>
      </trkpt>
      <trkpt lat="42.49698667" lon="-8.00433">
        <ele>547.0</ele>
        <time>2018-10-03T10:56:29.000Z</time>
      </trkpt>
      <trkpt lat="42.49700167" lon="-8.00434167">
        <ele>547.0</ele>
        <time>2018-10-03T10:56:30.000Z</time>
      </trkpt>
      <trkpt lat="42.49701333" lon="-8.00435">
        <ele>547.0</ele>
        <time>2018-10-03T10:56:31.000Z</time>
      </trkpt>
      <trkpt lat="42.49702667" lon="-8.00435833">
        <ele>547.0</ele>
        <time>2018-10-03T10:56:32.000Z</time>
      </trkpt>
      <trkpt lat="42.49703833" lon="-8.004365">
        <ele>547.0</ele>
        <time>2018-10-03T10:56:33.000Z</time>
      </trkpt>
      <trkpt lat="42.49705" lon="-8.00437167">
        <ele>547.0</ele>
        <time>2018-10-03T10:56:34.000Z</time>
      </trkpt>
      <trkpt lat="42.49706" lon="-8.00437833">
        <ele>547.0</ele>
        <time>2018-10-03T10:56:35.000Z</time>
      </trkpt>
      <trkpt lat="42.49707" lon="-8.00438833">
        <ele>547.0</ele>
        <time>2018-10-03T10:56:36.000Z</time>
      </trkpt>
      <trkpt lat="42.49708333" lon="-8.0044">
        <ele>547.0</ele>
        <time>2018-10-03T10:56:37.000Z</time>
      </trkpt>
      <trkpt lat="42.497095" lon="-8.00441167">
        <ele>547.0</ele>
        <time>2018-10-03T10:56:38.000Z</time>
      </trkpt>
      <trkpt lat="42.49710667" lon="-8.00442167">
        <ele>547.0</ele>
        <time>2018-10-03T10:56:39.000Z</time>
      </trkpt>
      <trkpt lat="42.49712" lon="-8.00443167">
        <ele>547.0</ele>
        <time>2018-10-03T10:56:40.000Z</time>
      </trkpt>
      <trkpt lat="42.49713333" lon="-8.00444">
        <ele>547.0</ele>
        <time>2018-10-03T10:56:41.000Z</time>
      </trkpt>
      <trkpt lat="42.49714667" lon="-8.00445">
        <ele>548.0</ele>
        <time>2018-10-03T10:56:42.000Z</time>
      </trkpt>
      <trkpt lat="42.49715833" lon="-8.00445833">
        <ele>548.0</ele>
        <time>2018-10-03T10:56:43.000Z</time>
      </trkpt>
      <trkpt lat="42.49717" lon="-8.00446667">
        <ele>548.0</ele>
        <time>2018-10-03T10:56:44.000Z</time>
      </trkpt>
      <trkpt lat="42.49718167" lon="-8.004475">
        <ele>548.0</ele>
        <time>2018-10-03T10:56:45.000Z</time>
      </trkpt>
      <trkpt lat="42.49719167" lon="-8.00448">
        <ele>548.0</ele>
        <time>2018-10-03T10:56:46.000Z</time>
      </trkpt>
      <trkpt lat="42.49720333" lon="-8.00448667">
        <ele>548.0</ele>
        <time>2018-10-03T10:56:47.000Z</time>
      </trkpt>
      <trkpt lat="42.49721" lon="-8.00449333">
        <ele>548.0</ele>
        <time>2018-10-03T10:56:48.000Z</time>
      </trkpt>
      <trkpt lat="42.497215" lon="-8.00449833">
        <ele>549.0</ele>
        <time>2018-10-03T10:56:49.000Z</time>
      </trkpt>
      <trkpt lat="42.49722667" lon="-8.004505">
        <ele>549.0</ele>
        <time>2018-10-03T10:56:50.000Z</time>
      </trkpt>
      <trkpt lat="42.49724" lon="-8.004515">
        <ele>549.0</ele>
        <time>2018-10-03T10:56:51.000Z</time>
      </trkpt>
      <trkpt lat="42.497255" lon="-8.00452333">
        <ele>549.0</ele>
        <time>2018-10-03T10:56:52.000Z</time>
      </trkpt>
      <trkpt lat="42.49727" lon="-8.00453333">
        <ele>549.0</ele>
        <time>2018-10-03T10:56:53.000Z</time>
      </trkpt>
      <trkpt lat="42.49728833" lon="-8.004545">
        <ele>549.0</ele>
        <time>2018-10-03T10:56:54.000Z</time>
      </trkpt>
      <trkpt lat="42.49730667" lon="-8.00454667">
        <ele>550.0</ele>
        <time>2018-10-03T10:56:55.000Z</time>
      </trkpt>
      <trkpt lat="42.497315" lon="-8.004555">
        <ele>550.0</ele>
        <time>2018-10-03T10:56:56.000Z</time>
      </trkpt>
      <trkpt lat="42.49732833" lon="-8.004565">
        <ele>550.0</ele>
        <time>2018-10-03T10:56:57.000Z</time>
      </trkpt>
      <trkpt lat="42.49734833" lon="-8.004575">
        <ele>550.0</ele>
        <time>2018-10-03T10:56:58.000Z</time>
      </trkpt>
      <trkpt lat="42.49736667" lon="-8.00458">
        <ele>550.0</ele>
        <time>2018-10-03T10:56:59.000Z</time>
      </trkpt>
      <trkpt lat="42.497385" lon="-8.00458667">
        <ele>550.0</ele>
        <time>2018-10-03T10:57:00.000Z</time>
      </trkpt>
      <trkpt lat="42.49739833" lon="-8.00459333">
        <ele>551.0</ele>
        <time>2018-10-03T10:57:01.000Z</time>
      </trkpt>
      <trkpt lat="42.49741833" lon="-8.00460167">
        <ele>551.0</ele>
        <time>2018-10-03T10:57:02.000Z</time>
      </trkpt>
      <trkpt lat="42.49743833" lon="-8.00461">
        <ele>551.0</ele>
        <time>2018-10-03T10:57:03.000Z</time>
      </trkpt>
      <trkpt lat="42.49745667" lon="-8.00461833">
        <ele>551.0</ele>
        <time>2018-10-03T10:57:04.000Z</time>
      </trkpt>
      <trkpt lat="42.49747" lon="-8.00462667">
        <ele>551.0</ele>
        <time>2018-10-03T10:57:05.000Z</time>
      </trkpt>
      <trkpt lat="42.49747667" lon="-8.00463667">
        <ele>551.0</ele>
        <time>2018-10-03T10:57:06.000Z</time>
      </trkpt>
      <trkpt lat="42.49748833" lon="-8.00464833">
        <ele>552.0</ele>
        <time>2018-10-03T10:57:07.000Z</time>
      </trkpt>
      <trkpt lat="42.49749833" lon="-8.00466167">
        <ele>552.0</ele>
        <time>2018-10-03T10:57:08.000Z</time>
      </trkpt>
      <trkpt lat="42.49750333" lon="-8.00466667">
        <ele>552.0</ele>
        <time>2018-10-03T10:57:09.000Z</time>
      </trkpt>
      <trkpt lat="42.4975" lon="-8.00466833">
        <ele>552.0</ele>
        <time>2018-10-03T10:57:10.000Z</time>
      </trkpt>
      <trkpt lat="42.49750333" lon="-8.00467167">
        <ele>552.0</ele>
        <time>2018-10-03T10:57:11.000Z</time>
      </trkpt>
      <trkpt lat="42.49751167" lon="-8.004675">
        <ele>552.0</ele>
        <time>2018-10-03T10:57:12.000Z</time>
      </trkpt>
      <trkpt lat="42.49752167" lon="-8.00467667">
        <ele>552.0</ele>
        <time>2018-10-03T10:57:13.000Z</time>
      </trkpt>
      <trkpt lat="42.49753" lon="-8.00467667">
        <ele>553.0</ele>
        <time>2018-10-03T10:57:14.000Z</time>
      </trkpt>
      <trkpt lat="42.497535" lon="-8.00468167">
        <ele>553.0</ele>
        <time>2018-10-03T10:57:15.000Z</time>
      </trkpt>
      <trkpt lat="42.49754" lon="-8.00468667">
        <ele>553.0</ele>
        <time>2018-10-03T10:57:16.000Z</time>
      </trkpt>
      <trkpt lat="42.497545" lon="-8.004695">
        <ele>553.0</ele>
        <time>2018-10-03T10:57:17.000Z</time>
      </trkpt>
      <trkpt lat="42.49754833" lon="-8.00470167">
        <ele>553.0</ele>
        <time>2018-10-03T10:57:18.000Z</time>
      </trkpt>
      <trkpt lat="42.49754833" lon="-8.0047">
        <ele>553.0</ele>
        <time>2018-10-03T10:57:19.000Z</time>
      </trkpt>
      <trkpt lat="42.497545" lon="-8.00470167">
        <ele>553.0</ele>
        <time>2018-10-03T10:57:20.000Z</time>
      </trkpt>
      <trkpt lat="42.49754333" lon="-8.00470333">
        <ele>553.0</ele>
        <time>2018-10-03T10:57:21.000Z</time>
      </trkpt>
      <trkpt lat="42.49754167" lon="-8.004705">
        <ele>553.0</ele>
        <time>2018-10-03T10:57:22.000Z</time>
      </trkpt>
      <trkpt lat="42.49753833" lon="-8.004705">
        <ele>553.0</ele>
        <time>2018-10-03T10:57:23.000Z</time>
      </trkpt>
      <trkpt lat="42.49753667" lon="-8.00470667">
        <ele>553.0</ele>
        <time>2018-10-03T10:57:24.000Z</time>
      </trkpt>
      <trkpt lat="42.497535" lon="-8.00470667">
        <ele>553.0</ele>
        <time>2018-10-03T10:57:25.000Z</time>
      </trkpt>
      <trkpt lat="42.49753333" lon="-8.00470667">
        <ele>553.0</ele>
        <time>2018-10-03T10:57:26.000Z</time>
      </trkpt>
      <trkpt lat="42.49752833" lon="-8.00470833">
        <ele>554.0</ele>
        <time>2018-10-03T10:57:27.000Z</time>
      </trkpt>
      <trkpt lat="42.497525" lon="-8.00470833">
        <ele>554.0</ele>
        <time>2018-10-03T10:57:28.000Z</time>
      </trkpt>
      <trkpt lat="42.497525" lon="-8.004705">
        <ele>554.0</ele>
        <time>2018-10-03T10:57:29.000Z</time>
      </trkpt>
      <trkpt lat="42.497525" lon="-8.00470167">
        <ele>554.0</ele>
        <time>2018-10-03T10:57:30.000Z</time>
      </trkpt>
      <trkpt lat="42.49752333" lon="-8.00470167">
        <ele>554.0</ele>
        <time>2018-10-03T10:57:31.000Z</time>
      </trkpt>
      <trkpt lat="42.49752167" lon="-8.0047">
        <ele>554.0</ele>
        <time>2018-10-03T10:57:32.000Z</time>
      </trkpt>
      <trkpt lat="42.49752333" lon="-8.0047">
        <ele>554.0</ele>
        <time>2018-10-03T10:57:33.000Z</time>
      </trkpt>
      <trkpt lat="42.49752333" lon="-8.00470167">
        <ele>554.0</ele>
        <time>2018-10-03T10:57:34.000Z</time>
      </trkpt>
      <trkpt lat="42.497525" lon="-8.0047">
        <ele>554.0</ele>
        <time>2018-10-03T10:57:35.000Z</time>
      </trkpt>
      <trkpt lat="42.49752833" lon="-8.00469667">
        <ele>553.0</ele>
        <time>2018-10-03T10:57:36.000Z</time>
      </trkpt>
      <trkpt lat="42.49753167" lon="-8.00469667">
        <ele>553.0</ele>
        <time>2018-10-03T10:57:37.000Z</time>
      </trkpt>
      <trkpt lat="42.497535" lon="-8.00470167">
        <ele>553.0</ele>
        <time>2018-10-03T10:57:38.000Z</time>
      </trkpt>
      <trkpt lat="42.49754" lon="-8.00471">
        <ele>553.0</ele>
        <time>2018-10-03T10:57:39.000Z</time>
      </trkpt>
      <trkpt lat="42.49754667" lon="-8.00471333">
        <ele>553.0</ele>
        <time>2018-10-03T10:57:40.000Z</time>
      </trkpt>
      <trkpt lat="42.49755667" lon="-8.00472167">
        <ele>552.0</ele>
        <time>2018-10-03T10:57:41.000Z</time>
      </trkpt>
      <trkpt lat="42.49756667" lon="-8.00473167">
        <ele>552.0</ele>
        <time>2018-10-03T10:57:42.000Z</time>
      </trkpt>
      <trkpt lat="42.49757333" lon="-8.004735">
        <ele>552.0</ele>
        <time>2018-10-03T10:57:43.000Z</time>
      </trkpt>
      <trkpt lat="42.49758" lon="-8.00474167">
        <ele>552.0</ele>
        <time>2018-10-03T10:57:44.000Z</time>
      </trkpt>
      <trkpt lat="42.49758833" lon="-8.00475333">
        <ele>552.0</ele>
        <time>2018-10-03T10:57:45.000Z</time>
      </trkpt>
      <trkpt lat="42.497595" lon="-8.004765">
        <ele>552.0</ele>
        <time>2018-10-03T10:57:46.000Z</time>
      </trkpt>
      <trkpt lat="42.497605" lon="-8.00477333">
        <ele>552.0</ele>
        <time>2018-10-03T10:57:47.000Z</time>
      </trkpt>
      <trkpt lat="42.497615" lon="-8.00478">
        <ele>552.0</ele>
        <time>2018-10-03T10:57:48.000Z</time>
      </trkpt>
      <trkpt lat="42.49762333" lon="-8.00478667">
        <ele>553.0</ele>
        <time>2018-10-03T10:57:49.000Z</time>
      </trkpt>
      <trkpt lat="42.49763333" lon="-8.00479167">
        <ele>553.0</ele>
        <time>2018-10-03T10:57:50.000Z</time>
      </trkpt>
      <trkpt lat="42.49764167" lon="-8.00480167">
        <ele>553.0</ele>
        <time>2018-10-03T10:57:51.000Z</time>
      </trkpt>
      <trkpt lat="42.49764833" lon="-8.00480833">
        <ele>553.0</ele>
        <time>2018-10-03T10:57:52.000Z</time>
      </trkpt>
      <trkpt lat="42.49765333" lon="-8.00481333">
        <ele>553.0</ele>
        <time>2018-10-03T10:57:53.000Z</time>
      </trkpt>
      <trkpt lat="42.497655" lon="-8.00481333">
        <ele>553.0</ele>
        <time>2018-10-03T10:57:54.000Z</time>
      </trkpt>
      <trkpt lat="42.497655" lon="-8.00481167">
        <ele>553.0</ele>
        <time>2018-10-03T10:57:55.000Z</time>
      </trkpt>
      <trkpt lat="42.49765333" lon="-8.00481333">
        <ele>554.0</ele>
        <time>2018-10-03T10:57:56.000Z</time>
      </trkpt>
      <trkpt lat="42.49765333" lon="-8.00481667">
        <ele>554.0</ele>
        <time>2018-10-03T10:57:57.000Z</time>
      </trkpt>
      <trkpt lat="42.49765833" lon="-8.00482">
        <ele>554.0</ele>
        <time>2018-10-03T10:57:58.000Z</time>
      </trkpt>
      <trkpt lat="42.49766667" lon="-8.00481667">
        <ele>554.0</ele>
        <time>2018-10-03T10:57:59.000Z</time>
      </trkpt>
      <trkpt lat="42.497675" lon="-8.00481">
        <ele>554.0</ele>
        <time>2018-10-03T10:58:00.000Z</time>
      </trkpt>
      <trkpt lat="42.49768167" lon="-8.00480167">
        <ele>554.0</ele>
        <time>2018-10-03T10:58:01.000Z</time>
      </trkpt>
      <trkpt lat="42.49768833" lon="-8.00479167">
        <ele>554.0</ele>
        <time>2018-10-03T10:58:02.000Z</time>
      </trkpt>
      <trkpt lat="42.49768833" lon="-8.00478833">
        <ele>554.0</ele>
        <time>2018-10-03T10:58:03.000Z</time>
      </trkpt>
      <trkpt lat="42.49768833" lon="-8.00478833">
        <ele>554.0</ele>
        <time>2018-10-03T10:58:04.000Z</time>
      </trkpt>
      <trkpt lat="42.49768833" lon="-8.00478833">
        <ele>554.0</ele>
        <time>2018-10-03T10:58:05.000Z</time>
      </trkpt>
      <trkpt lat="42.49768833" lon="-8.00479167">
        <ele>554.0</ele>
        <time>2018-10-03T10:58:06.000Z</time>
      </trkpt>
      <trkpt lat="42.49769167" lon="-8.00479667">
        <ele>554.0</ele>
        <time>2018-10-03T10:58:07.000Z</time>
      </trkpt>
      <trkpt lat="42.49769333" lon="-8.00480167">
        <ele>554.0</ele>
        <time>2018-10-03T10:58:08.000Z</time>
      </trkpt>
      <trkpt lat="42.49769167" lon="-8.00481">
        <ele>554.0</ele>
        <time>2018-10-03T10:58:09.000Z</time>
      </trkpt>
      <trkpt lat="42.49768833" lon="-8.00482167">
        <ele>554.0</ele>
        <time>2018-10-03T10:58:10.000Z</time>
      </trkpt>
      <trkpt lat="42.497685" lon="-8.00483667">
        <ele>554.0</ele>
        <time>2018-10-03T10:58:11.000Z</time>
      </trkpt>
      <trkpt lat="42.49769" lon="-8.00485167">
        <ele>554.0</ele>
        <time>2018-10-03T10:58:12.000Z</time>
      </trkpt>
      <trkpt lat="42.4977" lon="-8.00486167">
        <ele>555.0</ele>
        <time>2018-10-03T10:58:13.000Z</time>
      </trkpt>
      <trkpt lat="42.49771333" lon="-8.00487">
        <ele>555.0</ele>
        <time>2018-10-03T10:58:14.000Z</time>
      </trkpt>
      <trkpt lat="42.49772667" lon="-8.00487667">
        <ele>555.0</ele>
        <time>2018-10-03T10:58:15.000Z</time>
      </trkpt>
      <trkpt lat="42.497735" lon="-8.00488667">
        <ele>555.0</ele>
        <time>2018-10-03T10:58:16.000Z</time>
      </trkpt>
      <trkpt lat="42.49774" lon="-8.00489833">
        <ele>556.0</ele>
        <time>2018-10-03T10:58:17.000Z</time>
      </trkpt>
      <trkpt lat="42.49774" lon="-8.00491667">
        <ele>556.0</ele>
        <time>2018-10-03T10:58:18.000Z</time>
      </trkpt>
      <trkpt lat="42.49774833" lon="-8.00492667">
        <ele>556.0</ele>
        <time>2018-10-03T10:58:19.000Z</time>
      </trkpt>
      <trkpt lat="42.49775833" lon="-8.00493667">
        <ele>557.0</ele>
        <time>2018-10-03T10:58:20.000Z</time>
      </trkpt>
      <trkpt lat="42.49776833" lon="-8.004945">
        <ele>557.0</ele>
        <time>2018-10-03T10:58:21.000Z</time>
      </trkpt>
      <trkpt lat="42.49777833" lon="-8.00496333">
        <ele>557.0</ele>
        <time>2018-10-03T10:58:22.000Z</time>
      </trkpt>
      <trkpt lat="42.49778833" lon="-8.004975">
        <ele>557.0</ele>
        <time>2018-10-03T10:58:23.000Z</time>
      </trkpt>
      <trkpt lat="42.49780167" lon="-8.00498333">
        <ele>558.0</ele>
        <time>2018-10-03T10:58:24.000Z</time>
      </trkpt>
      <trkpt lat="42.49781667" lon="-8.00499167">
        <ele>558.0</ele>
        <time>2018-10-03T10:58:25.000Z</time>
      </trkpt>
      <trkpt lat="42.49782833" lon="-8.00499833">
        <ele>558.0</ele>
        <time>2018-10-03T10:58:26.000Z</time>
      </trkpt>
      <trkpt lat="42.49784333" lon="-8.005005">
        <ele>559.0</ele>
        <time>2018-10-03T10:58:27.000Z</time>
      </trkpt>
      <trkpt lat="42.49785833" lon="-8.00501333">
        <ele>559.0</ele>
        <time>2018-10-03T10:58:28.000Z</time>
      </trkpt>
      <trkpt lat="42.49787833" lon="-8.00502333">
        <ele>559.0</ele>
        <time>2018-10-03T10:58:29.000Z</time>
      </trkpt>
      <trkpt lat="42.49789833" lon="-8.005035">
        <ele>560.0</ele>
        <time>2018-10-03T10:58:30.000Z</time>
      </trkpt>
      <trkpt lat="42.49792" lon="-8.005045">
        <ele>560.0</ele>
        <time>2018-10-03T10:58:31.000Z</time>
      </trkpt>
      <trkpt lat="42.49794333" lon="-8.00505333">
        <ele>560.0</ele>
        <time>2018-10-03T10:58:32.000Z</time>
      </trkpt>
      <trkpt lat="42.49796333" lon="-8.00505667">
        <ele>561.0</ele>
        <time>2018-10-03T10:58:33.000Z</time>
      </trkpt>
      <trkpt lat="42.49798333" lon="-8.00505667">
        <ele>561.0</ele>
        <time>2018-10-03T10:58:34.000Z</time>
      </trkpt>
      <trkpt lat="42.49799833" lon="-8.005055">
        <ele>562.0</ele>
        <time>2018-10-03T10:58:35.000Z</time>
      </trkpt>
      <trkpt lat="42.49800833" lon="-8.00505833">
        <ele>562.0</ele>
        <time>2018-10-03T10:58:36.000Z</time>
      </trkpt>
      <trkpt lat="42.49802167" lon="-8.00506833">
        <ele>562.0</ele>
        <time>2018-10-03T10:58:37.000Z</time>
      </trkpt>
      <trkpt lat="42.49802833" lon="-8.00507667">
        <ele>562.0</ele>
        <time>2018-10-03T10:58:38.000Z</time>
      </trkpt>
      <trkpt lat="42.49803833" lon="-8.00508167">
        <ele>563.0</ele>
        <time>2018-10-03T10:58:39.000Z</time>
      </trkpt>
      <trkpt lat="42.498045" lon="-8.00509167">
        <ele>563.0</ele>
        <time>2018-10-03T10:58:40.000Z</time>
      </trkpt>
      <trkpt lat="42.498055" lon="-8.0051">
        <ele>563.0</ele>
        <time>2018-10-03T10:58:41.000Z</time>
      </trkpt>
      <trkpt lat="42.49806" lon="-8.00511833">
        <ele>563.0</ele>
        <time>2018-10-03T10:58:42.000Z</time>
      </trkpt>
      <trkpt lat="42.498065" lon="-8.00513833">
        <ele>563.0</ele>
        <time>2018-10-03T10:58:43.000Z</time>
      </trkpt>
      <trkpt lat="42.49807667" lon="-8.005145">
        <ele>563.0</ele>
        <time>2018-10-03T10:58:44.000Z</time>
      </trkpt>
      <trkpt lat="42.49808833" lon="-8.00515333">
        <ele>563.0</ele>
        <time>2018-10-03T10:58:45.000Z</time>
      </trkpt>
      <trkpt lat="42.49809833" lon="-8.00516167">
        <ele>564.0</ele>
        <time>2018-10-03T10:58:46.000Z</time>
      </trkpt>
      <trkpt lat="42.49811333" lon="-8.00516833">
        <ele>564.0</ele>
        <time>2018-10-03T10:58:47.000Z</time>
      </trkpt>
      <trkpt lat="42.49813" lon="-8.00517667">
        <ele>564.0</ele>
        <time>2018-10-03T10:58:48.000Z</time>
      </trkpt>
      <trkpt lat="42.49814833" lon="-8.00518">
        <ele>564.0</ele>
        <time>2018-10-03T10:58:49.000Z</time>
      </trkpt>
      <trkpt lat="42.49816667" lon="-8.005185">
        <ele>564.0</ele>
        <time>2018-10-03T10:58:50.000Z</time>
      </trkpt>
      <trkpt lat="42.49818333" lon="-8.00518833">
        <ele>564.0</ele>
        <time>2018-10-03T10:58:51.000Z</time>
      </trkpt>
      <trkpt lat="42.49820167" lon="-8.00518833">
        <ele>564.0</ele>
        <time>2018-10-03T10:58:52.000Z</time>
      </trkpt>
      <trkpt lat="42.49821667" lon="-8.00519">
        <ele>564.0</ele>
        <time>2018-10-03T10:58:53.000Z</time>
      </trkpt>
      <trkpt lat="42.49823167" lon="-8.00519">
        <ele>564.0</ele>
        <time>2018-10-03T10:58:54.000Z</time>
      </trkpt>
      <trkpt lat="42.498245" lon="-8.00519167">
        <ele>565.0</ele>
        <time>2018-10-03T10:58:55.000Z</time>
      </trkpt>
      <trkpt lat="42.49825667" lon="-8.005195">
        <ele>565.0</ele>
        <time>2018-10-03T10:58:56.000Z</time>
      </trkpt>
      <trkpt lat="42.49826667" lon="-8.005195">
        <ele>565.0</ele>
        <time>2018-10-03T10:58:57.000Z</time>
      </trkpt>
      <trkpt lat="42.49827833" lon="-8.00519833">
        <ele>565.0</ele>
        <time>2018-10-03T10:58:58.000Z</time>
      </trkpt>
      <trkpt lat="42.49829167" lon="-8.00520167">
        <ele>566.0</ele>
        <time>2018-10-03T10:58:59.000Z</time>
      </trkpt>
      <trkpt lat="42.49830667" lon="-8.005205">
        <ele>566.0</ele>
        <time>2018-10-03T10:59:00.000Z</time>
      </trkpt>
      <trkpt lat="42.49832" lon="-8.00520833">
        <ele>566.0</ele>
        <time>2018-10-03T10:59:01.000Z</time>
      </trkpt>
      <trkpt lat="42.498335" lon="-8.00521">
        <ele>566.0</ele>
        <time>2018-10-03T10:59:02.000Z</time>
      </trkpt>
      <trkpt lat="42.49834833" lon="-8.005215">
        <ele>566.0</ele>
        <time>2018-10-03T10:59:03.000Z</time>
      </trkpt>
      <trkpt lat="42.49837" lon="-8.00521833">
        <ele>566.0</ele>
        <time>2018-10-03T10:59:04.000Z</time>
      </trkpt>
      <trkpt lat="42.49839333" lon="-8.00522333">
        <ele>566.0</ele>
        <time>2018-10-03T10:59:05.000Z</time>
      </trkpt>
      <trkpt lat="42.498415" lon="-8.00522833">
        <ele>566.0</ele>
        <time>2018-10-03T10:59:06.000Z</time>
      </trkpt>
      <trkpt lat="42.498435" lon="-8.00523833">
        <ele>566.0</ele>
        <time>2018-10-03T10:59:07.000Z</time>
      </trkpt>
      <trkpt lat="42.49845333" lon="-8.00524667">
        <ele>566.0</ele>
        <time>2018-10-03T10:59:08.000Z</time>
      </trkpt>
      <trkpt lat="42.49846833" lon="-8.005255">
        <ele>566.0</ele>
        <time>2018-10-03T10:59:09.000Z</time>
      </trkpt>
      <trkpt lat="42.49848167" lon="-8.00526333">
        <ele>566.0</ele>
        <time>2018-10-03T10:59:10.000Z</time>
      </trkpt>
      <trkpt lat="42.49849167" lon="-8.005275">
        <ele>566.0</ele>
        <time>2018-10-03T10:59:11.000Z</time>
      </trkpt>
      <trkpt lat="42.49850167" lon="-8.00528667">
        <ele>565.0</ele>
        <time>2018-10-03T10:59:12.000Z</time>
      </trkpt>
      <trkpt lat="42.49850667" lon="-8.0053">
        <ele>565.0</ele>
        <time>2018-10-03T10:59:13.000Z</time>
      </trkpt>
      <trkpt lat="42.49851167" lon="-8.005315">
        <ele>565.0</ele>
        <time>2018-10-03T10:59:14.000Z</time>
      </trkpt>
      <trkpt lat="42.49851333" lon="-8.00532833">
        <ele>565.0</ele>
        <time>2018-10-03T10:59:15.000Z</time>
      </trkpt>
      <trkpt lat="42.49851833" lon="-8.00534">
        <ele>565.0</ele>
        <time>2018-10-03T10:59:16.000Z</time>
      </trkpt>
      <trkpt lat="42.49853" lon="-8.00535333">
        <ele>565.0</ele>
        <time>2018-10-03T10:59:17.000Z</time>
      </trkpt>
      <trkpt lat="42.49854" lon="-8.00537">
        <ele>565.0</ele>
        <time>2018-10-03T10:59:18.000Z</time>
      </trkpt>
      <trkpt lat="42.49855833" lon="-8.00539333">
        <ele>565.0</ele>
        <time>2018-10-03T10:59:19.000Z</time>
      </trkpt>
      <trkpt lat="42.49856833" lon="-8.00541333">
        <ele>565.0</ele>
        <time>2018-10-03T10:59:20.000Z</time>
      </trkpt>
      <trkpt lat="42.49857833" lon="-8.00543">
        <ele>565.0</ele>
        <time>2018-10-03T10:59:21.000Z</time>
      </trkpt>
      <trkpt lat="42.49858833" lon="-8.00544833">
        <ele>565.0</ele>
        <time>2018-10-03T10:59:22.000Z</time>
      </trkpt>
      <trkpt lat="42.49859667" lon="-8.00547">
        <ele>566.0</ele>
        <time>2018-10-03T10:59:23.000Z</time>
      </trkpt>
      <trkpt lat="42.49860667" lon="-8.00548833">
        <ele>566.0</ele>
        <time>2018-10-03T10:59:24.000Z</time>
      </trkpt>
      <trkpt lat="42.49861333" lon="-8.00550667">
        <ele>566.0</ele>
        <time>2018-10-03T10:59:25.000Z</time>
      </trkpt>
      <trkpt lat="42.49862" lon="-8.00552167">
        <ele>566.0</ele>
        <time>2018-10-03T10:59:26.000Z</time>
      </trkpt>
      <trkpt lat="42.49863167" lon="-8.00553833">
        <ele>566.0</ele>
        <time>2018-10-03T10:59:27.000Z</time>
      </trkpt>
      <trkpt lat="42.498645" lon="-8.005555">
        <ele>566.0</ele>
        <time>2018-10-03T10:59:28.000Z</time>
      </trkpt>
      <trkpt lat="42.49865833" lon="-8.00557">
        <ele>566.0</ele>
        <time>2018-10-03T10:59:29.000Z</time>
      </trkpt>
      <trkpt lat="42.49866333" lon="-8.005585">
        <ele>566.0</ele>
        <time>2018-10-03T10:59:30.000Z</time>
      </trkpt>
      <trkpt lat="42.49867" lon="-8.00560333">
        <ele>566.0</ele>
        <time>2018-10-03T10:59:31.000Z</time>
      </trkpt>
      <trkpt lat="42.49867833" lon="-8.00562167">
        <ele>566.0</ele>
        <time>2018-10-03T10:59:32.000Z</time>
      </trkpt>
      <trkpt lat="42.49868667" lon="-8.005635">
        <ele>566.0</ele>
        <time>2018-10-03T10:59:33.000Z</time>
      </trkpt>
      <trkpt lat="42.4987" lon="-8.00564833">
        <ele>566.0</ele>
        <time>2018-10-03T10:59:34.000Z</time>
      </trkpt>
      <trkpt lat="42.49871333" lon="-8.00566333">
        <ele>567.0</ele>
        <time>2018-10-03T10:59:35.000Z</time>
      </trkpt>
      <trkpt lat="42.49872333" lon="-8.005685">
        <ele>567.0</ele>
        <time>2018-10-03T10:59:36.000Z</time>
      </trkpt>
      <trkpt lat="42.49873333" lon="-8.00570167">
        <ele>567.0</ele>
        <time>2018-10-03T10:59:37.000Z</time>
      </trkpt>
      <trkpt lat="42.49873667" lon="-8.00571833">
        <ele>567.0</ele>
        <time>2018-10-03T10:59:38.000Z</time>
      </trkpt>
      <trkpt lat="42.49874333" lon="-8.00573333">
        <ele>567.0</ele>
        <time>2018-10-03T10:59:39.000Z</time>
      </trkpt>
      <trkpt lat="42.49874833" lon="-8.00574667">
        <ele>567.0</ele>
        <time>2018-10-03T10:59:40.000Z</time>
      </trkpt>
      <trkpt lat="42.49875333" lon="-8.00576167">
        <ele>567.0</ele>
        <time>2018-10-03T10:59:41.000Z</time>
      </trkpt>
      <trkpt lat="42.49876167" lon="-8.00577667">
        <ele>567.0</ele>
        <time>2018-10-03T10:59:42.000Z</time>
      </trkpt>
      <trkpt lat="42.49877333" lon="-8.00578833">
        <ele>567.0</ele>
        <time>2018-10-03T10:59:43.000Z</time>
      </trkpt>
      <trkpt lat="42.49878667" lon="-8.00579833">
        <ele>567.0</ele>
        <time>2018-10-03T10:59:44.000Z</time>
      </trkpt>
      <trkpt lat="42.49880167" lon="-8.00581167">
        <ele>568.0</ele>
        <time>2018-10-03T10:59:45.000Z</time>
      </trkpt>
      <trkpt lat="42.49881667" lon="-8.00583333">
        <ele>568.0</ele>
        <time>2018-10-03T10:59:46.000Z</time>
      </trkpt>
      <trkpt lat="42.49882667" lon="-8.00585">
        <ele>568.0</ele>
        <time>2018-10-03T10:59:47.000Z</time>
      </trkpt>
      <trkpt lat="42.49883" lon="-8.00587">
        <ele>568.0</ele>
        <time>2018-10-03T10:59:48.000Z</time>
      </trkpt>
      <trkpt lat="42.498835" lon="-8.00589">
        <ele>568.0</ele>
        <time>2018-10-03T10:59:49.000Z</time>
      </trkpt>
      <trkpt lat="42.49883833" lon="-8.00591">
        <ele>568.0</ele>
        <time>2018-10-03T10:59:50.000Z</time>
      </trkpt>
      <trkpt lat="42.498845" lon="-8.00592833">
        <ele>568.0</ele>
        <time>2018-10-03T10:59:51.000Z</time>
      </trkpt>
      <trkpt lat="42.49885" lon="-8.00594667">
        <ele>568.0</ele>
        <time>2018-10-03T10:59:52.000Z</time>
      </trkpt>
      <trkpt lat="42.49885333" lon="-8.00596667">
        <ele>568.0</ele>
        <time>2018-10-03T10:59:53.000Z</time>
      </trkpt>
      <trkpt lat="42.49886" lon="-8.00598833">
        <ele>568.0</ele>
        <time>2018-10-03T10:59:54.000Z</time>
      </trkpt>
      <trkpt lat="42.49887333" lon="-8.00600167">
        <ele>569.0</ele>
        <time>2018-10-03T10:59:55.000Z</time>
      </trkpt>
      <trkpt lat="42.498885" lon="-8.00602167">
        <ele>569.0</ele>
        <time>2018-10-03T10:59:56.000Z</time>
      </trkpt>
      <trkpt lat="42.49889833" lon="-8.00604">
        <ele>569.0</ele>
        <time>2018-10-03T10:59:57.000Z</time>
      </trkpt>
      <trkpt lat="42.49890833" lon="-8.00605667">
        <ele>569.0</ele>
        <time>2018-10-03T10:59:58.000Z</time>
      </trkpt>
      <trkpt lat="42.498915" lon="-8.00607333">
        <ele>569.0</ele>
        <time>2018-10-03T10:59:59.000Z</time>
      </trkpt>
      <trkpt lat="42.49892167" lon="-8.00608833">
        <ele>569.0</ele>
        <time>2018-10-03T11:00:00.000Z</time>
      </trkpt>
      <trkpt lat="42.49892833" lon="-8.0061">
        <ele>570.0</ele>
        <time>2018-10-03T11:00:01.000Z</time>
      </trkpt>
      <trkpt lat="42.498935" lon="-8.006115">
        <ele>570.0</ele>
        <time>2018-10-03T11:00:02.000Z</time>
      </trkpt>
      <trkpt lat="42.49894" lon="-8.00613">
        <ele>570.0</ele>
        <time>2018-10-03T11:00:03.000Z</time>
      </trkpt>
      <trkpt lat="42.49894667" lon="-8.00614167">
        <ele>570.0</ele>
        <time>2018-10-03T11:00:04.000Z</time>
      </trkpt>
      <trkpt lat="42.49895833" lon="-8.006155">
        <ele>570.0</ele>
        <time>2018-10-03T11:00:05.000Z</time>
      </trkpt>
      <trkpt lat="42.498975" lon="-8.00616833">
        <ele>570.0</ele>
        <time>2018-10-03T11:00:06.000Z</time>
      </trkpt>
      <trkpt lat="42.49899333" lon="-8.00618167">
        <ele>570.0</ele>
        <time>2018-10-03T11:00:07.000Z</time>
      </trkpt>
      <trkpt lat="42.49901" lon="-8.006195">
        <ele>570.0</ele>
        <time>2018-10-03T11:00:08.000Z</time>
      </trkpt>
      <trkpt lat="42.49902" lon="-8.00620833">
        <ele>571.0</ele>
        <time>2018-10-03T11:00:09.000Z</time>
      </trkpt>
      <trkpt lat="42.49903167" lon="-8.00622333">
        <ele>571.0</ele>
        <time>2018-10-03T11:00:10.000Z</time>
      </trkpt>
      <trkpt lat="42.49904333" lon="-8.00624">
        <ele>571.0</ele>
        <time>2018-10-03T11:00:11.000Z</time>
      </trkpt>
      <trkpt lat="42.49905333" lon="-8.00624667">
        <ele>571.0</ele>
        <time>2018-10-03T11:00:12.000Z</time>
      </trkpt>
      <trkpt lat="42.49905667" lon="-8.00626333">
        <ele>571.0</ele>
        <time>2018-10-03T11:00:13.000Z</time>
      </trkpt>
      <trkpt lat="42.49906167" lon="-8.00628833">
        <ele>571.0</ele>
        <time>2018-10-03T11:00:14.000Z</time>
      </trkpt>
      <trkpt lat="42.49907" lon="-8.00630333">
        <ele>571.0</ele>
        <time>2018-10-03T11:00:15.000Z</time>
      </trkpt>
      <trkpt lat="42.49907667" lon="-8.006325">
        <ele>571.0</ele>
        <time>2018-10-03T11:00:16.000Z</time>
      </trkpt>
      <trkpt lat="42.49908833" lon="-8.006345">
        <ele>571.0</ele>
        <time>2018-10-03T11:00:17.000Z</time>
      </trkpt>
      <trkpt lat="42.49909833" lon="-8.00636333">
        <ele>572.0</ele>
        <time>2018-10-03T11:00:18.000Z</time>
      </trkpt>
      <trkpt lat="42.499115" lon="-8.00637667">
        <ele>572.0</ele>
        <time>2018-10-03T11:00:19.000Z</time>
      </trkpt>
      <trkpt lat="42.499135" lon="-8.00639">
        <ele>572.0</ele>
        <time>2018-10-03T11:00:20.000Z</time>
      </trkpt>
      <trkpt lat="42.49915667" lon="-8.0064">
        <ele>572.0</ele>
        <time>2018-10-03T11:00:21.000Z</time>
      </trkpt>
      <trkpt lat="42.49916833" lon="-8.00641667">
        <ele>572.0</ele>
        <time>2018-10-03T11:00:22.000Z</time>
      </trkpt>
      <trkpt lat="42.49918" lon="-8.00643333">
        <ele>573.0</ele>
        <time>2018-10-03T11:00:23.000Z</time>
      </trkpt>
      <trkpt lat="42.49919" lon="-8.006445">
        <ele>573.0</ele>
        <time>2018-10-03T11:00:24.000Z</time>
      </trkpt>
      <trkpt lat="42.49920167" lon="-8.00645833">
        <ele>573.0</ele>
        <time>2018-10-03T11:00:25.000Z</time>
      </trkpt>
      <trkpt lat="42.49921167" lon="-8.00647667">
        <ele>573.0</ele>
        <time>2018-10-03T11:00:26.000Z</time>
      </trkpt>
      <trkpt lat="42.49921667" lon="-8.00650333">
        <ele>573.0</ele>
        <time>2018-10-03T11:00:27.000Z</time>
      </trkpt>
      <trkpt lat="42.49922333" lon="-8.00653">
        <ele>573.0</ele>
        <time>2018-10-03T11:00:28.000Z</time>
      </trkpt>
      <trkpt lat="42.49922667" lon="-8.00654167">
        <ele>573.0</ele>
        <time>2018-10-03T11:00:29.000Z</time>
      </trkpt>
      <trkpt lat="42.49923833" lon="-8.00655167">
        <ele>573.0</ele>
        <time>2018-10-03T11:00:30.000Z</time>
      </trkpt>
      <trkpt lat="42.49925167" lon="-8.00656333">
        <ele>573.0</ele>
        <time>2018-10-03T11:00:31.000Z</time>
      </trkpt>
      <trkpt lat="42.49927" lon="-8.006585">
        <ele>573.0</ele>
        <time>2018-10-03T11:00:32.000Z</time>
      </trkpt>
      <trkpt lat="42.49928333" lon="-8.0066">
        <ele>573.0</ele>
        <time>2018-10-03T11:00:33.000Z</time>
      </trkpt>
      <trkpt lat="42.499295" lon="-8.006615">
        <ele>573.0</ele>
        <time>2018-10-03T11:00:34.000Z</time>
      </trkpt>
      <trkpt lat="42.49930333" lon="-8.00663">
        <ele>573.0</ele>
        <time>2018-10-03T11:00:35.000Z</time>
      </trkpt>
      <trkpt lat="42.49931" lon="-8.00665">
        <ele>573.0</ele>
        <time>2018-10-03T11:00:36.000Z</time>
      </trkpt>
      <trkpt lat="42.499315" lon="-8.00666667">
        <ele>574.0</ele>
        <time>2018-10-03T11:00:37.000Z</time>
      </trkpt>
      <trkpt lat="42.49932" lon="-8.00668">
        <ele>574.0</ele>
        <time>2018-10-03T11:00:38.000Z</time>
      </trkpt>
      <trkpt lat="42.49932333" lon="-8.00669333">
        <ele>574.0</ele>
        <time>2018-10-03T11:00:39.000Z</time>
      </trkpt>
      <trkpt lat="42.49932667" lon="-8.006705">
        <ele>574.0</ele>
        <time>2018-10-03T11:00:40.000Z</time>
      </trkpt>
      <trkpt lat="42.49933167" lon="-8.00671833">
        <ele>574.0</ele>
        <time>2018-10-03T11:00:41.000Z</time>
      </trkpt>
      <trkpt lat="42.49934" lon="-8.00673333">
        <ele>574.0</ele>
        <time>2018-10-03T11:00:42.000Z</time>
      </trkpt>
      <trkpt lat="42.49935333" lon="-8.00674833">
        <ele>574.0</ele>
        <time>2018-10-03T11:00:43.000Z</time>
      </trkpt>
      <trkpt lat="42.49937" lon="-8.00676333">
        <ele>574.0</ele>
        <time>2018-10-03T11:00:44.000Z</time>
      </trkpt>
      <trkpt lat="42.499385" lon="-8.006775">
        <ele>574.0</ele>
        <time>2018-10-03T11:00:45.000Z</time>
      </trkpt>
      <trkpt lat="42.49939667" lon="-8.00678667">
        <ele>573.0</ele>
        <time>2018-10-03T11:00:46.000Z</time>
      </trkpt>
      <trkpt lat="42.49940833" lon="-8.0068">
        <ele>573.0</ele>
        <time>2018-10-03T11:00:47.000Z</time>
      </trkpt>
      <trkpt lat="42.49941833" lon="-8.00681333">
        <ele>573.0</ele>
        <time>2018-10-03T11:00:48.000Z</time>
      </trkpt>
      <trkpt lat="42.49942167" lon="-8.00684333">
        <ele>573.0</ele>
        <time>2018-10-03T11:00:49.000Z</time>
      </trkpt>
      <trkpt lat="42.49943" lon="-8.00685833">
        <ele>573.0</ele>
        <time>2018-10-03T11:00:50.000Z</time>
      </trkpt>
      <trkpt lat="42.49943667" lon="-8.00685833">
        <ele>574.0</ele>
        <time>2018-10-03T11:00:51.000Z</time>
      </trkpt>
      <trkpt lat="42.499445" lon="-8.00686333">
        <ele>574.0</ele>
        <time>2018-10-03T11:00:52.000Z</time>
      </trkpt>
      <trkpt lat="42.49945833" lon="-8.00687333">
        <ele>574.0</ele>
        <time>2018-10-03T11:00:53.000Z</time>
      </trkpt>
      <trkpt lat="42.49946833" lon="-8.006885">
        <ele>574.0</ele>
        <time>2018-10-03T11:00:54.000Z</time>
      </trkpt>
      <trkpt lat="42.49947667" lon="-8.00689833">
        <ele>574.0</ele>
        <time>2018-10-03T11:00:55.000Z</time>
      </trkpt>
      <trkpt lat="42.499485" lon="-8.00691167">
        <ele>574.0</ele>
        <time>2018-10-03T11:00:56.000Z</time>
      </trkpt>
      <trkpt lat="42.49949167" lon="-8.00692667">
        <ele>574.0</ele>
        <time>2018-10-03T11:00:57.000Z</time>
      </trkpt>
      <trkpt lat="42.49949833" lon="-8.00694167">
        <ele>573.0</ele>
        <time>2018-10-03T11:00:58.000Z</time>
      </trkpt>
      <trkpt lat="42.49951" lon="-8.006955">
        <ele>573.0</ele>
        <time>2018-10-03T11:00:59.000Z</time>
      </trkpt>
      <trkpt lat="42.49951667" lon="-8.00696333">
        <ele>573.0</ele>
        <time>2018-10-03T11:01:00.000Z</time>
      </trkpt>
      <trkpt lat="42.49951833" lon="-8.00696833">
        <ele>573.0</ele>
        <time>2018-10-03T11:01:01.000Z</time>
      </trkpt>
      <trkpt lat="42.49952833" lon="-8.00697667">
        <ele>573.0</ele>
        <time>2018-10-03T11:01:02.000Z</time>
      </trkpt>
      <trkpt lat="42.499535" lon="-8.00698833">
        <ele>573.0</ele>
        <time>2018-10-03T11:01:03.000Z</time>
      </trkpt>
      <trkpt lat="42.49954333" lon="-8.007">
        <ele>573.0</ele>
        <time>2018-10-03T11:01:04.000Z</time>
      </trkpt>
      <trkpt lat="42.49955333" lon="-8.00701">
        <ele>573.0</ele>
        <time>2018-10-03T11:01:05.000Z</time>
      </trkpt>
      <trkpt lat="42.49956167" lon="-8.00702167">
        <ele>573.0</ele>
        <time>2018-10-03T11:01:06.000Z</time>
      </trkpt>
      <trkpt lat="42.49957" lon="-8.00703667">
        <ele>573.0</ele>
        <time>2018-10-03T11:01:07.000Z</time>
      </trkpt>
      <trkpt lat="42.49957833" lon="-8.00705333">
        <ele>573.0</ele>
        <time>2018-10-03T11:01:08.000Z</time>
      </trkpt>
      <trkpt lat="42.49958667" lon="-8.00707">
        <ele>574.0</ele>
        <time>2018-10-03T11:01:09.000Z</time>
      </trkpt>
      <trkpt lat="42.49959333" lon="-8.00708667">
        <ele>574.0</ele>
        <time>2018-10-03T11:01:10.000Z</time>
      </trkpt>
      <trkpt lat="42.49960167" lon="-8.00710667">
        <ele>574.0</ele>
        <time>2018-10-03T11:01:11.000Z</time>
      </trkpt>
      <trkpt lat="42.49961167" lon="-8.00712333">
        <ele>574.0</ele>
        <time>2018-10-03T11:01:12.000Z</time>
      </trkpt>
      <trkpt lat="42.499625" lon="-8.00714">
        <ele>574.0</ele>
        <time>2018-10-03T11:01:13.000Z</time>
      </trkpt>
      <trkpt lat="42.49964167" lon="-8.00716333">
        <ele>574.0</ele>
        <time>2018-10-03T11:01:14.000Z</time>
      </trkpt>
      <trkpt lat="42.49965667" lon="-8.00718667">
        <ele>575.0</ele>
        <time>2018-10-03T11:01:15.000Z</time>
      </trkpt>
      <trkpt lat="42.49967" lon="-8.00721">
        <ele>575.0</ele>
        <time>2018-10-03T11:01:16.000Z</time>
      </trkpt>
      <trkpt lat="42.49968333" lon="-8.00723333">
        <ele>575.0</ele>
        <time>2018-10-03T11:01:17.000Z</time>
      </trkpt>
      <trkpt lat="42.49969167" lon="-8.00724833">
        <ele>576.0</ele>
        <time>2018-10-03T11:01:18.000Z</time>
      </trkpt>
      <trkpt lat="42.49969833" lon="-8.00726667">
        <ele>576.0</ele>
        <time>2018-10-03T11:01:19.000Z</time>
      </trkpt>
      <trkpt lat="42.49970667" lon="-8.007285">
        <ele>576.0</ele>
        <time>2018-10-03T11:01:20.000Z</time>
      </trkpt>
      <trkpt lat="42.499715" lon="-8.00730333">
        <ele>576.0</ele>
        <time>2018-10-03T11:01:21.000Z</time>
      </trkpt>
      <trkpt lat="42.49972333" lon="-8.00732167">
        <ele>576.0</ele>
        <time>2018-10-03T11:01:22.000Z</time>
      </trkpt>
      <trkpt lat="42.49973333" lon="-8.00733667">
        <ele>577.0</ele>
        <time>2018-10-03T11:01:23.000Z</time>
      </trkpt>
      <trkpt lat="42.49974167" lon="-8.00735333">
        <ele>577.0</ele>
        <time>2018-10-03T11:01:24.000Z</time>
      </trkpt>
      <trkpt lat="42.49975" lon="-8.00737">
        <ele>577.0</ele>
        <time>2018-10-03T11:01:25.000Z</time>
      </trkpt>
      <trkpt lat="42.49976" lon="-8.00738667">
        <ele>577.0</ele>
        <time>2018-10-03T11:01:26.000Z</time>
      </trkpt>
      <trkpt lat="42.499765" lon="-8.0074">
        <ele>577.0</ele>
        <time>2018-10-03T11:01:27.000Z</time>
      </trkpt>
      <trkpt lat="42.49977" lon="-8.00740833">
        <ele>577.0</ele>
        <time>2018-10-03T11:01:28.000Z</time>
      </trkpt>
      <trkpt lat="42.499775" lon="-8.00741167">
        <ele>577.0</ele>
        <time>2018-10-03T11:01:29.000Z</time>
      </trkpt>
      <trkpt lat="42.49978333" lon="-8.00741667">
        <ele>577.0</ele>
        <time>2018-10-03T11:01:30.000Z</time>
      </trkpt>
      <trkpt lat="42.49978833" lon="-8.00743167">
        <ele>577.0</ele>
        <time>2018-10-03T11:01:31.000Z</time>
      </trkpt>
      <trkpt lat="42.4998" lon="-8.007435">
        <ele>577.0</ele>
        <time>2018-10-03T11:01:32.000Z</time>
      </trkpt>
      <trkpt lat="42.49979333" lon="-8.00744">
        <ele>576.0</ele>
        <time>2018-10-03T11:01:33.000Z</time>
      </trkpt>
      <trkpt lat="42.499785" lon="-8.00745333">
        <ele>576.0</ele>
        <time>2018-10-03T11:01:34.000Z</time>
      </trkpt>
      <trkpt lat="42.49977333" lon="-8.00746667">
        <ele>576.0</ele>
        <time>2018-10-03T11:01:35.000Z</time>
      </trkpt>
      <trkpt lat="42.49976333" lon="-8.00747667">
        <ele>576.0</ele>
        <time>2018-10-03T11:01:36.000Z</time>
      </trkpt>
      <trkpt lat="42.49975333" lon="-8.00748333">
        <ele>576.0</ele>
        <time>2018-10-03T11:01:37.000Z</time>
      </trkpt>
      <trkpt lat="42.49974667" lon="-8.00749667">
        <ele>576.0</ele>
        <time>2018-10-03T11:01:38.000Z</time>
      </trkpt>
      <trkpt lat="42.49974167" lon="-8.00750667">
        <ele>576.0</ele>
        <time>2018-10-03T11:01:39.000Z</time>
      </trkpt>
      <trkpt lat="42.49974" lon="-8.00751333">
        <ele>576.0</ele>
        <time>2018-10-03T11:01:40.000Z</time>
      </trkpt>
      <trkpt lat="42.499735" lon="-8.007515">
        <ele>576.0</ele>
        <time>2018-10-03T11:01:41.000Z</time>
      </trkpt>
      <trkpt lat="42.49973333" lon="-8.00751667">
        <ele>576.0</ele>
        <time>2018-10-03T11:01:42.000Z</time>
      </trkpt>
      <trkpt lat="42.49973167" lon="-8.00751833">
        <ele>576.0</ele>
        <time>2018-10-03T11:01:43.000Z</time>
      </trkpt>
      <trkpt lat="42.499735" lon="-8.00752333">
        <ele>576.0</ele>
        <time>2018-10-03T11:01:44.000Z</time>
      </trkpt>
      <trkpt lat="42.49974167" lon="-8.007525">
        <ele>576.0</ele>
        <time>2018-10-03T11:01:45.000Z</time>
      </trkpt>
      <trkpt lat="42.49975" lon="-8.00753667">
        <ele>576.0</ele>
        <time>2018-10-03T11:01:46.000Z</time>
      </trkpt>
      <trkpt lat="42.49975833" lon="-8.00755">
        <ele>576.0</ele>
        <time>2018-10-03T11:01:47.000Z</time>
      </trkpt>
      <trkpt lat="42.49976167" lon="-8.00756">
        <ele>576.0</ele>
        <time>2018-10-03T11:01:48.000Z</time>
      </trkpt>
      <trkpt lat="42.49976667" lon="-8.00757">
        <ele>576.0</ele>
        <time>2018-10-03T11:01:49.000Z</time>
      </trkpt>
      <trkpt lat="42.499775" lon="-8.00758333">
        <ele>576.0</ele>
        <time>2018-10-03T11:01:50.000Z</time>
      </trkpt>
      <trkpt lat="42.49978333" lon="-8.00759333">
        <ele>576.0</ele>
        <time>2018-10-03T11:01:51.000Z</time>
      </trkpt>
      <trkpt lat="42.49979333" lon="-8.00761">
        <ele>576.0</ele>
        <time>2018-10-03T11:01:52.000Z</time>
      </trkpt>
      <trkpt lat="42.49980833" lon="-8.00762">
        <ele>576.0</ele>
        <time>2018-10-03T11:01:53.000Z</time>
      </trkpt>
      <trkpt lat="42.49981833" lon="-8.007635">
        <ele>576.0</ele>
        <time>2018-10-03T11:01:54.000Z</time>
      </trkpt>
      <trkpt lat="42.49982667" lon="-8.00765">
        <ele>576.0</ele>
        <time>2018-10-03T11:01:55.000Z</time>
      </trkpt>
      <trkpt lat="42.499835" lon="-8.007665">
        <ele>576.0</ele>
        <time>2018-10-03T11:01:56.000Z</time>
      </trkpt>
      <trkpt lat="42.49984333" lon="-8.00767833">
        <ele>576.0</ele>
        <time>2018-10-03T11:01:57.000Z</time>
      </trkpt>
      <trkpt lat="42.49985333" lon="-8.00769167">
        <ele>576.0</ele>
        <time>2018-10-03T11:01:58.000Z</time>
      </trkpt>
      <trkpt lat="42.499865" lon="-8.00770667">
        <ele>576.0</ele>
        <time>2018-10-03T11:01:59.000Z</time>
      </trkpt>
      <trkpt lat="42.499875" lon="-8.00773">
        <ele>576.0</ele>
        <time>2018-10-03T11:02:00.000Z</time>
      </trkpt>
      <trkpt lat="42.499885" lon="-8.00776">
        <ele>575.0</ele>
        <time>2018-10-03T11:02:01.000Z</time>
      </trkpt>
      <trkpt lat="42.499895" lon="-8.00777833">
        <ele>575.0</ele>
        <time>2018-10-03T11:02:02.000Z</time>
      </trkpt>
      <trkpt lat="42.49990667" lon="-8.007795">
        <ele>575.0</ele>
        <time>2018-10-03T11:02:03.000Z</time>
      </trkpt>
      <trkpt lat="42.49992167" lon="-8.00781333">
        <ele>575.0</ele>
        <time>2018-10-03T11:02:04.000Z</time>
      </trkpt>
      <trkpt lat="42.499935" lon="-8.00782">
        <ele>575.0</ele>
        <time>2018-10-03T11:02:05.000Z</time>
      </trkpt>
      <trkpt lat="42.49994667" lon="-8.007835">
        <ele>575.0</ele>
        <time>2018-10-03T11:02:06.000Z</time>
      </trkpt>
      <trkpt lat="42.49995833" lon="-8.00785167">
        <ele>575.0</ele>
        <time>2018-10-03T11:02:07.000Z</time>
      </trkpt>
      <trkpt lat="42.49997167" lon="-8.00786667">
        <ele>575.0</ele>
        <time>2018-10-03T11:02:08.000Z</time>
      </trkpt>
      <trkpt lat="42.499985" lon="-8.00788167">
        <ele>575.0</ele>
        <time>2018-10-03T11:02:09.000Z</time>
      </trkpt>
      <trkpt lat="42.49999667" lon="-8.00789333">
        <ele>575.0</ele>
        <time>2018-10-03T11:02:10.000Z</time>
      </trkpt>
      <trkpt lat="42.50000667" lon="-8.00790667">
        <ele>575.0</ele>
        <time>2018-10-03T11:02:11.000Z</time>
      </trkpt>
      <trkpt lat="42.500015" lon="-8.00792">
        <ele>575.0</ele>
        <time>2018-10-03T11:02:12.000Z</time>
      </trkpt>
      <trkpt lat="42.50002333" lon="-8.007935">
        <ele>575.0</ele>
        <time>2018-10-03T11:02:13.000Z</time>
      </trkpt>
      <trkpt lat="42.50003333" lon="-8.00795">
        <ele>575.0</ele>
        <time>2018-10-03T11:02:14.000Z</time>
      </trkpt>
      <trkpt lat="42.50004167" lon="-8.00796667">
        <ele>575.0</ele>
        <time>2018-10-03T11:02:15.000Z</time>
      </trkpt>
      <trkpt lat="42.50005333" lon="-8.00798167">
        <ele>575.0</ele>
        <time>2018-10-03T11:02:16.000Z</time>
      </trkpt>
      <trkpt lat="42.500065" lon="-8.00799667">
        <ele>575.0</ele>
        <time>2018-10-03T11:02:17.000Z</time>
      </trkpt>
      <trkpt lat="42.50007667" lon="-8.00801333">
        <ele>575.0</ele>
        <time>2018-10-03T11:02:18.000Z</time>
      </trkpt>
      <trkpt lat="42.50008833" lon="-8.00803">
        <ele>576.0</ele>
        <time>2018-10-03T11:02:19.000Z</time>
      </trkpt>
      <trkpt lat="42.50010333" lon="-8.00804">
        <ele>576.0</ele>
        <time>2018-10-03T11:02:20.000Z</time>
      </trkpt>
      <trkpt lat="42.50011667" lon="-8.00804167">
        <ele>576.0</ele>
        <time>2018-10-03T11:02:21.000Z</time>
      </trkpt>
      <trkpt lat="42.50013333" lon="-8.00804167">
        <ele>576.0</ele>
        <time>2018-10-03T11:02:22.000Z</time>
      </trkpt>
      <trkpt lat="42.50014833" lon="-8.00804667">
        <ele>576.0</ele>
        <time>2018-10-03T11:02:23.000Z</time>
      </trkpt>
      <trkpt lat="42.50016" lon="-8.00805667">
        <ele>576.0</ele>
        <time>2018-10-03T11:02:24.000Z</time>
      </trkpt>
      <trkpt lat="42.50017167" lon="-8.00807167">
        <ele>576.0</ele>
        <time>2018-10-03T11:02:25.000Z</time>
      </trkpt>
      <trkpt lat="42.50018167" lon="-8.00809">
        <ele>576.0</ele>
        <time>2018-10-03T11:02:26.000Z</time>
      </trkpt>
      <trkpt lat="42.50019167" lon="-8.00810833">
        <ele>576.0</ele>
        <time>2018-10-03T11:02:27.000Z</time>
      </trkpt>
      <trkpt lat="42.50020167" lon="-8.008125">
        <ele>576.0</ele>
        <time>2018-10-03T11:02:28.000Z</time>
      </trkpt>
      <trkpt lat="42.50021333" lon="-8.008145">
        <ele>576.0</ele>
        <time>2018-10-03T11:02:29.000Z</time>
      </trkpt>
      <trkpt lat="42.500225" lon="-8.00816167">
        <ele>576.0</ele>
        <time>2018-10-03T11:02:30.000Z</time>
      </trkpt>
      <trkpt lat="42.50023667" lon="-8.00818">
        <ele>576.0</ele>
        <time>2018-10-03T11:02:31.000Z</time>
      </trkpt>
      <trkpt lat="42.50025" lon="-8.00819833">
        <ele>576.0</ele>
        <time>2018-10-03T11:02:32.000Z</time>
      </trkpt>
      <trkpt lat="42.50026167" lon="-8.008215">
        <ele>577.0</ele>
        <time>2018-10-03T11:02:33.000Z</time>
      </trkpt>
      <trkpt lat="42.50027167" lon="-8.00823167">
        <ele>577.0</ele>
        <time>2018-10-03T11:02:34.000Z</time>
      </trkpt>
      <trkpt lat="42.50028" lon="-8.00825167">
        <ele>577.0</ele>
        <time>2018-10-03T11:02:35.000Z</time>
      </trkpt>
      <trkpt lat="42.50028833" lon="-8.00827167">
        <ele>577.0</ele>
        <time>2018-10-03T11:02:36.000Z</time>
      </trkpt>
      <trkpt lat="42.50029667" lon="-8.00828667">
        <ele>577.0</ele>
        <time>2018-10-03T11:02:37.000Z</time>
      </trkpt>
      <trkpt lat="42.500305" lon="-8.00830167">
        <ele>577.0</ele>
        <time>2018-10-03T11:02:38.000Z</time>
      </trkpt>
      <trkpt lat="42.50031167" lon="-8.008315">
        <ele>577.0</ele>
        <time>2018-10-03T11:02:39.000Z</time>
      </trkpt>
      <trkpt lat="42.50031833" lon="-8.00833333">
        <ele>577.0</ele>
        <time>2018-10-03T11:02:40.000Z</time>
      </trkpt>
      <trkpt lat="42.50032667" lon="-8.00835">
        <ele>577.0</ele>
        <time>2018-10-03T11:02:41.000Z</time>
      </trkpt>
      <trkpt lat="42.50033833" lon="-8.00836667">
        <ele>577.0</ele>
        <time>2018-10-03T11:02:42.000Z</time>
      </trkpt>
      <trkpt lat="42.50035167" lon="-8.00838167">
        <ele>577.0</ele>
        <time>2018-10-03T11:02:43.000Z</time>
      </trkpt>
      <trkpt lat="42.50036167" lon="-8.008395">
        <ele>577.0</ele>
        <time>2018-10-03T11:02:44.000Z</time>
      </trkpt>
      <trkpt lat="42.50037667" lon="-8.00840667">
        <ele>577.0</ele>
        <time>2018-10-03T11:02:45.000Z</time>
      </trkpt>
      <trkpt lat="42.50039" lon="-8.00841667">
        <ele>577.0</ele>
        <time>2018-10-03T11:02:46.000Z</time>
      </trkpt>
      <trkpt lat="42.500405" lon="-8.00842667">
        <ele>577.0</ele>
        <time>2018-10-03T11:02:47.000Z</time>
      </trkpt>
      <trkpt lat="42.50042" lon="-8.00843333">
        <ele>577.0</ele>
        <time>2018-10-03T11:02:48.000Z</time>
      </trkpt>
      <trkpt lat="42.50043333" lon="-8.00844167">
        <ele>577.0</ele>
        <time>2018-10-03T11:02:49.000Z</time>
      </trkpt>
      <trkpt lat="42.50044667" lon="-8.00844833">
        <ele>577.0</ele>
        <time>2018-10-03T11:02:50.000Z</time>
      </trkpt>
      <trkpt lat="42.50045833" lon="-8.00845667">
        <ele>577.0</ele>
        <time>2018-10-03T11:02:51.000Z</time>
      </trkpt>
      <trkpt lat="42.50047333" lon="-8.00846667">
        <ele>577.0</ele>
        <time>2018-10-03T11:02:52.000Z</time>
      </trkpt>
      <trkpt lat="42.50049" lon="-8.00847833">
        <ele>577.0</ele>
        <time>2018-10-03T11:02:53.000Z</time>
      </trkpt>
      <trkpt lat="42.50050333" lon="-8.00849167">
        <ele>577.0</ele>
        <time>2018-10-03T11:02:54.000Z</time>
      </trkpt>
      <trkpt lat="42.50051667" lon="-8.00850333">
        <ele>578.0</ele>
        <time>2018-10-03T11:02:55.000Z</time>
      </trkpt>
      <trkpt lat="42.50052833" lon="-8.008515">
        <ele>578.0</ele>
        <time>2018-10-03T11:02:56.000Z</time>
      </trkpt>
      <trkpt lat="42.50054" lon="-8.00853">
        <ele>578.0</ele>
        <time>2018-10-03T11:02:57.000Z</time>
      </trkpt>
      <trkpt lat="42.50055667" lon="-8.00854333">
        <ele>578.0</ele>
        <time>2018-10-03T11:02:58.000Z</time>
      </trkpt>
      <trkpt lat="42.50057" lon="-8.00855333">
        <ele>578.0</ele>
        <time>2018-10-03T11:02:59.000Z</time>
      </trkpt>
      <trkpt lat="42.50058167" lon="-8.00856333">
        <ele>578.0</ele>
        <time>2018-10-03T11:03:00.000Z</time>
      </trkpt>
      <trkpt lat="42.50059667" lon="-8.00857333">
        <ele>578.0</ele>
        <time>2018-10-03T11:03:01.000Z</time>
      </trkpt>
      <trkpt lat="42.50061167" lon="-8.00858333">
        <ele>578.0</ele>
        <time>2018-10-03T11:03:02.000Z</time>
      </trkpt>
      <trkpt lat="42.50062833" lon="-8.00859333">
        <ele>578.0</ele>
        <time>2018-10-03T11:03:03.000Z</time>
      </trkpt>
      <trkpt lat="42.500645" lon="-8.00860333">
        <ele>578.0</ele>
        <time>2018-10-03T11:03:04.000Z</time>
      </trkpt>
      <trkpt lat="42.50065833" lon="-8.008615">
        <ele>578.0</ele>
        <time>2018-10-03T11:03:05.000Z</time>
      </trkpt>
      <trkpt lat="42.50067333" lon="-8.00862667">
        <ele>578.0</ele>
        <time>2018-10-03T11:03:06.000Z</time>
      </trkpt>
      <trkpt lat="42.50068833" lon="-8.00864">
        <ele>578.0</ele>
        <time>2018-10-03T11:03:07.000Z</time>
      </trkpt>
      <trkpt lat="42.5007" lon="-8.00865333">
        <ele>578.0</ele>
        <time>2018-10-03T11:03:08.000Z</time>
      </trkpt>
      <trkpt lat="42.500705" lon="-8.008665">
        <ele>578.0</ele>
        <time>2018-10-03T11:03:09.000Z</time>
      </trkpt>
      <trkpt lat="42.500715" lon="-8.008675">
        <ele>578.0</ele>
        <time>2018-10-03T11:03:10.000Z</time>
      </trkpt>
      <trkpt lat="42.50072667" lon="-8.00868333">
        <ele>578.0</ele>
        <time>2018-10-03T11:03:11.000Z</time>
      </trkpt>
      <trkpt lat="42.50073667" lon="-8.008695">
        <ele>578.0</ele>
        <time>2018-10-03T11:03:12.000Z</time>
      </trkpt>
      <trkpt lat="42.50074833" lon="-8.00870333">
        <ele>578.0</ele>
        <time>2018-10-03T11:03:13.000Z</time>
      </trkpt>
      <trkpt lat="42.50076" lon="-8.00870833">
        <ele>578.0</ele>
        <time>2018-10-03T11:03:14.000Z</time>
      </trkpt>
      <trkpt lat="42.50077333" lon="-8.00871167">
        <ele>579.0</ele>
        <time>2018-10-03T11:03:15.000Z</time>
      </trkpt>
      <trkpt lat="42.50078833" lon="-8.00871167">
        <ele>579.0</ele>
        <time>2018-10-03T11:03:16.000Z</time>
      </trkpt>
      <trkpt lat="42.5008" lon="-8.00871333">
        <ele>579.0</ele>
        <time>2018-10-03T11:03:17.000Z</time>
      </trkpt>
      <trkpt lat="42.500815" lon="-8.008715">
        <ele>579.0</ele>
        <time>2018-10-03T11:03:18.000Z</time>
      </trkpt>
      <trkpt lat="42.50082667" lon="-8.008715">
        <ele>579.0</ele>
        <time>2018-10-03T11:03:19.000Z</time>
      </trkpt>
      <trkpt lat="42.50083833" lon="-8.00872">
        <ele>579.0</ele>
        <time>2018-10-03T11:03:20.000Z</time>
      </trkpt>
      <trkpt lat="42.50084833" lon="-8.00872667">
        <ele>579.0</ele>
        <time>2018-10-03T11:03:21.000Z</time>
      </trkpt>
      <trkpt lat="42.50086167" lon="-8.00873167">
        <ele>580.0</ele>
        <time>2018-10-03T11:03:22.000Z</time>
      </trkpt>
      <trkpt lat="42.50087667" lon="-8.00873667">
        <ele>580.0</ele>
        <time>2018-10-03T11:03:23.000Z</time>
      </trkpt>
      <trkpt lat="42.50089333" lon="-8.00874333">
        <ele>580.0</ele>
        <time>2018-10-03T11:03:24.000Z</time>
      </trkpt>
      <trkpt lat="42.50090833" lon="-8.00875">
        <ele>580.0</ele>
        <time>2018-10-03T11:03:25.000Z</time>
      </trkpt>
      <trkpt lat="42.50092167" lon="-8.00875667">
        <ele>580.0</ele>
        <time>2018-10-03T11:03:26.000Z</time>
      </trkpt>
      <trkpt lat="42.50093333" lon="-8.00876333">
        <ele>580.0</ele>
        <time>2018-10-03T11:03:27.000Z</time>
      </trkpt>
      <trkpt lat="42.50094667" lon="-8.00877">
        <ele>580.0</ele>
        <time>2018-10-03T11:03:28.000Z</time>
      </trkpt>
      <trkpt lat="42.50096" lon="-8.008775">
        <ele>580.0</ele>
        <time>2018-10-03T11:03:29.000Z</time>
      </trkpt>
      <trkpt lat="42.50097667" lon="-8.00878167">
        <ele>580.0</ele>
        <time>2018-10-03T11:03:30.000Z</time>
      </trkpt>
      <trkpt lat="42.50099333" lon="-8.00879">
        <ele>580.0</ele>
        <time>2018-10-03T11:03:31.000Z</time>
      </trkpt>
      <trkpt lat="42.50100667" lon="-8.0088">
        <ele>580.0</ele>
        <time>2018-10-03T11:03:32.000Z</time>
      </trkpt>
      <trkpt lat="42.50102167" lon="-8.00880667">
        <ele>580.0</ele>
        <time>2018-10-03T11:03:33.000Z</time>
      </trkpt>
      <trkpt lat="42.50103667" lon="-8.008815">
        <ele>580.0</ele>
        <time>2018-10-03T11:03:34.000Z</time>
      </trkpt>
      <trkpt lat="42.50105167" lon="-8.00882333">
        <ele>580.0</ele>
        <time>2018-10-03T11:03:35.000Z</time>
      </trkpt>
      <trkpt lat="42.50106833" lon="-8.00883167">
        <ele>580.0</ele>
        <time>2018-10-03T11:03:36.000Z</time>
      </trkpt>
      <trkpt lat="42.50108333" lon="-8.00884">
        <ele>580.0</ele>
        <time>2018-10-03T11:03:37.000Z</time>
      </trkpt>
      <trkpt lat="42.50109833" lon="-8.00884667">
        <ele>580.0</ele>
        <time>2018-10-03T11:03:38.000Z</time>
      </trkpt>
      <trkpt lat="42.50111333" lon="-8.00885667">
        <ele>580.0</ele>
        <time>2018-10-03T11:03:39.000Z</time>
      </trkpt>
      <trkpt lat="42.50112667" lon="-8.008865">
        <ele>580.0</ele>
        <time>2018-10-03T11:03:40.000Z</time>
      </trkpt>
      <trkpt lat="42.50114" lon="-8.00887333">
        <ele>580.0</ele>
        <time>2018-10-03T11:03:41.000Z</time>
      </trkpt>
      <trkpt lat="42.50115333" lon="-8.00888333">
        <ele>581.0</ele>
        <time>2018-10-03T11:03:42.000Z</time>
      </trkpt>
      <trkpt lat="42.50116833" lon="-8.00889333">
        <ele>581.0</ele>
        <time>2018-10-03T11:03:43.000Z</time>
      </trkpt>
      <trkpt lat="42.50118667" lon="-8.0089">
        <ele>581.0</ele>
        <time>2018-10-03T11:03:44.000Z</time>
      </trkpt>
      <trkpt lat="42.50120167" lon="-8.00890833">
        <ele>581.0</ele>
        <time>2018-10-03T11:03:45.000Z</time>
      </trkpt>
      <trkpt lat="42.50122" lon="-8.008915">
        <ele>581.0</ele>
        <time>2018-10-03T11:03:46.000Z</time>
      </trkpt>
      <trkpt lat="42.501235" lon="-8.00892167">
        <ele>581.0</ele>
        <time>2018-10-03T11:03:47.000Z</time>
      </trkpt>
      <trkpt lat="42.50124833" lon="-8.00893">
        <ele>581.0</ele>
        <time>2018-10-03T11:03:48.000Z</time>
      </trkpt>
      <trkpt lat="42.501265" lon="-8.00893667">
        <ele>581.0</ele>
        <time>2018-10-03T11:03:49.000Z</time>
      </trkpt>
      <trkpt lat="42.50127833" lon="-8.00894333">
        <ele>581.0</ele>
        <time>2018-10-03T11:03:50.000Z</time>
      </trkpt>
      <trkpt lat="42.50129333" lon="-8.00895">
        <ele>581.0</ele>
        <time>2018-10-03T11:03:51.000Z</time>
      </trkpt>
      <trkpt lat="42.50130833" lon="-8.00895667">
        <ele>581.0</ele>
        <time>2018-10-03T11:03:52.000Z</time>
      </trkpt>
      <trkpt lat="42.50132167" lon="-8.00896333">
        <ele>581.0</ele>
        <time>2018-10-03T11:03:53.000Z</time>
      </trkpt>
      <trkpt lat="42.50133667" lon="-8.00897">
        <ele>581.0</ele>
        <time>2018-10-03T11:03:54.000Z</time>
      </trkpt>
      <trkpt lat="42.50135167" lon="-8.008975">
        <ele>581.0</ele>
        <time>2018-10-03T11:03:55.000Z</time>
      </trkpt>
      <trkpt lat="42.50136333" lon="-8.00898333">
        <ele>581.0</ele>
        <time>2018-10-03T11:03:56.000Z</time>
      </trkpt>
      <trkpt lat="42.50138167" lon="-8.00898833">
        <ele>581.0</ele>
        <time>2018-10-03T11:03:57.000Z</time>
      </trkpt>
      <trkpt lat="42.50139667" lon="-8.008995">
        <ele>581.0</ele>
        <time>2018-10-03T11:03:58.000Z</time>
      </trkpt>
      <trkpt lat="42.50141167" lon="-8.00900333">
        <ele>582.0</ele>
        <time>2018-10-03T11:03:59.000Z</time>
      </trkpt>
      <trkpt lat="42.50142667" lon="-8.00901">
        <ele>582.0</ele>
        <time>2018-10-03T11:04:00.000Z</time>
      </trkpt>
      <trkpt lat="42.50144167" lon="-8.00901667">
        <ele>582.0</ele>
        <time>2018-10-03T11:04:01.000Z</time>
      </trkpt>
      <trkpt lat="42.501455" lon="-8.009025">
        <ele>582.0</ele>
        <time>2018-10-03T11:04:02.000Z</time>
      </trkpt>
      <trkpt lat="42.50147" lon="-8.00903">
        <ele>582.0</ele>
        <time>2018-10-03T11:04:03.000Z</time>
      </trkpt>
      <trkpt lat="42.50148333" lon="-8.00903667">
        <ele>582.0</ele>
        <time>2018-10-03T11:04:04.000Z</time>
      </trkpt>
      <trkpt lat="42.50149833" lon="-8.009045">
        <ele>582.0</ele>
        <time>2018-10-03T11:04:05.000Z</time>
      </trkpt>
      <trkpt lat="42.50151167" lon="-8.00905">
        <ele>582.0</ele>
        <time>2018-10-03T11:04:06.000Z</time>
      </trkpt>
      <trkpt lat="42.50152667" lon="-8.009055">
        <ele>583.0</ele>
        <time>2018-10-03T11:04:07.000Z</time>
      </trkpt>
      <trkpt lat="42.50154167" lon="-8.00906">
        <ele>583.0</ele>
        <time>2018-10-03T11:04:08.000Z</time>
      </trkpt>
      <trkpt lat="42.50155333" lon="-8.00906667">
        <ele>583.0</ele>
        <time>2018-10-03T11:04:09.000Z</time>
      </trkpt>
      <trkpt lat="42.50156833" lon="-8.00907167">
        <ele>583.0</ele>
        <time>2018-10-03T11:04:10.000Z</time>
      </trkpt>
      <trkpt lat="42.50158333" lon="-8.00907667">
        <ele>583.0</ele>
        <time>2018-10-03T11:04:11.000Z</time>
      </trkpt>
      <trkpt lat="42.5016" lon="-8.00908167">
        <ele>583.0</ele>
        <time>2018-10-03T11:04:12.000Z</time>
      </trkpt>
      <trkpt lat="42.50161667" lon="-8.00908667">
        <ele>583.0</ele>
        <time>2018-10-03T11:04:13.000Z</time>
      </trkpt>
      <trkpt lat="42.50163167" lon="-8.00909167">
        <ele>583.0</ele>
        <time>2018-10-03T11:04:14.000Z</time>
      </trkpt>
      <trkpt lat="42.50164667" lon="-8.00909667">
        <ele>583.0</ele>
        <time>2018-10-03T11:04:15.000Z</time>
      </trkpt>
      <trkpt lat="42.50166167" lon="-8.00910333">
        <ele>583.0</ele>
        <time>2018-10-03T11:04:16.000Z</time>
      </trkpt>
      <trkpt lat="42.50167667" lon="-8.00910833">
        <ele>582.0</ele>
        <time>2018-10-03T11:04:17.000Z</time>
      </trkpt>
      <trkpt lat="42.50169167" lon="-8.009115">
        <ele>582.0</ele>
        <time>2018-10-03T11:04:18.000Z</time>
      </trkpt>
      <trkpt lat="42.50170333" lon="-8.00912333">
        <ele>582.0</ele>
        <time>2018-10-03T11:04:19.000Z</time>
      </trkpt>
      <trkpt lat="42.50171333" lon="-8.00913">
        <ele>582.0</ele>
        <time>2018-10-03T11:04:20.000Z</time>
      </trkpt>
      <trkpt lat="42.501725" lon="-8.009135">
        <ele>582.0</ele>
        <time>2018-10-03T11:04:21.000Z</time>
      </trkpt>
      <trkpt lat="42.501735" lon="-8.00914167">
        <ele>582.0</ele>
        <time>2018-10-03T11:04:22.000Z</time>
      </trkpt>
      <trkpt lat="42.50174667" lon="-8.00914833">
        <ele>583.0</ele>
        <time>2018-10-03T11:04:23.000Z</time>
      </trkpt>
      <trkpt lat="42.50176333" lon="-8.00915">
        <ele>583.0</ele>
        <time>2018-10-03T11:04:24.000Z</time>
      </trkpt>
      <trkpt lat="42.50178167" lon="-8.00915167">
        <ele>583.0</ele>
        <time>2018-10-03T11:04:25.000Z</time>
      </trkpt>
      <trkpt lat="42.50179667" lon="-8.009155">
        <ele>583.0</ele>
        <time>2018-10-03T11:04:26.000Z</time>
      </trkpt>
      <trkpt lat="42.50181333" lon="-8.00915833">
        <ele>583.0</ele>
        <time>2018-10-03T11:04:27.000Z</time>
      </trkpt>
      <trkpt lat="42.50183" lon="-8.00916167">
        <ele>584.0</ele>
        <time>2018-10-03T11:04:28.000Z</time>
      </trkpt>
      <trkpt lat="42.501845" lon="-8.009165">
        <ele>584.0</ele>
        <time>2018-10-03T11:04:29.000Z</time>
      </trkpt>
      <trkpt lat="42.50185833" lon="-8.00917167">
        <ele>584.0</ele>
        <time>2018-10-03T11:04:30.000Z</time>
      </trkpt>
      <trkpt lat="42.50187" lon="-8.00917833">
        <ele>584.0</ele>
        <time>2018-10-03T11:04:31.000Z</time>
      </trkpt>
      <trkpt lat="42.50188" lon="-8.00918833">
        <ele>584.0</ele>
        <time>2018-10-03T11:04:32.000Z</time>
      </trkpt>
      <trkpt lat="42.50189" lon="-8.00919667">
        <ele>584.0</ele>
        <time>2018-10-03T11:04:33.000Z</time>
      </trkpt>
      <trkpt lat="42.50190167" lon="-8.00920167">
        <ele>584.0</ele>
        <time>2018-10-03T11:04:34.000Z</time>
      </trkpt>
      <trkpt lat="42.50191667" lon="-8.00920667">
        <ele>584.0</ele>
        <time>2018-10-03T11:04:35.000Z</time>
      </trkpt>
      <trkpt lat="42.50193667" lon="-8.00921167">
        <ele>584.0</ele>
        <time>2018-10-03T11:04:36.000Z</time>
      </trkpt>
      <trkpt lat="42.50195833" lon="-8.00921667">
        <ele>584.0</ele>
        <time>2018-10-03T11:04:37.000Z</time>
      </trkpt>
      <trkpt lat="42.50198333" lon="-8.00922167">
        <ele>584.0</ele>
        <time>2018-10-03T11:04:38.000Z</time>
      </trkpt>
      <trkpt lat="42.502005" lon="-8.009225">
        <ele>584.0</ele>
        <time>2018-10-03T11:04:39.000Z</time>
      </trkpt>
      <trkpt lat="42.502025" lon="-8.00922667">
        <ele>584.0</ele>
        <time>2018-10-03T11:04:40.000Z</time>
      </trkpt>
      <trkpt lat="42.50204333" lon="-8.009225">
        <ele>584.0</ele>
        <time>2018-10-03T11:04:41.000Z</time>
      </trkpt>
      <trkpt lat="42.502055" lon="-8.00922333">
        <ele>584.0</ele>
        <time>2018-10-03T11:04:42.000Z</time>
      </trkpt>
      <trkpt lat="42.50206667" lon="-8.00922">
        <ele>583.0</ele>
        <time>2018-10-03T11:04:43.000Z</time>
      </trkpt>
      <trkpt lat="42.50207833" lon="-8.00922">
        <ele>583.0</ele>
        <time>2018-10-03T11:04:44.000Z</time>
      </trkpt>
      <trkpt lat="42.50209167" lon="-8.00922">
        <ele>583.0</ele>
        <time>2018-10-03T11:04:45.000Z</time>
      </trkpt>
      <trkpt lat="42.50210833" lon="-8.00921833">
        <ele>583.0</ele>
        <time>2018-10-03T11:04:46.000Z</time>
      </trkpt>
      <trkpt lat="42.50212333" lon="-8.00921833">
        <ele>583.0</ele>
        <time>2018-10-03T11:04:47.000Z</time>
      </trkpt>
      <trkpt lat="42.50213667" lon="-8.00922">
        <ele>583.0</ele>
        <time>2018-10-03T11:04:48.000Z</time>
      </trkpt>
      <trkpt lat="42.50215" lon="-8.00922167">
        <ele>583.0</ele>
        <time>2018-10-03T11:04:49.000Z</time>
      </trkpt>
      <trkpt lat="42.502165" lon="-8.00922167">
        <ele>583.0</ele>
        <time>2018-10-03T11:04:50.000Z</time>
      </trkpt>
      <trkpt lat="42.50218" lon="-8.00921833">
        <ele>583.0</ele>
        <time>2018-10-03T11:04:51.000Z</time>
      </trkpt>
      <trkpt lat="42.50219333" lon="-8.00921667">
        <ele>583.0</ele>
        <time>2018-10-03T11:04:52.000Z</time>
      </trkpt>
      <trkpt lat="42.502205" lon="-8.00921833">
        <ele>583.0</ele>
        <time>2018-10-03T11:04:53.000Z</time>
      </trkpt>
      <trkpt lat="42.50222" lon="-8.00922">
        <ele>583.0</ele>
        <time>2018-10-03T11:04:54.000Z</time>
      </trkpt>
      <trkpt lat="42.502235" lon="-8.00922">
        <ele>583.0</ele>
        <time>2018-10-03T11:04:55.000Z</time>
      </trkpt>
      <trkpt lat="42.50225" lon="-8.00922333">
        <ele>584.0</ele>
        <time>2018-10-03T11:04:56.000Z</time>
      </trkpt>
      <trkpt lat="42.50226667" lon="-8.00922667">
        <ele>584.0</ele>
        <time>2018-10-03T11:04:57.000Z</time>
      </trkpt>
      <trkpt lat="42.50228167" lon="-8.00923167">
        <ele>584.0</ele>
        <time>2018-10-03T11:04:58.000Z</time>
      </trkpt>
      <trkpt lat="42.50229667" lon="-8.009235">
        <ele>584.0</ele>
        <time>2018-10-03T11:04:59.000Z</time>
      </trkpt>
      <trkpt lat="42.50231167" lon="-8.00924">
        <ele>584.0</ele>
        <time>2018-10-03T11:05:00.000Z</time>
      </trkpt>
      <trkpt lat="42.502325" lon="-8.00924667">
        <ele>584.0</ele>
        <time>2018-10-03T11:05:01.000Z</time>
      </trkpt>
      <trkpt lat="42.50234" lon="-8.00925">
        <ele>584.0</ele>
        <time>2018-10-03T11:05:02.000Z</time>
      </trkpt>
      <trkpt lat="42.50235833" lon="-8.00925">
        <ele>584.0</ele>
        <time>2018-10-03T11:05:03.000Z</time>
      </trkpt>
      <trkpt lat="42.502375" lon="-8.00925333">
        <ele>584.0</ele>
        <time>2018-10-03T11:05:04.000Z</time>
      </trkpt>
      <trkpt lat="42.50239" lon="-8.009255">
        <ele>584.0</ele>
        <time>2018-10-03T11:05:05.000Z</time>
      </trkpt>
      <trkpt lat="42.50240833" lon="-8.009255">
        <ele>584.0</ele>
        <time>2018-10-03T11:05:06.000Z</time>
      </trkpt>
      <trkpt lat="42.50242833" lon="-8.00925667">
        <ele>585.0</ele>
        <time>2018-10-03T11:05:07.000Z</time>
      </trkpt>
      <trkpt lat="42.50244667" lon="-8.00925833">
        <ele>585.0</ele>
        <time>2018-10-03T11:05:08.000Z</time>
      </trkpt>
      <trkpt lat="42.50246333" lon="-8.00926167">
        <ele>585.0</ele>
        <time>2018-10-03T11:05:09.000Z</time>
      </trkpt>
      <trkpt lat="42.50248167" lon="-8.00925833">
        <ele>585.0</ele>
        <time>2018-10-03T11:05:10.000Z</time>
      </trkpt>
      <trkpt lat="42.50249833" lon="-8.00926">
        <ele>585.0</ele>
        <time>2018-10-03T11:05:11.000Z</time>
      </trkpt>
      <trkpt lat="42.502515" lon="-8.00926">
        <ele>585.0</ele>
        <time>2018-10-03T11:05:12.000Z</time>
      </trkpt>
      <trkpt lat="42.50253167" lon="-8.00926167">
        <ele>585.0</ele>
        <time>2018-10-03T11:05:13.000Z</time>
      </trkpt>
      <trkpt lat="42.50255" lon="-8.00926">
        <ele>586.0</ele>
        <time>2018-10-03T11:05:14.000Z</time>
      </trkpt>
      <trkpt lat="42.50256667" lon="-8.00925833">
        <ele>586.0</ele>
        <time>2018-10-03T11:05:15.000Z</time>
      </trkpt>
      <trkpt lat="42.50258167" lon="-8.00925833">
        <ele>586.0</ele>
        <time>2018-10-03T11:05:16.000Z</time>
      </trkpt>
      <trkpt lat="42.5026" lon="-8.00926167">
        <ele>586.0</ele>
        <time>2018-10-03T11:05:17.000Z</time>
      </trkpt>
      <trkpt lat="42.50261833" lon="-8.00926333">
        <ele>586.0</ele>
        <time>2018-10-03T11:05:18.000Z</time>
      </trkpt>
      <trkpt lat="42.50263333" lon="-8.00926667">
        <ele>587.0</ele>
        <time>2018-10-03T11:05:19.000Z</time>
      </trkpt>
      <trkpt lat="42.50264833" lon="-8.00926833">
        <ele>587.0</ele>
        <time>2018-10-03T11:05:20.000Z</time>
      </trkpt>
      <trkpt lat="42.50266333" lon="-8.00927">
        <ele>587.0</ele>
        <time>2018-10-03T11:05:21.000Z</time>
      </trkpt>
      <trkpt lat="42.502675" lon="-8.00926667">
        <ele>587.0</ele>
        <time>2018-10-03T11:05:22.000Z</time>
      </trkpt>
      <trkpt lat="42.50268667" lon="-8.00925833">
        <ele>587.0</ele>
        <time>2018-10-03T11:05:23.000Z</time>
      </trkpt>
      <trkpt lat="42.50269833" lon="-8.009245">
        <ele>587.0</ele>
        <time>2018-10-03T11:05:24.000Z</time>
      </trkpt>
      <trkpt lat="42.50271" lon="-8.009235">
        <ele>587.0</ele>
        <time>2018-10-03T11:05:25.000Z</time>
      </trkpt>
      <trkpt lat="42.50272333" lon="-8.009225">
        <ele>587.0</ele>
        <time>2018-10-03T11:05:26.000Z</time>
      </trkpt>
      <trkpt lat="42.50273833" lon="-8.00921667">
        <ele>587.0</ele>
        <time>2018-10-03T11:05:27.000Z</time>
      </trkpt>
      <trkpt lat="42.50275333" lon="-8.00920833">
        <ele>587.0</ele>
        <time>2018-10-03T11:05:28.000Z</time>
      </trkpt>
      <trkpt lat="42.50276833" lon="-8.009205">
        <ele>588.0</ele>
        <time>2018-10-03T11:05:29.000Z</time>
      </trkpt>
      <trkpt lat="42.50278333" lon="-8.00920333">
        <ele>588.0</ele>
        <time>2018-10-03T11:05:30.000Z</time>
      </trkpt>
      <trkpt lat="42.50279667" lon="-8.00920333">
        <ele>588.0</ele>
        <time>2018-10-03T11:05:31.000Z</time>
      </trkpt>
      <trkpt lat="42.50281167" lon="-8.00920667">
        <ele>589.0</ele>
        <time>2018-10-03T11:05:32.000Z</time>
      </trkpt>
      <trkpt lat="42.50282833" lon="-8.00920833">
        <ele>589.0</ele>
        <time>2018-10-03T11:05:33.000Z</time>
      </trkpt>
      <trkpt lat="42.502845" lon="-8.00921">
        <ele>589.0</ele>
        <time>2018-10-03T11:05:34.000Z</time>
      </trkpt>
      <trkpt lat="42.50286" lon="-8.00921">
        <ele>590.0</ele>
        <time>2018-10-03T11:05:35.000Z</time>
      </trkpt>
      <trkpt lat="42.50287667" lon="-8.00921167">
        <ele>590.0</ele>
        <time>2018-10-03T11:05:36.000Z</time>
      </trkpt>
      <trkpt lat="42.50289167" lon="-8.00921333">
        <ele>590.0</ele>
        <time>2018-10-03T11:05:37.000Z</time>
      </trkpt>
      <trkpt lat="42.50290833" lon="-8.009215">
        <ele>590.0</ele>
        <time>2018-10-03T11:05:38.000Z</time>
      </trkpt>
      <trkpt lat="42.50292333" lon="-8.009215">
        <ele>591.0</ele>
        <time>2018-10-03T11:05:39.000Z</time>
      </trkpt>
      <trkpt lat="42.50294" lon="-8.009215">
        <ele>591.0</ele>
        <time>2018-10-03T11:05:40.000Z</time>
      </trkpt>
      <trkpt lat="42.502955" lon="-8.00921167">
        <ele>591.0</ele>
        <time>2018-10-03T11:05:41.000Z</time>
      </trkpt>
      <trkpt lat="42.50297" lon="-8.00920833">
        <ele>591.0</ele>
        <time>2018-10-03T11:05:42.000Z</time>
      </trkpt>
      <trkpt lat="42.502985" lon="-8.009205">
        <ele>592.0</ele>
        <time>2018-10-03T11:05:43.000Z</time>
      </trkpt>
      <trkpt lat="42.50300167" lon="-8.00920167">
        <ele>592.0</ele>
        <time>2018-10-03T11:05:44.000Z</time>
      </trkpt>
      <trkpt lat="42.50301667" lon="-8.00919833">
        <ele>592.0</ele>
        <time>2018-10-03T11:05:45.000Z</time>
      </trkpt>
      <trkpt lat="42.50303167" lon="-8.00919333">
        <ele>592.0</ele>
        <time>2018-10-03T11:05:46.000Z</time>
      </trkpt>
      <trkpt lat="42.50304667" lon="-8.00918667">
        <ele>592.0</ele>
        <time>2018-10-03T11:05:47.000Z</time>
      </trkpt>
      <trkpt lat="42.50306167" lon="-8.00918">
        <ele>592.0</ele>
        <time>2018-10-03T11:05:48.000Z</time>
      </trkpt>
      <trkpt lat="42.50307833" lon="-8.00917333">
        <ele>592.0</ele>
        <time>2018-10-03T11:05:49.000Z</time>
      </trkpt>
      <trkpt lat="42.50309333" lon="-8.00916667">
        <ele>592.0</ele>
        <time>2018-10-03T11:05:50.000Z</time>
      </trkpt>
      <trkpt lat="42.50310833" lon="-8.00916167">
        <ele>592.0</ele>
        <time>2018-10-03T11:05:51.000Z</time>
      </trkpt>
      <trkpt lat="42.50312333" lon="-8.00915333">
        <ele>592.0</ele>
        <time>2018-10-03T11:05:52.000Z</time>
      </trkpt>
      <trkpt lat="42.50314" lon="-8.00914333">
        <ele>591.0</ele>
        <time>2018-10-03T11:05:53.000Z</time>
      </trkpt>
      <trkpt lat="42.50315333" lon="-8.009135">
        <ele>591.0</ele>
        <time>2018-10-03T11:05:54.000Z</time>
      </trkpt>
      <trkpt lat="42.50316833" lon="-8.009125">
        <ele>591.0</ele>
        <time>2018-10-03T11:05:55.000Z</time>
      </trkpt>
      <trkpt lat="42.50318333" lon="-8.009115">
        <ele>591.0</ele>
        <time>2018-10-03T11:05:56.000Z</time>
      </trkpt>
      <trkpt lat="42.50319833" lon="-8.009105">
        <ele>591.0</ele>
        <time>2018-10-03T11:05:57.000Z</time>
      </trkpt>
      <trkpt lat="42.50321333" lon="-8.009095">
        <ele>591.0</ele>
        <time>2018-10-03T11:05:58.000Z</time>
      </trkpt>
      <trkpt lat="42.50322667" lon="-8.009085">
        <ele>591.0</ele>
        <time>2018-10-03T11:05:59.000Z</time>
      </trkpt>
      <trkpt lat="42.50324" lon="-8.00907333">
        <ele>590.0</ele>
        <time>2018-10-03T11:06:00.000Z</time>
      </trkpt>
      <trkpt lat="42.503255" lon="-8.00906167">
        <ele>590.0</ele>
        <time>2018-10-03T11:06:01.000Z</time>
      </trkpt>
      <trkpt lat="42.50327" lon="-8.00905333">
        <ele>590.0</ele>
        <time>2018-10-03T11:06:02.000Z</time>
      </trkpt>
      <trkpt lat="42.50328333" lon="-8.009045">
        <ele>590.0</ele>
        <time>2018-10-03T11:06:03.000Z</time>
      </trkpt>
      <trkpt lat="42.50329667" lon="-8.00903667">
        <ele>589.0</ele>
        <time>2018-10-03T11:06:04.000Z</time>
      </trkpt>
      <trkpt lat="42.50331333" lon="-8.00902833">
        <ele>589.0</ele>
        <time>2018-10-03T11:06:05.000Z</time>
      </trkpt>
      <trkpt lat="42.50333167" lon="-8.00902167">
        <ele>589.0</ele>
        <time>2018-10-03T11:06:06.000Z</time>
      </trkpt>
      <trkpt lat="42.50334667" lon="-8.00900833">
        <ele>589.0</ele>
        <time>2018-10-03T11:06:07.000Z</time>
      </trkpt>
      <trkpt lat="42.503365" lon="-8.00899167">
        <ele>589.0</ele>
        <time>2018-10-03T11:06:08.000Z</time>
      </trkpt>
      <trkpt lat="42.50337833" lon="-8.00897667">
        <ele>588.0</ele>
        <time>2018-10-03T11:06:09.000Z</time>
      </trkpt>
      <trkpt lat="42.50338833" lon="-8.00896667">
        <ele>588.0</ele>
        <time>2018-10-03T11:06:10.000Z</time>
      </trkpt>
      <trkpt lat="42.50339833" lon="-8.008955">
        <ele>588.0</ele>
        <time>2018-10-03T11:06:11.000Z</time>
      </trkpt>
      <trkpt lat="42.50341167" lon="-8.00894167">
        <ele>588.0</ele>
        <time>2018-10-03T11:06:12.000Z</time>
      </trkpt>
      <trkpt lat="42.50342333" lon="-8.00892833">
        <ele>587.0</ele>
        <time>2018-10-03T11:06:13.000Z</time>
      </trkpt>
      <trkpt lat="42.503435" lon="-8.00891167">
        <ele>587.0</ele>
        <time>2018-10-03T11:06:14.000Z</time>
      </trkpt>
      <trkpt lat="42.50345" lon="-8.00889333">
        <ele>587.0</ele>
        <time>2018-10-03T11:06:15.000Z</time>
      </trkpt>
      <trkpt lat="42.50346333" lon="-8.008875">
        <ele>586.0</ele>
        <time>2018-10-03T11:06:16.000Z</time>
      </trkpt>
      <trkpt lat="42.50347667" lon="-8.00885833">
        <ele>586.0</ele>
        <time>2018-10-03T11:06:17.000Z</time>
      </trkpt>
      <trkpt lat="42.50348833" lon="-8.00884167">
        <ele>586.0</ele>
        <time>2018-10-03T11:06:18.000Z</time>
      </trkpt>
      <trkpt lat="42.5035" lon="-8.008825">
        <ele>586.0</ele>
        <time>2018-10-03T11:06:19.000Z</time>
      </trkpt>
      <trkpt lat="42.50351167" lon="-8.00881">
        <ele>585.0</ele>
        <time>2018-10-03T11:06:20.000Z</time>
      </trkpt>
      <trkpt lat="42.50352333" lon="-8.00879667">
        <ele>585.0</ele>
        <time>2018-10-03T11:06:21.000Z</time>
      </trkpt>
      <trkpt lat="42.50353667" lon="-8.00878167">
        <ele>585.0</ele>
        <time>2018-10-03T11:06:22.000Z</time>
      </trkpt>
      <trkpt lat="42.50354833" lon="-8.008765">
        <ele>585.0</ele>
        <time>2018-10-03T11:06:23.000Z</time>
      </trkpt>
      <trkpt lat="42.50356167" lon="-8.00875">
        <ele>585.0</ele>
        <time>2018-10-03T11:06:24.000Z</time>
      </trkpt>
      <trkpt lat="42.503575" lon="-8.00873167">
        <ele>585.0</ele>
        <time>2018-10-03T11:06:25.000Z</time>
      </trkpt>
      <trkpt lat="42.50358833" lon="-8.00871333">
        <ele>584.0</ele>
        <time>2018-10-03T11:06:26.000Z</time>
      </trkpt>
      <trkpt lat="42.50360167" lon="-8.00869833">
        <ele>584.0</ele>
        <time>2018-10-03T11:06:27.000Z</time>
      </trkpt>
      <trkpt lat="42.50361333" lon="-8.00868333">
        <ele>584.0</ele>
        <time>2018-10-03T11:06:28.000Z</time>
      </trkpt>
      <trkpt lat="42.50362667" lon="-8.00866667">
        <ele>584.0</ele>
        <time>2018-10-03T11:06:29.000Z</time>
      </trkpt>
      <trkpt lat="42.50364" lon="-8.00865167">
        <ele>583.0</ele>
        <time>2018-10-03T11:06:30.000Z</time>
      </trkpt>
      <trkpt lat="42.50365167" lon="-8.00863667">
        <ele>583.0</ele>
        <time>2018-10-03T11:06:31.000Z</time>
      </trkpt>
      <trkpt lat="42.503665" lon="-8.00862333">
        <ele>583.0</ele>
        <time>2018-10-03T11:06:32.000Z</time>
      </trkpt>
      <trkpt lat="42.50368" lon="-8.00860833">
        <ele>583.0</ele>
        <time>2018-10-03T11:06:33.000Z</time>
      </trkpt>
      <trkpt lat="42.50369167" lon="-8.00859333">
        <ele>582.0</ele>
        <time>2018-10-03T11:06:34.000Z</time>
      </trkpt>
      <trkpt lat="42.50370333" lon="-8.00857667">
        <ele>582.0</ele>
        <time>2018-10-03T11:06:35.000Z</time>
      </trkpt>
      <trkpt lat="42.50371833" lon="-8.00855833">
        <ele>582.0</ele>
        <time>2018-10-03T11:06:36.000Z</time>
      </trkpt>
      <trkpt lat="42.50373333" lon="-8.00854167">
        <ele>582.0</ele>
        <time>2018-10-03T11:06:37.000Z</time>
      </trkpt>
      <trkpt lat="42.50374833" lon="-8.00852667">
        <ele>582.0</ele>
        <time>2018-10-03T11:06:38.000Z</time>
      </trkpt>
      <trkpt lat="42.50376167" lon="-8.00851167">
        <ele>581.0</ele>
        <time>2018-10-03T11:06:39.000Z</time>
      </trkpt>
      <trkpt lat="42.50377333" lon="-8.00849667">
        <ele>581.0</ele>
        <time>2018-10-03T11:06:40.000Z</time>
      </trkpt>
      <trkpt lat="42.503785" lon="-8.00848333">
        <ele>581.0</ele>
        <time>2018-10-03T11:06:41.000Z</time>
      </trkpt>
      <trkpt lat="42.50379667" lon="-8.00847167">
        <ele>581.0</ele>
        <time>2018-10-03T11:06:42.000Z</time>
      </trkpt>
      <trkpt lat="42.50380833" lon="-8.00846167">
        <ele>581.0</ele>
        <time>2018-10-03T11:06:43.000Z</time>
      </trkpt>
      <trkpt lat="42.50381833" lon="-8.00845167">
        <ele>581.0</ele>
        <time>2018-10-03T11:06:44.000Z</time>
      </trkpt>
      <trkpt lat="42.50382667" lon="-8.00844167">
        <ele>581.0</ele>
        <time>2018-10-03T11:06:45.000Z</time>
      </trkpt>
      <trkpt lat="42.50383667" lon="-8.00843333">
        <ele>581.0</ele>
        <time>2018-10-03T11:06:46.000Z</time>
      </trkpt>
      <trkpt lat="42.503845" lon="-8.00842333">
        <ele>581.0</ele>
        <time>2018-10-03T11:06:47.000Z</time>
      </trkpt>
      <trkpt lat="42.50385167" lon="-8.008415">
        <ele>581.0</ele>
        <time>2018-10-03T11:06:48.000Z</time>
      </trkpt>
      <trkpt lat="42.503865" lon="-8.00840667">
        <ele>581.0</ele>
        <time>2018-10-03T11:06:49.000Z</time>
      </trkpt>
      <trkpt lat="42.503875" lon="-8.0084">
        <ele>581.0</ele>
        <time>2018-10-03T11:06:50.000Z</time>
      </trkpt>
      <trkpt lat="42.50388667" lon="-8.00839167">
        <ele>581.0</ele>
        <time>2018-10-03T11:06:51.000Z</time>
      </trkpt>
      <trkpt lat="42.50390167" lon="-8.00838167">
        <ele>581.0</ele>
        <time>2018-10-03T11:06:52.000Z</time>
      </trkpt>
      <trkpt lat="42.503915" lon="-8.00837333">
        <ele>581.0</ele>
        <time>2018-10-03T11:06:53.000Z</time>
      </trkpt>
      <trkpt lat="42.50393" lon="-8.00836333">
        <ele>581.0</ele>
        <time>2018-10-03T11:06:54.000Z</time>
      </trkpt>
      <trkpt lat="42.503945" lon="-8.00835667">
        <ele>581.0</ele>
        <time>2018-10-03T11:06:55.000Z</time>
      </trkpt>
      <trkpt lat="42.50395833" lon="-8.00834833">
        <ele>581.0</ele>
        <time>2018-10-03T11:06:56.000Z</time>
      </trkpt>
      <trkpt lat="42.50397" lon="-8.00834">
        <ele>581.0</ele>
        <time>2018-10-03T11:06:57.000Z</time>
      </trkpt>
      <trkpt lat="42.50398167" lon="-8.00833333">
        <ele>581.0</ele>
        <time>2018-10-03T11:06:58.000Z</time>
      </trkpt>
      <trkpt lat="42.50399333" lon="-8.00832333">
        <ele>581.0</ele>
        <time>2018-10-03T11:06:59.000Z</time>
      </trkpt>
      <trkpt lat="42.50400333" lon="-8.00831667">
        <ele>581.0</ele>
        <time>2018-10-03T11:07:00.000Z</time>
      </trkpt>
      <trkpt lat="42.504015" lon="-8.00830833">
        <ele>581.0</ele>
        <time>2018-10-03T11:07:01.000Z</time>
      </trkpt>
      <trkpt lat="42.50402667" lon="-8.00829833">
        <ele>581.0</ele>
        <time>2018-10-03T11:07:02.000Z</time>
      </trkpt>
      <trkpt lat="42.50404" lon="-8.008285">
        <ele>581.0</ele>
        <time>2018-10-03T11:07:03.000Z</time>
      </trkpt>
      <trkpt lat="42.50405333" lon="-8.00827">
        <ele>581.0</ele>
        <time>2018-10-03T11:07:04.000Z</time>
      </trkpt>
      <trkpt lat="42.50407" lon="-8.00825167">
        <ele>581.0</ele>
        <time>2018-10-03T11:07:05.000Z</time>
      </trkpt>
      <trkpt lat="42.50408667" lon="-8.00823667">
        <ele>581.0</ele>
        <time>2018-10-03T11:07:06.000Z</time>
      </trkpt>
      <trkpt lat="42.50410333" lon="-8.00822833">
        <ele>581.0</ele>
        <time>2018-10-03T11:07:07.000Z</time>
      </trkpt>
      <trkpt lat="42.50411833" lon="-8.00822167">
        <ele>581.0</ele>
        <time>2018-10-03T11:07:08.000Z</time>
      </trkpt>
      <trkpt lat="42.50413167" lon="-8.00821667">
        <ele>581.0</ele>
        <time>2018-10-03T11:07:09.000Z</time>
      </trkpt>
      <trkpt lat="42.50414333" lon="-8.00821333">
        <ele>581.0</ele>
        <time>2018-10-03T11:07:10.000Z</time>
      </trkpt>
      <trkpt lat="42.50415667" lon="-8.00820833">
        <ele>581.0</ele>
        <time>2018-10-03T11:07:11.000Z</time>
      </trkpt>
      <trkpt lat="42.50417" lon="-8.00820167">
        <ele>581.0</ele>
        <time>2018-10-03T11:07:12.000Z</time>
      </trkpt>
      <trkpt lat="42.504185" lon="-8.008195">
        <ele>581.0</ele>
        <time>2018-10-03T11:07:13.000Z</time>
      </trkpt>
      <trkpt lat="42.50420167" lon="-8.00818833">
        <ele>581.0</ele>
        <time>2018-10-03T11:07:14.000Z</time>
      </trkpt>
      <trkpt lat="42.50421667" lon="-8.00818167">
        <ele>581.0</ele>
        <time>2018-10-03T11:07:15.000Z</time>
      </trkpt>
      <trkpt lat="42.50423333" lon="-8.00817333">
        <ele>581.0</ele>
        <time>2018-10-03T11:07:16.000Z</time>
      </trkpt>
      <trkpt lat="42.50424833" lon="-8.008165">
        <ele>582.0</ele>
        <time>2018-10-03T11:07:17.000Z</time>
      </trkpt>
      <trkpt lat="42.50426333" lon="-8.00815667">
        <ele>582.0</ele>
        <time>2018-10-03T11:07:18.000Z</time>
      </trkpt>
      <trkpt lat="42.50427667" lon="-8.00815">
        <ele>582.0</ele>
        <time>2018-10-03T11:07:19.000Z</time>
      </trkpt>
      <trkpt lat="42.50429" lon="-8.00814333">
        <ele>582.0</ele>
        <time>2018-10-03T11:07:20.000Z</time>
      </trkpt>
      <trkpt lat="42.504305" lon="-8.00813333">
        <ele>582.0</ele>
        <time>2018-10-03T11:07:21.000Z</time>
      </trkpt>
      <trkpt lat="42.50432" lon="-8.00812333">
        <ele>582.0</ele>
        <time>2018-10-03T11:07:22.000Z</time>
      </trkpt>
      <trkpt lat="42.50433333" lon="-8.00812167">
        <ele>582.0</ele>
        <time>2018-10-03T11:07:23.000Z</time>
      </trkpt>
      <trkpt lat="42.504345" lon="-8.00811833">
        <ele>582.0</ele>
        <time>2018-10-03T11:07:24.000Z</time>
      </trkpt>
      <trkpt lat="42.50435833" lon="-8.008115">
        <ele>582.0</ele>
        <time>2018-10-03T11:07:25.000Z</time>
      </trkpt>
      <trkpt lat="42.50437167" lon="-8.00810833">
        <ele>582.0</ele>
        <time>2018-10-03T11:07:26.000Z</time>
      </trkpt>
      <trkpt lat="42.50438333" lon="-8.00810167">
        <ele>583.0</ele>
        <time>2018-10-03T11:07:27.000Z</time>
      </trkpt>
      <trkpt lat="42.50439667" lon="-8.00809667">
        <ele>583.0</ele>
        <time>2018-10-03T11:07:28.000Z</time>
      </trkpt>
      <trkpt lat="42.50440833" lon="-8.00809333">
        <ele>583.0</ele>
        <time>2018-10-03T11:07:29.000Z</time>
      </trkpt>
      <trkpt lat="42.50442167" lon="-8.00809333">
        <ele>583.0</ele>
        <time>2018-10-03T11:07:30.000Z</time>
      </trkpt>
      <trkpt lat="42.50443167" lon="-8.00809833">
        <ele>583.0</ele>
        <time>2018-10-03T11:07:31.000Z</time>
      </trkpt>
      <trkpt lat="42.50444667" lon="-8.00810167">
        <ele>583.0</ele>
        <time>2018-10-03T11:07:32.000Z</time>
      </trkpt>
      <trkpt lat="42.50446" lon="-8.008105">
        <ele>583.0</ele>
        <time>2018-10-03T11:07:33.000Z</time>
      </trkpt>
      <trkpt lat="42.50447333" lon="-8.00810833">
        <ele>583.0</ele>
        <time>2018-10-03T11:07:34.000Z</time>
      </trkpt>
      <trkpt lat="42.50448667" lon="-8.00811">
        <ele>584.0</ele>
        <time>2018-10-03T11:07:35.000Z</time>
      </trkpt>
      <trkpt lat="42.50450333" lon="-8.00810833">
        <ele>584.0</ele>
        <time>2018-10-03T11:07:36.000Z</time>
      </trkpt>
      <trkpt lat="42.50451833" lon="-8.00810833">
        <ele>584.0</ele>
        <time>2018-10-03T11:07:37.000Z</time>
      </trkpt>
      <trkpt lat="42.50452833" lon="-8.00811167">
        <ele>584.0</ele>
        <time>2018-10-03T11:07:38.000Z</time>
      </trkpt>
      <trkpt lat="42.50454" lon="-8.00811167">
        <ele>584.0</ele>
        <time>2018-10-03T11:07:39.000Z</time>
      </trkpt>
      <trkpt lat="42.504555" lon="-8.00811">
        <ele>584.0</ele>
        <time>2018-10-03T11:07:40.000Z</time>
      </trkpt>
      <trkpt lat="42.50457" lon="-8.00810833">
        <ele>584.0</ele>
        <time>2018-10-03T11:07:41.000Z</time>
      </trkpt>
      <trkpt lat="42.504585" lon="-8.00810833">
        <ele>584.0</ele>
        <time>2018-10-03T11:07:42.000Z</time>
      </trkpt>
      <trkpt lat="42.5046" lon="-8.00811">
        <ele>584.0</ele>
        <time>2018-10-03T11:07:43.000Z</time>
      </trkpt>
      <trkpt lat="42.504615" lon="-8.008115">
        <ele>584.0</ele>
        <time>2018-10-03T11:07:44.000Z</time>
      </trkpt>
      <trkpt lat="42.50463167" lon="-8.00812">
        <ele>584.0</ele>
        <time>2018-10-03T11:07:45.000Z</time>
      </trkpt>
      <trkpt lat="42.50464833" lon="-8.008125">
        <ele>584.0</ele>
        <time>2018-10-03T11:07:46.000Z</time>
      </trkpt>
      <trkpt lat="42.50466333" lon="-8.00813333">
        <ele>584.0</ele>
        <time>2018-10-03T11:07:47.000Z</time>
      </trkpt>
      <trkpt lat="42.50467667" lon="-8.00814333">
        <ele>584.0</ele>
        <time>2018-10-03T11:07:48.000Z</time>
      </trkpt>
      <trkpt lat="42.50469" lon="-8.00815333">
        <ele>584.0</ele>
        <time>2018-10-03T11:07:49.000Z</time>
      </trkpt>
      <trkpt lat="42.50470167" lon="-8.008165">
        <ele>584.0</ele>
        <time>2018-10-03T11:07:50.000Z</time>
      </trkpt>
      <trkpt lat="42.504715" lon="-8.00817833">
        <ele>584.0</ele>
        <time>2018-10-03T11:07:51.000Z</time>
      </trkpt>
      <trkpt lat="42.50472833" lon="-8.00819167">
        <ele>584.0</ele>
        <time>2018-10-03T11:07:52.000Z</time>
      </trkpt>
      <trkpt lat="42.50474" lon="-8.00820333">
        <ele>584.0</ele>
        <time>2018-10-03T11:07:53.000Z</time>
      </trkpt>
      <trkpt lat="42.504755" lon="-8.008215">
        <ele>584.0</ele>
        <time>2018-10-03T11:07:54.000Z</time>
      </trkpt>
      <trkpt lat="42.50476833" lon="-8.00822167">
        <ele>584.0</ele>
        <time>2018-10-03T11:07:55.000Z</time>
      </trkpt>
      <trkpt lat="42.50478167" lon="-8.00822833">
        <ele>583.0</ele>
        <time>2018-10-03T11:07:56.000Z</time>
      </trkpt>
      <trkpt lat="42.504795" lon="-8.008235">
        <ele>583.0</ele>
        <time>2018-10-03T11:07:57.000Z</time>
      </trkpt>
      <trkpt lat="42.50480667" lon="-8.008245">
        <ele>583.0</ele>
        <time>2018-10-03T11:07:58.000Z</time>
      </trkpt>
      <trkpt lat="42.50482167" lon="-8.00825333">
        <ele>583.0</ele>
        <time>2018-10-03T11:07:59.000Z</time>
      </trkpt>
      <trkpt lat="42.504835" lon="-8.00826333">
        <ele>582.0</ele>
        <time>2018-10-03T11:08:00.000Z</time>
      </trkpt>
      <trkpt lat="42.50484667" lon="-8.00827167">
        <ele>582.0</ele>
        <time>2018-10-03T11:08:01.000Z</time>
      </trkpt>
      <trkpt lat="42.50486" lon="-8.00828167">
        <ele>582.0</ele>
        <time>2018-10-03T11:08:02.000Z</time>
      </trkpt>
      <trkpt lat="42.50487333" lon="-8.00829167">
        <ele>582.0</ele>
        <time>2018-10-03T11:08:03.000Z</time>
      </trkpt>
      <trkpt lat="42.50488667" lon="-8.00830167">
        <ele>582.0</ele>
        <time>2018-10-03T11:08:04.000Z</time>
      </trkpt>
      <trkpt lat="42.5049" lon="-8.00831">
        <ele>582.0</ele>
        <time>2018-10-03T11:08:05.000Z</time>
      </trkpt>
      <trkpt lat="42.50491333" lon="-8.00832">
        <ele>582.0</ele>
        <time>2018-10-03T11:08:06.000Z</time>
      </trkpt>
      <trkpt lat="42.50492667" lon="-8.00833167">
        <ele>582.0</ele>
        <time>2018-10-03T11:08:07.000Z</time>
      </trkpt>
      <trkpt lat="42.50494167" lon="-8.00834167">
        <ele>582.0</ele>
        <time>2018-10-03T11:08:08.000Z</time>
      </trkpt>
      <trkpt lat="42.504955" lon="-8.00835167">
        <ele>582.0</ele>
        <time>2018-10-03T11:08:09.000Z</time>
      </trkpt>
      <trkpt lat="42.50497" lon="-8.00836167">
        <ele>582.0</ele>
        <time>2018-10-03T11:08:10.000Z</time>
      </trkpt>
      <trkpt lat="42.50498333" lon="-8.00837167">
        <ele>581.0</ele>
        <time>2018-10-03T11:08:11.000Z</time>
      </trkpt>
      <trkpt lat="42.50499833" lon="-8.00838167">
        <ele>581.0</ele>
        <time>2018-10-03T11:08:12.000Z</time>
      </trkpt>
      <trkpt lat="42.50501167" lon="-8.00839167">
        <ele>581.0</ele>
        <time>2018-10-03T11:08:13.000Z</time>
      </trkpt>
      <trkpt lat="42.50502667" lon="-8.00840167">
        <ele>581.0</ele>
        <time>2018-10-03T11:08:14.000Z</time>
      </trkpt>
      <trkpt lat="42.50504" lon="-8.00841167">
        <ele>581.0</ele>
        <time>2018-10-03T11:08:15.000Z</time>
      </trkpt>
      <trkpt lat="42.50505333" lon="-8.00842167">
        <ele>581.0</ele>
        <time>2018-10-03T11:08:16.000Z</time>
      </trkpt>
      <trkpt lat="42.50506667" lon="-8.008435">
        <ele>581.0</ele>
        <time>2018-10-03T11:08:17.000Z</time>
      </trkpt>
      <trkpt lat="42.50508167" lon="-8.008445">
        <ele>581.0</ele>
        <time>2018-10-03T11:08:18.000Z</time>
      </trkpt>
      <trkpt lat="42.50509667" lon="-8.008455">
        <ele>581.0</ele>
        <time>2018-10-03T11:08:19.000Z</time>
      </trkpt>
      <trkpt lat="42.50511167" lon="-8.00846667">
        <ele>581.0</ele>
        <time>2018-10-03T11:08:20.000Z</time>
      </trkpt>
      <trkpt lat="42.50512667" lon="-8.00847667">
        <ele>581.0</ele>
        <time>2018-10-03T11:08:21.000Z</time>
      </trkpt>
      <trkpt lat="42.50514333" lon="-8.00848667">
        <ele>581.0</ele>
        <time>2018-10-03T11:08:22.000Z</time>
      </trkpt>
      <trkpt lat="42.50515833" lon="-8.00849833">
        <ele>581.0</ele>
        <time>2018-10-03T11:08:23.000Z</time>
      </trkpt>
      <trkpt lat="42.50517167" lon="-8.00850833">
        <ele>580.0</ele>
        <time>2018-10-03T11:08:24.000Z</time>
      </trkpt>
      <trkpt lat="42.50518333" lon="-8.00852167">
        <ele>580.0</ele>
        <time>2018-10-03T11:08:25.000Z</time>
      </trkpt>
      <trkpt lat="42.505195" lon="-8.00853667">
        <ele>580.0</ele>
        <time>2018-10-03T11:08:26.000Z</time>
      </trkpt>
      <trkpt lat="42.50520833" lon="-8.00855">
        <ele>579.0</ele>
        <time>2018-10-03T11:08:27.000Z</time>
      </trkpt>
      <trkpt lat="42.505225" lon="-8.00856">
        <ele>579.0</ele>
        <time>2018-10-03T11:08:28.000Z</time>
      </trkpt>
      <trkpt lat="42.50523833" lon="-8.00857">
        <ele>579.0</ele>
        <time>2018-10-03T11:08:29.000Z</time>
      </trkpt>
      <trkpt lat="42.50525333" lon="-8.00858167">
        <ele>579.0</ele>
        <time>2018-10-03T11:08:30.000Z</time>
      </trkpt>
      <trkpt lat="42.50527" lon="-8.00859">
        <ele>579.0</ele>
        <time>2018-10-03T11:08:31.000Z</time>
      </trkpt>
      <trkpt lat="42.505285" lon="-8.0086">
        <ele>578.0</ele>
        <time>2018-10-03T11:08:32.000Z</time>
      </trkpt>
      <trkpt lat="42.50529833" lon="-8.00861">
        <ele>578.0</ele>
        <time>2018-10-03T11:08:33.000Z</time>
      </trkpt>
      <trkpt lat="42.50531167" lon="-8.00861833">
        <ele>578.0</ele>
        <time>2018-10-03T11:08:34.000Z</time>
      </trkpt>
      <trkpt lat="42.505325" lon="-8.00863">
        <ele>578.0</ele>
        <time>2018-10-03T11:08:35.000Z</time>
      </trkpt>
      <trkpt lat="42.50533667" lon="-8.00864">
        <ele>578.0</ele>
        <time>2018-10-03T11:08:36.000Z</time>
      </trkpt>
      <trkpt lat="42.50535" lon="-8.00865">
        <ele>578.0</ele>
        <time>2018-10-03T11:08:37.000Z</time>
      </trkpt>
      <trkpt lat="42.50536167" lon="-8.00866">
        <ele>578.0</ele>
        <time>2018-10-03T11:08:38.000Z</time>
      </trkpt>
      <trkpt lat="42.505375" lon="-8.00867167">
        <ele>578.0</ele>
        <time>2018-10-03T11:08:39.000Z</time>
      </trkpt>
      <trkpt lat="42.50539" lon="-8.00868333">
        <ele>578.0</ele>
        <time>2018-10-03T11:08:40.000Z</time>
      </trkpt>
      <trkpt lat="42.505405" lon="-8.008695">
        <ele>578.0</ele>
        <time>2018-10-03T11:08:41.000Z</time>
      </trkpt>
      <trkpt lat="42.50542" lon="-8.00870667">
        <ele>577.0</ele>
        <time>2018-10-03T11:08:42.000Z</time>
      </trkpt>
      <trkpt lat="42.505435" lon="-8.00871667">
        <ele>577.0</ele>
        <time>2018-10-03T11:08:43.000Z</time>
      </trkpt>
      <trkpt lat="42.50544833" lon="-8.00872667">
        <ele>577.0</ele>
        <time>2018-10-03T11:08:44.000Z</time>
      </trkpt>
      <trkpt lat="42.50546333" lon="-8.00873667">
        <ele>577.0</ele>
        <time>2018-10-03T11:08:45.000Z</time>
      </trkpt>
      <trkpt lat="42.505475" lon="-8.00875">
        <ele>577.0</ele>
        <time>2018-10-03T11:08:46.000Z</time>
      </trkpt>
      <trkpt lat="42.50548667" lon="-8.00876167">
        <ele>577.0</ele>
        <time>2018-10-03T11:08:47.000Z</time>
      </trkpt>
      <trkpt lat="42.50549833" lon="-8.00877333">
        <ele>577.0</ele>
        <time>2018-10-03T11:08:48.000Z</time>
      </trkpt>
      <trkpt lat="42.50551333" lon="-8.008785">
        <ele>577.0</ele>
        <time>2018-10-03T11:08:49.000Z</time>
      </trkpt>
      <trkpt lat="42.505525" lon="-8.008795">
        <ele>577.0</ele>
        <time>2018-10-03T11:08:50.000Z</time>
      </trkpt>
      <trkpt lat="42.50553833" lon="-8.00880333">
        <ele>577.0</ele>
        <time>2018-10-03T11:08:51.000Z</time>
      </trkpt>
      <trkpt lat="42.50555333" lon="-8.00881167">
        <ele>577.0</ele>
        <time>2018-10-03T11:08:52.000Z</time>
      </trkpt>
      <trkpt lat="42.50556667" lon="-8.00882333">
        <ele>577.0</ele>
        <time>2018-10-03T11:08:53.000Z</time>
      </trkpt>
      <trkpt lat="42.50558167" lon="-8.008835">
        <ele>577.0</ele>
        <time>2018-10-03T11:08:54.000Z</time>
      </trkpt>
      <trkpt lat="42.505595" lon="-8.008845">
        <ele>577.0</ele>
        <time>2018-10-03T11:08:55.000Z</time>
      </trkpt>
      <trkpt lat="42.50560833" lon="-8.00885667">
        <ele>577.0</ele>
        <time>2018-10-03T11:08:56.000Z</time>
      </trkpt>
      <trkpt lat="42.50562167" lon="-8.008865">
        <ele>577.0</ele>
        <time>2018-10-03T11:08:57.000Z</time>
      </trkpt>
      <trkpt lat="42.50563667" lon="-8.008875">
        <ele>577.0</ele>
        <time>2018-10-03T11:08:58.000Z</time>
      </trkpt>
      <trkpt lat="42.50565" lon="-8.00888667">
        <ele>577.0</ele>
        <time>2018-10-03T11:08:59.000Z</time>
      </trkpt>
      <trkpt lat="42.50566333" lon="-8.00889833">
        <ele>577.0</ele>
        <time>2018-10-03T11:09:00.000Z</time>
      </trkpt>
      <trkpt lat="42.50567667" lon="-8.00891">
        <ele>577.0</ele>
        <time>2018-10-03T11:09:01.000Z</time>
      </trkpt>
      <trkpt lat="42.50569" lon="-8.00892">
        <ele>577.0</ele>
        <time>2018-10-03T11:09:02.000Z</time>
      </trkpt>
      <trkpt lat="42.50570667" lon="-8.00892833">
        <ele>576.0</ele>
        <time>2018-10-03T11:09:03.000Z</time>
      </trkpt>
      <trkpt lat="42.50572333" lon="-8.008935">
        <ele>576.0</ele>
        <time>2018-10-03T11:09:04.000Z</time>
      </trkpt>
      <trkpt lat="42.50573833" lon="-8.008945">
        <ele>576.0</ele>
        <time>2018-10-03T11:09:05.000Z</time>
      </trkpt>
      <trkpt lat="42.50575333" lon="-8.008955">
        <ele>576.0</ele>
        <time>2018-10-03T11:09:06.000Z</time>
      </trkpt>
      <trkpt lat="42.50576833" lon="-8.00896167">
        <ele>577.0</ele>
        <time>2018-10-03T11:09:07.000Z</time>
      </trkpt>
      <trkpt lat="42.50578333" lon="-8.00896833">
        <ele>577.0</ele>
        <time>2018-10-03T11:09:08.000Z</time>
      </trkpt>
      <trkpt lat="42.50579667" lon="-8.008975">
        <ele>577.0</ele>
        <time>2018-10-03T11:09:09.000Z</time>
      </trkpt>
      <trkpt lat="42.50581" lon="-8.00898167">
        <ele>577.0</ele>
        <time>2018-10-03T11:09:10.000Z</time>
      </trkpt>
      <trkpt lat="42.50582167" lon="-8.00898833">
        <ele>577.0</ele>
        <time>2018-10-03T11:09:11.000Z</time>
      </trkpt>
      <trkpt lat="42.505835" lon="-8.00899667">
        <ele>577.0</ele>
        <time>2018-10-03T11:09:12.000Z</time>
      </trkpt>
      <trkpt lat="42.50584667" lon="-8.00900333">
        <ele>577.0</ele>
        <time>2018-10-03T11:09:13.000Z</time>
      </trkpt>
      <trkpt lat="42.505855" lon="-8.00900833">
        <ele>577.0</ele>
        <time>2018-10-03T11:09:14.000Z</time>
      </trkpt>
      <trkpt lat="42.50586667" lon="-8.009015">
        <ele>577.0</ele>
        <time>2018-10-03T11:09:15.000Z</time>
      </trkpt>
      <trkpt lat="42.50588" lon="-8.00902333">
        <ele>577.0</ele>
        <time>2018-10-03T11:09:16.000Z</time>
      </trkpt>
      <trkpt lat="42.505895" lon="-8.00903">
        <ele>577.0</ele>
        <time>2018-10-03T11:09:17.000Z</time>
      </trkpt>
      <trkpt lat="42.50590833" lon="-8.00903667">
        <ele>577.0</ele>
        <time>2018-10-03T11:09:18.000Z</time>
      </trkpt>
      <trkpt lat="42.50592167" lon="-8.00904333">
        <ele>577.0</ele>
        <time>2018-10-03T11:09:19.000Z</time>
      </trkpt>
      <trkpt lat="42.505935" lon="-8.00904833">
        <ele>577.0</ele>
        <time>2018-10-03T11:09:20.000Z</time>
      </trkpt>
      <trkpt lat="42.50595167" lon="-8.00905167">
        <ele>577.0</ele>
        <time>2018-10-03T11:09:21.000Z</time>
      </trkpt>
      <trkpt lat="42.50596667" lon="-8.009055">
        <ele>577.0</ele>
        <time>2018-10-03T11:09:22.000Z</time>
      </trkpt>
      <trkpt lat="42.50598" lon="-8.00905333">
        <ele>577.0</ele>
        <time>2018-10-03T11:09:23.000Z</time>
      </trkpt>
      <trkpt lat="42.505995" lon="-8.009055">
        <ele>578.0</ele>
        <time>2018-10-03T11:09:24.000Z</time>
      </trkpt>
      <trkpt lat="42.50601" lon="-8.009055">
        <ele>578.0</ele>
        <time>2018-10-03T11:09:25.000Z</time>
      </trkpt>
      <trkpt lat="42.506025" lon="-8.00905667">
        <ele>578.0</ele>
        <time>2018-10-03T11:09:26.000Z</time>
      </trkpt>
      <trkpt lat="42.50604" lon="-8.00906">
        <ele>578.0</ele>
        <time>2018-10-03T11:09:27.000Z</time>
      </trkpt>
      <trkpt lat="42.506055" lon="-8.00906333">
        <ele>578.0</ele>
        <time>2018-10-03T11:09:28.000Z</time>
      </trkpt>
      <trkpt lat="42.50607167" lon="-8.009065">
        <ele>578.0</ele>
        <time>2018-10-03T11:09:29.000Z</time>
      </trkpt>
      <trkpt lat="42.50608667" lon="-8.00906667">
        <ele>578.0</ele>
        <time>2018-10-03T11:09:30.000Z</time>
      </trkpt>
      <trkpt lat="42.50610333" lon="-8.00906833">
        <ele>578.0</ele>
        <time>2018-10-03T11:09:31.000Z</time>
      </trkpt>
      <trkpt lat="42.50611833" lon="-8.00907167">
        <ele>578.0</ele>
        <time>2018-10-03T11:09:32.000Z</time>
      </trkpt>
      <trkpt lat="42.506135" lon="-8.00907333">
        <ele>578.0</ele>
        <time>2018-10-03T11:09:33.000Z</time>
      </trkpt>
      <trkpt lat="42.50615" lon="-8.009075">
        <ele>578.0</ele>
        <time>2018-10-03T11:09:34.000Z</time>
      </trkpt>
      <trkpt lat="42.50616667" lon="-8.009075">
        <ele>578.0</ele>
        <time>2018-10-03T11:09:35.000Z</time>
      </trkpt>
      <trkpt lat="42.50618167" lon="-8.009075">
        <ele>578.0</ele>
        <time>2018-10-03T11:09:36.000Z</time>
      </trkpt>
      <trkpt lat="42.50619833" lon="-8.00907667">
        <ele>578.0</ele>
        <time>2018-10-03T11:09:37.000Z</time>
      </trkpt>
      <trkpt lat="42.506215" lon="-8.00907833">
        <ele>578.0</ele>
        <time>2018-10-03T11:09:38.000Z</time>
      </trkpt>
      <trkpt lat="42.50623" lon="-8.00908167">
        <ele>578.0</ele>
        <time>2018-10-03T11:09:39.000Z</time>
      </trkpt>
      <trkpt lat="42.50624667" lon="-8.00908333">
        <ele>578.0</ele>
        <time>2018-10-03T11:09:40.000Z</time>
      </trkpt>
      <trkpt lat="42.50626333" lon="-8.00908333">
        <ele>578.0</ele>
        <time>2018-10-03T11:09:41.000Z</time>
      </trkpt>
      <trkpt lat="42.50627833" lon="-8.00908667">
        <ele>579.0</ele>
        <time>2018-10-03T11:09:42.000Z</time>
      </trkpt>
      <trkpt lat="42.50629667" lon="-8.00909">
        <ele>579.0</ele>
        <time>2018-10-03T11:09:43.000Z</time>
      </trkpt>
      <trkpt lat="42.50631333" lon="-8.00909333">
        <ele>579.0</ele>
        <time>2018-10-03T11:09:44.000Z</time>
      </trkpt>
      <trkpt lat="42.50632833" lon="-8.00909667">
        <ele>579.0</ele>
        <time>2018-10-03T11:09:45.000Z</time>
      </trkpt>
      <trkpt lat="42.506345" lon="-8.0091">
        <ele>579.0</ele>
        <time>2018-10-03T11:09:46.000Z</time>
      </trkpt>
      <trkpt lat="42.50636" lon="-8.00910167">
        <ele>579.0</ele>
        <time>2018-10-03T11:09:47.000Z</time>
      </trkpt>
      <trkpt lat="42.50637833" lon="-8.00910333">
        <ele>579.0</ele>
        <time>2018-10-03T11:09:48.000Z</time>
      </trkpt>
      <trkpt lat="42.50639167" lon="-8.009105">
        <ele>579.0</ele>
        <time>2018-10-03T11:09:49.000Z</time>
      </trkpt>
      <trkpt lat="42.50640667" lon="-8.00911">
        <ele>579.0</ele>
        <time>2018-10-03T11:09:50.000Z</time>
      </trkpt>
      <trkpt lat="42.50642167" lon="-8.00911333">
        <ele>579.0</ele>
        <time>2018-10-03T11:09:51.000Z</time>
      </trkpt>
      <trkpt lat="42.50643833" lon="-8.009115">
        <ele>579.0</ele>
        <time>2018-10-03T11:09:52.000Z</time>
      </trkpt>
      <trkpt lat="42.50645667" lon="-8.00911667">
        <ele>579.0</ele>
        <time>2018-10-03T11:09:53.000Z</time>
      </trkpt>
      <trkpt lat="42.50647333" lon="-8.00912">
        <ele>579.0</ele>
        <time>2018-10-03T11:09:54.000Z</time>
      </trkpt>
      <trkpt lat="42.50648833" lon="-8.00912167">
        <ele>579.0</ele>
        <time>2018-10-03T11:09:55.000Z</time>
      </trkpt>
      <trkpt lat="42.50650333" lon="-8.00912667">
        <ele>579.0</ele>
        <time>2018-10-03T11:09:56.000Z</time>
      </trkpt>
      <trkpt lat="42.50651833" lon="-8.00913">
        <ele>580.0</ele>
        <time>2018-10-03T11:09:57.000Z</time>
      </trkpt>
      <trkpt lat="42.50653167" lon="-8.00913">
        <ele>580.0</ele>
        <time>2018-10-03T11:09:58.000Z</time>
      </trkpt>
      <trkpt lat="42.50654667" lon="-8.00913333">
        <ele>579.0</ele>
        <time>2018-10-03T11:09:59.000Z</time>
      </trkpt>
      <trkpt lat="42.50656" lon="-8.009135">
        <ele>579.0</ele>
        <time>2018-10-03T11:10:00.000Z</time>
      </trkpt>
      <trkpt lat="42.506575" lon="-8.00914">
        <ele>579.0</ele>
        <time>2018-10-03T11:10:01.000Z</time>
      </trkpt>
      <trkpt lat="42.50659167" lon="-8.00914333">
        <ele>579.0</ele>
        <time>2018-10-03T11:10:02.000Z</time>
      </trkpt>
      <trkpt lat="42.50660667" lon="-8.00914667">
        <ele>579.0</ele>
        <time>2018-10-03T11:10:03.000Z</time>
      </trkpt>
      <trkpt lat="42.506625" lon="-8.00914667">
        <ele>579.0</ele>
        <time>2018-10-03T11:10:04.000Z</time>
      </trkpt>
      <trkpt lat="42.50664167" lon="-8.00914667">
        <ele>579.0</ele>
        <time>2018-10-03T11:10:05.000Z</time>
      </trkpt>
      <trkpt lat="42.50665667" lon="-8.00914667">
        <ele>579.0</ele>
        <time>2018-10-03T11:10:06.000Z</time>
      </trkpt>
      <trkpt lat="42.50667333" lon="-8.00914833">
        <ele>579.0</ele>
        <time>2018-10-03T11:10:07.000Z</time>
      </trkpt>
      <trkpt lat="42.50669" lon="-8.00914833">
        <ele>579.0</ele>
        <time>2018-10-03T11:10:08.000Z</time>
      </trkpt>
      <trkpt lat="42.506705" lon="-8.00915">
        <ele>579.0</ele>
        <time>2018-10-03T11:10:09.000Z</time>
      </trkpt>
      <trkpt lat="42.50672" lon="-8.00915">
        <ele>579.0</ele>
        <time>2018-10-03T11:10:10.000Z</time>
      </trkpt>
      <trkpt lat="42.506735" lon="-8.00915167">
        <ele>579.0</ele>
        <time>2018-10-03T11:10:11.000Z</time>
      </trkpt>
      <trkpt lat="42.50675167" lon="-8.00915167">
        <ele>578.0</ele>
        <time>2018-10-03T11:10:12.000Z</time>
      </trkpt>
      <trkpt lat="42.50676667" lon="-8.00915333">
        <ele>578.0</ele>
        <time>2018-10-03T11:10:13.000Z</time>
      </trkpt>
      <trkpt lat="42.50678167" lon="-8.00915333">
        <ele>578.0</ele>
        <time>2018-10-03T11:10:14.000Z</time>
      </trkpt>
      <trkpt lat="42.50679667" lon="-8.00915333">
        <ele>578.0</ele>
        <time>2018-10-03T11:10:15.000Z</time>
      </trkpt>
      <trkpt lat="42.50681167" lon="-8.009155">
        <ele>578.0</ele>
        <time>2018-10-03T11:10:16.000Z</time>
      </trkpt>
      <trkpt lat="42.50682667" lon="-8.009155">
        <ele>578.0</ele>
        <time>2018-10-03T11:10:17.000Z</time>
      </trkpt>
      <trkpt lat="42.50684333" lon="-8.00915667">
        <ele>578.0</ele>
        <time>2018-10-03T11:10:18.000Z</time>
      </trkpt>
      <trkpt lat="42.50685667" lon="-8.009155">
        <ele>578.0</ele>
        <time>2018-10-03T11:10:19.000Z</time>
      </trkpt>
      <trkpt lat="42.50687167" lon="-8.009155">
        <ele>578.0</ele>
        <time>2018-10-03T11:10:20.000Z</time>
      </trkpt>
      <trkpt lat="42.506885" lon="-8.00915833">
        <ele>578.0</ele>
        <time>2018-10-03T11:10:21.000Z</time>
      </trkpt>
      <trkpt lat="42.50689833" lon="-8.00916">
        <ele>578.0</ele>
        <time>2018-10-03T11:10:22.000Z</time>
      </trkpt>
      <trkpt lat="42.50691167" lon="-8.00916">
        <ele>578.0</ele>
        <time>2018-10-03T11:10:23.000Z</time>
      </trkpt>
      <trkpt lat="42.50692833" lon="-8.00915833">
        <ele>578.0</ele>
        <time>2018-10-03T11:10:24.000Z</time>
      </trkpt>
      <trkpt lat="42.50694333" lon="-8.00915667">
        <ele>578.0</ele>
        <time>2018-10-03T11:10:25.000Z</time>
      </trkpt>
      <trkpt lat="42.50696" lon="-8.00915333">
        <ele>578.0</ele>
        <time>2018-10-03T11:10:26.000Z</time>
      </trkpt>
      <trkpt lat="42.506975" lon="-8.00914833">
        <ele>578.0</ele>
        <time>2018-10-03T11:10:27.000Z</time>
      </trkpt>
      <trkpt lat="42.50699333" lon="-8.009145">
        <ele>578.0</ele>
        <time>2018-10-03T11:10:28.000Z</time>
      </trkpt>
      <trkpt lat="42.50700833" lon="-8.00914333">
        <ele>578.0</ele>
        <time>2018-10-03T11:10:29.000Z</time>
      </trkpt>
      <trkpt lat="42.50702333" lon="-8.00914167">
        <ele>578.0</ele>
        <time>2018-10-03T11:10:30.000Z</time>
      </trkpt>
      <trkpt lat="42.50703667" lon="-8.00913833">
        <ele>578.0</ele>
        <time>2018-10-03T11:10:31.000Z</time>
      </trkpt>
      <trkpt lat="42.50705" lon="-8.009135">
        <ele>579.0</ele>
        <time>2018-10-03T11:10:32.000Z</time>
      </trkpt>
      <trkpt lat="42.50706333" lon="-8.00913">
        <ele>579.0</ele>
        <time>2018-10-03T11:10:33.000Z</time>
      </trkpt>
      <trkpt lat="42.50707833" lon="-8.009125">
        <ele>579.0</ele>
        <time>2018-10-03T11:10:34.000Z</time>
      </trkpt>
      <trkpt lat="42.50709333" lon="-8.00912167">
        <ele>579.0</ele>
        <time>2018-10-03T11:10:35.000Z</time>
      </trkpt>
      <trkpt lat="42.50710667" lon="-8.00911833">
        <ele>579.0</ele>
        <time>2018-10-03T11:10:36.000Z</time>
      </trkpt>
      <trkpt lat="42.50712" lon="-8.00911167">
        <ele>579.0</ele>
        <time>2018-10-03T11:10:37.000Z</time>
      </trkpt>
      <trkpt lat="42.507135" lon="-8.009105">
        <ele>579.0</ele>
        <time>2018-10-03T11:10:38.000Z</time>
      </trkpt>
      <trkpt lat="42.50715" lon="-8.00909833">
        <ele>579.0</ele>
        <time>2018-10-03T11:10:39.000Z</time>
      </trkpt>
      <trkpt lat="42.50716333" lon="-8.00908667">
        <ele>579.0</ele>
        <time>2018-10-03T11:10:40.000Z</time>
      </trkpt>
      <trkpt lat="42.50717667" lon="-8.00907833">
        <ele>579.0</ele>
        <time>2018-10-03T11:10:41.000Z</time>
      </trkpt>
      <trkpt lat="42.50719" lon="-8.00907">
        <ele>579.0</ele>
        <time>2018-10-03T11:10:42.000Z</time>
      </trkpt>
      <trkpt lat="42.50720167" lon="-8.00906">
        <ele>579.0</ele>
        <time>2018-10-03T11:10:43.000Z</time>
      </trkpt>
      <trkpt lat="42.507215" lon="-8.00904833">
        <ele>579.0</ele>
        <time>2018-10-03T11:10:44.000Z</time>
      </trkpt>
      <trkpt lat="42.50722833" lon="-8.00903833">
        <ele>579.0</ele>
        <time>2018-10-03T11:10:45.000Z</time>
      </trkpt>
      <trkpt lat="42.50724333" lon="-8.00902833">
        <ele>579.0</ele>
        <time>2018-10-03T11:10:46.000Z</time>
      </trkpt>
      <trkpt lat="42.50725833" lon="-8.00902">
        <ele>579.0</ele>
        <time>2018-10-03T11:10:47.000Z</time>
      </trkpt>
      <trkpt lat="42.50727167" lon="-8.00901333">
        <ele>579.0</ele>
        <time>2018-10-03T11:10:48.000Z</time>
      </trkpt>
      <trkpt lat="42.50728667" lon="-8.009005">
        <ele>579.0</ele>
        <time>2018-10-03T11:10:49.000Z</time>
      </trkpt>
      <trkpt lat="42.5073" lon="-8.00899833">
        <ele>580.0</ele>
        <time>2018-10-03T11:10:50.000Z</time>
      </trkpt>
      <trkpt lat="42.50731333" lon="-8.00899167">
        <ele>580.0</ele>
        <time>2018-10-03T11:10:51.000Z</time>
      </trkpt>
      <trkpt lat="42.50732667" lon="-8.00898167">
        <ele>580.0</ele>
        <time>2018-10-03T11:10:52.000Z</time>
      </trkpt>
      <trkpt lat="42.50733833" lon="-8.00897333">
        <ele>580.0</ele>
        <time>2018-10-03T11:10:53.000Z</time>
      </trkpt>
      <trkpt lat="42.50735167" lon="-8.008965">
        <ele>580.0</ele>
        <time>2018-10-03T11:10:54.000Z</time>
      </trkpt>
      <trkpt lat="42.50736333" lon="-8.008955">
        <ele>580.0</ele>
        <time>2018-10-03T11:10:55.000Z</time>
      </trkpt>
      <trkpt lat="42.50737667" lon="-8.00894667">
        <ele>580.0</ele>
        <time>2018-10-03T11:10:56.000Z</time>
      </trkpt>
      <trkpt lat="42.50739" lon="-8.00893667">
        <ele>579.0</ele>
        <time>2018-10-03T11:10:57.000Z</time>
      </trkpt>
      <trkpt lat="42.50740333" lon="-8.00892833">
        <ele>579.0</ele>
        <time>2018-10-03T11:10:58.000Z</time>
      </trkpt>
      <trkpt lat="42.50741833" lon="-8.00891833">
        <ele>579.0</ele>
        <time>2018-10-03T11:10:59.000Z</time>
      </trkpt>
      <trkpt lat="42.50743333" lon="-8.00890833">
        <ele>579.0</ele>
        <time>2018-10-03T11:11:00.000Z</time>
      </trkpt>
      <trkpt lat="42.50744667" lon="-8.00889833">
        <ele>579.0</ele>
        <time>2018-10-03T11:11:01.000Z</time>
      </trkpt>
      <trkpt lat="42.50746167" lon="-8.00888833">
        <ele>579.0</ele>
        <time>2018-10-03T11:11:02.000Z</time>
      </trkpt>
      <trkpt lat="42.507475" lon="-8.00888">
        <ele>579.0</ele>
        <time>2018-10-03T11:11:03.000Z</time>
      </trkpt>
      <trkpt lat="42.50748833" lon="-8.00887167">
        <ele>579.0</ele>
        <time>2018-10-03T11:11:04.000Z</time>
      </trkpt>
      <trkpt lat="42.50750167" lon="-8.00886333">
        <ele>580.0</ele>
        <time>2018-10-03T11:11:05.000Z</time>
      </trkpt>
      <trkpt lat="42.507515" lon="-8.008855">
        <ele>580.0</ele>
        <time>2018-10-03T11:11:06.000Z</time>
      </trkpt>
      <trkpt lat="42.50752833" lon="-8.008845">
        <ele>580.0</ele>
        <time>2018-10-03T11:11:07.000Z</time>
      </trkpt>
      <trkpt lat="42.50754" lon="-8.00883667">
        <ele>579.0</ele>
        <time>2018-10-03T11:11:08.000Z</time>
      </trkpt>
      <trkpt lat="42.50755333" lon="-8.00882833">
        <ele>579.0</ele>
        <time>2018-10-03T11:11:09.000Z</time>
      </trkpt>
      <trkpt lat="42.50756667" lon="-8.00882">
        <ele>580.0</ele>
        <time>2018-10-03T11:11:10.000Z</time>
      </trkpt>
      <trkpt lat="42.50758" lon="-8.00881167">
        <ele>580.0</ele>
        <time>2018-10-03T11:11:11.000Z</time>
      </trkpt>
      <trkpt lat="42.50759167" lon="-8.00880333">
        <ele>580.0</ele>
        <time>2018-10-03T11:11:12.000Z</time>
      </trkpt>
      <trkpt lat="42.50760667" lon="-8.008795">
        <ele>580.0</ele>
        <time>2018-10-03T11:11:13.000Z</time>
      </trkpt>
      <trkpt lat="42.50762" lon="-8.00878833">
        <ele>580.0</ele>
        <time>2018-10-03T11:11:14.000Z</time>
      </trkpt>
      <trkpt lat="42.50763333" lon="-8.00877833">
        <ele>580.0</ele>
        <time>2018-10-03T11:11:15.000Z</time>
      </trkpt>
      <trkpt lat="42.50764833" lon="-8.00877">
        <ele>580.0</ele>
        <time>2018-10-03T11:11:16.000Z</time>
      </trkpt>
      <trkpt lat="42.50766167" lon="-8.00876">
        <ele>580.0</ele>
        <time>2018-10-03T11:11:17.000Z</time>
      </trkpt>
      <trkpt lat="42.507675" lon="-8.00875167">
        <ele>580.0</ele>
        <time>2018-10-03T11:11:18.000Z</time>
      </trkpt>
      <trkpt lat="42.50769" lon="-8.00874167">
        <ele>580.0</ele>
        <time>2018-10-03T11:11:19.000Z</time>
      </trkpt>
      <trkpt lat="42.507705" lon="-8.00873">
        <ele>580.0</ele>
        <time>2018-10-03T11:11:20.000Z</time>
      </trkpt>
      <trkpt lat="42.50772" lon="-8.00872167">
        <ele>580.0</ele>
        <time>2018-10-03T11:11:21.000Z</time>
      </trkpt>
      <trkpt lat="42.50773333" lon="-8.00871333">
        <ele>580.0</ele>
        <time>2018-10-03T11:11:22.000Z</time>
      </trkpt>
      <trkpt lat="42.50774833" lon="-8.00870667">
        <ele>580.0</ele>
        <time>2018-10-03T11:11:23.000Z</time>
      </trkpt>
      <trkpt lat="42.50776" lon="-8.0087">
        <ele>581.0</ele>
        <time>2018-10-03T11:11:24.000Z</time>
      </trkpt>
      <trkpt lat="42.50776833" lon="-8.00869333">
        <ele>581.0</ele>
        <time>2018-10-03T11:11:25.000Z</time>
      </trkpt>
      <trkpt lat="42.50777833" lon="-8.00868833">
        <ele>581.0</ele>
        <time>2018-10-03T11:11:26.000Z</time>
      </trkpt>
      <trkpt lat="42.50778833" lon="-8.00867833">
        <ele>581.0</ele>
        <time>2018-10-03T11:11:27.000Z</time>
      </trkpt>
      <trkpt lat="42.507805" lon="-8.00867">
        <ele>582.0</ele>
        <time>2018-10-03T11:11:28.000Z</time>
      </trkpt>
      <trkpt lat="42.50782167" lon="-8.00866333">
        <ele>582.0</ele>
        <time>2018-10-03T11:11:29.000Z</time>
      </trkpt>
      <trkpt lat="42.50783667" lon="-8.00865333">
        <ele>582.0</ele>
        <time>2018-10-03T11:11:30.000Z</time>
      </trkpt>
      <trkpt lat="42.50785333" lon="-8.008645">
        <ele>582.0</ele>
        <time>2018-10-03T11:11:31.000Z</time>
      </trkpt>
      <trkpt lat="42.50787" lon="-8.00863667">
        <ele>583.0</ele>
        <time>2018-10-03T11:11:32.000Z</time>
      </trkpt>
      <trkpt lat="42.50788333" lon="-8.00862833">
        <ele>583.0</ele>
        <time>2018-10-03T11:11:33.000Z</time>
      </trkpt>
      <trkpt lat="42.50789667" lon="-8.00862167">
        <ele>583.0</ele>
        <time>2018-10-03T11:11:34.000Z</time>
      </trkpt>
      <trkpt lat="42.50791167" lon="-8.00861">
        <ele>583.0</ele>
        <time>2018-10-03T11:11:35.000Z</time>
      </trkpt>
      <trkpt lat="42.50793" lon="-8.00860167">
        <ele>583.0</ele>
        <time>2018-10-03T11:11:36.000Z</time>
      </trkpt>
      <trkpt lat="42.507945" lon="-8.00859333">
        <ele>583.0</ele>
        <time>2018-10-03T11:11:37.000Z</time>
      </trkpt>
      <trkpt lat="42.50795667" lon="-8.00858667">
        <ele>583.0</ele>
        <time>2018-10-03T11:11:38.000Z</time>
      </trkpt>
      <trkpt lat="42.50797167" lon="-8.00857833">
        <ele>584.0</ele>
        <time>2018-10-03T11:11:39.000Z</time>
      </trkpt>
      <trkpt lat="42.50798667" lon="-8.00857">
        <ele>584.0</ele>
        <time>2018-10-03T11:11:40.000Z</time>
      </trkpt>
      <trkpt lat="42.508" lon="-8.00856167">
        <ele>584.0</ele>
        <time>2018-10-03T11:11:41.000Z</time>
      </trkpt>
      <trkpt lat="42.50801167" lon="-8.00855333">
        <ele>584.0</ele>
        <time>2018-10-03T11:11:42.000Z</time>
      </trkpt>
      <trkpt lat="42.50802" lon="-8.00854667">
        <ele>584.0</ele>
        <time>2018-10-03T11:11:43.000Z</time>
      </trkpt>
      <trkpt lat="42.50802167" lon="-8.00854667">
        <ele>584.0</ele>
        <time>2018-10-03T11:11:44.000Z</time>
      </trkpt>
      <trkpt lat="42.50802167" lon="-8.00854667">
        <ele>585.0</ele>
        <time>2018-10-03T11:11:45.000Z</time>
      </trkpt>
      <trkpt lat="42.50802167" lon="-8.00854667">
        <ele>585.0</ele>
        <time>2018-10-03T11:11:46.000Z</time>
      </trkpt>
      <trkpt lat="42.50802167" lon="-8.00854833">
        <ele>585.0</ele>
        <time>2018-10-03T11:11:47.000Z</time>
      </trkpt>
      <trkpt lat="42.50802333" lon="-8.00854833">
        <ele>585.0</ele>
        <time>2018-10-03T11:11:48.000Z</time>
      </trkpt>
      <trkpt lat="42.50802833" lon="-8.00854833">
        <ele>585.0</ele>
        <time>2018-10-03T11:11:49.000Z</time>
      </trkpt>
      <trkpt lat="42.50803667" lon="-8.00854333">
        <ele>585.0</ele>
        <time>2018-10-03T11:11:50.000Z</time>
      </trkpt>
      <trkpt lat="42.50805" lon="-8.00854">
        <ele>586.0</ele>
        <time>2018-10-03T11:11:51.000Z</time>
      </trkpt>
      <trkpt lat="42.50806333" lon="-8.00853333">
        <ele>586.0</ele>
        <time>2018-10-03T11:11:52.000Z</time>
      </trkpt>
      <trkpt lat="42.50807833" lon="-8.008525">
        <ele>586.0</ele>
        <time>2018-10-03T11:11:53.000Z</time>
      </trkpt>
      <trkpt lat="42.50809167" lon="-8.00851667">
        <ele>586.0</ele>
        <time>2018-10-03T11:11:54.000Z</time>
      </trkpt>
      <trkpt lat="42.50810667" lon="-8.00850833">
        <ele>586.0</ele>
        <time>2018-10-03T11:11:55.000Z</time>
      </trkpt>
      <trkpt lat="42.50812" lon="-8.00849833">
        <ele>587.0</ele>
        <time>2018-10-03T11:11:56.000Z</time>
      </trkpt>
      <trkpt lat="42.50813333" lon="-8.00849167">
        <ele>587.0</ele>
        <time>2018-10-03T11:11:57.000Z</time>
      </trkpt>
      <trkpt lat="42.50814833" lon="-8.00848333">
        <ele>587.0</ele>
        <time>2018-10-03T11:11:58.000Z</time>
      </trkpt>
      <trkpt lat="42.50816167" lon="-8.008475">
        <ele>587.0</ele>
        <time>2018-10-03T11:11:59.000Z</time>
      </trkpt>
      <trkpt lat="42.50817333" lon="-8.00846833">
        <ele>587.0</ele>
        <time>2018-10-03T11:12:00.000Z</time>
      </trkpt>
      <trkpt lat="42.50818833" lon="-8.00846">
        <ele>587.0</ele>
        <time>2018-10-03T11:12:01.000Z</time>
      </trkpt>
      <trkpt lat="42.50820167" lon="-8.00845167">
        <ele>587.0</ele>
        <time>2018-10-03T11:12:02.000Z</time>
      </trkpt>
      <trkpt lat="42.50821667" lon="-8.00844167">
        <ele>587.0</ele>
        <time>2018-10-03T11:12:03.000Z</time>
      </trkpt>
      <trkpt lat="42.50823" lon="-8.00843167">
        <ele>587.0</ele>
        <time>2018-10-03T11:12:04.000Z</time>
      </trkpt>
      <trkpt lat="42.508245" lon="-8.00842333">
        <ele>587.0</ele>
        <time>2018-10-03T11:12:05.000Z</time>
      </trkpt>
      <trkpt lat="42.50826" lon="-8.00841667">
        <ele>587.0</ele>
        <time>2018-10-03T11:12:06.000Z</time>
      </trkpt>
      <trkpt lat="42.50827333" lon="-8.00841">
        <ele>587.0</ele>
        <time>2018-10-03T11:12:07.000Z</time>
      </trkpt>
      <trkpt lat="42.50828833" lon="-8.00840167">
        <ele>587.0</ele>
        <time>2018-10-03T11:12:08.000Z</time>
      </trkpt>
      <trkpt lat="42.50830333" lon="-8.00839167">
        <ele>588.0</ele>
        <time>2018-10-03T11:12:09.000Z</time>
      </trkpt>
      <trkpt lat="42.50831833" lon="-8.00838333">
        <ele>588.0</ele>
        <time>2018-10-03T11:12:10.000Z</time>
      </trkpt>
      <trkpt lat="42.50833333" lon="-8.008375">
        <ele>588.0</ele>
        <time>2018-10-03T11:12:11.000Z</time>
      </trkpt>
      <trkpt lat="42.50834833" lon="-8.00836667">
        <ele>588.0</ele>
        <time>2018-10-03T11:12:12.000Z</time>
      </trkpt>
      <trkpt lat="42.50836167" lon="-8.00836">
        <ele>588.0</ele>
        <time>2018-10-03T11:12:13.000Z</time>
      </trkpt>
      <trkpt lat="42.50837667" lon="-8.00835333">
        <ele>588.0</ele>
        <time>2018-10-03T11:12:14.000Z</time>
      </trkpt>
      <trkpt lat="42.50839" lon="-8.00834667">
        <ele>589.0</ele>
        <time>2018-10-03T11:12:15.000Z</time>
      </trkpt>
      <trkpt lat="42.508405" lon="-8.00834">
        <ele>589.0</ele>
        <time>2018-10-03T11:12:16.000Z</time>
      </trkpt>
      <trkpt lat="42.50842" lon="-8.00833333">
        <ele>589.0</ele>
        <time>2018-10-03T11:12:17.000Z</time>
      </trkpt>
      <trkpt lat="42.50843333" lon="-8.008325">
        <ele>589.0</ele>
        <time>2018-10-03T11:12:18.000Z</time>
      </trkpt>
      <trkpt lat="42.50844667" lon="-8.00831833">
        <ele>590.0</ele>
        <time>2018-10-03T11:12:19.000Z</time>
      </trkpt>
      <trkpt lat="42.50846167" lon="-8.00830833">
        <ele>590.0</ele>
        <time>2018-10-03T11:12:20.000Z</time>
      </trkpt>
      <trkpt lat="42.50847667" lon="-8.00830167">
        <ele>590.0</ele>
        <time>2018-10-03T11:12:21.000Z</time>
      </trkpt>
      <trkpt lat="42.50849167" lon="-8.008295">
        <ele>591.0</ele>
        <time>2018-10-03T11:12:22.000Z</time>
      </trkpt>
      <trkpt lat="42.508505" lon="-8.00828833">
        <ele>591.0</ele>
        <time>2018-10-03T11:12:23.000Z</time>
      </trkpt>
      <trkpt lat="42.50852" lon="-8.00828333">
        <ele>591.0</ele>
        <time>2018-10-03T11:12:24.000Z</time>
      </trkpt>
      <trkpt lat="42.508535" lon="-8.00827833">
        <ele>592.0</ele>
        <time>2018-10-03T11:12:25.000Z</time>
      </trkpt>
      <trkpt lat="42.50854833" lon="-8.00827333">
        <ele>592.0</ele>
        <time>2018-10-03T11:12:26.000Z</time>
      </trkpt>
      <trkpt lat="42.50856333" lon="-8.00827">
        <ele>592.0</ele>
        <time>2018-10-03T11:12:27.000Z</time>
      </trkpt>
      <trkpt lat="42.50857667" lon="-8.008265">
        <ele>593.0</ele>
        <time>2018-10-03T11:12:28.000Z</time>
      </trkpt>
      <trkpt lat="42.50859167" lon="-8.00825833">
        <ele>593.0</ele>
        <time>2018-10-03T11:12:29.000Z</time>
      </trkpt>
      <trkpt lat="42.508605" lon="-8.00825333">
        <ele>594.0</ele>
        <time>2018-10-03T11:12:30.000Z</time>
      </trkpt>
      <trkpt lat="42.50861833" lon="-8.00824833">
        <ele>594.0</ele>
        <time>2018-10-03T11:12:31.000Z</time>
      </trkpt>
      <trkpt lat="42.50863167" lon="-8.00824167">
        <ele>594.0</ele>
        <time>2018-10-03T11:12:32.000Z</time>
      </trkpt>
      <trkpt lat="42.508645" lon="-8.00823833">
        <ele>595.0</ele>
        <time>2018-10-03T11:12:33.000Z</time>
      </trkpt>
      <trkpt lat="42.50866" lon="-8.00823333">
        <ele>595.0</ele>
        <time>2018-10-03T11:12:34.000Z</time>
      </trkpt>
      <trkpt lat="42.50867333" lon="-8.00823">
        <ele>596.0</ele>
        <time>2018-10-03T11:12:35.000Z</time>
      </trkpt>
      <trkpt lat="42.50868833" lon="-8.00822833">
        <ele>597.0</ele>
        <time>2018-10-03T11:12:36.000Z</time>
      </trkpt>
      <trkpt lat="42.50870167" lon="-8.008225">
        <ele>597.0</ele>
        <time>2018-10-03T11:12:37.000Z</time>
      </trkpt>
      <trkpt lat="42.50871667" lon="-8.00822167">
        <ele>598.0</ele>
        <time>2018-10-03T11:12:38.000Z</time>
      </trkpt>
      <trkpt lat="42.50873" lon="-8.00822">
        <ele>598.0</ele>
        <time>2018-10-03T11:12:39.000Z</time>
      </trkpt>
      <trkpt lat="42.50874333" lon="-8.00821667">
        <ele>599.0</ele>
        <time>2018-10-03T11:12:40.000Z</time>
      </trkpt>
      <trkpt lat="42.50875667" lon="-8.00821167">
        <ele>599.0</ele>
        <time>2018-10-03T11:12:41.000Z</time>
      </trkpt>
      <trkpt lat="42.50877" lon="-8.00820667">
        <ele>600.0</ele>
        <time>2018-10-03T11:12:42.000Z</time>
      </trkpt>
      <trkpt lat="42.50878167" lon="-8.00820167">
        <ele>600.0</ele>
        <time>2018-10-03T11:12:43.000Z</time>
      </trkpt>
      <trkpt lat="42.508795" lon="-8.00819833">
        <ele>600.0</ele>
        <time>2018-10-03T11:12:44.000Z</time>
      </trkpt>
      <trkpt lat="42.50880833" lon="-8.008195">
        <ele>600.0</ele>
        <time>2018-10-03T11:12:45.000Z</time>
      </trkpt>
      <trkpt lat="42.50882167" lon="-8.00819167">
        <ele>600.0</ele>
        <time>2018-10-03T11:12:46.000Z</time>
      </trkpt>
      <trkpt lat="42.50883667" lon="-8.00818833">
        <ele>600.0</ele>
        <time>2018-10-03T11:12:47.000Z</time>
      </trkpt>
      <trkpt lat="42.50885" lon="-8.008185">
        <ele>600.0</ele>
        <time>2018-10-03T11:12:48.000Z</time>
      </trkpt>
      <trkpt lat="42.508865" lon="-8.008185">
        <ele>600.0</ele>
        <time>2018-10-03T11:12:49.000Z</time>
      </trkpt>
      <trkpt lat="42.50887833" lon="-8.00818333">
        <ele>600.0</ele>
        <time>2018-10-03T11:12:50.000Z</time>
      </trkpt>
      <trkpt lat="42.50889167" lon="-8.008185">
        <ele>600.0</ele>
        <time>2018-10-03T11:12:51.000Z</time>
      </trkpt>
      <trkpt lat="42.50890667" lon="-8.00818833">
        <ele>600.0</ele>
        <time>2018-10-03T11:12:52.000Z</time>
      </trkpt>
      <trkpt lat="42.50892" lon="-8.00819">
        <ele>600.0</ele>
        <time>2018-10-03T11:12:53.000Z</time>
      </trkpt>
      <trkpt lat="42.50893333" lon="-8.00819167">
        <ele>600.0</ele>
        <time>2018-10-03T11:12:54.000Z</time>
      </trkpt>
      <trkpt lat="42.508945" lon="-8.00819167">
        <ele>600.0</ele>
        <time>2018-10-03T11:12:55.000Z</time>
      </trkpt>
      <trkpt lat="42.50895833" lon="-8.00819167">
        <ele>600.0</ele>
        <time>2018-10-03T11:12:56.000Z</time>
      </trkpt>
      <trkpt lat="42.50897167" lon="-8.00819167">
        <ele>599.0</ele>
        <time>2018-10-03T11:12:57.000Z</time>
      </trkpt>
      <trkpt lat="42.508985" lon="-8.00819333">
        <ele>599.0</ele>
        <time>2018-10-03T11:12:58.000Z</time>
      </trkpt>
      <trkpt lat="42.509" lon="-8.008195">
        <ele>599.0</ele>
        <time>2018-10-03T11:12:59.000Z</time>
      </trkpt>
      <trkpt lat="42.50901333" lon="-8.008195">
        <ele>599.0</ele>
        <time>2018-10-03T11:13:00.000Z</time>
      </trkpt>
      <trkpt lat="42.50903" lon="-8.008195">
        <ele>598.0</ele>
        <time>2018-10-03T11:13:01.000Z</time>
      </trkpt>
      <trkpt lat="42.509045" lon="-8.00819333">
        <ele>598.0</ele>
        <time>2018-10-03T11:13:02.000Z</time>
      </trkpt>
      <trkpt lat="42.50906" lon="-8.00819167">
        <ele>598.0</ele>
        <time>2018-10-03T11:13:03.000Z</time>
      </trkpt>
      <trkpt lat="42.509075" lon="-8.00819167">
        <ele>598.0</ele>
        <time>2018-10-03T11:13:04.000Z</time>
      </trkpt>
      <trkpt lat="42.50909" lon="-8.00819167">
        <ele>598.0</ele>
        <time>2018-10-03T11:13:05.000Z</time>
      </trkpt>
      <trkpt lat="42.50910333" lon="-8.00819">
        <ele>598.0</ele>
        <time>2018-10-03T11:13:06.000Z</time>
      </trkpt>
      <trkpt lat="42.50911667" lon="-8.00819">
        <ele>598.0</ele>
        <time>2018-10-03T11:13:07.000Z</time>
      </trkpt>
      <trkpt lat="42.50913" lon="-8.00818833">
        <ele>598.0</ele>
        <time>2018-10-03T11:13:08.000Z</time>
      </trkpt>
      <trkpt lat="42.50914167" lon="-8.00818667">
        <ele>597.0</ele>
        <time>2018-10-03T11:13:09.000Z</time>
      </trkpt>
      <trkpt lat="42.509155" lon="-8.00818667">
        <ele>597.0</ele>
        <time>2018-10-03T11:13:10.000Z</time>
      </trkpt>
      <trkpt lat="42.50916833" lon="-8.00818667">
        <ele>597.0</ele>
        <time>2018-10-03T11:13:11.000Z</time>
      </trkpt>
      <trkpt lat="42.50918333" lon="-8.00818667">
        <ele>597.0</ele>
        <time>2018-10-03T11:13:12.000Z</time>
      </trkpt>
      <trkpt lat="42.50919667" lon="-8.008185">
        <ele>597.0</ele>
        <time>2018-10-03T11:13:13.000Z</time>
      </trkpt>
      <trkpt lat="42.50921167" lon="-8.00818167">
        <ele>597.0</ele>
        <time>2018-10-03T11:13:14.000Z</time>
      </trkpt>
      <trkpt lat="42.50922667" lon="-8.00818167">
        <ele>597.0</ele>
        <time>2018-10-03T11:13:15.000Z</time>
      </trkpt>
      <trkpt lat="42.50924" lon="-8.00818167">
        <ele>597.0</ele>
        <time>2018-10-03T11:13:16.000Z</time>
      </trkpt>
      <trkpt lat="42.50925333" lon="-8.00818">
        <ele>597.0</ele>
        <time>2018-10-03T11:13:17.000Z</time>
      </trkpt>
      <trkpt lat="42.50926667" lon="-8.00817833">
        <ele>597.0</ele>
        <time>2018-10-03T11:13:18.000Z</time>
      </trkpt>
      <trkpt lat="42.50927667" lon="-8.00817667">
        <ele>597.0</ele>
        <time>2018-10-03T11:13:19.000Z</time>
      </trkpt>
      <trkpt lat="42.50929167" lon="-8.00817333">
        <ele>597.0</ele>
        <time>2018-10-03T11:13:20.000Z</time>
      </trkpt>
      <trkpt lat="42.50930833" lon="-8.00817167">
        <ele>597.0</ele>
        <time>2018-10-03T11:13:21.000Z</time>
      </trkpt>
      <trkpt lat="42.50932333" lon="-8.00816833">
        <ele>597.0</ele>
        <time>2018-10-03T11:13:22.000Z</time>
      </trkpt>
      <trkpt lat="42.50933833" lon="-8.008165">
        <ele>597.0</ele>
        <time>2018-10-03T11:13:23.000Z</time>
      </trkpt>
      <trkpt lat="42.50935333" lon="-8.00816">
        <ele>597.0</ele>
        <time>2018-10-03T11:13:24.000Z</time>
      </trkpt>
      <trkpt lat="42.50936833" lon="-8.008155">
        <ele>597.0</ele>
        <time>2018-10-03T11:13:25.000Z</time>
      </trkpt>
      <trkpt lat="42.50938333" lon="-8.00815167">
        <ele>596.0</ele>
        <time>2018-10-03T11:13:26.000Z</time>
      </trkpt>
      <trkpt lat="42.5094" lon="-8.00814833">
        <ele>596.0</ele>
        <time>2018-10-03T11:13:27.000Z</time>
      </trkpt>
      <trkpt lat="42.509415" lon="-8.008145">
        <ele>596.0</ele>
        <time>2018-10-03T11:13:28.000Z</time>
      </trkpt>
      <trkpt lat="42.50942833" lon="-8.00814333">
        <ele>596.0</ele>
        <time>2018-10-03T11:13:29.000Z</time>
      </trkpt>
      <trkpt lat="42.50944333" lon="-8.00813833">
        <ele>596.0</ele>
        <time>2018-10-03T11:13:30.000Z</time>
      </trkpt>
      <trkpt lat="42.50945667" lon="-8.00813333">
        <ele>596.0</ele>
        <time>2018-10-03T11:13:31.000Z</time>
      </trkpt>
      <trkpt lat="42.50947" lon="-8.00812667">
        <ele>595.0</ele>
        <time>2018-10-03T11:13:32.000Z</time>
      </trkpt>
      <trkpt lat="42.50948333" lon="-8.00811833">
        <ele>595.0</ele>
        <time>2018-10-03T11:13:33.000Z</time>
      </trkpt>
      <trkpt lat="42.509495" lon="-8.00811167">
        <ele>595.0</ele>
        <time>2018-10-03T11:13:34.000Z</time>
      </trkpt>
      <trkpt lat="42.50950667" lon="-8.00810167">
        <ele>595.0</ele>
        <time>2018-10-03T11:13:35.000Z</time>
      </trkpt>
      <trkpt lat="42.50951833" lon="-8.00809333">
        <ele>595.0</ele>
        <time>2018-10-03T11:13:36.000Z</time>
      </trkpt>
      <trkpt lat="42.50953167" lon="-8.00808333">
        <ele>595.0</ele>
        <time>2018-10-03T11:13:37.000Z</time>
      </trkpt>
      <trkpt lat="42.509545" lon="-8.00807667">
        <ele>595.0</ele>
        <time>2018-10-03T11:13:38.000Z</time>
      </trkpt>
      <trkpt lat="42.50956" lon="-8.00807">
        <ele>595.0</ele>
        <time>2018-10-03T11:13:39.000Z</time>
      </trkpt>
      <trkpt lat="42.509575" lon="-8.00806333">
        <ele>595.0</ele>
        <time>2018-10-03T11:13:40.000Z</time>
      </trkpt>
      <trkpt lat="42.50959" lon="-8.00805667">
        <ele>595.0</ele>
        <time>2018-10-03T11:13:41.000Z</time>
      </trkpt>
      <trkpt lat="42.50960333" lon="-8.00805">
        <ele>594.0</ele>
        <time>2018-10-03T11:13:42.000Z</time>
      </trkpt>
      <trkpt lat="42.50961667" lon="-8.008045">
        <ele>594.0</ele>
        <time>2018-10-03T11:13:43.000Z</time>
      </trkpt>
      <trkpt lat="42.50963" lon="-8.00803833">
        <ele>594.0</ele>
        <time>2018-10-03T11:13:44.000Z</time>
      </trkpt>
      <trkpt lat="42.50964333" lon="-8.00803167">
        <ele>594.0</ele>
        <time>2018-10-03T11:13:45.000Z</time>
      </trkpt>
      <trkpt lat="42.50965667" lon="-8.00802667">
        <ele>594.0</ele>
        <time>2018-10-03T11:13:46.000Z</time>
      </trkpt>
      <trkpt lat="42.50967" lon="-8.00801833">
        <ele>594.0</ele>
        <time>2018-10-03T11:13:47.000Z</time>
      </trkpt>
      <trkpt lat="42.50968333" lon="-8.00801333">
        <ele>593.0</ele>
        <time>2018-10-03T11:13:48.000Z</time>
      </trkpt>
      <trkpt lat="42.50969833" lon="-8.00800833">
        <ele>593.0</ele>
        <time>2018-10-03T11:13:49.000Z</time>
      </trkpt>
      <trkpt lat="42.50971333" lon="-8.00800167">
        <ele>593.0</ele>
        <time>2018-10-03T11:13:50.000Z</time>
      </trkpt>
      <trkpt lat="42.50973167" lon="-8.00799833">
        <ele>593.0</ele>
        <time>2018-10-03T11:13:51.000Z</time>
      </trkpt>
      <trkpt lat="42.50975" lon="-8.00799333">
        <ele>593.0</ele>
        <time>2018-10-03T11:13:52.000Z</time>
      </trkpt>
      <trkpt lat="42.50976333" lon="-8.00798833">
        <ele>593.0</ele>
        <time>2018-10-03T11:13:53.000Z</time>
      </trkpt>
      <trkpt lat="42.50978" lon="-8.007985">
        <ele>592.0</ele>
        <time>2018-10-03T11:13:54.000Z</time>
      </trkpt>
      <trkpt lat="42.50979667" lon="-8.00798">
        <ele>592.0</ele>
        <time>2018-10-03T11:13:55.000Z</time>
      </trkpt>
      <trkpt lat="42.50980833" lon="-8.00797833">
        <ele>592.0</ele>
        <time>2018-10-03T11:13:56.000Z</time>
      </trkpt>
      <trkpt lat="42.50982333" lon="-8.007975">
        <ele>592.0</ele>
        <time>2018-10-03T11:13:57.000Z</time>
      </trkpt>
      <trkpt lat="42.50983833" lon="-8.00797">
        <ele>592.0</ele>
        <time>2018-10-03T11:13:58.000Z</time>
      </trkpt>
      <trkpt lat="42.50985167" lon="-8.00796833">
        <ele>592.0</ele>
        <time>2018-10-03T11:13:59.000Z</time>
      </trkpt>
      <trkpt lat="42.509865" lon="-8.00796667">
        <ele>592.0</ele>
        <time>2018-10-03T11:14:00.000Z</time>
      </trkpt>
      <trkpt lat="42.50987333" lon="-8.00796667">
        <ele>592.0</ele>
        <time>2018-10-03T11:14:01.000Z</time>
      </trkpt>
      <trkpt lat="42.50988167" lon="-8.00796333">
        <ele>592.0</ele>
        <time>2018-10-03T11:14:02.000Z</time>
      </trkpt>
      <trkpt lat="42.50988667" lon="-8.007955">
        <ele>592.0</ele>
        <time>2018-10-03T11:14:03.000Z</time>
      </trkpt>
      <trkpt lat="42.50988667" lon="-8.00795333">
        <ele>592.0</ele>
        <time>2018-10-03T11:14:04.000Z</time>
      </trkpt>
      <trkpt lat="42.50988833" lon="-8.00794167">
        <ele>592.0</ele>
        <time>2018-10-03T11:14:05.000Z</time>
      </trkpt>
      <trkpt lat="42.50989" lon="-8.007935">
        <ele>592.0</ele>
        <time>2018-10-03T11:14:06.000Z</time>
      </trkpt>
      <trkpt lat="42.50989167" lon="-8.00792833">
        <ele>592.0</ele>
        <time>2018-10-03T11:14:07.000Z</time>
      </trkpt>
      <trkpt lat="42.50989333" lon="-8.00792167">
        <ele>592.0</ele>
        <time>2018-10-03T11:14:08.000Z</time>
      </trkpt>
      <trkpt lat="42.50989333" lon="-8.00791167">
        <ele>593.0</ele>
        <time>2018-10-03T11:14:09.000Z</time>
      </trkpt>
      <trkpt lat="42.50989833" lon="-8.007905">
        <ele>592.0</ele>
        <time>2018-10-03T11:14:10.000Z</time>
      </trkpt>
      <trkpt lat="42.50990667" lon="-8.0079">
        <ele>592.0</ele>
        <time>2018-10-03T11:14:11.000Z</time>
      </trkpt>
      <trkpt lat="42.50991833" lon="-8.007895">
        <ele>592.0</ele>
        <time>2018-10-03T11:14:12.000Z</time>
      </trkpt>
      <trkpt lat="42.50993" lon="-8.00788333">
        <ele>592.0</ele>
        <time>2018-10-03T11:14:13.000Z</time>
      </trkpt>
      <trkpt lat="42.50994167" lon="-8.007875">
        <ele>592.0</ele>
        <time>2018-10-03T11:14:14.000Z</time>
      </trkpt>
      <trkpt lat="42.50995333" lon="-8.00786833">
        <ele>592.0</ele>
        <time>2018-10-03T11:14:15.000Z</time>
      </trkpt>
      <trkpt lat="42.509965" lon="-8.00786167">
        <ele>592.0</ele>
        <time>2018-10-03T11:14:16.000Z</time>
      </trkpt>
      <trkpt lat="42.509975" lon="-8.00785333">
        <ele>592.0</ele>
        <time>2018-10-03T11:14:17.000Z</time>
      </trkpt>
      <trkpt lat="42.509985" lon="-8.007845">
        <ele>592.0</ele>
        <time>2018-10-03T11:14:18.000Z</time>
      </trkpt>
      <trkpt lat="42.50999167" lon="-8.00783833">
        <ele>592.0</ele>
        <time>2018-10-03T11:14:19.000Z</time>
      </trkpt>
      <trkpt lat="42.50999833" lon="-8.00783167">
        <ele>592.0</ele>
        <time>2018-10-03T11:14:20.000Z</time>
      </trkpt>
      <trkpt lat="42.51" lon="-8.00782833">
        <ele>592.0</ele>
        <time>2018-10-03T11:14:21.000Z</time>
      </trkpt>
      <trkpt lat="42.50999667" lon="-8.00783167">
        <ele>592.0</ele>
        <time>2018-10-03T11:14:22.000Z</time>
      </trkpt>
      <trkpt lat="42.50999167" lon="-8.00784">
        <ele>592.0</ele>
        <time>2018-10-03T11:14:23.000Z</time>
      </trkpt>
      <trkpt lat="42.50998833" lon="-8.00785167">
        <ele>592.0</ele>
        <time>2018-10-03T11:14:24.000Z</time>
      </trkpt>
      <trkpt lat="42.50998667" lon="-8.007865">
        <ele>591.0</ele>
        <time>2018-10-03T11:14:25.000Z</time>
      </trkpt>
      <trkpt lat="42.50999" lon="-8.00787833">
        <ele>591.0</ele>
        <time>2018-10-03T11:14:26.000Z</time>
      </trkpt>
      <trkpt lat="42.50999833" lon="-8.00789">
        <ele>591.0</ele>
        <time>2018-10-03T11:14:27.000Z</time>
      </trkpt>
      <trkpt lat="42.51001" lon="-8.00789333">
        <ele>591.0</ele>
        <time>2018-10-03T11:14:28.000Z</time>
      </trkpt>
      <trkpt lat="42.51002" lon="-8.00789167">
        <ele>591.0</ele>
        <time>2018-10-03T11:14:29.000Z</time>
      </trkpt>
      <trkpt lat="42.510025" lon="-8.00789167">
        <ele>591.0</ele>
        <time>2018-10-03T11:14:30.000Z</time>
      </trkpt>
      <trkpt lat="42.510025" lon="-8.00789833">
        <ele>591.0</ele>
        <time>2018-10-03T11:14:31.000Z</time>
      </trkpt>
      <trkpt lat="42.510025" lon="-8.007905">
        <ele>591.0</ele>
        <time>2018-10-03T11:14:32.000Z</time>
      </trkpt>
      <trkpt lat="42.51002833" lon="-8.00791167">
        <ele>591.0</ele>
        <time>2018-10-03T11:14:33.000Z</time>
      </trkpt>
      <trkpt lat="42.51003833" lon="-8.00791833">
        <ele>591.0</ele>
        <time>2018-10-03T11:14:34.000Z</time>
      </trkpt>
      <trkpt lat="42.51005" lon="-8.00792">
        <ele>591.0</ele>
        <time>2018-10-03T11:14:35.000Z</time>
      </trkpt>
      <trkpt lat="42.51006333" lon="-8.00792">
        <ele>591.0</ele>
        <time>2018-10-03T11:14:36.000Z</time>
      </trkpt>
      <trkpt lat="42.510075" lon="-8.00792">
        <ele>591.0</ele>
        <time>2018-10-03T11:14:37.000Z</time>
      </trkpt>
      <trkpt lat="42.51008667" lon="-8.00792167">
        <ele>591.0</ele>
        <time>2018-10-03T11:14:38.000Z</time>
      </trkpt>
      <trkpt lat="42.51009667" lon="-8.00792333">
        <ele>591.0</ele>
        <time>2018-10-03T11:14:39.000Z</time>
      </trkpt>
      <trkpt lat="42.510105" lon="-8.007925">
        <ele>591.0</ele>
        <time>2018-10-03T11:14:40.000Z</time>
      </trkpt>
      <trkpt lat="42.51011" lon="-8.00792833">
        <ele>591.0</ele>
        <time>2018-10-03T11:14:41.000Z</time>
      </trkpt>
      <trkpt lat="42.510115" lon="-8.00792667">
        <ele>591.0</ele>
        <time>2018-10-03T11:14:42.000Z</time>
      </trkpt>
      <trkpt lat="42.51011833" lon="-8.00792833">
        <ele>590.0</ele>
        <time>2018-10-03T11:14:43.000Z</time>
      </trkpt>
      <trkpt lat="42.51012" lon="-8.00792667">
        <ele>590.0</ele>
        <time>2018-10-03T11:14:44.000Z</time>
      </trkpt>
      <trkpt lat="42.51012333" lon="-8.00792667">
        <ele>590.0</ele>
        <time>2018-10-03T11:14:45.000Z</time>
      </trkpt>
      <trkpt lat="42.51012333" lon="-8.00793">
        <ele>590.0</ele>
        <time>2018-10-03T11:14:46.000Z</time>
      </trkpt>
      <trkpt lat="42.51012833" lon="-8.00793167">
        <ele>590.0</ele>
        <time>2018-10-03T11:14:47.000Z</time>
      </trkpt>
      <trkpt lat="42.51012833" lon="-8.00793333">
        <ele>589.0</ele>
        <time>2018-10-03T11:14:48.000Z</time>
      </trkpt>
      <trkpt lat="42.51013333" lon="-8.00793333">
        <ele>589.0</ele>
        <time>2018-10-03T11:14:49.000Z</time>
      </trkpt>
      <trkpt lat="42.510135" lon="-8.00793333">
        <ele>589.0</ele>
        <time>2018-10-03T11:14:50.000Z</time>
      </trkpt>
      <trkpt lat="42.51013833" lon="-8.007935">
        <ele>589.0</ele>
        <time>2018-10-03T11:14:51.000Z</time>
      </trkpt>
      <trkpt lat="42.51013833" lon="-8.00793667">
        <ele>589.0</ele>
        <time>2018-10-03T11:14:52.000Z</time>
      </trkpt>
      <trkpt lat="42.51014" lon="-8.00793667">
        <ele>589.0</ele>
        <time>2018-10-03T11:14:53.000Z</time>
      </trkpt>
      <trkpt lat="42.51014167" lon="-8.00794">
        <ele>588.0</ele>
        <time>2018-10-03T11:14:54.000Z</time>
      </trkpt>
      <trkpt lat="42.51014667" lon="-8.00794333">
        <ele>588.0</ele>
        <time>2018-10-03T11:14:55.000Z</time>
      </trkpt>
      <trkpt lat="42.51015333" lon="-8.007945">
        <ele>588.0</ele>
        <time>2018-10-03T11:14:56.000Z</time>
      </trkpt>
      <trkpt lat="42.51016667" lon="-8.007945">
        <ele>588.0</ele>
        <time>2018-10-03T11:14:57.000Z</time>
      </trkpt>
      <trkpt lat="42.51018" lon="-8.00794667">
        <ele>588.0</ele>
        <time>2018-10-03T11:14:58.000Z</time>
      </trkpt>
      <trkpt lat="42.51019333" lon="-8.00795333">
        <ele>588.0</ele>
        <time>2018-10-03T11:14:59.000Z</time>
      </trkpt>
      <trkpt lat="42.51020667" lon="-8.00796">
        <ele>588.0</ele>
        <time>2018-10-03T11:15:00.000Z</time>
      </trkpt>
      <trkpt lat="42.51022333" lon="-8.007965">
        <ele>588.0</ele>
        <time>2018-10-03T11:15:01.000Z</time>
      </trkpt>
      <trkpt lat="42.51023833" lon="-8.00796833">
        <ele>588.0</ele>
        <time>2018-10-03T11:15:02.000Z</time>
      </trkpt>
      <trkpt lat="42.51025167" lon="-8.00796667">
        <ele>588.0</ele>
        <time>2018-10-03T11:15:03.000Z</time>
      </trkpt>
      <trkpt lat="42.51026333" lon="-8.00796333">
        <ele>588.0</ele>
        <time>2018-10-03T11:15:04.000Z</time>
      </trkpt>
      <trkpt lat="42.51027667" lon="-8.00796667">
        <ele>587.0</ele>
        <time>2018-10-03T11:15:05.000Z</time>
      </trkpt>
      <trkpt lat="42.51029333" lon="-8.00796833">
        <ele>587.0</ele>
        <time>2018-10-03T11:15:06.000Z</time>
      </trkpt>
      <trkpt lat="42.51031" lon="-8.00796833">
        <ele>587.0</ele>
        <time>2018-10-03T11:15:07.000Z</time>
      </trkpt>
      <trkpt lat="42.510325" lon="-8.007965">
        <ele>587.0</ele>
        <time>2018-10-03T11:15:08.000Z</time>
      </trkpt>
      <trkpt lat="42.51033833" lon="-8.00796333">
        <ele>587.0</ele>
        <time>2018-10-03T11:15:09.000Z</time>
      </trkpt>
      <trkpt lat="42.51035333" lon="-8.00796">
        <ele>587.0</ele>
        <time>2018-10-03T11:15:10.000Z</time>
      </trkpt>
      <trkpt lat="42.51037" lon="-8.00796">
        <ele>587.0</ele>
        <time>2018-10-03T11:15:11.000Z</time>
      </trkpt>
      <trkpt lat="42.510385" lon="-8.00795833">
        <ele>587.0</ele>
        <time>2018-10-03T11:15:12.000Z</time>
      </trkpt>
      <trkpt lat="42.51040167" lon="-8.00795667">
        <ele>586.0</ele>
        <time>2018-10-03T11:15:13.000Z</time>
      </trkpt>
      <trkpt lat="42.51041667" lon="-8.007955">
        <ele>586.0</ele>
        <time>2018-10-03T11:15:14.000Z</time>
      </trkpt>
      <trkpt lat="42.51043167" lon="-8.00795333">
        <ele>586.0</ele>
        <time>2018-10-03T11:15:15.000Z</time>
      </trkpt>
      <trkpt lat="42.51044833" lon="-8.00795167">
        <ele>585.0</ele>
        <time>2018-10-03T11:15:16.000Z</time>
      </trkpt>
      <trkpt lat="42.510465" lon="-8.00795">
        <ele>585.0</ele>
        <time>2018-10-03T11:15:17.000Z</time>
      </trkpt>
      <trkpt lat="42.51048" lon="-8.00795167">
        <ele>585.0</ele>
        <time>2018-10-03T11:15:18.000Z</time>
      </trkpt>
      <trkpt lat="42.510495" lon="-8.00795333">
        <ele>585.0</ele>
        <time>2018-10-03T11:15:19.000Z</time>
      </trkpt>
      <trkpt lat="42.51051167" lon="-8.007955">
        <ele>585.0</ele>
        <time>2018-10-03T11:15:20.000Z</time>
      </trkpt>
      <trkpt lat="42.510525" lon="-8.00795833">
        <ele>584.0</ele>
        <time>2018-10-03T11:15:21.000Z</time>
      </trkpt>
      <trkpt lat="42.51053833" lon="-8.00796">
        <ele>584.0</ele>
        <time>2018-10-03T11:15:22.000Z</time>
      </trkpt>
      <trkpt lat="42.51055167" lon="-8.00796333">
        <ele>584.0</ele>
        <time>2018-10-03T11:15:23.000Z</time>
      </trkpt>
      <trkpt lat="42.510565" lon="-8.007965">
        <ele>584.0</ele>
        <time>2018-10-03T11:15:24.000Z</time>
      </trkpt>
      <trkpt lat="42.51057833" lon="-8.00796667">
        <ele>584.0</ele>
        <time>2018-10-03T11:15:25.000Z</time>
      </trkpt>
      <trkpt lat="42.51059333" lon="-8.00797">
        <ele>584.0</ele>
        <time>2018-10-03T11:15:26.000Z</time>
      </trkpt>
      <trkpt lat="42.51061" lon="-8.00797333">
        <ele>584.0</ele>
        <time>2018-10-03T11:15:27.000Z</time>
      </trkpt>
      <trkpt lat="42.51062667" lon="-8.00797667">
        <ele>584.0</ele>
        <time>2018-10-03T11:15:28.000Z</time>
      </trkpt>
      <trkpt lat="42.51064167" lon="-8.00798">
        <ele>584.0</ele>
        <time>2018-10-03T11:15:29.000Z</time>
      </trkpt>
      <trkpt lat="42.51065833" lon="-8.00798333">
        <ele>583.0</ele>
        <time>2018-10-03T11:15:30.000Z</time>
      </trkpt>
      <trkpt lat="42.51067333" lon="-8.00798667">
        <ele>583.0</ele>
        <time>2018-10-03T11:15:31.000Z</time>
      </trkpt>
      <trkpt lat="42.51068667" lon="-8.00799167">
        <ele>583.0</ele>
        <time>2018-10-03T11:15:32.000Z</time>
      </trkpt>
      <trkpt lat="42.51070333" lon="-8.007995">
        <ele>583.0</ele>
        <time>2018-10-03T11:15:33.000Z</time>
      </trkpt>
      <trkpt lat="42.51071833" lon="-8.007995">
        <ele>583.0</ele>
        <time>2018-10-03T11:15:34.000Z</time>
      </trkpt>
      <trkpt lat="42.51073333" lon="-8.008">
        <ele>583.0</ele>
        <time>2018-10-03T11:15:35.000Z</time>
      </trkpt>
      <trkpt lat="42.51075" lon="-8.00800333">
        <ele>583.0</ele>
        <time>2018-10-03T11:15:36.000Z</time>
      </trkpt>
      <trkpt lat="42.51076667" lon="-8.008005">
        <ele>583.0</ele>
        <time>2018-10-03T11:15:37.000Z</time>
      </trkpt>
      <trkpt lat="42.51078333" lon="-8.00800833">
        <ele>583.0</ele>
        <time>2018-10-03T11:15:38.000Z</time>
      </trkpt>
      <trkpt lat="42.5108" lon="-8.00801167">
        <ele>583.0</ele>
        <time>2018-10-03T11:15:39.000Z</time>
      </trkpt>
      <trkpt lat="42.510815" lon="-8.008015">
        <ele>583.0</ele>
        <time>2018-10-03T11:15:40.000Z</time>
      </trkpt>
      <trkpt lat="42.51083" lon="-8.00801667">
        <ele>583.0</ele>
        <time>2018-10-03T11:15:41.000Z</time>
      </trkpt>
      <trkpt lat="42.51084333" lon="-8.00801833">
        <ele>583.0</ele>
        <time>2018-10-03T11:15:42.000Z</time>
      </trkpt>
      <trkpt lat="42.51085833" lon="-8.00802167">
        <ele>583.0</ele>
        <time>2018-10-03T11:15:43.000Z</time>
      </trkpt>
      <trkpt lat="42.51087167" lon="-8.00802667">
        <ele>582.0</ele>
        <time>2018-10-03T11:15:44.000Z</time>
      </trkpt>
      <trkpt lat="42.510885" lon="-8.00803">
        <ele>582.0</ele>
        <time>2018-10-03T11:15:45.000Z</time>
      </trkpt>
      <trkpt lat="42.51090167" lon="-8.00803333">
        <ele>582.0</ele>
        <time>2018-10-03T11:15:46.000Z</time>
      </trkpt>
      <trkpt lat="42.51091667" lon="-8.00804">
        <ele>582.0</ele>
        <time>2018-10-03T11:15:47.000Z</time>
      </trkpt>
      <trkpt lat="42.51093167" lon="-8.00804667">
        <ele>582.0</ele>
        <time>2018-10-03T11:15:48.000Z</time>
      </trkpt>
      <trkpt lat="42.51095" lon="-8.00805">
        <ele>582.0</ele>
        <time>2018-10-03T11:15:49.000Z</time>
      </trkpt>
      <trkpt lat="42.510965" lon="-8.00805333">
        <ele>582.0</ele>
        <time>2018-10-03T11:15:50.000Z</time>
      </trkpt>
      <trkpt lat="42.51098" lon="-8.00805833">
        <ele>582.0</ele>
        <time>2018-10-03T11:15:51.000Z</time>
      </trkpt>
      <trkpt lat="42.51099333" lon="-8.00806167">
        <ele>582.0</ele>
        <time>2018-10-03T11:15:52.000Z</time>
      </trkpt>
      <trkpt lat="42.51100833" lon="-8.008065">
        <ele>582.0</ele>
        <time>2018-10-03T11:15:53.000Z</time>
      </trkpt>
      <trkpt lat="42.51102333" lon="-8.00806667">
        <ele>581.0</ele>
        <time>2018-10-03T11:15:54.000Z</time>
      </trkpt>
      <trkpt lat="42.51104" lon="-8.00806833">
        <ele>581.0</ele>
        <time>2018-10-03T11:15:55.000Z</time>
      </trkpt>
      <trkpt lat="42.51105667" lon="-8.00807">
        <ele>581.0</ele>
        <time>2018-10-03T11:15:56.000Z</time>
      </trkpt>
      <trkpt lat="42.51107333" lon="-8.00807333">
        <ele>581.0</ele>
        <time>2018-10-03T11:15:57.000Z</time>
      </trkpt>
      <trkpt lat="42.51108833" lon="-8.008075">
        <ele>581.0</ele>
        <time>2018-10-03T11:15:58.000Z</time>
      </trkpt>
      <trkpt lat="42.51110333" lon="-8.00807833">
        <ele>581.0</ele>
        <time>2018-10-03T11:15:59.000Z</time>
      </trkpt>
      <trkpt lat="42.51112" lon="-8.00808167">
        <ele>581.0</ele>
        <time>2018-10-03T11:16:00.000Z</time>
      </trkpt>
      <trkpt lat="42.51113667" lon="-8.00808167">
        <ele>580.0</ele>
        <time>2018-10-03T11:16:01.000Z</time>
      </trkpt>
      <trkpt lat="42.51115333" lon="-8.00808333">
        <ele>580.0</ele>
        <time>2018-10-03T11:16:02.000Z</time>
      </trkpt>
      <trkpt lat="42.51117" lon="-8.008085">
        <ele>580.0</ele>
        <time>2018-10-03T11:16:03.000Z</time>
      </trkpt>
      <trkpt lat="42.511185" lon="-8.00808667">
        <ele>580.0</ele>
        <time>2018-10-03T11:16:04.000Z</time>
      </trkpt>
      <trkpt lat="42.5112" lon="-8.00808833">
        <ele>580.0</ele>
        <time>2018-10-03T11:16:05.000Z</time>
      </trkpt>
      <trkpt lat="42.511215" lon="-8.00808833">
        <ele>579.0</ele>
        <time>2018-10-03T11:16:06.000Z</time>
      </trkpt>
      <trkpt lat="42.51123167" lon="-8.00809167">
        <ele>579.0</ele>
        <time>2018-10-03T11:16:07.000Z</time>
      </trkpt>
      <trkpt lat="42.51124833" lon="-8.00809333">
        <ele>579.0</ele>
        <time>2018-10-03T11:16:08.000Z</time>
      </trkpt>
      <trkpt lat="42.51126333" lon="-8.008095">
        <ele>579.0</ele>
        <time>2018-10-03T11:16:09.000Z</time>
      </trkpt>
      <trkpt lat="42.51128" lon="-8.008095">
        <ele>579.0</ele>
        <time>2018-10-03T11:16:10.000Z</time>
      </trkpt>
      <trkpt lat="42.511295" lon="-8.00809833">
        <ele>579.0</ele>
        <time>2018-10-03T11:16:11.000Z</time>
      </trkpt>
      <trkpt lat="42.51131" lon="-8.00810167">
        <ele>579.0</ele>
        <time>2018-10-03T11:16:12.000Z</time>
      </trkpt>
      <trkpt lat="42.51132667" lon="-8.00810333">
        <ele>579.0</ele>
        <time>2018-10-03T11:16:13.000Z</time>
      </trkpt>
      <trkpt lat="42.51134167" lon="-8.00810333">
        <ele>579.0</ele>
        <time>2018-10-03T11:16:14.000Z</time>
      </trkpt>
      <trkpt lat="42.511355" lon="-8.008105">
        <ele>579.0</ele>
        <time>2018-10-03T11:16:15.000Z</time>
      </trkpt>
      <trkpt lat="42.51137" lon="-8.00810833">
        <ele>579.0</ele>
        <time>2018-10-03T11:16:16.000Z</time>
      </trkpt>
      <trkpt lat="42.51138167" lon="-8.00811333">
        <ele>579.0</ele>
        <time>2018-10-03T11:16:17.000Z</time>
      </trkpt>
      <trkpt lat="42.51139667" lon="-8.00811667">
        <ele>579.0</ele>
        <time>2018-10-03T11:16:18.000Z</time>
      </trkpt>
      <trkpt lat="42.51140833" lon="-8.00812">
        <ele>578.0</ele>
        <time>2018-10-03T11:16:19.000Z</time>
      </trkpt>
      <trkpt lat="42.51141833" lon="-8.00812667">
        <ele>578.0</ele>
        <time>2018-10-03T11:16:20.000Z</time>
      </trkpt>
      <trkpt lat="42.51143" lon="-8.00813333">
        <ele>578.0</ele>
        <time>2018-10-03T11:16:21.000Z</time>
      </trkpt>
      <trkpt lat="42.511445" lon="-8.008135">
        <ele>578.0</ele>
        <time>2018-10-03T11:16:22.000Z</time>
      </trkpt>
      <trkpt lat="42.51145833" lon="-8.00813833">
        <ele>578.0</ele>
        <time>2018-10-03T11:16:23.000Z</time>
      </trkpt>
      <trkpt lat="42.51147333" lon="-8.00814">
        <ele>578.0</ele>
        <time>2018-10-03T11:16:24.000Z</time>
      </trkpt>
      <trkpt lat="42.51148667" lon="-8.00814333">
        <ele>578.0</ele>
        <time>2018-10-03T11:16:25.000Z</time>
      </trkpt>
      <trkpt lat="42.51150333" lon="-8.008145">
        <ele>578.0</ele>
        <time>2018-10-03T11:16:26.000Z</time>
      </trkpt>
      <trkpt lat="42.51152" lon="-8.00814667">
        <ele>578.0</ele>
        <time>2018-10-03T11:16:27.000Z</time>
      </trkpt>
      <trkpt lat="42.511535" lon="-8.008145">
        <ele>578.0</ele>
        <time>2018-10-03T11:16:28.000Z</time>
      </trkpt>
      <trkpt lat="42.51155167" lon="-8.00814167">
        <ele>578.0</ele>
        <time>2018-10-03T11:16:29.000Z</time>
      </trkpt>
      <trkpt lat="42.51156833" lon="-8.00813667">
        <ele>578.0</ele>
        <time>2018-10-03T11:16:30.000Z</time>
      </trkpt>
      <trkpt lat="42.51158333" lon="-8.00813">
        <ele>578.0</ele>
        <time>2018-10-03T11:16:31.000Z</time>
      </trkpt>
      <trkpt lat="42.51159667" lon="-8.00812">
        <ele>578.0</ele>
        <time>2018-10-03T11:16:32.000Z</time>
      </trkpt>
      <trkpt lat="42.51161" lon="-8.00811333">
        <ele>578.0</ele>
        <time>2018-10-03T11:16:33.000Z</time>
      </trkpt>
      <trkpt lat="42.511625" lon="-8.00810667">
        <ele>578.0</ele>
        <time>2018-10-03T11:16:34.000Z</time>
      </trkpt>
      <trkpt lat="42.51164" lon="-8.00810167">
        <ele>578.0</ele>
        <time>2018-10-03T11:16:35.000Z</time>
      </trkpt>
      <trkpt lat="42.511655" lon="-8.008095">
        <ele>578.0</ele>
        <time>2018-10-03T11:16:36.000Z</time>
      </trkpt>
      <trkpt lat="42.51167" lon="-8.00809">
        <ele>578.0</ele>
        <time>2018-10-03T11:16:37.000Z</time>
      </trkpt>
      <trkpt lat="42.511685" lon="-8.00808667">
        <ele>578.0</ele>
        <time>2018-10-03T11:16:38.000Z</time>
      </trkpt>
      <trkpt lat="42.5117" lon="-8.00808333">
        <ele>578.0</ele>
        <time>2018-10-03T11:16:39.000Z</time>
      </trkpt>
      <trkpt lat="42.51171667" lon="-8.00807833">
        <ele>578.0</ele>
        <time>2018-10-03T11:16:40.000Z</time>
      </trkpt>
      <trkpt lat="42.51173167" lon="-8.008075">
        <ele>577.0</ele>
        <time>2018-10-03T11:16:41.000Z</time>
      </trkpt>
      <trkpt lat="42.51174833" lon="-8.00807333">
        <ele>577.0</ele>
        <time>2018-10-03T11:16:42.000Z</time>
      </trkpt>
      <trkpt lat="42.51176667" lon="-8.00807167">
        <ele>577.0</ele>
        <time>2018-10-03T11:16:43.000Z</time>
      </trkpt>
      <trkpt lat="42.51178333" lon="-8.00807167">
        <ele>577.0</ele>
        <time>2018-10-03T11:16:44.000Z</time>
      </trkpt>
      <trkpt lat="42.51180167" lon="-8.00807167">
        <ele>578.0</ele>
        <time>2018-10-03T11:16:45.000Z</time>
      </trkpt>
      <trkpt lat="42.51181833" lon="-8.00807">
        <ele>577.0</ele>
        <time>2018-10-03T11:16:46.000Z</time>
      </trkpt>
      <trkpt lat="42.511835" lon="-8.00807">
        <ele>577.0</ele>
        <time>2018-10-03T11:16:47.000Z</time>
      </trkpt>
      <trkpt lat="42.51185167" lon="-8.00807">
        <ele>577.0</ele>
        <time>2018-10-03T11:16:48.000Z</time>
      </trkpt>
      <trkpt lat="42.51186833" lon="-8.00807167">
        <ele>577.0</ele>
        <time>2018-10-03T11:16:49.000Z</time>
      </trkpt>
      <trkpt lat="42.511885" lon="-8.00807167">
        <ele>577.0</ele>
        <time>2018-10-03T11:16:50.000Z</time>
      </trkpt>
      <trkpt lat="42.51190167" lon="-8.00807167">
        <ele>577.0</ele>
        <time>2018-10-03T11:16:51.000Z</time>
      </trkpt>
      <trkpt lat="42.51191833" lon="-8.00807167">
        <ele>577.0</ele>
        <time>2018-10-03T11:16:52.000Z</time>
      </trkpt>
      <trkpt lat="42.511935" lon="-8.00807333">
        <ele>577.0</ele>
        <time>2018-10-03T11:16:53.000Z</time>
      </trkpt>
      <trkpt lat="42.51195167" lon="-8.008075">
        <ele>576.0</ele>
        <time>2018-10-03T11:16:54.000Z</time>
      </trkpt>
      <trkpt lat="42.51196833" lon="-8.00807667">
        <ele>576.0</ele>
        <time>2018-10-03T11:16:55.000Z</time>
      </trkpt>
      <trkpt lat="42.51198667" lon="-8.00808167">
        <ele>576.0</ele>
        <time>2018-10-03T11:16:56.000Z</time>
      </trkpt>
      <trkpt lat="42.51200167" lon="-8.008085">
        <ele>576.0</ele>
        <time>2018-10-03T11:16:57.000Z</time>
      </trkpt>
      <trkpt lat="42.51201667" lon="-8.00808833">
        <ele>576.0</ele>
        <time>2018-10-03T11:16:58.000Z</time>
      </trkpt>
      <trkpt lat="42.51203" lon="-8.00809167">
        <ele>576.0</ele>
        <time>2018-10-03T11:16:59.000Z</time>
      </trkpt>
      <trkpt lat="42.512045" lon="-8.00809667">
        <ele>576.0</ele>
        <time>2018-10-03T11:17:00.000Z</time>
      </trkpt>
      <trkpt lat="42.51206333" lon="-8.00809833">
        <ele>576.0</ele>
        <time>2018-10-03T11:17:01.000Z</time>
      </trkpt>
      <trkpt lat="42.51207833" lon="-8.00810167">
        <ele>576.0</ele>
        <time>2018-10-03T11:17:02.000Z</time>
      </trkpt>
      <trkpt lat="42.51209667" lon="-8.00810333">
        <ele>576.0</ele>
        <time>2018-10-03T11:17:03.000Z</time>
      </trkpt>
      <trkpt lat="42.51211333" lon="-8.00810667">
        <ele>576.0</ele>
        <time>2018-10-03T11:17:04.000Z</time>
      </trkpt>
      <trkpt lat="42.51213" lon="-8.00811167">
        <ele>576.0</ele>
        <time>2018-10-03T11:17:05.000Z</time>
      </trkpt>
      <trkpt lat="42.512145" lon="-8.00811667">
        <ele>576.0</ele>
        <time>2018-10-03T11:17:06.000Z</time>
      </trkpt>
      <trkpt lat="42.51216" lon="-8.00812167">
        <ele>576.0</ele>
        <time>2018-10-03T11:17:07.000Z</time>
      </trkpt>
      <trkpt lat="42.512175" lon="-8.008125">
        <ele>576.0</ele>
        <time>2018-10-03T11:17:08.000Z</time>
      </trkpt>
      <trkpt lat="42.51218833" lon="-8.00812833">
        <ele>576.0</ele>
        <time>2018-10-03T11:17:09.000Z</time>
      </trkpt>
      <trkpt lat="42.51220167" lon="-8.00813333">
        <ele>576.0</ele>
        <time>2018-10-03T11:17:10.000Z</time>
      </trkpt>
      <trkpt lat="42.51221833" lon="-8.00813833">
        <ele>576.0</ele>
        <time>2018-10-03T11:17:11.000Z</time>
      </trkpt>
      <trkpt lat="42.512235" lon="-8.00814167">
        <ele>576.0</ele>
        <time>2018-10-03T11:17:12.000Z</time>
      </trkpt>
      <trkpt lat="42.51225333" lon="-8.00814333">
        <ele>576.0</ele>
        <time>2018-10-03T11:17:13.000Z</time>
      </trkpt>
      <trkpt lat="42.51227167" lon="-8.00814667">
        <ele>576.0</ele>
        <time>2018-10-03T11:17:14.000Z</time>
      </trkpt>
      <trkpt lat="42.51228667" lon="-8.00814833">
        <ele>576.0</ele>
        <time>2018-10-03T11:17:15.000Z</time>
      </trkpt>
      <trkpt lat="42.51230333" lon="-8.00814833">
        <ele>575.0</ele>
        <time>2018-10-03T11:17:16.000Z</time>
      </trkpt>
      <trkpt lat="42.51231667" lon="-8.008155">
        <ele>575.0</ele>
        <time>2018-10-03T11:17:17.000Z</time>
      </trkpt>
      <trkpt lat="42.51233" lon="-8.00816167">
        <ele>575.0</ele>
        <time>2018-10-03T11:17:18.000Z</time>
      </trkpt>
      <trkpt lat="42.51234167" lon="-8.008165">
        <ele>575.0</ele>
        <time>2018-10-03T11:17:19.000Z</time>
      </trkpt>
      <trkpt lat="42.51235833" lon="-8.00816833">
        <ele>575.0</ele>
        <time>2018-10-03T11:17:20.000Z</time>
      </trkpt>
      <trkpt lat="42.512375" lon="-8.00817">
        <ele>575.0</ele>
        <time>2018-10-03T11:17:21.000Z</time>
      </trkpt>
      <trkpt lat="42.51239167" lon="-8.00817167">
        <ele>575.0</ele>
        <time>2018-10-03T11:17:22.000Z</time>
      </trkpt>
      <trkpt lat="42.51241167" lon="-8.00817">
        <ele>575.0</ele>
        <time>2018-10-03T11:17:23.000Z</time>
      </trkpt>
      <trkpt lat="42.51242833" lon="-8.00817167">
        <ele>574.0</ele>
        <time>2018-10-03T11:17:24.000Z</time>
      </trkpt>
      <trkpt lat="42.51244333" lon="-8.008175">
        <ele>574.0</ele>
        <time>2018-10-03T11:17:25.000Z</time>
      </trkpt>
      <trkpt lat="42.51245833" lon="-8.00817833">
        <ele>574.0</ele>
        <time>2018-10-03T11:17:26.000Z</time>
      </trkpt>
      <trkpt lat="42.51247333" lon="-8.00817833">
        <ele>574.0</ele>
        <time>2018-10-03T11:17:27.000Z</time>
      </trkpt>
      <trkpt lat="42.51248833" lon="-8.00818">
        <ele>574.0</ele>
        <time>2018-10-03T11:17:28.000Z</time>
      </trkpt>
      <trkpt lat="42.512505" lon="-8.00818333">
        <ele>574.0</ele>
        <time>2018-10-03T11:17:29.000Z</time>
      </trkpt>
      <trkpt lat="42.51252167" lon="-8.008185">
        <ele>574.0</ele>
        <time>2018-10-03T11:17:30.000Z</time>
      </trkpt>
      <trkpt lat="42.51253833" lon="-8.00818333">
        <ele>575.0</ele>
        <time>2018-10-03T11:17:31.000Z</time>
      </trkpt>
      <trkpt lat="42.512555" lon="-8.008185">
        <ele>575.0</ele>
        <time>2018-10-03T11:17:32.000Z</time>
      </trkpt>
      <trkpt lat="42.51257" lon="-8.008185">
        <ele>575.0</ele>
        <time>2018-10-03T11:17:33.000Z</time>
      </trkpt>
      <trkpt lat="42.51258667" lon="-8.008185">
        <ele>575.0</ele>
        <time>2018-10-03T11:17:34.000Z</time>
      </trkpt>
      <trkpt lat="42.51260167" lon="-8.008185">
        <ele>575.0</ele>
        <time>2018-10-03T11:17:35.000Z</time>
      </trkpt>
      <trkpt lat="42.51261833" lon="-8.00818333">
        <ele>575.0</ele>
        <time>2018-10-03T11:17:36.000Z</time>
      </trkpt>
      <trkpt lat="42.51263" lon="-8.00818667">
        <ele>574.0</ele>
        <time>2018-10-03T11:17:37.000Z</time>
      </trkpt>
      <trkpt lat="42.51264167" lon="-8.00818667">
        <ele>574.0</ele>
        <time>2018-10-03T11:17:38.000Z</time>
      </trkpt>
      <trkpt lat="42.51265667" lon="-8.00818667">
        <ele>574.0</ele>
        <time>2018-10-03T11:17:39.000Z</time>
      </trkpt>
      <trkpt lat="42.51267" lon="-8.00818833">
        <ele>574.0</ele>
        <time>2018-10-03T11:17:40.000Z</time>
      </trkpt>
      <trkpt lat="42.51268667" lon="-8.00819">
        <ele>574.0</ele>
        <time>2018-10-03T11:17:41.000Z</time>
      </trkpt>
      <trkpt lat="42.51270167" lon="-8.00818667">
        <ele>574.0</ele>
        <time>2018-10-03T11:17:42.000Z</time>
      </trkpt>
      <trkpt lat="42.51271667" lon="-8.00818833">
        <ele>574.0</ele>
        <time>2018-10-03T11:17:43.000Z</time>
      </trkpt>
      <trkpt lat="42.51273333" lon="-8.00819167">
        <ele>574.0</ele>
        <time>2018-10-03T11:17:44.000Z</time>
      </trkpt>
      <trkpt lat="42.51275" lon="-8.00819667">
        <ele>574.0</ele>
        <time>2018-10-03T11:17:45.000Z</time>
      </trkpt>
      <trkpt lat="42.51276333" lon="-8.0082">
        <ele>574.0</ele>
        <time>2018-10-03T11:17:46.000Z</time>
      </trkpt>
      <trkpt lat="42.51277833" lon="-8.008205">
        <ele>574.0</ele>
        <time>2018-10-03T11:17:47.000Z</time>
      </trkpt>
      <trkpt lat="42.51279333" lon="-8.00820667">
        <ele>574.0</ele>
        <time>2018-10-03T11:17:48.000Z</time>
      </trkpt>
      <trkpt lat="42.51280833" lon="-8.00820833">
        <ele>574.0</ele>
        <time>2018-10-03T11:17:49.000Z</time>
      </trkpt>
      <trkpt lat="42.51282333" lon="-8.00821167">
        <ele>574.0</ele>
        <time>2018-10-03T11:17:50.000Z</time>
      </trkpt>
      <trkpt lat="42.51284" lon="-8.00821667">
        <ele>574.0</ele>
        <time>2018-10-03T11:17:51.000Z</time>
      </trkpt>
      <trkpt lat="42.51285667" lon="-8.00822167">
        <ele>574.0</ele>
        <time>2018-10-03T11:17:52.000Z</time>
      </trkpt>
      <trkpt lat="42.51287333" lon="-8.00822667">
        <ele>574.0</ele>
        <time>2018-10-03T11:17:53.000Z</time>
      </trkpt>
      <trkpt lat="42.51289" lon="-8.00823167">
        <ele>574.0</ele>
        <time>2018-10-03T11:17:54.000Z</time>
      </trkpt>
      <trkpt lat="42.51290333" lon="-8.00823667">
        <ele>574.0</ele>
        <time>2018-10-03T11:17:55.000Z</time>
      </trkpt>
      <trkpt lat="42.51291833" lon="-8.00824167">
        <ele>574.0</ele>
        <time>2018-10-03T11:17:56.000Z</time>
      </trkpt>
      <trkpt lat="42.512935" lon="-8.00824833">
        <ele>574.0</ele>
        <time>2018-10-03T11:17:57.000Z</time>
      </trkpt>
      <trkpt lat="42.51295" lon="-8.008255">
        <ele>574.0</ele>
        <time>2018-10-03T11:17:58.000Z</time>
      </trkpt>
      <trkpt lat="42.51296667" lon="-8.00826333">
        <ele>574.0</ele>
        <time>2018-10-03T11:17:59.000Z</time>
      </trkpt>
      <trkpt lat="42.51298" lon="-8.00827">
        <ele>574.0</ele>
        <time>2018-10-03T11:18:00.000Z</time>
      </trkpt>
      <trkpt lat="42.51299333" lon="-8.00827833">
        <ele>573.0</ele>
        <time>2018-10-03T11:18:01.000Z</time>
      </trkpt>
      <trkpt lat="42.51300833" lon="-8.00829">
        <ele>573.0</ele>
        <time>2018-10-03T11:18:02.000Z</time>
      </trkpt>
      <trkpt lat="42.51302333" lon="-8.0083">
        <ele>573.0</ele>
        <time>2018-10-03T11:18:03.000Z</time>
      </trkpt>
      <trkpt lat="42.51303667" lon="-8.00831167">
        <ele>573.0</ele>
        <time>2018-10-03T11:18:04.000Z</time>
      </trkpt>
      <trkpt lat="42.51305" lon="-8.00832167">
        <ele>573.0</ele>
        <time>2018-10-03T11:18:05.000Z</time>
      </trkpt>
      <trkpt lat="42.51306333" lon="-8.00833333">
        <ele>573.0</ele>
        <time>2018-10-03T11:18:06.000Z</time>
      </trkpt>
      <trkpt lat="42.51307667" lon="-8.00834833">
        <ele>573.0</ele>
        <time>2018-10-03T11:18:07.000Z</time>
      </trkpt>
      <trkpt lat="42.51309167" lon="-8.00836167">
        <ele>573.0</ele>
        <time>2018-10-03T11:18:08.000Z</time>
      </trkpt>
      <trkpt lat="42.513105" lon="-8.00837333">
        <ele>573.0</ele>
        <time>2018-10-03T11:18:09.000Z</time>
      </trkpt>
      <trkpt lat="42.51311833" lon="-8.008385">
        <ele>573.0</ele>
        <time>2018-10-03T11:18:10.000Z</time>
      </trkpt>
      <trkpt lat="42.51313333" lon="-8.0084">
        <ele>573.0</ele>
        <time>2018-10-03T11:18:11.000Z</time>
      </trkpt>
      <trkpt lat="42.513145" lon="-8.008415">
        <ele>572.0</ele>
        <time>2018-10-03T11:18:12.000Z</time>
      </trkpt>
      <trkpt lat="42.51315667" lon="-8.00842833">
        <ele>572.0</ele>
        <time>2018-10-03T11:18:13.000Z</time>
      </trkpt>
      <trkpt lat="42.51316667" lon="-8.00844167">
        <ele>572.0</ele>
        <time>2018-10-03T11:18:14.000Z</time>
      </trkpt>
      <trkpt lat="42.51318" lon="-8.00845667">
        <ele>572.0</ele>
        <time>2018-10-03T11:18:15.000Z</time>
      </trkpt>
      <trkpt lat="42.51319333" lon="-8.00847">
        <ele>572.0</ele>
        <time>2018-10-03T11:18:16.000Z</time>
      </trkpt>
      <trkpt lat="42.51320333" lon="-8.008485">
        <ele>571.0</ele>
        <time>2018-10-03T11:18:17.000Z</time>
      </trkpt>
      <trkpt lat="42.51321333" lon="-8.0085">
        <ele>571.0</ele>
        <time>2018-10-03T11:18:18.000Z</time>
      </trkpt>
      <trkpt lat="42.51322667" lon="-8.008515">
        <ele>571.0</ele>
        <time>2018-10-03T11:18:19.000Z</time>
      </trkpt>
      <trkpt lat="42.51323833" lon="-8.00853167">
        <ele>571.0</ele>
        <time>2018-10-03T11:18:20.000Z</time>
      </trkpt>
      <trkpt lat="42.51325333" lon="-8.008545">
        <ele>571.0</ele>
        <time>2018-10-03T11:18:21.000Z</time>
      </trkpt>
      <trkpt lat="42.513265" lon="-8.00856">
        <ele>570.0</ele>
        <time>2018-10-03T11:18:22.000Z</time>
      </trkpt>
      <trkpt lat="42.51327833" lon="-8.008575">
        <ele>570.0</ele>
        <time>2018-10-03T11:18:23.000Z</time>
      </trkpt>
      <trkpt lat="42.51328833" lon="-8.00859">
        <ele>570.0</ele>
        <time>2018-10-03T11:18:24.000Z</time>
      </trkpt>
      <trkpt lat="42.5133" lon="-8.00860333">
        <ele>570.0</ele>
        <time>2018-10-03T11:18:25.000Z</time>
      </trkpt>
      <trkpt lat="42.51331333" lon="-8.00861667">
        <ele>570.0</ele>
        <time>2018-10-03T11:18:26.000Z</time>
      </trkpt>
      <trkpt lat="42.51332667" lon="-8.00863167">
        <ele>569.0</ele>
        <time>2018-10-03T11:18:27.000Z</time>
      </trkpt>
      <trkpt lat="42.51334167" lon="-8.00864667">
        <ele>569.0</ele>
        <time>2018-10-03T11:18:28.000Z</time>
      </trkpt>
      <trkpt lat="42.513355" lon="-8.00866167">
        <ele>569.0</ele>
        <time>2018-10-03T11:18:29.000Z</time>
      </trkpt>
      <trkpt lat="42.51336833" lon="-8.00867667">
        <ele>569.0</ele>
        <time>2018-10-03T11:18:30.000Z</time>
      </trkpt>
      <trkpt lat="42.51338333" lon="-8.00869333">
        <ele>569.0</ele>
        <time>2018-10-03T11:18:31.000Z</time>
      </trkpt>
      <trkpt lat="42.513395" lon="-8.00870667">
        <ele>568.0</ele>
        <time>2018-10-03T11:18:32.000Z</time>
      </trkpt>
      <trkpt lat="42.51340667" lon="-8.00872">
        <ele>568.0</ele>
        <time>2018-10-03T11:18:33.000Z</time>
      </trkpt>
      <trkpt lat="42.51342" lon="-8.00873">
        <ele>568.0</ele>
        <time>2018-10-03T11:18:34.000Z</time>
      </trkpt>
      <trkpt lat="42.51343333" lon="-8.00874333">
        <ele>568.0</ele>
        <time>2018-10-03T11:18:35.000Z</time>
      </trkpt>
      <trkpt lat="42.51344667" lon="-8.008755">
        <ele>568.0</ele>
        <time>2018-10-03T11:18:36.000Z</time>
      </trkpt>
      <trkpt lat="42.51345833" lon="-8.00876833">
        <ele>567.0</ele>
        <time>2018-10-03T11:18:37.000Z</time>
      </trkpt>
      <trkpt lat="42.51347" lon="-8.00878167">
        <ele>567.0</ele>
        <time>2018-10-03T11:18:38.000Z</time>
      </trkpt>
      <trkpt lat="42.51348333" lon="-8.008795">
        <ele>567.0</ele>
        <time>2018-10-03T11:18:39.000Z</time>
      </trkpt>
      <trkpt lat="42.513495" lon="-8.00880667">
        <ele>567.0</ele>
        <time>2018-10-03T11:18:40.000Z</time>
      </trkpt>
      <trkpt lat="42.51350667" lon="-8.00882">
        <ele>567.0</ele>
        <time>2018-10-03T11:18:41.000Z</time>
      </trkpt>
      <trkpt lat="42.51351833" lon="-8.00883333">
        <ele>567.0</ele>
        <time>2018-10-03T11:18:42.000Z</time>
      </trkpt>
      <trkpt lat="42.51353167" lon="-8.008845">
        <ele>567.0</ele>
        <time>2018-10-03T11:18:43.000Z</time>
      </trkpt>
      <trkpt lat="42.51354333" lon="-8.00885833">
        <ele>567.0</ele>
        <time>2018-10-03T11:18:44.000Z</time>
      </trkpt>
      <trkpt lat="42.513555" lon="-8.00887167">
        <ele>567.0</ele>
        <time>2018-10-03T11:18:45.000Z</time>
      </trkpt>
      <trkpt lat="42.51356833" lon="-8.008885">
        <ele>567.0</ele>
        <time>2018-10-03T11:18:46.000Z</time>
      </trkpt>
      <trkpt lat="42.51358167" lon="-8.00889833">
        <ele>568.0</ele>
        <time>2018-10-03T11:18:47.000Z</time>
      </trkpt>
      <trkpt lat="42.51359333" lon="-8.00891167">
        <ele>568.0</ele>
        <time>2018-10-03T11:18:48.000Z</time>
      </trkpt>
      <trkpt lat="42.513605" lon="-8.008925">
        <ele>568.0</ele>
        <time>2018-10-03T11:18:49.000Z</time>
      </trkpt>
      <trkpt lat="42.51361833" lon="-8.00893833">
        <ele>568.0</ele>
        <time>2018-10-03T11:18:50.000Z</time>
      </trkpt>
      <trkpt lat="42.51363333" lon="-8.00895167">
        <ele>568.0</ele>
        <time>2018-10-03T11:18:51.000Z</time>
      </trkpt>
      <trkpt lat="42.513645" lon="-8.008965">
        <ele>568.0</ele>
        <time>2018-10-03T11:18:52.000Z</time>
      </trkpt>
      <trkpt lat="42.51365667" lon="-8.00897833">
        <ele>568.0</ele>
        <time>2018-10-03T11:18:53.000Z</time>
      </trkpt>
      <trkpt lat="42.51367" lon="-8.00899167">
        <ele>568.0</ele>
        <time>2018-10-03T11:18:54.000Z</time>
      </trkpt>
      <trkpt lat="42.513685" lon="-8.00900333">
        <ele>568.0</ele>
        <time>2018-10-03T11:18:55.000Z</time>
      </trkpt>
      <trkpt lat="42.5137" lon="-8.00901333">
        <ele>568.0</ele>
        <time>2018-10-03T11:18:56.000Z</time>
      </trkpt>
      <trkpt lat="42.51371333" lon="-8.009025">
        <ele>568.0</ele>
        <time>2018-10-03T11:18:57.000Z</time>
      </trkpt>
      <trkpt lat="42.51372833" lon="-8.00903667">
        <ele>568.0</ele>
        <time>2018-10-03T11:18:58.000Z</time>
      </trkpt>
      <trkpt lat="42.51374333" lon="-8.00905">
        <ele>569.0</ele>
        <time>2018-10-03T11:18:59.000Z</time>
      </trkpt>
      <trkpt lat="42.51375667" lon="-8.00906167">
        <ele>569.0</ele>
        <time>2018-10-03T11:19:00.000Z</time>
      </trkpt>
      <trkpt lat="42.51377167" lon="-8.00907167">
        <ele>569.0</ele>
        <time>2018-10-03T11:19:01.000Z</time>
      </trkpt>
      <trkpt lat="42.513785" lon="-8.00908333">
        <ele>568.0</ele>
        <time>2018-10-03T11:19:02.000Z</time>
      </trkpt>
      <trkpt lat="42.51379667" lon="-8.00909333">
        <ele>568.0</ele>
        <time>2018-10-03T11:19:03.000Z</time>
      </trkpt>
      <trkpt lat="42.51380833" lon="-8.00910167">
        <ele>568.0</ele>
        <time>2018-10-03T11:19:04.000Z</time>
      </trkpt>
      <trkpt lat="42.51382333" lon="-8.00911">
        <ele>568.0</ele>
        <time>2018-10-03T11:19:05.000Z</time>
      </trkpt>
      <trkpt lat="42.51383833" lon="-8.00911667">
        <ele>568.0</ele>
        <time>2018-10-03T11:19:06.000Z</time>
      </trkpt>
      <trkpt lat="42.51385167" lon="-8.009125">
        <ele>568.0</ele>
        <time>2018-10-03T11:19:07.000Z</time>
      </trkpt>
      <trkpt lat="42.51386667" lon="-8.00913333">
        <ele>568.0</ele>
        <time>2018-10-03T11:19:08.000Z</time>
      </trkpt>
      <trkpt lat="42.51388167" lon="-8.00914167">
        <ele>568.0</ele>
        <time>2018-10-03T11:19:09.000Z</time>
      </trkpt>
      <trkpt lat="42.51389667" lon="-8.00915">
        <ele>568.0</ele>
        <time>2018-10-03T11:19:10.000Z</time>
      </trkpt>
      <trkpt lat="42.51391167" lon="-8.00915667">
        <ele>568.0</ele>
        <time>2018-10-03T11:19:11.000Z</time>
      </trkpt>
      <trkpt lat="42.51392833" lon="-8.00916167">
        <ele>568.0</ele>
        <time>2018-10-03T11:19:12.000Z</time>
      </trkpt>
      <trkpt lat="42.51394333" lon="-8.00916833">
        <ele>568.0</ele>
        <time>2018-10-03T11:19:13.000Z</time>
      </trkpt>
      <trkpt lat="42.51395833" lon="-8.009175">
        <ele>568.0</ele>
        <time>2018-10-03T11:19:14.000Z</time>
      </trkpt>
      <trkpt lat="42.51397333" lon="-8.00918167">
        <ele>568.0</ele>
        <time>2018-10-03T11:19:15.000Z</time>
      </trkpt>
      <trkpt lat="42.51398667" lon="-8.00918833">
        <ele>568.0</ele>
        <time>2018-10-03T11:19:16.000Z</time>
      </trkpt>
      <trkpt lat="42.514" lon="-8.009195">
        <ele>567.0</ele>
        <time>2018-10-03T11:19:17.000Z</time>
      </trkpt>
      <trkpt lat="42.514015" lon="-8.00920167">
        <ele>567.0</ele>
        <time>2018-10-03T11:19:18.000Z</time>
      </trkpt>
      <trkpt lat="42.51403" lon="-8.00920667">
        <ele>567.0</ele>
        <time>2018-10-03T11:19:19.000Z</time>
      </trkpt>
      <trkpt lat="42.51404333" lon="-8.00921167">
        <ele>567.0</ele>
        <time>2018-10-03T11:19:20.000Z</time>
      </trkpt>
      <trkpt lat="42.51406" lon="-8.00921833">
        <ele>567.0</ele>
        <time>2018-10-03T11:19:21.000Z</time>
      </trkpt>
      <trkpt lat="42.51407667" lon="-8.00922333">
        <ele>566.0</ele>
        <time>2018-10-03T11:19:22.000Z</time>
      </trkpt>
      <trkpt lat="42.51409167" lon="-8.00922833">
        <ele>566.0</ele>
        <time>2018-10-03T11:19:23.000Z</time>
      </trkpt>
      <trkpt lat="42.51410833" lon="-8.00923167">
        <ele>566.0</ele>
        <time>2018-10-03T11:19:24.000Z</time>
      </trkpt>
      <trkpt lat="42.514125" lon="-8.009235">
        <ele>566.0</ele>
        <time>2018-10-03T11:19:25.000Z</time>
      </trkpt>
      <trkpt lat="42.51414167" lon="-8.00923667">
        <ele>566.0</ele>
        <time>2018-10-03T11:19:26.000Z</time>
      </trkpt>
      <trkpt lat="42.51415667" lon="-8.00924">
        <ele>566.0</ele>
        <time>2018-10-03T11:19:27.000Z</time>
      </trkpt>
      <trkpt lat="42.51417167" lon="-8.00924333">
        <ele>566.0</ele>
        <time>2018-10-03T11:19:28.000Z</time>
      </trkpt>
      <trkpt lat="42.514185" lon="-8.00924667">
        <ele>566.0</ele>
        <time>2018-10-03T11:19:29.000Z</time>
      </trkpt>
      <trkpt lat="42.51420167" lon="-8.00924833">
        <ele>566.0</ele>
        <time>2018-10-03T11:19:30.000Z</time>
      </trkpt>
      <trkpt lat="42.51421667" lon="-8.00925">
        <ele>565.0</ele>
        <time>2018-10-03T11:19:31.000Z</time>
      </trkpt>
      <trkpt lat="42.51423167" lon="-8.00925167">
        <ele>565.0</ele>
        <time>2018-10-03T11:19:32.000Z</time>
      </trkpt>
      <trkpt lat="42.51424667" lon="-8.00925333">
        <ele>565.0</ele>
        <time>2018-10-03T11:19:33.000Z</time>
      </trkpt>
      <trkpt lat="42.51426333" lon="-8.009255">
        <ele>566.0</ele>
        <time>2018-10-03T11:19:34.000Z</time>
      </trkpt>
      <trkpt lat="42.51427833" lon="-8.00925833">
        <ele>566.0</ele>
        <time>2018-10-03T11:19:35.000Z</time>
      </trkpt>
      <trkpt lat="42.51429333" lon="-8.00926">
        <ele>566.0</ele>
        <time>2018-10-03T11:19:36.000Z</time>
      </trkpt>
      <trkpt lat="42.51430833" lon="-8.00926">
        <ele>566.0</ele>
        <time>2018-10-03T11:19:37.000Z</time>
      </trkpt>
      <trkpt lat="42.51432167" lon="-8.00926">
        <ele>565.0</ele>
        <time>2018-10-03T11:19:38.000Z</time>
      </trkpt>
      <trkpt lat="42.51433667" lon="-8.00925667">
        <ele>565.0</ele>
        <time>2018-10-03T11:19:39.000Z</time>
      </trkpt>
      <trkpt lat="42.51435333" lon="-8.009255">
        <ele>565.0</ele>
        <time>2018-10-03T11:19:40.000Z</time>
      </trkpt>
      <trkpt lat="42.51437" lon="-8.009255">
        <ele>565.0</ele>
        <time>2018-10-03T11:19:41.000Z</time>
      </trkpt>
      <trkpt lat="42.51438667" lon="-8.00925333">
        <ele>565.0</ele>
        <time>2018-10-03T11:19:42.000Z</time>
      </trkpt>
      <trkpt lat="42.51440667" lon="-8.00924833">
        <ele>565.0</ele>
        <time>2018-10-03T11:19:43.000Z</time>
      </trkpt>
      <trkpt lat="42.514425" lon="-8.00924667">
        <ele>565.0</ele>
        <time>2018-10-03T11:19:44.000Z</time>
      </trkpt>
      <trkpt lat="42.51444167" lon="-8.009245">
        <ele>565.0</ele>
        <time>2018-10-03T11:19:45.000Z</time>
      </trkpt>
      <trkpt lat="42.51445833" lon="-8.009245">
        <ele>565.0</ele>
        <time>2018-10-03T11:19:46.000Z</time>
      </trkpt>
      <trkpt lat="42.514475" lon="-8.00924333">
        <ele>565.0</ele>
        <time>2018-10-03T11:19:47.000Z</time>
      </trkpt>
      <trkpt lat="42.51449" lon="-8.00924167">
        <ele>565.0</ele>
        <time>2018-10-03T11:19:48.000Z</time>
      </trkpt>
      <trkpt lat="42.514505" lon="-8.00924">
        <ele>564.0</ele>
        <time>2018-10-03T11:19:49.000Z</time>
      </trkpt>
      <trkpt lat="42.51452" lon="-8.00923667">
        <ele>564.0</ele>
        <time>2018-10-03T11:19:50.000Z</time>
      </trkpt>
      <trkpt lat="42.51453667" lon="-8.009235">
        <ele>564.0</ele>
        <time>2018-10-03T11:19:51.000Z</time>
      </trkpt>
      <trkpt lat="42.51455333" lon="-8.009235">
        <ele>564.0</ele>
        <time>2018-10-03T11:19:52.000Z</time>
      </trkpt>
      <trkpt lat="42.51457" lon="-8.00923333">
        <ele>564.0</ele>
        <time>2018-10-03T11:19:53.000Z</time>
      </trkpt>
      <trkpt lat="42.51458667" lon="-8.00923167">
        <ele>564.0</ele>
        <time>2018-10-03T11:19:54.000Z</time>
      </trkpt>
      <trkpt lat="42.51460333" lon="-8.00923">
        <ele>564.0</ele>
        <time>2018-10-03T11:19:55.000Z</time>
      </trkpt>
      <trkpt lat="42.51462" lon="-8.00923167">
        <ele>564.0</ele>
        <time>2018-10-03T11:19:56.000Z</time>
      </trkpt>
      <trkpt lat="42.514635" lon="-8.00923167">
        <ele>564.0</ele>
        <time>2018-10-03T11:19:57.000Z</time>
      </trkpt>
      <trkpt lat="42.51465" lon="-8.00923167">
        <ele>564.0</ele>
        <time>2018-10-03T11:19:58.000Z</time>
      </trkpt>
      <trkpt lat="42.51466667" lon="-8.00923333">
        <ele>564.0</ele>
        <time>2018-10-03T11:19:59.000Z</time>
      </trkpt>
      <trkpt lat="42.51468333" lon="-8.00923167">
        <ele>564.0</ele>
        <time>2018-10-03T11:20:00.000Z</time>
      </trkpt>
      <trkpt lat="42.5147" lon="-8.00923">
        <ele>564.0</ele>
        <time>2018-10-03T11:20:01.000Z</time>
      </trkpt>
      <trkpt lat="42.51471833" lon="-8.00923">
        <ele>564.0</ele>
        <time>2018-10-03T11:20:02.000Z</time>
      </trkpt>
      <trkpt lat="42.51473667" lon="-8.00923">
        <ele>565.0</ele>
        <time>2018-10-03T11:20:03.000Z</time>
      </trkpt>
      <trkpt lat="42.514755" lon="-8.00922833">
        <ele>565.0</ele>
        <time>2018-10-03T11:20:04.000Z</time>
      </trkpt>
      <trkpt lat="42.51477167" lon="-8.00922833">
        <ele>565.0</ele>
        <time>2018-10-03T11:20:05.000Z</time>
      </trkpt>
      <trkpt lat="42.51478833" lon="-8.00922667">
        <ele>565.0</ele>
        <time>2018-10-03T11:20:06.000Z</time>
      </trkpt>
      <trkpt lat="42.51480333" lon="-8.00922667">
        <ele>565.0</ele>
        <time>2018-10-03T11:20:07.000Z</time>
      </trkpt>
      <trkpt lat="42.51481833" lon="-8.009225">
        <ele>565.0</ele>
        <time>2018-10-03T11:20:08.000Z</time>
      </trkpt>
      <trkpt lat="42.514835" lon="-8.00922167">
        <ele>565.0</ele>
        <time>2018-10-03T11:20:09.000Z</time>
      </trkpt>
      <trkpt lat="42.51485" lon="-8.00922">
        <ele>564.0</ele>
        <time>2018-10-03T11:20:10.000Z</time>
      </trkpt>
      <trkpt lat="42.51486667" lon="-8.00922167">
        <ele>564.0</ele>
        <time>2018-10-03T11:20:11.000Z</time>
      </trkpt>
      <trkpt lat="42.51488333" lon="-8.00922">
        <ele>564.0</ele>
        <time>2018-10-03T11:20:12.000Z</time>
      </trkpt>
      <trkpt lat="42.51490167" lon="-8.00921833">
        <ele>564.0</ele>
        <time>2018-10-03T11:20:13.000Z</time>
      </trkpt>
      <trkpt lat="42.514915" lon="-8.00921667">
        <ele>564.0</ele>
        <time>2018-10-03T11:20:14.000Z</time>
      </trkpt>
      <trkpt lat="42.51493" lon="-8.00921833">
        <ele>564.0</ele>
        <time>2018-10-03T11:20:15.000Z</time>
      </trkpt>
      <trkpt lat="42.51494333" lon="-8.00921667">
        <ele>564.0</ele>
        <time>2018-10-03T11:20:16.000Z</time>
      </trkpt>
      <trkpt lat="42.51495667" lon="-8.009215">
        <ele>564.0</ele>
        <time>2018-10-03T11:20:17.000Z</time>
      </trkpt>
      <trkpt lat="42.51496833" lon="-8.00921">
        <ele>564.0</ele>
        <time>2018-10-03T11:20:18.000Z</time>
      </trkpt>
      <trkpt lat="42.51498167" lon="-8.00920667">
        <ele>564.0</ele>
        <time>2018-10-03T11:20:19.000Z</time>
      </trkpt>
      <trkpt lat="42.51499667" lon="-8.009205">
        <ele>564.0</ele>
        <time>2018-10-03T11:20:20.000Z</time>
      </trkpt>
      <trkpt lat="42.51501333" lon="-8.00920167">
        <ele>564.0</ele>
        <time>2018-10-03T11:20:21.000Z</time>
      </trkpt>
      <trkpt lat="42.51503167" lon="-8.00920167">
        <ele>564.0</ele>
        <time>2018-10-03T11:20:22.000Z</time>
      </trkpt>
      <trkpt lat="42.51504833" lon="-8.00920333">
        <ele>564.0</ele>
        <time>2018-10-03T11:20:23.000Z</time>
      </trkpt>
      <trkpt lat="42.51506333" lon="-8.00920333">
        <ele>564.0</ele>
        <time>2018-10-03T11:20:24.000Z</time>
      </trkpt>
      <trkpt lat="42.51507833" lon="-8.00920333">
        <ele>564.0</ele>
        <time>2018-10-03T11:20:25.000Z</time>
      </trkpt>
      <trkpt lat="42.515095" lon="-8.009205">
        <ele>564.0</ele>
        <time>2018-10-03T11:20:26.000Z</time>
      </trkpt>
      <trkpt lat="42.51511" lon="-8.00920667">
        <ele>564.0</ele>
        <time>2018-10-03T11:20:27.000Z</time>
      </trkpt>
      <trkpt lat="42.51512667" lon="-8.00920667">
        <ele>564.0</ele>
        <time>2018-10-03T11:20:28.000Z</time>
      </trkpt>
      <trkpt lat="42.51514333" lon="-8.00920833">
        <ele>564.0</ele>
        <time>2018-10-03T11:20:29.000Z</time>
      </trkpt>
      <trkpt lat="42.51516" lon="-8.00920833">
        <ele>564.0</ele>
        <time>2018-10-03T11:20:30.000Z</time>
      </trkpt>
      <trkpt lat="42.51517833" lon="-8.00920667">
        <ele>564.0</ele>
        <time>2018-10-03T11:20:31.000Z</time>
      </trkpt>
      <trkpt lat="42.51519667" lon="-8.009205">
        <ele>564.0</ele>
        <time>2018-10-03T11:20:32.000Z</time>
      </trkpt>
      <trkpt lat="42.515215" lon="-8.00920333">
        <ele>564.0</ele>
        <time>2018-10-03T11:20:33.000Z</time>
      </trkpt>
      <trkpt lat="42.51523167" lon="-8.00920333">
        <ele>564.0</ele>
        <time>2018-10-03T11:20:34.000Z</time>
      </trkpt>
      <trkpt lat="42.51524833" lon="-8.0092">
        <ele>565.0</ele>
        <time>2018-10-03T11:20:35.000Z</time>
      </trkpt>
      <trkpt lat="42.515265" lon="-8.0092">
        <ele>565.0</ele>
        <time>2018-10-03T11:20:36.000Z</time>
      </trkpt>
      <trkpt lat="42.51528167" lon="-8.0092">
        <ele>565.0</ele>
        <time>2018-10-03T11:20:37.000Z</time>
      </trkpt>
      <trkpt lat="42.51529833" lon="-8.0092">
        <ele>565.0</ele>
        <time>2018-10-03T11:20:38.000Z</time>
      </trkpt>
      <trkpt lat="42.51531667" lon="-8.0092">
        <ele>565.0</ele>
        <time>2018-10-03T11:20:39.000Z</time>
      </trkpt>
      <trkpt lat="42.51533667" lon="-8.0092">
        <ele>565.0</ele>
        <time>2018-10-03T11:20:40.000Z</time>
      </trkpt>
      <trkpt lat="42.51535333" lon="-8.0092">
        <ele>565.0</ele>
        <time>2018-10-03T11:20:41.000Z</time>
      </trkpt>
      <trkpt lat="42.51537" lon="-8.0092">
        <ele>565.0</ele>
        <time>2018-10-03T11:20:42.000Z</time>
      </trkpt>
      <trkpt lat="42.51538833" lon="-8.00919833">
        <ele>565.0</ele>
        <time>2018-10-03T11:20:43.000Z</time>
      </trkpt>
      <trkpt lat="42.51540667" lon="-8.00919667">
        <ele>565.0</ele>
        <time>2018-10-03T11:20:44.000Z</time>
      </trkpt>
      <trkpt lat="42.515425" lon="-8.009195">
        <ele>565.0</ele>
        <time>2018-10-03T11:20:45.000Z</time>
      </trkpt>
      <trkpt lat="42.51544167" lon="-8.00919167">
        <ele>565.0</ele>
        <time>2018-10-03T11:20:46.000Z</time>
      </trkpt>
      <trkpt lat="42.51546" lon="-8.00919">
        <ele>565.0</ele>
        <time>2018-10-03T11:20:47.000Z</time>
      </trkpt>
      <trkpt lat="42.51547667" lon="-8.00918667">
        <ele>564.0</ele>
        <time>2018-10-03T11:20:48.000Z</time>
      </trkpt>
      <trkpt lat="42.51549333" lon="-8.00918333">
        <ele>564.0</ele>
        <time>2018-10-03T11:20:49.000Z</time>
      </trkpt>
      <trkpt lat="42.51551" lon="-8.00918167">
        <ele>564.0</ele>
        <time>2018-10-03T11:20:50.000Z</time>
      </trkpt>
      <trkpt lat="42.51552667" lon="-8.00917833">
        <ele>564.0</ele>
        <time>2018-10-03T11:20:51.000Z</time>
      </trkpt>
      <trkpt lat="42.51554333" lon="-8.009175">
        <ele>564.0</ele>
        <time>2018-10-03T11:20:52.000Z</time>
      </trkpt>
      <trkpt lat="42.51556" lon="-8.00917167">
        <ele>564.0</ele>
        <time>2018-10-03T11:20:53.000Z</time>
      </trkpt>
      <trkpt lat="42.515575" lon="-8.00917">
        <ele>563.0</ele>
        <time>2018-10-03T11:20:54.000Z</time>
      </trkpt>
      <trkpt lat="42.51559167" lon="-8.00916833">
        <ele>563.0</ele>
        <time>2018-10-03T11:20:55.000Z</time>
      </trkpt>
      <trkpt lat="42.51560667" lon="-8.00916667">
        <ele>563.0</ele>
        <time>2018-10-03T11:20:56.000Z</time>
      </trkpt>
      <trkpt lat="42.51562167" lon="-8.009165">
        <ele>563.0</ele>
        <time>2018-10-03T11:20:57.000Z</time>
      </trkpt>
      <trkpt lat="42.515635" lon="-8.00916333">
        <ele>562.0</ele>
        <time>2018-10-03T11:20:58.000Z</time>
      </trkpt>
      <trkpt lat="42.51565" lon="-8.00916">
        <ele>562.0</ele>
        <time>2018-10-03T11:20:59.000Z</time>
      </trkpt>
      <trkpt lat="42.51566667" lon="-8.00915833">
        <ele>562.0</ele>
        <time>2018-10-03T11:21:00.000Z</time>
      </trkpt>
      <trkpt lat="42.51568333" lon="-8.009155">
        <ele>562.0</ele>
        <time>2018-10-03T11:21:01.000Z</time>
      </trkpt>
      <trkpt lat="42.5157" lon="-8.00915167">
        <ele>561.0</ele>
        <time>2018-10-03T11:21:02.000Z</time>
      </trkpt>
      <trkpt lat="42.51571667" lon="-8.00914833">
        <ele>561.0</ele>
        <time>2018-10-03T11:21:03.000Z</time>
      </trkpt>
      <trkpt lat="42.51573333" lon="-8.00914333">
        <ele>561.0</ele>
        <time>2018-10-03T11:21:04.000Z</time>
      </trkpt>
      <trkpt lat="42.51574833" lon="-8.00914167">
        <ele>561.0</ele>
        <time>2018-10-03T11:21:05.000Z</time>
      </trkpt>
      <trkpt lat="42.51576167" lon="-8.00914">
        <ele>561.0</ele>
        <time>2018-10-03T11:21:06.000Z</time>
      </trkpt>
      <trkpt lat="42.51577833" lon="-8.00913667">
        <ele>561.0</ele>
        <time>2018-10-03T11:21:07.000Z</time>
      </trkpt>
      <trkpt lat="42.51579333" lon="-8.009135">
        <ele>561.0</ele>
        <time>2018-10-03T11:21:08.000Z</time>
      </trkpt>
      <trkpt lat="42.51581167" lon="-8.00913">
        <ele>561.0</ele>
        <time>2018-10-03T11:21:09.000Z</time>
      </trkpt>
      <trkpt lat="42.51582833" lon="-8.009125">
        <ele>561.0</ele>
        <time>2018-10-03T11:21:10.000Z</time>
      </trkpt>
      <trkpt lat="42.51584667" lon="-8.00912">
        <ele>561.0</ele>
        <time>2018-10-03T11:21:11.000Z</time>
      </trkpt>
      <trkpt lat="42.51586333" lon="-8.00911333">
        <ele>561.0</ele>
        <time>2018-10-03T11:21:12.000Z</time>
      </trkpt>
      <trkpt lat="42.51588" lon="-8.00910667">
        <ele>561.0</ele>
        <time>2018-10-03T11:21:13.000Z</time>
      </trkpt>
      <trkpt lat="42.51589667" lon="-8.00910167">
        <ele>561.0</ele>
        <time>2018-10-03T11:21:14.000Z</time>
      </trkpt>
      <trkpt lat="42.51591167" lon="-8.00909833">
        <ele>561.0</ele>
        <time>2018-10-03T11:21:15.000Z</time>
      </trkpt>
      <trkpt lat="42.51592667" lon="-8.009095">
        <ele>561.0</ele>
        <time>2018-10-03T11:21:16.000Z</time>
      </trkpt>
      <trkpt lat="42.51594333" lon="-8.00909">
        <ele>560.0</ele>
        <time>2018-10-03T11:21:17.000Z</time>
      </trkpt>
      <trkpt lat="42.51596" lon="-8.009085">
        <ele>560.0</ele>
        <time>2018-10-03T11:21:18.000Z</time>
      </trkpt>
      <trkpt lat="42.51597667" lon="-8.00908">
        <ele>560.0</ele>
        <time>2018-10-03T11:21:19.000Z</time>
      </trkpt>
      <trkpt lat="42.51599167" lon="-8.00907167">
        <ele>560.0</ele>
        <time>2018-10-03T11:21:20.000Z</time>
      </trkpt>
      <trkpt lat="42.51600833" lon="-8.00906167">
        <ele>560.0</ele>
        <time>2018-10-03T11:21:21.000Z</time>
      </trkpt>
      <trkpt lat="42.516025" lon="-8.009055">
        <ele>560.0</ele>
        <time>2018-10-03T11:21:22.000Z</time>
      </trkpt>
      <trkpt lat="42.51604" lon="-8.00904833">
        <ele>559.0</ele>
        <time>2018-10-03T11:21:23.000Z</time>
      </trkpt>
      <trkpt lat="42.516055" lon="-8.00904333">
        <ele>559.0</ele>
        <time>2018-10-03T11:21:24.000Z</time>
      </trkpt>
      <trkpt lat="42.51607" lon="-8.00903667">
        <ele>559.0</ele>
        <time>2018-10-03T11:21:25.000Z</time>
      </trkpt>
      <trkpt lat="42.516085" lon="-8.00903167">
        <ele>559.0</ele>
        <time>2018-10-03T11:21:26.000Z</time>
      </trkpt>
      <trkpt lat="42.51610167" lon="-8.00902667">
        <ele>558.0</ele>
        <time>2018-10-03T11:21:27.000Z</time>
      </trkpt>
      <trkpt lat="42.51612" lon="-8.00902">
        <ele>558.0</ele>
        <time>2018-10-03T11:21:28.000Z</time>
      </trkpt>
      <trkpt lat="42.51613833" lon="-8.009015">
        <ele>558.0</ele>
        <time>2018-10-03T11:21:29.000Z</time>
      </trkpt>
      <trkpt lat="42.516155" lon="-8.00901">
        <ele>558.0</ele>
        <time>2018-10-03T11:21:30.000Z</time>
      </trkpt>
      <trkpt lat="42.51617167" lon="-8.009005">
        <ele>558.0</ele>
        <time>2018-10-03T11:21:31.000Z</time>
      </trkpt>
      <trkpt lat="42.51618667" lon="-8.009">
        <ele>558.0</ele>
        <time>2018-10-03T11:21:32.000Z</time>
      </trkpt>
      <trkpt lat="42.51620167" lon="-8.00899333">
        <ele>558.0</ele>
        <time>2018-10-03T11:21:33.000Z</time>
      </trkpt>
      <trkpt lat="42.51621667" lon="-8.00898833">
        <ele>557.0</ele>
        <time>2018-10-03T11:21:34.000Z</time>
      </trkpt>
      <trkpt lat="42.51623167" lon="-8.00898167">
        <ele>557.0</ele>
        <time>2018-10-03T11:21:35.000Z</time>
      </trkpt>
      <trkpt lat="42.51624833" lon="-8.00897667">
        <ele>557.0</ele>
        <time>2018-10-03T11:21:36.000Z</time>
      </trkpt>
      <trkpt lat="42.516265" lon="-8.00897">
        <ele>557.0</ele>
        <time>2018-10-03T11:21:37.000Z</time>
      </trkpt>
      <trkpt lat="42.51628167" lon="-8.00896167">
        <ele>556.0</ele>
        <time>2018-10-03T11:21:38.000Z</time>
      </trkpt>
      <trkpt lat="42.51629833" lon="-8.008955">
        <ele>556.0</ele>
        <time>2018-10-03T11:21:39.000Z</time>
      </trkpt>
      <trkpt lat="42.51631167" lon="-8.00894833">
        <ele>556.0</ele>
        <time>2018-10-03T11:21:40.000Z</time>
      </trkpt>
      <trkpt lat="42.51632667" lon="-8.00894333">
        <ele>556.0</ele>
        <time>2018-10-03T11:21:41.000Z</time>
      </trkpt>
      <trkpt lat="42.51634167" lon="-8.00893833">
        <ele>556.0</ele>
        <time>2018-10-03T11:21:42.000Z</time>
      </trkpt>
      <trkpt lat="42.51635667" lon="-8.00893333">
        <ele>555.0</ele>
        <time>2018-10-03T11:21:43.000Z</time>
      </trkpt>
      <trkpt lat="42.51636833" lon="-8.00893">
        <ele>555.0</ele>
        <time>2018-10-03T11:21:44.000Z</time>
      </trkpt>
      <trkpt lat="42.51638167" lon="-8.008925">
        <ele>555.0</ele>
        <time>2018-10-03T11:21:45.000Z</time>
      </trkpt>
      <trkpt lat="42.516395" lon="-8.00892">
        <ele>555.0</ele>
        <time>2018-10-03T11:21:46.000Z</time>
      </trkpt>
      <trkpt lat="42.51641" lon="-8.00891333">
        <ele>554.0</ele>
        <time>2018-10-03T11:21:47.000Z</time>
      </trkpt>
      <trkpt lat="42.516425" lon="-8.00890333">
        <ele>554.0</ele>
        <time>2018-10-03T11:21:48.000Z</time>
      </trkpt>
      <trkpt lat="42.51644167" lon="-8.00889667">
        <ele>554.0</ele>
        <time>2018-10-03T11:21:49.000Z</time>
      </trkpt>
      <trkpt lat="42.51645833" lon="-8.00888833">
        <ele>554.0</ele>
        <time>2018-10-03T11:21:50.000Z</time>
      </trkpt>
      <trkpt lat="42.51647167" lon="-8.00888167">
        <ele>554.0</ele>
        <time>2018-10-03T11:21:51.000Z</time>
      </trkpt>
      <trkpt lat="42.51648667" lon="-8.008875">
        <ele>553.0</ele>
        <time>2018-10-03T11:21:52.000Z</time>
      </trkpt>
      <trkpt lat="42.516505" lon="-8.00886333">
        <ele>553.0</ele>
        <time>2018-10-03T11:21:53.000Z</time>
      </trkpt>
      <trkpt lat="42.51652167" lon="-8.008855">
        <ele>553.0</ele>
        <time>2018-10-03T11:21:54.000Z</time>
      </trkpt>
      <trkpt lat="42.51653833" lon="-8.00884667">
        <ele>553.0</ele>
        <time>2018-10-03T11:21:55.000Z</time>
      </trkpt>
      <trkpt lat="42.51655333" lon="-8.00883833">
        <ele>552.0</ele>
        <time>2018-10-03T11:21:56.000Z</time>
      </trkpt>
      <trkpt lat="42.51657" lon="-8.00883">
        <ele>552.0</ele>
        <time>2018-10-03T11:21:57.000Z</time>
      </trkpt>
      <trkpt lat="42.516585" lon="-8.00882167">
        <ele>552.0</ele>
        <time>2018-10-03T11:21:58.000Z</time>
      </trkpt>
      <trkpt lat="42.51659833" lon="-8.00881667">
        <ele>552.0</ele>
        <time>2018-10-03T11:21:59.000Z</time>
      </trkpt>
      <trkpt lat="42.51661167" lon="-8.00881167">
        <ele>552.0</ele>
        <time>2018-10-03T11:22:00.000Z</time>
      </trkpt>
      <trkpt lat="42.51662667" lon="-8.00880667">
        <ele>551.0</ele>
        <time>2018-10-03T11:22:01.000Z</time>
      </trkpt>
      <trkpt lat="42.51664333" lon="-8.0088">
        <ele>551.0</ele>
        <time>2018-10-03T11:22:02.000Z</time>
      </trkpt>
      <trkpt lat="42.51666167" lon="-8.00879167">
        <ele>551.0</ele>
        <time>2018-10-03T11:22:03.000Z</time>
      </trkpt>
      <trkpt lat="42.51668" lon="-8.008785">
        <ele>551.0</ele>
        <time>2018-10-03T11:22:04.000Z</time>
      </trkpt>
      <trkpt lat="42.51669833" lon="-8.00878">
        <ele>551.0</ele>
        <time>2018-10-03T11:22:05.000Z</time>
      </trkpt>
      <trkpt lat="42.51671667" lon="-8.00877667">
        <ele>551.0</ele>
        <time>2018-10-03T11:22:06.000Z</time>
      </trkpt>
      <trkpt lat="42.51673333" lon="-8.00877167">
        <ele>551.0</ele>
        <time>2018-10-03T11:22:07.000Z</time>
      </trkpt>
      <trkpt lat="42.51674667" lon="-8.00876833">
        <ele>552.0</ele>
        <time>2018-10-03T11:22:08.000Z</time>
      </trkpt>
      <trkpt lat="42.51676" lon="-8.008765">
        <ele>552.0</ele>
        <time>2018-10-03T11:22:09.000Z</time>
      </trkpt>
      <trkpt lat="42.51677167" lon="-8.00876167">
        <ele>552.0</ele>
        <time>2018-10-03T11:22:10.000Z</time>
      </trkpt>
      <trkpt lat="42.51678167" lon="-8.00875667">
        <ele>552.0</ele>
        <time>2018-10-03T11:22:11.000Z</time>
      </trkpt>
      <trkpt lat="42.51679333" lon="-8.00875333">
        <ele>552.0</ele>
        <time>2018-10-03T11:22:12.000Z</time>
      </trkpt>
      <trkpt lat="42.51680667" lon="-8.00874833">
        <ele>551.0</ele>
        <time>2018-10-03T11:22:13.000Z</time>
      </trkpt>
      <trkpt lat="42.51681667" lon="-8.00874667">
        <ele>551.0</ele>
        <time>2018-10-03T11:22:14.000Z</time>
      </trkpt>
      <trkpt lat="42.516825" lon="-8.008745">
        <ele>551.0</ele>
        <time>2018-10-03T11:22:15.000Z</time>
      </trkpt>
      <trkpt lat="42.51682667" lon="-8.008745">
        <ele>552.0</ele>
        <time>2018-10-03T11:22:16.000Z</time>
      </trkpt>
      <trkpt lat="42.51682833" lon="-8.00874667">
        <ele>552.0</ele>
        <time>2018-10-03T11:22:17.000Z</time>
      </trkpt>
      <trkpt lat="42.51682833" lon="-8.00874667">
        <ele>552.0</ele>
        <time>2018-10-03T11:22:18.000Z</time>
      </trkpt>
      <trkpt lat="42.51683" lon="-8.00874667">
        <ele>552.0</ele>
        <time>2018-10-03T11:22:19.000Z</time>
      </trkpt>
      <trkpt lat="42.51683667" lon="-8.00874667">
        <ele>552.0</ele>
        <time>2018-10-03T11:22:20.000Z</time>
      </trkpt>
      <trkpt lat="42.51684833" lon="-8.00874167">
        <ele>552.0</ele>
        <time>2018-10-03T11:22:21.000Z</time>
      </trkpt>
      <trkpt lat="42.51686167" lon="-8.008735">
        <ele>551.0</ele>
        <time>2018-10-03T11:22:22.000Z</time>
      </trkpt>
      <trkpt lat="42.516875" lon="-8.00873167">
        <ele>551.0</ele>
        <time>2018-10-03T11:22:23.000Z</time>
      </trkpt>
      <trkpt lat="42.51688833" lon="-8.00872667">
        <ele>551.0</ele>
        <time>2018-10-03T11:22:24.000Z</time>
      </trkpt>
      <trkpt lat="42.51690167" lon="-8.00872333">
        <ele>551.0</ele>
        <time>2018-10-03T11:22:25.000Z</time>
      </trkpt>
      <trkpt lat="42.516915" lon="-8.00872">
        <ele>551.0</ele>
        <time>2018-10-03T11:22:26.000Z</time>
      </trkpt>
      <trkpt lat="42.51692833" lon="-8.00872">
        <ele>551.0</ele>
        <time>2018-10-03T11:22:27.000Z</time>
      </trkpt>
      <trkpt lat="42.51694167" lon="-8.00872167">
        <ele>551.0</ele>
        <time>2018-10-03T11:22:28.000Z</time>
      </trkpt>
      <trkpt lat="42.51695333" lon="-8.00872167">
        <ele>551.0</ele>
        <time>2018-10-03T11:22:29.000Z</time>
      </trkpt>
      <trkpt lat="42.51696833" lon="-8.008725">
        <ele>551.0</ele>
        <time>2018-10-03T11:22:30.000Z</time>
      </trkpt>
      <trkpt lat="42.51698333" lon="-8.00872833">
        <ele>552.0</ele>
        <time>2018-10-03T11:22:31.000Z</time>
      </trkpt>
      <trkpt lat="42.51699833" lon="-8.00872833">
        <ele>552.0</ele>
        <time>2018-10-03T11:22:32.000Z</time>
      </trkpt>
      <trkpt lat="42.51701167" lon="-8.00873">
        <ele>552.0</ele>
        <time>2018-10-03T11:22:33.000Z</time>
      </trkpt>
      <trkpt lat="42.51702667" lon="-8.00873">
        <ele>552.0</ele>
        <time>2018-10-03T11:22:34.000Z</time>
      </trkpt>
      <trkpt lat="42.51703833" lon="-8.00873167">
        <ele>552.0</ele>
        <time>2018-10-03T11:22:35.000Z</time>
      </trkpt>
      <trkpt lat="42.51705167" lon="-8.00873333">
        <ele>552.0</ele>
        <time>2018-10-03T11:22:36.000Z</time>
      </trkpt>
      <trkpt lat="42.51706667" lon="-8.00873667">
        <ele>552.0</ele>
        <time>2018-10-03T11:22:37.000Z</time>
      </trkpt>
      <trkpt lat="42.51708167" lon="-8.00873833">
        <ele>552.0</ele>
        <time>2018-10-03T11:22:38.000Z</time>
      </trkpt>
      <trkpt lat="42.51709667" lon="-8.00874">
        <ele>552.0</ele>
        <time>2018-10-03T11:22:39.000Z</time>
      </trkpt>
      <trkpt lat="42.51711167" lon="-8.00874333">
        <ele>552.0</ele>
        <time>2018-10-03T11:22:40.000Z</time>
      </trkpt>
      <trkpt lat="42.51712333" lon="-8.008745">
        <ele>551.0</ele>
        <time>2018-10-03T11:22:41.000Z</time>
      </trkpt>
      <trkpt lat="42.517135" lon="-8.00874667">
        <ele>551.0</ele>
        <time>2018-10-03T11:22:42.000Z</time>
      </trkpt>
      <trkpt lat="42.517145" lon="-8.008745">
        <ele>551.0</ele>
        <time>2018-10-03T11:22:43.000Z</time>
      </trkpt>
      <trkpt lat="42.51715667" lon="-8.00874333">
        <ele>551.0</ele>
        <time>2018-10-03T11:22:44.000Z</time>
      </trkpt>
      <trkpt lat="42.51716833" lon="-8.008745">
        <ele>551.0</ele>
        <time>2018-10-03T11:22:45.000Z</time>
      </trkpt>
      <trkpt lat="42.51718167" lon="-8.00874833">
        <ele>551.0</ele>
        <time>2018-10-03T11:22:46.000Z</time>
      </trkpt>
      <trkpt lat="42.51719333" lon="-8.00875333">
        <ele>551.0</ele>
        <time>2018-10-03T11:22:47.000Z</time>
      </trkpt>
      <trkpt lat="42.51720667" lon="-8.00876">
        <ele>551.0</ele>
        <time>2018-10-03T11:22:48.000Z</time>
      </trkpt>
      <trkpt lat="42.51721667" lon="-8.00876667">
        <ele>551.0</ele>
        <time>2018-10-03T11:22:49.000Z</time>
      </trkpt>
      <trkpt lat="42.51722667" lon="-8.00877667">
        <ele>551.0</ele>
        <time>2018-10-03T11:22:50.000Z</time>
      </trkpt>
      <trkpt lat="42.51723667" lon="-8.00879">
        <ele>551.0</ele>
        <time>2018-10-03T11:22:51.000Z</time>
      </trkpt>
      <trkpt lat="42.51724833" lon="-8.00880333">
        <ele>551.0</ele>
        <time>2018-10-03T11:22:52.000Z</time>
      </trkpt>
      <trkpt lat="42.51726167" lon="-8.00881667">
        <ele>551.0</ele>
        <time>2018-10-03T11:22:53.000Z</time>
      </trkpt>
      <trkpt lat="42.51727333" lon="-8.00883">
        <ele>551.0</ele>
        <time>2018-10-03T11:22:54.000Z</time>
      </trkpt>
      <trkpt lat="42.51728667" lon="-8.00884">
        <ele>551.0</ele>
        <time>2018-10-03T11:22:55.000Z</time>
      </trkpt>
      <trkpt lat="42.51729833" lon="-8.00885167">
        <ele>551.0</ele>
        <time>2018-10-03T11:22:56.000Z</time>
      </trkpt>
      <trkpt lat="42.51731" lon="-8.008865">
        <ele>551.0</ele>
        <time>2018-10-03T11:22:57.000Z</time>
      </trkpt>
      <trkpt lat="42.51732167" lon="-8.00888">
        <ele>551.0</ele>
        <time>2018-10-03T11:22:58.000Z</time>
      </trkpt>
      <trkpt lat="42.51733167" lon="-8.008895">
        <ele>552.0</ele>
        <time>2018-10-03T11:22:59.000Z</time>
      </trkpt>
      <trkpt lat="42.517345" lon="-8.00891">
        <ele>552.0</ele>
        <time>2018-10-03T11:23:00.000Z</time>
      </trkpt>
      <trkpt lat="42.51735667" lon="-8.00892667">
        <ele>552.0</ele>
        <time>2018-10-03T11:23:01.000Z</time>
      </trkpt>
      <trkpt lat="42.51736667" lon="-8.00894167">
        <ele>552.0</ele>
        <time>2018-10-03T11:23:02.000Z</time>
      </trkpt>
      <trkpt lat="42.51737333" lon="-8.00895833">
        <ele>551.0</ele>
        <time>2018-10-03T11:23:03.000Z</time>
      </trkpt>
      <trkpt lat="42.51737833" lon="-8.00897667">
        <ele>551.0</ele>
        <time>2018-10-03T11:23:04.000Z</time>
      </trkpt>
      <trkpt lat="42.51738667" lon="-8.00899167">
        <ele>551.0</ele>
        <time>2018-10-03T11:23:05.000Z</time>
      </trkpt>
      <trkpt lat="42.51739333" lon="-8.00901">
        <ele>551.0</ele>
        <time>2018-10-03T11:23:06.000Z</time>
      </trkpt>
      <trkpt lat="42.5174" lon="-8.00902667">
        <ele>551.0</ele>
        <time>2018-10-03T11:23:07.000Z</time>
      </trkpt>
      <trkpt lat="42.51741" lon="-8.00904667">
        <ele>550.0</ele>
        <time>2018-10-03T11:23:08.000Z</time>
      </trkpt>
      <trkpt lat="42.517415" lon="-8.009065">
        <ele>550.0</ele>
        <time>2018-10-03T11:23:09.000Z</time>
      </trkpt>
      <trkpt lat="42.51741667" lon="-8.00908">
        <ele>550.0</ele>
        <time>2018-10-03T11:23:10.000Z</time>
      </trkpt>
      <trkpt lat="42.51742" lon="-8.00909667">
        <ele>550.0</ele>
        <time>2018-10-03T11:23:11.000Z</time>
      </trkpt>
      <trkpt lat="42.51742333" lon="-8.009115">
        <ele>549.0</ele>
        <time>2018-10-03T11:23:12.000Z</time>
      </trkpt>
      <trkpt lat="42.51742333" lon="-8.00913667">
        <ele>549.0</ele>
        <time>2018-10-03T11:23:13.000Z</time>
      </trkpt>
      <trkpt lat="42.51742167" lon="-8.00916167">
        <ele>549.0</ele>
        <time>2018-10-03T11:23:14.000Z</time>
      </trkpt>
      <trkpt lat="42.51742167" lon="-8.00918333">
        <ele>549.0</ele>
        <time>2018-10-03T11:23:15.000Z</time>
      </trkpt>
      <trkpt lat="42.51741833" lon="-8.0092">
        <ele>548.0</ele>
        <time>2018-10-03T11:23:16.000Z</time>
      </trkpt>
      <trkpt lat="42.517415" lon="-8.00920667">
        <ele>548.0</ele>
        <time>2018-10-03T11:23:17.000Z</time>
      </trkpt>
      <trkpt lat="42.51741" lon="-8.00921167">
        <ele>548.0</ele>
        <time>2018-10-03T11:23:18.000Z</time>
      </trkpt>
      <trkpt lat="42.51740667" lon="-8.00921333">
        <ele>548.0</ele>
        <time>2018-10-03T11:23:19.000Z</time>
      </trkpt>
      <trkpt lat="42.51740333" lon="-8.00922">
        <ele>548.0</ele>
        <time>2018-10-03T11:23:20.000Z</time>
      </trkpt>
      <trkpt lat="42.51739833" lon="-8.00923333">
        <ele>548.0</ele>
        <time>2018-10-03T11:23:21.000Z</time>
      </trkpt>
      <trkpt lat="42.51739667" lon="-8.00925">
        <ele>548.0</ele>
        <time>2018-10-03T11:23:22.000Z</time>
      </trkpt>
      <trkpt lat="42.51739167" lon="-8.00926833">
        <ele>547.0</ele>
        <time>2018-10-03T11:23:23.000Z</time>
      </trkpt>
      <trkpt lat="42.51738667" lon="-8.00929">
        <ele>547.0</ele>
        <time>2018-10-03T11:23:24.000Z</time>
      </trkpt>
      <trkpt lat="42.51738" lon="-8.00931167">
        <ele>547.0</ele>
        <time>2018-10-03T11:23:25.000Z</time>
      </trkpt>
      <trkpt lat="42.51737333" lon="-8.00933333">
        <ele>547.0</ele>
        <time>2018-10-03T11:23:26.000Z</time>
      </trkpt>
      <trkpt lat="42.51736667" lon="-8.00935167">
        <ele>547.0</ele>
        <time>2018-10-03T11:23:27.000Z</time>
      </trkpt>
      <trkpt lat="42.51736167" lon="-8.00936833">
        <ele>547.0</ele>
        <time>2018-10-03T11:23:28.000Z</time>
      </trkpt>
      <trkpt lat="42.51735667" lon="-8.00938">
        <ele>547.0</ele>
        <time>2018-10-03T11:23:29.000Z</time>
      </trkpt>
      <trkpt lat="42.51735333" lon="-8.00939167">
        <ele>547.0</ele>
        <time>2018-10-03T11:23:30.000Z</time>
      </trkpt>
      <trkpt lat="42.51735167" lon="-8.00940333">
        <ele>546.0</ele>
        <time>2018-10-03T11:23:31.000Z</time>
      </trkpt>
      <trkpt lat="42.51734833" lon="-8.00942">
        <ele>546.0</ele>
        <time>2018-10-03T11:23:32.000Z</time>
      </trkpt>
      <trkpt lat="42.51734167" lon="-8.00944">
        <ele>546.0</ele>
        <time>2018-10-03T11:23:33.000Z</time>
      </trkpt>
      <trkpt lat="42.517335" lon="-8.009475">
        <ele>546.0</ele>
        <time>2018-10-03T11:23:34.000Z</time>
      </trkpt>
      <trkpt lat="42.51733333" lon="-8.00950167">
        <ele>546.0</ele>
        <time>2018-10-03T11:23:35.000Z</time>
      </trkpt>
      <trkpt lat="42.517335" lon="-8.00953167">
        <ele>546.0</ele>
        <time>2018-10-03T11:23:36.000Z</time>
      </trkpt>
      <trkpt lat="42.517335" lon="-8.00956">
        <ele>546.0</ele>
        <time>2018-10-03T11:23:37.000Z</time>
      </trkpt>
      <trkpt lat="42.51733" lon="-8.00957833">
        <ele>546.0</ele>
        <time>2018-10-03T11:23:38.000Z</time>
      </trkpt>
      <trkpt lat="42.51732833" lon="-8.0096">
        <ele>547.0</ele>
        <time>2018-10-03T11:23:39.000Z</time>
      </trkpt>
      <trkpt lat="42.51732667" lon="-8.00962">
        <ele>547.0</ele>
        <time>2018-10-03T11:23:40.000Z</time>
      </trkpt>
      <trkpt lat="42.51732333" lon="-8.00963667">
        <ele>547.0</ele>
        <time>2018-10-03T11:23:41.000Z</time>
      </trkpt>
      <trkpt lat="42.51732" lon="-8.009655">
        <ele>547.0</ele>
        <time>2018-10-03T11:23:42.000Z</time>
      </trkpt>
      <trkpt lat="42.517315" lon="-8.00967167">
        <ele>547.0</ele>
        <time>2018-10-03T11:23:43.000Z</time>
      </trkpt>
      <trkpt lat="42.51731167" lon="-8.00969167">
        <ele>548.0</ele>
        <time>2018-10-03T11:23:44.000Z</time>
      </trkpt>
      <trkpt lat="42.51730833" lon="-8.00971">
        <ele>548.0</ele>
        <time>2018-10-03T11:23:45.000Z</time>
      </trkpt>
      <trkpt lat="42.51730333" lon="-8.00973">
        <ele>548.0</ele>
        <time>2018-10-03T11:23:46.000Z</time>
      </trkpt>
      <trkpt lat="42.5173" lon="-8.00975">
        <ele>548.0</ele>
        <time>2018-10-03T11:23:47.000Z</time>
      </trkpt>
      <trkpt lat="42.51729667" lon="-8.00976833">
        <ele>548.0</ele>
        <time>2018-10-03T11:23:48.000Z</time>
      </trkpt>
      <trkpt lat="42.51729333" lon="-8.00978833">
        <ele>548.0</ele>
        <time>2018-10-03T11:23:49.000Z</time>
      </trkpt>
      <trkpt lat="42.51728833" lon="-8.00980833">
        <ele>548.0</ele>
        <time>2018-10-03T11:23:50.000Z</time>
      </trkpt>
      <trkpt lat="42.51728333" lon="-8.00982667">
        <ele>548.0</ele>
        <time>2018-10-03T11:23:51.000Z</time>
      </trkpt>
      <trkpt lat="42.51728" lon="-8.009845">
        <ele>548.0</ele>
        <time>2018-10-03T11:23:52.000Z</time>
      </trkpt>
      <trkpt lat="42.51727833" lon="-8.00986167">
        <ele>548.0</ele>
        <time>2018-10-03T11:23:53.000Z</time>
      </trkpt>
      <trkpt lat="42.51727333" lon="-8.00988">
        <ele>548.0</ele>
        <time>2018-10-03T11:23:54.000Z</time>
      </trkpt>
      <trkpt lat="42.51727" lon="-8.00989833">
        <ele>548.0</ele>
        <time>2018-10-03T11:23:55.000Z</time>
      </trkpt>
      <trkpt lat="42.51726167" lon="-8.009915">
        <ele>548.0</ele>
        <time>2018-10-03T11:23:56.000Z</time>
      </trkpt>
      <trkpt lat="42.51726" lon="-8.00994">
        <ele>548.0</ele>
        <time>2018-10-03T11:23:57.000Z</time>
      </trkpt>
      <trkpt lat="42.51725667" lon="-8.009965">
        <ele>548.0</ele>
        <time>2018-10-03T11:23:58.000Z</time>
      </trkpt>
      <trkpt lat="42.51725167" lon="-8.00998667">
        <ele>548.0</ele>
        <time>2018-10-03T11:23:59.000Z</time>
      </trkpt>
      <trkpt lat="42.517245" lon="-8.010005">
        <ele>548.0</ele>
        <time>2018-10-03T11:24:00.000Z</time>
      </trkpt>
      <trkpt lat="42.517235" lon="-8.010015">
        <ele>548.0</ele>
        <time>2018-10-03T11:24:01.000Z</time>
      </trkpt>
      <trkpt lat="42.517225" lon="-8.01002333">
        <ele>548.0</ele>
        <time>2018-10-03T11:24:02.000Z</time>
      </trkpt>
      <trkpt lat="42.517215" lon="-8.01002833">
        <ele>548.0</ele>
        <time>2018-10-03T11:24:03.000Z</time>
      </trkpt>
      <trkpt lat="42.517205" lon="-8.01004167">
        <ele>548.0</ele>
        <time>2018-10-03T11:24:04.000Z</time>
      </trkpt>
      <trkpt lat="42.51719167" lon="-8.01006667">
        <ele>548.0</ele>
        <time>2018-10-03T11:24:05.000Z</time>
      </trkpt>
      <trkpt lat="42.517185" lon="-8.01008833">
        <ele>548.0</ele>
        <time>2018-10-03T11:24:06.000Z</time>
      </trkpt>
      <trkpt lat="42.51718" lon="-8.01011">
        <ele>548.0</ele>
        <time>2018-10-03T11:24:07.000Z</time>
      </trkpt>
      <trkpt lat="42.51717333" lon="-8.01012833">
        <ele>548.0</ele>
        <time>2018-10-03T11:24:08.000Z</time>
      </trkpt>
      <trkpt lat="42.51716667" lon="-8.01014833">
        <ele>548.0</ele>
        <time>2018-10-03T11:24:09.000Z</time>
      </trkpt>
      <trkpt lat="42.51716" lon="-8.01016667">
        <ele>548.0</ele>
        <time>2018-10-03T11:24:10.000Z</time>
      </trkpt>
      <trkpt lat="42.51715667" lon="-8.01018667">
        <ele>548.0</ele>
        <time>2018-10-03T11:24:11.000Z</time>
      </trkpt>
      <trkpt lat="42.51715" lon="-8.01020667">
        <ele>548.0</ele>
        <time>2018-10-03T11:24:12.000Z</time>
      </trkpt>
      <trkpt lat="42.517145" lon="-8.010225">
        <ele>548.0</ele>
        <time>2018-10-03T11:24:13.000Z</time>
      </trkpt>
      <trkpt lat="42.51713167" lon="-8.01023333">
        <ele>548.0</ele>
        <time>2018-10-03T11:24:14.000Z</time>
      </trkpt>
      <trkpt lat="42.517125" lon="-8.01024333">
        <ele>549.0</ele>
        <time>2018-10-03T11:24:15.000Z</time>
      </trkpt>
      <trkpt lat="42.51712167" lon="-8.01025333">
        <ele>549.0</ele>
        <time>2018-10-03T11:24:16.000Z</time>
      </trkpt>
      <trkpt lat="42.51712" lon="-8.01026833">
        <ele>549.0</ele>
        <time>2018-10-03T11:24:17.000Z</time>
      </trkpt>
      <trkpt lat="42.517115" lon="-8.01028167">
        <ele>549.0</ele>
        <time>2018-10-03T11:24:18.000Z</time>
      </trkpt>
      <trkpt lat="42.51711" lon="-8.01029667">
        <ele>549.0</ele>
        <time>2018-10-03T11:24:19.000Z</time>
      </trkpt>
      <trkpt lat="42.51710667" lon="-8.010315">
        <ele>549.0</ele>
        <time>2018-10-03T11:24:20.000Z</time>
      </trkpt>
      <trkpt lat="42.51710667" lon="-8.01033167">
        <ele>549.0</ele>
        <time>2018-10-03T11:24:21.000Z</time>
      </trkpt>
      <trkpt lat="42.51710667" lon="-8.01035">
        <ele>549.0</ele>
        <time>2018-10-03T11:24:22.000Z</time>
      </trkpt>
      <trkpt lat="42.51711" lon="-8.01036833">
        <ele>549.0</ele>
        <time>2018-10-03T11:24:23.000Z</time>
      </trkpt>
      <trkpt lat="42.51711333" lon="-8.01038167">
        <ele>549.0</ele>
        <time>2018-10-03T11:24:24.000Z</time>
      </trkpt>
      <trkpt lat="42.51712167" lon="-8.010395">
        <ele>549.0</ele>
        <time>2018-10-03T11:24:25.000Z</time>
      </trkpt>
      <trkpt lat="42.51712833" lon="-8.01039833">
        <ele>549.0</ele>
        <time>2018-10-03T11:24:26.000Z</time>
      </trkpt>
      <trkpt lat="42.51713333" lon="-8.010395">
        <ele>549.0</ele>
        <time>2018-10-03T11:24:27.000Z</time>
      </trkpt>
      <trkpt lat="42.51714" lon="-8.01039333">
        <ele>549.0</ele>
        <time>2018-10-03T11:24:28.000Z</time>
      </trkpt>
      <trkpt lat="42.51715" lon="-8.01039">
        <ele>549.0</ele>
        <time>2018-10-03T11:24:29.000Z</time>
      </trkpt>
      <trkpt lat="42.517165" lon="-8.01038667">
        <ele>549.0</ele>
        <time>2018-10-03T11:24:30.000Z</time>
      </trkpt>
      <trkpt lat="42.51718333" lon="-8.01038167">
        <ele>549.0</ele>
        <time>2018-10-03T11:24:31.000Z</time>
      </trkpt>
      <trkpt lat="42.517205" lon="-8.01037667">
        <ele>549.0</ele>
        <time>2018-10-03T11:24:32.000Z</time>
      </trkpt>
      <trkpt lat="42.517225" lon="-8.01037167">
        <ele>550.0</ele>
        <time>2018-10-03T11:24:33.000Z</time>
      </trkpt>
      <trkpt lat="42.51724" lon="-8.01037333">
        <ele>550.0</ele>
        <time>2018-10-03T11:24:34.000Z</time>
      </trkpt>
      <trkpt lat="42.51725667" lon="-8.010375">
        <ele>550.0</ele>
        <time>2018-10-03T11:24:35.000Z</time>
      </trkpt>
      <trkpt lat="42.51726833" lon="-8.010385">
        <ele>551.0</ele>
        <time>2018-10-03T11:24:36.000Z</time>
      </trkpt>
      <trkpt lat="42.517275" lon="-8.01040333">
        <ele>551.0</ele>
        <time>2018-10-03T11:24:37.000Z</time>
      </trkpt>
      <trkpt lat="42.51727833" lon="-8.01041833">
        <ele>551.0</ele>
        <time>2018-10-03T11:24:38.000Z</time>
      </trkpt>
      <trkpt lat="42.51727833" lon="-8.01043167">
        <ele>552.0</ele>
        <time>2018-10-03T11:24:39.000Z</time>
      </trkpt>
      <trkpt lat="42.51728" lon="-8.01044333">
        <ele>552.0</ele>
        <time>2018-10-03T11:24:40.000Z</time>
      </trkpt>
      <trkpt lat="42.51728833" lon="-8.010455">
        <ele>553.0</ele>
        <time>2018-10-03T11:24:41.000Z</time>
      </trkpt>
      <trkpt lat="42.5173" lon="-8.01046667">
        <ele>553.0</ele>
        <time>2018-10-03T11:24:42.000Z</time>
      </trkpt>
      <trkpt lat="42.517315" lon="-8.01047667">
        <ele>553.0</ele>
        <time>2018-10-03T11:24:43.000Z</time>
      </trkpt>
      <trkpt lat="42.51733" lon="-8.01048333">
        <ele>553.0</ele>
        <time>2018-10-03T11:24:44.000Z</time>
      </trkpt>
      <trkpt lat="42.51734167" lon="-8.01049167">
        <ele>554.0</ele>
        <time>2018-10-03T11:24:45.000Z</time>
      </trkpt>
      <trkpt lat="42.517355" lon="-8.01049833">
        <ele>554.0</ele>
        <time>2018-10-03T11:24:46.000Z</time>
      </trkpt>
      <trkpt lat="42.51736833" lon="-8.010505">
        <ele>554.0</ele>
        <time>2018-10-03T11:24:47.000Z</time>
      </trkpt>
      <trkpt lat="42.51738" lon="-8.01050833">
        <ele>554.0</ele>
        <time>2018-10-03T11:24:48.000Z</time>
      </trkpt>
      <trkpt lat="42.517395" lon="-8.01051">
        <ele>555.0</ele>
        <time>2018-10-03T11:24:49.000Z</time>
      </trkpt>
      <trkpt lat="42.51740667" lon="-8.01051667">
        <ele>555.0</ele>
        <time>2018-10-03T11:24:50.000Z</time>
      </trkpt>
      <trkpt lat="42.51741833" lon="-8.01052333">
        <ele>555.0</ele>
        <time>2018-10-03T11:24:51.000Z</time>
      </trkpt>
      <trkpt lat="42.51743" lon="-8.01053">
        <ele>555.0</ele>
        <time>2018-10-03T11:24:52.000Z</time>
      </trkpt>
      <trkpt lat="42.51744333" lon="-8.010535">
        <ele>556.0</ele>
        <time>2018-10-03T11:24:53.000Z</time>
      </trkpt>
      <trkpt lat="42.517455" lon="-8.01054">
        <ele>556.0</ele>
        <time>2018-10-03T11:24:54.000Z</time>
      </trkpt>
      <trkpt lat="42.517465" lon="-8.01054333">
        <ele>556.0</ele>
        <time>2018-10-03T11:24:55.000Z</time>
      </trkpt>
      <trkpt lat="42.517475" lon="-8.01054833">
        <ele>556.0</ele>
        <time>2018-10-03T11:24:56.000Z</time>
      </trkpt>
      <trkpt lat="42.517485" lon="-8.01055167">
        <ele>557.0</ele>
        <time>2018-10-03T11:24:57.000Z</time>
      </trkpt>
      <trkpt lat="42.51749333" lon="-8.010555">
        <ele>557.0</ele>
        <time>2018-10-03T11:24:58.000Z</time>
      </trkpt>
      <trkpt lat="42.5175" lon="-8.01056">
        <ele>557.0</ele>
        <time>2018-10-03T11:24:59.000Z</time>
      </trkpt>
      <trkpt lat="42.51750333" lon="-8.01056833">
        <ele>557.0</ele>
        <time>2018-10-03T11:25:00.000Z</time>
      </trkpt>
      <trkpt lat="42.51751" lon="-8.010575">
        <ele>558.0</ele>
        <time>2018-10-03T11:25:01.000Z</time>
      </trkpt>
      <trkpt lat="42.51752" lon="-8.01058">
        <ele>558.0</ele>
        <time>2018-10-03T11:25:02.000Z</time>
      </trkpt>
      <trkpt lat="42.51753" lon="-8.010585">
        <ele>558.0</ele>
        <time>2018-10-03T11:25:03.000Z</time>
      </trkpt>
      <trkpt lat="42.51754333" lon="-8.01059">
        <ele>558.0</ele>
        <time>2018-10-03T11:25:04.000Z</time>
      </trkpt>
      <trkpt lat="42.51755667" lon="-8.01059333">
        <ele>558.0</ele>
        <time>2018-10-03T11:25:05.000Z</time>
      </trkpt>
      <trkpt lat="42.51756833" lon="-8.01060167">
        <ele>558.0</ele>
        <time>2018-10-03T11:25:06.000Z</time>
      </trkpt>
      <trkpt lat="42.51758667" lon="-8.010605">
        <ele>558.0</ele>
        <time>2018-10-03T11:25:07.000Z</time>
      </trkpt>
      <trkpt lat="42.51760833" lon="-8.01060667">
        <ele>559.0</ele>
        <time>2018-10-03T11:25:08.000Z</time>
      </trkpt>
      <trkpt lat="42.517635" lon="-8.01060833">
        <ele>559.0</ele>
        <time>2018-10-03T11:25:09.000Z</time>
      </trkpt>
      <trkpt lat="42.51765833" lon="-8.01060833">
        <ele>559.0</ele>
        <time>2018-10-03T11:25:10.000Z</time>
      </trkpt>
      <trkpt lat="42.51767833" lon="-8.01061167">
        <ele>559.0</ele>
        <time>2018-10-03T11:25:11.000Z</time>
      </trkpt>
      <trkpt lat="42.51769333" lon="-8.01061667">
        <ele>560.0</ele>
        <time>2018-10-03T11:25:12.000Z</time>
      </trkpt>
      <trkpt lat="42.51770667" lon="-8.01062333">
        <ele>560.0</ele>
        <time>2018-10-03T11:25:13.000Z</time>
      </trkpt>
      <trkpt lat="42.51771667" lon="-8.01063333">
        <ele>560.0</ele>
        <time>2018-10-03T11:25:14.000Z</time>
      </trkpt>
      <trkpt lat="42.51772167" lon="-8.010645">
        <ele>560.0</ele>
        <time>2018-10-03T11:25:15.000Z</time>
      </trkpt>
      <trkpt lat="42.51773167" lon="-8.01065333">
        <ele>560.0</ele>
        <time>2018-10-03T11:25:16.000Z</time>
      </trkpt>
      <trkpt lat="42.51773" lon="-8.01066667">
        <ele>560.0</ele>
        <time>2018-10-03T11:25:17.000Z</time>
      </trkpt>
      <trkpt lat="42.51773" lon="-8.010675">
        <ele>560.0</ele>
        <time>2018-10-03T11:25:18.000Z</time>
      </trkpt>
      <trkpt lat="42.51773667" lon="-8.010685">
        <ele>560.0</ele>
        <time>2018-10-03T11:25:19.000Z</time>
      </trkpt>
      <trkpt lat="42.51774833" lon="-8.010695">
        <ele>560.0</ele>
        <time>2018-10-03T11:25:20.000Z</time>
      </trkpt>
      <trkpt lat="42.51776" lon="-8.01070667">
        <ele>560.0</ele>
        <time>2018-10-03T11:25:21.000Z</time>
      </trkpt>
      <trkpt lat="42.51777833" lon="-8.01071667">
        <ele>560.0</ele>
        <time>2018-10-03T11:25:22.000Z</time>
      </trkpt>
      <trkpt lat="42.51780167" lon="-8.010725">
        <ele>560.0</ele>
        <time>2018-10-03T11:25:23.000Z</time>
      </trkpt>
      <trkpt lat="42.51782667" lon="-8.01072833">
        <ele>560.0</ele>
        <time>2018-10-03T11:25:24.000Z</time>
      </trkpt>
      <trkpt lat="42.51785333" lon="-8.010725">
        <ele>560.0</ele>
        <time>2018-10-03T11:25:25.000Z</time>
      </trkpt>
      <trkpt lat="42.51787" lon="-8.01073167">
        <ele>560.0</ele>
        <time>2018-10-03T11:25:26.000Z</time>
      </trkpt>
      <trkpt lat="42.51788333" lon="-8.01073833">
        <ele>560.0</ele>
        <time>2018-10-03T11:25:27.000Z</time>
      </trkpt>
      <trkpt lat="42.51789833" lon="-8.01074">
        <ele>560.0</ele>
        <time>2018-10-03T11:25:28.000Z</time>
      </trkpt>
      <trkpt lat="42.51791167" lon="-8.01074167">
        <ele>560.0</ele>
        <time>2018-10-03T11:25:29.000Z</time>
      </trkpt>
      <trkpt lat="42.51792167" lon="-8.01074667">
        <ele>560.0</ele>
        <time>2018-10-03T11:25:30.000Z</time>
      </trkpt>
      <trkpt lat="42.51793167" lon="-8.01075333">
        <ele>560.0</ele>
        <time>2018-10-03T11:25:31.000Z</time>
      </trkpt>
      <trkpt lat="42.51794" lon="-8.01075833">
        <ele>560.0</ele>
        <time>2018-10-03T11:25:32.000Z</time>
      </trkpt>
      <trkpt lat="42.517945" lon="-8.01076167">
        <ele>560.0</ele>
        <time>2018-10-03T11:25:33.000Z</time>
      </trkpt>
      <trkpt lat="42.51795" lon="-8.01076833">
        <ele>560.0</ele>
        <time>2018-10-03T11:25:34.000Z</time>
      </trkpt>
      <trkpt lat="42.51796" lon="-8.01077333">
        <ele>560.0</ele>
        <time>2018-10-03T11:25:35.000Z</time>
      </trkpt>
      <trkpt lat="42.517965" lon="-8.01078167">
        <ele>561.0</ele>
        <time>2018-10-03T11:25:36.000Z</time>
      </trkpt>
      <trkpt lat="42.51797167" lon="-8.01079167">
        <ele>561.0</ele>
        <time>2018-10-03T11:25:37.000Z</time>
      </trkpt>
      <trkpt lat="42.517985" lon="-8.01079">
        <ele>561.0</ele>
        <time>2018-10-03T11:25:38.000Z</time>
      </trkpt>
      <trkpt lat="42.51800333" lon="-8.010795">
        <ele>561.0</ele>
        <time>2018-10-03T11:25:39.000Z</time>
      </trkpt>
      <trkpt lat="42.51802333" lon="-8.01080333">
        <ele>561.0</ele>
        <time>2018-10-03T11:25:40.000Z</time>
      </trkpt>
      <trkpt lat="42.51804167" lon="-8.010815">
        <ele>561.0</ele>
        <time>2018-10-03T11:25:41.000Z</time>
      </trkpt>
      <trkpt lat="42.51805833" lon="-8.01082833">
        <ele>562.0</ele>
        <time>2018-10-03T11:25:42.000Z</time>
      </trkpt>
      <trkpt lat="42.51806833" lon="-8.01084">
        <ele>562.0</ele>
        <time>2018-10-03T11:25:43.000Z</time>
      </trkpt>
      <trkpt lat="42.51807333" lon="-8.01085833">
        <ele>562.0</ele>
        <time>2018-10-03T11:25:44.000Z</time>
      </trkpt>
      <trkpt lat="42.51808167" lon="-8.010875">
        <ele>562.0</ele>
        <time>2018-10-03T11:25:45.000Z</time>
      </trkpt>
      <trkpt lat="42.51808833" lon="-8.010895">
        <ele>562.0</ele>
        <time>2018-10-03T11:25:46.000Z</time>
      </trkpt>
      <trkpt lat="42.51809667" lon="-8.01091167">
        <ele>562.0</ele>
        <time>2018-10-03T11:25:47.000Z</time>
      </trkpt>
      <trkpt lat="42.51810167" lon="-8.01092667">
        <ele>563.0</ele>
        <time>2018-10-03T11:25:48.000Z</time>
      </trkpt>
      <trkpt lat="42.51810667" lon="-8.01094833">
        <ele>563.0</ele>
        <time>2018-10-03T11:25:49.000Z</time>
      </trkpt>
      <trkpt lat="42.51811167" lon="-8.010965">
        <ele>563.0</ele>
        <time>2018-10-03T11:25:50.000Z</time>
      </trkpt>
      <trkpt lat="42.51811333" lon="-8.01098167">
        <ele>563.0</ele>
        <time>2018-10-03T11:25:51.000Z</time>
      </trkpt>
      <trkpt lat="42.51811167" lon="-8.010995">
        <ele>563.0</ele>
        <time>2018-10-03T11:25:52.000Z</time>
      </trkpt>
      <trkpt lat="42.51811167" lon="-8.011005">
        <ele>563.0</ele>
        <time>2018-10-03T11:25:53.000Z</time>
      </trkpt>
      <trkpt lat="42.51811" lon="-8.01101333">
        <ele>563.0</ele>
        <time>2018-10-03T11:25:54.000Z</time>
      </trkpt>
      <trkpt lat="42.51810667" lon="-8.01102167">
        <ele>564.0</ele>
        <time>2018-10-03T11:25:55.000Z</time>
      </trkpt>
      <trkpt lat="42.518105" lon="-8.01103333">
        <ele>564.0</ele>
        <time>2018-10-03T11:25:56.000Z</time>
      </trkpt>
      <trkpt lat="42.518105" lon="-8.01104333">
        <ele>564.0</ele>
        <time>2018-10-03T11:25:57.000Z</time>
      </trkpt>
      <trkpt lat="42.51810333" lon="-8.01105667">
        <ele>564.0</ele>
        <time>2018-10-03T11:25:58.000Z</time>
      </trkpt>
      <trkpt lat="42.51810333" lon="-8.01107167">
        <ele>565.0</ele>
        <time>2018-10-03T11:25:59.000Z</time>
      </trkpt>
      <trkpt lat="42.51810333" lon="-8.01108667">
        <ele>565.0</ele>
        <time>2018-10-03T11:26:00.000Z</time>
      </trkpt>
      <trkpt lat="42.51810167" lon="-8.0111">
        <ele>565.0</ele>
        <time>2018-10-03T11:26:01.000Z</time>
      </trkpt>
      <trkpt lat="42.51810667" lon="-8.01112833">
        <ele>565.0</ele>
        <time>2018-10-03T11:26:02.000Z</time>
      </trkpt>
      <trkpt lat="42.51811333" lon="-8.01115833">
        <ele>566.0</ele>
        <time>2018-10-03T11:26:03.000Z</time>
      </trkpt>
      <trkpt lat="42.51812" lon="-8.01119">
        <ele>566.0</ele>
        <time>2018-10-03T11:26:04.000Z</time>
      </trkpt>
      <trkpt lat="42.51812" lon="-8.01120667">
        <ele>566.0</ele>
        <time>2018-10-03T11:26:05.000Z</time>
      </trkpt>
      <trkpt lat="42.51812" lon="-8.01122167">
        <ele>566.0</ele>
        <time>2018-10-03T11:26:06.000Z</time>
      </trkpt>
      <trkpt lat="42.51812" lon="-8.01123167">
        <ele>566.0</ele>
        <time>2018-10-03T11:26:07.000Z</time>
      </trkpt>
      <trkpt lat="42.51812" lon="-8.01124">
        <ele>567.0</ele>
        <time>2018-10-03T11:26:08.000Z</time>
      </trkpt>
      <trkpt lat="42.51812" lon="-8.01125">
        <ele>567.0</ele>
        <time>2018-10-03T11:26:09.000Z</time>
      </trkpt>
      <trkpt lat="42.51812167" lon="-8.01126333">
        <ele>567.0</ele>
        <time>2018-10-03T11:26:10.000Z</time>
      </trkpt>
      <trkpt lat="42.51812167" lon="-8.011275">
        <ele>567.0</ele>
        <time>2018-10-03T11:26:11.000Z</time>
      </trkpt>
      <trkpt lat="42.51812333" lon="-8.01128667">
        <ele>567.0</ele>
        <time>2018-10-03T11:26:12.000Z</time>
      </trkpt>
      <trkpt lat="42.518125" lon="-8.0113">
        <ele>567.0</ele>
        <time>2018-10-03T11:26:13.000Z</time>
      </trkpt>
      <trkpt lat="42.51812833" lon="-8.01131333">
        <ele>568.0</ele>
        <time>2018-10-03T11:26:14.000Z</time>
      </trkpt>
      <trkpt lat="42.51813" lon="-8.01132833">
        <ele>568.0</ele>
        <time>2018-10-03T11:26:15.000Z</time>
      </trkpt>
      <trkpt lat="42.51813" lon="-8.01134167">
        <ele>568.0</ele>
        <time>2018-10-03T11:26:16.000Z</time>
      </trkpt>
      <trkpt lat="42.51813" lon="-8.01135167">
        <ele>568.0</ele>
        <time>2018-10-03T11:26:17.000Z</time>
      </trkpt>
      <trkpt lat="42.51813167" lon="-8.01136167">
        <ele>568.0</ele>
        <time>2018-10-03T11:26:18.000Z</time>
      </trkpt>
      <trkpt lat="42.518135" lon="-8.01137333">
        <ele>568.0</ele>
        <time>2018-10-03T11:26:19.000Z</time>
      </trkpt>
      <trkpt lat="42.51814" lon="-8.011385">
        <ele>568.0</ele>
        <time>2018-10-03T11:26:20.000Z</time>
      </trkpt>
      <trkpt lat="42.51814167" lon="-8.01139833">
        <ele>568.0</ele>
        <time>2018-10-03T11:26:21.000Z</time>
      </trkpt>
      <trkpt lat="42.51815" lon="-8.01141167">
        <ele>568.0</ele>
        <time>2018-10-03T11:26:22.000Z</time>
      </trkpt>
      <trkpt lat="42.51815667" lon="-8.011425">
        <ele>569.0</ele>
        <time>2018-10-03T11:26:23.000Z</time>
      </trkpt>
      <trkpt lat="42.518165" lon="-8.01143667">
        <ele>569.0</ele>
        <time>2018-10-03T11:26:24.000Z</time>
      </trkpt>
      <trkpt lat="42.51817" lon="-8.01144667">
        <ele>569.0</ele>
        <time>2018-10-03T11:26:25.000Z</time>
      </trkpt>
      <trkpt lat="42.518175" lon="-8.011455">
        <ele>569.0</ele>
        <time>2018-10-03T11:26:26.000Z</time>
      </trkpt>
      <trkpt lat="42.51818" lon="-8.01146333">
        <ele>570.0</ele>
        <time>2018-10-03T11:26:27.000Z</time>
      </trkpt>
      <trkpt lat="42.518185" lon="-8.01146667">
        <ele>570.0</ele>
        <time>2018-10-03T11:26:28.000Z</time>
      </trkpt>
      <trkpt lat="42.51819167" lon="-8.01147333">
        <ele>570.0</ele>
        <time>2018-10-03T11:26:29.000Z</time>
      </trkpt>
      <trkpt lat="42.5182" lon="-8.01147833">
        <ele>570.0</ele>
        <time>2018-10-03T11:26:30.000Z</time>
      </trkpt>
      <trkpt lat="42.51820833" lon="-8.011485">
        <ele>570.0</ele>
        <time>2018-10-03T11:26:31.000Z</time>
      </trkpt>
      <trkpt lat="42.51821667" lon="-8.01149">
        <ele>571.0</ele>
        <time>2018-10-03T11:26:32.000Z</time>
      </trkpt>
      <trkpt lat="42.518225" lon="-8.01149667">
        <ele>571.0</ele>
        <time>2018-10-03T11:26:33.000Z</time>
      </trkpt>
      <trkpt lat="42.51823167" lon="-8.011505">
        <ele>571.0</ele>
        <time>2018-10-03T11:26:34.000Z</time>
      </trkpt>
      <trkpt lat="42.51824" lon="-8.01151">
        <ele>571.0</ele>
        <time>2018-10-03T11:26:35.000Z</time>
      </trkpt>
      <trkpt lat="42.51824667" lon="-8.01151667">
        <ele>571.0</ele>
        <time>2018-10-03T11:26:36.000Z</time>
      </trkpt>
      <trkpt lat="42.51825667" lon="-8.01152333">
        <ele>572.0</ele>
        <time>2018-10-03T11:26:37.000Z</time>
      </trkpt>
      <trkpt lat="42.518265" lon="-8.01152833">
        <ele>572.0</ele>
        <time>2018-10-03T11:26:38.000Z</time>
      </trkpt>
      <trkpt lat="42.518275" lon="-8.01153333">
        <ele>572.0</ele>
        <time>2018-10-03T11:26:39.000Z</time>
      </trkpt>
      <trkpt lat="42.51828333" lon="-8.01153833">
        <ele>573.0</ele>
        <time>2018-10-03T11:26:40.000Z</time>
      </trkpt>
      <trkpt lat="42.51829333" lon="-8.01154">
        <ele>573.0</ele>
        <time>2018-10-03T11:26:41.000Z</time>
      </trkpt>
      <trkpt lat="42.51830833" lon="-8.01154167">
        <ele>573.0</ele>
        <time>2018-10-03T11:26:42.000Z</time>
      </trkpt>
      <trkpt lat="42.518325" lon="-8.01154667">
        <ele>574.0</ele>
        <time>2018-10-03T11:26:43.000Z</time>
      </trkpt>
      <trkpt lat="42.51834167" lon="-8.01155167">
        <ele>574.0</ele>
        <time>2018-10-03T11:26:44.000Z</time>
      </trkpt>
      <trkpt lat="42.51835667" lon="-8.011555">
        <ele>574.0</ele>
        <time>2018-10-03T11:26:45.000Z</time>
      </trkpt>
      <trkpt lat="42.51836833" lon="-8.01155833">
        <ele>574.0</ele>
        <time>2018-10-03T11:26:46.000Z</time>
      </trkpt>
      <trkpt lat="42.51838" lon="-8.01156333">
        <ele>575.0</ele>
        <time>2018-10-03T11:26:47.000Z</time>
      </trkpt>
      <trkpt lat="42.51839" lon="-8.01156833">
        <ele>575.0</ele>
        <time>2018-10-03T11:26:48.000Z</time>
      </trkpt>
      <trkpt lat="42.51839833" lon="-8.01157333">
        <ele>575.0</ele>
        <time>2018-10-03T11:26:49.000Z</time>
      </trkpt>
      <trkpt lat="42.51840667" lon="-8.01157667">
        <ele>575.0</ele>
        <time>2018-10-03T11:26:50.000Z</time>
      </trkpt>
      <trkpt lat="42.51841667" lon="-8.01157833">
        <ele>575.0</ele>
        <time>2018-10-03T11:26:51.000Z</time>
      </trkpt>
      <trkpt lat="42.51842667" lon="-8.01157833">
        <ele>576.0</ele>
        <time>2018-10-03T11:26:52.000Z</time>
      </trkpt>
      <trkpt lat="42.51843667" lon="-8.01158167">
        <ele>576.0</ele>
        <time>2018-10-03T11:26:53.000Z</time>
      </trkpt>
      <trkpt lat="42.51844667" lon="-8.01158167">
        <ele>576.0</ele>
        <time>2018-10-03T11:26:54.000Z</time>
      </trkpt>
      <trkpt lat="42.518455" lon="-8.01158">
        <ele>576.0</ele>
        <time>2018-10-03T11:26:55.000Z</time>
      </trkpt>
      <trkpt lat="42.518465" lon="-8.01158333">
        <ele>576.0</ele>
        <time>2018-10-03T11:26:56.000Z</time>
      </trkpt>
      <trkpt lat="42.51847667" lon="-8.01158667">
        <ele>576.0</ele>
        <time>2018-10-03T11:26:57.000Z</time>
      </trkpt>
      <trkpt lat="42.51849" lon="-8.01158833">
        <ele>577.0</ele>
        <time>2018-10-03T11:26:58.000Z</time>
      </trkpt>
      <trkpt lat="42.51850167" lon="-8.01159333">
        <ele>577.0</ele>
        <time>2018-10-03T11:26:59.000Z</time>
      </trkpt>
      <trkpt lat="42.51851833" lon="-8.0116">
        <ele>577.0</ele>
        <time>2018-10-03T11:27:00.000Z</time>
      </trkpt>
      <trkpt lat="42.51853333" lon="-8.011605">
        <ele>577.0</ele>
        <time>2018-10-03T11:27:01.000Z</time>
      </trkpt>
      <trkpt lat="42.51854667" lon="-8.01160833">
        <ele>577.0</ele>
        <time>2018-10-03T11:27:02.000Z</time>
      </trkpt>
      <trkpt lat="42.51856167" lon="-8.01161">
        <ele>577.0</ele>
        <time>2018-10-03T11:27:03.000Z</time>
      </trkpt>
      <trkpt lat="42.518575" lon="-8.01161333">
        <ele>577.0</ele>
        <time>2018-10-03T11:27:04.000Z</time>
      </trkpt>
      <trkpt lat="42.51859167" lon="-8.01161833">
        <ele>577.0</ele>
        <time>2018-10-03T11:27:05.000Z</time>
      </trkpt>
      <trkpt lat="42.51861167" lon="-8.01162">
        <ele>577.0</ele>
        <time>2018-10-03T11:27:06.000Z</time>
      </trkpt>
      <trkpt lat="42.51863167" lon="-8.01162333">
        <ele>578.0</ele>
        <time>2018-10-03T11:27:07.000Z</time>
      </trkpt>
      <trkpt lat="42.51865667" lon="-8.01162667">
        <ele>578.0</ele>
        <time>2018-10-03T11:27:08.000Z</time>
      </trkpt>
      <trkpt lat="42.51867667" lon="-8.01163167">
        <ele>578.0</ele>
        <time>2018-10-03T11:27:09.000Z</time>
      </trkpt>
      <trkpt lat="42.51869333" lon="-8.011635">
        <ele>578.0</ele>
        <time>2018-10-03T11:27:10.000Z</time>
      </trkpt>
      <trkpt lat="42.51870833" lon="-8.01163667">
        <ele>579.0</ele>
        <time>2018-10-03T11:27:11.000Z</time>
      </trkpt>
      <trkpt lat="42.51872" lon="-8.011635">
        <ele>579.0</ele>
        <time>2018-10-03T11:27:12.000Z</time>
      </trkpt>
      <trkpt lat="42.51873" lon="-8.01162833">
        <ele>579.0</ele>
        <time>2018-10-03T11:27:13.000Z</time>
      </trkpt>
      <trkpt lat="42.51874333" lon="-8.011625">
        <ele>580.0</ele>
        <time>2018-10-03T11:27:14.000Z</time>
      </trkpt>
      <trkpt lat="42.518755" lon="-8.01162333">
        <ele>580.0</ele>
        <time>2018-10-03T11:27:15.000Z</time>
      </trkpt>
      <trkpt lat="42.51876833" lon="-8.01162333">
        <ele>580.0</ele>
        <time>2018-10-03T11:27:16.000Z</time>
      </trkpt>
      <trkpt lat="42.51878167" lon="-8.01162333">
        <ele>580.0</ele>
        <time>2018-10-03T11:27:17.000Z</time>
      </trkpt>
      <trkpt lat="42.51879333" lon="-8.01162333">
        <ele>580.0</ele>
        <time>2018-10-03T11:27:18.000Z</time>
      </trkpt>
      <trkpt lat="42.51880667" lon="-8.011625">
        <ele>581.0</ele>
        <time>2018-10-03T11:27:19.000Z</time>
      </trkpt>
      <trkpt lat="42.51881833" lon="-8.01162833">
        <ele>581.0</ele>
        <time>2018-10-03T11:27:20.000Z</time>
      </trkpt>
      <trkpt lat="42.51882833" lon="-8.01163">
        <ele>581.0</ele>
        <time>2018-10-03T11:27:21.000Z</time>
      </trkpt>
      <trkpt lat="42.51883833" lon="-8.01163333">
        <ele>581.0</ele>
        <time>2018-10-03T11:27:22.000Z</time>
      </trkpt>
      <trkpt lat="42.51884833" lon="-8.01163833">
        <ele>581.0</ele>
        <time>2018-10-03T11:27:23.000Z</time>
      </trkpt>
      <trkpt lat="42.51886" lon="-8.01164333">
        <ele>581.0</ele>
        <time>2018-10-03T11:27:24.000Z</time>
      </trkpt>
      <trkpt lat="42.51887" lon="-8.01165">
        <ele>581.0</ele>
        <time>2018-10-03T11:27:25.000Z</time>
      </trkpt>
      <trkpt lat="42.51888333" lon="-8.011655">
        <ele>581.0</ele>
        <time>2018-10-03T11:27:26.000Z</time>
      </trkpt>
      <trkpt lat="42.518895" lon="-8.01165667">
        <ele>581.0</ele>
        <time>2018-10-03T11:27:27.000Z</time>
      </trkpt>
      <trkpt lat="42.51891" lon="-8.01165667">
        <ele>581.0</ele>
        <time>2018-10-03T11:27:28.000Z</time>
      </trkpt>
      <trkpt lat="42.51892667" lon="-8.01165333">
        <ele>581.0</ele>
        <time>2018-10-03T11:27:29.000Z</time>
      </trkpt>
      <trkpt lat="42.51893333" lon="-8.01164167">
        <ele>581.0</ele>
        <time>2018-10-03T11:27:30.000Z</time>
      </trkpt>
      <trkpt lat="42.51893833" lon="-8.01163167">
        <ele>581.0</ele>
        <time>2018-10-03T11:27:31.000Z</time>
      </trkpt>
      <trkpt lat="42.51894333" lon="-8.01162667">
        <ele>581.0</ele>
        <time>2018-10-03T11:27:32.000Z</time>
      </trkpt>
      <trkpt lat="42.518945" lon="-8.01162833">
        <ele>582.0</ele>
        <time>2018-10-03T11:27:33.000Z</time>
      </trkpt>
      <trkpt lat="42.51895" lon="-8.01163333">
        <ele>582.0</ele>
        <time>2018-10-03T11:27:34.000Z</time>
      </trkpt>
      <trkpt lat="42.51896167" lon="-8.01164667">
        <ele>582.0</ele>
        <time>2018-10-03T11:27:35.000Z</time>
      </trkpt>
      <trkpt lat="42.51897167" lon="-8.01165">
        <ele>583.0</ele>
        <time>2018-10-03T11:27:36.000Z</time>
      </trkpt>
      <trkpt lat="42.518985" lon="-8.01165333">
        <ele>583.0</ele>
        <time>2018-10-03T11:27:37.000Z</time>
      </trkpt>
      <trkpt lat="42.519" lon="-8.01165833">
        <ele>584.0</ele>
        <time>2018-10-03T11:27:38.000Z</time>
      </trkpt>
      <trkpt lat="42.519015" lon="-8.01166667">
        <ele>584.0</ele>
        <time>2018-10-03T11:27:39.000Z</time>
      </trkpt>
      <trkpt lat="42.51903" lon="-8.01167">
        <ele>584.0</ele>
        <time>2018-10-03T11:27:40.000Z</time>
      </trkpt>
      <trkpt lat="42.51904333" lon="-8.01167667">
        <ele>585.0</ele>
        <time>2018-10-03T11:27:41.000Z</time>
      </trkpt>
      <trkpt lat="42.519055" lon="-8.01168167">
        <ele>585.0</ele>
        <time>2018-10-03T11:27:42.000Z</time>
      </trkpt>
      <trkpt lat="42.51906833" lon="-8.01169">
        <ele>585.0</ele>
        <time>2018-10-03T11:27:43.000Z</time>
      </trkpt>
      <trkpt lat="42.51908167" lon="-8.01169833">
        <ele>586.0</ele>
        <time>2018-10-03T11:27:44.000Z</time>
      </trkpt>
      <trkpt lat="42.51909333" lon="-8.01170833">
        <ele>586.0</ele>
        <time>2018-10-03T11:27:45.000Z</time>
      </trkpt>
      <trkpt lat="42.51910333" lon="-8.01171667">
        <ele>586.0</ele>
        <time>2018-10-03T11:27:46.000Z</time>
      </trkpt>
      <trkpt lat="42.519115" lon="-8.01172167">
        <ele>587.0</ele>
        <time>2018-10-03T11:27:47.000Z</time>
      </trkpt>
      <trkpt lat="42.51912667" lon="-8.01172833">
        <ele>587.0</ele>
        <time>2018-10-03T11:27:48.000Z</time>
      </trkpt>
      <trkpt lat="42.51913667" lon="-8.01173333">
        <ele>587.0</ele>
        <time>2018-10-03T11:27:49.000Z</time>
      </trkpt>
      <trkpt lat="42.51914667" lon="-8.01173833">
        <ele>587.0</ele>
        <time>2018-10-03T11:27:50.000Z</time>
      </trkpt>
      <trkpt lat="42.51915333" lon="-8.011745">
        <ele>587.0</ele>
        <time>2018-10-03T11:27:51.000Z</time>
      </trkpt>
      <trkpt lat="42.51915333" lon="-8.01174833">
        <ele>588.0</ele>
        <time>2018-10-03T11:27:52.000Z</time>
      </trkpt>
      <trkpt lat="42.51915667" lon="-8.01175167">
        <ele>588.0</ele>
        <time>2018-10-03T11:27:53.000Z</time>
      </trkpt>
      <trkpt lat="42.51915833" lon="-8.01175333">
        <ele>588.0</ele>
        <time>2018-10-03T11:27:54.000Z</time>
      </trkpt>
      <trkpt lat="42.51916333" lon="-8.01175833">
        <ele>588.0</ele>
        <time>2018-10-03T11:27:55.000Z</time>
      </trkpt>
      <trkpt lat="42.51917" lon="-8.01176">
        <ele>588.0</ele>
        <time>2018-10-03T11:27:56.000Z</time>
      </trkpt>
      <trkpt lat="42.51917667" lon="-8.01176333">
        <ele>589.0</ele>
        <time>2018-10-03T11:27:57.000Z</time>
      </trkpt>
      <trkpt lat="42.519185" lon="-8.01177">
        <ele>589.0</ele>
        <time>2018-10-03T11:27:58.000Z</time>
      </trkpt>
      <trkpt lat="42.51919" lon="-8.01177667">
        <ele>589.0</ele>
        <time>2018-10-03T11:27:59.000Z</time>
      </trkpt>
      <trkpt lat="42.519195" lon="-8.01178333">
        <ele>589.0</ele>
        <time>2018-10-03T11:28:00.000Z</time>
      </trkpt>
      <trkpt lat="42.519205" lon="-8.01178833">
        <ele>589.0</ele>
        <time>2018-10-03T11:28:01.000Z</time>
      </trkpt>
      <trkpt lat="42.519215" lon="-8.011795">
        <ele>589.0</ele>
        <time>2018-10-03T11:28:02.000Z</time>
      </trkpt>
      <trkpt lat="42.51922667" lon="-8.0118">
        <ele>589.0</ele>
        <time>2018-10-03T11:28:03.000Z</time>
      </trkpt>
      <trkpt lat="42.51924" lon="-8.01180333">
        <ele>590.0</ele>
        <time>2018-10-03T11:28:04.000Z</time>
      </trkpt>
      <trkpt lat="42.51925167" lon="-8.01180833">
        <ele>590.0</ele>
        <time>2018-10-03T11:28:05.000Z</time>
      </trkpt>
      <trkpt lat="42.519265" lon="-8.011815">
        <ele>590.0</ele>
        <time>2018-10-03T11:28:06.000Z</time>
      </trkpt>
      <trkpt lat="42.51927833" lon="-8.01182">
        <ele>590.0</ele>
        <time>2018-10-03T11:28:07.000Z</time>
      </trkpt>
      <trkpt lat="42.51929167" lon="-8.011825">
        <ele>590.0</ele>
        <time>2018-10-03T11:28:08.000Z</time>
      </trkpt>
      <trkpt lat="42.51930333" lon="-8.01182833">
        <ele>590.0</ele>
        <time>2018-10-03T11:28:09.000Z</time>
      </trkpt>
      <trkpt lat="42.51931667" lon="-8.01183">
        <ele>591.0</ele>
        <time>2018-10-03T11:28:10.000Z</time>
      </trkpt>
      <trkpt lat="42.51932667" lon="-8.01183">
        <ele>591.0</ele>
        <time>2018-10-03T11:28:11.000Z</time>
      </trkpt>
      <trkpt lat="42.51933833" lon="-8.01182667">
        <ele>591.0</ele>
        <time>2018-10-03T11:28:12.000Z</time>
      </trkpt>
      <trkpt lat="42.51935" lon="-8.01182167">
        <ele>591.0</ele>
        <time>2018-10-03T11:28:13.000Z</time>
      </trkpt>
      <trkpt lat="42.51936" lon="-8.011815">
        <ele>591.0</ele>
        <time>2018-10-03T11:28:14.000Z</time>
      </trkpt>
      <trkpt lat="42.51936833" lon="-8.01180667">
        <ele>591.0</ele>
        <time>2018-10-03T11:28:15.000Z</time>
      </trkpt>
      <trkpt lat="42.51937667" lon="-8.01179833">
        <ele>591.0</ele>
        <time>2018-10-03T11:28:16.000Z</time>
      </trkpt>
      <trkpt lat="42.519385" lon="-8.01179">
        <ele>590.0</ele>
        <time>2018-10-03T11:28:17.000Z</time>
      </trkpt>
      <trkpt lat="42.51939" lon="-8.011775">
        <ele>590.0</ele>
        <time>2018-10-03T11:28:18.000Z</time>
      </trkpt>
      <trkpt lat="42.51939667" lon="-8.01176">
        <ele>590.0</ele>
        <time>2018-10-03T11:28:19.000Z</time>
      </trkpt>
      <trkpt lat="42.51940333" lon="-8.01175">
        <ele>590.0</ele>
        <time>2018-10-03T11:28:20.000Z</time>
      </trkpt>
      <trkpt lat="42.51941" lon="-8.01174">
        <ele>590.0</ele>
        <time>2018-10-03T11:28:21.000Z</time>
      </trkpt>
      <trkpt lat="42.51941833" lon="-8.01172833">
        <ele>590.0</ele>
        <time>2018-10-03T11:28:22.000Z</time>
      </trkpt>
      <trkpt lat="42.51942667" lon="-8.01172">
        <ele>590.0</ele>
        <time>2018-10-03T11:28:23.000Z</time>
      </trkpt>
      <trkpt lat="42.51943667" lon="-8.01171">
        <ele>590.0</ele>
        <time>2018-10-03T11:28:24.000Z</time>
      </trkpt>
      <trkpt lat="42.51944333" lon="-8.01170333">
        <ele>590.0</ele>
        <time>2018-10-03T11:28:25.000Z</time>
      </trkpt>
      <trkpt lat="42.51944833" lon="-8.0117">
        <ele>589.0</ele>
        <time>2018-10-03T11:28:26.000Z</time>
      </trkpt>
      <trkpt lat="42.51945" lon="-8.0117">
        <ele>589.0</ele>
        <time>2018-10-03T11:28:27.000Z</time>
      </trkpt>
      <trkpt lat="42.51945167" lon="-8.01169833">
        <ele>589.0</ele>
        <time>2018-10-03T11:28:28.000Z</time>
      </trkpt>
      <trkpt lat="42.51945333" lon="-8.01169833">
        <ele>589.0</ele>
        <time>2018-10-03T11:28:29.000Z</time>
      </trkpt>
      <trkpt lat="42.519455" lon="-8.01169667">
        <ele>589.0</ele>
        <time>2018-10-03T11:28:30.000Z</time>
      </trkpt>
      <trkpt lat="42.51945667" lon="-8.01169667">
        <ele>589.0</ele>
        <time>2018-10-03T11:28:31.000Z</time>
      </trkpt>
      <trkpt lat="42.51945833" lon="-8.01169667">
        <ele>589.0</ele>
        <time>2018-10-03T11:28:32.000Z</time>
      </trkpt>
      <trkpt lat="42.51945833" lon="-8.011695">
        <ele>589.0</ele>
        <time>2018-10-03T11:28:33.000Z</time>
      </trkpt>
      <trkpt lat="42.51946" lon="-8.011695">
        <ele>589.0</ele>
        <time>2018-10-03T11:28:34.000Z</time>
      </trkpt>
      <trkpt lat="42.51946167" lon="-8.011695">
        <ele>589.0</ele>
        <time>2018-10-03T11:28:35.000Z</time>
      </trkpt>
      <trkpt lat="42.51946167" lon="-8.01169333">
        <ele>589.0</ele>
        <time>2018-10-03T11:28:36.000Z</time>
      </trkpt>
      <trkpt lat="42.51946167" lon="-8.01169333">
        <ele>589.0</ele>
        <time>2018-10-03T11:28:37.000Z</time>
      </trkpt>
      <trkpt lat="42.51946333" lon="-8.01169167">
        <ele>589.0</ele>
        <time>2018-10-03T11:28:38.000Z</time>
      </trkpt>
      <trkpt lat="42.519465" lon="-8.01168833">
        <ele>589.0</ele>
        <time>2018-10-03T11:28:39.000Z</time>
      </trkpt>
      <trkpt lat="42.51946833" lon="-8.01168">
        <ele>589.0</ele>
        <time>2018-10-03T11:28:40.000Z</time>
      </trkpt>
      <trkpt lat="42.51947333" lon="-8.01167333">
        <ele>589.0</ele>
        <time>2018-10-03T11:28:41.000Z</time>
      </trkpt>
      <trkpt lat="42.51948" lon="-8.01167167">
        <ele>589.0</ele>
        <time>2018-10-03T11:28:42.000Z</time>
      </trkpt>
      <trkpt lat="42.51948833" lon="-8.01166667">
        <ele>589.0</ele>
        <time>2018-10-03T11:28:43.000Z</time>
      </trkpt>
      <trkpt lat="42.519495" lon="-8.01165833">
        <ele>589.0</ele>
        <time>2018-10-03T11:28:44.000Z</time>
      </trkpt>
      <trkpt lat="42.519505" lon="-8.01165333">
        <ele>589.0</ele>
        <time>2018-10-03T11:28:45.000Z</time>
      </trkpt>
      <trkpt lat="42.51951167" lon="-8.01164833">
        <ele>589.0</ele>
        <time>2018-10-03T11:28:46.000Z</time>
      </trkpt>
      <trkpt lat="42.519515" lon="-8.011635">
        <ele>589.0</ele>
        <time>2018-10-03T11:28:47.000Z</time>
      </trkpt>
      <trkpt lat="42.51951667" lon="-8.011615">
        <ele>589.0</ele>
        <time>2018-10-03T11:28:48.000Z</time>
      </trkpt>
      <trkpt lat="42.51951833" lon="-8.011595">
        <ele>589.0</ele>
        <time>2018-10-03T11:28:49.000Z</time>
      </trkpt>
      <trkpt lat="42.51952" lon="-8.011575">
        <ele>590.0</ele>
        <time>2018-10-03T11:28:50.000Z</time>
      </trkpt>
      <trkpt lat="42.51951667" lon="-8.01155167">
        <ele>590.0</ele>
        <time>2018-10-03T11:28:51.000Z</time>
      </trkpt>
      <trkpt lat="42.51951167" lon="-8.01152833">
        <ele>590.0</ele>
        <time>2018-10-03T11:28:52.000Z</time>
      </trkpt>
      <trkpt lat="42.51951333" lon="-8.01150833">
        <ele>590.0</ele>
        <time>2018-10-03T11:28:53.000Z</time>
      </trkpt>
      <trkpt lat="42.51951" lon="-8.01148167">
        <ele>590.0</ele>
        <time>2018-10-03T11:28:54.000Z</time>
      </trkpt>
      <trkpt lat="42.51951167" lon="-8.01146333">
        <ele>590.0</ele>
        <time>2018-10-03T11:28:55.000Z</time>
      </trkpt>
      <trkpt lat="42.51951167" lon="-8.011445">
        <ele>591.0</ele>
        <time>2018-10-03T11:28:56.000Z</time>
      </trkpt>
      <trkpt lat="42.51951333" lon="-8.01142833">
        <ele>591.0</ele>
        <time>2018-10-03T11:28:57.000Z</time>
      </trkpt>
      <trkpt lat="42.51951167" lon="-8.011405">
        <ele>591.0</ele>
        <time>2018-10-03T11:28:58.000Z</time>
      </trkpt>
      <trkpt lat="42.51951167" lon="-8.011385">
        <ele>591.0</ele>
        <time>2018-10-03T11:28:59.000Z</time>
      </trkpt>
      <trkpt lat="42.51950667" lon="-8.01135833">
        <ele>591.0</ele>
        <time>2018-10-03T11:29:00.000Z</time>
      </trkpt>
      <trkpt lat="42.5195" lon="-8.01133667">
        <ele>591.0</ele>
        <time>2018-10-03T11:29:01.000Z</time>
      </trkpt>
      <trkpt lat="42.519495" lon="-8.01131333">
        <ele>591.0</ele>
        <time>2018-10-03T11:29:02.000Z</time>
      </trkpt>
      <trkpt lat="42.5195" lon="-8.0113">
        <ele>591.0</ele>
        <time>2018-10-03T11:29:03.000Z</time>
      </trkpt>
      <trkpt lat="42.51951" lon="-8.01129167">
        <ele>591.0</ele>
        <time>2018-10-03T11:29:04.000Z</time>
      </trkpt>
      <trkpt lat="42.51951667" lon="-8.01128">
        <ele>590.0</ele>
        <time>2018-10-03T11:29:05.000Z</time>
      </trkpt>
      <trkpt lat="42.51952167" lon="-8.01126167">
        <ele>590.0</ele>
        <time>2018-10-03T11:29:06.000Z</time>
      </trkpt>
      <trkpt lat="42.51953167" lon="-8.011245">
        <ele>591.0</ele>
        <time>2018-10-03T11:29:07.000Z</time>
      </trkpt>
      <trkpt lat="42.51953667" lon="-8.011225">
        <ele>591.0</ele>
        <time>2018-10-03T11:29:08.000Z</time>
      </trkpt>
      <trkpt lat="42.51954333" lon="-8.011205">
        <ele>591.0</ele>
        <time>2018-10-03T11:29:09.000Z</time>
      </trkpt>
      <trkpt lat="42.519555" lon="-8.01118167">
        <ele>591.0</ele>
        <time>2018-10-03T11:29:10.000Z</time>
      </trkpt>
      <trkpt lat="42.51956167" lon="-8.011165">
        <ele>591.0</ele>
        <time>2018-10-03T11:29:11.000Z</time>
      </trkpt>
      <trkpt lat="42.51957333" lon="-8.01115">
        <ele>591.0</ele>
        <time>2018-10-03T11:29:12.000Z</time>
      </trkpt>
      <trkpt lat="42.51959" lon="-8.011145">
        <ele>591.0</ele>
        <time>2018-10-03T11:29:13.000Z</time>
      </trkpt>
      <trkpt lat="42.51960667" lon="-8.01113833">
        <ele>591.0</ele>
        <time>2018-10-03T11:29:14.000Z</time>
      </trkpt>
      <trkpt lat="42.51961333" lon="-8.01112833">
        <ele>591.0</ele>
        <time>2018-10-03T11:29:15.000Z</time>
      </trkpt>
      <trkpt lat="42.51962" lon="-8.01111833">
        <ele>591.0</ele>
        <time>2018-10-03T11:29:16.000Z</time>
      </trkpt>
      <trkpt lat="42.519625" lon="-8.01111">
        <ele>591.0</ele>
        <time>2018-10-03T11:29:17.000Z</time>
      </trkpt>
      <trkpt lat="42.51963" lon="-8.011095">
        <ele>591.0</ele>
        <time>2018-10-03T11:29:18.000Z</time>
      </trkpt>
      <trkpt lat="42.519635" lon="-8.011085">
        <ele>591.0</ele>
        <time>2018-10-03T11:29:19.000Z</time>
      </trkpt>
      <trkpt lat="42.51964167" lon="-8.011075">
        <ele>591.0</ele>
        <time>2018-10-03T11:29:20.000Z</time>
      </trkpt>
      <trkpt lat="42.51965167" lon="-8.011065">
        <ele>591.0</ele>
        <time>2018-10-03T11:29:21.000Z</time>
      </trkpt>
      <trkpt lat="42.51966667" lon="-8.01105333">
        <ele>591.0</ele>
        <time>2018-10-03T11:29:22.000Z</time>
      </trkpt>
      <trkpt lat="42.51967833" lon="-8.01104167">
        <ele>591.0</ele>
        <time>2018-10-03T11:29:23.000Z</time>
      </trkpt>
      <trkpt lat="42.51969" lon="-8.01103">
        <ele>591.0</ele>
        <time>2018-10-03T11:29:24.000Z</time>
      </trkpt>
      <trkpt lat="42.51970333" lon="-8.01102">
        <ele>591.0</ele>
        <time>2018-10-03T11:29:25.000Z</time>
      </trkpt>
      <trkpt lat="42.51971833" lon="-8.01101">
        <ele>591.0</ele>
        <time>2018-10-03T11:29:26.000Z</time>
      </trkpt>
      <trkpt lat="42.51973333" lon="-8.01100167">
        <ele>591.0</ele>
        <time>2018-10-03T11:29:27.000Z</time>
      </trkpt>
      <trkpt lat="42.51974833" lon="-8.010995">
        <ele>592.0</ele>
        <time>2018-10-03T11:29:28.000Z</time>
      </trkpt>
      <trkpt lat="42.51976167" lon="-8.01099">
        <ele>592.0</ele>
        <time>2018-10-03T11:29:29.000Z</time>
      </trkpt>
      <trkpt lat="42.51978" lon="-8.01098833">
        <ele>592.0</ele>
        <time>2018-10-03T11:29:30.000Z</time>
      </trkpt>
      <trkpt lat="42.51979333" lon="-8.01099167">
        <ele>592.0</ele>
        <time>2018-10-03T11:29:31.000Z</time>
      </trkpt>
      <trkpt lat="42.51980833" lon="-8.01099333">
        <ele>592.0</ele>
        <time>2018-10-03T11:29:32.000Z</time>
      </trkpt>
      <trkpt lat="42.51982167" lon="-8.01099667">
        <ele>592.0</ele>
        <time>2018-10-03T11:29:33.000Z</time>
      </trkpt>
      <trkpt lat="42.51983167" lon="-8.011">
        <ele>592.0</ele>
        <time>2018-10-03T11:29:34.000Z</time>
      </trkpt>
      <trkpt lat="42.51984" lon="-8.01100167">
        <ele>592.0</ele>
        <time>2018-10-03T11:29:35.000Z</time>
      </trkpt>
      <trkpt lat="42.51985" lon="-8.01100167">
        <ele>592.0</ele>
        <time>2018-10-03T11:29:36.000Z</time>
      </trkpt>
      <trkpt lat="42.51986" lon="-8.01100167">
        <ele>592.0</ele>
        <time>2018-10-03T11:29:37.000Z</time>
      </trkpt>
      <trkpt lat="42.51987333" lon="-8.011">
        <ele>592.0</ele>
        <time>2018-10-03T11:29:38.000Z</time>
      </trkpt>
      <trkpt lat="42.519885" lon="-8.01099667">
        <ele>593.0</ele>
        <time>2018-10-03T11:29:39.000Z</time>
      </trkpt>
      <trkpt lat="42.51989667" lon="-8.010995">
        <ele>593.0</ele>
        <time>2018-10-03T11:29:40.000Z</time>
      </trkpt>
      <trkpt lat="42.51991" lon="-8.01099">
        <ele>593.0</ele>
        <time>2018-10-03T11:29:41.000Z</time>
      </trkpt>
      <trkpt lat="42.51992" lon="-8.01098167">
        <ele>593.0</ele>
        <time>2018-10-03T11:29:42.000Z</time>
      </trkpt>
      <trkpt lat="42.51993167" lon="-8.01097333">
        <ele>593.0</ele>
        <time>2018-10-03T11:29:43.000Z</time>
      </trkpt>
      <trkpt lat="42.519945" lon="-8.01096">
        <ele>594.0</ele>
        <time>2018-10-03T11:29:44.000Z</time>
      </trkpt>
      <trkpt lat="42.51996" lon="-8.010945">
        <ele>594.0</ele>
        <time>2018-10-03T11:29:45.000Z</time>
      </trkpt>
      <trkpt lat="42.51997333" lon="-8.010935">
        <ele>594.0</ele>
        <time>2018-10-03T11:29:46.000Z</time>
      </trkpt>
      <trkpt lat="42.51998667" lon="-8.01092667">
        <ele>594.0</ele>
        <time>2018-10-03T11:29:47.000Z</time>
      </trkpt>
      <trkpt lat="42.51999833" lon="-8.01092">
        <ele>594.0</ele>
        <time>2018-10-03T11:29:48.000Z</time>
      </trkpt>
      <trkpt lat="42.52000833" lon="-8.01091333">
        <ele>594.0</ele>
        <time>2018-10-03T11:29:49.000Z</time>
      </trkpt>
      <trkpt lat="42.52002" lon="-8.01090167">
        <ele>595.0</ele>
        <time>2018-10-03T11:29:50.000Z</time>
      </trkpt>
      <trkpt lat="42.52003167" lon="-8.010895">
        <ele>595.0</ele>
        <time>2018-10-03T11:29:51.000Z</time>
      </trkpt>
      <trkpt lat="42.52004333" lon="-8.01088667">
        <ele>595.0</ele>
        <time>2018-10-03T11:29:52.000Z</time>
      </trkpt>
      <trkpt lat="42.52005667" lon="-8.01087167">
        <ele>595.0</ele>
        <time>2018-10-03T11:29:53.000Z</time>
      </trkpt>
      <trkpt lat="42.52007" lon="-8.01086">
        <ele>595.0</ele>
        <time>2018-10-03T11:29:54.000Z</time>
      </trkpt>
      <trkpt lat="42.52008333" lon="-8.01084833">
        <ele>595.0</ele>
        <time>2018-10-03T11:29:55.000Z</time>
      </trkpt>
      <trkpt lat="42.520095" lon="-8.010835">
        <ele>595.0</ele>
        <time>2018-10-03T11:29:56.000Z</time>
      </trkpt>
      <trkpt lat="42.52010667" lon="-8.01081833">
        <ele>595.0</ele>
        <time>2018-10-03T11:29:57.000Z</time>
      </trkpt>
      <trkpt lat="42.52011667" lon="-8.01080333">
        <ele>595.0</ele>
        <time>2018-10-03T11:29:58.000Z</time>
      </trkpt>
      <trkpt lat="42.52012667" lon="-8.01079167">
        <ele>595.0</ele>
        <time>2018-10-03T11:29:59.000Z</time>
      </trkpt>
      <trkpt lat="42.520135" lon="-8.01078833">
        <ele>595.0</ele>
        <time>2018-10-03T11:30:00.000Z</time>
      </trkpt>
      <trkpt lat="42.52014667" lon="-8.01079">
        <ele>595.0</ele>
        <time>2018-10-03T11:30:01.000Z</time>
      </trkpt>
      <trkpt lat="42.52015833" lon="-8.01079833">
        <ele>595.0</ele>
        <time>2018-10-03T11:30:02.000Z</time>
      </trkpt>
      <trkpt lat="42.52017167" lon="-8.010805">
        <ele>595.0</ele>
        <time>2018-10-03T11:30:03.000Z</time>
      </trkpt>
      <trkpt lat="42.520185" lon="-8.01080833">
        <ele>595.0</ele>
        <time>2018-10-03T11:30:04.000Z</time>
      </trkpt>
      <trkpt lat="42.52019667" lon="-8.010805">
        <ele>595.0</ele>
        <time>2018-10-03T11:30:05.000Z</time>
      </trkpt>
      <trkpt lat="42.52020833" lon="-8.010795">
        <ele>596.0</ele>
        <time>2018-10-03T11:30:06.000Z</time>
      </trkpt>
      <trkpt lat="42.52021667" lon="-8.01078833">
        <ele>596.0</ele>
        <time>2018-10-03T11:30:07.000Z</time>
      </trkpt>
      <trkpt lat="42.52022833" lon="-8.01077833">
        <ele>596.0</ele>
        <time>2018-10-03T11:30:08.000Z</time>
      </trkpt>
      <trkpt lat="42.52024167" lon="-8.01077">
        <ele>596.0</ele>
        <time>2018-10-03T11:30:09.000Z</time>
      </trkpt>
      <trkpt lat="42.52025667" lon="-8.01076167">
        <ele>596.0</ele>
        <time>2018-10-03T11:30:10.000Z</time>
      </trkpt>
      <trkpt lat="42.52026667" lon="-8.01074667">
        <ele>596.0</ele>
        <time>2018-10-03T11:30:11.000Z</time>
      </trkpt>
      <trkpt lat="42.52028" lon="-8.01072333">
        <ele>596.0</ele>
        <time>2018-10-03T11:30:12.000Z</time>
      </trkpt>
      <trkpt lat="42.52029333" lon="-8.01070333">
        <ele>596.0</ele>
        <time>2018-10-03T11:30:13.000Z</time>
      </trkpt>
      <trkpt lat="42.52030667" lon="-8.01069">
        <ele>596.0</ele>
        <time>2018-10-03T11:30:14.000Z</time>
      </trkpt>
      <trkpt lat="42.52032333" lon="-8.01068333">
        <ele>596.0</ele>
        <time>2018-10-03T11:30:15.000Z</time>
      </trkpt>
      <trkpt lat="42.52034" lon="-8.01068">
        <ele>596.0</ele>
        <time>2018-10-03T11:30:16.000Z</time>
      </trkpt>
      <trkpt lat="42.52035333" lon="-8.01068">
        <ele>596.0</ele>
        <time>2018-10-03T11:30:17.000Z</time>
      </trkpt>
      <trkpt lat="42.52036667" lon="-8.01068333">
        <ele>596.0</ele>
        <time>2018-10-03T11:30:18.000Z</time>
      </trkpt>
      <trkpt lat="42.52038" lon="-8.01068667">
        <ele>596.0</ele>
        <time>2018-10-03T11:30:19.000Z</time>
      </trkpt>
      <trkpt lat="42.520395" lon="-8.01069167">
        <ele>596.0</ele>
        <time>2018-10-03T11:30:20.000Z</time>
      </trkpt>
      <trkpt lat="42.52041333" lon="-8.01069167">
        <ele>596.0</ele>
        <time>2018-10-03T11:30:21.000Z</time>
      </trkpt>
      <trkpt lat="42.52042833" lon="-8.01069167">
        <ele>596.0</ele>
        <time>2018-10-03T11:30:22.000Z</time>
      </trkpt>
      <trkpt lat="42.52044" lon="-8.01069667">
        <ele>596.0</ele>
        <time>2018-10-03T11:30:23.000Z</time>
      </trkpt>
      <trkpt lat="42.52044833" lon="-8.01070167">
        <ele>596.0</ele>
        <time>2018-10-03T11:30:24.000Z</time>
      </trkpt>
      <trkpt lat="42.52045333" lon="-8.01070667">
        <ele>596.0</ele>
        <time>2018-10-03T11:30:25.000Z</time>
      </trkpt>
      <trkpt lat="42.52046" lon="-8.01071667">
        <ele>596.0</ele>
        <time>2018-10-03T11:30:26.000Z</time>
      </trkpt>
      <trkpt lat="42.520465" lon="-8.010725">
        <ele>597.0</ele>
        <time>2018-10-03T11:30:27.000Z</time>
      </trkpt>
      <trkpt lat="42.52047167" lon="-8.01073333">
        <ele>597.0</ele>
        <time>2018-10-03T11:30:28.000Z</time>
      </trkpt>
      <trkpt lat="42.52048" lon="-8.01074167">
        <ele>597.0</ele>
        <time>2018-10-03T11:30:29.000Z</time>
      </trkpt>
      <trkpt lat="42.52049333" lon="-8.01073">
        <ele>597.0</ele>
        <time>2018-10-03T11:30:30.000Z</time>
      </trkpt>
      <trkpt lat="42.520505" lon="-8.01072167">
        <ele>597.0</ele>
        <time>2018-10-03T11:30:31.000Z</time>
      </trkpt>
      <trkpt lat="42.52051333" lon="-8.010715">
        <ele>597.0</ele>
        <time>2018-10-03T11:30:32.000Z</time>
      </trkpt>
      <trkpt lat="42.52052333" lon="-8.01071">
        <ele>597.0</ele>
        <time>2018-10-03T11:30:33.000Z</time>
      </trkpt>
      <trkpt lat="42.52053333" lon="-8.01070667">
        <ele>597.0</ele>
        <time>2018-10-03T11:30:34.000Z</time>
      </trkpt>
      <trkpt lat="42.52054833" lon="-8.010705">
        <ele>597.0</ele>
        <time>2018-10-03T11:30:35.000Z</time>
      </trkpt>
      <trkpt lat="42.52055667" lon="-8.010705">
        <ele>597.0</ele>
        <time>2018-10-03T11:30:36.000Z</time>
      </trkpt>
      <trkpt lat="42.52056667" lon="-8.01070333">
        <ele>597.0</ele>
        <time>2018-10-03T11:30:37.000Z</time>
      </trkpt>
      <trkpt lat="42.52057333" lon="-8.010705">
        <ele>597.0</ele>
        <time>2018-10-03T11:30:38.000Z</time>
      </trkpt>
      <trkpt lat="42.52058" lon="-8.01070833">
        <ele>597.0</ele>
        <time>2018-10-03T11:30:39.000Z</time>
      </trkpt>
      <trkpt lat="42.52058833" lon="-8.01071">
        <ele>597.0</ele>
        <time>2018-10-03T11:30:40.000Z</time>
      </trkpt>
      <trkpt lat="42.52059833" lon="-8.01070833">
        <ele>598.0</ele>
        <time>2018-10-03T11:30:41.000Z</time>
      </trkpt>
      <trkpt lat="42.52061333" lon="-8.01070167">
        <ele>598.0</ele>
        <time>2018-10-03T11:30:42.000Z</time>
      </trkpt>
      <trkpt lat="42.52062833" lon="-8.010695">
        <ele>598.0</ele>
        <time>2018-10-03T11:30:43.000Z</time>
      </trkpt>
      <trkpt lat="42.52064167" lon="-8.01068833">
        <ele>599.0</ele>
        <time>2018-10-03T11:30:44.000Z</time>
      </trkpt>
      <trkpt lat="42.520655" lon="-8.01068333">
        <ele>599.0</ele>
        <time>2018-10-03T11:30:45.000Z</time>
      </trkpt>
      <trkpt lat="42.52067167" lon="-8.01067167">
        <ele>599.0</ele>
        <time>2018-10-03T11:30:46.000Z</time>
      </trkpt>
      <trkpt lat="42.52068833" lon="-8.01066167">
        <ele>600.0</ele>
        <time>2018-10-03T11:30:47.000Z</time>
      </trkpt>
      <trkpt lat="42.52070167" lon="-8.01065667">
        <ele>600.0</ele>
        <time>2018-10-03T11:30:48.000Z</time>
      </trkpt>
      <trkpt lat="42.520715" lon="-8.01064833">
        <ele>600.0</ele>
        <time>2018-10-03T11:30:49.000Z</time>
      </trkpt>
      <trkpt lat="42.52072833" lon="-8.01064">
        <ele>600.0</ele>
        <time>2018-10-03T11:30:50.000Z</time>
      </trkpt>
      <trkpt lat="42.52074167" lon="-8.01063167">
        <ele>600.0</ele>
        <time>2018-10-03T11:30:51.000Z</time>
      </trkpt>
      <trkpt lat="42.520755" lon="-8.01062">
        <ele>600.0</ele>
        <time>2018-10-03T11:30:52.000Z</time>
      </trkpt>
      <trkpt lat="42.52076833" lon="-8.01060833">
        <ele>600.0</ele>
        <time>2018-10-03T11:30:53.000Z</time>
      </trkpt>
      <trkpt lat="42.52078" lon="-8.01059833">
        <ele>600.0</ele>
        <time>2018-10-03T11:30:54.000Z</time>
      </trkpt>
      <trkpt lat="42.52079167" lon="-8.01058833">
        <ele>600.0</ele>
        <time>2018-10-03T11:30:55.000Z</time>
      </trkpt>
      <trkpt lat="42.52080167" lon="-8.010585">
        <ele>600.0</ele>
        <time>2018-10-03T11:30:56.000Z</time>
      </trkpt>
      <trkpt lat="42.52081833" lon="-8.01058">
        <ele>600.0</ele>
        <time>2018-10-03T11:30:57.000Z</time>
      </trkpt>
      <trkpt lat="42.52083" lon="-8.01058">
        <ele>600.0</ele>
        <time>2018-10-03T11:30:58.000Z</time>
      </trkpt>
      <trkpt lat="42.52084167" lon="-8.01058167">
        <ele>600.0</ele>
        <time>2018-10-03T11:30:59.000Z</time>
      </trkpt>
      <trkpt lat="42.520855" lon="-8.01058333">
        <ele>600.0</ele>
        <time>2018-10-03T11:31:00.000Z</time>
      </trkpt>
      <trkpt lat="42.52087167" lon="-8.01058333">
        <ele>600.0</ele>
        <time>2018-10-03T11:31:01.000Z</time>
      </trkpt>
      <trkpt lat="42.52089" lon="-8.01058">
        <ele>600.0</ele>
        <time>2018-10-03T11:31:02.000Z</time>
      </trkpt>
      <trkpt lat="42.520905" lon="-8.01057833">
        <ele>600.0</ele>
        <time>2018-10-03T11:31:03.000Z</time>
      </trkpt>
      <trkpt lat="42.52092" lon="-8.01058167">
        <ele>600.0</ele>
        <time>2018-10-03T11:31:04.000Z</time>
      </trkpt>
      <trkpt lat="42.52093333" lon="-8.010585">
        <ele>600.0</ele>
        <time>2018-10-03T11:31:05.000Z</time>
      </trkpt>
      <trkpt lat="42.52094667" lon="-8.010585">
        <ele>600.0</ele>
        <time>2018-10-03T11:31:06.000Z</time>
      </trkpt>
      <trkpt lat="42.52096" lon="-8.01058333">
        <ele>600.0</ele>
        <time>2018-10-03T11:31:07.000Z</time>
      </trkpt>
      <trkpt lat="42.52097167" lon="-8.01058333">
        <ele>600.0</ele>
        <time>2018-10-03T11:31:08.000Z</time>
      </trkpt>
      <trkpt lat="42.52098333" lon="-8.01058">
        <ele>600.0</ele>
        <time>2018-10-03T11:31:09.000Z</time>
      </trkpt>
      <trkpt lat="42.52099667" lon="-8.01057833">
        <ele>600.0</ele>
        <time>2018-10-03T11:31:10.000Z</time>
      </trkpt>
      <trkpt lat="42.52101" lon="-8.01057167">
        <ele>600.0</ele>
        <time>2018-10-03T11:31:11.000Z</time>
      </trkpt>
      <trkpt lat="42.521025" lon="-8.01057">
        <ele>600.0</ele>
        <time>2018-10-03T11:31:12.000Z</time>
      </trkpt>
      <trkpt lat="42.521035" lon="-8.01056833">
        <ele>600.0</ele>
        <time>2018-10-03T11:31:13.000Z</time>
      </trkpt>
      <trkpt lat="42.52104333" lon="-8.01056667">
        <ele>600.0</ele>
        <time>2018-10-03T11:31:14.000Z</time>
      </trkpt>
      <trkpt lat="42.52105333" lon="-8.01056667">
        <ele>600.0</ele>
        <time>2018-10-03T11:31:15.000Z</time>
      </trkpt>
      <trkpt lat="42.52106333" lon="-8.01056833">
        <ele>600.0</ele>
        <time>2018-10-03T11:31:16.000Z</time>
      </trkpt>
      <trkpt lat="42.52108167" lon="-8.01056167">
        <ele>600.0</ele>
        <time>2018-10-03T11:31:17.000Z</time>
      </trkpt>
      <trkpt lat="42.5211" lon="-8.01054667">
        <ele>600.0</ele>
        <time>2018-10-03T11:31:18.000Z</time>
      </trkpt>
      <trkpt lat="42.52111333" lon="-8.01054">
        <ele>600.0</ele>
        <time>2018-10-03T11:31:19.000Z</time>
      </trkpt>
      <trkpt lat="42.521125" lon="-8.01053833">
        <ele>600.0</ele>
        <time>2018-10-03T11:31:20.000Z</time>
      </trkpt>
      <trkpt lat="42.52114" lon="-8.01052833">
        <ele>600.0</ele>
        <time>2018-10-03T11:31:21.000Z</time>
      </trkpt>
      <trkpt lat="42.521155" lon="-8.01052333">
        <ele>600.0</ele>
        <time>2018-10-03T11:31:22.000Z</time>
      </trkpt>
      <trkpt lat="42.52116167" lon="-8.01052667">
        <ele>601.0</ele>
        <time>2018-10-03T11:31:23.000Z</time>
      </trkpt>
      <trkpt lat="42.521165" lon="-8.01052833">
        <ele>601.0</ele>
        <time>2018-10-03T11:31:24.000Z</time>
      </trkpt>
      <trkpt lat="42.521165" lon="-8.01052">
        <ele>601.0</ele>
        <time>2018-10-03T11:31:25.000Z</time>
      </trkpt>
      <trkpt lat="42.52116333" lon="-8.01050833">
        <ele>601.0</ele>
        <time>2018-10-03T11:31:26.000Z</time>
      </trkpt>
      <trkpt lat="42.52115833" lon="-8.0105">
        <ele>601.0</ele>
        <time>2018-10-03T11:31:27.000Z</time>
      </trkpt>
      <trkpt lat="42.52115167" lon="-8.01049667">
        <ele>601.0</ele>
        <time>2018-10-03T11:31:28.000Z</time>
      </trkpt>
      <trkpt lat="42.52114333" lon="-8.0105">
        <ele>601.0</ele>
        <time>2018-10-03T11:31:29.000Z</time>
      </trkpt>
      <trkpt lat="42.52113167" lon="-8.01051167">
        <ele>601.0</ele>
        <time>2018-10-03T11:31:30.000Z</time>
      </trkpt>
      <trkpt lat="42.52112167" lon="-8.01052833">
        <ele>601.0</ele>
        <time>2018-10-03T11:31:31.000Z</time>
      </trkpt>
      <trkpt lat="42.52111" lon="-8.01054667">
        <ele>601.0</ele>
        <time>2018-10-03T11:31:32.000Z</time>
      </trkpt>
      <trkpt lat="42.5211" lon="-8.010565">
        <ele>601.0</ele>
        <time>2018-10-03T11:31:33.000Z</time>
      </trkpt>
      <trkpt lat="42.52109" lon="-8.01058333">
        <ele>601.0</ele>
        <time>2018-10-03T11:31:34.000Z</time>
      </trkpt>
      <trkpt lat="42.52108333" lon="-8.01059833">
        <ele>601.0</ele>
        <time>2018-10-03T11:31:35.000Z</time>
      </trkpt>
      <trkpt lat="42.52107833" lon="-8.01061833">
        <ele>601.0</ele>
        <time>2018-10-03T11:31:36.000Z</time>
      </trkpt>
      <trkpt lat="42.52107333" lon="-8.01063833">
        <ele>601.0</ele>
        <time>2018-10-03T11:31:37.000Z</time>
      </trkpt>
      <trkpt lat="42.52106833" lon="-8.01065667">
        <ele>601.0</ele>
        <time>2018-10-03T11:31:38.000Z</time>
      </trkpt>
      <trkpt lat="42.52106167" lon="-8.010675">
        <ele>601.0</ele>
        <time>2018-10-03T11:31:39.000Z</time>
      </trkpt>
      <trkpt lat="42.521055" lon="-8.01069167">
        <ele>601.0</ele>
        <time>2018-10-03T11:31:40.000Z</time>
      </trkpt>
      <trkpt lat="42.52104833" lon="-8.01071">
        <ele>601.0</ele>
        <time>2018-10-03T11:31:41.000Z</time>
      </trkpt>
      <trkpt lat="42.52104167" lon="-8.01073">
        <ele>601.0</ele>
        <time>2018-10-03T11:31:42.000Z</time>
      </trkpt>
      <trkpt lat="42.52103333" lon="-8.01074667">
        <ele>601.0</ele>
        <time>2018-10-03T11:31:43.000Z</time>
      </trkpt>
      <trkpt lat="42.52102833" lon="-8.01076333">
        <ele>601.0</ele>
        <time>2018-10-03T11:31:44.000Z</time>
      </trkpt>
      <trkpt lat="42.52102167" lon="-8.01077667">
        <ele>601.0</ele>
        <time>2018-10-03T11:31:45.000Z</time>
      </trkpt>
      <trkpt lat="42.521015" lon="-8.01078833">
        <ele>601.0</ele>
        <time>2018-10-03T11:31:46.000Z</time>
      </trkpt>
      <trkpt lat="42.52100833" lon="-8.01080667">
        <ele>601.0</ele>
        <time>2018-10-03T11:31:47.000Z</time>
      </trkpt>
      <trkpt lat="42.52100333" lon="-8.01082333">
        <ele>601.0</ele>
        <time>2018-10-03T11:31:48.000Z</time>
      </trkpt>
      <trkpt lat="42.521" lon="-8.01083833">
        <ele>601.0</ele>
        <time>2018-10-03T11:31:49.000Z</time>
      </trkpt>
      <trkpt lat="42.52099667" lon="-8.01085667">
        <ele>601.0</ele>
        <time>2018-10-03T11:31:50.000Z</time>
      </trkpt>
      <trkpt lat="42.52099167" lon="-8.01087333">
        <ele>601.0</ele>
        <time>2018-10-03T11:31:51.000Z</time>
      </trkpt>
      <trkpt lat="42.520995" lon="-8.01088667">
        <ele>601.0</ele>
        <time>2018-10-03T11:31:52.000Z</time>
      </trkpt>
      <trkpt lat="42.520995" lon="-8.01089667">
        <ele>601.0</ele>
        <time>2018-10-03T11:31:53.000Z</time>
      </trkpt>
      <trkpt lat="42.52099667" lon="-8.01090333">
        <ele>602.0</ele>
        <time>2018-10-03T11:31:54.000Z</time>
      </trkpt>
      <trkpt lat="42.52100167" lon="-8.01090667">
        <ele>602.0</ele>
        <time>2018-10-03T11:31:55.000Z</time>
      </trkpt>
      <trkpt lat="42.52100333" lon="-8.01091167">
        <ele>602.0</ele>
        <time>2018-10-03T11:31:56.000Z</time>
      </trkpt>
      <trkpt lat="42.52100167" lon="-8.010915">
        <ele>602.0</ele>
        <time>2018-10-03T11:31:57.000Z</time>
      </trkpt>
      <trkpt lat="42.521" lon="-8.01091833">
        <ele>602.0</ele>
        <time>2018-10-03T11:31:58.000Z</time>
      </trkpt>
      <trkpt lat="42.52099833" lon="-8.01092167">
        <ele>603.0</ele>
        <time>2018-10-03T11:31:59.000Z</time>
      </trkpt>
      <trkpt lat="42.52099667" lon="-8.01092333">
        <ele>603.0</ele>
        <time>2018-10-03T11:32:00.000Z</time>
      </trkpt>
      <trkpt lat="42.520995" lon="-8.01092667">
        <ele>603.0</ele>
        <time>2018-10-03T11:32:01.000Z</time>
      </trkpt>
      <trkpt lat="42.52099333" lon="-8.01092833">
        <ele>603.0</ele>
        <time>2018-10-03T11:32:02.000Z</time>
      </trkpt>
      <trkpt lat="42.52099167" lon="-8.01093">
        <ele>603.0</ele>
        <time>2018-10-03T11:32:03.000Z</time>
      </trkpt>
      <trkpt lat="42.52099167" lon="-8.01093167">
        <ele>603.0</ele>
        <time>2018-10-03T11:32:04.000Z</time>
      </trkpt>
      <trkpt lat="42.52099" lon="-8.01093333">
        <ele>603.0</ele>
        <time>2018-10-03T11:32:05.000Z</time>
      </trkpt>
      <trkpt lat="42.52098667" lon="-8.01093833">
        <ele>603.0</ele>
        <time>2018-10-03T11:32:06.000Z</time>
      </trkpt>
      <trkpt lat="42.52098333" lon="-8.01095">
        <ele>603.0</ele>
        <time>2018-10-03T11:32:07.000Z</time>
      </trkpt>
      <trkpt lat="42.52097667" lon="-8.01096667">
        <ele>604.0</ele>
        <time>2018-10-03T11:32:08.000Z</time>
      </trkpt>
      <trkpt lat="42.52096833" lon="-8.01098167">
        <ele>604.0</ele>
        <time>2018-10-03T11:32:09.000Z</time>
      </trkpt>
      <trkpt lat="42.52096333" lon="-8.01099833">
        <ele>604.0</ele>
        <time>2018-10-03T11:32:10.000Z</time>
      </trkpt>
      <trkpt lat="42.52096" lon="-8.01100833">
        <ele>604.0</ele>
        <time>2018-10-03T11:32:11.000Z</time>
      </trkpt>
      <trkpt lat="42.52095667" lon="-8.01102333">
        <ele>604.0</ele>
        <time>2018-10-03T11:32:12.000Z</time>
      </trkpt>
      <trkpt lat="42.52095" lon="-8.01103833">
        <ele>605.0</ele>
        <time>2018-10-03T11:32:13.000Z</time>
      </trkpt>
      <trkpt lat="42.52094167" lon="-8.01105167">
        <ele>605.0</ele>
        <time>2018-10-03T11:32:14.000Z</time>
      </trkpt>
      <trkpt lat="42.52093333" lon="-8.011065">
        <ele>605.0</ele>
        <time>2018-10-03T11:32:15.000Z</time>
      </trkpt>
      <trkpt lat="42.52092333" lon="-8.011075">
        <ele>605.0</ele>
        <time>2018-10-03T11:32:16.000Z</time>
      </trkpt>
      <trkpt lat="42.52091333" lon="-8.01108667">
        <ele>605.0</ele>
        <time>2018-10-03T11:32:17.000Z</time>
      </trkpt>
      <trkpt lat="42.52090333" lon="-8.01109667">
        <ele>605.0</ele>
        <time>2018-10-03T11:32:18.000Z</time>
      </trkpt>
      <trkpt lat="42.52089333" lon="-8.011105">
        <ele>605.0</ele>
        <time>2018-10-03T11:32:19.000Z</time>
      </trkpt>
      <trkpt lat="42.520885" lon="-8.01110667">
        <ele>605.0</ele>
        <time>2018-10-03T11:32:20.000Z</time>
      </trkpt>
      <trkpt lat="42.52087667" lon="-8.011115">
        <ele>605.0</ele>
        <time>2018-10-03T11:32:21.000Z</time>
      </trkpt>
      <trkpt lat="42.52086667" lon="-8.011125">
        <ele>605.0</ele>
        <time>2018-10-03T11:32:22.000Z</time>
      </trkpt>
      <trkpt lat="42.52085667" lon="-8.01113833">
        <ele>605.0</ele>
        <time>2018-10-03T11:32:23.000Z</time>
      </trkpt>
      <trkpt lat="42.52085" lon="-8.01115333">
        <ele>605.0</ele>
        <time>2018-10-03T11:32:24.000Z</time>
      </trkpt>
      <trkpt lat="42.52084333" lon="-8.01116833">
        <ele>605.0</ele>
        <time>2018-10-03T11:32:25.000Z</time>
      </trkpt>
      <trkpt lat="42.52083667" lon="-8.01117333">
        <ele>605.0</ele>
        <time>2018-10-03T11:32:26.000Z</time>
      </trkpt>
      <trkpt lat="42.52082833" lon="-8.01118833">
        <ele>605.0</ele>
        <time>2018-10-03T11:32:27.000Z</time>
      </trkpt>
      <trkpt lat="42.52082" lon="-8.01120167">
        <ele>605.0</ele>
        <time>2018-10-03T11:32:28.000Z</time>
      </trkpt>
      <trkpt lat="42.52081" lon="-8.01120667">
        <ele>605.0</ele>
        <time>2018-10-03T11:32:29.000Z</time>
      </trkpt>
      <trkpt lat="42.52079667" lon="-8.01121">
        <ele>606.0</ele>
        <time>2018-10-03T11:32:30.000Z</time>
      </trkpt>
      <trkpt lat="42.520785" lon="-8.01120667">
        <ele>606.0</ele>
        <time>2018-10-03T11:32:31.000Z</time>
      </trkpt>
      <trkpt lat="42.52077333" lon="-8.011205">
        <ele>606.0</ele>
        <time>2018-10-03T11:32:32.000Z</time>
      </trkpt>
      <trkpt lat="42.52076167" lon="-8.01120833">
        <ele>606.0</ele>
        <time>2018-10-03T11:32:33.000Z</time>
      </trkpt>
      <trkpt lat="42.52074667" lon="-8.01121333">
        <ele>606.0</ele>
        <time>2018-10-03T11:32:34.000Z</time>
      </trkpt>
      <trkpt lat="42.52073333" lon="-8.01121833">
        <ele>606.0</ele>
        <time>2018-10-03T11:32:35.000Z</time>
      </trkpt>
      <trkpt lat="42.52072333" lon="-8.01123167">
        <ele>606.0</ele>
        <time>2018-10-03T11:32:36.000Z</time>
      </trkpt>
      <trkpt lat="42.52071333" lon="-8.01123667">
        <ele>606.0</ele>
        <time>2018-10-03T11:32:37.000Z</time>
      </trkpt>
      <trkpt lat="42.52070333" lon="-8.011245">
        <ele>607.0</ele>
        <time>2018-10-03T11:32:38.000Z</time>
      </trkpt>
      <trkpt lat="42.52069" lon="-8.01126333">
        <ele>607.0</ele>
        <time>2018-10-03T11:32:39.000Z</time>
      </trkpt>
      <trkpt lat="42.52067667" lon="-8.01128167">
        <ele>607.0</ele>
        <time>2018-10-03T11:32:40.000Z</time>
      </trkpt>
      <trkpt lat="42.52066167" lon="-8.011305">
        <ele>607.0</ele>
        <time>2018-10-03T11:32:41.000Z</time>
      </trkpt>
      <trkpt lat="42.52065167" lon="-8.01132">
        <ele>607.0</ele>
        <time>2018-10-03T11:32:42.000Z</time>
      </trkpt>
      <trkpt lat="42.52064" lon="-8.01132833">
        <ele>607.0</ele>
        <time>2018-10-03T11:32:43.000Z</time>
      </trkpt>
      <trkpt lat="42.52063167" lon="-8.01133833">
        <ele>608.0</ele>
        <time>2018-10-03T11:32:44.000Z</time>
      </trkpt>
      <trkpt lat="42.52062333" lon="-8.01134167">
        <ele>608.0</ele>
        <time>2018-10-03T11:32:45.000Z</time>
      </trkpt>
      <trkpt lat="42.52062167" lon="-8.01133833">
        <ele>608.0</ele>
        <time>2018-10-03T11:32:46.000Z</time>
      </trkpt>
      <trkpt lat="42.52062167" lon="-8.01133667">
        <ele>608.0</ele>
        <time>2018-10-03T11:32:47.000Z</time>
      </trkpt>
      <trkpt lat="42.52062333" lon="-8.01133167">
        <ele>609.0</ele>
        <time>2018-10-03T11:32:48.000Z</time>
      </trkpt>
      <trkpt lat="42.52062333" lon="-8.01132833">
        <ele>609.0</ele>
        <time>2018-10-03T11:32:49.000Z</time>
      </trkpt>
      <trkpt lat="42.52062333" lon="-8.011325">
        <ele>609.0</ele>
        <time>2018-10-03T11:32:50.000Z</time>
      </trkpt>
      <trkpt lat="42.52062333" lon="-8.01132333">
        <ele>609.0</ele>
        <time>2018-10-03T11:32:51.000Z</time>
      </trkpt>
      <trkpt lat="42.52062667" lon="-8.01131667">
        <ele>609.0</ele>
        <time>2018-10-03T11:32:52.000Z</time>
      </trkpt>
      <trkpt lat="42.52063167" lon="-8.01130333">
        <ele>609.0</ele>
        <time>2018-10-03T11:32:53.000Z</time>
      </trkpt>
      <trkpt lat="42.52063667" lon="-8.01128833">
        <ele>609.0</ele>
        <time>2018-10-03T11:32:54.000Z</time>
      </trkpt>
      <trkpt lat="42.52064167" lon="-8.011275">
        <ele>609.0</ele>
        <time>2018-10-03T11:32:55.000Z</time>
      </trkpt>
      <trkpt lat="42.520645" lon="-8.01125833">
        <ele>609.0</ele>
        <time>2018-10-03T11:32:56.000Z</time>
      </trkpt>
      <trkpt lat="42.52065" lon="-8.01124">
        <ele>609.0</ele>
        <time>2018-10-03T11:32:57.000Z</time>
      </trkpt>
      <trkpt lat="42.52065333" lon="-8.01121667">
        <ele>609.0</ele>
        <time>2018-10-03T11:32:58.000Z</time>
      </trkpt>
      <trkpt lat="42.52065833" lon="-8.01119833">
        <ele>609.0</ele>
        <time>2018-10-03T11:32:59.000Z</time>
      </trkpt>
      <trkpt lat="42.52066167" lon="-8.01118">
        <ele>609.0</ele>
        <time>2018-10-03T11:33:00.000Z</time>
      </trkpt>
      <trkpt lat="42.520665" lon="-8.01116333">
        <ele>609.0</ele>
        <time>2018-10-03T11:33:01.000Z</time>
      </trkpt>
      <trkpt lat="42.52066667" lon="-8.01115">
        <ele>609.0</ele>
        <time>2018-10-03T11:33:02.000Z</time>
      </trkpt>
      <trkpt lat="42.52067333" lon="-8.01114333">
        <ele>609.0</ele>
        <time>2018-10-03T11:33:03.000Z</time>
      </trkpt>
      <trkpt lat="42.52067833" lon="-8.01114">
        <ele>609.0</ele>
        <time>2018-10-03T11:33:04.000Z</time>
      </trkpt>
      <trkpt lat="42.52068" lon="-8.01114">
        <ele>609.0</ele>
        <time>2018-10-03T11:33:05.000Z</time>
      </trkpt>
      <trkpt lat="42.52053667" lon="-8.01122167">
        <ele>607.0</ele>
        <time>2018-10-03T11:33:06.000Z</time>
      </trkpt>
      <trkpt lat="42.520545" lon="-8.011225">
        <ele>607.0</ele>
        <time>2018-10-03T11:33:07.000Z</time>
      </trkpt>
      <trkpt lat="42.520555" lon="-8.01123167">
        <ele>607.0</ele>
        <time>2018-10-03T11:33:08.000Z</time>
      </trkpt>
      <trkpt lat="42.52057167" lon="-8.01123833">
        <ele>607.0</ele>
        <time>2018-10-03T11:33:09.000Z</time>
      </trkpt>
      <trkpt lat="42.520585" lon="-8.01123833">
        <ele>607.0</ele>
        <time>2018-10-03T11:33:10.000Z</time>
      </trkpt>
      <trkpt lat="42.52059833" lon="-8.01124167">
        <ele>607.0</ele>
        <time>2018-10-03T11:33:11.000Z</time>
      </trkpt>
      <trkpt lat="42.52061" lon="-8.01124333">
        <ele>607.0</ele>
        <time>2018-10-03T11:33:12.000Z</time>
      </trkpt>
      <trkpt lat="42.520625" lon="-8.011245">
        <ele>608.0</ele>
        <time>2018-10-03T11:33:13.000Z</time>
      </trkpt>
      <trkpt lat="42.52063833" lon="-8.01124667">
        <ele>608.0</ele>
        <time>2018-10-03T11:33:14.000Z</time>
      </trkpt>
      <trkpt lat="42.52065333" lon="-8.01124667">
        <ele>608.0</ele>
        <time>2018-10-03T11:33:15.000Z</time>
      </trkpt>
      <trkpt lat="42.52066833" lon="-8.011245">
        <ele>608.0</ele>
        <time>2018-10-03T11:33:16.000Z</time>
      </trkpt>
      <trkpt lat="42.52068333" lon="-8.01124">
        <ele>608.0</ele>
        <time>2018-10-03T11:33:17.000Z</time>
      </trkpt>
      <trkpt lat="42.5207" lon="-8.011235">
        <ele>608.0</ele>
        <time>2018-10-03T11:33:18.000Z</time>
      </trkpt>
      <trkpt lat="42.52071667" lon="-8.01122833">
        <ele>609.0</ele>
        <time>2018-10-03T11:33:19.000Z</time>
      </trkpt>
      <trkpt lat="42.52073333" lon="-8.011225">
        <ele>609.0</ele>
        <time>2018-10-03T11:33:20.000Z</time>
      </trkpt>
      <trkpt lat="42.52074833" lon="-8.01122">
        <ele>609.0</ele>
        <time>2018-10-03T11:33:21.000Z</time>
      </trkpt>
      <trkpt lat="42.52076333" lon="-8.011215">
        <ele>609.0</ele>
        <time>2018-10-03T11:33:22.000Z</time>
      </trkpt>
      <trkpt lat="42.52077667" lon="-8.01120833">
        <ele>609.0</ele>
        <time>2018-10-03T11:33:23.000Z</time>
      </trkpt>
      <trkpt lat="42.52079333" lon="-8.01120167">
        <ele>609.0</ele>
        <time>2018-10-03T11:33:24.000Z</time>
      </trkpt>
      <trkpt lat="42.52080833" lon="-8.01119333">
        <ele>609.0</ele>
        <time>2018-10-03T11:33:25.000Z</time>
      </trkpt>
      <trkpt lat="42.52081667" lon="-8.01118667">
        <ele>609.0</ele>
        <time>2018-10-03T11:33:26.000Z</time>
      </trkpt>
      <trkpt lat="42.52082" lon="-8.01118333">
        <ele>608.0</ele>
        <time>2018-10-03T11:33:27.000Z</time>
      </trkpt>
      <trkpt lat="42.520825" lon="-8.01118167">
        <ele>608.0</ele>
        <time>2018-10-03T11:33:28.000Z</time>
      </trkpt>
      <trkpt lat="42.52083333" lon="-8.01117667">
        <ele>608.0</ele>
        <time>2018-10-03T11:33:29.000Z</time>
      </trkpt>
      <trkpt lat="42.520845" lon="-8.01116667">
        <ele>608.0</ele>
        <time>2018-10-03T11:33:30.000Z</time>
      </trkpt>
      <trkpt lat="42.52085833" lon="-8.01115667">
        <ele>608.0</ele>
        <time>2018-10-03T11:33:31.000Z</time>
      </trkpt>
      <trkpt lat="42.52087167" lon="-8.011145">
        <ele>608.0</ele>
        <time>2018-10-03T11:33:32.000Z</time>
      </trkpt>
      <trkpt lat="42.520885" lon="-8.01112833">
        <ele>607.0</ele>
        <time>2018-10-03T11:33:33.000Z</time>
      </trkpt>
      <trkpt lat="42.52089667" lon="-8.01111333">
        <ele>607.0</ele>
        <time>2018-10-03T11:33:34.000Z</time>
      </trkpt>
      <trkpt lat="42.52091" lon="-8.01110333">
        <ele>607.0</ele>
        <time>2018-10-03T11:33:35.000Z</time>
      </trkpt>
      <trkpt lat="42.52092" lon="-8.011095">
        <ele>606.0</ele>
        <time>2018-10-03T11:33:36.000Z</time>
      </trkpt>
      <trkpt lat="42.52093" lon="-8.011085">
        <ele>606.0</ele>
        <time>2018-10-03T11:33:37.000Z</time>
      </trkpt>
      <trkpt lat="42.52094167" lon="-8.01107167">
        <ele>606.0</ele>
        <time>2018-10-03T11:33:38.000Z</time>
      </trkpt>
      <trkpt lat="42.520955" lon="-8.01105333">
        <ele>606.0</ele>
        <time>2018-10-03T11:33:39.000Z</time>
      </trkpt>
      <trkpt lat="42.52096667" lon="-8.011035">
        <ele>606.0</ele>
        <time>2018-10-03T11:33:40.000Z</time>
      </trkpt>
      <trkpt lat="42.520975" lon="-8.01102">
        <ele>606.0</ele>
        <time>2018-10-03T11:33:41.000Z</time>
      </trkpt>
      <trkpt lat="42.52098333" lon="-8.01100667">
        <ele>606.0</ele>
        <time>2018-10-03T11:33:42.000Z</time>
      </trkpt>
      <trkpt lat="42.520995" lon="-8.010995">
        <ele>605.0</ele>
        <time>2018-10-03T11:33:43.000Z</time>
      </trkpt>
      <trkpt lat="42.52101" lon="-8.010985">
        <ele>605.0</ele>
        <time>2018-10-03T11:33:44.000Z</time>
      </trkpt>
      <trkpt lat="42.521025" lon="-8.01097667">
        <ele>605.0</ele>
        <time>2018-10-03T11:33:45.000Z</time>
      </trkpt>
      <trkpt lat="42.52103833" lon="-8.01097333">
        <ele>605.0</ele>
        <time>2018-10-03T11:33:46.000Z</time>
      </trkpt>
      <trkpt lat="42.521055" lon="-8.01097167">
        <ele>605.0</ele>
        <time>2018-10-03T11:33:47.000Z</time>
      </trkpt>
      <trkpt lat="42.52107" lon="-8.01097333">
        <ele>605.0</ele>
        <time>2018-10-03T11:33:48.000Z</time>
      </trkpt>
      <trkpt lat="42.521085" lon="-8.01097667">
        <ele>605.0</ele>
        <time>2018-10-03T11:33:49.000Z</time>
      </trkpt>
      <trkpt lat="42.52109833" lon="-8.01097833">
        <ele>605.0</ele>
        <time>2018-10-03T11:33:50.000Z</time>
      </trkpt>
      <trkpt lat="42.521115" lon="-8.01098">
        <ele>605.0</ele>
        <time>2018-10-03T11:33:51.000Z</time>
      </trkpt>
      <trkpt lat="42.52113" lon="-8.01098333">
        <ele>605.0</ele>
        <time>2018-10-03T11:33:52.000Z</time>
      </trkpt>
      <trkpt lat="42.521145" lon="-8.010985">
        <ele>605.0</ele>
        <time>2018-10-03T11:33:53.000Z</time>
      </trkpt>
      <trkpt lat="42.521155" lon="-8.01098833">
        <ele>605.0</ele>
        <time>2018-10-03T11:33:54.000Z</time>
      </trkpt>
      <trkpt lat="42.52116167" lon="-8.01099">
        <ele>605.0</ele>
        <time>2018-10-03T11:33:55.000Z</time>
      </trkpt>
      <trkpt lat="42.52116167" lon="-8.01098667">
        <ele>605.0</ele>
        <time>2018-10-03T11:33:56.000Z</time>
      </trkpt>
      <trkpt lat="42.52116167" lon="-8.010975">
        <ele>605.0</ele>
        <time>2018-10-03T11:33:57.000Z</time>
      </trkpt>
      <trkpt lat="42.52116833" lon="-8.01097833">
        <ele>605.0</ele>
        <time>2018-10-03T11:33:58.000Z</time>
      </trkpt>
      <trkpt lat="42.52117833" lon="-8.01098333">
        <ele>605.0</ele>
        <time>2018-10-03T11:33:59.000Z</time>
      </trkpt>
      <trkpt lat="42.52119" lon="-8.01098833">
        <ele>605.0</ele>
        <time>2018-10-03T11:34:00.000Z</time>
      </trkpt>
      <trkpt lat="42.52120167" lon="-8.01099167">
        <ele>605.0</ele>
        <time>2018-10-03T11:34:01.000Z</time>
      </trkpt>
      <trkpt lat="42.521215" lon="-8.01099667">
        <ele>605.0</ele>
        <time>2018-10-03T11:34:02.000Z</time>
      </trkpt>
      <trkpt lat="42.52122833" lon="-8.01100333">
        <ele>605.0</ele>
        <time>2018-10-03T11:34:03.000Z</time>
      </trkpt>
      <trkpt lat="42.52124167" lon="-8.01100833">
        <ele>605.0</ele>
        <time>2018-10-03T11:34:04.000Z</time>
      </trkpt>
      <trkpt lat="42.521255" lon="-8.01101167">
        <ele>605.0</ele>
        <time>2018-10-03T11:34:05.000Z</time>
      </trkpt>
      <trkpt lat="42.521265" lon="-8.01101667">
        <ele>605.0</ele>
        <time>2018-10-03T11:34:06.000Z</time>
      </trkpt>
      <trkpt lat="42.52127833" lon="-8.01101667">
        <ele>605.0</ele>
        <time>2018-10-03T11:34:07.000Z</time>
      </trkpt>
      <trkpt lat="42.521295" lon="-8.01102">
        <ele>605.0</ele>
        <time>2018-10-03T11:34:08.000Z</time>
      </trkpt>
      <trkpt lat="42.52131" lon="-8.011025">
        <ele>605.0</ele>
        <time>2018-10-03T11:34:09.000Z</time>
      </trkpt>
      <trkpt lat="42.52132667" lon="-8.01103">
        <ele>605.0</ele>
        <time>2018-10-03T11:34:10.000Z</time>
      </trkpt>
      <trkpt lat="42.52134333" lon="-8.011035">
        <ele>605.0</ele>
        <time>2018-10-03T11:34:11.000Z</time>
      </trkpt>
      <trkpt lat="42.521365" lon="-8.01103667">
        <ele>605.0</ele>
        <time>2018-10-03T11:34:12.000Z</time>
      </trkpt>
      <trkpt lat="42.521385" lon="-8.01103833">
        <ele>605.0</ele>
        <time>2018-10-03T11:34:13.000Z</time>
      </trkpt>
      <trkpt lat="42.52139833" lon="-8.01104167">
        <ele>605.0</ele>
        <time>2018-10-03T11:34:14.000Z</time>
      </trkpt>
      <trkpt lat="42.52140333" lon="-8.01104833">
        <ele>605.0</ele>
        <time>2018-10-03T11:34:15.000Z</time>
      </trkpt>
      <trkpt lat="42.52141333" lon="-8.011055">
        <ele>605.0</ele>
        <time>2018-10-03T11:34:16.000Z</time>
      </trkpt>
      <trkpt lat="42.52142333" lon="-8.01105667">
        <ele>605.0</ele>
        <time>2018-10-03T11:34:17.000Z</time>
      </trkpt>
      <trkpt lat="42.521435" lon="-8.01105833">
        <ele>606.0</ele>
        <time>2018-10-03T11:34:18.000Z</time>
      </trkpt>
      <trkpt lat="42.52144833" lon="-8.01106167">
        <ele>606.0</ele>
        <time>2018-10-03T11:34:19.000Z</time>
      </trkpt>
      <trkpt lat="42.521465" lon="-8.01106667">
        <ele>606.0</ele>
        <time>2018-10-03T11:34:20.000Z</time>
      </trkpt>
      <trkpt lat="42.521485" lon="-8.01107333">
        <ele>607.0</ele>
        <time>2018-10-03T11:34:21.000Z</time>
      </trkpt>
      <trkpt lat="42.52150333" lon="-8.01107833">
        <ele>607.0</ele>
        <time>2018-10-03T11:34:22.000Z</time>
      </trkpt>
      <trkpt lat="42.52151833" lon="-8.01108667">
        <ele>607.0</ele>
        <time>2018-10-03T11:34:23.000Z</time>
      </trkpt>
      <trkpt lat="42.52153333" lon="-8.01109833">
        <ele>607.0</ele>
        <time>2018-10-03T11:34:24.000Z</time>
      </trkpt>
      <trkpt lat="42.52154833" lon="-8.011105">
        <ele>607.0</ele>
        <time>2018-10-03T11:34:25.000Z</time>
      </trkpt>
      <trkpt lat="42.52156333" lon="-8.01111">
        <ele>607.0</ele>
        <time>2018-10-03T11:34:26.000Z</time>
      </trkpt>
      <trkpt lat="42.52157667" lon="-8.01111333">
        <ele>608.0</ele>
        <time>2018-10-03T11:34:27.000Z</time>
      </trkpt>
      <trkpt lat="42.52159333" lon="-8.01112">
        <ele>608.0</ele>
        <time>2018-10-03T11:34:28.000Z</time>
      </trkpt>
      <trkpt lat="42.52161167" lon="-8.01112667">
        <ele>608.0</ele>
        <time>2018-10-03T11:34:29.000Z</time>
      </trkpt>
      <trkpt lat="42.52162833" lon="-8.011135">
        <ele>608.0</ele>
        <time>2018-10-03T11:34:30.000Z</time>
      </trkpt>
      <trkpt lat="42.52164333" lon="-8.01114333">
        <ele>608.0</ele>
        <time>2018-10-03T11:34:31.000Z</time>
      </trkpt>
      <trkpt lat="42.52165667" lon="-8.011155">
        <ele>609.0</ele>
        <time>2018-10-03T11:34:32.000Z</time>
      </trkpt>
      <trkpt lat="42.52167" lon="-8.01116667">
        <ele>609.0</ele>
        <time>2018-10-03T11:34:33.000Z</time>
      </trkpt>
      <trkpt lat="42.521685" lon="-8.01117333">
        <ele>609.0</ele>
        <time>2018-10-03T11:34:34.000Z</time>
      </trkpt>
      <trkpt lat="42.52170167" lon="-8.01117667">
        <ele>609.0</ele>
        <time>2018-10-03T11:34:35.000Z</time>
      </trkpt>
      <trkpt lat="42.52171833" lon="-8.01118167">
        <ele>609.0</ele>
        <time>2018-10-03T11:34:36.000Z</time>
      </trkpt>
      <trkpt lat="42.521735" lon="-8.01118667">
        <ele>609.0</ele>
        <time>2018-10-03T11:34:37.000Z</time>
      </trkpt>
      <trkpt lat="42.52175" lon="-8.01119">
        <ele>609.0</ele>
        <time>2018-10-03T11:34:38.000Z</time>
      </trkpt>
      <trkpt lat="42.521765" lon="-8.01119333">
        <ele>609.0</ele>
        <time>2018-10-03T11:34:39.000Z</time>
      </trkpt>
      <trkpt lat="42.52178167" lon="-8.011195">
        <ele>609.0</ele>
        <time>2018-10-03T11:34:40.000Z</time>
      </trkpt>
      <trkpt lat="42.52179833" lon="-8.01119833">
        <ele>609.0</ele>
        <time>2018-10-03T11:34:41.000Z</time>
      </trkpt>
      <trkpt lat="42.521815" lon="-8.01119833">
        <ele>609.0</ele>
        <time>2018-10-03T11:34:42.000Z</time>
      </trkpt>
      <trkpt lat="42.52183667" lon="-8.01119667">
        <ele>609.0</ele>
        <time>2018-10-03T11:34:43.000Z</time>
      </trkpt>
      <trkpt lat="42.521855" lon="-8.01119667">
        <ele>609.0</ele>
        <time>2018-10-03T11:34:44.000Z</time>
      </trkpt>
      <trkpt lat="42.52187333" lon="-8.011195">
        <ele>609.0</ele>
        <time>2018-10-03T11:34:45.000Z</time>
      </trkpt>
      <trkpt lat="42.52189167" lon="-8.01119167">
        <ele>610.0</ele>
        <time>2018-10-03T11:34:46.000Z</time>
      </trkpt>
      <trkpt lat="42.521905" lon="-8.01119167">
        <ele>610.0</ele>
        <time>2018-10-03T11:34:47.000Z</time>
      </trkpt>
      <trkpt lat="42.52191667" lon="-8.011195">
        <ele>610.0</ele>
        <time>2018-10-03T11:34:48.000Z</time>
      </trkpt>
      <trkpt lat="42.52192833" lon="-8.01119833">
        <ele>610.0</ele>
        <time>2018-10-03T11:34:49.000Z</time>
      </trkpt>
      <trkpt lat="42.52194333" lon="-8.0112">
        <ele>610.0</ele>
        <time>2018-10-03T11:34:50.000Z</time>
      </trkpt>
      <trkpt lat="42.52196" lon="-8.01119833">
        <ele>610.0</ele>
        <time>2018-10-03T11:34:51.000Z</time>
      </trkpt>
      <trkpt lat="42.52197833" lon="-8.01119">
        <ele>610.0</ele>
        <time>2018-10-03T11:34:52.000Z</time>
      </trkpt>
      <trkpt lat="42.521995" lon="-8.01118667">
        <ele>610.0</ele>
        <time>2018-10-03T11:34:53.000Z</time>
      </trkpt>
      <trkpt lat="42.52200833" lon="-8.01118333">
        <ele>610.0</ele>
        <time>2018-10-03T11:34:54.000Z</time>
      </trkpt>
      <trkpt lat="42.52202167" lon="-8.01118333">
        <ele>610.0</ele>
        <time>2018-10-03T11:34:55.000Z</time>
      </trkpt>
      <trkpt lat="42.522035" lon="-8.01118">
        <ele>610.0</ele>
        <time>2018-10-03T11:34:56.000Z</time>
      </trkpt>
      <trkpt lat="42.52205" lon="-8.01117167">
        <ele>610.0</ele>
        <time>2018-10-03T11:34:57.000Z</time>
      </trkpt>
      <trkpt lat="42.522065" lon="-8.01115667">
        <ele>610.0</ele>
        <time>2018-10-03T11:34:58.000Z</time>
      </trkpt>
      <trkpt lat="42.52208333" lon="-8.01114">
        <ele>610.0</ele>
        <time>2018-10-03T11:34:59.000Z</time>
      </trkpt>
      <trkpt lat="42.52209833" lon="-8.01112667">
        <ele>610.0</ele>
        <time>2018-10-03T11:35:00.000Z</time>
      </trkpt>
      <trkpt lat="42.52211333" lon="-8.01111833">
        <ele>609.0</ele>
        <time>2018-10-03T11:35:01.000Z</time>
      </trkpt>
      <trkpt lat="42.52212833" lon="-8.01111">
        <ele>609.0</ele>
        <time>2018-10-03T11:35:02.000Z</time>
      </trkpt>
      <trkpt lat="42.52214333" lon="-8.0111">
        <ele>609.0</ele>
        <time>2018-10-03T11:35:03.000Z</time>
      </trkpt>
      <trkpt lat="42.52215667" lon="-8.01108833">
        <ele>610.0</ele>
        <time>2018-10-03T11:35:04.000Z</time>
      </trkpt>
      <trkpt lat="42.52217167" lon="-8.01107333">
        <ele>610.0</ele>
        <time>2018-10-03T11:35:05.000Z</time>
      </trkpt>
      <trkpt lat="42.52218667" lon="-8.01105833">
        <ele>610.0</ele>
        <time>2018-10-03T11:35:06.000Z</time>
      </trkpt>
      <trkpt lat="42.5222" lon="-8.01104333">
        <ele>610.0</ele>
        <time>2018-10-03T11:35:07.000Z</time>
      </trkpt>
      <trkpt lat="42.52221333" lon="-8.01102833">
        <ele>610.0</ele>
        <time>2018-10-03T11:35:08.000Z</time>
      </trkpt>
      <trkpt lat="42.52222667" lon="-8.01101667">
        <ele>610.0</ele>
        <time>2018-10-03T11:35:09.000Z</time>
      </trkpt>
      <trkpt lat="42.52224333" lon="-8.011005">
        <ele>610.0</ele>
        <time>2018-10-03T11:35:10.000Z</time>
      </trkpt>
      <trkpt lat="42.522255" lon="-8.010995">
        <ele>610.0</ele>
        <time>2018-10-03T11:35:11.000Z</time>
      </trkpt>
      <trkpt lat="42.52226833" lon="-8.010985">
        <ele>610.0</ele>
        <time>2018-10-03T11:35:12.000Z</time>
      </trkpt>
      <trkpt lat="42.52228" lon="-8.01097167">
        <ele>611.0</ele>
        <time>2018-10-03T11:35:13.000Z</time>
      </trkpt>
      <trkpt lat="42.52229167" lon="-8.01096">
        <ele>611.0</ele>
        <time>2018-10-03T11:35:14.000Z</time>
      </trkpt>
      <trkpt lat="42.522305" lon="-8.01094833">
        <ele>611.0</ele>
        <time>2018-10-03T11:35:15.000Z</time>
      </trkpt>
      <trkpt lat="42.522315" lon="-8.01093667">
        <ele>611.0</ele>
        <time>2018-10-03T11:35:16.000Z</time>
      </trkpt>
      <trkpt lat="42.52232667" lon="-8.01092833">
        <ele>611.0</ele>
        <time>2018-10-03T11:35:17.000Z</time>
      </trkpt>
      <trkpt lat="42.52233667" lon="-8.01091833">
        <ele>611.0</ele>
        <time>2018-10-03T11:35:18.000Z</time>
      </trkpt>
      <trkpt lat="42.52234667" lon="-8.01090833">
        <ele>611.0</ele>
        <time>2018-10-03T11:35:19.000Z</time>
      </trkpt>
      <trkpt lat="42.52235833" lon="-8.01090167">
        <ele>611.0</ele>
        <time>2018-10-03T11:35:20.000Z</time>
      </trkpt>
      <trkpt lat="42.52237167" lon="-8.01089167">
        <ele>611.0</ele>
        <time>2018-10-03T11:35:21.000Z</time>
      </trkpt>
      <trkpt lat="42.522385" lon="-8.01088">
        <ele>611.0</ele>
        <time>2018-10-03T11:35:22.000Z</time>
      </trkpt>
      <trkpt lat="42.52239833" lon="-8.01087167">
        <ele>611.0</ele>
        <time>2018-10-03T11:35:23.000Z</time>
      </trkpt>
      <trkpt lat="42.52241" lon="-8.01086">
        <ele>611.0</ele>
        <time>2018-10-03T11:35:24.000Z</time>
      </trkpt>
      <trkpt lat="42.52242167" lon="-8.01085">
        <ele>612.0</ele>
        <time>2018-10-03T11:35:25.000Z</time>
      </trkpt>
      <trkpt lat="42.52243167" lon="-8.01083833">
        <ele>612.0</ele>
        <time>2018-10-03T11:35:26.000Z</time>
      </trkpt>
      <trkpt lat="42.52244333" lon="-8.01082667">
        <ele>612.0</ele>
        <time>2018-10-03T11:35:27.000Z</time>
      </trkpt>
      <trkpt lat="42.52245333" lon="-8.01081667">
        <ele>612.0</ele>
        <time>2018-10-03T11:35:28.000Z</time>
      </trkpt>
      <trkpt lat="42.52246667" lon="-8.01080833">
        <ele>612.0</ele>
        <time>2018-10-03T11:35:29.000Z</time>
      </trkpt>
      <trkpt lat="42.52247667" lon="-8.01080167">
        <ele>612.0</ele>
        <time>2018-10-03T11:35:30.000Z</time>
      </trkpt>
      <trkpt lat="42.52249" lon="-8.010795">
        <ele>613.0</ele>
        <time>2018-10-03T11:35:31.000Z</time>
      </trkpt>
      <trkpt lat="42.52250333" lon="-8.01078833">
        <ele>613.0</ele>
        <time>2018-10-03T11:35:32.000Z</time>
      </trkpt>
      <trkpt lat="42.52251833" lon="-8.01078167">
        <ele>613.0</ele>
        <time>2018-10-03T11:35:33.000Z</time>
      </trkpt>
      <trkpt lat="42.52253" lon="-8.01077667">
        <ele>613.0</ele>
        <time>2018-10-03T11:35:34.000Z</time>
      </trkpt>
      <trkpt lat="42.52254333" lon="-8.01077">
        <ele>613.0</ele>
        <time>2018-10-03T11:35:35.000Z</time>
      </trkpt>
      <trkpt lat="42.52255667" lon="-8.010765">
        <ele>613.0</ele>
        <time>2018-10-03T11:35:36.000Z</time>
      </trkpt>
      <trkpt lat="42.52257" lon="-8.01075833">
        <ele>614.0</ele>
        <time>2018-10-03T11:35:37.000Z</time>
      </trkpt>
      <trkpt lat="42.52258333" lon="-8.01075333">
        <ele>614.0</ele>
        <time>2018-10-03T11:35:38.000Z</time>
      </trkpt>
      <trkpt lat="42.522595" lon="-8.01075">
        <ele>614.0</ele>
        <time>2018-10-03T11:35:39.000Z</time>
      </trkpt>
      <trkpt lat="42.52260833" lon="-8.01075">
        <ele>614.0</ele>
        <time>2018-10-03T11:35:40.000Z</time>
      </trkpt>
      <trkpt lat="42.52262" lon="-8.01074833">
        <ele>615.0</ele>
        <time>2018-10-03T11:35:41.000Z</time>
      </trkpt>
      <trkpt lat="42.52263333" lon="-8.01074833">
        <ele>615.0</ele>
        <time>2018-10-03T11:35:42.000Z</time>
      </trkpt>
      <trkpt lat="42.522645" lon="-8.01075">
        <ele>615.0</ele>
        <time>2018-10-03T11:35:43.000Z</time>
      </trkpt>
      <trkpt lat="42.52265667" lon="-8.01074833">
        <ele>616.0</ele>
        <time>2018-10-03T11:35:44.000Z</time>
      </trkpt>
      <trkpt lat="42.52266667" lon="-8.010745">
        <ele>616.0</ele>
        <time>2018-10-03T11:35:45.000Z</time>
      </trkpt>
      <trkpt lat="42.52268" lon="-8.01074333">
        <ele>616.0</ele>
        <time>2018-10-03T11:35:46.000Z</time>
      </trkpt>
      <trkpt lat="42.52269167" lon="-8.01074">
        <ele>616.0</ele>
        <time>2018-10-03T11:35:47.000Z</time>
      </trkpt>
      <trkpt lat="42.52270167" lon="-8.01073833">
        <ele>617.0</ele>
        <time>2018-10-03T11:35:48.000Z</time>
      </trkpt>
      <trkpt lat="42.52271167" lon="-8.01073667">
        <ele>617.0</ele>
        <time>2018-10-03T11:35:49.000Z</time>
      </trkpt>
      <trkpt lat="42.52272333" lon="-8.01074">
        <ele>617.0</ele>
        <time>2018-10-03T11:35:50.000Z</time>
      </trkpt>
      <trkpt lat="42.522735" lon="-8.01074167">
        <ele>617.0</ele>
        <time>2018-10-03T11:35:51.000Z</time>
      </trkpt>
      <trkpt lat="42.52274833" lon="-8.01074167">
        <ele>617.0</ele>
        <time>2018-10-03T11:35:52.000Z</time>
      </trkpt>
      <trkpt lat="42.52275833" lon="-8.01073833">
        <ele>617.0</ele>
        <time>2018-10-03T11:35:53.000Z</time>
      </trkpt>
      <trkpt lat="42.52276333" lon="-8.01073833">
        <ele>618.0</ele>
        <time>2018-10-03T11:35:54.000Z</time>
      </trkpt>
      <trkpt lat="42.522765" lon="-8.01074">
        <ele>618.0</ele>
        <time>2018-10-03T11:35:55.000Z</time>
      </trkpt>
      <trkpt lat="42.52276667" lon="-8.01074167">
        <ele>618.0</ele>
        <time>2018-10-03T11:35:56.000Z</time>
      </trkpt>
      <trkpt lat="42.52276667" lon="-8.01074167">
        <ele>618.0</ele>
        <time>2018-10-03T11:35:57.000Z</time>
      </trkpt>
      <trkpt lat="42.52276833" lon="-8.01074333">
        <ele>618.0</ele>
        <time>2018-10-03T11:35:58.000Z</time>
      </trkpt>
      <trkpt lat="42.52276833" lon="-8.01074333">
        <ele>618.0</ele>
        <time>2018-10-03T11:35:59.000Z</time>
      </trkpt>
      <trkpt lat="42.52277" lon="-8.010745">
        <ele>618.0</ele>
        <time>2018-10-03T11:36:00.000Z</time>
      </trkpt>
      <trkpt lat="42.52277" lon="-8.010745">
        <ele>618.0</ele>
        <time>2018-10-03T11:36:01.000Z</time>
      </trkpt>
      <trkpt lat="42.52277" lon="-8.01074667">
        <ele>618.0</ele>
        <time>2018-10-03T11:36:02.000Z</time>
      </trkpt>
      <trkpt lat="42.52277167" lon="-8.01074667">
        <ele>619.0</ele>
        <time>2018-10-03T11:36:03.000Z</time>
      </trkpt>
      <trkpt lat="42.52277" lon="-8.01074833">
        <ele>619.0</ele>
        <time>2018-10-03T11:36:04.000Z</time>
      </trkpt>
      <trkpt lat="42.52276833" lon="-8.01074833">
        <ele>619.0</ele>
        <time>2018-10-03T11:36:05.000Z</time>
      </trkpt>
      <trkpt lat="42.52276667" lon="-8.01074667">
        <ele>619.0</ele>
        <time>2018-10-03T11:36:06.000Z</time>
      </trkpt>
      <trkpt lat="42.522765" lon="-8.01074833">
        <ele>619.0</ele>
        <time>2018-10-03T11:36:07.000Z</time>
      </trkpt>
      <trkpt lat="42.522765" lon="-8.01074833">
        <ele>618.0</ele>
        <time>2018-10-03T11:36:08.000Z</time>
      </trkpt>
      <trkpt lat="42.522765" lon="-8.01074833">
        <ele>618.0</ele>
        <time>2018-10-03T11:36:09.000Z</time>
      </trkpt>
      <trkpt lat="42.522765" lon="-8.01075">
        <ele>618.0</ele>
        <time>2018-10-03T11:36:10.000Z</time>
      </trkpt>
      <trkpt lat="42.522765" lon="-8.01075">
        <ele>618.0</ele>
        <time>2018-10-03T11:36:11.000Z</time>
      </trkpt>
      <trkpt lat="42.522765" lon="-8.01075">
        <ele>618.0</ele>
        <time>2018-10-03T11:36:12.000Z</time>
      </trkpt>
      <trkpt lat="42.52276667" lon="-8.01074833">
        <ele>618.0</ele>
        <time>2018-10-03T11:36:13.000Z</time>
      </trkpt>
      <trkpt lat="42.52276667" lon="-8.01075">
        <ele>618.0</ele>
        <time>2018-10-03T11:36:14.000Z</time>
      </trkpt>
      <trkpt lat="42.52276667" lon="-8.01075">
        <ele>618.0</ele>
        <time>2018-10-03T11:36:15.000Z</time>
      </trkpt>
      <trkpt lat="42.52276667" lon="-8.01075">
        <ele>618.0</ele>
        <time>2018-10-03T11:36:16.000Z</time>
      </trkpt>
      <trkpt lat="42.52276667" lon="-8.01075">
        <ele>618.0</ele>
        <time>2018-10-03T11:36:17.000Z</time>
      </trkpt>
      <trkpt lat="42.52276667" lon="-8.01075">
        <ele>618.0</ele>
        <time>2018-10-03T11:36:18.000Z</time>
      </trkpt>
      <trkpt lat="42.52276667" lon="-8.01075">
        <ele>618.0</ele>
        <time>2018-10-03T11:36:19.000Z</time>
      </trkpt>
      <trkpt lat="42.52276667" lon="-8.01075">
        <ele>618.0</ele>
        <time>2018-10-03T11:36:20.000Z</time>
      </trkpt>
      <trkpt lat="42.52277167" lon="-8.01075167">
        <ele>618.0</ele>
        <time>2018-10-03T11:36:21.000Z</time>
      </trkpt>
      <trkpt lat="42.52278167" lon="-8.01075333">
        <ele>618.0</ele>
        <time>2018-10-03T11:36:22.000Z</time>
      </trkpt>
      <trkpt lat="42.52279333" lon="-8.01075667">
        <ele>618.0</ele>
        <time>2018-10-03T11:36:23.000Z</time>
      </trkpt>
      <trkpt lat="42.522805" lon="-8.01076">
        <ele>618.0</ele>
        <time>2018-10-03T11:36:24.000Z</time>
      </trkpt>
      <trkpt lat="42.52281833" lon="-8.01076">
        <ele>618.0</ele>
        <time>2018-10-03T11:36:25.000Z</time>
      </trkpt>
      <trkpt lat="42.52283167" lon="-8.01076">
        <ele>618.0</ele>
        <time>2018-10-03T11:36:26.000Z</time>
      </trkpt>
      <trkpt lat="42.522845" lon="-8.01076">
        <ele>618.0</ele>
        <time>2018-10-03T11:36:27.000Z</time>
      </trkpt>
      <trkpt lat="42.52285667" lon="-8.01076">
        <ele>618.0</ele>
        <time>2018-10-03T11:36:28.000Z</time>
      </trkpt>
      <trkpt lat="42.52287" lon="-8.01076">
        <ele>618.0</ele>
        <time>2018-10-03T11:36:29.000Z</time>
      </trkpt>
      <trkpt lat="42.52288333" lon="-8.01076">
        <ele>618.0</ele>
        <time>2018-10-03T11:36:30.000Z</time>
      </trkpt>
      <trkpt lat="42.52289667" lon="-8.01076">
        <ele>618.0</ele>
        <time>2018-10-03T11:36:31.000Z</time>
      </trkpt>
      <trkpt lat="42.52291" lon="-8.01076167">
        <ele>618.0</ele>
        <time>2018-10-03T11:36:32.000Z</time>
      </trkpt>
      <trkpt lat="42.522925" lon="-8.01076167">
        <ele>618.0</ele>
        <time>2018-10-03T11:36:33.000Z</time>
      </trkpt>
      <trkpt lat="42.52294" lon="-8.01076167">
        <ele>618.0</ele>
        <time>2018-10-03T11:36:34.000Z</time>
      </trkpt>
      <trkpt lat="42.522955" lon="-8.01076">
        <ele>618.0</ele>
        <time>2018-10-03T11:36:35.000Z</time>
      </trkpt>
      <trkpt lat="42.52297" lon="-8.01076167">
        <ele>618.0</ele>
        <time>2018-10-03T11:36:36.000Z</time>
      </trkpt>
      <trkpt lat="42.52298333" lon="-8.01076167">
        <ele>619.0</ele>
        <time>2018-10-03T11:36:37.000Z</time>
      </trkpt>
      <trkpt lat="42.52299833" lon="-8.01076167">
        <ele>619.0</ele>
        <time>2018-10-03T11:36:38.000Z</time>
      </trkpt>
      <trkpt lat="42.52301333" lon="-8.01076333">
        <ele>619.0</ele>
        <time>2018-10-03T11:36:39.000Z</time>
      </trkpt>
      <trkpt lat="42.52302833" lon="-8.010765">
        <ele>619.0</ele>
        <time>2018-10-03T11:36:40.000Z</time>
      </trkpt>
      <trkpt lat="42.523045" lon="-8.01076667">
        <ele>619.0</ele>
        <time>2018-10-03T11:36:41.000Z</time>
      </trkpt>
      <trkpt lat="42.52306167" lon="-8.01076667">
        <ele>619.0</ele>
        <time>2018-10-03T11:36:42.000Z</time>
      </trkpt>
      <trkpt lat="42.52307833" lon="-8.01076667">
        <ele>619.0</ele>
        <time>2018-10-03T11:36:43.000Z</time>
      </trkpt>
      <trkpt lat="42.52309333" lon="-8.01076667">
        <ele>620.0</ele>
        <time>2018-10-03T11:36:44.000Z</time>
      </trkpt>
      <trkpt lat="42.52310833" lon="-8.01076833">
        <ele>620.0</ele>
        <time>2018-10-03T11:36:45.000Z</time>
      </trkpt>
      <trkpt lat="42.52312333" lon="-8.01077167">
        <ele>620.0</ele>
        <time>2018-10-03T11:36:46.000Z</time>
      </trkpt>
      <trkpt lat="42.52313833" lon="-8.01077333">
        <ele>620.0</ele>
        <time>2018-10-03T11:36:47.000Z</time>
      </trkpt>
      <trkpt lat="42.52315333" lon="-8.01077833">
        <ele>620.0</ele>
        <time>2018-10-03T11:36:48.000Z</time>
      </trkpt>
      <trkpt lat="42.523165" lon="-8.010785">
        <ele>620.0</ele>
        <time>2018-10-03T11:36:49.000Z</time>
      </trkpt>
      <trkpt lat="42.52317833" lon="-8.01079333">
        <ele>620.0</ele>
        <time>2018-10-03T11:36:50.000Z</time>
      </trkpt>
      <trkpt lat="42.52319333" lon="-8.01079833">
        <ele>620.0</ele>
        <time>2018-10-03T11:36:51.000Z</time>
      </trkpt>
      <trkpt lat="42.52320833" lon="-8.01080167">
        <ele>621.0</ele>
        <time>2018-10-03T11:36:52.000Z</time>
      </trkpt>
      <trkpt lat="42.52322333" lon="-8.01080667">
        <ele>621.0</ele>
        <time>2018-10-03T11:36:53.000Z</time>
      </trkpt>
      <trkpt lat="42.52324167" lon="-8.01081">
        <ele>621.0</ele>
        <time>2018-10-03T11:36:54.000Z</time>
      </trkpt>
      <trkpt lat="42.52325833" lon="-8.01081333">
        <ele>621.0</ele>
        <time>2018-10-03T11:36:55.000Z</time>
      </trkpt>
      <trkpt lat="42.523275" lon="-8.01081667">
        <ele>622.0</ele>
        <time>2018-10-03T11:36:56.000Z</time>
      </trkpt>
      <trkpt lat="42.52329" lon="-8.01082167">
        <ele>622.0</ele>
        <time>2018-10-03T11:36:57.000Z</time>
      </trkpt>
      <trkpt lat="42.523305" lon="-8.010825">
        <ele>622.0</ele>
        <time>2018-10-03T11:36:58.000Z</time>
      </trkpt>
      <trkpt lat="42.52332" lon="-8.01083">
        <ele>622.0</ele>
        <time>2018-10-03T11:36:59.000Z</time>
      </trkpt>
      <trkpt lat="42.523335" lon="-8.01083667">
        <ele>622.0</ele>
        <time>2018-10-03T11:37:00.000Z</time>
      </trkpt>
      <trkpt lat="42.52335" lon="-8.01084167">
        <ele>623.0</ele>
        <time>2018-10-03T11:37:01.000Z</time>
      </trkpt>
      <trkpt lat="42.52336167" lon="-8.01085">
        <ele>623.0</ele>
        <time>2018-10-03T11:37:02.000Z</time>
      </trkpt>
      <trkpt lat="42.52338" lon="-8.010855">
        <ele>623.0</ele>
        <time>2018-10-03T11:37:03.000Z</time>
      </trkpt>
      <trkpt lat="42.523405" lon="-8.01085667">
        <ele>623.0</ele>
        <time>2018-10-03T11:37:04.000Z</time>
      </trkpt>
      <trkpt lat="42.52343333" lon="-8.01085167">
        <ele>623.0</ele>
        <time>2018-10-03T11:37:05.000Z</time>
      </trkpt>
      <trkpt lat="42.52345667" lon="-8.01084833">
        <ele>623.0</ele>
        <time>2018-10-03T11:37:06.000Z</time>
      </trkpt>
      <trkpt lat="42.523475" lon="-8.010845">
        <ele>623.0</ele>
        <time>2018-10-03T11:37:07.000Z</time>
      </trkpt>
      <trkpt lat="42.52348333" lon="-8.01084833">
        <ele>623.0</ele>
        <time>2018-10-03T11:37:08.000Z</time>
      </trkpt>
      <trkpt lat="42.52348833" lon="-8.010855">
        <ele>623.0</ele>
        <time>2018-10-03T11:37:09.000Z</time>
      </trkpt>
      <trkpt lat="42.52349" lon="-8.01086333">
        <ele>623.0</ele>
        <time>2018-10-03T11:37:10.000Z</time>
      </trkpt>
      <trkpt lat="42.52349833" lon="-8.01087333">
        <ele>623.0</ele>
        <time>2018-10-03T11:37:11.000Z</time>
      </trkpt>
      <trkpt lat="42.52350833" lon="-8.01088333">
        <ele>623.0</ele>
        <time>2018-10-03T11:37:12.000Z</time>
      </trkpt>
      <trkpt lat="42.52352167" lon="-8.01088833">
        <ele>623.0</ele>
        <time>2018-10-03T11:37:13.000Z</time>
      </trkpt>
      <trkpt lat="42.52353667" lon="-8.01089167">
        <ele>623.0</ele>
        <time>2018-10-03T11:37:14.000Z</time>
      </trkpt>
      <trkpt lat="42.52355167" lon="-8.01089333">
        <ele>623.0</ele>
        <time>2018-10-03T11:37:15.000Z</time>
      </trkpt>
      <trkpt lat="42.52356833" lon="-8.010895">
        <ele>623.0</ele>
        <time>2018-10-03T11:37:16.000Z</time>
      </trkpt>
      <trkpt lat="42.52358333" lon="-8.01089667">
        <ele>624.0</ele>
        <time>2018-10-03T11:37:17.000Z</time>
      </trkpt>
      <trkpt lat="42.5236" lon="-8.01090167">
        <ele>624.0</ele>
        <time>2018-10-03T11:37:18.000Z</time>
      </trkpt>
      <trkpt lat="42.52361333" lon="-8.01090333">
        <ele>624.0</ele>
        <time>2018-10-03T11:37:19.000Z</time>
      </trkpt>
      <trkpt lat="42.52362667" lon="-8.01090667">
        <ele>624.0</ele>
        <time>2018-10-03T11:37:20.000Z</time>
      </trkpt>
      <trkpt lat="42.52364333" lon="-8.01090833">
        <ele>624.0</ele>
        <time>2018-10-03T11:37:21.000Z</time>
      </trkpt>
      <trkpt lat="42.52365833" lon="-8.01091">
        <ele>624.0</ele>
        <time>2018-10-03T11:37:22.000Z</time>
      </trkpt>
      <trkpt lat="42.52367167" lon="-8.01091333">
        <ele>624.0</ele>
        <time>2018-10-03T11:37:23.000Z</time>
      </trkpt>
      <trkpt lat="42.523685" lon="-8.010915">
        <ele>624.0</ele>
        <time>2018-10-03T11:37:24.000Z</time>
      </trkpt>
      <trkpt lat="42.5237" lon="-8.01091667">
        <ele>624.0</ele>
        <time>2018-10-03T11:37:25.000Z</time>
      </trkpt>
      <trkpt lat="42.523715" lon="-8.01092">
        <ele>625.0</ele>
        <time>2018-10-03T11:37:26.000Z</time>
      </trkpt>
      <trkpt lat="42.52373" lon="-8.01092167">
        <ele>625.0</ele>
        <time>2018-10-03T11:37:27.000Z</time>
      </trkpt>
      <trkpt lat="42.523745" lon="-8.01092333">
        <ele>625.0</ele>
        <time>2018-10-03T11:37:28.000Z</time>
      </trkpt>
      <trkpt lat="42.52375833" lon="-8.010925">
        <ele>625.0</ele>
        <time>2018-10-03T11:37:29.000Z</time>
      </trkpt>
      <trkpt lat="42.52377333" lon="-8.01092667">
        <ele>625.0</ele>
        <time>2018-10-03T11:37:30.000Z</time>
      </trkpt>
      <trkpt lat="42.52378833" lon="-8.01092833">
        <ele>625.0</ele>
        <time>2018-10-03T11:37:31.000Z</time>
      </trkpt>
      <trkpt lat="42.52380167" lon="-8.01093">
        <ele>625.0</ele>
        <time>2018-10-03T11:37:32.000Z</time>
      </trkpt>
      <trkpt lat="42.52381667" lon="-8.01093333">
        <ele>625.0</ele>
        <time>2018-10-03T11:37:33.000Z</time>
      </trkpt>
      <trkpt lat="42.52383" lon="-8.010935">
        <ele>625.0</ele>
        <time>2018-10-03T11:37:34.000Z</time>
      </trkpt>
      <trkpt lat="42.52384667" lon="-8.01093667">
        <ele>625.0</ele>
        <time>2018-10-03T11:37:35.000Z</time>
      </trkpt>
      <trkpt lat="42.52386" lon="-8.01093833">
        <ele>625.0</ele>
        <time>2018-10-03T11:37:36.000Z</time>
      </trkpt>
      <trkpt lat="42.523875" lon="-8.01094">
        <ele>625.0</ele>
        <time>2018-10-03T11:37:37.000Z</time>
      </trkpt>
      <trkpt lat="42.52388833" lon="-8.01094333">
        <ele>625.0</ele>
        <time>2018-10-03T11:37:38.000Z</time>
      </trkpt>
      <trkpt lat="42.52390333" lon="-8.01094667">
        <ele>625.0</ele>
        <time>2018-10-03T11:37:39.000Z</time>
      </trkpt>
      <trkpt lat="42.52391833" lon="-8.01095">
        <ele>625.0</ele>
        <time>2018-10-03T11:37:40.000Z</time>
      </trkpt>
      <trkpt lat="42.52393333" lon="-8.01095333">
        <ele>625.0</ele>
        <time>2018-10-03T11:37:41.000Z</time>
      </trkpt>
      <trkpt lat="42.52394667" lon="-8.01095667">
        <ele>625.0</ele>
        <time>2018-10-03T11:37:42.000Z</time>
      </trkpt>
      <trkpt lat="42.52396" lon="-8.01095833">
        <ele>625.0</ele>
        <time>2018-10-03T11:37:43.000Z</time>
      </trkpt>
      <trkpt lat="42.523975" lon="-8.01096">
        <ele>625.0</ele>
        <time>2018-10-03T11:37:44.000Z</time>
      </trkpt>
      <trkpt lat="42.52399" lon="-8.01096333">
        <ele>625.0</ele>
        <time>2018-10-03T11:37:45.000Z</time>
      </trkpt>
      <trkpt lat="42.524005" lon="-8.01096333">
        <ele>625.0</ele>
        <time>2018-10-03T11:37:46.000Z</time>
      </trkpt>
      <trkpt lat="42.52402" lon="-8.01096667">
        <ele>625.0</ele>
        <time>2018-10-03T11:37:47.000Z</time>
      </trkpt>
      <trkpt lat="42.52403333" lon="-8.01096667">
        <ele>625.0</ele>
        <time>2018-10-03T11:37:48.000Z</time>
      </trkpt>
      <trkpt lat="42.52404833" lon="-8.01096833">
        <ele>625.0</ele>
        <time>2018-10-03T11:37:49.000Z</time>
      </trkpt>
      <trkpt lat="42.52406167" lon="-8.01097167">
        <ele>625.0</ele>
        <time>2018-10-03T11:37:50.000Z</time>
      </trkpt>
      <trkpt lat="42.52407667" lon="-8.01097667">
        <ele>625.0</ele>
        <time>2018-10-03T11:37:51.000Z</time>
      </trkpt>
      <trkpt lat="42.52409333" lon="-8.01098167">
        <ele>625.0</ele>
        <time>2018-10-03T11:37:52.000Z</time>
      </trkpt>
      <trkpt lat="42.52410833" lon="-8.010985">
        <ele>625.0</ele>
        <time>2018-10-03T11:37:53.000Z</time>
      </trkpt>
      <trkpt lat="42.52412333" lon="-8.01098667">
        <ele>626.0</ele>
        <time>2018-10-03T11:37:54.000Z</time>
      </trkpt>
      <trkpt lat="42.52413833" lon="-8.01099">
        <ele>626.0</ele>
        <time>2018-10-03T11:37:55.000Z</time>
      </trkpt>
      <trkpt lat="42.524155" lon="-8.010995">
        <ele>626.0</ele>
        <time>2018-10-03T11:37:56.000Z</time>
      </trkpt>
      <trkpt lat="42.52417" lon="-8.01099833">
        <ele>626.0</ele>
        <time>2018-10-03T11:37:57.000Z</time>
      </trkpt>
      <trkpt lat="42.52418333" lon="-8.01100333">
        <ele>627.0</ele>
        <time>2018-10-03T11:37:58.000Z</time>
      </trkpt>
      <trkpt lat="42.5242" lon="-8.01100833">
        <ele>627.0</ele>
        <time>2018-10-03T11:37:59.000Z</time>
      </trkpt>
      <trkpt lat="42.52421333" lon="-8.01101333">
        <ele>627.0</ele>
        <time>2018-10-03T11:38:00.000Z</time>
      </trkpt>
      <trkpt lat="42.52423" lon="-8.01101667">
        <ele>627.0</ele>
        <time>2018-10-03T11:38:01.000Z</time>
      </trkpt>
      <trkpt lat="42.52424333" lon="-8.011025">
        <ele>628.0</ele>
        <time>2018-10-03T11:38:02.000Z</time>
      </trkpt>
      <trkpt lat="42.52426" lon="-8.01103167">
        <ele>628.0</ele>
        <time>2018-10-03T11:38:03.000Z</time>
      </trkpt>
      <trkpt lat="42.524275" lon="-8.01103667">
        <ele>628.0</ele>
        <time>2018-10-03T11:38:04.000Z</time>
      </trkpt>
      <trkpt lat="42.52429167" lon="-8.01104167">
        <ele>628.0</ele>
        <time>2018-10-03T11:38:05.000Z</time>
      </trkpt>
      <trkpt lat="42.52430833" lon="-8.01104667">
        <ele>629.0</ele>
        <time>2018-10-03T11:38:06.000Z</time>
      </trkpt>
      <trkpt lat="42.524325" lon="-8.01105333">
        <ele>629.0</ele>
        <time>2018-10-03T11:38:07.000Z</time>
      </trkpt>
      <trkpt lat="42.52434167" lon="-8.01106167">
        <ele>629.0</ele>
        <time>2018-10-03T11:38:08.000Z</time>
      </trkpt>
      <trkpt lat="42.52435667" lon="-8.01107">
        <ele>630.0</ele>
        <time>2018-10-03T11:38:09.000Z</time>
      </trkpt>
      <trkpt lat="42.52437167" lon="-8.01108">
        <ele>630.0</ele>
        <time>2018-10-03T11:38:10.000Z</time>
      </trkpt>
      <trkpt lat="42.524385" lon="-8.01108667">
        <ele>630.0</ele>
        <time>2018-10-03T11:38:11.000Z</time>
      </trkpt>
      <trkpt lat="42.5244" lon="-8.01109333">
        <ele>630.0</ele>
        <time>2018-10-03T11:38:12.000Z</time>
      </trkpt>
      <trkpt lat="42.52441667" lon="-8.01109833">
        <ele>630.0</ele>
        <time>2018-10-03T11:38:13.000Z</time>
      </trkpt>
      <trkpt lat="42.52443333" lon="-8.01110333">
        <ele>631.0</ele>
        <time>2018-10-03T11:38:14.000Z</time>
      </trkpt>
      <trkpt lat="42.52445" lon="-8.01111">
        <ele>631.0</ele>
        <time>2018-10-03T11:38:15.000Z</time>
      </trkpt>
      <trkpt lat="42.524465" lon="-8.01111333">
        <ele>631.0</ele>
        <time>2018-10-03T11:38:16.000Z</time>
      </trkpt>
      <trkpt lat="42.52448" lon="-8.01112">
        <ele>631.0</ele>
        <time>2018-10-03T11:38:17.000Z</time>
      </trkpt>
      <trkpt lat="42.52449333" lon="-8.01112333">
        <ele>631.0</ele>
        <time>2018-10-03T11:38:18.000Z</time>
      </trkpt>
      <trkpt lat="42.52450833" lon="-8.01112833">
        <ele>631.0</ele>
        <time>2018-10-03T11:38:19.000Z</time>
      </trkpt>
      <trkpt lat="42.52452333" lon="-8.01113333">
        <ele>631.0</ele>
        <time>2018-10-03T11:38:20.000Z</time>
      </trkpt>
      <trkpt lat="42.52454" lon="-8.01113833">
        <ele>631.0</ele>
        <time>2018-10-03T11:38:21.000Z</time>
      </trkpt>
      <trkpt lat="42.524555" lon="-8.01114333">
        <ele>632.0</ele>
        <time>2018-10-03T11:38:22.000Z</time>
      </trkpt>
      <trkpt lat="42.52457" lon="-8.01114833">
        <ele>632.0</ele>
        <time>2018-10-03T11:38:23.000Z</time>
      </trkpt>
      <trkpt lat="42.524585" lon="-8.01115333">
        <ele>632.0</ele>
        <time>2018-10-03T11:38:24.000Z</time>
      </trkpt>
      <trkpt lat="42.5246" lon="-8.01115833">
        <ele>632.0</ele>
        <time>2018-10-03T11:38:25.000Z</time>
      </trkpt>
      <trkpt lat="42.524615" lon="-8.01116167">
        <ele>632.0</ele>
        <time>2018-10-03T11:38:26.000Z</time>
      </trkpt>
      <trkpt lat="42.52463167" lon="-8.01116667">
        <ele>632.0</ele>
        <time>2018-10-03T11:38:27.000Z</time>
      </trkpt>
      <trkpt lat="42.52464667" lon="-8.01117">
        <ele>632.0</ele>
        <time>2018-10-03T11:38:28.000Z</time>
      </trkpt>
      <trkpt lat="42.52466167" lon="-8.011175">
        <ele>632.0</ele>
        <time>2018-10-03T11:38:29.000Z</time>
      </trkpt>
      <trkpt lat="42.52467833" lon="-8.01118">
        <ele>632.0</ele>
        <time>2018-10-03T11:38:30.000Z</time>
      </trkpt>
      <trkpt lat="42.52469333" lon="-8.01118333">
        <ele>632.0</ele>
        <time>2018-10-03T11:38:31.000Z</time>
      </trkpt>
      <trkpt lat="42.52470833" lon="-8.011185">
        <ele>632.0</ele>
        <time>2018-10-03T11:38:32.000Z</time>
      </trkpt>
      <trkpt lat="42.524725" lon="-8.01118833">
        <ele>632.0</ele>
        <time>2018-10-03T11:38:33.000Z</time>
      </trkpt>
      <trkpt lat="42.52474167" lon="-8.01119333">
        <ele>633.0</ele>
        <time>2018-10-03T11:38:34.000Z</time>
      </trkpt>
      <trkpt lat="42.52475667" lon="-8.01119833">
        <ele>633.0</ele>
        <time>2018-10-03T11:38:35.000Z</time>
      </trkpt>
      <trkpt lat="42.52477167" lon="-8.01120333">
        <ele>633.0</ele>
        <time>2018-10-03T11:38:36.000Z</time>
      </trkpt>
      <trkpt lat="42.524785" lon="-8.01121">
        <ele>633.0</ele>
        <time>2018-10-03T11:38:37.000Z</time>
      </trkpt>
      <trkpt lat="42.5248" lon="-8.01121333">
        <ele>633.0</ele>
        <time>2018-10-03T11:38:38.000Z</time>
      </trkpt>
      <trkpt lat="42.52481333" lon="-8.01121833">
        <ele>633.0</ele>
        <time>2018-10-03T11:38:39.000Z</time>
      </trkpt>
      <trkpt lat="42.52482833" lon="-8.01122167">
        <ele>634.0</ele>
        <time>2018-10-03T11:38:40.000Z</time>
      </trkpt>
      <trkpt lat="42.524845" lon="-8.011225">
        <ele>634.0</ele>
        <time>2018-10-03T11:38:41.000Z</time>
      </trkpt>
      <trkpt lat="42.52486" lon="-8.01122833">
        <ele>634.0</ele>
        <time>2018-10-03T11:38:42.000Z</time>
      </trkpt>
      <trkpt lat="42.524875" lon="-8.01123167">
        <ele>634.0</ele>
        <time>2018-10-03T11:38:43.000Z</time>
      </trkpt>
      <trkpt lat="42.52489" lon="-8.011235">
        <ele>634.0</ele>
        <time>2018-10-03T11:38:44.000Z</time>
      </trkpt>
      <trkpt lat="42.524905" lon="-8.01123667">
        <ele>634.0</ele>
        <time>2018-10-03T11:38:45.000Z</time>
      </trkpt>
      <trkpt lat="42.52491833" lon="-8.01123667">
        <ele>634.0</ele>
        <time>2018-10-03T11:38:46.000Z</time>
      </trkpt>
      <trkpt lat="42.52493167" lon="-8.01123667">
        <ele>633.0</ele>
        <time>2018-10-03T11:38:47.000Z</time>
      </trkpt>
      <trkpt lat="42.52494667" lon="-8.01124">
        <ele>633.0</ele>
        <time>2018-10-03T11:38:48.000Z</time>
      </trkpt>
      <trkpt lat="42.52496167" lon="-8.01124333">
        <ele>633.0</ele>
        <time>2018-10-03T11:38:49.000Z</time>
      </trkpt>
      <trkpt lat="42.52498" lon="-8.011245">
        <ele>633.0</ele>
        <time>2018-10-03T11:38:50.000Z</time>
      </trkpt>
      <trkpt lat="42.52499667" lon="-8.01124667">
        <ele>633.0</ele>
        <time>2018-10-03T11:38:51.000Z</time>
      </trkpt>
      <trkpt lat="42.52501167" lon="-8.01124667">
        <ele>633.0</ele>
        <time>2018-10-03T11:38:52.000Z</time>
      </trkpt>
      <trkpt lat="42.52502667" lon="-8.01124667">
        <ele>633.0</ele>
        <time>2018-10-03T11:38:53.000Z</time>
      </trkpt>
      <trkpt lat="42.52504" lon="-8.01124833">
        <ele>633.0</ele>
        <time>2018-10-03T11:38:54.000Z</time>
      </trkpt>
      <trkpt lat="42.525055" lon="-8.01125">
        <ele>633.0</ele>
        <time>2018-10-03T11:38:55.000Z</time>
      </trkpt>
      <trkpt lat="42.52506833" lon="-8.01125167">
        <ele>633.0</ele>
        <time>2018-10-03T11:38:56.000Z</time>
      </trkpt>
      <trkpt lat="42.52508333" lon="-8.011255">
        <ele>633.0</ele>
        <time>2018-10-03T11:38:57.000Z</time>
      </trkpt>
      <trkpt lat="42.52509833" lon="-8.011255">
        <ele>633.0</ele>
        <time>2018-10-03T11:38:58.000Z</time>
      </trkpt>
      <trkpt lat="42.52511333" lon="-8.01125667">
        <ele>633.0</ele>
        <time>2018-10-03T11:38:59.000Z</time>
      </trkpt>
      <trkpt lat="42.52512833" lon="-8.01126">
        <ele>633.0</ele>
        <time>2018-10-03T11:39:00.000Z</time>
      </trkpt>
      <trkpt lat="42.52514333" lon="-8.01126333">
        <ele>633.0</ele>
        <time>2018-10-03T11:39:01.000Z</time>
      </trkpt>
      <trkpt lat="42.52515833" lon="-8.011265">
        <ele>633.0</ele>
        <time>2018-10-03T11:39:02.000Z</time>
      </trkpt>
      <trkpt lat="42.52517333" lon="-8.011265">
        <ele>634.0</ele>
        <time>2018-10-03T11:39:03.000Z</time>
      </trkpt>
      <trkpt lat="42.52518667" lon="-8.01126833">
        <ele>634.0</ele>
        <time>2018-10-03T11:39:04.000Z</time>
      </trkpt>
      <trkpt lat="42.5252" lon="-8.01127">
        <ele>634.0</ele>
        <time>2018-10-03T11:39:05.000Z</time>
      </trkpt>
      <trkpt lat="42.52521167" lon="-8.01127167">
        <ele>634.0</ele>
        <time>2018-10-03T11:39:06.000Z</time>
      </trkpt>
      <trkpt lat="42.52522333" lon="-8.01127667">
        <ele>634.0</ele>
        <time>2018-10-03T11:39:07.000Z</time>
      </trkpt>
      <trkpt lat="42.52523667" lon="-8.01127833">
        <ele>634.0</ele>
        <time>2018-10-03T11:39:08.000Z</time>
      </trkpt>
      <trkpt lat="42.52524833" lon="-8.01128167">
        <ele>634.0</ele>
        <time>2018-10-03T11:39:09.000Z</time>
      </trkpt>
      <trkpt lat="42.52525833" lon="-8.01128667">
        <ele>634.0</ele>
        <time>2018-10-03T11:39:10.000Z</time>
      </trkpt>
      <trkpt lat="42.52527" lon="-8.01129333">
        <ele>635.0</ele>
        <time>2018-10-03T11:39:11.000Z</time>
      </trkpt>
      <trkpt lat="42.52528" lon="-8.01129833">
        <ele>635.0</ele>
        <time>2018-10-03T11:39:12.000Z</time>
      </trkpt>
      <trkpt lat="42.52529167" lon="-8.0113">
        <ele>635.0</ele>
        <time>2018-10-03T11:39:13.000Z</time>
      </trkpt>
      <trkpt lat="42.52530333" lon="-8.01130167">
        <ele>635.0</ele>
        <time>2018-10-03T11:39:14.000Z</time>
      </trkpt>
      <trkpt lat="42.52531833" lon="-8.01130167">
        <ele>635.0</ele>
        <time>2018-10-03T11:39:15.000Z</time>
      </trkpt>
      <trkpt lat="42.52533333" lon="-8.011305">
        <ele>635.0</ele>
        <time>2018-10-03T11:39:16.000Z</time>
      </trkpt>
      <trkpt lat="42.52534833" lon="-8.011305">
        <ele>635.0</ele>
        <time>2018-10-03T11:39:17.000Z</time>
      </trkpt>
      <trkpt lat="42.52536333" lon="-8.01130833">
        <ele>636.0</ele>
        <time>2018-10-03T11:39:18.000Z</time>
      </trkpt>
      <trkpt lat="42.52537667" lon="-8.01130833">
        <ele>636.0</ele>
        <time>2018-10-03T11:39:19.000Z</time>
      </trkpt>
      <trkpt lat="42.52539" lon="-8.01131333">
        <ele>636.0</ele>
        <time>2018-10-03T11:39:20.000Z</time>
      </trkpt>
      <trkpt lat="42.52540167" lon="-8.01131333">
        <ele>636.0</ele>
        <time>2018-10-03T11:39:21.000Z</time>
      </trkpt>
      <trkpt lat="42.525415" lon="-8.01131333">
        <ele>636.0</ele>
        <time>2018-10-03T11:39:22.000Z</time>
      </trkpt>
      <trkpt lat="42.52543" lon="-8.01131167">
        <ele>636.0</ele>
        <time>2018-10-03T11:39:23.000Z</time>
      </trkpt>
      <trkpt lat="42.525445" lon="-8.01130833">
        <ele>636.0</ele>
        <time>2018-10-03T11:39:24.000Z</time>
      </trkpt>
      <trkpt lat="42.52546" lon="-8.01130833">
        <ele>636.0</ele>
        <time>2018-10-03T11:39:25.000Z</time>
      </trkpt>
      <trkpt lat="42.52547333" lon="-8.01130833">
        <ele>636.0</ele>
        <time>2018-10-03T11:39:26.000Z</time>
      </trkpt>
      <trkpt lat="42.52548833" lon="-8.01130667">
        <ele>636.0</ele>
        <time>2018-10-03T11:39:27.000Z</time>
      </trkpt>
      <trkpt lat="42.52550167" lon="-8.011305">
        <ele>636.0</ele>
        <time>2018-10-03T11:39:28.000Z</time>
      </trkpt>
      <trkpt lat="42.52551667" lon="-8.01130167">
        <ele>636.0</ele>
        <time>2018-10-03T11:39:29.000Z</time>
      </trkpt>
      <trkpt lat="42.52553167" lon="-8.0113">
        <ele>636.0</ele>
        <time>2018-10-03T11:39:30.000Z</time>
      </trkpt>
      <trkpt lat="42.52554667" lon="-8.01129667">
        <ele>636.0</ele>
        <time>2018-10-03T11:39:31.000Z</time>
      </trkpt>
      <trkpt lat="42.52556167" lon="-8.011295">
        <ele>636.0</ele>
        <time>2018-10-03T11:39:32.000Z</time>
      </trkpt>
      <trkpt lat="42.52557667" lon="-8.01129">
        <ele>636.0</ele>
        <time>2018-10-03T11:39:33.000Z</time>
      </trkpt>
      <trkpt lat="42.52559167" lon="-8.01128667">
        <ele>636.0</ele>
        <time>2018-10-03T11:39:34.000Z</time>
      </trkpt>
      <trkpt lat="42.52560667" lon="-8.01128167">
        <ele>635.0</ele>
        <time>2018-10-03T11:39:35.000Z</time>
      </trkpt>
      <trkpt lat="42.52562333" lon="-8.01127833">
        <ele>635.0</ele>
        <time>2018-10-03T11:39:36.000Z</time>
      </trkpt>
      <trkpt lat="42.52564" lon="-8.01127333">
        <ele>635.0</ele>
        <time>2018-10-03T11:39:37.000Z</time>
      </trkpt>
      <trkpt lat="42.52565667" lon="-8.01127167">
        <ele>635.0</ele>
        <time>2018-10-03T11:39:38.000Z</time>
      </trkpt>
      <trkpt lat="42.52567333" lon="-8.01126667">
        <ele>635.0</ele>
        <time>2018-10-03T11:39:39.000Z</time>
      </trkpt>
      <trkpt lat="42.52568833" lon="-8.01126333">
        <ele>635.0</ele>
        <time>2018-10-03T11:39:40.000Z</time>
      </trkpt>
      <trkpt lat="42.525705" lon="-8.01126167">
        <ele>635.0</ele>
        <time>2018-10-03T11:39:41.000Z</time>
      </trkpt>
      <trkpt lat="42.52572" lon="-8.01126">
        <ele>635.0</ele>
        <time>2018-10-03T11:39:42.000Z</time>
      </trkpt>
      <trkpt lat="42.525735" lon="-8.01125667">
        <ele>635.0</ele>
        <time>2018-10-03T11:39:43.000Z</time>
      </trkpt>
      <trkpt lat="42.52575333" lon="-8.01125167">
        <ele>635.0</ele>
        <time>2018-10-03T11:39:44.000Z</time>
      </trkpt>
      <trkpt lat="42.52577" lon="-8.01124667">
        <ele>635.0</ele>
        <time>2018-10-03T11:39:45.000Z</time>
      </trkpt>
      <trkpt lat="42.52578833" lon="-8.01124">
        <ele>636.0</ele>
        <time>2018-10-03T11:39:46.000Z</time>
      </trkpt>
      <trkpt lat="42.525805" lon="-8.01123167">
        <ele>636.0</ele>
        <time>2018-10-03T11:39:47.000Z</time>
      </trkpt>
      <trkpt lat="42.52582167" lon="-8.011225">
        <ele>636.0</ele>
        <time>2018-10-03T11:39:48.000Z</time>
      </trkpt>
      <trkpt lat="42.52583667" lon="-8.01121667">
        <ele>636.0</ele>
        <time>2018-10-03T11:39:49.000Z</time>
      </trkpt>
      <trkpt lat="42.52585167" lon="-8.01121333">
        <ele>637.0</ele>
        <time>2018-10-03T11:39:50.000Z</time>
      </trkpt>
      <trkpt lat="42.52586667" lon="-8.01120833">
        <ele>637.0</ele>
        <time>2018-10-03T11:39:51.000Z</time>
      </trkpt>
      <trkpt lat="42.52588333" lon="-8.01120167">
        <ele>637.0</ele>
        <time>2018-10-03T11:39:52.000Z</time>
      </trkpt>
      <trkpt lat="42.52589833" lon="-8.01119333">
        <ele>637.0</ele>
        <time>2018-10-03T11:39:53.000Z</time>
      </trkpt>
      <trkpt lat="42.525915" lon="-8.011185">
        <ele>637.0</ele>
        <time>2018-10-03T11:39:54.000Z</time>
      </trkpt>
      <trkpt lat="42.52593167" lon="-8.011175">
        <ele>637.0</ele>
        <time>2018-10-03T11:39:55.000Z</time>
      </trkpt>
      <trkpt lat="42.52594833" lon="-8.011165">
        <ele>637.0</ele>
        <time>2018-10-03T11:39:56.000Z</time>
      </trkpt>
      <trkpt lat="42.525965" lon="-8.01115833">
        <ele>637.0</ele>
        <time>2018-10-03T11:39:57.000Z</time>
      </trkpt>
      <trkpt lat="42.52598" lon="-8.01115167">
        <ele>637.0</ele>
        <time>2018-10-03T11:39:58.000Z</time>
      </trkpt>
      <trkpt lat="42.52599333" lon="-8.011145">
        <ele>637.0</ele>
        <time>2018-10-03T11:39:59.000Z</time>
      </trkpt>
      <trkpt lat="42.52600833" lon="-8.01113833">
        <ele>637.0</ele>
        <time>2018-10-03T11:40:00.000Z</time>
      </trkpt>
      <trkpt lat="42.52602167" lon="-8.01113333">
        <ele>637.0</ele>
        <time>2018-10-03T11:40:01.000Z</time>
      </trkpt>
      <trkpt lat="42.52603667" lon="-8.01113">
        <ele>638.0</ele>
        <time>2018-10-03T11:40:02.000Z</time>
      </trkpt>
      <trkpt lat="42.52605333" lon="-8.011125">
        <ele>638.0</ele>
        <time>2018-10-03T11:40:03.000Z</time>
      </trkpt>
      <trkpt lat="42.52607" lon="-8.01111667">
        <ele>638.0</ele>
        <time>2018-10-03T11:40:04.000Z</time>
      </trkpt>
      <trkpt lat="42.52608667" lon="-8.01111167">
        <ele>638.0</ele>
        <time>2018-10-03T11:40:05.000Z</time>
      </trkpt>
      <trkpt lat="42.52610333" lon="-8.01110667">
        <ele>638.0</ele>
        <time>2018-10-03T11:40:06.000Z</time>
      </trkpt>
      <trkpt lat="42.52611833" lon="-8.0111">
        <ele>638.0</ele>
        <time>2018-10-03T11:40:07.000Z</time>
      </trkpt>
      <trkpt lat="42.52613333" lon="-8.01109833">
        <ele>638.0</ele>
        <time>2018-10-03T11:40:08.000Z</time>
      </trkpt>
      <trkpt lat="42.52614833" lon="-8.01109833">
        <ele>638.0</ele>
        <time>2018-10-03T11:40:09.000Z</time>
      </trkpt>
      <trkpt lat="42.52616333" lon="-8.01109667">
        <ele>638.0</ele>
        <time>2018-10-03T11:40:10.000Z</time>
      </trkpt>
      <trkpt lat="42.52618167" lon="-8.01109333">
        <ele>638.0</ele>
        <time>2018-10-03T11:40:11.000Z</time>
      </trkpt>
      <trkpt lat="42.5262" lon="-8.01108833">
        <ele>638.0</ele>
        <time>2018-10-03T11:40:12.000Z</time>
      </trkpt>
      <trkpt lat="42.52621833" lon="-8.011085">
        <ele>638.0</ele>
        <time>2018-10-03T11:40:13.000Z</time>
      </trkpt>
      <trkpt lat="42.52623667" lon="-8.01108167">
        <ele>638.0</ele>
        <time>2018-10-03T11:40:14.000Z</time>
      </trkpt>
      <trkpt lat="42.52625167" lon="-8.01108167">
        <ele>638.0</ele>
        <time>2018-10-03T11:40:15.000Z</time>
      </trkpt>
      <trkpt lat="42.52626667" lon="-8.01108167">
        <ele>638.0</ele>
        <time>2018-10-03T11:40:16.000Z</time>
      </trkpt>
      <trkpt lat="42.52628333" lon="-8.01108">
        <ele>638.0</ele>
        <time>2018-10-03T11:40:17.000Z</time>
      </trkpt>
      <trkpt lat="42.52629833" lon="-8.01108167">
        <ele>638.0</ele>
        <time>2018-10-03T11:40:18.000Z</time>
      </trkpt>
      <trkpt lat="42.52631667" lon="-8.01108333">
        <ele>638.0</ele>
        <time>2018-10-03T11:40:19.000Z</time>
      </trkpt>
      <trkpt lat="42.526335" lon="-8.011085">
        <ele>638.0</ele>
        <time>2018-10-03T11:40:20.000Z</time>
      </trkpt>
      <trkpt lat="42.52635333" lon="-8.011085">
        <ele>639.0</ele>
        <time>2018-10-03T11:40:21.000Z</time>
      </trkpt>
      <trkpt lat="42.52637" lon="-8.01108333">
        <ele>639.0</ele>
        <time>2018-10-03T11:40:22.000Z</time>
      </trkpt>
      <trkpt lat="42.526385" lon="-8.01108333">
        <ele>639.0</ele>
        <time>2018-10-03T11:40:23.000Z</time>
      </trkpt>
      <trkpt lat="42.52639833" lon="-8.011085">
        <ele>639.0</ele>
        <time>2018-10-03T11:40:24.000Z</time>
      </trkpt>
      <trkpt lat="42.526415" lon="-8.01108333">
        <ele>639.0</ele>
        <time>2018-10-03T11:40:25.000Z</time>
      </trkpt>
      <trkpt lat="42.52643167" lon="-8.01108">
        <ele>639.0</ele>
        <time>2018-10-03T11:40:26.000Z</time>
      </trkpt>
      <trkpt lat="42.52644833" lon="-8.01108">
        <ele>639.0</ele>
        <time>2018-10-03T11:40:27.000Z</time>
      </trkpt>
      <trkpt lat="42.52646667" lon="-8.01108167">
        <ele>639.0</ele>
        <time>2018-10-03T11:40:28.000Z</time>
      </trkpt>
      <trkpt lat="42.526485" lon="-8.01108167">
        <ele>639.0</ele>
        <time>2018-10-03T11:40:29.000Z</time>
      </trkpt>
      <trkpt lat="42.52650167" lon="-8.01108167">
        <ele>639.0</ele>
        <time>2018-10-03T11:40:30.000Z</time>
      </trkpt>
      <trkpt lat="42.52651667" lon="-8.011085">
        <ele>640.0</ele>
        <time>2018-10-03T11:40:31.000Z</time>
      </trkpt>
      <trkpt lat="42.52653333" lon="-8.01108667">
        <ele>640.0</ele>
        <time>2018-10-03T11:40:32.000Z</time>
      </trkpt>
      <trkpt lat="42.52654667" lon="-8.01108833">
        <ele>640.0</ele>
        <time>2018-10-03T11:40:33.000Z</time>
      </trkpt>
      <trkpt lat="42.52656333" lon="-8.01109167">
        <ele>640.0</ele>
        <time>2018-10-03T11:40:34.000Z</time>
      </trkpt>
      <trkpt lat="42.52658" lon="-8.011095">
        <ele>640.0</ele>
        <time>2018-10-03T11:40:35.000Z</time>
      </trkpt>
      <trkpt lat="42.52659833" lon="-8.011095">
        <ele>640.0</ele>
        <time>2018-10-03T11:40:36.000Z</time>
      </trkpt>
      <trkpt lat="42.52661333" lon="-8.01109833">
        <ele>640.0</ele>
        <time>2018-10-03T11:40:37.000Z</time>
      </trkpt>
      <trkpt lat="42.52663" lon="-8.0111">
        <ele>640.0</ele>
        <time>2018-10-03T11:40:38.000Z</time>
      </trkpt>
      <trkpt lat="42.526645" lon="-8.01110167">
        <ele>640.0</ele>
        <time>2018-10-03T11:40:39.000Z</time>
      </trkpt>
      <trkpt lat="42.52665833" lon="-8.011105">
        <ele>640.0</ele>
        <time>2018-10-03T11:40:40.000Z</time>
      </trkpt>
      <trkpt lat="42.52667167" lon="-8.01111">
        <ele>640.0</ele>
        <time>2018-10-03T11:40:41.000Z</time>
      </trkpt>
      <trkpt lat="42.526685" lon="-8.01111667">
        <ele>640.0</ele>
        <time>2018-10-03T11:40:42.000Z</time>
      </trkpt>
      <trkpt lat="42.52669833" lon="-8.01111833">
        <ele>641.0</ele>
        <time>2018-10-03T11:40:43.000Z</time>
      </trkpt>
      <trkpt lat="42.526715" lon="-8.01112">
        <ele>641.0</ele>
        <time>2018-10-03T11:40:44.000Z</time>
      </trkpt>
      <trkpt lat="42.52673" lon="-8.01112167">
        <ele>641.0</ele>
        <time>2018-10-03T11:40:45.000Z</time>
      </trkpt>
      <trkpt lat="42.52674667" lon="-8.01112667">
        <ele>641.0</ele>
        <time>2018-10-03T11:40:46.000Z</time>
      </trkpt>
      <trkpt lat="42.52676333" lon="-8.01113">
        <ele>641.0</ele>
        <time>2018-10-03T11:40:47.000Z</time>
      </trkpt>
      <trkpt lat="42.52677833" lon="-8.01113333">
        <ele>641.0</ele>
        <time>2018-10-03T11:40:48.000Z</time>
      </trkpt>
      <trkpt lat="42.52679333" lon="-8.01113667">
        <ele>641.0</ele>
        <time>2018-10-03T11:40:49.000Z</time>
      </trkpt>
      <trkpt lat="42.52680833" lon="-8.01114">
        <ele>641.0</ele>
        <time>2018-10-03T11:40:50.000Z</time>
      </trkpt>
      <trkpt lat="42.52682667" lon="-8.011145">
        <ele>641.0</ele>
        <time>2018-10-03T11:40:51.000Z</time>
      </trkpt>
      <trkpt lat="42.52684333" lon="-8.01115">
        <ele>641.0</ele>
        <time>2018-10-03T11:40:52.000Z</time>
      </trkpt>
      <trkpt lat="42.52686" lon="-8.01115333">
        <ele>641.0</ele>
        <time>2018-10-03T11:40:53.000Z</time>
      </trkpt>
      <trkpt lat="42.52687667" lon="-8.011155">
        <ele>641.0</ele>
        <time>2018-10-03T11:40:54.000Z</time>
      </trkpt>
      <trkpt lat="42.52689333" lon="-8.01115667">
        <ele>641.0</ele>
        <time>2018-10-03T11:40:55.000Z</time>
      </trkpt>
      <trkpt lat="42.52691" lon="-8.01116167">
        <ele>641.0</ele>
        <time>2018-10-03T11:40:56.000Z</time>
      </trkpt>
      <trkpt lat="42.526925" lon="-8.011165">
        <ele>641.0</ele>
        <time>2018-10-03T11:40:57.000Z</time>
      </trkpt>
      <trkpt lat="42.52694" lon="-8.01116833">
        <ele>641.0</ele>
        <time>2018-10-03T11:40:58.000Z</time>
      </trkpt>
      <trkpt lat="42.526955" lon="-8.01117167">
        <ele>641.0</ele>
        <time>2018-10-03T11:40:59.000Z</time>
      </trkpt>
      <trkpt lat="42.52697167" lon="-8.011175">
        <ele>641.0</ele>
        <time>2018-10-03T11:41:00.000Z</time>
      </trkpt>
      <trkpt lat="42.52698833" lon="-8.01117833">
        <ele>641.0</ele>
        <time>2018-10-03T11:41:01.000Z</time>
      </trkpt>
      <trkpt lat="42.527005" lon="-8.01118">
        <ele>641.0</ele>
        <time>2018-10-03T11:41:02.000Z</time>
      </trkpt>
      <trkpt lat="42.52702333" lon="-8.01118">
        <ele>641.0</ele>
        <time>2018-10-03T11:41:03.000Z</time>
      </trkpt>
      <trkpt lat="42.52704" lon="-8.01118167">
        <ele>641.0</ele>
        <time>2018-10-03T11:41:04.000Z</time>
      </trkpt>
      <trkpt lat="42.52705667" lon="-8.011185">
        <ele>641.0</ele>
        <time>2018-10-03T11:41:05.000Z</time>
      </trkpt>
      <trkpt lat="42.52707333" lon="-8.01118833">
        <ele>641.0</ele>
        <time>2018-10-03T11:41:06.000Z</time>
      </trkpt>
      <trkpt lat="42.52708833" lon="-8.01119167">
        <ele>641.0</ele>
        <time>2018-10-03T11:41:07.000Z</time>
      </trkpt>
      <trkpt lat="42.52710167" lon="-8.01119667">
        <ele>642.0</ele>
        <time>2018-10-03T11:41:08.000Z</time>
      </trkpt>
      <trkpt lat="42.52711833" lon="-8.01120333">
        <ele>642.0</ele>
        <time>2018-10-03T11:41:09.000Z</time>
      </trkpt>
      <trkpt lat="42.527135" lon="-8.01120833">
        <ele>642.0</ele>
        <time>2018-10-03T11:41:10.000Z</time>
      </trkpt>
      <trkpt lat="42.52715333" lon="-8.01121167">
        <ele>642.0</ele>
        <time>2018-10-03T11:41:11.000Z</time>
      </trkpt>
      <trkpt lat="42.52717" lon="-8.01121333">
        <ele>642.0</ele>
        <time>2018-10-03T11:41:12.000Z</time>
      </trkpt>
      <trkpt lat="42.52718667" lon="-8.01121667">
        <ele>642.0</ele>
        <time>2018-10-03T11:41:13.000Z</time>
      </trkpt>
      <trkpt lat="42.52720167" lon="-8.01122">
        <ele>642.0</ele>
        <time>2018-10-03T11:41:14.000Z</time>
      </trkpt>
      <trkpt lat="42.52721833" lon="-8.011225">
        <ele>642.0</ele>
        <time>2018-10-03T11:41:15.000Z</time>
      </trkpt>
      <trkpt lat="42.527235" lon="-8.01122833">
        <ele>642.0</ele>
        <time>2018-10-03T11:41:16.000Z</time>
      </trkpt>
      <trkpt lat="42.52725167" lon="-8.011235">
        <ele>642.0</ele>
        <time>2018-10-03T11:41:17.000Z</time>
      </trkpt>
      <trkpt lat="42.52726667" lon="-8.01124167">
        <ele>642.0</ele>
        <time>2018-10-03T11:41:18.000Z</time>
      </trkpt>
      <trkpt lat="42.52728167" lon="-8.01124833">
        <ele>642.0</ele>
        <time>2018-10-03T11:41:19.000Z</time>
      </trkpt>
      <trkpt lat="42.52729833" lon="-8.01125333">
        <ele>643.0</ele>
        <time>2018-10-03T11:41:20.000Z</time>
      </trkpt>
      <trkpt lat="42.527315" lon="-8.01125833">
        <ele>643.0</ele>
        <time>2018-10-03T11:41:21.000Z</time>
      </trkpt>
      <trkpt lat="42.52733" lon="-8.01126167">
        <ele>643.0</ele>
        <time>2018-10-03T11:41:22.000Z</time>
      </trkpt>
      <trkpt lat="42.52734667" lon="-8.01126667">
        <ele>643.0</ele>
        <time>2018-10-03T11:41:23.000Z</time>
      </trkpt>
      <trkpt lat="42.52736167" lon="-8.01127">
        <ele>643.0</ele>
        <time>2018-10-03T11:41:24.000Z</time>
      </trkpt>
      <trkpt lat="42.52737667" lon="-8.011275">
        <ele>643.0</ele>
        <time>2018-10-03T11:41:25.000Z</time>
      </trkpt>
      <trkpt lat="42.52739167" lon="-8.01128">
        <ele>643.0</ele>
        <time>2018-10-03T11:41:26.000Z</time>
      </trkpt>
      <trkpt lat="42.52740667" lon="-8.01128333">
        <ele>643.0</ele>
        <time>2018-10-03T11:41:27.000Z</time>
      </trkpt>
      <trkpt lat="42.52742167" lon="-8.01128833">
        <ele>643.0</ele>
        <time>2018-10-03T11:41:28.000Z</time>
      </trkpt>
      <trkpt lat="42.52743667" lon="-8.01129">
        <ele>643.0</ele>
        <time>2018-10-03T11:41:29.000Z</time>
      </trkpt>
      <trkpt lat="42.52745167" lon="-8.01129167">
        <ele>643.0</ele>
        <time>2018-10-03T11:41:30.000Z</time>
      </trkpt>
      <trkpt lat="42.52746833" lon="-8.01129333">
        <ele>643.0</ele>
        <time>2018-10-03T11:41:31.000Z</time>
      </trkpt>
      <trkpt lat="42.527485" lon="-8.01129667">
        <ele>643.0</ele>
        <time>2018-10-03T11:41:32.000Z</time>
      </trkpt>
      <trkpt lat="42.52750333" lon="-8.01129833">
        <ele>643.0</ele>
        <time>2018-10-03T11:41:33.000Z</time>
      </trkpt>
      <trkpt lat="42.52752" lon="-8.0113">
        <ele>643.0</ele>
        <time>2018-10-03T11:41:34.000Z</time>
      </trkpt>
      <trkpt lat="42.52753667" lon="-8.01130167">
        <ele>643.0</ele>
        <time>2018-10-03T11:41:35.000Z</time>
      </trkpt>
      <trkpt lat="42.52755333" lon="-8.01130167">
        <ele>643.0</ele>
        <time>2018-10-03T11:41:36.000Z</time>
      </trkpt>
      <trkpt lat="42.52756667" lon="-8.01130167">
        <ele>643.0</ele>
        <time>2018-10-03T11:41:37.000Z</time>
      </trkpt>
      <trkpt lat="42.52758167" lon="-8.01130333">
        <ele>643.0</ele>
        <time>2018-10-03T11:41:38.000Z</time>
      </trkpt>
      <trkpt lat="42.527595" lon="-8.011305">
        <ele>642.0</ele>
        <time>2018-10-03T11:41:39.000Z</time>
      </trkpt>
      <trkpt lat="42.52761" lon="-8.01131">
        <ele>642.0</ele>
        <time>2018-10-03T11:41:40.000Z</time>
      </trkpt>
      <trkpt lat="42.527625" lon="-8.01131333">
        <ele>642.0</ele>
        <time>2018-10-03T11:41:41.000Z</time>
      </trkpt>
      <trkpt lat="42.52764333" lon="-8.011315">
        <ele>642.0</ele>
        <time>2018-10-03T11:41:42.000Z</time>
      </trkpt>
      <trkpt lat="42.52765833" lon="-8.011315">
        <ele>642.0</ele>
        <time>2018-10-03T11:41:43.000Z</time>
      </trkpt>
      <trkpt lat="42.52767167" lon="-8.011315">
        <ele>643.0</ele>
        <time>2018-10-03T11:41:44.000Z</time>
      </trkpt>
      <trkpt lat="42.52768667" lon="-8.01131333">
        <ele>643.0</ele>
        <time>2018-10-03T11:41:45.000Z</time>
      </trkpt>
      <trkpt lat="42.52770167" lon="-8.01131167">
        <ele>643.0</ele>
        <time>2018-10-03T11:41:46.000Z</time>
      </trkpt>
      <trkpt lat="42.52771667" lon="-8.01131">
        <ele>643.0</ele>
        <time>2018-10-03T11:41:47.000Z</time>
      </trkpt>
      <trkpt lat="42.52773" lon="-8.01130833">
        <ele>643.0</ele>
        <time>2018-10-03T11:41:48.000Z</time>
      </trkpt>
      <trkpt lat="42.527745" lon="-8.01130833">
        <ele>643.0</ele>
        <time>2018-10-03T11:41:49.000Z</time>
      </trkpt>
      <trkpt lat="42.52776167" lon="-8.01130667">
        <ele>643.0</ele>
        <time>2018-10-03T11:41:50.000Z</time>
      </trkpt>
      <trkpt lat="42.52777833" lon="-8.01130333">
        <ele>643.0</ele>
        <time>2018-10-03T11:41:51.000Z</time>
      </trkpt>
      <trkpt lat="42.527795" lon="-8.01130167">
        <ele>643.0</ele>
        <time>2018-10-03T11:41:52.000Z</time>
      </trkpt>
      <trkpt lat="42.52781167" lon="-8.0113">
        <ele>643.0</ele>
        <time>2018-10-03T11:41:53.000Z</time>
      </trkpt>
      <trkpt lat="42.52782833" lon="-8.0113">
        <ele>643.0</ele>
        <time>2018-10-03T11:41:54.000Z</time>
      </trkpt>
      <trkpt lat="42.52784333" lon="-8.0113">
        <ele>643.0</ele>
        <time>2018-10-03T11:41:55.000Z</time>
      </trkpt>
      <trkpt lat="42.52786" lon="-8.01129667">
        <ele>643.0</ele>
        <time>2018-10-03T11:41:56.000Z</time>
      </trkpt>
      <trkpt lat="42.527875" lon="-8.01129333">
        <ele>643.0</ele>
        <time>2018-10-03T11:41:57.000Z</time>
      </trkpt>
      <trkpt lat="42.52789" lon="-8.01129">
        <ele>643.0</ele>
        <time>2018-10-03T11:41:58.000Z</time>
      </trkpt>
      <trkpt lat="42.527905" lon="-8.01128667">
        <ele>643.0</ele>
        <time>2018-10-03T11:41:59.000Z</time>
      </trkpt>
      <trkpt lat="42.52792" lon="-8.011285">
        <ele>643.0</ele>
        <time>2018-10-03T11:42:00.000Z</time>
      </trkpt>
      <trkpt lat="42.52793333" lon="-8.01127833">
        <ele>643.0</ele>
        <time>2018-10-03T11:42:01.000Z</time>
      </trkpt>
      <trkpt lat="42.52794833" lon="-8.01126667">
        <ele>643.0</ele>
        <time>2018-10-03T11:42:02.000Z</time>
      </trkpt>
      <trkpt lat="42.52796" lon="-8.01125667">
        <ele>643.0</ele>
        <time>2018-10-03T11:42:03.000Z</time>
      </trkpt>
      <trkpt lat="42.52797333" lon="-8.01124667">
        <ele>643.0</ele>
        <time>2018-10-03T11:42:04.000Z</time>
      </trkpt>
      <trkpt lat="42.52798667" lon="-8.01124">
        <ele>643.0</ele>
        <time>2018-10-03T11:42:05.000Z</time>
      </trkpt>
      <trkpt lat="42.528" lon="-8.01123167">
        <ele>643.0</ele>
        <time>2018-10-03T11:42:06.000Z</time>
      </trkpt>
      <trkpt lat="42.52801333" lon="-8.01122833">
        <ele>643.0</ele>
        <time>2018-10-03T11:42:07.000Z</time>
      </trkpt>
      <trkpt lat="42.52802833" lon="-8.01122">
        <ele>643.0</ele>
        <time>2018-10-03T11:42:08.000Z</time>
      </trkpt>
      <trkpt lat="42.52804" lon="-8.011215">
        <ele>643.0</ele>
        <time>2018-10-03T11:42:09.000Z</time>
      </trkpt>
      <trkpt lat="42.52805333" lon="-8.01121167">
        <ele>643.0</ele>
        <time>2018-10-03T11:42:10.000Z</time>
      </trkpt>
      <trkpt lat="42.52806667" lon="-8.01120667">
        <ele>643.0</ele>
        <time>2018-10-03T11:42:11.000Z</time>
      </trkpt>
      <trkpt lat="42.52808333" lon="-8.0112">
        <ele>643.0</ele>
        <time>2018-10-03T11:42:12.000Z</time>
      </trkpt>
      <trkpt lat="42.52809667" lon="-8.01119167">
        <ele>643.0</ele>
        <time>2018-10-03T11:42:13.000Z</time>
      </trkpt>
      <trkpt lat="42.52811" lon="-8.01118333">
        <ele>643.0</ele>
        <time>2018-10-03T11:42:14.000Z</time>
      </trkpt>
      <trkpt lat="42.528125" lon="-8.01117833">
        <ele>644.0</ele>
        <time>2018-10-03T11:42:15.000Z</time>
      </trkpt>
      <trkpt lat="42.52814" lon="-8.01117333">
        <ele>644.0</ele>
        <time>2018-10-03T11:42:16.000Z</time>
      </trkpt>
      <trkpt lat="42.528155" lon="-8.011165">
        <ele>644.0</ele>
        <time>2018-10-03T11:42:17.000Z</time>
      </trkpt>
      <trkpt lat="42.52817" lon="-8.01115833">
        <ele>644.0</ele>
        <time>2018-10-03T11:42:18.000Z</time>
      </trkpt>
      <trkpt lat="42.52818333" lon="-8.01115167">
        <ele>644.0</ele>
        <time>2018-10-03T11:42:19.000Z</time>
      </trkpt>
      <trkpt lat="42.52819833" lon="-8.01114667">
        <ele>644.0</ele>
        <time>2018-10-03T11:42:20.000Z</time>
      </trkpt>
      <trkpt lat="42.52821167" lon="-8.01113833">
        <ele>644.0</ele>
        <time>2018-10-03T11:42:21.000Z</time>
      </trkpt>
      <trkpt lat="42.52822667" lon="-8.01113">
        <ele>644.0</ele>
        <time>2018-10-03T11:42:22.000Z</time>
      </trkpt>
      <trkpt lat="42.52824167" lon="-8.01112">
        <ele>644.0</ele>
        <time>2018-10-03T11:42:23.000Z</time>
      </trkpt>
      <trkpt lat="42.52825667" lon="-8.01111">
        <ele>644.0</ele>
        <time>2018-10-03T11:42:24.000Z</time>
      </trkpt>
      <trkpt lat="42.52827" lon="-8.0111">
        <ele>644.0</ele>
        <time>2018-10-03T11:42:25.000Z</time>
      </trkpt>
      <trkpt lat="42.52828333" lon="-8.01108333">
        <ele>644.0</ele>
        <time>2018-10-03T11:42:26.000Z</time>
      </trkpt>
      <trkpt lat="42.52829667" lon="-8.01106833">
        <ele>643.0</ele>
        <time>2018-10-03T11:42:27.000Z</time>
      </trkpt>
      <trkpt lat="42.52830833" lon="-8.01105167">
        <ele>643.0</ele>
        <time>2018-10-03T11:42:28.000Z</time>
      </trkpt>
      <trkpt lat="42.52832" lon="-8.01103667">
        <ele>643.0</ele>
        <time>2018-10-03T11:42:29.000Z</time>
      </trkpt>
      <trkpt lat="42.52833333" lon="-8.01102">
        <ele>643.0</ele>
        <time>2018-10-03T11:42:30.000Z</time>
      </trkpt>
      <trkpt lat="42.528345" lon="-8.01100333">
        <ele>643.0</ele>
        <time>2018-10-03T11:42:31.000Z</time>
      </trkpt>
      <trkpt lat="42.52835667" lon="-8.010985">
        <ele>643.0</ele>
        <time>2018-10-03T11:42:32.000Z</time>
      </trkpt>
      <trkpt lat="42.52836667" lon="-8.01097333">
        <ele>642.0</ele>
        <time>2018-10-03T11:42:33.000Z</time>
      </trkpt>
      <trkpt lat="42.52838" lon="-8.01096167">
        <ele>642.0</ele>
        <time>2018-10-03T11:42:34.000Z</time>
      </trkpt>
      <trkpt lat="42.52839333" lon="-8.01095167">
        <ele>642.0</ele>
        <time>2018-10-03T11:42:35.000Z</time>
      </trkpt>
      <trkpt lat="42.52840667" lon="-8.01093333">
        <ele>642.0</ele>
        <time>2018-10-03T11:42:36.000Z</time>
      </trkpt>
      <trkpt lat="42.52841833" lon="-8.01091667">
        <ele>641.0</ele>
        <time>2018-10-03T11:42:37.000Z</time>
      </trkpt>
      <trkpt lat="42.52842833" lon="-8.01089833">
        <ele>641.0</ele>
        <time>2018-10-03T11:42:38.000Z</time>
      </trkpt>
      <trkpt lat="42.52843667" lon="-8.01088167">
        <ele>641.0</ele>
        <time>2018-10-03T11:42:39.000Z</time>
      </trkpt>
      <trkpt lat="42.528445" lon="-8.010865">
        <ele>641.0</ele>
        <time>2018-10-03T11:42:40.000Z</time>
      </trkpt>
      <trkpt lat="42.52845333" lon="-8.01084667">
        <ele>641.0</ele>
        <time>2018-10-03T11:42:41.000Z</time>
      </trkpt>
      <trkpt lat="42.52846" lon="-8.01082833">
        <ele>641.0</ele>
        <time>2018-10-03T11:42:42.000Z</time>
      </trkpt>
      <trkpt lat="42.52846833" lon="-8.01081">
        <ele>641.0</ele>
        <time>2018-10-03T11:42:43.000Z</time>
      </trkpt>
      <trkpt lat="42.52847667" lon="-8.01079333">
        <ele>640.0</ele>
        <time>2018-10-03T11:42:44.000Z</time>
      </trkpt>
      <trkpt lat="42.528485" lon="-8.010775">
        <ele>640.0</ele>
        <time>2018-10-03T11:42:45.000Z</time>
      </trkpt>
      <trkpt lat="42.52849333" lon="-8.01075833">
        <ele>640.0</ele>
        <time>2018-10-03T11:42:46.000Z</time>
      </trkpt>
      <trkpt lat="42.52850167" lon="-8.01074">
        <ele>640.0</ele>
        <time>2018-10-03T11:42:47.000Z</time>
      </trkpt>
      <trkpt lat="42.52851" lon="-8.01072333">
        <ele>640.0</ele>
        <time>2018-10-03T11:42:48.000Z</time>
      </trkpt>
      <trkpt lat="42.528515" lon="-8.01070667">
        <ele>640.0</ele>
        <time>2018-10-03T11:42:49.000Z</time>
      </trkpt>
      <trkpt lat="42.52852167" lon="-8.01068833">
        <ele>640.0</ele>
        <time>2018-10-03T11:42:50.000Z</time>
      </trkpt>
      <trkpt lat="42.52852833" lon="-8.01067">
        <ele>640.0</ele>
        <time>2018-10-03T11:42:51.000Z</time>
      </trkpt>
      <trkpt lat="42.52853833" lon="-8.01065167">
        <ele>640.0</ele>
        <time>2018-10-03T11:42:52.000Z</time>
      </trkpt>
      <trkpt lat="42.528545" lon="-8.01063333">
        <ele>640.0</ele>
        <time>2018-10-03T11:42:53.000Z</time>
      </trkpt>
      <trkpt lat="42.52855333" lon="-8.01061667">
        <ele>640.0</ele>
        <time>2018-10-03T11:42:54.000Z</time>
      </trkpt>
      <trkpt lat="42.52856" lon="-8.0106">
        <ele>640.0</ele>
        <time>2018-10-03T11:42:55.000Z</time>
      </trkpt>
      <trkpt lat="42.52856833" lon="-8.010585">
        <ele>640.0</ele>
        <time>2018-10-03T11:42:56.000Z</time>
      </trkpt>
      <trkpt lat="42.52857833" lon="-8.01057167">
        <ele>640.0</ele>
        <time>2018-10-03T11:42:57.000Z</time>
      </trkpt>
      <trkpt lat="42.52858833" lon="-8.01056">
        <ele>640.0</ele>
        <time>2018-10-03T11:42:58.000Z</time>
      </trkpt>
      <trkpt lat="42.52859833" lon="-8.01055167">
        <ele>640.0</ele>
        <time>2018-10-03T11:42:59.000Z</time>
      </trkpt>
      <trkpt lat="42.52861167" lon="-8.01054333">
        <ele>640.0</ele>
        <time>2018-10-03T11:43:00.000Z</time>
      </trkpt>
      <trkpt lat="42.52862333" lon="-8.01053667">
        <ele>640.0</ele>
        <time>2018-10-03T11:43:01.000Z</time>
      </trkpt>
      <trkpt lat="42.52864" lon="-8.01053333">
        <ele>640.0</ele>
        <time>2018-10-03T11:43:02.000Z</time>
      </trkpt>
      <trkpt lat="42.52865667" lon="-8.01053167">
        <ele>640.0</ele>
        <time>2018-10-03T11:43:03.000Z</time>
      </trkpt>
      <trkpt lat="42.52866833" lon="-8.01053167">
        <ele>640.0</ele>
        <time>2018-10-03T11:43:04.000Z</time>
      </trkpt>
      <trkpt lat="42.528685" lon="-8.01052833">
        <ele>640.0</ele>
        <time>2018-10-03T11:43:05.000Z</time>
      </trkpt>
      <trkpt lat="42.5287" lon="-8.01052333">
        <ele>640.0</ele>
        <time>2018-10-03T11:43:06.000Z</time>
      </trkpt>
      <trkpt lat="42.52871333" lon="-8.01052">
        <ele>640.0</ele>
        <time>2018-10-03T11:43:07.000Z</time>
      </trkpt>
      <trkpt lat="42.52872833" lon="-8.010515">
        <ele>640.0</ele>
        <time>2018-10-03T11:43:08.000Z</time>
      </trkpt>
      <trkpt lat="42.52874333" lon="-8.01051167">
        <ele>640.0</ele>
        <time>2018-10-03T11:43:09.000Z</time>
      </trkpt>
      <trkpt lat="42.52875667" lon="-8.01050667">
        <ele>640.0</ele>
        <time>2018-10-03T11:43:10.000Z</time>
      </trkpt>
      <trkpt lat="42.52877" lon="-8.01050333">
        <ele>641.0</ele>
        <time>2018-10-03T11:43:11.000Z</time>
      </trkpt>
      <trkpt lat="42.528785" lon="-8.01050167">
        <ele>641.0</ele>
        <time>2018-10-03T11:43:12.000Z</time>
      </trkpt>
      <trkpt lat="42.5288" lon="-8.01049833">
        <ele>641.0</ele>
        <time>2018-10-03T11:43:13.000Z</time>
      </trkpt>
      <trkpt lat="42.528815" lon="-8.01049333">
        <ele>641.0</ele>
        <time>2018-10-03T11:43:14.000Z</time>
      </trkpt>
      <trkpt lat="42.52883167" lon="-8.01048833">
        <ele>641.0</ele>
        <time>2018-10-03T11:43:15.000Z</time>
      </trkpt>
      <trkpt lat="42.52884667" lon="-8.010485">
        <ele>641.0</ele>
        <time>2018-10-03T11:43:16.000Z</time>
      </trkpt>
      <trkpt lat="42.52886" lon="-8.01048">
        <ele>641.0</ele>
        <time>2018-10-03T11:43:17.000Z</time>
      </trkpt>
      <trkpt lat="42.528875" lon="-8.01047667">
        <ele>641.0</ele>
        <time>2018-10-03T11:43:18.000Z</time>
      </trkpt>
      <trkpt lat="42.52888833" lon="-8.01047167">
        <ele>641.0</ele>
        <time>2018-10-03T11:43:19.000Z</time>
      </trkpt>
      <trkpt lat="42.52890167" lon="-8.01046833">
        <ele>641.0</ele>
        <time>2018-10-03T11:43:20.000Z</time>
      </trkpt>
      <trkpt lat="42.528915" lon="-8.010465">
        <ele>641.0</ele>
        <time>2018-10-03T11:43:21.000Z</time>
      </trkpt>
      <trkpt lat="42.528925" lon="-8.01046167">
        <ele>641.0</ele>
        <time>2018-10-03T11:43:22.000Z</time>
      </trkpt>
      <trkpt lat="42.52894" lon="-8.01045833">
        <ele>641.0</ele>
        <time>2018-10-03T11:43:23.000Z</time>
      </trkpt>
      <trkpt lat="42.52895333" lon="-8.010455">
        <ele>641.0</ele>
        <time>2018-10-03T11:43:24.000Z</time>
      </trkpt>
      <trkpt lat="42.52896667" lon="-8.01045167">
        <ele>641.0</ele>
        <time>2018-10-03T11:43:25.000Z</time>
      </trkpt>
      <trkpt lat="42.52898" lon="-8.010445">
        <ele>641.0</ele>
        <time>2018-10-03T11:43:26.000Z</time>
      </trkpt>
      <trkpt lat="42.528995" lon="-8.01044">
        <ele>642.0</ele>
        <time>2018-10-03T11:43:27.000Z</time>
      </trkpt>
      <trkpt lat="42.52900833" lon="-8.010435">
        <ele>642.0</ele>
        <time>2018-10-03T11:43:28.000Z</time>
      </trkpt>
      <trkpt lat="42.52902167" lon="-8.01043167">
        <ele>642.0</ele>
        <time>2018-10-03T11:43:29.000Z</time>
      </trkpt>
      <trkpt lat="42.52903833" lon="-8.01042667">
        <ele>642.0</ele>
        <time>2018-10-03T11:43:30.000Z</time>
      </trkpt>
      <trkpt lat="42.52905167" lon="-8.01042">
        <ele>642.0</ele>
        <time>2018-10-03T11:43:31.000Z</time>
      </trkpt>
      <trkpt lat="42.52906667" lon="-8.010415">
        <ele>642.0</ele>
        <time>2018-10-03T11:43:32.000Z</time>
      </trkpt>
      <trkpt lat="42.52908" lon="-8.01041167">
        <ele>642.0</ele>
        <time>2018-10-03T11:43:33.000Z</time>
      </trkpt>
      <trkpt lat="42.52909333" lon="-8.01040667">
        <ele>642.0</ele>
        <time>2018-10-03T11:43:34.000Z</time>
      </trkpt>
      <trkpt lat="42.52910833" lon="-8.01040167">
        <ele>642.0</ele>
        <time>2018-10-03T11:43:35.000Z</time>
      </trkpt>
      <trkpt lat="42.52912167" lon="-8.01039667">
        <ele>642.0</ele>
        <time>2018-10-03T11:43:36.000Z</time>
      </trkpt>
      <trkpt lat="42.52913667" lon="-8.01039">
        <ele>642.0</ele>
        <time>2018-10-03T11:43:37.000Z</time>
      </trkpt>
      <trkpt lat="42.52914833" lon="-8.010385">
        <ele>642.0</ele>
        <time>2018-10-03T11:43:38.000Z</time>
      </trkpt>
      <trkpt lat="42.52915167" lon="-8.010385">
        <ele>642.0</ele>
        <time>2018-10-03T11:43:39.000Z</time>
      </trkpt>
      <trkpt lat="42.52915167" lon="-8.010385">
        <ele>642.0</ele>
        <time>2018-10-03T11:43:40.000Z</time>
      </trkpt>
      <trkpt lat="42.52915333" lon="-8.010385">
        <ele>642.0</ele>
        <time>2018-10-03T11:43:41.000Z</time>
      </trkpt>
      <trkpt lat="42.52915333" lon="-8.010385">
        <ele>642.0</ele>
        <time>2018-10-03T11:43:42.000Z</time>
      </trkpt>
      <trkpt lat="42.52915333" lon="-8.010385">
        <ele>642.0</ele>
        <time>2018-10-03T11:43:43.000Z</time>
      </trkpt>
      <trkpt lat="42.52915333" lon="-8.010385">
        <ele>642.0</ele>
        <time>2018-10-03T11:43:44.000Z</time>
      </trkpt>
      <trkpt lat="42.52915333" lon="-8.010385">
        <ele>642.0</ele>
        <time>2018-10-03T11:43:45.000Z</time>
      </trkpt>
      <trkpt lat="42.52915167" lon="-8.010385">
        <ele>642.0</ele>
        <time>2018-10-03T11:43:46.000Z</time>
      </trkpt>
      <trkpt lat="42.52915167" lon="-8.010385">
        <ele>642.0</ele>
        <time>2018-10-03T11:43:47.000Z</time>
      </trkpt>
      <trkpt lat="42.52915333" lon="-8.010385">
        <ele>642.0</ele>
        <time>2018-10-03T11:43:48.000Z</time>
      </trkpt>
      <trkpt lat="42.529155" lon="-8.010385">
        <ele>642.0</ele>
        <time>2018-10-03T11:43:49.000Z</time>
      </trkpt>
      <trkpt lat="42.529155" lon="-8.010385">
        <ele>642.0</ele>
        <time>2018-10-03T11:43:50.000Z</time>
      </trkpt>
      <trkpt lat="42.52915333" lon="-8.010385">
        <ele>642.0</ele>
        <time>2018-10-03T11:43:51.000Z</time>
      </trkpt>
      <trkpt lat="42.52915333" lon="-8.01038333">
        <ele>642.0</ele>
        <time>2018-10-03T11:43:52.000Z</time>
      </trkpt>
      <trkpt lat="42.52915167" lon="-8.01038833">
        <ele>642.0</ele>
        <time>2018-10-03T11:43:53.000Z</time>
      </trkpt>
      <trkpt lat="42.52915167" lon="-8.01038833">
        <ele>642.0</ele>
        <time>2018-10-03T11:43:54.000Z</time>
      </trkpt>
      <trkpt lat="42.52915167" lon="-8.01038833">
        <ele>642.0</ele>
        <time>2018-10-03T11:43:55.000Z</time>
      </trkpt>
      <trkpt lat="42.52915167" lon="-8.01038833">
        <ele>643.0</ele>
        <time>2018-10-03T11:43:56.000Z</time>
      </trkpt>
      <trkpt lat="42.52915333" lon="-8.01039">
        <ele>643.0</ele>
        <time>2018-10-03T11:43:57.000Z</time>
      </trkpt>
      <trkpt lat="42.529165" lon="-8.01038667">
        <ele>643.0</ele>
        <time>2018-10-03T11:43:58.000Z</time>
      </trkpt>
      <trkpt lat="42.529175" lon="-8.01038333">
        <ele>643.0</ele>
        <time>2018-10-03T11:43:59.000Z</time>
      </trkpt>
      <trkpt lat="42.52918667" lon="-8.01038167">
        <ele>643.0</ele>
        <time>2018-10-03T11:44:00.000Z</time>
      </trkpt>
      <trkpt lat="42.529195" lon="-8.01038">
        <ele>643.0</ele>
        <time>2018-10-03T11:44:01.000Z</time>
      </trkpt>
      <trkpt lat="42.5292" lon="-8.01038">
        <ele>643.0</ele>
        <time>2018-10-03T11:44:02.000Z</time>
      </trkpt>
      <trkpt lat="42.52920167" lon="-8.01038167">
        <ele>643.0</ele>
        <time>2018-10-03T11:44:03.000Z</time>
      </trkpt>
      <trkpt lat="42.5292" lon="-8.01038167">
        <ele>643.0</ele>
        <time>2018-10-03T11:44:04.000Z</time>
      </trkpt>
      <trkpt lat="42.52920333" lon="-8.01038">
        <ele>643.0</ele>
        <time>2018-10-03T11:44:05.000Z</time>
      </trkpt>
      <trkpt lat="42.529205" lon="-8.01037833">
        <ele>643.0</ele>
        <time>2018-10-03T11:44:06.000Z</time>
      </trkpt>
      <trkpt lat="42.529205" lon="-8.01037667">
        <ele>643.0</ele>
        <time>2018-10-03T11:44:07.000Z</time>
      </trkpt>
      <trkpt lat="42.52920333" lon="-8.01037667">
        <ele>643.0</ele>
        <time>2018-10-03T11:44:08.000Z</time>
      </trkpt>
      <trkpt lat="42.52920333" lon="-8.01037667">
        <ele>643.0</ele>
        <time>2018-10-03T11:44:09.000Z</time>
      </trkpt>
      <trkpt lat="42.52920333" lon="-8.01037833">
        <ele>643.0</ele>
        <time>2018-10-03T11:44:10.000Z</time>
      </trkpt>
      <trkpt lat="42.52920167" lon="-8.01037667">
        <ele>643.0</ele>
        <time>2018-10-03T11:44:11.000Z</time>
      </trkpt>
      <trkpt lat="42.52920167" lon="-8.01037667">
        <ele>643.0</ele>
        <time>2018-10-03T11:44:12.000Z</time>
      </trkpt>
      <trkpt lat="42.52920167" lon="-8.01037667">
        <ele>643.0</ele>
        <time>2018-10-03T11:44:13.000Z</time>
      </trkpt>
      <trkpt lat="42.52920167" lon="-8.01037667">
        <ele>643.0</ele>
        <time>2018-10-03T11:44:14.000Z</time>
      </trkpt>
      <trkpt lat="42.52920333" lon="-8.01037833">
        <ele>643.0</ele>
        <time>2018-10-03T11:44:15.000Z</time>
      </trkpt>
      <trkpt lat="42.529205" lon="-8.01037833">
        <ele>643.0</ele>
        <time>2018-10-03T11:44:16.000Z</time>
      </trkpt>
      <trkpt lat="42.52921333" lon="-8.010375">
        <ele>643.0</ele>
        <time>2018-10-03T11:44:17.000Z</time>
      </trkpt>
      <trkpt lat="42.52922333" lon="-8.01037333">
        <ele>643.0</ele>
        <time>2018-10-03T11:44:18.000Z</time>
      </trkpt>
      <trkpt lat="42.52923667" lon="-8.01037">
        <ele>643.0</ele>
        <time>2018-10-03T11:44:19.000Z</time>
      </trkpt>
      <trkpt lat="42.52925" lon="-8.01036667">
        <ele>643.0</ele>
        <time>2018-10-03T11:44:20.000Z</time>
      </trkpt>
      <trkpt lat="42.52926333" lon="-8.01036333">
        <ele>643.0</ele>
        <time>2018-10-03T11:44:21.000Z</time>
      </trkpt>
      <trkpt lat="42.52927667" lon="-8.01035833">
        <ele>643.0</ele>
        <time>2018-10-03T11:44:22.000Z</time>
      </trkpt>
      <trkpt lat="42.52929167" lon="-8.01035333">
        <ele>643.0</ele>
        <time>2018-10-03T11:44:23.000Z</time>
      </trkpt>
      <trkpt lat="42.529305" lon="-8.01035">
        <ele>643.0</ele>
        <time>2018-10-03T11:44:24.000Z</time>
      </trkpt>
      <trkpt lat="42.52931833" lon="-8.01034667">
        <ele>643.0</ele>
        <time>2018-10-03T11:44:25.000Z</time>
      </trkpt>
      <trkpt lat="42.52933333" lon="-8.01034333">
        <ele>643.0</ele>
        <time>2018-10-03T11:44:26.000Z</time>
      </trkpt>
      <trkpt lat="42.52934667" lon="-8.01034">
        <ele>643.0</ele>
        <time>2018-10-03T11:44:27.000Z</time>
      </trkpt>
      <trkpt lat="42.52936167" lon="-8.01033667">
        <ele>643.0</ele>
        <time>2018-10-03T11:44:28.000Z</time>
      </trkpt>
      <trkpt lat="42.529375" lon="-8.01033333">
        <ele>643.0</ele>
        <time>2018-10-03T11:44:29.000Z</time>
      </trkpt>
      <trkpt lat="42.52938833" lon="-8.01033">
        <ele>643.0</ele>
        <time>2018-10-03T11:44:30.000Z</time>
      </trkpt>
      <trkpt lat="42.52940167" lon="-8.01032667">
        <ele>643.0</ele>
        <time>2018-10-03T11:44:31.000Z</time>
      </trkpt>
      <trkpt lat="42.529415" lon="-8.01032333">
        <ele>643.0</ele>
        <time>2018-10-03T11:44:32.000Z</time>
      </trkpt>
      <trkpt lat="42.52943" lon="-8.01031833">
        <ele>643.0</ele>
        <time>2018-10-03T11:44:33.000Z</time>
      </trkpt>
      <trkpt lat="42.52944333" lon="-8.010315">
        <ele>643.0</ele>
        <time>2018-10-03T11:44:34.000Z</time>
      </trkpt>
      <trkpt lat="42.52945667" lon="-8.01031167">
        <ele>643.0</ele>
        <time>2018-10-03T11:44:35.000Z</time>
      </trkpt>
      <trkpt lat="42.52947" lon="-8.01030667">
        <ele>643.0</ele>
        <time>2018-10-03T11:44:36.000Z</time>
      </trkpt>
      <trkpt lat="42.52948333" lon="-8.01030333">
        <ele>643.0</ele>
        <time>2018-10-03T11:44:37.000Z</time>
      </trkpt>
      <trkpt lat="42.52949833" lon="-8.01029833">
        <ele>643.0</ele>
        <time>2018-10-03T11:44:38.000Z</time>
      </trkpt>
      <trkpt lat="42.52951167" lon="-8.01029667">
        <ele>643.0</ele>
        <time>2018-10-03T11:44:39.000Z</time>
      </trkpt>
      <trkpt lat="42.529525" lon="-8.01029333">
        <ele>643.0</ele>
        <time>2018-10-03T11:44:40.000Z</time>
      </trkpt>
      <trkpt lat="42.52953833" lon="-8.01029">
        <ele>643.0</ele>
        <time>2018-10-03T11:44:41.000Z</time>
      </trkpt>
      <trkpt lat="42.52955333" lon="-8.01028667">
        <ele>643.0</ele>
        <time>2018-10-03T11:44:42.000Z</time>
      </trkpt>
      <trkpt lat="42.52956833" lon="-8.01028167">
        <ele>643.0</ele>
        <time>2018-10-03T11:44:43.000Z</time>
      </trkpt>
      <trkpt lat="42.52958333" lon="-8.01027667">
        <ele>643.0</ele>
        <time>2018-10-03T11:44:44.000Z</time>
      </trkpt>
      <trkpt lat="42.52959667" lon="-8.010275">
        <ele>644.0</ele>
        <time>2018-10-03T11:44:45.000Z</time>
      </trkpt>
      <trkpt lat="42.52961167" lon="-8.01027167">
        <ele>644.0</ele>
        <time>2018-10-03T11:44:46.000Z</time>
      </trkpt>
      <trkpt lat="42.52962833" lon="-8.01026667">
        <ele>644.0</ele>
        <time>2018-10-03T11:44:47.000Z</time>
      </trkpt>
      <trkpt lat="42.52964333" lon="-8.01026167">
        <ele>644.0</ele>
        <time>2018-10-03T11:44:48.000Z</time>
      </trkpt>
      <trkpt lat="42.52965833" lon="-8.01025833">
        <ele>644.0</ele>
        <time>2018-10-03T11:44:49.000Z</time>
      </trkpt>
      <trkpt lat="42.52967333" lon="-8.01025167">
        <ele>644.0</ele>
        <time>2018-10-03T11:44:50.000Z</time>
      </trkpt>
      <trkpt lat="42.52968833" lon="-8.01024833">
        <ele>644.0</ele>
        <time>2018-10-03T11:44:51.000Z</time>
      </trkpt>
      <trkpt lat="42.529705" lon="-8.010245">
        <ele>644.0</ele>
        <time>2018-10-03T11:44:52.000Z</time>
      </trkpt>
      <trkpt lat="42.52972" lon="-8.01024">
        <ele>644.0</ele>
        <time>2018-10-03T11:44:53.000Z</time>
      </trkpt>
      <trkpt lat="42.529735" lon="-8.01023667">
        <ele>644.0</ele>
        <time>2018-10-03T11:44:54.000Z</time>
      </trkpt>
      <trkpt lat="42.52974833" lon="-8.010235">
        <ele>644.0</ele>
        <time>2018-10-03T11:44:55.000Z</time>
      </trkpt>
      <trkpt lat="42.52976333" lon="-8.01023167">
        <ele>644.0</ele>
        <time>2018-10-03T11:44:56.000Z</time>
      </trkpt>
      <trkpt lat="42.52977833" lon="-8.010225">
        <ele>644.0</ele>
        <time>2018-10-03T11:44:57.000Z</time>
      </trkpt>
      <trkpt lat="42.529795" lon="-8.01022167">
        <ele>644.0</ele>
        <time>2018-10-03T11:44:58.000Z</time>
      </trkpt>
      <trkpt lat="42.52981" lon="-8.01022">
        <ele>644.0</ele>
        <time>2018-10-03T11:44:59.000Z</time>
      </trkpt>
      <trkpt lat="42.529825" lon="-8.01021667">
        <ele>644.0</ele>
        <time>2018-10-03T11:45:00.000Z</time>
      </trkpt>
      <trkpt lat="42.52984167" lon="-8.01021167">
        <ele>644.0</ele>
        <time>2018-10-03T11:45:01.000Z</time>
      </trkpt>
      <trkpt lat="42.52985667" lon="-8.01020833">
        <ele>644.0</ele>
        <time>2018-10-03T11:45:02.000Z</time>
      </trkpt>
      <trkpt lat="42.52987167" lon="-8.010205">
        <ele>644.0</ele>
        <time>2018-10-03T11:45:03.000Z</time>
      </trkpt>
      <trkpt lat="42.529885" lon="-8.01020167">
        <ele>644.0</ele>
        <time>2018-10-03T11:45:04.000Z</time>
      </trkpt>
      <trkpt lat="42.52990167" lon="-8.01019833">
        <ele>644.0</ele>
        <time>2018-10-03T11:45:05.000Z</time>
      </trkpt>
      <trkpt lat="42.529915" lon="-8.010195">
        <ele>644.0</ele>
        <time>2018-10-03T11:45:06.000Z</time>
      </trkpt>
      <trkpt lat="42.52993" lon="-8.01019">
        <ele>644.0</ele>
        <time>2018-10-03T11:45:07.000Z</time>
      </trkpt>
      <trkpt lat="42.52994333" lon="-8.01018667">
        <ele>644.0</ele>
        <time>2018-10-03T11:45:08.000Z</time>
      </trkpt>
      <trkpt lat="42.52995833" lon="-8.010185">
        <ele>644.0</ele>
        <time>2018-10-03T11:45:09.000Z</time>
      </trkpt>
      <trkpt lat="42.52997167" lon="-8.01018167">
        <ele>644.0</ele>
        <time>2018-10-03T11:45:10.000Z</time>
      </trkpt>
      <trkpt lat="42.52998833" lon="-8.010175">
        <ele>644.0</ele>
        <time>2018-10-03T11:45:11.000Z</time>
      </trkpt>
      <trkpt lat="42.53000167" lon="-8.010175">
        <ele>644.0</ele>
        <time>2018-10-03T11:45:12.000Z</time>
      </trkpt>
      <trkpt lat="42.53001667" lon="-8.01017">
        <ele>644.0</ele>
        <time>2018-10-03T11:45:13.000Z</time>
      </trkpt>
      <trkpt lat="42.53003167" lon="-8.01016333">
        <ele>644.0</ele>
        <time>2018-10-03T11:45:14.000Z</time>
      </trkpt>
      <trkpt lat="42.53004667" lon="-8.01015833">
        <ele>645.0</ele>
        <time>2018-10-03T11:45:15.000Z</time>
      </trkpt>
      <trkpt lat="42.53006333" lon="-8.01015333">
        <ele>645.0</ele>
        <time>2018-10-03T11:45:16.000Z</time>
      </trkpt>
      <trkpt lat="42.53008" lon="-8.01015">
        <ele>645.0</ele>
        <time>2018-10-03T11:45:17.000Z</time>
      </trkpt>
      <trkpt lat="42.530095" lon="-8.01014667">
        <ele>645.0</ele>
        <time>2018-10-03T11:45:18.000Z</time>
      </trkpt>
      <trkpt lat="42.53011" lon="-8.01014167">
        <ele>645.0</ele>
        <time>2018-10-03T11:45:19.000Z</time>
      </trkpt>
      <trkpt lat="42.530125" lon="-8.01014">
        <ele>645.0</ele>
        <time>2018-10-03T11:45:20.000Z</time>
      </trkpt>
      <trkpt lat="42.53013833" lon="-8.01013833">
        <ele>645.0</ele>
        <time>2018-10-03T11:45:21.000Z</time>
      </trkpt>
      <trkpt lat="42.53015167" lon="-8.01013667">
        <ele>645.0</ele>
        <time>2018-10-03T11:45:22.000Z</time>
      </trkpt>
      <trkpt lat="42.530165" lon="-8.01013333">
        <ele>645.0</ele>
        <time>2018-10-03T11:45:23.000Z</time>
      </trkpt>
      <trkpt lat="42.53018" lon="-8.01013">
        <ele>645.0</ele>
        <time>2018-10-03T11:45:24.000Z</time>
      </trkpt>
      <trkpt lat="42.53019667" lon="-8.01012667">
        <ele>645.0</ele>
        <time>2018-10-03T11:45:25.000Z</time>
      </trkpt>
      <trkpt lat="42.53021167" lon="-8.01012167">
        <ele>645.0</ele>
        <time>2018-10-03T11:45:26.000Z</time>
      </trkpt>
      <trkpt lat="42.530225" lon="-8.01011333">
        <ele>645.0</ele>
        <time>2018-10-03T11:45:27.000Z</time>
      </trkpt>
      <trkpt lat="42.53024" lon="-8.01011">
        <ele>646.0</ele>
        <time>2018-10-03T11:45:28.000Z</time>
      </trkpt>
      <trkpt lat="42.53025333" lon="-8.01010833">
        <ele>646.0</ele>
        <time>2018-10-03T11:45:29.000Z</time>
      </trkpt>
      <trkpt lat="42.53026833" lon="-8.01010333">
        <ele>646.0</ele>
        <time>2018-10-03T11:45:30.000Z</time>
      </trkpt>
      <trkpt lat="42.53028333" lon="-8.01009833">
        <ele>646.0</ele>
        <time>2018-10-03T11:45:31.000Z</time>
      </trkpt>
      <trkpt lat="42.5303" lon="-8.01009333">
        <ele>646.0</ele>
        <time>2018-10-03T11:45:32.000Z</time>
      </trkpt>
      <trkpt lat="42.53031333" lon="-8.01009">
        <ele>646.0</ele>
        <time>2018-10-03T11:45:33.000Z</time>
      </trkpt>
      <trkpt lat="42.53033" lon="-8.01008333">
        <ele>646.0</ele>
        <time>2018-10-03T11:45:34.000Z</time>
      </trkpt>
      <trkpt lat="42.530345" lon="-8.01007833">
        <ele>646.0</ele>
        <time>2018-10-03T11:45:35.000Z</time>
      </trkpt>
      <trkpt lat="42.53036" lon="-8.010075">
        <ele>646.0</ele>
        <time>2018-10-03T11:45:36.000Z</time>
      </trkpt>
      <trkpt lat="42.530375" lon="-8.01007167">
        <ele>646.0</ele>
        <time>2018-10-03T11:45:37.000Z</time>
      </trkpt>
      <trkpt lat="42.53039167" lon="-8.01006667">
        <ele>646.0</ele>
        <time>2018-10-03T11:45:38.000Z</time>
      </trkpt>
      <trkpt lat="42.53040667" lon="-8.01006333">
        <ele>646.0</ele>
        <time>2018-10-03T11:45:39.000Z</time>
      </trkpt>
      <trkpt lat="42.53042167" lon="-8.01006">
        <ele>646.0</ele>
        <time>2018-10-03T11:45:40.000Z</time>
      </trkpt>
      <trkpt lat="42.53043833" lon="-8.01005667">
        <ele>646.0</ele>
        <time>2018-10-03T11:45:41.000Z</time>
      </trkpt>
      <trkpt lat="42.53045333" lon="-8.01005167">
        <ele>646.0</ele>
        <time>2018-10-03T11:45:42.000Z</time>
      </trkpt>
      <trkpt lat="42.53046833" lon="-8.01004667">
        <ele>646.0</ele>
        <time>2018-10-03T11:45:43.000Z</time>
      </trkpt>
      <trkpt lat="42.53048333" lon="-8.01004333">
        <ele>646.0</ele>
        <time>2018-10-03T11:45:44.000Z</time>
      </trkpt>
      <trkpt lat="42.53049833" lon="-8.01003667">
        <ele>646.0</ele>
        <time>2018-10-03T11:45:45.000Z</time>
      </trkpt>
      <trkpt lat="42.53051167" lon="-8.010035">
        <ele>646.0</ele>
        <time>2018-10-03T11:45:46.000Z</time>
      </trkpt>
      <trkpt lat="42.53052667" lon="-8.01003333">
        <ele>646.0</ele>
        <time>2018-10-03T11:45:47.000Z</time>
      </trkpt>
      <trkpt lat="42.53054167" lon="-8.01003167">
        <ele>646.0</ele>
        <time>2018-10-03T11:45:48.000Z</time>
      </trkpt>
      <trkpt lat="42.53055667" lon="-8.01002667">
        <ele>646.0</ele>
        <time>2018-10-03T11:45:49.000Z</time>
      </trkpt>
      <trkpt lat="42.53057167" lon="-8.01002167">
        <ele>646.0</ele>
        <time>2018-10-03T11:45:50.000Z</time>
      </trkpt>
      <trkpt lat="42.53058833" lon="-8.01001833">
        <ele>646.0</ele>
        <time>2018-10-03T11:45:51.000Z</time>
      </trkpt>
      <trkpt lat="42.530605" lon="-8.01001333">
        <ele>646.0</ele>
        <time>2018-10-03T11:45:52.000Z</time>
      </trkpt>
      <trkpt lat="42.53062167" lon="-8.01001">
        <ele>646.0</ele>
        <time>2018-10-03T11:45:53.000Z</time>
      </trkpt>
      <trkpt lat="42.53063667" lon="-8.010005">
        <ele>646.0</ele>
        <time>2018-10-03T11:45:54.000Z</time>
      </trkpt>
      <trkpt lat="42.53065167" lon="-8.01000333">
        <ele>646.0</ele>
        <time>2018-10-03T11:45:55.000Z</time>
      </trkpt>
      <trkpt lat="42.530665" lon="-8.01">
        <ele>646.0</ele>
        <time>2018-10-03T11:45:56.000Z</time>
      </trkpt>
      <trkpt lat="42.53068167" lon="-8.00999667">
        <ele>646.0</ele>
        <time>2018-10-03T11:45:57.000Z</time>
      </trkpt>
      <trkpt lat="42.53069667" lon="-8.00999167">
        <ele>646.0</ele>
        <time>2018-10-03T11:45:58.000Z</time>
      </trkpt>
      <trkpt lat="42.530715" lon="-8.00998833">
        <ele>646.0</ele>
        <time>2018-10-03T11:45:59.000Z</time>
      </trkpt>
      <trkpt lat="42.53073167" lon="-8.009985">
        <ele>646.0</ele>
        <time>2018-10-03T11:46:00.000Z</time>
      </trkpt>
      <trkpt lat="42.53074833" lon="-8.00998">
        <ele>647.0</ele>
        <time>2018-10-03T11:46:01.000Z</time>
      </trkpt>
      <trkpt lat="42.53076333" lon="-8.00997333">
        <ele>647.0</ele>
        <time>2018-10-03T11:46:02.000Z</time>
      </trkpt>
      <trkpt lat="42.53078" lon="-8.00996833">
        <ele>647.0</ele>
        <time>2018-10-03T11:46:03.000Z</time>
      </trkpt>
      <trkpt lat="42.530795" lon="-8.009965">
        <ele>647.0</ele>
        <time>2018-10-03T11:46:04.000Z</time>
      </trkpt>
      <trkpt lat="42.53080833" lon="-8.00996333">
        <ele>647.0</ele>
        <time>2018-10-03T11:46:05.000Z</time>
      </trkpt>
      <trkpt lat="42.53082333" lon="-8.00996167">
        <ele>647.0</ele>
        <time>2018-10-03T11:46:06.000Z</time>
      </trkpt>
      <trkpt lat="42.53083667" lon="-8.00995833">
        <ele>647.0</ele>
        <time>2018-10-03T11:46:07.000Z</time>
      </trkpt>
      <trkpt lat="42.53085167" lon="-8.009955">
        <ele>647.0</ele>
        <time>2018-10-03T11:46:08.000Z</time>
      </trkpt>
      <trkpt lat="42.53087" lon="-8.00995333">
        <ele>648.0</ele>
        <time>2018-10-03T11:46:09.000Z</time>
      </trkpt>
      <trkpt lat="42.53088833" lon="-8.00995">
        <ele>648.0</ele>
        <time>2018-10-03T11:46:10.000Z</time>
      </trkpt>
      <trkpt lat="42.530905" lon="-8.009945">
        <ele>648.0</ele>
        <time>2018-10-03T11:46:11.000Z</time>
      </trkpt>
      <trkpt lat="42.53092" lon="-8.00993833">
        <ele>648.0</ele>
        <time>2018-10-03T11:46:12.000Z</time>
      </trkpt>
      <trkpt lat="42.530935" lon="-8.00993167">
        <ele>649.0</ele>
        <time>2018-10-03T11:46:13.000Z</time>
      </trkpt>
      <trkpt lat="42.53095" lon="-8.00992667">
        <ele>649.0</ele>
        <time>2018-10-03T11:46:14.000Z</time>
      </trkpt>
      <trkpt lat="42.53096667" lon="-8.00992167">
        <ele>649.0</ele>
        <time>2018-10-03T11:46:15.000Z</time>
      </trkpt>
      <trkpt lat="42.53098167" lon="-8.00991667">
        <ele>649.0</ele>
        <time>2018-10-03T11:46:16.000Z</time>
      </trkpt>
      <trkpt lat="42.53099667" lon="-8.00991167">
        <ele>649.0</ele>
        <time>2018-10-03T11:46:17.000Z</time>
      </trkpt>
      <trkpt lat="42.53101" lon="-8.00990833">
        <ele>649.0</ele>
        <time>2018-10-03T11:46:18.000Z</time>
      </trkpt>
      <trkpt lat="42.531025" lon="-8.00990333">
        <ele>649.0</ele>
        <time>2018-10-03T11:46:19.000Z</time>
      </trkpt>
      <trkpt lat="42.53103833" lon="-8.00989667">
        <ele>649.0</ele>
        <time>2018-10-03T11:46:20.000Z</time>
      </trkpt>
      <trkpt lat="42.53105" lon="-8.00989333">
        <ele>649.0</ele>
        <time>2018-10-03T11:46:21.000Z</time>
      </trkpt>
      <trkpt lat="42.53106333" lon="-8.00988833">
        <ele>650.0</ele>
        <time>2018-10-03T11:46:22.000Z</time>
      </trkpt>
      <trkpt lat="42.53107667" lon="-8.00988167">
        <ele>650.0</ele>
        <time>2018-10-03T11:46:23.000Z</time>
      </trkpt>
      <trkpt lat="42.53109" lon="-8.00987667">
        <ele>650.0</ele>
        <time>2018-10-03T11:46:24.000Z</time>
      </trkpt>
      <trkpt lat="42.5311" lon="-8.00987167">
        <ele>650.0</ele>
        <time>2018-10-03T11:46:25.000Z</time>
      </trkpt>
      <trkpt lat="42.53111333" lon="-8.00986667">
        <ele>650.0</ele>
        <time>2018-10-03T11:46:26.000Z</time>
      </trkpt>
      <trkpt lat="42.531125" lon="-8.00986167">
        <ele>650.0</ele>
        <time>2018-10-03T11:46:27.000Z</time>
      </trkpt>
      <trkpt lat="42.53113333" lon="-8.00985167">
        <ele>650.0</ele>
        <time>2018-10-03T11:46:28.000Z</time>
      </trkpt>
      <trkpt lat="42.53113833" lon="-8.00983833">
        <ele>650.0</ele>
        <time>2018-10-03T11:46:29.000Z</time>
      </trkpt>
      <trkpt lat="42.531145" lon="-8.00982167">
        <ele>650.0</ele>
        <time>2018-10-03T11:46:30.000Z</time>
      </trkpt>
      <trkpt lat="42.53115167" lon="-8.009805">
        <ele>650.0</ele>
        <time>2018-10-03T11:46:31.000Z</time>
      </trkpt>
      <trkpt lat="42.53116" lon="-8.00979167">
        <ele>650.0</ele>
        <time>2018-10-03T11:46:32.000Z</time>
      </trkpt>
      <trkpt lat="42.53117167" lon="-8.00977833">
        <ele>650.0</ele>
        <time>2018-10-03T11:46:33.000Z</time>
      </trkpt>
      <trkpt lat="42.53118333" lon="-8.00976667">
        <ele>650.0</ele>
        <time>2018-10-03T11:46:34.000Z</time>
      </trkpt>
      <trkpt lat="42.53119667" lon="-8.009755">
        <ele>650.0</ele>
        <time>2018-10-03T11:46:35.000Z</time>
      </trkpt>
      <trkpt lat="42.53121" lon="-8.00974333">
        <ele>651.0</ele>
        <time>2018-10-03T11:46:36.000Z</time>
      </trkpt>
      <trkpt lat="42.53122333" lon="-8.00973333">
        <ele>651.0</ele>
        <time>2018-10-03T11:46:37.000Z</time>
      </trkpt>
      <trkpt lat="42.53123833" lon="-8.009725">
        <ele>651.0</ele>
        <time>2018-10-03T11:46:38.000Z</time>
      </trkpt>
      <trkpt lat="42.531255" lon="-8.00971667">
        <ele>651.0</ele>
        <time>2018-10-03T11:46:39.000Z</time>
      </trkpt>
      <trkpt lat="42.53127" lon="-8.00971333">
        <ele>651.0</ele>
        <time>2018-10-03T11:46:40.000Z</time>
      </trkpt>
      <trkpt lat="42.53128667" lon="-8.00971167">
        <ele>651.0</ele>
        <time>2018-10-03T11:46:41.000Z</time>
      </trkpt>
      <trkpt lat="42.53130333" lon="-8.00970833">
        <ele>652.0</ele>
        <time>2018-10-03T11:46:42.000Z</time>
      </trkpt>
      <trkpt lat="42.53131833" lon="-8.009705">
        <ele>652.0</ele>
        <time>2018-10-03T11:46:43.000Z</time>
      </trkpt>
      <trkpt lat="42.531335" lon="-8.00970167">
        <ele>652.0</ele>
        <time>2018-10-03T11:46:44.000Z</time>
      </trkpt>
      <trkpt lat="42.53135167" lon="-8.00969833">
        <ele>652.0</ele>
        <time>2018-10-03T11:46:45.000Z</time>
      </trkpt>
      <trkpt lat="42.53137" lon="-8.00969167">
        <ele>652.0</ele>
        <time>2018-10-03T11:46:46.000Z</time>
      </trkpt>
      <trkpt lat="42.53138833" lon="-8.009685">
        <ele>653.0</ele>
        <time>2018-10-03T11:46:47.000Z</time>
      </trkpt>
      <trkpt lat="42.53140667" lon="-8.00968">
        <ele>653.0</ele>
        <time>2018-10-03T11:46:48.000Z</time>
      </trkpt>
      <trkpt lat="42.53142167" lon="-8.00967333">
        <ele>653.0</ele>
        <time>2018-10-03T11:46:49.000Z</time>
      </trkpt>
      <trkpt lat="42.53143667" lon="-8.00966833">
        <ele>653.0</ele>
        <time>2018-10-03T11:46:50.000Z</time>
      </trkpt>
      <trkpt lat="42.53145333" lon="-8.009665">
        <ele>653.0</ele>
        <time>2018-10-03T11:46:51.000Z</time>
      </trkpt>
      <trkpt lat="42.53147" lon="-8.00966">
        <ele>653.0</ele>
        <time>2018-10-03T11:46:52.000Z</time>
      </trkpt>
      <trkpt lat="42.531485" lon="-8.009655">
        <ele>653.0</ele>
        <time>2018-10-03T11:46:53.000Z</time>
      </trkpt>
      <trkpt lat="42.53150167" lon="-8.00965">
        <ele>653.0</ele>
        <time>2018-10-03T11:46:54.000Z</time>
      </trkpt>
      <trkpt lat="42.53151833" lon="-8.009645">
        <ele>653.0</ele>
        <time>2018-10-03T11:46:55.000Z</time>
      </trkpt>
      <trkpt lat="42.531535" lon="-8.00963833">
        <ele>654.0</ele>
        <time>2018-10-03T11:46:56.000Z</time>
      </trkpt>
      <trkpt lat="42.53155333" lon="-8.00963167">
        <ele>654.0</ele>
        <time>2018-10-03T11:46:57.000Z</time>
      </trkpt>
      <trkpt lat="42.53157" lon="-8.009625">
        <ele>654.0</ele>
        <time>2018-10-03T11:46:58.000Z</time>
      </trkpt>
      <trkpt lat="42.531585" lon="-8.00962">
        <ele>654.0</ele>
        <time>2018-10-03T11:46:59.000Z</time>
      </trkpt>
      <trkpt lat="42.5316" lon="-8.00961667">
        <ele>654.0</ele>
        <time>2018-10-03T11:47:00.000Z</time>
      </trkpt>
      <trkpt lat="42.531615" lon="-8.00961">
        <ele>655.0</ele>
        <time>2018-10-03T11:47:01.000Z</time>
      </trkpt>
      <trkpt lat="42.53163" lon="-8.00960333">
        <ele>655.0</ele>
        <time>2018-10-03T11:47:02.000Z</time>
      </trkpt>
      <trkpt lat="42.531645" lon="-8.0096">
        <ele>655.0</ele>
        <time>2018-10-03T11:47:03.000Z</time>
      </trkpt>
      <trkpt lat="42.53166167" lon="-8.00959667">
        <ele>655.0</ele>
        <time>2018-10-03T11:47:04.000Z</time>
      </trkpt>
      <trkpt lat="42.53167667" lon="-8.00959167">
        <ele>655.0</ele>
        <time>2018-10-03T11:47:05.000Z</time>
      </trkpt>
      <trkpt lat="42.531695" lon="-8.00958667">
        <ele>656.0</ele>
        <time>2018-10-03T11:47:06.000Z</time>
      </trkpt>
      <trkpt lat="42.53171167" lon="-8.00958">
        <ele>656.0</ele>
        <time>2018-10-03T11:47:07.000Z</time>
      </trkpt>
      <trkpt lat="42.53172667" lon="-8.00957167">
        <ele>656.0</ele>
        <time>2018-10-03T11:47:08.000Z</time>
      </trkpt>
      <trkpt lat="42.53174333" lon="-8.009565">
        <ele>656.0</ele>
        <time>2018-10-03T11:47:09.000Z</time>
      </trkpt>
      <trkpt lat="42.53175833" lon="-8.00956">
        <ele>656.0</ele>
        <time>2018-10-03T11:47:10.000Z</time>
      </trkpt>
      <trkpt lat="42.53177333" lon="-8.009555">
        <ele>656.0</ele>
        <time>2018-10-03T11:47:11.000Z</time>
      </trkpt>
      <trkpt lat="42.53178667" lon="-8.00955333">
        <ele>656.0</ele>
        <time>2018-10-03T11:47:12.000Z</time>
      </trkpt>
      <trkpt lat="42.5318" lon="-8.00955">
        <ele>657.0</ele>
        <time>2018-10-03T11:47:13.000Z</time>
      </trkpt>
      <trkpt lat="42.53181667" lon="-8.00954333">
        <ele>657.0</ele>
        <time>2018-10-03T11:47:14.000Z</time>
      </trkpt>
      <trkpt lat="42.53183" lon="-8.009535">
        <ele>657.0</ele>
        <time>2018-10-03T11:47:15.000Z</time>
      </trkpt>
      <trkpt lat="42.53184333" lon="-8.00953">
        <ele>657.0</ele>
        <time>2018-10-03T11:47:16.000Z</time>
      </trkpt>
      <trkpt lat="42.531855" lon="-8.00952333">
        <ele>657.0</ele>
        <time>2018-10-03T11:47:17.000Z</time>
      </trkpt>
      <trkpt lat="42.531865" lon="-8.00951667">
        <ele>657.0</ele>
        <time>2018-10-03T11:47:18.000Z</time>
      </trkpt>
      <trkpt lat="42.53187667" lon="-8.00951">
        <ele>657.0</ele>
        <time>2018-10-03T11:47:19.000Z</time>
      </trkpt>
      <trkpt lat="42.53189" lon="-8.009505">
        <ele>657.0</ele>
        <time>2018-10-03T11:47:20.000Z</time>
      </trkpt>
      <trkpt lat="42.53190167" lon="-8.00949833">
        <ele>657.0</ele>
        <time>2018-10-03T11:47:21.000Z</time>
      </trkpt>
      <trkpt lat="42.531915" lon="-8.00949167">
        <ele>657.0</ele>
        <time>2018-10-03T11:47:22.000Z</time>
      </trkpt>
      <trkpt lat="42.53192833" lon="-8.009485">
        <ele>657.0</ele>
        <time>2018-10-03T11:47:23.000Z</time>
      </trkpt>
      <trkpt lat="42.531945" lon="-8.00947833">
        <ele>657.0</ele>
        <time>2018-10-03T11:47:24.000Z</time>
      </trkpt>
      <trkpt lat="42.53195833" lon="-8.00947">
        <ele>657.0</ele>
        <time>2018-10-03T11:47:25.000Z</time>
      </trkpt>
      <trkpt lat="42.53197167" lon="-8.00946">
        <ele>657.0</ele>
        <time>2018-10-03T11:47:26.000Z</time>
      </trkpt>
      <trkpt lat="42.531985" lon="-8.00945333">
        <ele>657.0</ele>
        <time>2018-10-03T11:47:27.000Z</time>
      </trkpt>
      <trkpt lat="42.53199833" lon="-8.009445">
        <ele>656.0</ele>
        <time>2018-10-03T11:47:28.000Z</time>
      </trkpt>
      <trkpt lat="42.53201167" lon="-8.00943833">
        <ele>656.0</ele>
        <time>2018-10-03T11:47:29.000Z</time>
      </trkpt>
      <trkpt lat="42.532025" lon="-8.00943167">
        <ele>656.0</ele>
        <time>2018-10-03T11:47:30.000Z</time>
      </trkpt>
      <trkpt lat="42.53203833" lon="-8.00942333">
        <ele>656.0</ele>
        <time>2018-10-03T11:47:31.000Z</time>
      </trkpt>
      <trkpt lat="42.53205167" lon="-8.009415">
        <ele>656.0</ele>
        <time>2018-10-03T11:47:32.000Z</time>
      </trkpt>
      <trkpt lat="42.53206667" lon="-8.00940667">
        <ele>656.0</ele>
        <time>2018-10-03T11:47:33.000Z</time>
      </trkpt>
      <trkpt lat="42.53208167" lon="-8.00939833">
        <ele>656.0</ele>
        <time>2018-10-03T11:47:34.000Z</time>
      </trkpt>
      <trkpt lat="42.532095" lon="-8.00939167">
        <ele>656.0</ele>
        <time>2018-10-03T11:47:35.000Z</time>
      </trkpt>
      <trkpt lat="42.53211" lon="-8.00938167">
        <ele>656.0</ele>
        <time>2018-10-03T11:47:36.000Z</time>
      </trkpt>
      <trkpt lat="42.532125" lon="-8.00937167">
        <ele>656.0</ele>
        <time>2018-10-03T11:47:37.000Z</time>
      </trkpt>
      <trkpt lat="42.53213833" lon="-8.00936333">
        <ele>656.0</ele>
        <time>2018-10-03T11:47:38.000Z</time>
      </trkpt>
      <trkpt lat="42.53215" lon="-8.009355">
        <ele>656.0</ele>
        <time>2018-10-03T11:47:39.000Z</time>
      </trkpt>
      <trkpt lat="42.53216333" lon="-8.00934833">
        <ele>656.0</ele>
        <time>2018-10-03T11:47:40.000Z</time>
      </trkpt>
      <trkpt lat="42.53217667" lon="-8.00934">
        <ele>656.0</ele>
        <time>2018-10-03T11:47:41.000Z</time>
      </trkpt>
      <trkpt lat="42.53218833" lon="-8.00933">
        <ele>656.0</ele>
        <time>2018-10-03T11:47:42.000Z</time>
      </trkpt>
      <trkpt lat="42.53220167" lon="-8.00932167">
        <ele>656.0</ele>
        <time>2018-10-03T11:47:43.000Z</time>
      </trkpt>
      <trkpt lat="42.53221667" lon="-8.009315">
        <ele>656.0</ele>
        <time>2018-10-03T11:47:44.000Z</time>
      </trkpt>
      <trkpt lat="42.53222833" lon="-8.00930667">
        <ele>656.0</ele>
        <time>2018-10-03T11:47:45.000Z</time>
      </trkpt>
      <trkpt lat="42.53224167" lon="-8.00929833">
        <ele>656.0</ele>
        <time>2018-10-03T11:47:46.000Z</time>
      </trkpt>
      <trkpt lat="42.53225333" lon="-8.00929167">
        <ele>656.0</ele>
        <time>2018-10-03T11:47:47.000Z</time>
      </trkpt>
      <trkpt lat="42.53226667" lon="-8.00928333">
        <ele>656.0</ele>
        <time>2018-10-03T11:47:48.000Z</time>
      </trkpt>
      <trkpt lat="42.53227833" lon="-8.00927667">
        <ele>656.0</ele>
        <time>2018-10-03T11:47:49.000Z</time>
      </trkpt>
      <trkpt lat="42.53229" lon="-8.00927167">
        <ele>656.0</ele>
        <time>2018-10-03T11:47:50.000Z</time>
      </trkpt>
      <trkpt lat="42.53230333" lon="-8.00926333">
        <ele>656.0</ele>
        <time>2018-10-03T11:47:51.000Z</time>
      </trkpt>
      <trkpt lat="42.53231667" lon="-8.009255">
        <ele>656.0</ele>
        <time>2018-10-03T11:47:52.000Z</time>
      </trkpt>
      <trkpt lat="42.53233" lon="-8.00924667">
        <ele>656.0</ele>
        <time>2018-10-03T11:47:53.000Z</time>
      </trkpt>
      <trkpt lat="42.53234167" lon="-8.00924167">
        <ele>656.0</ele>
        <time>2018-10-03T11:47:54.000Z</time>
      </trkpt>
      <trkpt lat="42.532355" lon="-8.00923333">
        <ele>656.0</ele>
        <time>2018-10-03T11:47:55.000Z</time>
      </trkpt>
      <trkpt lat="42.53236667" lon="-8.00922667">
        <ele>657.0</ele>
        <time>2018-10-03T11:47:56.000Z</time>
      </trkpt>
      <trkpt lat="42.53238" lon="-8.00922167">
        <ele>657.0</ele>
        <time>2018-10-03T11:47:57.000Z</time>
      </trkpt>
      <trkpt lat="42.53238667" lon="-8.00922">
        <ele>657.0</ele>
        <time>2018-10-03T11:47:58.000Z</time>
      </trkpt>
      <trkpt lat="42.53238833" lon="-8.00921833">
        <ele>657.0</ele>
        <time>2018-10-03T11:47:59.000Z</time>
      </trkpt>
      <trkpt lat="42.53239833" lon="-8.00923167">
        <ele>657.0</ele>
        <time>2018-10-03T11:48:00.000Z</time>
      </trkpt>
      <trkpt lat="42.53240833" lon="-8.009245">
        <ele>658.0</ele>
        <time>2018-10-03T11:48:01.000Z</time>
      </trkpt>
      <trkpt lat="42.53241833" lon="-8.00925833">
        <ele>658.0</ele>
        <time>2018-10-03T11:48:02.000Z</time>
      </trkpt>
      <trkpt lat="42.532425" lon="-8.00927167">
        <ele>658.0</ele>
        <time>2018-10-03T11:48:03.000Z</time>
      </trkpt>
      <trkpt lat="42.53243167" lon="-8.009285">
        <ele>658.0</ele>
        <time>2018-10-03T11:48:04.000Z</time>
      </trkpt>
      <trkpt lat="42.53244" lon="-8.00930167">
        <ele>658.0</ele>
        <time>2018-10-03T11:48:05.000Z</time>
      </trkpt>
      <trkpt lat="42.53244667" lon="-8.00932">
        <ele>658.0</ele>
        <time>2018-10-03T11:48:06.000Z</time>
      </trkpt>
      <trkpt lat="42.53245167" lon="-8.00933667">
        <ele>657.0</ele>
        <time>2018-10-03T11:48:07.000Z</time>
      </trkpt>
      <trkpt lat="42.53245833" lon="-8.00935667">
        <ele>657.0</ele>
        <time>2018-10-03T11:48:08.000Z</time>
      </trkpt>
      <trkpt lat="42.53246333" lon="-8.00937667">
        <ele>657.0</ele>
        <time>2018-10-03T11:48:09.000Z</time>
      </trkpt>
      <trkpt lat="42.53246833" lon="-8.009395">
        <ele>657.0</ele>
        <time>2018-10-03T11:48:10.000Z</time>
      </trkpt>
      <trkpt lat="42.532475" lon="-8.00941333">
        <ele>657.0</ele>
        <time>2018-10-03T11:48:11.000Z</time>
      </trkpt>
      <trkpt lat="42.53248" lon="-8.00943167">
        <ele>657.0</ele>
        <time>2018-10-03T11:48:12.000Z</time>
      </trkpt>
      <trkpt lat="42.53248167" lon="-8.00945">
        <ele>657.0</ele>
        <time>2018-10-03T11:48:13.000Z</time>
      </trkpt>
      <trkpt lat="42.532485" lon="-8.00946833">
        <ele>657.0</ele>
        <time>2018-10-03T11:48:14.000Z</time>
      </trkpt>
      <trkpt lat="42.53248667" lon="-8.00948833">
        <ele>656.0</ele>
        <time>2018-10-03T11:48:15.000Z</time>
      </trkpt>
      <trkpt lat="42.53248833" lon="-8.00951">
        <ele>656.0</ele>
        <time>2018-10-03T11:48:16.000Z</time>
      </trkpt>
      <trkpt lat="42.53248667" lon="-8.00952833">
        <ele>656.0</ele>
        <time>2018-10-03T11:48:17.000Z</time>
      </trkpt>
      <trkpt lat="42.53248333" lon="-8.009545">
        <ele>656.0</ele>
        <time>2018-10-03T11:48:18.000Z</time>
      </trkpt>
      <trkpt lat="42.53248333" lon="-8.00955833">
        <ele>655.0</ele>
        <time>2018-10-03T11:48:19.000Z</time>
      </trkpt>
      <trkpt lat="42.532485" lon="-8.00957333">
        <ele>655.0</ele>
        <time>2018-10-03T11:48:20.000Z</time>
      </trkpt>
      <trkpt lat="42.532485" lon="-8.00958667">
        <ele>655.0</ele>
        <time>2018-10-03T11:48:21.000Z</time>
      </trkpt>
      <trkpt lat="42.53248667" lon="-8.00960167">
        <ele>655.0</ele>
        <time>2018-10-03T11:48:22.000Z</time>
      </trkpt>
      <trkpt lat="42.53248833" lon="-8.009615">
        <ele>655.0</ele>
        <time>2018-10-03T11:48:23.000Z</time>
      </trkpt>
      <trkpt lat="42.53249333" lon="-8.00963">
        <ele>655.0</ele>
        <time>2018-10-03T11:48:24.000Z</time>
      </trkpt>
      <trkpt lat="42.53249833" lon="-8.00964333">
        <ele>655.0</ele>
        <time>2018-10-03T11:48:25.000Z</time>
      </trkpt>
      <trkpt lat="42.53250333" lon="-8.00965667">
        <ele>654.0</ele>
        <time>2018-10-03T11:48:26.000Z</time>
      </trkpt>
      <trkpt lat="42.53251" lon="-8.00967">
        <ele>654.0</ele>
        <time>2018-10-03T11:48:27.000Z</time>
      </trkpt>
      <trkpt lat="42.532515" lon="-8.00968">
        <ele>654.0</ele>
        <time>2018-10-03T11:48:28.000Z</time>
      </trkpt>
      <trkpt lat="42.53252" lon="-8.00968833">
        <ele>654.0</ele>
        <time>2018-10-03T11:48:29.000Z</time>
      </trkpt>
      <trkpt lat="42.53252667" lon="-8.0097">
        <ele>654.0</ele>
        <time>2018-10-03T11:48:30.000Z</time>
      </trkpt>
      <trkpt lat="42.532535" lon="-8.00971167">
        <ele>654.0</ele>
        <time>2018-10-03T11:48:31.000Z</time>
      </trkpt>
      <trkpt lat="42.532545" lon="-8.00972333">
        <ele>653.0</ele>
        <time>2018-10-03T11:48:32.000Z</time>
      </trkpt>
      <trkpt lat="42.532555" lon="-8.00973167">
        <ele>653.0</ele>
        <time>2018-10-03T11:48:33.000Z</time>
      </trkpt>
      <trkpt lat="42.53256667" lon="-8.00974">
        <ele>653.0</ele>
        <time>2018-10-03T11:48:34.000Z</time>
      </trkpt>
      <trkpt lat="42.53257833" lon="-8.00975">
        <ele>653.0</ele>
        <time>2018-10-03T11:48:35.000Z</time>
      </trkpt>
      <trkpt lat="42.53259167" lon="-8.00975667">
        <ele>653.0</ele>
        <time>2018-10-03T11:48:36.000Z</time>
      </trkpt>
      <trkpt lat="42.53260333" lon="-8.009765">
        <ele>653.0</ele>
        <time>2018-10-03T11:48:37.000Z</time>
      </trkpt>
      <trkpt lat="42.53261833" lon="-8.00977167">
        <ele>653.0</ele>
        <time>2018-10-03T11:48:38.000Z</time>
      </trkpt>
      <trkpt lat="42.53263167" lon="-8.00977667">
        <ele>653.0</ele>
        <time>2018-10-03T11:48:39.000Z</time>
      </trkpt>
      <trkpt lat="42.532645" lon="-8.00978333">
        <ele>653.0</ele>
        <time>2018-10-03T11:48:40.000Z</time>
      </trkpt>
      <trkpt lat="42.53265667" lon="-8.00979167">
        <ele>652.0</ele>
        <time>2018-10-03T11:48:41.000Z</time>
      </trkpt>
      <trkpt lat="42.53266833" lon="-8.00979833">
        <ele>652.0</ele>
        <time>2018-10-03T11:48:42.000Z</time>
      </trkpt>
      <trkpt lat="42.53268" lon="-8.00980333">
        <ele>652.0</ele>
        <time>2018-10-03T11:48:43.000Z</time>
      </trkpt>
      <trkpt lat="42.53269167" lon="-8.00980833">
        <ele>652.0</ele>
        <time>2018-10-03T11:48:44.000Z</time>
      </trkpt>
      <trkpt lat="42.53270167" lon="-8.00981333">
        <ele>653.0</ele>
        <time>2018-10-03T11:48:45.000Z</time>
      </trkpt>
      <trkpt lat="42.53271" lon="-8.00981667">
        <ele>653.0</ele>
        <time>2018-10-03T11:48:46.000Z</time>
      </trkpt>
      <trkpt lat="42.53271833" lon="-8.00981667">
        <ele>653.0</ele>
        <time>2018-10-03T11:48:47.000Z</time>
      </trkpt>
      <trkpt lat="42.53272833" lon="-8.00981833">
        <ele>653.0</ele>
        <time>2018-10-03T11:48:48.000Z</time>
      </trkpt>
      <trkpt lat="42.53274" lon="-8.00982167">
        <ele>653.0</ele>
        <time>2018-10-03T11:48:49.000Z</time>
      </trkpt>
      <trkpt lat="42.53274833" lon="-8.00982333">
        <ele>653.0</ele>
        <time>2018-10-03T11:48:50.000Z</time>
      </trkpt>
      <trkpt lat="42.53276" lon="-8.00982667">
        <ele>654.0</ele>
        <time>2018-10-03T11:48:51.000Z</time>
      </trkpt>
      <trkpt lat="42.53277333" lon="-8.00982667">
        <ele>654.0</ele>
        <time>2018-10-03T11:48:52.000Z</time>
      </trkpt>
      <trkpt lat="42.53278667" lon="-8.009825">
        <ele>654.0</ele>
        <time>2018-10-03T11:48:53.000Z</time>
      </trkpt>
      <trkpt lat="42.53279833" lon="-8.009825">
        <ele>654.0</ele>
        <time>2018-10-03T11:48:54.000Z</time>
      </trkpt>
      <trkpt lat="42.53281" lon="-8.00982667">
        <ele>654.0</ele>
        <time>2018-10-03T11:48:55.000Z</time>
      </trkpt>
      <trkpt lat="42.53282167" lon="-8.00982833">
        <ele>654.0</ele>
        <time>2018-10-03T11:48:56.000Z</time>
      </trkpt>
      <trkpt lat="42.532835" lon="-8.00983167">
        <ele>654.0</ele>
        <time>2018-10-03T11:48:57.000Z</time>
      </trkpt>
      <trkpt lat="42.53285167" lon="-8.00983333">
        <ele>654.0</ele>
        <time>2018-10-03T11:48:58.000Z</time>
      </trkpt>
      <trkpt lat="42.53286833" lon="-8.009835">
        <ele>654.0</ele>
        <time>2018-10-03T11:48:59.000Z</time>
      </trkpt>
      <trkpt lat="42.53288333" lon="-8.009835">
        <ele>654.0</ele>
        <time>2018-10-03T11:49:00.000Z</time>
      </trkpt>
      <trkpt lat="42.53289667" lon="-8.00983667">
        <ele>654.0</ele>
        <time>2018-10-03T11:49:01.000Z</time>
      </trkpt>
      <trkpt lat="42.53291167" lon="-8.00984">
        <ele>654.0</ele>
        <time>2018-10-03T11:49:02.000Z</time>
      </trkpt>
      <trkpt lat="42.532925" lon="-8.00984">
        <ele>653.0</ele>
        <time>2018-10-03T11:49:03.000Z</time>
      </trkpt>
      <trkpt lat="42.53293833" lon="-8.00983833">
        <ele>653.0</ele>
        <time>2018-10-03T11:49:04.000Z</time>
      </trkpt>
      <trkpt lat="42.53295" lon="-8.00983667">
        <ele>653.0</ele>
        <time>2018-10-03T11:49:05.000Z</time>
      </trkpt>
      <trkpt lat="42.53296167" lon="-8.009835">
        <ele>653.0</ele>
        <time>2018-10-03T11:49:06.000Z</time>
      </trkpt>
      <trkpt lat="42.532975" lon="-8.00983167">
        <ele>653.0</ele>
        <time>2018-10-03T11:49:07.000Z</time>
      </trkpt>
      <trkpt lat="42.53299" lon="-8.00982833">
        <ele>653.0</ele>
        <time>2018-10-03T11:49:08.000Z</time>
      </trkpt>
      <trkpt lat="42.53300333" lon="-8.00982667">
        <ele>653.0</ele>
        <time>2018-10-03T11:49:09.000Z</time>
      </trkpt>
      <trkpt lat="42.533015" lon="-8.00982333">
        <ele>653.0</ele>
        <time>2018-10-03T11:49:10.000Z</time>
      </trkpt>
      <trkpt lat="42.53302833" lon="-8.00982167">
        <ele>653.0</ele>
        <time>2018-10-03T11:49:11.000Z</time>
      </trkpt>
      <trkpt lat="42.53303833" lon="-8.00981833">
        <ele>653.0</ele>
        <time>2018-10-03T11:49:12.000Z</time>
      </trkpt>
      <trkpt lat="42.53305" lon="-8.00981667">
        <ele>653.0</ele>
        <time>2018-10-03T11:49:13.000Z</time>
      </trkpt>
      <trkpt lat="42.53306333" lon="-8.00981667">
        <ele>653.0</ele>
        <time>2018-10-03T11:49:14.000Z</time>
      </trkpt>
      <trkpt lat="42.53307833" lon="-8.00981833">
        <ele>653.0</ele>
        <time>2018-10-03T11:49:15.000Z</time>
      </trkpt>
      <trkpt lat="42.53309333" lon="-8.00982167">
        <ele>653.0</ele>
        <time>2018-10-03T11:49:16.000Z</time>
      </trkpt>
      <trkpt lat="42.53310833" lon="-8.009825">
        <ele>653.0</ele>
        <time>2018-10-03T11:49:17.000Z</time>
      </trkpt>
      <trkpt lat="42.53312333" lon="-8.00982333">
        <ele>653.0</ele>
        <time>2018-10-03T11:49:18.000Z</time>
      </trkpt>
      <trkpt lat="42.53313833" lon="-8.00982167">
        <ele>653.0</ele>
        <time>2018-10-03T11:49:19.000Z</time>
      </trkpt>
      <trkpt lat="42.53315333" lon="-8.00982">
        <ele>653.0</ele>
        <time>2018-10-03T11:49:20.000Z</time>
      </trkpt>
      <trkpt lat="42.53316667" lon="-8.00981833">
        <ele>652.0</ele>
        <time>2018-10-03T11:49:21.000Z</time>
      </trkpt>
      <trkpt lat="42.53318167" lon="-8.00981833">
        <ele>652.0</ele>
        <time>2018-10-03T11:49:22.000Z</time>
      </trkpt>
      <trkpt lat="42.533195" lon="-8.00981667">
        <ele>652.0</ele>
        <time>2018-10-03T11:49:23.000Z</time>
      </trkpt>
      <trkpt lat="42.53320833" lon="-8.009815">
        <ele>652.0</ele>
        <time>2018-10-03T11:49:24.000Z</time>
      </trkpt>
      <trkpt lat="42.53322167" lon="-8.00981167">
        <ele>652.0</ele>
        <time>2018-10-03T11:49:25.000Z</time>
      </trkpt>
      <trkpt lat="42.53323667" lon="-8.00981">
        <ele>652.0</ele>
        <time>2018-10-03T11:49:26.000Z</time>
      </trkpt>
      <trkpt lat="42.53325" lon="-8.00980667">
        <ele>652.0</ele>
        <time>2018-10-03T11:49:27.000Z</time>
      </trkpt>
      <trkpt lat="42.53326167" lon="-8.00980333">
        <ele>652.0</ele>
        <time>2018-10-03T11:49:28.000Z</time>
      </trkpt>
      <trkpt lat="42.53327667" lon="-8.0098">
        <ele>651.0</ele>
        <time>2018-10-03T11:49:29.000Z</time>
      </trkpt>
      <trkpt lat="42.53328833" lon="-8.00979667">
        <ele>651.0</ele>
        <time>2018-10-03T11:49:30.000Z</time>
      </trkpt>
      <trkpt lat="42.53330167" lon="-8.009795">
        <ele>651.0</ele>
        <time>2018-10-03T11:49:31.000Z</time>
      </trkpt>
      <trkpt lat="42.53331333" lon="-8.00979">
        <ele>651.0</ele>
        <time>2018-10-03T11:49:32.000Z</time>
      </trkpt>
      <trkpt lat="42.533325" lon="-8.00978833">
        <ele>651.0</ele>
        <time>2018-10-03T11:49:33.000Z</time>
      </trkpt>
      <trkpt lat="42.53333833" lon="-8.00978833">
        <ele>651.0</ele>
        <time>2018-10-03T11:49:34.000Z</time>
      </trkpt>
      <trkpt lat="42.53335" lon="-8.009785">
        <ele>651.0</ele>
        <time>2018-10-03T11:49:35.000Z</time>
      </trkpt>
      <trkpt lat="42.53336" lon="-8.00978333">
        <ele>651.0</ele>
        <time>2018-10-03T11:49:36.000Z</time>
      </trkpt>
      <trkpt lat="42.53337" lon="-8.00977833">
        <ele>651.0</ele>
        <time>2018-10-03T11:49:37.000Z</time>
      </trkpt>
      <trkpt lat="42.53338167" lon="-8.00977167">
        <ele>651.0</ele>
        <time>2018-10-03T11:49:38.000Z</time>
      </trkpt>
      <trkpt lat="42.53339333" lon="-8.00976667">
        <ele>650.0</ele>
        <time>2018-10-03T11:49:39.000Z</time>
      </trkpt>
      <trkpt lat="42.53340333" lon="-8.00976833">
        <ele>650.0</ele>
        <time>2018-10-03T11:49:40.000Z</time>
      </trkpt>
      <trkpt lat="42.533415" lon="-8.00977">
        <ele>650.0</ele>
        <time>2018-10-03T11:49:41.000Z</time>
      </trkpt>
      <trkpt lat="42.53342667" lon="-8.00977167">
        <ele>650.0</ele>
        <time>2018-10-03T11:49:42.000Z</time>
      </trkpt>
      <trkpt lat="42.53343667" lon="-8.00976833">
        <ele>650.0</ele>
        <time>2018-10-03T11:49:43.000Z</time>
      </trkpt>
      <trkpt lat="42.53345" lon="-8.00976667">
        <ele>650.0</ele>
        <time>2018-10-03T11:49:44.000Z</time>
      </trkpt>
      <trkpt lat="42.53346333" lon="-8.00976167">
        <ele>650.0</ele>
        <time>2018-10-03T11:49:45.000Z</time>
      </trkpt>
      <trkpt lat="42.53347833" lon="-8.00976">
        <ele>650.0</ele>
        <time>2018-10-03T11:49:46.000Z</time>
      </trkpt>
      <trkpt lat="42.53349333" lon="-8.00975667">
        <ele>650.0</ele>
        <time>2018-10-03T11:49:47.000Z</time>
      </trkpt>
      <trkpt lat="42.53350833" lon="-8.00975167">
        <ele>649.0</ele>
        <time>2018-10-03T11:49:48.000Z</time>
      </trkpt>
      <trkpt lat="42.53352167" lon="-8.00974833">
        <ele>649.0</ele>
        <time>2018-10-03T11:49:49.000Z</time>
      </trkpt>
      <trkpt lat="42.533535" lon="-8.00974667">
        <ele>649.0</ele>
        <time>2018-10-03T11:49:50.000Z</time>
      </trkpt>
      <trkpt lat="42.53355" lon="-8.00974667">
        <ele>649.0</ele>
        <time>2018-10-03T11:49:51.000Z</time>
      </trkpt>
      <trkpt lat="42.53356667" lon="-8.009745">
        <ele>649.0</ele>
        <time>2018-10-03T11:49:52.000Z</time>
      </trkpt>
      <trkpt lat="42.53358" lon="-8.00974333">
        <ele>649.0</ele>
        <time>2018-10-03T11:49:53.000Z</time>
      </trkpt>
      <trkpt lat="42.533595" lon="-8.009745">
        <ele>649.0</ele>
        <time>2018-10-03T11:49:54.000Z</time>
      </trkpt>
      <trkpt lat="42.53361" lon="-8.00974833">
        <ele>649.0</ele>
        <time>2018-10-03T11:49:55.000Z</time>
      </trkpt>
      <trkpt lat="42.53362667" lon="-8.00975">
        <ele>649.0</ele>
        <time>2018-10-03T11:49:56.000Z</time>
      </trkpt>
      <trkpt lat="42.53364" lon="-8.00975167">
        <ele>649.0</ele>
        <time>2018-10-03T11:49:57.000Z</time>
      </trkpt>
      <trkpt lat="42.533655" lon="-8.009755">
        <ele>649.0</ele>
        <time>2018-10-03T11:49:58.000Z</time>
      </trkpt>
      <trkpt lat="42.53367" lon="-8.00976167">
        <ele>649.0</ele>
        <time>2018-10-03T11:49:59.000Z</time>
      </trkpt>
      <trkpt lat="42.53368333" lon="-8.00976833">
        <ele>648.0</ele>
        <time>2018-10-03T11:50:00.000Z</time>
      </trkpt>
      <trkpt lat="42.53369833" lon="-8.00977667">
        <ele>648.0</ele>
        <time>2018-10-03T11:50:01.000Z</time>
      </trkpt>
      <trkpt lat="42.53371333" lon="-8.00978333">
        <ele>648.0</ele>
        <time>2018-10-03T11:50:02.000Z</time>
      </trkpt>
      <trkpt lat="42.53372667" lon="-8.00979167">
        <ele>648.0</ele>
        <time>2018-10-03T11:50:03.000Z</time>
      </trkpt>
      <trkpt lat="42.53373833" lon="-8.0098">
        <ele>648.0</ele>
        <time>2018-10-03T11:50:04.000Z</time>
      </trkpt>
      <trkpt lat="42.53374833" lon="-8.00980833">
        <ele>648.0</ele>
        <time>2018-10-03T11:50:05.000Z</time>
      </trkpt>
      <trkpt lat="42.53375833" lon="-8.00981833">
        <ele>648.0</ele>
        <time>2018-10-03T11:50:06.000Z</time>
      </trkpt>
      <trkpt lat="42.53376833" lon="-8.00983">
        <ele>647.0</ele>
        <time>2018-10-03T11:50:07.000Z</time>
      </trkpt>
      <trkpt lat="42.53377667" lon="-8.00984167">
        <ele>647.0</ele>
        <time>2018-10-03T11:50:08.000Z</time>
      </trkpt>
      <trkpt lat="42.53378833" lon="-8.00985667">
        <ele>647.0</ele>
        <time>2018-10-03T11:50:09.000Z</time>
      </trkpt>
      <trkpt lat="42.5338" lon="-8.00987167">
        <ele>647.0</ele>
        <time>2018-10-03T11:50:10.000Z</time>
      </trkpt>
      <trkpt lat="42.53381167" lon="-8.00988667">
        <ele>647.0</ele>
        <time>2018-10-03T11:50:11.000Z</time>
      </trkpt>
      <trkpt lat="42.53382333" lon="-8.00990167">
        <ele>646.0</ele>
        <time>2018-10-03T11:50:12.000Z</time>
      </trkpt>
      <trkpt lat="42.53383667" lon="-8.00991833">
        <ele>646.0</ele>
        <time>2018-10-03T11:50:13.000Z</time>
      </trkpt>
      <trkpt lat="42.53384833" lon="-8.00993333">
        <ele>646.0</ele>
        <time>2018-10-03T11:50:14.000Z</time>
      </trkpt>
      <trkpt lat="42.53386167" lon="-8.00994833">
        <ele>646.0</ele>
        <time>2018-10-03T11:50:15.000Z</time>
      </trkpt>
      <trkpt lat="42.53387333" lon="-8.00996667">
        <ele>646.0</ele>
        <time>2018-10-03T11:50:16.000Z</time>
      </trkpt>
      <trkpt lat="42.53388333" lon="-8.00998167">
        <ele>646.0</ele>
        <time>2018-10-03T11:50:17.000Z</time>
      </trkpt>
      <trkpt lat="42.53389167" lon="-8.00999667">
        <ele>646.0</ele>
        <time>2018-10-03T11:50:18.000Z</time>
      </trkpt>
      <trkpt lat="42.5339" lon="-8.01001333">
        <ele>646.0</ele>
        <time>2018-10-03T11:50:19.000Z</time>
      </trkpt>
      <trkpt lat="42.53390833" lon="-8.01003">
        <ele>646.0</ele>
        <time>2018-10-03T11:50:20.000Z</time>
      </trkpt>
      <trkpt lat="42.53391667" lon="-8.010045">
        <ele>646.0</ele>
        <time>2018-10-03T11:50:21.000Z</time>
      </trkpt>
      <trkpt lat="42.53392333" lon="-8.01006167">
        <ele>646.0</ele>
        <time>2018-10-03T11:50:22.000Z</time>
      </trkpt>
      <trkpt lat="42.53392833" lon="-8.01007833">
        <ele>645.0</ele>
        <time>2018-10-03T11:50:23.000Z</time>
      </trkpt>
      <trkpt lat="42.533935" lon="-8.01009167">
        <ele>645.0</ele>
        <time>2018-10-03T11:50:24.000Z</time>
      </trkpt>
      <trkpt lat="42.53393833" lon="-8.01010333">
        <ele>645.0</ele>
        <time>2018-10-03T11:50:25.000Z</time>
      </trkpt>
      <trkpt lat="42.53394333" lon="-8.01011667">
        <ele>645.0</ele>
        <time>2018-10-03T11:50:26.000Z</time>
      </trkpt>
      <trkpt lat="42.53394667" lon="-8.01012833">
        <ele>645.0</ele>
        <time>2018-10-03T11:50:27.000Z</time>
      </trkpt>
      <trkpt lat="42.53395" lon="-8.01013667">
        <ele>645.0</ele>
        <time>2018-10-03T11:50:28.000Z</time>
      </trkpt>
      <trkpt lat="42.53395167" lon="-8.01014667">
        <ele>645.0</ele>
        <time>2018-10-03T11:50:29.000Z</time>
      </trkpt>
      <trkpt lat="42.53395333" lon="-8.01015667">
        <ele>645.0</ele>
        <time>2018-10-03T11:50:30.000Z</time>
      </trkpt>
      <trkpt lat="42.53395833" lon="-8.01016833">
        <ele>645.0</ele>
        <time>2018-10-03T11:50:31.000Z</time>
      </trkpt>
      <trkpt lat="42.53396333" lon="-8.01018">
        <ele>645.0</ele>
        <time>2018-10-03T11:50:32.000Z</time>
      </trkpt>
      <trkpt lat="42.53397167" lon="-8.01019167">
        <ele>644.0</ele>
        <time>2018-10-03T11:50:33.000Z</time>
      </trkpt>
      <trkpt lat="42.53398" lon="-8.01020667">
        <ele>644.0</ele>
        <time>2018-10-03T11:50:34.000Z</time>
      </trkpt>
      <trkpt lat="42.53398833" lon="-8.01021833">
        <ele>644.0</ele>
        <time>2018-10-03T11:50:35.000Z</time>
      </trkpt>
      <trkpt lat="42.533995" lon="-8.01023167">
        <ele>644.0</ele>
        <time>2018-10-03T11:50:36.000Z</time>
      </trkpt>
      <trkpt lat="42.53400333" lon="-8.01024667">
        <ele>643.0</ele>
        <time>2018-10-03T11:50:37.000Z</time>
      </trkpt>
      <trkpt lat="42.53401167" lon="-8.01026333">
        <ele>643.0</ele>
        <time>2018-10-03T11:50:38.000Z</time>
      </trkpt>
      <trkpt lat="42.53402333" lon="-8.01027833">
        <ele>643.0</ele>
        <time>2018-10-03T11:50:39.000Z</time>
      </trkpt>
      <trkpt lat="42.53403333" lon="-8.01029667">
        <ele>642.0</ele>
        <time>2018-10-03T11:50:40.000Z</time>
      </trkpt>
      <trkpt lat="42.53404333" lon="-8.01031167">
        <ele>642.0</ele>
        <time>2018-10-03T11:50:41.000Z</time>
      </trkpt>
      <trkpt lat="42.53405167" lon="-8.01033">
        <ele>641.0</ele>
        <time>2018-10-03T11:50:42.000Z</time>
      </trkpt>
      <trkpt lat="42.53406" lon="-8.01034333">
        <ele>641.0</ele>
        <time>2018-10-03T11:50:43.000Z</time>
      </trkpt>
      <trkpt lat="42.53406667" lon="-8.01035667">
        <ele>641.0</ele>
        <time>2018-10-03T11:50:44.000Z</time>
      </trkpt>
      <trkpt lat="42.53407333" lon="-8.01037">
        <ele>640.0</ele>
        <time>2018-10-03T11:50:45.000Z</time>
      </trkpt>
      <trkpt lat="42.53408" lon="-8.01038333">
        <ele>640.0</ele>
        <time>2018-10-03T11:50:46.000Z</time>
      </trkpt>
      <trkpt lat="42.53408667" lon="-8.01039833">
        <ele>640.0</ele>
        <time>2018-10-03T11:50:47.000Z</time>
      </trkpt>
      <trkpt lat="42.53409333" lon="-8.01041333">
        <ele>640.0</ele>
        <time>2018-10-03T11:50:48.000Z</time>
      </trkpt>
      <trkpt lat="42.53409833" lon="-8.01042667">
        <ele>639.0</ele>
        <time>2018-10-03T11:50:49.000Z</time>
      </trkpt>
      <trkpt lat="42.53410333" lon="-8.01044667">
        <ele>639.0</ele>
        <time>2018-10-03T11:50:50.000Z</time>
      </trkpt>
      <trkpt lat="42.53410667" lon="-8.010465">
        <ele>639.0</ele>
        <time>2018-10-03T11:50:51.000Z</time>
      </trkpt>
      <trkpt lat="42.53410833" lon="-8.01048167">
        <ele>639.0</ele>
        <time>2018-10-03T11:50:52.000Z</time>
      </trkpt>
      <trkpt lat="42.53411167" lon="-8.0105">
        <ele>639.0</ele>
        <time>2018-10-03T11:50:53.000Z</time>
      </trkpt>
      <trkpt lat="42.534115" lon="-8.01052">
        <ele>639.0</ele>
        <time>2018-10-03T11:50:54.000Z</time>
      </trkpt>
      <trkpt lat="42.53411667" lon="-8.01053833">
        <ele>639.0</ele>
        <time>2018-10-03T11:50:55.000Z</time>
      </trkpt>
      <trkpt lat="42.53411667" lon="-8.01055833">
        <ele>640.0</ele>
        <time>2018-10-03T11:50:56.000Z</time>
      </trkpt>
      <trkpt lat="42.53411667" lon="-8.01057667">
        <ele>640.0</ele>
        <time>2018-10-03T11:50:57.000Z</time>
      </trkpt>
      <trkpt lat="42.53411833" lon="-8.01059667">
        <ele>640.0</ele>
        <time>2018-10-03T11:50:58.000Z</time>
      </trkpt>
      <trkpt lat="42.53412" lon="-8.01061833">
        <ele>640.0</ele>
        <time>2018-10-03T11:50:59.000Z</time>
      </trkpt>
      <trkpt lat="42.53412167" lon="-8.01063833">
        <ele>640.0</ele>
        <time>2018-10-03T11:51:00.000Z</time>
      </trkpt>
      <trkpt lat="42.53412167" lon="-8.01066">
        <ele>640.0</ele>
        <time>2018-10-03T11:51:01.000Z</time>
      </trkpt>
      <trkpt lat="42.53412167" lon="-8.01067833">
        <ele>640.0</ele>
        <time>2018-10-03T11:51:02.000Z</time>
      </trkpt>
      <trkpt lat="42.53412167" lon="-8.01069667">
        <ele>640.0</ele>
        <time>2018-10-03T11:51:03.000Z</time>
      </trkpt>
      <trkpt lat="42.53412333" lon="-8.01071667">
        <ele>639.0</ele>
        <time>2018-10-03T11:51:04.000Z</time>
      </trkpt>
      <trkpt lat="42.53412667" lon="-8.01073667">
        <ele>639.0</ele>
        <time>2018-10-03T11:51:05.000Z</time>
      </trkpt>
      <trkpt lat="42.53413333" lon="-8.010755">
        <ele>639.0</ele>
        <time>2018-10-03T11:51:06.000Z</time>
      </trkpt>
      <trkpt lat="42.53414" lon="-8.01077333">
        <ele>639.0</ele>
        <time>2018-10-03T11:51:07.000Z</time>
      </trkpt>
      <trkpt lat="42.53414333" lon="-8.01079">
        <ele>638.0</ele>
        <time>2018-10-03T11:51:08.000Z</time>
      </trkpt>
      <trkpt lat="42.534145" lon="-8.01080333">
        <ele>638.0</ele>
        <time>2018-10-03T11:51:09.000Z</time>
      </trkpt>
      <trkpt lat="42.53414667" lon="-8.01081667">
        <ele>638.0</ele>
        <time>2018-10-03T11:51:10.000Z</time>
      </trkpt>
      <trkpt lat="42.53414667" lon="-8.01083333">
        <ele>638.0</ele>
        <time>2018-10-03T11:51:11.000Z</time>
      </trkpt>
      <trkpt lat="42.53414667" lon="-8.01085167">
        <ele>638.0</ele>
        <time>2018-10-03T11:51:12.000Z</time>
      </trkpt>
      <trkpt lat="42.53414667" lon="-8.01087">
        <ele>638.0</ele>
        <time>2018-10-03T11:51:13.000Z</time>
      </trkpt>
      <trkpt lat="42.53414667" lon="-8.01089">
        <ele>638.0</ele>
        <time>2018-10-03T11:51:14.000Z</time>
      </trkpt>
      <trkpt lat="42.53414667" lon="-8.01091167">
        <ele>638.0</ele>
        <time>2018-10-03T11:51:15.000Z</time>
      </trkpt>
      <trkpt lat="42.53414667" lon="-8.01093333">
        <ele>638.0</ele>
        <time>2018-10-03T11:51:16.000Z</time>
      </trkpt>
      <trkpt lat="42.534145" lon="-8.010955">
        <ele>638.0</ele>
        <time>2018-10-03T11:51:17.000Z</time>
      </trkpt>
      <trkpt lat="42.534145" lon="-8.01097667">
        <ele>638.0</ele>
        <time>2018-10-03T11:51:18.000Z</time>
      </trkpt>
      <trkpt lat="42.53414667" lon="-8.01099667">
        <ele>638.0</ele>
        <time>2018-10-03T11:51:19.000Z</time>
      </trkpt>
      <trkpt lat="42.53414833" lon="-8.01101667">
        <ele>638.0</ele>
        <time>2018-10-03T11:51:20.000Z</time>
      </trkpt>
      <trkpt lat="42.53415167" lon="-8.011035">
        <ele>638.0</ele>
        <time>2018-10-03T11:51:21.000Z</time>
      </trkpt>
      <trkpt lat="42.53415167" lon="-8.01105">
        <ele>638.0</ele>
        <time>2018-10-03T11:51:22.000Z</time>
      </trkpt>
      <trkpt lat="42.53415" lon="-8.011065">
        <ele>638.0</ele>
        <time>2018-10-03T11:51:23.000Z</time>
      </trkpt>
      <trkpt lat="42.53415" lon="-8.01108333">
        <ele>638.0</ele>
        <time>2018-10-03T11:51:24.000Z</time>
      </trkpt>
      <trkpt lat="42.53415" lon="-8.01110167">
        <ele>638.0</ele>
        <time>2018-10-03T11:51:25.000Z</time>
      </trkpt>
      <trkpt lat="42.53415" lon="-8.01111833">
        <ele>638.0</ele>
        <time>2018-10-03T11:51:26.000Z</time>
      </trkpt>
      <trkpt lat="42.53415" lon="-8.011135">
        <ele>638.0</ele>
        <time>2018-10-03T11:51:27.000Z</time>
      </trkpt>
      <trkpt lat="42.53415167" lon="-8.01115">
        <ele>639.0</ele>
        <time>2018-10-03T11:51:28.000Z</time>
      </trkpt>
      <trkpt lat="42.53415333" lon="-8.01116667">
        <ele>639.0</ele>
        <time>2018-10-03T11:51:29.000Z</time>
      </trkpt>
      <trkpt lat="42.53415833" lon="-8.01118">
        <ele>639.0</ele>
        <time>2018-10-03T11:51:30.000Z</time>
      </trkpt>
      <trkpt lat="42.53416667" lon="-8.011195">
        <ele>639.0</ele>
        <time>2018-10-03T11:51:31.000Z</time>
      </trkpt>
      <trkpt lat="42.534175" lon="-8.01120667">
        <ele>639.0</ele>
        <time>2018-10-03T11:51:32.000Z</time>
      </trkpt>
      <trkpt lat="42.53418667" lon="-8.01121833">
        <ele>639.0</ele>
        <time>2018-10-03T11:51:33.000Z</time>
      </trkpt>
      <trkpt lat="42.53419667" lon="-8.01123">
        <ele>639.0</ele>
        <time>2018-10-03T11:51:34.000Z</time>
      </trkpt>
      <trkpt lat="42.53420833" lon="-8.01124">
        <ele>640.0</ele>
        <time>2018-10-03T11:51:35.000Z</time>
      </trkpt>
      <trkpt lat="42.53421833" lon="-8.01125">
        <ele>640.0</ele>
        <time>2018-10-03T11:51:36.000Z</time>
      </trkpt>
      <trkpt lat="42.53422667" lon="-8.01126333">
        <ele>640.0</ele>
        <time>2018-10-03T11:51:37.000Z</time>
      </trkpt>
      <trkpt lat="42.534235" lon="-8.01127833">
        <ele>641.0</ele>
        <time>2018-10-03T11:51:38.000Z</time>
      </trkpt>
      <trkpt lat="42.53424167" lon="-8.011295">
        <ele>641.0</ele>
        <time>2018-10-03T11:51:39.000Z</time>
      </trkpt>
      <trkpt lat="42.53425" lon="-8.01131167">
        <ele>641.0</ele>
        <time>2018-10-03T11:51:40.000Z</time>
      </trkpt>
      <trkpt lat="42.53425667" lon="-8.01132833">
        <ele>641.0</ele>
        <time>2018-10-03T11:51:41.000Z</time>
      </trkpt>
      <trkpt lat="42.53426333" lon="-8.011345">
        <ele>642.0</ele>
        <time>2018-10-03T11:51:42.000Z</time>
      </trkpt>
      <trkpt lat="42.53426833" lon="-8.01136">
        <ele>642.0</ele>
        <time>2018-10-03T11:51:43.000Z</time>
      </trkpt>
      <trkpt lat="42.53427" lon="-8.01137667">
        <ele>642.0</ele>
        <time>2018-10-03T11:51:44.000Z</time>
      </trkpt>
      <trkpt lat="42.53427667" lon="-8.01139167">
        <ele>642.0</ele>
        <time>2018-10-03T11:51:45.000Z</time>
      </trkpt>
      <trkpt lat="42.53428333" lon="-8.01140833">
        <ele>643.0</ele>
        <time>2018-10-03T11:51:46.000Z</time>
      </trkpt>
      <trkpt lat="42.53429" lon="-8.01142333">
        <ele>643.0</ele>
        <time>2018-10-03T11:51:47.000Z</time>
      </trkpt>
      <trkpt lat="42.53429667" lon="-8.01144167">
        <ele>643.0</ele>
        <time>2018-10-03T11:51:48.000Z</time>
      </trkpt>
      <trkpt lat="42.53430333" lon="-8.011455">
        <ele>644.0</ele>
        <time>2018-10-03T11:51:49.000Z</time>
      </trkpt>
      <trkpt lat="42.53430667" lon="-8.01146833">
        <ele>644.0</ele>
        <time>2018-10-03T11:51:50.000Z</time>
      </trkpt>
      <trkpt lat="42.53431167" lon="-8.01148333">
        <ele>644.0</ele>
        <time>2018-10-03T11:51:51.000Z</time>
      </trkpt>
      <trkpt lat="42.53432" lon="-8.0115">
        <ele>645.0</ele>
        <time>2018-10-03T11:51:52.000Z</time>
      </trkpt>
      <trkpt lat="42.53432833" lon="-8.011515">
        <ele>645.0</ele>
        <time>2018-10-03T11:51:53.000Z</time>
      </trkpt>
      <trkpt lat="42.53433833" lon="-8.01153167">
        <ele>645.0</ele>
        <time>2018-10-03T11:51:54.000Z</time>
      </trkpt>
      <trkpt lat="42.53434667" lon="-8.011545">
        <ele>645.0</ele>
        <time>2018-10-03T11:51:55.000Z</time>
      </trkpt>
      <trkpt lat="42.534355" lon="-8.01155833">
        <ele>646.0</ele>
        <time>2018-10-03T11:51:56.000Z</time>
      </trkpt>
      <trkpt lat="42.53436333" lon="-8.01157333">
        <ele>646.0</ele>
        <time>2018-10-03T11:51:57.000Z</time>
      </trkpt>
      <trkpt lat="42.53437" lon="-8.01158833">
        <ele>646.0</ele>
        <time>2018-10-03T11:51:58.000Z</time>
      </trkpt>
      <trkpt lat="42.53437667" lon="-8.01160333">
        <ele>646.0</ele>
        <time>2018-10-03T11:51:59.000Z</time>
      </trkpt>
      <trkpt lat="42.534385" lon="-8.01161667">
        <ele>646.0</ele>
        <time>2018-10-03T11:52:00.000Z</time>
      </trkpt>
      <trkpt lat="42.53439167" lon="-8.01163167">
        <ele>646.0</ele>
        <time>2018-10-03T11:52:01.000Z</time>
      </trkpt>
      <trkpt lat="42.5344" lon="-8.011645">
        <ele>647.0</ele>
        <time>2018-10-03T11:52:02.000Z</time>
      </trkpt>
      <trkpt lat="42.53440833" lon="-8.01165833">
        <ele>647.0</ele>
        <time>2018-10-03T11:52:03.000Z</time>
      </trkpt>
      <trkpt lat="42.53441833" lon="-8.01167">
        <ele>647.0</ele>
        <time>2018-10-03T11:52:04.000Z</time>
      </trkpt>
      <trkpt lat="42.53442667" lon="-8.01168333">
        <ele>647.0</ele>
        <time>2018-10-03T11:52:05.000Z</time>
      </trkpt>
      <trkpt lat="42.53443333" lon="-8.01169167">
        <ele>647.0</ele>
        <time>2018-10-03T11:52:06.000Z</time>
      </trkpt>
      <trkpt lat="42.53444" lon="-8.01170333">
        <ele>647.0</ele>
        <time>2018-10-03T11:52:07.000Z</time>
      </trkpt>
      <trkpt lat="42.53444333" lon="-8.01171">
        <ele>648.0</ele>
        <time>2018-10-03T11:52:08.000Z</time>
      </trkpt>
      <trkpt lat="42.53444667" lon="-8.011715">
        <ele>648.0</ele>
        <time>2018-10-03T11:52:09.000Z</time>
      </trkpt>
      <trkpt lat="42.53445167" lon="-8.01172333">
        <ele>648.0</ele>
        <time>2018-10-03T11:52:10.000Z</time>
      </trkpt>
      <trkpt lat="42.53445833" lon="-8.01173">
        <ele>648.0</ele>
        <time>2018-10-03T11:52:11.000Z</time>
      </trkpt>
      <trkpt lat="42.534465" lon="-8.01173667">
        <ele>648.0</ele>
        <time>2018-10-03T11:52:12.000Z</time>
      </trkpt>
      <trkpt lat="42.53447" lon="-8.01174167">
        <ele>649.0</ele>
        <time>2018-10-03T11:52:13.000Z</time>
      </trkpt>
      <trkpt lat="42.53447667" lon="-8.01174667">
        <ele>649.0</ele>
        <time>2018-10-03T11:52:14.000Z</time>
      </trkpt>
      <trkpt lat="42.53448" lon="-8.01175167">
        <ele>649.0</ele>
        <time>2018-10-03T11:52:15.000Z</time>
      </trkpt>
      <trkpt lat="42.53448833" lon="-8.01175833">
        <ele>649.0</ele>
        <time>2018-10-03T11:52:16.000Z</time>
      </trkpt>
      <trkpt lat="42.53449667" lon="-8.011765">
        <ele>649.0</ele>
        <time>2018-10-03T11:52:17.000Z</time>
      </trkpt>
      <trkpt lat="42.534505" lon="-8.01177333">
        <ele>649.0</ele>
        <time>2018-10-03T11:52:18.000Z</time>
      </trkpt>
      <trkpt lat="42.53451167" lon="-8.01178667">
        <ele>649.0</ele>
        <time>2018-10-03T11:52:19.000Z</time>
      </trkpt>
      <trkpt lat="42.53452" lon="-8.01179667">
        <ele>650.0</ele>
        <time>2018-10-03T11:52:20.000Z</time>
      </trkpt>
      <trkpt lat="42.53453" lon="-8.01180333">
        <ele>650.0</ele>
        <time>2018-10-03T11:52:21.000Z</time>
      </trkpt>
      <trkpt lat="42.53454" lon="-8.01181167">
        <ele>650.0</ele>
        <time>2018-10-03T11:52:22.000Z</time>
      </trkpt>
      <trkpt lat="42.53455167" lon="-8.01182">
        <ele>650.0</ele>
        <time>2018-10-03T11:52:23.000Z</time>
      </trkpt>
      <trkpt lat="42.53456167" lon="-8.01182833">
        <ele>650.0</ele>
        <time>2018-10-03T11:52:24.000Z</time>
      </trkpt>
      <trkpt lat="42.53457167" lon="-8.01183667">
        <ele>650.0</ele>
        <time>2018-10-03T11:52:25.000Z</time>
      </trkpt>
      <trkpt lat="42.53458333" lon="-8.01184333">
        <ele>650.0</ele>
        <time>2018-10-03T11:52:26.000Z</time>
      </trkpt>
      <trkpt lat="42.53459333" lon="-8.01185333">
        <ele>650.0</ele>
        <time>2018-10-03T11:52:27.000Z</time>
      </trkpt>
      <trkpt lat="42.53460333" lon="-8.01186333">
        <ele>650.0</ele>
        <time>2018-10-03T11:52:28.000Z</time>
      </trkpt>
      <trkpt lat="42.53461333" lon="-8.01187">
        <ele>650.0</ele>
        <time>2018-10-03T11:52:29.000Z</time>
      </trkpt>
      <trkpt lat="42.53462167" lon="-8.01188">
        <ele>650.0</ele>
        <time>2018-10-03T11:52:30.000Z</time>
      </trkpt>
      <trkpt lat="42.53463" lon="-8.01189167">
        <ele>649.0</ele>
        <time>2018-10-03T11:52:31.000Z</time>
      </trkpt>
      <trkpt lat="42.53463833" lon="-8.01190167">
        <ele>649.0</ele>
        <time>2018-10-03T11:52:32.000Z</time>
      </trkpt>
      <trkpt lat="42.534645" lon="-8.01191167">
        <ele>649.0</ele>
        <time>2018-10-03T11:52:33.000Z</time>
      </trkpt>
      <trkpt lat="42.53465667" lon="-8.01192167">
        <ele>649.0</ele>
        <time>2018-10-03T11:52:34.000Z</time>
      </trkpt>
      <trkpt lat="42.53466667" lon="-8.01193167">
        <ele>649.0</ele>
        <time>2018-10-03T11:52:35.000Z</time>
      </trkpt>
      <trkpt lat="42.53467667" lon="-8.01194333">
        <ele>649.0</ele>
        <time>2018-10-03T11:52:36.000Z</time>
      </trkpt>
      <trkpt lat="42.53468667" lon="-8.01195333">
        <ele>650.0</ele>
        <time>2018-10-03T11:52:37.000Z</time>
      </trkpt>
      <trkpt lat="42.53469667" lon="-8.01196333">
        <ele>650.0</ele>
        <time>2018-10-03T11:52:38.000Z</time>
      </trkpt>
      <trkpt lat="42.53470833" lon="-8.01197667">
        <ele>650.0</ele>
        <time>2018-10-03T11:52:39.000Z</time>
      </trkpt>
      <trkpt lat="42.53471833" lon="-8.01199167">
        <ele>650.0</ele>
        <time>2018-10-03T11:52:40.000Z</time>
      </trkpt>
      <trkpt lat="42.53472833" lon="-8.01200333">
        <ele>650.0</ele>
        <time>2018-10-03T11:52:41.000Z</time>
      </trkpt>
      <trkpt lat="42.53473833" lon="-8.01201333">
        <ele>650.0</ele>
        <time>2018-10-03T11:52:42.000Z</time>
      </trkpt>
      <trkpt lat="42.53475" lon="-8.01202333">
        <ele>650.0</ele>
        <time>2018-10-03T11:52:43.000Z</time>
      </trkpt>
      <trkpt lat="42.53475833" lon="-8.01203333">
        <ele>650.0</ele>
        <time>2018-10-03T11:52:44.000Z</time>
      </trkpt>
      <trkpt lat="42.534765" lon="-8.01204333">
        <ele>650.0</ele>
        <time>2018-10-03T11:52:45.000Z</time>
      </trkpt>
      <trkpt lat="42.534775" lon="-8.01205167">
        <ele>650.0</ele>
        <time>2018-10-03T11:52:46.000Z</time>
      </trkpt>
      <trkpt lat="42.53478333" lon="-8.01206167">
        <ele>650.0</ele>
        <time>2018-10-03T11:52:47.000Z</time>
      </trkpt>
      <trkpt lat="42.53479333" lon="-8.01207167">
        <ele>650.0</ele>
        <time>2018-10-03T11:52:48.000Z</time>
      </trkpt>
      <trkpt lat="42.534805" lon="-8.01208167">
        <ele>650.0</ele>
        <time>2018-10-03T11:52:49.000Z</time>
      </trkpt>
      <trkpt lat="42.53481333" lon="-8.01209">
        <ele>651.0</ele>
        <time>2018-10-03T11:52:50.000Z</time>
      </trkpt>
      <trkpt lat="42.53482167" lon="-8.01209833">
        <ele>651.0</ele>
        <time>2018-10-03T11:52:51.000Z</time>
      </trkpt>
      <trkpt lat="42.53483167" lon="-8.01210667">
        <ele>651.0</ele>
        <time>2018-10-03T11:52:52.000Z</time>
      </trkpt>
      <trkpt lat="42.53484" lon="-8.01211667">
        <ele>651.0</ele>
        <time>2018-10-03T11:52:53.000Z</time>
      </trkpt>
      <trkpt lat="42.53484833" lon="-8.01212667">
        <ele>651.0</ele>
        <time>2018-10-03T11:52:54.000Z</time>
      </trkpt>
      <trkpt lat="42.53485667" lon="-8.01214">
        <ele>651.0</ele>
        <time>2018-10-03T11:52:55.000Z</time>
      </trkpt>
      <trkpt lat="42.53486667" lon="-8.01215167">
        <ele>651.0</ele>
        <time>2018-10-03T11:52:56.000Z</time>
      </trkpt>
      <trkpt lat="42.534875" lon="-8.01216333">
        <ele>651.0</ele>
        <time>2018-10-03T11:52:57.000Z</time>
      </trkpt>
      <trkpt lat="42.53488333" lon="-8.012175">
        <ele>650.0</ele>
        <time>2018-10-03T11:52:58.000Z</time>
      </trkpt>
      <trkpt lat="42.53489167" lon="-8.01218833">
        <ele>650.0</ele>
        <time>2018-10-03T11:52:59.000Z</time>
      </trkpt>
      <trkpt lat="42.53490167" lon="-8.0122">
        <ele>651.0</ele>
        <time>2018-10-03T11:53:00.000Z</time>
      </trkpt>
      <trkpt lat="42.53491" lon="-8.01221333">
        <ele>651.0</ele>
        <time>2018-10-03T11:53:01.000Z</time>
      </trkpt>
      <trkpt lat="42.53491833" lon="-8.01222667">
        <ele>651.0</ele>
        <time>2018-10-03T11:53:02.000Z</time>
      </trkpt>
      <trkpt lat="42.53491833" lon="-8.01223167">
        <ele>651.0</ele>
        <time>2018-10-03T11:53:03.000Z</time>
      </trkpt>
      <trkpt lat="42.53492" lon="-8.01223833">
        <ele>651.0</ele>
        <time>2018-10-03T11:53:04.000Z</time>
      </trkpt>
      <trkpt lat="42.53492167" lon="-8.01224667">
        <ele>651.0</ele>
        <time>2018-10-03T11:53:05.000Z</time>
      </trkpt>
      <trkpt lat="42.53492667" lon="-8.01225833">
        <ele>651.0</ele>
        <time>2018-10-03T11:53:06.000Z</time>
      </trkpt>
      <trkpt lat="42.534935" lon="-8.01227">
        <ele>651.0</ele>
        <time>2018-10-03T11:53:07.000Z</time>
      </trkpt>
      <trkpt lat="42.534945" lon="-8.01228167">
        <ele>651.0</ele>
        <time>2018-10-03T11:53:08.000Z</time>
      </trkpt>
      <trkpt lat="42.534955" lon="-8.01229333">
        <ele>651.0</ele>
        <time>2018-10-03T11:53:09.000Z</time>
      </trkpt>
      <trkpt lat="42.534965" lon="-8.012305">
        <ele>652.0</ele>
        <time>2018-10-03T11:53:10.000Z</time>
      </trkpt>
      <trkpt lat="42.534975" lon="-8.01231667">
        <ele>652.0</ele>
        <time>2018-10-03T11:53:11.000Z</time>
      </trkpt>
      <trkpt lat="42.53498333" lon="-8.01233">
        <ele>652.0</ele>
        <time>2018-10-03T11:53:12.000Z</time>
      </trkpt>
      <trkpt lat="42.53499167" lon="-8.01234">
        <ele>653.0</ele>
        <time>2018-10-03T11:53:13.000Z</time>
      </trkpt>
      <trkpt lat="42.53499833" lon="-8.01234833">
        <ele>653.0</ele>
        <time>2018-10-03T11:53:14.000Z</time>
      </trkpt>
      <trkpt lat="42.53500667" lon="-8.01235833">
        <ele>653.0</ele>
        <time>2018-10-03T11:53:15.000Z</time>
      </trkpt>
      <trkpt lat="42.535015" lon="-8.01236833">
        <ele>653.0</ele>
        <time>2018-10-03T11:53:16.000Z</time>
      </trkpt>
      <trkpt lat="42.535025" lon="-8.01238">
        <ele>654.0</ele>
        <time>2018-10-03T11:53:17.000Z</time>
      </trkpt>
      <trkpt lat="42.53503333" lon="-8.01239167">
        <ele>654.0</ele>
        <time>2018-10-03T11:53:18.000Z</time>
      </trkpt>
      <trkpt lat="42.53504333" lon="-8.012405">
        <ele>654.0</ele>
        <time>2018-10-03T11:53:19.000Z</time>
      </trkpt>
      <trkpt lat="42.535055" lon="-8.01241667">
        <ele>654.0</ele>
        <time>2018-10-03T11:53:20.000Z</time>
      </trkpt>
      <trkpt lat="42.535065" lon="-8.01243">
        <ele>654.0</ele>
        <time>2018-10-03T11:53:21.000Z</time>
      </trkpt>
      <trkpt lat="42.535075" lon="-8.01244">
        <ele>655.0</ele>
        <time>2018-10-03T11:53:22.000Z</time>
      </trkpt>
      <trkpt lat="42.535085" lon="-8.01245167">
        <ele>655.0</ele>
        <time>2018-10-03T11:53:23.000Z</time>
      </trkpt>
      <trkpt lat="42.535095" lon="-8.01246167">
        <ele>655.0</ele>
        <time>2018-10-03T11:53:24.000Z</time>
      </trkpt>
      <trkpt lat="42.535105" lon="-8.01247167">
        <ele>655.0</ele>
        <time>2018-10-03T11:53:25.000Z</time>
      </trkpt>
      <trkpt lat="42.535115" lon="-8.01248333">
        <ele>656.0</ele>
        <time>2018-10-03T11:53:26.000Z</time>
      </trkpt>
      <trkpt lat="42.53512667" lon="-8.01249167">
        <ele>656.0</ele>
        <time>2018-10-03T11:53:27.000Z</time>
      </trkpt>
      <trkpt lat="42.53513667" lon="-8.01250167">
        <ele>656.0</ele>
        <time>2018-10-03T11:53:28.000Z</time>
      </trkpt>
      <trkpt lat="42.53514667" lon="-8.01251">
        <ele>656.0</ele>
        <time>2018-10-03T11:53:29.000Z</time>
      </trkpt>
      <trkpt lat="42.53515667" lon="-8.01251833">
        <ele>656.0</ele>
        <time>2018-10-03T11:53:30.000Z</time>
      </trkpt>
      <trkpt lat="42.535165" lon="-8.01253">
        <ele>656.0</ele>
        <time>2018-10-03T11:53:31.000Z</time>
      </trkpt>
      <trkpt lat="42.535175" lon="-8.01254">
        <ele>657.0</ele>
        <time>2018-10-03T11:53:32.000Z</time>
      </trkpt>
      <trkpt lat="42.535185" lon="-8.01255">
        <ele>657.0</ele>
        <time>2018-10-03T11:53:33.000Z</time>
      </trkpt>
      <trkpt lat="42.53519167" lon="-8.01256167">
        <ele>657.0</ele>
        <time>2018-10-03T11:53:34.000Z</time>
      </trkpt>
      <trkpt lat="42.53519833" lon="-8.01257333">
        <ele>657.0</ele>
        <time>2018-10-03T11:53:35.000Z</time>
      </trkpt>
      <trkpt lat="42.53520667" lon="-8.012585">
        <ele>657.0</ele>
        <time>2018-10-03T11:53:36.000Z</time>
      </trkpt>
      <trkpt lat="42.53521333" lon="-8.01259833">
        <ele>657.0</ele>
        <time>2018-10-03T11:53:37.000Z</time>
      </trkpt>
      <trkpt lat="42.53522167" lon="-8.01260667">
        <ele>657.0</ele>
        <time>2018-10-03T11:53:38.000Z</time>
      </trkpt>
      <trkpt lat="42.53522667" lon="-8.01261667">
        <ele>658.0</ele>
        <time>2018-10-03T11:53:39.000Z</time>
      </trkpt>
      <trkpt lat="42.53523" lon="-8.01262667">
        <ele>658.0</ele>
        <time>2018-10-03T11:53:40.000Z</time>
      </trkpt>
      <trkpt lat="42.53523667" lon="-8.01263833">
        <ele>658.0</ele>
        <time>2018-10-03T11:53:41.000Z</time>
      </trkpt>
      <trkpt lat="42.53524167" lon="-8.01264833">
        <ele>658.0</ele>
        <time>2018-10-03T11:53:42.000Z</time>
      </trkpt>
      <trkpt lat="42.53524833" lon="-8.01265667">
        <ele>658.0</ele>
        <time>2018-10-03T11:53:43.000Z</time>
      </trkpt>
      <trkpt lat="42.53525167" lon="-8.012665">
        <ele>658.0</ele>
        <time>2018-10-03T11:53:44.000Z</time>
      </trkpt>
      <trkpt lat="42.535255" lon="-8.012675">
        <ele>659.0</ele>
        <time>2018-10-03T11:53:45.000Z</time>
      </trkpt>
      <trkpt lat="42.53526167" lon="-8.01268333">
        <ele>659.0</ele>
        <time>2018-10-03T11:53:46.000Z</time>
      </trkpt>
      <trkpt lat="42.53526833" lon="-8.01269333">
        <ele>659.0</ele>
        <time>2018-10-03T11:53:47.000Z</time>
      </trkpt>
      <trkpt lat="42.53527667" lon="-8.01270333">
        <ele>659.0</ele>
        <time>2018-10-03T11:53:48.000Z</time>
      </trkpt>
      <trkpt lat="42.535285" lon="-8.01271333">
        <ele>659.0</ele>
        <time>2018-10-03T11:53:49.000Z</time>
      </trkpt>
      <trkpt lat="42.535295" lon="-8.01272333">
        <ele>659.0</ele>
        <time>2018-10-03T11:53:50.000Z</time>
      </trkpt>
      <trkpt lat="42.53530333" lon="-8.012735">
        <ele>660.0</ele>
        <time>2018-10-03T11:53:51.000Z</time>
      </trkpt>
      <trkpt lat="42.53530833" lon="-8.012745">
        <ele>660.0</ele>
        <time>2018-10-03T11:53:52.000Z</time>
      </trkpt>
      <trkpt lat="42.535315" lon="-8.012755">
        <ele>660.0</ele>
        <time>2018-10-03T11:53:53.000Z</time>
      </trkpt>
      <trkpt lat="42.53532167" lon="-8.012765">
        <ele>660.0</ele>
        <time>2018-10-03T11:53:54.000Z</time>
      </trkpt>
      <trkpt lat="42.53533" lon="-8.01277333">
        <ele>660.0</ele>
        <time>2018-10-03T11:53:55.000Z</time>
      </trkpt>
      <trkpt lat="42.53533833" lon="-8.01278">
        <ele>660.0</ele>
        <time>2018-10-03T11:53:56.000Z</time>
      </trkpt>
      <trkpt lat="42.535345" lon="-8.01278667">
        <ele>660.0</ele>
        <time>2018-10-03T11:53:57.000Z</time>
      </trkpt>
      <trkpt lat="42.53535167" lon="-8.01279667">
        <ele>660.0</ele>
        <time>2018-10-03T11:53:58.000Z</time>
      </trkpt>
      <trkpt lat="42.53535667" lon="-8.01280833">
        <ele>660.0</ele>
        <time>2018-10-03T11:53:59.000Z</time>
      </trkpt>
      <trkpt lat="42.53536333" lon="-8.01281667">
        <ele>660.0</ele>
        <time>2018-10-03T11:54:00.000Z</time>
      </trkpt>
      <trkpt lat="42.53537333" lon="-8.01283">
        <ele>660.0</ele>
        <time>2018-10-03T11:54:01.000Z</time>
      </trkpt>
      <trkpt lat="42.53538167" lon="-8.01284333">
        <ele>660.0</ele>
        <time>2018-10-03T11:54:02.000Z</time>
      </trkpt>
      <trkpt lat="42.53539167" lon="-8.01285667">
        <ele>660.0</ele>
        <time>2018-10-03T11:54:03.000Z</time>
      </trkpt>
      <trkpt lat="42.53539833" lon="-8.01286667">
        <ele>660.0</ele>
        <time>2018-10-03T11:54:04.000Z</time>
      </trkpt>
      <trkpt lat="42.535405" lon="-8.01287833">
        <ele>661.0</ele>
        <time>2018-10-03T11:54:05.000Z</time>
      </trkpt>
      <trkpt lat="42.53541333" lon="-8.01288833">
        <ele>661.0</ele>
        <time>2018-10-03T11:54:06.000Z</time>
      </trkpt>
      <trkpt lat="42.53542" lon="-8.01290167">
        <ele>661.0</ele>
        <time>2018-10-03T11:54:07.000Z</time>
      </trkpt>
      <trkpt lat="42.53542667" lon="-8.01291333">
        <ele>661.0</ele>
        <time>2018-10-03T11:54:08.000Z</time>
      </trkpt>
      <trkpt lat="42.53543333" lon="-8.012925">
        <ele>661.0</ele>
        <time>2018-10-03T11:54:09.000Z</time>
      </trkpt>
      <trkpt lat="42.53544" lon="-8.01293667">
        <ele>661.0</ele>
        <time>2018-10-03T11:54:10.000Z</time>
      </trkpt>
      <trkpt lat="42.53544667" lon="-8.01295">
        <ele>662.0</ele>
        <time>2018-10-03T11:54:11.000Z</time>
      </trkpt>
      <trkpt lat="42.53545333" lon="-8.01296667">
        <ele>662.0</ele>
        <time>2018-10-03T11:54:12.000Z</time>
      </trkpt>
      <trkpt lat="42.53545833" lon="-8.01298333">
        <ele>662.0</ele>
        <time>2018-10-03T11:54:13.000Z</time>
      </trkpt>
      <trkpt lat="42.535465" lon="-8.01299667">
        <ele>663.0</ele>
        <time>2018-10-03T11:54:14.000Z</time>
      </trkpt>
      <trkpt lat="42.53547333" lon="-8.01301">
        <ele>663.0</ele>
        <time>2018-10-03T11:54:15.000Z</time>
      </trkpt>
      <trkpt lat="42.53548" lon="-8.01302333">
        <ele>663.0</ele>
        <time>2018-10-03T11:54:16.000Z</time>
      </trkpt>
      <trkpt lat="42.53548667" lon="-8.01303833">
        <ele>663.0</ele>
        <time>2018-10-03T11:54:17.000Z</time>
      </trkpt>
      <trkpt lat="42.535495" lon="-8.01305167">
        <ele>664.0</ele>
        <time>2018-10-03T11:54:18.000Z</time>
      </trkpt>
      <trkpt lat="42.53550167" lon="-8.01306333">
        <ele>664.0</ele>
        <time>2018-10-03T11:54:19.000Z</time>
      </trkpt>
      <trkpt lat="42.53551" lon="-8.013075">
        <ele>664.0</ele>
        <time>2018-10-03T11:54:20.000Z</time>
      </trkpt>
      <trkpt lat="42.53551833" lon="-8.01308667">
        <ele>664.0</ele>
        <time>2018-10-03T11:54:21.000Z</time>
      </trkpt>
      <trkpt lat="42.53552667" lon="-8.0131">
        <ele>664.0</ele>
        <time>2018-10-03T11:54:22.000Z</time>
      </trkpt>
      <trkpt lat="42.535535" lon="-8.01311">
        <ele>664.0</ele>
        <time>2018-10-03T11:54:23.000Z</time>
      </trkpt>
      <trkpt lat="42.535545" lon="-8.01312">
        <ele>664.0</ele>
        <time>2018-10-03T11:54:24.000Z</time>
      </trkpt>
      <trkpt lat="42.53555167" lon="-8.01312833">
        <ele>664.0</ele>
        <time>2018-10-03T11:54:25.000Z</time>
      </trkpt>
      <trkpt lat="42.53556" lon="-8.01313833">
        <ele>664.0</ele>
        <time>2018-10-03T11:54:26.000Z</time>
      </trkpt>
      <trkpt lat="42.53556667" lon="-8.01314667">
        <ele>665.0</ele>
        <time>2018-10-03T11:54:27.000Z</time>
      </trkpt>
      <trkpt lat="42.535575" lon="-8.013155">
        <ele>665.0</ele>
        <time>2018-10-03T11:54:28.000Z</time>
      </trkpt>
      <trkpt lat="42.53558333" lon="-8.01316167">
        <ele>665.0</ele>
        <time>2018-10-03T11:54:29.000Z</time>
      </trkpt>
      <trkpt lat="42.53559333" lon="-8.01317167">
        <ele>665.0</ele>
        <time>2018-10-03T11:54:30.000Z</time>
      </trkpt>
      <trkpt lat="42.53560333" lon="-8.01318167">
        <ele>665.0</ele>
        <time>2018-10-03T11:54:31.000Z</time>
      </trkpt>
      <trkpt lat="42.53561333" lon="-8.01319333">
        <ele>665.0</ele>
        <time>2018-10-03T11:54:32.000Z</time>
      </trkpt>
      <trkpt lat="42.53562333" lon="-8.01320667">
        <ele>665.0</ele>
        <time>2018-10-03T11:54:33.000Z</time>
      </trkpt>
      <trkpt lat="42.53563167" lon="-8.01322">
        <ele>666.0</ele>
        <time>2018-10-03T11:54:34.000Z</time>
      </trkpt>
      <trkpt lat="42.53564" lon="-8.01322833">
        <ele>666.0</ele>
        <time>2018-10-03T11:54:35.000Z</time>
      </trkpt>
      <trkpt lat="42.535645" lon="-8.01323833">
        <ele>666.0</ele>
        <time>2018-10-03T11:54:36.000Z</time>
      </trkpt>
      <trkpt lat="42.53565" lon="-8.01324833">
        <ele>666.0</ele>
        <time>2018-10-03T11:54:37.000Z</time>
      </trkpt>
      <trkpt lat="42.53565667" lon="-8.01326">
        <ele>666.0</ele>
        <time>2018-10-03T11:54:38.000Z</time>
      </trkpt>
      <trkpt lat="42.53566" lon="-8.01327">
        <ele>666.0</ele>
        <time>2018-10-03T11:54:39.000Z</time>
      </trkpt>
      <trkpt lat="42.53566167" lon="-8.01327333">
        <ele>666.0</ele>
        <time>2018-10-03T11:54:40.000Z</time>
      </trkpt>
      <trkpt lat="42.53566167" lon="-8.01327667">
        <ele>667.0</ele>
        <time>2018-10-03T11:54:41.000Z</time>
      </trkpt>
      <trkpt lat="42.53566333" lon="-8.01328">
        <ele>667.0</ele>
        <time>2018-10-03T11:54:42.000Z</time>
      </trkpt>
      <trkpt lat="42.535665" lon="-8.013285">
        <ele>667.0</ele>
        <time>2018-10-03T11:54:43.000Z</time>
      </trkpt>
      <trkpt lat="42.535665" lon="-8.01329167">
        <ele>667.0</ele>
        <time>2018-10-03T11:54:44.000Z</time>
      </trkpt>
      <trkpt lat="42.53566667" lon="-8.01329833">
        <ele>667.0</ele>
        <time>2018-10-03T11:54:45.000Z</time>
      </trkpt>
      <trkpt lat="42.53566833" lon="-8.01330667">
        <ele>668.0</ele>
        <time>2018-10-03T11:54:46.000Z</time>
      </trkpt>
      <trkpt lat="42.53567333" lon="-8.01331833">
        <ele>668.0</ele>
        <time>2018-10-03T11:54:47.000Z</time>
      </trkpt>
      <trkpt lat="42.53567667" lon="-8.01332833">
        <ele>668.0</ele>
        <time>2018-10-03T11:54:48.000Z</time>
      </trkpt>
      <trkpt lat="42.53568167" lon="-8.01334">
        <ele>668.0</ele>
        <time>2018-10-03T11:54:49.000Z</time>
      </trkpt>
      <trkpt lat="42.535685" lon="-8.01335333">
        <ele>669.0</ele>
        <time>2018-10-03T11:54:50.000Z</time>
      </trkpt>
      <trkpt lat="42.53568833" lon="-8.01336333">
        <ele>669.0</ele>
        <time>2018-10-03T11:54:51.000Z</time>
      </trkpt>
      <trkpt lat="42.53569333" lon="-8.013375">
        <ele>669.0</ele>
        <time>2018-10-03T11:54:52.000Z</time>
      </trkpt>
      <trkpt lat="42.53569833" lon="-8.01338667">
        <ele>670.0</ele>
        <time>2018-10-03T11:54:53.000Z</time>
      </trkpt>
      <trkpt lat="42.53570333" lon="-8.01339833">
        <ele>670.0</ele>
        <time>2018-10-03T11:54:54.000Z</time>
      </trkpt>
      <trkpt lat="42.53571" lon="-8.01341">
        <ele>670.0</ele>
        <time>2018-10-03T11:54:55.000Z</time>
      </trkpt>
      <trkpt lat="42.535715" lon="-8.013425">
        <ele>670.0</ele>
        <time>2018-10-03T11:54:56.000Z</time>
      </trkpt>
      <trkpt lat="42.53572" lon="-8.01344167">
        <ele>670.0</ele>
        <time>2018-10-03T11:54:57.000Z</time>
      </trkpt>
      <trkpt lat="42.53572333" lon="-8.013455">
        <ele>671.0</ele>
        <time>2018-10-03T11:54:58.000Z</time>
      </trkpt>
      <trkpt lat="42.53572833" lon="-8.01347">
        <ele>671.0</ele>
        <time>2018-10-03T11:54:59.000Z</time>
      </trkpt>
      <trkpt lat="42.53573167" lon="-8.01348667">
        <ele>671.0</ele>
        <time>2018-10-03T11:55:00.000Z</time>
      </trkpt>
      <trkpt lat="42.53573667" lon="-8.01349833">
        <ele>671.0</ele>
        <time>2018-10-03T11:55:01.000Z</time>
      </trkpt>
      <trkpt lat="42.53573833" lon="-8.01351">
        <ele>672.0</ele>
        <time>2018-10-03T11:55:02.000Z</time>
      </trkpt>
      <trkpt lat="42.535745" lon="-8.01352">
        <ele>672.0</ele>
        <time>2018-10-03T11:55:03.000Z</time>
      </trkpt>
      <trkpt lat="42.53575167" lon="-8.01352833">
        <ele>673.0</ele>
        <time>2018-10-03T11:55:04.000Z</time>
      </trkpt>
      <trkpt lat="42.53575833" lon="-8.01353833">
        <ele>673.0</ele>
        <time>2018-10-03T11:55:05.000Z</time>
      </trkpt>
      <trkpt lat="42.53576667" lon="-8.01355167">
        <ele>673.0</ele>
        <time>2018-10-03T11:55:06.000Z</time>
      </trkpt>
      <trkpt lat="42.53577167" lon="-8.01356667">
        <ele>674.0</ele>
        <time>2018-10-03T11:55:07.000Z</time>
      </trkpt>
      <trkpt lat="42.53577667" lon="-8.013585">
        <ele>674.0</ele>
        <time>2018-10-03T11:55:08.000Z</time>
      </trkpt>
      <trkpt lat="42.53578333" lon="-8.01360167">
        <ele>675.0</ele>
        <time>2018-10-03T11:55:09.000Z</time>
      </trkpt>
      <trkpt lat="42.53579167" lon="-8.01361833">
        <ele>675.0</ele>
        <time>2018-10-03T11:55:10.000Z</time>
      </trkpt>
      <trkpt lat="42.53579833" lon="-8.01363333">
        <ele>675.0</ele>
        <time>2018-10-03T11:55:11.000Z</time>
      </trkpt>
      <trkpt lat="42.535805" lon="-8.01364667">
        <ele>676.0</ele>
        <time>2018-10-03T11:55:12.000Z</time>
      </trkpt>
      <trkpt lat="42.53580667" lon="-8.01365167">
        <ele>676.0</ele>
        <time>2018-10-03T11:55:13.000Z</time>
      </trkpt>
      <trkpt lat="42.53581" lon="-8.01365833">
        <ele>676.0</ele>
        <time>2018-10-03T11:55:14.000Z</time>
      </trkpt>
      <trkpt lat="42.53581667" lon="-8.01366833">
        <ele>677.0</ele>
        <time>2018-10-03T11:55:15.000Z</time>
      </trkpt>
      <trkpt lat="42.535825" lon="-8.01368">
        <ele>677.0</ele>
        <time>2018-10-03T11:55:16.000Z</time>
      </trkpt>
      <trkpt lat="42.53583333" lon="-8.01369167">
        <ele>677.0</ele>
        <time>2018-10-03T11:55:17.000Z</time>
      </trkpt>
      <trkpt lat="42.53584" lon="-8.013705">
        <ele>677.0</ele>
        <time>2018-10-03T11:55:18.000Z</time>
      </trkpt>
      <trkpt lat="42.53584667" lon="-8.01371833">
        <ele>677.0</ele>
        <time>2018-10-03T11:55:19.000Z</time>
      </trkpt>
      <trkpt lat="42.53585167" lon="-8.01372833">
        <ele>678.0</ele>
        <time>2018-10-03T11:55:20.000Z</time>
      </trkpt>
      <trkpt lat="42.53585667" lon="-8.01373667">
        <ele>678.0</ele>
        <time>2018-10-03T11:55:21.000Z</time>
      </trkpt>
      <trkpt lat="42.53586167" lon="-8.01374667">
        <ele>678.0</ele>
        <time>2018-10-03T11:55:22.000Z</time>
      </trkpt>
      <trkpt lat="42.53586667" lon="-8.01376333">
        <ele>678.0</ele>
        <time>2018-10-03T11:55:23.000Z</time>
      </trkpt>
      <trkpt lat="42.53587167" lon="-8.01378">
        <ele>678.0</ele>
        <time>2018-10-03T11:55:24.000Z</time>
      </trkpt>
      <trkpt lat="42.53587667" lon="-8.01379667">
        <ele>678.0</ele>
        <time>2018-10-03T11:55:25.000Z</time>
      </trkpt>
      <trkpt lat="42.53588333" lon="-8.01381333">
        <ele>678.0</ele>
        <time>2018-10-03T11:55:26.000Z</time>
      </trkpt>
      <trkpt lat="42.53589" lon="-8.01383">
        <ele>679.0</ele>
        <time>2018-10-03T11:55:27.000Z</time>
      </trkpt>
      <trkpt lat="42.53589833" lon="-8.01384833">
        <ele>679.0</ele>
        <time>2018-10-03T11:55:28.000Z</time>
      </trkpt>
      <trkpt lat="42.535905" lon="-8.013865">
        <ele>679.0</ele>
        <time>2018-10-03T11:55:29.000Z</time>
      </trkpt>
      <trkpt lat="42.53591167" lon="-8.01387833">
        <ele>679.0</ele>
        <time>2018-10-03T11:55:30.000Z</time>
      </trkpt>
      <trkpt lat="42.53591833" lon="-8.01389667">
        <ele>680.0</ele>
        <time>2018-10-03T11:55:31.000Z</time>
      </trkpt>
      <trkpt lat="42.535925" lon="-8.013915">
        <ele>680.0</ele>
        <time>2018-10-03T11:55:32.000Z</time>
      </trkpt>
      <trkpt lat="42.53593" lon="-8.01393333">
        <ele>680.0</ele>
        <time>2018-10-03T11:55:33.000Z</time>
      </trkpt>
      <trkpt lat="42.53593333" lon="-8.01394833">
        <ele>680.0</ele>
        <time>2018-10-03T11:55:34.000Z</time>
      </trkpt>
      <trkpt lat="42.53594" lon="-8.01396333">
        <ele>680.0</ele>
        <time>2018-10-03T11:55:35.000Z</time>
      </trkpt>
      <trkpt lat="42.53594333" lon="-8.01398">
        <ele>681.0</ele>
        <time>2018-10-03T11:55:36.000Z</time>
      </trkpt>
      <trkpt lat="42.53594667" lon="-8.01399667">
        <ele>681.0</ele>
        <time>2018-10-03T11:55:37.000Z</time>
      </trkpt>
      <trkpt lat="42.53594833" lon="-8.01401667">
        <ele>681.0</ele>
        <time>2018-10-03T11:55:38.000Z</time>
      </trkpt>
      <trkpt lat="42.53595167" lon="-8.01403833">
        <ele>681.0</ele>
        <time>2018-10-03T11:55:39.000Z</time>
      </trkpt>
      <trkpt lat="42.53595333" lon="-8.01406">
        <ele>681.0</ele>
        <time>2018-10-03T11:55:40.000Z</time>
      </trkpt>
      <trkpt lat="42.53595667" lon="-8.01408">
        <ele>681.0</ele>
        <time>2018-10-03T11:55:41.000Z</time>
      </trkpt>
      <trkpt lat="42.53596" lon="-8.01410167">
        <ele>681.0</ele>
        <time>2018-10-03T11:55:42.000Z</time>
      </trkpt>
      <trkpt lat="42.53596667" lon="-8.01412167">
        <ele>681.0</ele>
        <time>2018-10-03T11:55:43.000Z</time>
      </trkpt>
      <trkpt lat="42.53597167" lon="-8.01414667">
        <ele>682.0</ele>
        <time>2018-10-03T11:55:44.000Z</time>
      </trkpt>
      <trkpt lat="42.53597833" lon="-8.01417">
        <ele>682.0</ele>
        <time>2018-10-03T11:55:45.000Z</time>
      </trkpt>
      <trkpt lat="42.53598333" lon="-8.01419667">
        <ele>682.0</ele>
        <time>2018-10-03T11:55:46.000Z</time>
      </trkpt>
      <trkpt lat="42.53598833" lon="-8.01421833">
        <ele>682.0</ele>
        <time>2018-10-03T11:55:47.000Z</time>
      </trkpt>
      <trkpt lat="42.53599333" lon="-8.01424">
        <ele>682.0</ele>
        <time>2018-10-03T11:55:48.000Z</time>
      </trkpt>
      <trkpt lat="42.535995" lon="-8.01426">
        <ele>682.0</ele>
        <time>2018-10-03T11:55:49.000Z</time>
      </trkpt>
      <trkpt lat="42.53599667" lon="-8.01428167">
        <ele>682.0</ele>
        <time>2018-10-03T11:55:50.000Z</time>
      </trkpt>
      <trkpt lat="42.536" lon="-8.01429833">
        <ele>682.0</ele>
        <time>2018-10-03T11:55:51.000Z</time>
      </trkpt>
      <trkpt lat="42.53600667" lon="-8.01431333">
        <ele>682.0</ele>
        <time>2018-10-03T11:55:52.000Z</time>
      </trkpt>
      <trkpt lat="42.53601167" lon="-8.01433">
        <ele>682.0</ele>
        <time>2018-10-03T11:55:53.000Z</time>
      </trkpt>
      <trkpt lat="42.53601833" lon="-8.01434667">
        <ele>682.0</ele>
        <time>2018-10-03T11:55:54.000Z</time>
      </trkpt>
      <trkpt lat="42.53602667" lon="-8.01436167">
        <ele>682.0</ele>
        <time>2018-10-03T11:55:55.000Z</time>
      </trkpt>
      <trkpt lat="42.53603667" lon="-8.01437667">
        <ele>682.0</ele>
        <time>2018-10-03T11:55:56.000Z</time>
      </trkpt>
      <trkpt lat="42.53604833" lon="-8.01438833">
        <ele>681.0</ele>
        <time>2018-10-03T11:55:57.000Z</time>
      </trkpt>
      <trkpt lat="42.53606" lon="-8.0144">
        <ele>681.0</ele>
        <time>2018-10-03T11:55:58.000Z</time>
      </trkpt>
      <trkpt lat="42.53607333" lon="-8.01441">
        <ele>681.0</ele>
        <time>2018-10-03T11:55:59.000Z</time>
      </trkpt>
      <trkpt lat="42.53608833" lon="-8.01442167">
        <ele>681.0</ele>
        <time>2018-10-03T11:56:00.000Z</time>
      </trkpt>
      <trkpt lat="42.53610333" lon="-8.01443">
        <ele>681.0</ele>
        <time>2018-10-03T11:56:01.000Z</time>
      </trkpt>
      <trkpt lat="42.53611833" lon="-8.01443833">
        <ele>681.0</ele>
        <time>2018-10-03T11:56:02.000Z</time>
      </trkpt>
      <trkpt lat="42.53613167" lon="-8.01444667">
        <ele>681.0</ele>
        <time>2018-10-03T11:56:03.000Z</time>
      </trkpt>
      <trkpt lat="42.53614667" lon="-8.014455">
        <ele>681.0</ele>
        <time>2018-10-03T11:56:04.000Z</time>
      </trkpt>
      <trkpt lat="42.53616167" lon="-8.01446">
        <ele>681.0</ele>
        <time>2018-10-03T11:56:05.000Z</time>
      </trkpt>
      <trkpt lat="42.536175" lon="-8.014465">
        <ele>681.0</ele>
        <time>2018-10-03T11:56:06.000Z</time>
      </trkpt>
      <trkpt lat="42.53618667" lon="-8.01447167">
        <ele>681.0</ele>
        <time>2018-10-03T11:56:07.000Z</time>
      </trkpt>
      <trkpt lat="42.5362" lon="-8.014475">
        <ele>681.0</ele>
        <time>2018-10-03T11:56:08.000Z</time>
      </trkpt>
      <trkpt lat="42.53621333" lon="-8.01448">
        <ele>681.0</ele>
        <time>2018-10-03T11:56:09.000Z</time>
      </trkpt>
      <trkpt lat="42.53622667" lon="-8.014485">
        <ele>682.0</ele>
        <time>2018-10-03T11:56:10.000Z</time>
      </trkpt>
      <trkpt lat="42.53624167" lon="-8.01449">
        <ele>682.0</ele>
        <time>2018-10-03T11:56:11.000Z</time>
      </trkpt>
      <trkpt lat="42.53625667" lon="-8.01449333">
        <ele>682.0</ele>
        <time>2018-10-03T11:56:12.000Z</time>
      </trkpt>
      <trkpt lat="42.53627" lon="-8.01449833">
        <ele>682.0</ele>
        <time>2018-10-03T11:56:13.000Z</time>
      </trkpt>
      <trkpt lat="42.536285" lon="-8.01450333">
        <ele>682.0</ele>
        <time>2018-10-03T11:56:14.000Z</time>
      </trkpt>
      <trkpt lat="42.5363" lon="-8.01451">
        <ele>682.0</ele>
        <time>2018-10-03T11:56:15.000Z</time>
      </trkpt>
      <trkpt lat="42.53631333" lon="-8.01451833">
        <ele>682.0</ele>
        <time>2018-10-03T11:56:16.000Z</time>
      </trkpt>
      <trkpt lat="42.53632833" lon="-8.01452167">
        <ele>682.0</ele>
        <time>2018-10-03T11:56:17.000Z</time>
      </trkpt>
      <trkpt lat="42.536345" lon="-8.01452333">
        <ele>682.0</ele>
        <time>2018-10-03T11:56:18.000Z</time>
      </trkpt>
      <trkpt lat="42.53636" lon="-8.01452667">
        <ele>682.0</ele>
        <time>2018-10-03T11:56:19.000Z</time>
      </trkpt>
      <trkpt lat="42.536375" lon="-8.01453">
        <ele>682.0</ele>
        <time>2018-10-03T11:56:20.000Z</time>
      </trkpt>
      <trkpt lat="42.53639" lon="-8.014535">
        <ele>682.0</ele>
        <time>2018-10-03T11:56:21.000Z</time>
      </trkpt>
      <trkpt lat="42.536405" lon="-8.01454">
        <ele>682.0</ele>
        <time>2018-10-03T11:56:22.000Z</time>
      </trkpt>
      <trkpt lat="42.53641667" lon="-8.014545">
        <ele>682.0</ele>
        <time>2018-10-03T11:56:23.000Z</time>
      </trkpt>
      <trkpt lat="42.53643" lon="-8.01455">
        <ele>683.0</ele>
        <time>2018-10-03T11:56:24.000Z</time>
      </trkpt>
      <trkpt lat="42.53644333" lon="-8.01455667">
        <ele>683.0</ele>
        <time>2018-10-03T11:56:25.000Z</time>
      </trkpt>
      <trkpt lat="42.53645333" lon="-8.01456167">
        <ele>683.0</ele>
        <time>2018-10-03T11:56:26.000Z</time>
      </trkpt>
      <trkpt lat="42.536465" lon="-8.01456333">
        <ele>683.0</ele>
        <time>2018-10-03T11:56:27.000Z</time>
      </trkpt>
      <trkpt lat="42.53647667" lon="-8.01456667">
        <ele>683.0</ele>
        <time>2018-10-03T11:56:28.000Z</time>
      </trkpt>
      <trkpt lat="42.53648833" lon="-8.01457">
        <ele>683.0</ele>
        <time>2018-10-03T11:56:29.000Z</time>
      </trkpt>
      <trkpt lat="42.5365" lon="-8.01457333">
        <ele>683.0</ele>
        <time>2018-10-03T11:56:30.000Z</time>
      </trkpt>
      <trkpt lat="42.53651167" lon="-8.014575">
        <ele>683.0</ele>
        <time>2018-10-03T11:56:31.000Z</time>
      </trkpt>
      <trkpt lat="42.53652333" lon="-8.01458">
        <ele>683.0</ele>
        <time>2018-10-03T11:56:32.000Z</time>
      </trkpt>
      <trkpt lat="42.536535" lon="-8.01458333">
        <ele>683.0</ele>
        <time>2018-10-03T11:56:33.000Z</time>
      </trkpt>
      <trkpt lat="42.53654667" lon="-8.01458833">
        <ele>683.0</ele>
        <time>2018-10-03T11:56:34.000Z</time>
      </trkpt>
      <trkpt lat="42.53655833" lon="-8.01459333">
        <ele>683.0</ele>
        <time>2018-10-03T11:56:35.000Z</time>
      </trkpt>
      <trkpt lat="42.53657" lon="-8.01459833">
        <ele>683.0</ele>
        <time>2018-10-03T11:56:36.000Z</time>
      </trkpt>
      <trkpt lat="42.53658167" lon="-8.01460167">
        <ele>683.0</ele>
        <time>2018-10-03T11:56:37.000Z</time>
      </trkpt>
      <trkpt lat="42.536595" lon="-8.01460667">
        <ele>684.0</ele>
        <time>2018-10-03T11:56:38.000Z</time>
      </trkpt>
      <trkpt lat="42.53660667" lon="-8.01461333">
        <ele>684.0</ele>
        <time>2018-10-03T11:56:39.000Z</time>
      </trkpt>
      <trkpt lat="42.53661833" lon="-8.01461833">
        <ele>684.0</ele>
        <time>2018-10-03T11:56:40.000Z</time>
      </trkpt>
      <trkpt lat="42.53663167" lon="-8.01462333">
        <ele>684.0</ele>
        <time>2018-10-03T11:56:41.000Z</time>
      </trkpt>
      <trkpt lat="42.53664333" lon="-8.01463">
        <ele>685.0</ele>
        <time>2018-10-03T11:56:42.000Z</time>
      </trkpt>
      <trkpt lat="42.536655" lon="-8.01463833">
        <ele>685.0</ele>
        <time>2018-10-03T11:56:43.000Z</time>
      </trkpt>
      <trkpt lat="42.53666667" lon="-8.01464333">
        <ele>685.0</ele>
        <time>2018-10-03T11:56:44.000Z</time>
      </trkpt>
      <trkpt lat="42.536675" lon="-8.01464833">
        <ele>685.0</ele>
        <time>2018-10-03T11:56:45.000Z</time>
      </trkpt>
      <trkpt lat="42.53668667" lon="-8.01465333">
        <ele>685.0</ele>
        <time>2018-10-03T11:56:46.000Z</time>
      </trkpt>
      <trkpt lat="42.53669667" lon="-8.01465667">
        <ele>686.0</ele>
        <time>2018-10-03T11:56:47.000Z</time>
      </trkpt>
      <trkpt lat="42.53670667" lon="-8.01466167">
        <ele>686.0</ele>
        <time>2018-10-03T11:56:48.000Z</time>
      </trkpt>
      <trkpt lat="42.536715" lon="-8.01466667">
        <ele>686.0</ele>
        <time>2018-10-03T11:56:49.000Z</time>
      </trkpt>
      <trkpt lat="42.536725" lon="-8.01467">
        <ele>686.0</ele>
        <time>2018-10-03T11:56:50.000Z</time>
      </trkpt>
      <trkpt lat="42.536735" lon="-8.014675">
        <ele>686.0</ele>
        <time>2018-10-03T11:56:51.000Z</time>
      </trkpt>
      <trkpt lat="42.536745" lon="-8.01468167">
        <ele>687.0</ele>
        <time>2018-10-03T11:56:52.000Z</time>
      </trkpt>
      <trkpt lat="42.536755" lon="-8.01468667">
        <ele>687.0</ele>
        <time>2018-10-03T11:56:53.000Z</time>
      </trkpt>
      <trkpt lat="42.53676667" lon="-8.01469167">
        <ele>687.0</ele>
        <time>2018-10-03T11:56:54.000Z</time>
      </trkpt>
      <trkpt lat="42.53677667" lon="-8.01469667">
        <ele>687.0</ele>
        <time>2018-10-03T11:56:55.000Z</time>
      </trkpt>
      <trkpt lat="42.53678667" lon="-8.01470167">
        <ele>687.0</ele>
        <time>2018-10-03T11:56:56.000Z</time>
      </trkpt>
      <trkpt lat="42.53679667" lon="-8.01470667">
        <ele>688.0</ele>
        <time>2018-10-03T11:56:57.000Z</time>
      </trkpt>
      <trkpt lat="42.53680667" lon="-8.014715">
        <ele>688.0</ele>
        <time>2018-10-03T11:56:58.000Z</time>
      </trkpt>
      <trkpt lat="42.53681833" lon="-8.01472167">
        <ele>688.0</ele>
        <time>2018-10-03T11:56:59.000Z</time>
      </trkpt>
      <trkpt lat="42.53683" lon="-8.01472667">
        <ele>688.0</ele>
        <time>2018-10-03T11:57:00.000Z</time>
      </trkpt>
      <trkpt lat="42.53684" lon="-8.01473">
        <ele>688.0</ele>
        <time>2018-10-03T11:57:01.000Z</time>
      </trkpt>
      <trkpt lat="42.53685167" lon="-8.014735">
        <ele>689.0</ele>
        <time>2018-10-03T11:57:02.000Z</time>
      </trkpt>
      <trkpt lat="42.53686333" lon="-8.01473833">
        <ele>689.0</ele>
        <time>2018-10-03T11:57:03.000Z</time>
      </trkpt>
      <trkpt lat="42.536875" lon="-8.014745">
        <ele>689.0</ele>
        <time>2018-10-03T11:57:04.000Z</time>
      </trkpt>
      <trkpt lat="42.53688333" lon="-8.01475167">
        <ele>689.0</ele>
        <time>2018-10-03T11:57:05.000Z</time>
      </trkpt>
      <trkpt lat="42.53689667" lon="-8.01476167">
        <ele>689.0</ele>
        <time>2018-10-03T11:57:06.000Z</time>
      </trkpt>
      <trkpt lat="42.53690333" lon="-8.014765">
        <ele>689.0</ele>
        <time>2018-10-03T11:57:07.000Z</time>
      </trkpt>
      <trkpt lat="42.53690667" lon="-8.01477333">
        <ele>689.0</ele>
        <time>2018-10-03T11:57:08.000Z</time>
      </trkpt>
      <trkpt lat="42.53690167" lon="-8.01477667">
        <ele>690.0</ele>
        <time>2018-10-03T11:57:09.000Z</time>
      </trkpt>
      <trkpt lat="42.53690167" lon="-8.01477667">
        <ele>690.0</ele>
        <time>2018-10-03T11:57:10.000Z</time>
      </trkpt>
      <trkpt lat="42.53690333" lon="-8.01477833">
        <ele>690.0</ele>
        <time>2018-10-03T11:57:11.000Z</time>
      </trkpt>
      <trkpt lat="42.53690833" lon="-8.01478">
        <ele>690.0</ele>
        <time>2018-10-03T11:57:12.000Z</time>
      </trkpt>
      <trkpt lat="42.53691333" lon="-8.014785">
        <ele>690.0</ele>
        <time>2018-10-03T11:57:13.000Z</time>
      </trkpt>
      <trkpt lat="42.53692" lon="-8.01478833">
        <ele>690.0</ele>
        <time>2018-10-03T11:57:14.000Z</time>
      </trkpt>
      <trkpt lat="42.53692167" lon="-8.01479833">
        <ele>690.0</ele>
        <time>2018-10-03T11:57:15.000Z</time>
      </trkpt>
      <trkpt lat="42.53693333" lon="-8.01480667">
        <ele>690.0</ele>
        <time>2018-10-03T11:57:16.000Z</time>
      </trkpt>
      <trkpt lat="42.53694333" lon="-8.01481333">
        <ele>690.0</ele>
        <time>2018-10-03T11:57:17.000Z</time>
      </trkpt>
      <trkpt lat="42.53695" lon="-8.01481833">
        <ele>690.0</ele>
        <time>2018-10-03T11:57:18.000Z</time>
      </trkpt>
      <trkpt lat="42.53695333" lon="-8.014825">
        <ele>690.0</ele>
        <time>2018-10-03T11:57:19.000Z</time>
      </trkpt>
      <trkpt lat="42.53695833" lon="-8.01483167">
        <ele>690.0</ele>
        <time>2018-10-03T11:57:20.000Z</time>
      </trkpt>
      <trkpt lat="42.536965" lon="-8.01484167">
        <ele>691.0</ele>
        <time>2018-10-03T11:57:21.000Z</time>
      </trkpt>
      <trkpt lat="42.53697667" lon="-8.01485333">
        <ele>691.0</ele>
        <time>2018-10-03T11:57:22.000Z</time>
      </trkpt>
      <trkpt lat="42.53699167" lon="-8.01486667">
        <ele>691.0</ele>
        <time>2018-10-03T11:57:23.000Z</time>
      </trkpt>
      <trkpt lat="42.53700667" lon="-8.01487833">
        <ele>691.0</ele>
        <time>2018-10-03T11:57:24.000Z</time>
      </trkpt>
      <trkpt lat="42.537025" lon="-8.01489">
        <ele>691.0</ele>
        <time>2018-10-03T11:57:25.000Z</time>
      </trkpt>
      <trkpt lat="42.53704833" lon="-8.01490167">
        <ele>691.0</ele>
        <time>2018-10-03T11:57:26.000Z</time>
      </trkpt>
      <trkpt lat="42.53708" lon="-8.01491333">
        <ele>691.0</ele>
        <time>2018-10-03T11:57:27.000Z</time>
      </trkpt>
      <trkpt lat="42.53710667" lon="-8.014925">
        <ele>691.0</ele>
        <time>2018-10-03T11:57:28.000Z</time>
      </trkpt>
      <trkpt lat="42.53713167" lon="-8.01493667">
        <ele>691.0</ele>
        <time>2018-10-03T11:57:29.000Z</time>
      </trkpt>
      <trkpt lat="42.53715" lon="-8.01494833">
        <ele>691.0</ele>
        <time>2018-10-03T11:57:30.000Z</time>
      </trkpt>
      <trkpt lat="42.537165" lon="-8.01496">
        <ele>691.0</ele>
        <time>2018-10-03T11:57:31.000Z</time>
      </trkpt>
      <trkpt lat="42.537175" lon="-8.01497167">
        <ele>691.0</ele>
        <time>2018-10-03T11:57:32.000Z</time>
      </trkpt>
      <trkpt lat="42.53718167" lon="-8.01498167">
        <ele>691.0</ele>
        <time>2018-10-03T11:57:33.000Z</time>
      </trkpt>
      <trkpt lat="42.53718667" lon="-8.01499">
        <ele>691.0</ele>
        <time>2018-10-03T11:57:34.000Z</time>
      </trkpt>
      <trkpt lat="42.53719333" lon="-8.015">
        <ele>691.0</ele>
        <time>2018-10-03T11:57:35.000Z</time>
      </trkpt>
      <trkpt lat="42.53720167" lon="-8.01500833">
        <ele>691.0</ele>
        <time>2018-10-03T11:57:36.000Z</time>
      </trkpt>
      <trkpt lat="42.53721" lon="-8.01501833">
        <ele>691.0</ele>
        <time>2018-10-03T11:57:37.000Z</time>
      </trkpt>
      <trkpt lat="42.537225" lon="-8.01503333">
        <ele>690.0</ele>
        <time>2018-10-03T11:57:38.000Z</time>
      </trkpt>
      <trkpt lat="42.53724" lon="-8.01504833">
        <ele>690.0</ele>
        <time>2018-10-03T11:57:39.000Z</time>
      </trkpt>
      <trkpt lat="42.53725833" lon="-8.01506">
        <ele>689.0</ele>
        <time>2018-10-03T11:57:40.000Z</time>
      </trkpt>
      <trkpt lat="42.53727667" lon="-8.015075">
        <ele>689.0</ele>
        <time>2018-10-03T11:57:41.000Z</time>
      </trkpt>
      <trkpt lat="42.53729833" lon="-8.015085">
        <ele>689.0</ele>
        <time>2018-10-03T11:57:42.000Z</time>
      </trkpt>
      <trkpt lat="42.53731667" lon="-8.01509667">
        <ele>689.0</ele>
        <time>2018-10-03T11:57:43.000Z</time>
      </trkpt>
      <trkpt lat="42.53733333" lon="-8.01510333">
        <ele>689.0</ele>
        <time>2018-10-03T11:57:44.000Z</time>
      </trkpt>
      <trkpt lat="42.53734833" lon="-8.01511333">
        <ele>689.0</ele>
        <time>2018-10-03T11:57:45.000Z</time>
      </trkpt>
      <trkpt lat="42.53735667" lon="-8.01512667">
        <ele>688.0</ele>
        <time>2018-10-03T11:57:46.000Z</time>
      </trkpt>
      <trkpt lat="42.53736" lon="-8.01513833">
        <ele>688.0</ele>
        <time>2018-10-03T11:57:47.000Z</time>
      </trkpt>
      <trkpt lat="42.53736333" lon="-8.01515333">
        <ele>688.0</ele>
        <time>2018-10-03T11:57:48.000Z</time>
      </trkpt>
      <trkpt lat="42.53737" lon="-8.01516833">
        <ele>688.0</ele>
        <time>2018-10-03T11:57:49.000Z</time>
      </trkpt>
      <trkpt lat="42.53738" lon="-8.01518167">
        <ele>688.0</ele>
        <time>2018-10-03T11:57:50.000Z</time>
      </trkpt>
      <trkpt lat="42.53739167" lon="-8.015195">
        <ele>688.0</ele>
        <time>2018-10-03T11:57:51.000Z</time>
      </trkpt>
      <trkpt lat="42.53740833" lon="-8.01520833">
        <ele>688.0</ele>
        <time>2018-10-03T11:57:52.000Z</time>
      </trkpt>
      <trkpt lat="42.53742167" lon="-8.01522">
        <ele>688.0</ele>
        <time>2018-10-03T11:57:53.000Z</time>
      </trkpt>
      <trkpt lat="42.53743167" lon="-8.01523167">
        <ele>688.0</ele>
        <time>2018-10-03T11:57:54.000Z</time>
      </trkpt>
      <trkpt lat="42.53743667" lon="-8.01524167">
        <ele>688.0</ele>
        <time>2018-10-03T11:57:55.000Z</time>
      </trkpt>
      <trkpt lat="42.53743667" lon="-8.01525">
        <ele>688.0</ele>
        <time>2018-10-03T11:57:56.000Z</time>
      </trkpt>
      <trkpt lat="42.53744167" lon="-8.01525667">
        <ele>688.0</ele>
        <time>2018-10-03T11:57:57.000Z</time>
      </trkpt>
      <trkpt lat="42.53745" lon="-8.01526833">
        <ele>688.0</ele>
        <time>2018-10-03T11:57:58.000Z</time>
      </trkpt>
      <trkpt lat="42.53746333" lon="-8.01528">
        <ele>687.0</ele>
        <time>2018-10-03T11:57:59.000Z</time>
      </trkpt>
      <trkpt lat="42.53747833" lon="-8.015295">
        <ele>687.0</ele>
        <time>2018-10-03T11:58:00.000Z</time>
      </trkpt>
      <trkpt lat="42.53749667" lon="-8.01531333">
        <ele>687.0</ele>
        <time>2018-10-03T11:58:01.000Z</time>
      </trkpt>
      <trkpt lat="42.53751667" lon="-8.01533">
        <ele>687.0</ele>
        <time>2018-10-03T11:58:02.000Z</time>
      </trkpt>
      <trkpt lat="42.53753667" lon="-8.01534">
        <ele>687.0</ele>
        <time>2018-10-03T11:58:03.000Z</time>
      </trkpt>
      <trkpt lat="42.537555" lon="-8.01535167">
        <ele>687.0</ele>
        <time>2018-10-03T11:58:04.000Z</time>
      </trkpt>
      <trkpt lat="42.53756833" lon="-8.01536">
        <ele>687.0</ele>
        <time>2018-10-03T11:58:05.000Z</time>
      </trkpt>
      <trkpt lat="42.537575" lon="-8.01536667">
        <ele>687.0</ele>
        <time>2018-10-03T11:58:06.000Z</time>
      </trkpt>
      <trkpt lat="42.53758167" lon="-8.01537333">
        <ele>687.0</ele>
        <time>2018-10-03T11:58:07.000Z</time>
      </trkpt>
      <trkpt lat="42.53759" lon="-8.01538333">
        <ele>687.0</ele>
        <time>2018-10-03T11:58:08.000Z</time>
      </trkpt>
      <trkpt lat="42.53760167" lon="-8.01539333">
        <ele>687.0</ele>
        <time>2018-10-03T11:58:09.000Z</time>
      </trkpt>
      <trkpt lat="42.537615" lon="-8.0154">
        <ele>687.0</ele>
        <time>2018-10-03T11:58:10.000Z</time>
      </trkpt>
      <trkpt lat="42.53763" lon="-8.01540833">
        <ele>687.0</ele>
        <time>2018-10-03T11:58:11.000Z</time>
      </trkpt>
      <trkpt lat="42.537645" lon="-8.01541667">
        <ele>687.0</ele>
        <time>2018-10-03T11:58:12.000Z</time>
      </trkpt>
      <trkpt lat="42.53765833" lon="-8.01542667">
        <ele>687.0</ele>
        <time>2018-10-03T11:58:13.000Z</time>
      </trkpt>
      <trkpt lat="42.53766667" lon="-8.01543667">
        <ele>687.0</ele>
        <time>2018-10-03T11:58:14.000Z</time>
      </trkpt>
      <trkpt lat="42.53768" lon="-8.01544833">
        <ele>687.0</ele>
        <time>2018-10-03T11:58:15.000Z</time>
      </trkpt>
      <trkpt lat="42.53769167" lon="-8.01546">
        <ele>687.0</ele>
        <time>2018-10-03T11:58:16.000Z</time>
      </trkpt>
      <trkpt lat="42.53770667" lon="-8.01547167">
        <ele>687.0</ele>
        <time>2018-10-03T11:58:17.000Z</time>
      </trkpt>
      <trkpt lat="42.53772" lon="-8.01548167">
        <ele>687.0</ele>
        <time>2018-10-03T11:58:18.000Z</time>
      </trkpt>
      <trkpt lat="42.53773667" lon="-8.015495">
        <ele>687.0</ele>
        <time>2018-10-03T11:58:19.000Z</time>
      </trkpt>
      <trkpt lat="42.53775167" lon="-8.01550667">
        <ele>687.0</ele>
        <time>2018-10-03T11:58:20.000Z</time>
      </trkpt>
      <trkpt lat="42.537765" lon="-8.01551667">
        <ele>687.0</ele>
        <time>2018-10-03T11:58:21.000Z</time>
      </trkpt>
      <trkpt lat="42.53778" lon="-8.01552833">
        <ele>687.0</ele>
        <time>2018-10-03T11:58:22.000Z</time>
      </trkpt>
      <trkpt lat="42.537795" lon="-8.01553833">
        <ele>688.0</ele>
        <time>2018-10-03T11:58:23.000Z</time>
      </trkpt>
      <trkpt lat="42.53780833" lon="-8.01554667">
        <ele>688.0</ele>
        <time>2018-10-03T11:58:24.000Z</time>
      </trkpt>
      <trkpt lat="42.53782167" lon="-8.01555667">
        <ele>688.0</ele>
        <time>2018-10-03T11:58:25.000Z</time>
      </trkpt>
      <trkpt lat="42.537835" lon="-8.015565">
        <ele>688.0</ele>
        <time>2018-10-03T11:58:26.000Z</time>
      </trkpt>
      <trkpt lat="42.53784833" lon="-8.01557333">
        <ele>689.0</ele>
        <time>2018-10-03T11:58:27.000Z</time>
      </trkpt>
      <trkpt lat="42.53786167" lon="-8.015585">
        <ele>689.0</ele>
        <time>2018-10-03T11:58:28.000Z</time>
      </trkpt>
      <trkpt lat="42.53787167" lon="-8.01559667">
        <ele>689.0</ele>
        <time>2018-10-03T11:58:29.000Z</time>
      </trkpt>
      <trkpt lat="42.53788833" lon="-8.01560333">
        <ele>689.0</ele>
        <time>2018-10-03T11:58:30.000Z</time>
      </trkpt>
      <trkpt lat="42.53791333" lon="-8.01561">
        <ele>689.0</ele>
        <time>2018-10-03T11:58:31.000Z</time>
      </trkpt>
      <trkpt lat="42.537935" lon="-8.01561833">
        <ele>689.0</ele>
        <time>2018-10-03T11:58:32.000Z</time>
      </trkpt>
      <trkpt lat="42.53795333" lon="-8.01562833">
        <ele>690.0</ele>
        <time>2018-10-03T11:58:33.000Z</time>
      </trkpt>
      <trkpt lat="42.53796833" lon="-8.01564">
        <ele>690.0</ele>
        <time>2018-10-03T11:58:34.000Z</time>
      </trkpt>
      <trkpt lat="42.53798" lon="-8.01565">
        <ele>691.0</ele>
        <time>2018-10-03T11:58:35.000Z</time>
      </trkpt>
      <trkpt lat="42.53799" lon="-8.015665">
        <ele>691.0</ele>
        <time>2018-10-03T11:58:36.000Z</time>
      </trkpt>
      <trkpt lat="42.538" lon="-8.01567833">
        <ele>691.0</ele>
        <time>2018-10-03T11:58:37.000Z</time>
      </trkpt>
      <trkpt lat="42.53800667" lon="-8.01568833">
        <ele>691.0</ele>
        <time>2018-10-03T11:58:38.000Z</time>
      </trkpt>
      <trkpt lat="42.538015" lon="-8.01569667">
        <ele>692.0</ele>
        <time>2018-10-03T11:58:39.000Z</time>
      </trkpt>
      <trkpt lat="42.53802167" lon="-8.01571">
        <ele>692.0</ele>
        <time>2018-10-03T11:58:40.000Z</time>
      </trkpt>
      <trkpt lat="42.53803" lon="-8.01572333">
        <ele>692.0</ele>
        <time>2018-10-03T11:58:41.000Z</time>
      </trkpt>
      <trkpt lat="42.53804" lon="-8.01573167">
        <ele>692.0</ele>
        <time>2018-10-03T11:58:42.000Z</time>
      </trkpt>
      <trkpt lat="42.53805" lon="-8.01573833">
        <ele>692.0</ele>
        <time>2018-10-03T11:58:43.000Z</time>
      </trkpt>
      <trkpt lat="42.53806167" lon="-8.015745">
        <ele>692.0</ele>
        <time>2018-10-03T11:58:44.000Z</time>
      </trkpt>
      <trkpt lat="42.53807167" lon="-8.01575333">
        <ele>692.0</ele>
        <time>2018-10-03T11:58:45.000Z</time>
      </trkpt>
      <trkpt lat="42.53808333" lon="-8.01576167">
        <ele>692.0</ele>
        <time>2018-10-03T11:58:46.000Z</time>
      </trkpt>
      <trkpt lat="42.53809833" lon="-8.01577167">
        <ele>692.0</ele>
        <time>2018-10-03T11:58:47.000Z</time>
      </trkpt>
      <trkpt lat="42.53811167" lon="-8.01578167">
        <ele>692.0</ele>
        <time>2018-10-03T11:58:48.000Z</time>
      </trkpt>
      <trkpt lat="42.53812667" lon="-8.01579167">
        <ele>692.0</ele>
        <time>2018-10-03T11:58:49.000Z</time>
      </trkpt>
      <trkpt lat="42.53814" lon="-8.0158">
        <ele>692.0</ele>
        <time>2018-10-03T11:58:50.000Z</time>
      </trkpt>
      <trkpt lat="42.53815333" lon="-8.01580833">
        <ele>692.0</ele>
        <time>2018-10-03T11:58:51.000Z</time>
      </trkpt>
      <trkpt lat="42.538165" lon="-8.01581667">
        <ele>692.0</ele>
        <time>2018-10-03T11:58:52.000Z</time>
      </trkpt>
      <trkpt lat="42.538175" lon="-8.015825">
        <ele>692.0</ele>
        <time>2018-10-03T11:58:53.000Z</time>
      </trkpt>
      <trkpt lat="42.53818667" lon="-8.01583333">
        <ele>692.0</ele>
        <time>2018-10-03T11:58:54.000Z</time>
      </trkpt>
      <trkpt lat="42.53819667" lon="-8.01584">
        <ele>693.0</ele>
        <time>2018-10-03T11:58:55.000Z</time>
      </trkpt>
      <trkpt lat="42.53820667" lon="-8.01585">
        <ele>693.0</ele>
        <time>2018-10-03T11:58:56.000Z</time>
      </trkpt>
      <trkpt lat="42.53821333" lon="-8.01585833">
        <ele>693.0</ele>
        <time>2018-10-03T11:58:57.000Z</time>
      </trkpt>
      <trkpt lat="42.53821667" lon="-8.01586833">
        <ele>693.0</ele>
        <time>2018-10-03T11:58:58.000Z</time>
      </trkpt>
      <trkpt lat="42.538225" lon="-8.01587833">
        <ele>693.0</ele>
        <time>2018-10-03T11:58:59.000Z</time>
      </trkpt>
      <trkpt lat="42.538235" lon="-8.01588667">
        <ele>694.0</ele>
        <time>2018-10-03T11:59:00.000Z</time>
      </trkpt>
      <trkpt lat="42.53824667" lon="-8.01589333">
        <ele>694.0</ele>
        <time>2018-10-03T11:59:01.000Z</time>
      </trkpt>
      <trkpt lat="42.538255" lon="-8.01590167">
        <ele>694.0</ele>
        <time>2018-10-03T11:59:02.000Z</time>
      </trkpt>
      <trkpt lat="42.538265" lon="-8.01591167">
        <ele>694.0</ele>
        <time>2018-10-03T11:59:03.000Z</time>
      </trkpt>
      <trkpt lat="42.53827667" lon="-8.01591833">
        <ele>695.0</ele>
        <time>2018-10-03T11:59:04.000Z</time>
      </trkpt>
      <trkpt lat="42.53828667" lon="-8.01592333">
        <ele>695.0</ele>
        <time>2018-10-03T11:59:05.000Z</time>
      </trkpt>
      <trkpt lat="42.53829667" lon="-8.01593167">
        <ele>695.0</ele>
        <time>2018-10-03T11:59:06.000Z</time>
      </trkpt>
      <trkpt lat="42.53830667" lon="-8.01594167">
        <ele>695.0</ele>
        <time>2018-10-03T11:59:07.000Z</time>
      </trkpt>
      <trkpt lat="42.53831667" lon="-8.01595">
        <ele>695.0</ele>
        <time>2018-10-03T11:59:08.000Z</time>
      </trkpt>
      <trkpt lat="42.53832667" lon="-8.01595833">
        <ele>696.0</ele>
        <time>2018-10-03T11:59:09.000Z</time>
      </trkpt>
      <trkpt lat="42.53833667" lon="-8.01596667">
        <ele>696.0</ele>
        <time>2018-10-03T11:59:10.000Z</time>
      </trkpt>
      <trkpt lat="42.53834667" lon="-8.015975">
        <ele>696.0</ele>
        <time>2018-10-03T11:59:11.000Z</time>
      </trkpt>
      <trkpt lat="42.538355" lon="-8.01598333">
        <ele>696.0</ele>
        <time>2018-10-03T11:59:12.000Z</time>
      </trkpt>
      <trkpt lat="42.53836167" lon="-8.01599667">
        <ele>696.0</ele>
        <time>2018-10-03T11:59:13.000Z</time>
      </trkpt>
      <trkpt lat="42.53836833" lon="-8.01600333">
        <ele>696.0</ele>
        <time>2018-10-03T11:59:14.000Z</time>
      </trkpt>
      <trkpt lat="42.538375" lon="-8.01601167">
        <ele>696.0</ele>
        <time>2018-10-03T11:59:15.000Z</time>
      </trkpt>
      <trkpt lat="42.538385" lon="-8.01602167">
        <ele>697.0</ele>
        <time>2018-10-03T11:59:16.000Z</time>
      </trkpt>
      <trkpt lat="42.53839333" lon="-8.01603167">
        <ele>697.0</ele>
        <time>2018-10-03T11:59:17.000Z</time>
      </trkpt>
      <trkpt lat="42.53840333" lon="-8.01604167">
        <ele>697.0</ele>
        <time>2018-10-03T11:59:18.000Z</time>
      </trkpt>
      <trkpt lat="42.53841333" lon="-8.01605">
        <ele>697.0</ele>
        <time>2018-10-03T11:59:19.000Z</time>
      </trkpt>
      <trkpt lat="42.53842833" lon="-8.01606667">
        <ele>697.0</ele>
        <time>2018-10-03T11:59:20.000Z</time>
      </trkpt>
      <trkpt lat="42.538445" lon="-8.01608333">
        <ele>697.0</ele>
        <time>2018-10-03T11:59:21.000Z</time>
      </trkpt>
      <trkpt lat="42.53845833" lon="-8.01609833">
        <ele>698.0</ele>
        <time>2018-10-03T11:59:22.000Z</time>
      </trkpt>
      <trkpt lat="42.53847167" lon="-8.01611167">
        <ele>698.0</ele>
        <time>2018-10-03T11:59:23.000Z</time>
      </trkpt>
      <trkpt lat="42.53848333" lon="-8.01612">
        <ele>698.0</ele>
        <time>2018-10-03T11:59:24.000Z</time>
      </trkpt>
      <trkpt lat="42.53849667" lon="-8.01613">
        <ele>698.0</ele>
        <time>2018-10-03T11:59:25.000Z</time>
      </trkpt>
      <trkpt lat="42.53851" lon="-8.01614">
        <ele>698.0</ele>
        <time>2018-10-03T11:59:26.000Z</time>
      </trkpt>
      <trkpt lat="42.53852167" lon="-8.01614833">
        <ele>699.0</ele>
        <time>2018-10-03T11:59:27.000Z</time>
      </trkpt>
      <trkpt lat="42.53853" lon="-8.01615333">
        <ele>699.0</ele>
        <time>2018-10-03T11:59:28.000Z</time>
      </trkpt>
      <trkpt lat="42.53853833" lon="-8.01616167">
        <ele>699.0</ele>
        <time>2018-10-03T11:59:29.000Z</time>
      </trkpt>
      <trkpt lat="42.53855" lon="-8.01617">
        <ele>699.0</ele>
        <time>2018-10-03T11:59:30.000Z</time>
      </trkpt>
      <trkpt lat="42.53856167" lon="-8.01617667">
        <ele>699.0</ele>
        <time>2018-10-03T11:59:31.000Z</time>
      </trkpt>
      <trkpt lat="42.53857333" lon="-8.016185">
        <ele>699.0</ele>
        <time>2018-10-03T11:59:32.000Z</time>
      </trkpt>
      <trkpt lat="42.538585" lon="-8.01619333">
        <ele>699.0</ele>
        <time>2018-10-03T11:59:33.000Z</time>
      </trkpt>
      <trkpt lat="42.53859667" lon="-8.01620167">
        <ele>699.0</ele>
        <time>2018-10-03T11:59:34.000Z</time>
      </trkpt>
      <trkpt lat="42.53861" lon="-8.01620833">
        <ele>699.0</ele>
        <time>2018-10-03T11:59:35.000Z</time>
      </trkpt>
      <trkpt lat="42.53862167" lon="-8.016215">
        <ele>700.0</ele>
        <time>2018-10-03T11:59:36.000Z</time>
      </trkpt>
      <trkpt lat="42.53863333" lon="-8.01622167">
        <ele>700.0</ele>
        <time>2018-10-03T11:59:37.000Z</time>
      </trkpt>
      <trkpt lat="42.53864" lon="-8.01622667">
        <ele>700.0</ele>
        <time>2018-10-03T11:59:38.000Z</time>
      </trkpt>
      <trkpt lat="42.53864833" lon="-8.01622833">
        <ele>700.0</ele>
        <time>2018-10-03T11:59:39.000Z</time>
      </trkpt>
      <trkpt lat="42.53865667" lon="-8.01623333">
        <ele>700.0</ele>
        <time>2018-10-03T11:59:40.000Z</time>
      </trkpt>
      <trkpt lat="42.538665" lon="-8.01624167">
        <ele>700.0</ele>
        <time>2018-10-03T11:59:41.000Z</time>
      </trkpt>
      <trkpt lat="42.53867333" lon="-8.01624833">
        <ele>700.0</ele>
        <time>2018-10-03T11:59:42.000Z</time>
      </trkpt>
      <trkpt lat="42.53868333" lon="-8.01625333">
        <ele>700.0</ele>
        <time>2018-10-03T11:59:43.000Z</time>
      </trkpt>
      <trkpt lat="42.538695" lon="-8.01626">
        <ele>700.0</ele>
        <time>2018-10-03T11:59:44.000Z</time>
      </trkpt>
      <trkpt lat="42.53870833" lon="-8.01626667">
        <ele>700.0</ele>
        <time>2018-10-03T11:59:45.000Z</time>
      </trkpt>
      <trkpt lat="42.53871833" lon="-8.016275">
        <ele>700.0</ele>
        <time>2018-10-03T11:59:46.000Z</time>
      </trkpt>
      <trkpt lat="42.53872833" lon="-8.01628333">
        <ele>700.0</ele>
        <time>2018-10-03T11:59:47.000Z</time>
      </trkpt>
      <trkpt lat="42.53873833" lon="-8.01629333">
        <ele>700.0</ele>
        <time>2018-10-03T11:59:48.000Z</time>
      </trkpt>
      <trkpt lat="42.53874833" lon="-8.01630333">
        <ele>700.0</ele>
        <time>2018-10-03T11:59:49.000Z</time>
      </trkpt>
      <trkpt lat="42.53876" lon="-8.01631333">
        <ele>700.0</ele>
        <time>2018-10-03T11:59:50.000Z</time>
      </trkpt>
      <trkpt lat="42.53877" lon="-8.016325">
        <ele>700.0</ele>
        <time>2018-10-03T11:59:51.000Z</time>
      </trkpt>
      <trkpt lat="42.53878333" lon="-8.01633667">
        <ele>700.0</ele>
        <time>2018-10-03T11:59:52.000Z</time>
      </trkpt>
      <trkpt lat="42.53879667" lon="-8.01635833">
        <ele>700.0</ele>
        <time>2018-10-03T11:59:53.000Z</time>
      </trkpt>
      <trkpt lat="42.53880167" lon="-8.01637167">
        <ele>700.0</ele>
        <time>2018-10-03T11:59:54.000Z</time>
      </trkpt>
      <trkpt lat="42.53880167" lon="-8.01638333">
        <ele>700.0</ele>
        <time>2018-10-03T11:59:55.000Z</time>
      </trkpt>
      <trkpt lat="42.53879333" lon="-8.0164">
        <ele>700.0</ele>
        <time>2018-10-03T11:59:56.000Z</time>
      </trkpt>
      <trkpt lat="42.53878167" lon="-8.01642333">
        <ele>700.0</ele>
        <time>2018-10-03T11:59:57.000Z</time>
      </trkpt>
      <trkpt lat="42.53876667" lon="-8.01645167">
        <ele>700.0</ele>
        <time>2018-10-03T11:59:58.000Z</time>
      </trkpt>
      <trkpt lat="42.53875667" lon="-8.01648">
        <ele>700.0</ele>
        <time>2018-10-03T11:59:59.000Z</time>
      </trkpt>
      <trkpt lat="42.53874833" lon="-8.01650833">
        <ele>700.0</ele>
        <time>2018-10-03T12:00:00.000Z</time>
      </trkpt>
      <trkpt lat="42.53874167" lon="-8.01652667">
        <ele>700.0</ele>
        <time>2018-10-03T12:00:01.000Z</time>
      </trkpt>
      <trkpt lat="42.53873833" lon="-8.01654333">
        <ele>700.0</ele>
        <time>2018-10-03T12:00:02.000Z</time>
      </trkpt>
      <trkpt lat="42.53873333" lon="-8.01655667">
        <ele>700.0</ele>
        <time>2018-10-03T12:00:03.000Z</time>
      </trkpt>
      <trkpt lat="42.538725" lon="-8.01657">
        <ele>700.0</ele>
        <time>2018-10-03T12:00:04.000Z</time>
      </trkpt>
      <trkpt lat="42.53871833" lon="-8.016585">
        <ele>701.0</ele>
        <time>2018-10-03T12:00:05.000Z</time>
      </trkpt>
      <trkpt lat="42.53871167" lon="-8.01660333">
        <ele>701.0</ele>
        <time>2018-10-03T12:00:06.000Z</time>
      </trkpt>
      <trkpt lat="42.53870333" lon="-8.01661667">
        <ele>701.0</ele>
        <time>2018-10-03T12:00:07.000Z</time>
      </trkpt>
      <trkpt lat="42.538695" lon="-8.01663">
        <ele>701.0</ele>
        <time>2018-10-03T12:00:08.000Z</time>
      </trkpt>
      <trkpt lat="42.53868833" lon="-8.01664">
        <ele>701.0</ele>
        <time>2018-10-03T12:00:09.000Z</time>
      </trkpt>
      <trkpt lat="42.53868" lon="-8.01665167">
        <ele>701.0</ele>
        <time>2018-10-03T12:00:10.000Z</time>
      </trkpt>
      <trkpt lat="42.53867167" lon="-8.01666333">
        <ele>701.0</ele>
        <time>2018-10-03T12:00:11.000Z</time>
      </trkpt>
      <trkpt lat="42.538665" lon="-8.01667667">
        <ele>701.0</ele>
        <time>2018-10-03T12:00:12.000Z</time>
      </trkpt>
      <trkpt lat="42.53865833" lon="-8.01669167">
        <ele>701.0</ele>
        <time>2018-10-03T12:00:13.000Z</time>
      </trkpt>
      <trkpt lat="42.53865" lon="-8.01670667">
        <ele>701.0</ele>
        <time>2018-10-03T12:00:14.000Z</time>
      </trkpt>
      <trkpt lat="42.53864167" lon="-8.01672333">
        <ele>701.0</ele>
        <time>2018-10-03T12:00:15.000Z</time>
      </trkpt>
      <trkpt lat="42.53863667" lon="-8.01674">
        <ele>701.0</ele>
        <time>2018-10-03T12:00:16.000Z</time>
      </trkpt>
      <trkpt lat="42.53862833" lon="-8.016755">
        <ele>701.0</ele>
        <time>2018-10-03T12:00:17.000Z</time>
      </trkpt>
      <trkpt lat="42.53861667" lon="-8.01677833">
        <ele>701.0</ele>
        <time>2018-10-03T12:00:18.000Z</time>
      </trkpt>
      <trkpt lat="42.53860833" lon="-8.01679667">
        <ele>702.0</ele>
        <time>2018-10-03T12:00:19.000Z</time>
      </trkpt>
      <trkpt lat="42.5386" lon="-8.01681167">
        <ele>702.0</ele>
        <time>2018-10-03T12:00:20.000Z</time>
      </trkpt>
      <trkpt lat="42.53859333" lon="-8.01682167">
        <ele>702.0</ele>
        <time>2018-10-03T12:00:21.000Z</time>
      </trkpt>
      <trkpt lat="42.53858667" lon="-8.01683">
        <ele>703.0</ele>
        <time>2018-10-03T12:00:22.000Z</time>
      </trkpt>
      <trkpt lat="42.53857833" lon="-8.01683167">
        <ele>703.0</ele>
        <time>2018-10-03T12:00:23.000Z</time>
      </trkpt>
      <trkpt lat="42.53857" lon="-8.01683167">
        <ele>703.0</ele>
        <time>2018-10-03T12:00:24.000Z</time>
      </trkpt>
      <trkpt lat="42.53855833" lon="-8.01684">
        <ele>703.0</ele>
        <time>2018-10-03T12:00:25.000Z</time>
      </trkpt>
      <trkpt lat="42.53854833" lon="-8.01685167">
        <ele>703.0</ele>
        <time>2018-10-03T12:00:26.000Z</time>
      </trkpt>
      <trkpt lat="42.53853667" lon="-8.01687">
        <ele>703.0</ele>
        <time>2018-10-03T12:00:27.000Z</time>
      </trkpt>
      <trkpt lat="42.53852667" lon="-8.016885">
        <ele>703.0</ele>
        <time>2018-10-03T12:00:28.000Z</time>
      </trkpt>
      <trkpt lat="42.53852" lon="-8.01690167">
        <ele>703.0</ele>
        <time>2018-10-03T12:00:29.000Z</time>
      </trkpt>
      <trkpt lat="42.53851333" lon="-8.01692">
        <ele>703.0</ele>
        <time>2018-10-03T12:00:30.000Z</time>
      </trkpt>
      <trkpt lat="42.538505" lon="-8.01693833">
        <ele>703.0</ele>
        <time>2018-10-03T12:00:31.000Z</time>
      </trkpt>
      <trkpt lat="42.53849833" lon="-8.01695667">
        <ele>703.0</ele>
        <time>2018-10-03T12:00:32.000Z</time>
      </trkpt>
      <trkpt lat="42.53849" lon="-8.01697667">
        <ele>703.0</ele>
        <time>2018-10-03T12:00:33.000Z</time>
      </trkpt>
      <trkpt lat="42.53848333" lon="-8.016995">
        <ele>704.0</ele>
        <time>2018-10-03T12:00:34.000Z</time>
      </trkpt>
      <trkpt lat="42.53847833" lon="-8.01701333">
        <ele>704.0</ele>
        <time>2018-10-03T12:00:35.000Z</time>
      </trkpt>
      <trkpt lat="42.53847167" lon="-8.01703167">
        <ele>704.0</ele>
        <time>2018-10-03T12:00:36.000Z</time>
      </trkpt>
      <trkpt lat="42.53846333" lon="-8.01705333">
        <ele>704.0</ele>
        <time>2018-10-03T12:00:37.000Z</time>
      </trkpt>
      <trkpt lat="42.538455" lon="-8.017075">
        <ele>704.0</ele>
        <time>2018-10-03T12:00:38.000Z</time>
      </trkpt>
      <trkpt lat="42.53844833" lon="-8.01709833">
        <ele>704.0</ele>
        <time>2018-10-03T12:00:39.000Z</time>
      </trkpt>
      <trkpt lat="42.53844167" lon="-8.01711833">
        <ele>704.0</ele>
        <time>2018-10-03T12:00:40.000Z</time>
      </trkpt>
      <trkpt lat="42.53843833" lon="-8.01714">
        <ele>705.0</ele>
        <time>2018-10-03T12:00:41.000Z</time>
      </trkpt>
      <trkpt lat="42.538435" lon="-8.01716833">
        <ele>705.0</ele>
        <time>2018-10-03T12:00:42.000Z</time>
      </trkpt>
      <trkpt lat="42.538435" lon="-8.01719667">
        <ele>705.0</ele>
        <time>2018-10-03T12:00:43.000Z</time>
      </trkpt>
      <trkpt lat="42.53843333" lon="-8.01722167">
        <ele>705.0</ele>
        <time>2018-10-03T12:00:44.000Z</time>
      </trkpt>
      <trkpt lat="42.53843" lon="-8.01724167">
        <ele>705.0</ele>
        <time>2018-10-03T12:00:45.000Z</time>
      </trkpt>
      <trkpt lat="42.53842667" lon="-8.01726">
        <ele>705.0</ele>
        <time>2018-10-03T12:00:46.000Z</time>
      </trkpt>
      <trkpt lat="42.53842333" lon="-8.01728">
        <ele>705.0</ele>
        <time>2018-10-03T12:00:47.000Z</time>
      </trkpt>
      <trkpt lat="42.53842167" lon="-8.01729833">
        <ele>705.0</ele>
        <time>2018-10-03T12:00:48.000Z</time>
      </trkpt>
      <trkpt lat="42.53841667" lon="-8.01731667">
        <ele>705.0</ele>
        <time>2018-10-03T12:00:49.000Z</time>
      </trkpt>
      <trkpt lat="42.53841333" lon="-8.01733833">
        <ele>705.0</ele>
        <time>2018-10-03T12:00:50.000Z</time>
      </trkpt>
      <trkpt lat="42.53841167" lon="-8.01736">
        <ele>705.0</ele>
        <time>2018-10-03T12:00:51.000Z</time>
      </trkpt>
      <trkpt lat="42.53841" lon="-8.01737833">
        <ele>705.0</ele>
        <time>2018-10-03T12:00:52.000Z</time>
      </trkpt>
      <trkpt lat="42.53841" lon="-8.01738833">
        <ele>705.0</ele>
        <time>2018-10-03T12:00:53.000Z</time>
      </trkpt>
      <trkpt lat="42.53841" lon="-8.01739">
        <ele>705.0</ele>
        <time>2018-10-03T12:00:54.000Z</time>
      </trkpt>
      <trkpt lat="42.53841" lon="-8.01739167">
        <ele>705.0</ele>
        <time>2018-10-03T12:00:55.000Z</time>
      </trkpt>
      <trkpt lat="42.53840833" lon="-8.017395">
        <ele>705.0</ele>
        <time>2018-10-03T12:00:56.000Z</time>
      </trkpt>
      <trkpt lat="42.53840667" lon="-8.01739333">
        <ele>704.0</ele>
        <time>2018-10-03T12:00:57.000Z</time>
      </trkpt>
      <trkpt lat="42.53840833" lon="-8.017395">
        <ele>704.0</ele>
        <time>2018-10-03T12:00:58.000Z</time>
      </trkpt>
      <trkpt lat="42.53840833" lon="-8.017395">
        <ele>704.0</ele>
        <time>2018-10-03T12:00:59.000Z</time>
      </trkpt>
      <trkpt lat="42.53840833" lon="-8.017395">
        <ele>704.0</ele>
        <time>2018-10-03T12:01:00.000Z</time>
      </trkpt>
      <trkpt lat="42.53840833" lon="-8.017395">
        <ele>704.0</ele>
        <time>2018-10-03T12:01:01.000Z</time>
      </trkpt>
      <trkpt lat="42.53840667" lon="-8.01739667">
        <ele>704.0</ele>
        <time>2018-10-03T12:01:02.000Z</time>
      </trkpt>
      <trkpt lat="42.538405" lon="-8.01739667">
        <ele>704.0</ele>
        <time>2018-10-03T12:01:03.000Z</time>
      </trkpt>
      <trkpt lat="42.53840667" lon="-8.017395">
        <ele>704.0</ele>
        <time>2018-10-03T12:01:04.000Z</time>
      </trkpt>
      <trkpt lat="42.53840667" lon="-8.017395">
        <ele>704.0</ele>
        <time>2018-10-03T12:01:05.000Z</time>
      </trkpt>
      <trkpt lat="42.53840667" lon="-8.017395">
        <ele>704.0</ele>
        <time>2018-10-03T12:01:06.000Z</time>
      </trkpt>
      <trkpt lat="42.53840667" lon="-8.017395">
        <ele>704.0</ele>
        <time>2018-10-03T12:01:07.000Z</time>
      </trkpt>
      <trkpt lat="42.53840667" lon="-8.017395">
        <ele>704.0</ele>
        <time>2018-10-03T12:01:08.000Z</time>
      </trkpt>
      <trkpt lat="42.53840667" lon="-8.01739667">
        <ele>704.0</ele>
        <time>2018-10-03T12:01:09.000Z</time>
      </trkpt>
      <trkpt lat="42.53840667" lon="-8.01739667">
        <ele>704.0</ele>
        <time>2018-10-03T12:01:10.000Z</time>
      </trkpt>
      <trkpt lat="42.53840667" lon="-8.01739667">
        <ele>704.0</ele>
        <time>2018-10-03T12:01:11.000Z</time>
      </trkpt>
      <trkpt lat="42.53840667" lon="-8.01739667">
        <ele>704.0</ele>
        <time>2018-10-03T12:01:12.000Z</time>
      </trkpt>
      <trkpt lat="42.53840667" lon="-8.01739833">
        <ele>704.0</ele>
        <time>2018-10-03T12:01:13.000Z</time>
      </trkpt>
      <trkpt lat="42.53840667" lon="-8.01739833">
        <ele>704.0</ele>
        <time>2018-10-03T12:01:14.000Z</time>
      </trkpt>
      <trkpt lat="42.53840667" lon="-8.01739833">
        <ele>704.0</ele>
        <time>2018-10-03T12:01:15.000Z</time>
      </trkpt>
      <trkpt lat="42.53840667" lon="-8.01739833">
        <ele>704.0</ele>
        <time>2018-10-03T12:01:16.000Z</time>
      </trkpt>
      <trkpt lat="42.53840667" lon="-8.01739667">
        <ele>704.0</ele>
        <time>2018-10-03T12:01:17.000Z</time>
      </trkpt>
      <trkpt lat="42.53840833" lon="-8.017395">
        <ele>704.0</ele>
        <time>2018-10-03T12:01:18.000Z</time>
      </trkpt>
      <trkpt lat="42.53840667" lon="-8.01739333">
        <ele>704.0</ele>
        <time>2018-10-03T12:01:19.000Z</time>
      </trkpt>
      <trkpt lat="42.53840667" lon="-8.01739333">
        <ele>704.0</ele>
        <time>2018-10-03T12:01:20.000Z</time>
      </trkpt>
      <trkpt lat="42.53840667" lon="-8.01739333">
        <ele>704.0</ele>
        <time>2018-10-03T12:01:21.000Z</time>
      </trkpt>
      <trkpt lat="42.53840667" lon="-8.01739333">
        <ele>704.0</ele>
        <time>2018-10-03T12:01:22.000Z</time>
      </trkpt>
      <trkpt lat="42.53840667" lon="-8.01739167">
        <ele>704.0</ele>
        <time>2018-10-03T12:01:23.000Z</time>
      </trkpt>
      <trkpt lat="42.53840667" lon="-8.017395">
        <ele>704.0</ele>
        <time>2018-10-03T12:01:24.000Z</time>
      </trkpt>
      <trkpt lat="42.53841" lon="-8.01739667">
        <ele>704.0</ele>
        <time>2018-10-03T12:01:25.000Z</time>
      </trkpt>
      <trkpt lat="42.53841167" lon="-8.017395">
        <ele>703.0</ele>
        <time>2018-10-03T12:01:26.000Z</time>
      </trkpt>
      <trkpt lat="42.53841167" lon="-8.017395">
        <ele>703.0</ele>
        <time>2018-10-03T12:01:27.000Z</time>
      </trkpt>
      <trkpt lat="42.53841167" lon="-8.017395">
        <ele>703.0</ele>
        <time>2018-10-03T12:01:28.000Z</time>
      </trkpt>
      <trkpt lat="42.53841" lon="-8.01739333">
        <ele>703.0</ele>
        <time>2018-10-03T12:01:29.000Z</time>
      </trkpt>
      <trkpt lat="42.53840167" lon="-8.017395">
        <ele>703.0</ele>
        <time>2018-10-03T12:01:30.000Z</time>
      </trkpt>
      <trkpt lat="42.53840167" lon="-8.01739333">
        <ele>703.0</ele>
        <time>2018-10-03T12:01:31.000Z</time>
      </trkpt>
      <trkpt lat="42.53840167" lon="-8.01739167">
        <ele>703.0</ele>
        <time>2018-10-03T12:01:32.000Z</time>
      </trkpt>
      <trkpt lat="42.53840333" lon="-8.01739167">
        <ele>703.0</ele>
        <time>2018-10-03T12:01:33.000Z</time>
      </trkpt>
      <trkpt lat="42.53840333" lon="-8.01739167">
        <ele>703.0</ele>
        <time>2018-10-03T12:01:34.000Z</time>
      </trkpt>
      <trkpt lat="42.53840333" lon="-8.01739167">
        <ele>703.0</ele>
        <time>2018-10-03T12:01:35.000Z</time>
      </trkpt>
      <trkpt lat="42.53840333" lon="-8.01739167">
        <ele>703.0</ele>
        <time>2018-10-03T12:01:36.000Z</time>
      </trkpt>
      <trkpt lat="42.538405" lon="-8.01738833">
        <ele>703.0</ele>
        <time>2018-10-03T12:01:37.000Z</time>
      </trkpt>
      <trkpt lat="42.538405" lon="-8.01738667">
        <ele>703.0</ele>
        <time>2018-10-03T12:01:38.000Z</time>
      </trkpt>
      <trkpt lat="42.538405" lon="-8.01738667">
        <ele>703.0</ele>
        <time>2018-10-03T12:01:39.000Z</time>
      </trkpt>
      <trkpt lat="42.53840667" lon="-8.01738833">
        <ele>703.0</ele>
        <time>2018-10-03T12:01:40.000Z</time>
      </trkpt>
      <trkpt lat="42.53840667" lon="-8.01739">
        <ele>703.0</ele>
        <time>2018-10-03T12:01:41.000Z</time>
      </trkpt>
      <trkpt lat="42.538405" lon="-8.01738833">
        <ele>703.0</ele>
        <time>2018-10-03T12:01:42.000Z</time>
      </trkpt>
      <trkpt lat="42.53840667" lon="-8.01738667">
        <ele>703.0</ele>
        <time>2018-10-03T12:01:43.000Z</time>
      </trkpt>
      <trkpt lat="42.53840667" lon="-8.01738667">
        <ele>703.0</ele>
        <time>2018-10-03T12:01:44.000Z</time>
      </trkpt>
      <trkpt lat="42.53840833" lon="-8.017385">
        <ele>703.0</ele>
        <time>2018-10-03T12:01:45.000Z</time>
      </trkpt>
      <trkpt lat="42.53840833" lon="-8.017385">
        <ele>702.0</ele>
        <time>2018-10-03T12:01:46.000Z</time>
      </trkpt>
      <trkpt lat="42.53840833" lon="-8.01738333">
        <ele>702.0</ele>
        <time>2018-10-03T12:01:47.000Z</time>
      </trkpt>
      <trkpt lat="42.53841" lon="-8.01738333">
        <ele>702.0</ele>
        <time>2018-10-03T12:01:48.000Z</time>
      </trkpt>
      <trkpt lat="42.53841" lon="-8.01738333">
        <ele>702.0</ele>
        <time>2018-10-03T12:01:49.000Z</time>
      </trkpt>
      <trkpt lat="42.53841" lon="-8.01738333">
        <ele>702.0</ele>
        <time>2018-10-03T12:01:50.000Z</time>
      </trkpt>
      <trkpt lat="42.53841167" lon="-8.01738333">
        <ele>702.0</ele>
        <time>2018-10-03T12:01:51.000Z</time>
      </trkpt>
      <trkpt lat="42.53841167" lon="-8.01738333">
        <ele>702.0</ele>
        <time>2018-10-03T12:01:52.000Z</time>
      </trkpt>
      <trkpt lat="42.53841167" lon="-8.017385">
        <ele>702.0</ele>
        <time>2018-10-03T12:01:53.000Z</time>
      </trkpt>
      <trkpt lat="42.53841167" lon="-8.01738">
        <ele>702.0</ele>
        <time>2018-10-03T12:01:54.000Z</time>
      </trkpt>
      <trkpt lat="42.53841167" lon="-8.01738">
        <ele>702.0</ele>
        <time>2018-10-03T12:01:55.000Z</time>
      </trkpt>
      <trkpt lat="42.53841167" lon="-8.01738">
        <ele>702.0</ele>
        <time>2018-10-03T12:01:56.000Z</time>
      </trkpt>
      <trkpt lat="42.53841167" lon="-8.01738">
        <ele>702.0</ele>
        <time>2018-10-03T12:01:57.000Z</time>
      </trkpt>
      <trkpt lat="42.53841167" lon="-8.01738">
        <ele>702.0</ele>
        <time>2018-10-03T12:01:58.000Z</time>
      </trkpt>
      <trkpt lat="42.53841167" lon="-8.01738">
        <ele>702.0</ele>
        <time>2018-10-03T12:01:59.000Z</time>
      </trkpt>
      <trkpt lat="42.53841167" lon="-8.01738">
        <ele>702.0</ele>
        <time>2018-10-03T12:02:00.000Z</time>
      </trkpt>
      <trkpt lat="42.53841167" lon="-8.01738">
        <ele>702.0</ele>
        <time>2018-10-03T12:02:01.000Z</time>
      </trkpt>
      <trkpt lat="42.53841167" lon="-8.01738">
        <ele>702.0</ele>
        <time>2018-10-03T12:02:02.000Z</time>
      </trkpt>
      <trkpt lat="42.53841" lon="-8.01738">
        <ele>702.0</ele>
        <time>2018-10-03T12:02:03.000Z</time>
      </trkpt>
      <trkpt lat="42.53841167" lon="-8.01738167">
        <ele>702.0</ele>
        <time>2018-10-03T12:02:04.000Z</time>
      </trkpt>
      <trkpt lat="42.53841167" lon="-8.01739">
        <ele>702.0</ele>
        <time>2018-10-03T12:02:05.000Z</time>
      </trkpt>
      <trkpt lat="42.538415" lon="-8.01740667">
        <ele>702.0</ele>
        <time>2018-10-03T12:02:06.000Z</time>
      </trkpt>
      <trkpt lat="42.53841667" lon="-8.017425">
        <ele>702.0</ele>
        <time>2018-10-03T12:02:07.000Z</time>
      </trkpt>
      <trkpt lat="42.53841667" lon="-8.017445">
        <ele>702.0</ele>
        <time>2018-10-03T12:02:08.000Z</time>
      </trkpt>
      <trkpt lat="42.53841833" lon="-8.01746333">
        <ele>702.0</ele>
        <time>2018-10-03T12:02:09.000Z</time>
      </trkpt>
      <trkpt lat="42.53842167" lon="-8.01748333">
        <ele>702.0</ele>
        <time>2018-10-03T12:02:10.000Z</time>
      </trkpt>
      <trkpt lat="42.538425" lon="-8.01750333">
        <ele>702.0</ele>
        <time>2018-10-03T12:02:11.000Z</time>
      </trkpt>
      <trkpt lat="42.53842667" lon="-8.017525">
        <ele>702.0</ele>
        <time>2018-10-03T12:02:12.000Z</time>
      </trkpt>
      <trkpt lat="42.53843" lon="-8.01754333">
        <ele>702.0</ele>
        <time>2018-10-03T12:02:13.000Z</time>
      </trkpt>
      <trkpt lat="42.538435" lon="-8.017565">
        <ele>702.0</ele>
        <time>2018-10-03T12:02:14.000Z</time>
      </trkpt>
      <trkpt lat="42.53844" lon="-8.01758667">
        <ele>702.0</ele>
        <time>2018-10-03T12:02:15.000Z</time>
      </trkpt>
      <trkpt lat="42.538445" lon="-8.01760667">
        <ele>702.0</ele>
        <time>2018-10-03T12:02:16.000Z</time>
      </trkpt>
      <trkpt lat="42.53845" lon="-8.01762667">
        <ele>702.0</ele>
        <time>2018-10-03T12:02:17.000Z</time>
      </trkpt>
      <trkpt lat="42.538455" lon="-8.01764667">
        <ele>702.0</ele>
        <time>2018-10-03T12:02:18.000Z</time>
      </trkpt>
      <trkpt lat="42.53846" lon="-8.01766833">
        <ele>702.0</ele>
        <time>2018-10-03T12:02:19.000Z</time>
      </trkpt>
      <trkpt lat="42.538465" lon="-8.01768333">
        <ele>702.0</ele>
        <time>2018-10-03T12:02:20.000Z</time>
      </trkpt>
      <trkpt lat="42.53847" lon="-8.01770333">
        <ele>702.0</ele>
        <time>2018-10-03T12:02:21.000Z</time>
      </trkpt>
      <trkpt lat="42.53847333" lon="-8.01772167">
        <ele>702.0</ele>
        <time>2018-10-03T12:02:22.000Z</time>
      </trkpt>
      <trkpt lat="42.53847833" lon="-8.01774167">
        <ele>702.0</ele>
        <time>2018-10-03T12:02:23.000Z</time>
      </trkpt>
      <trkpt lat="42.538485" lon="-8.01776167">
        <ele>702.0</ele>
        <time>2018-10-03T12:02:24.000Z</time>
      </trkpt>
      <trkpt lat="42.53849167" lon="-8.01778167">
        <ele>701.0</ele>
        <time>2018-10-03T12:02:25.000Z</time>
      </trkpt>
      <trkpt lat="42.5385" lon="-8.01780333">
        <ele>701.0</ele>
        <time>2018-10-03T12:02:26.000Z</time>
      </trkpt>
      <trkpt lat="42.53850833" lon="-8.017825">
        <ele>701.0</ele>
        <time>2018-10-03T12:02:27.000Z</time>
      </trkpt>
      <trkpt lat="42.53852" lon="-8.01784333">
        <ele>701.0</ele>
        <time>2018-10-03T12:02:28.000Z</time>
      </trkpt>
      <trkpt lat="42.53852833" lon="-8.01786333">
        <ele>701.0</ele>
        <time>2018-10-03T12:02:29.000Z</time>
      </trkpt>
      <trkpt lat="42.53853833" lon="-8.01788333">
        <ele>701.0</ele>
        <time>2018-10-03T12:02:30.000Z</time>
      </trkpt>
      <trkpt lat="42.538545" lon="-8.01790167">
        <ele>701.0</ele>
        <time>2018-10-03T12:02:31.000Z</time>
      </trkpt>
      <trkpt lat="42.53855333" lon="-8.01792167">
        <ele>701.0</ele>
        <time>2018-10-03T12:02:32.000Z</time>
      </trkpt>
      <trkpt lat="42.53856167" lon="-8.01794">
        <ele>701.0</ele>
        <time>2018-10-03T12:02:33.000Z</time>
      </trkpt>
      <trkpt lat="42.53857167" lon="-8.01796">
        <ele>701.0</ele>
        <time>2018-10-03T12:02:34.000Z</time>
      </trkpt>
      <trkpt lat="42.53858" lon="-8.01797833">
        <ele>701.0</ele>
        <time>2018-10-03T12:02:35.000Z</time>
      </trkpt>
      <trkpt lat="42.53858833" lon="-8.01799833">
        <ele>701.0</ele>
        <time>2018-10-03T12:02:36.000Z</time>
      </trkpt>
      <trkpt lat="42.53859833" lon="-8.01801667">
        <ele>701.0</ele>
        <time>2018-10-03T12:02:37.000Z</time>
      </trkpt>
      <trkpt lat="42.53860667" lon="-8.01803667">
        <ele>701.0</ele>
        <time>2018-10-03T12:02:38.000Z</time>
      </trkpt>
      <trkpt lat="42.538615" lon="-8.01805333">
        <ele>701.0</ele>
        <time>2018-10-03T12:02:39.000Z</time>
      </trkpt>
      <trkpt lat="42.538625" lon="-8.01807">
        <ele>701.0</ele>
        <time>2018-10-03T12:02:40.000Z</time>
      </trkpt>
      <trkpt lat="42.53863" lon="-8.01808833">
        <ele>701.0</ele>
        <time>2018-10-03T12:02:41.000Z</time>
      </trkpt>
      <trkpt lat="42.53863833" lon="-8.01810667">
        <ele>701.0</ele>
        <time>2018-10-03T12:02:42.000Z</time>
      </trkpt>
      <trkpt lat="42.53864833" lon="-8.01812667">
        <ele>701.0</ele>
        <time>2018-10-03T12:02:43.000Z</time>
      </trkpt>
      <trkpt lat="42.53866" lon="-8.01814333">
        <ele>701.0</ele>
        <time>2018-10-03T12:02:44.000Z</time>
      </trkpt>
      <trkpt lat="42.53867167" lon="-8.01816333">
        <ele>701.0</ele>
        <time>2018-10-03T12:02:45.000Z</time>
      </trkpt>
      <trkpt lat="42.53868333" lon="-8.01818333">
        <ele>701.0</ele>
        <time>2018-10-03T12:02:46.000Z</time>
      </trkpt>
      <trkpt lat="42.53869333" lon="-8.01820167">
        <ele>701.0</ele>
        <time>2018-10-03T12:02:47.000Z</time>
      </trkpt>
      <trkpt lat="42.53870333" lon="-8.01821833">
        <ele>701.0</ele>
        <time>2018-10-03T12:02:48.000Z</time>
      </trkpt>
      <trkpt lat="42.53871167" lon="-8.018235">
        <ele>701.0</ele>
        <time>2018-10-03T12:02:49.000Z</time>
      </trkpt>
      <trkpt lat="42.53871833" lon="-8.01825333">
        <ele>701.0</ele>
        <time>2018-10-03T12:02:50.000Z</time>
      </trkpt>
      <trkpt lat="42.53872667" lon="-8.01827">
        <ele>701.0</ele>
        <time>2018-10-03T12:02:51.000Z</time>
      </trkpt>
      <trkpt lat="42.53873333" lon="-8.01828833">
        <ele>701.0</ele>
        <time>2018-10-03T12:02:52.000Z</time>
      </trkpt>
      <trkpt lat="42.53874333" lon="-8.01830667">
        <ele>701.0</ele>
        <time>2018-10-03T12:02:53.000Z</time>
      </trkpt>
      <trkpt lat="42.53875333" lon="-8.018325">
        <ele>701.0</ele>
        <time>2018-10-03T12:02:54.000Z</time>
      </trkpt>
      <trkpt lat="42.53876167" lon="-8.01834333">
        <ele>701.0</ele>
        <time>2018-10-03T12:02:55.000Z</time>
      </trkpt>
      <trkpt lat="42.53876833" lon="-8.01836">
        <ele>701.0</ele>
        <time>2018-10-03T12:02:56.000Z</time>
      </trkpt>
      <trkpt lat="42.53877667" lon="-8.01837833">
        <ele>701.0</ele>
        <time>2018-10-03T12:02:57.000Z</time>
      </trkpt>
      <trkpt lat="42.53878667" lon="-8.01839333">
        <ele>702.0</ele>
        <time>2018-10-03T12:02:58.000Z</time>
      </trkpt>
      <trkpt lat="42.53879667" lon="-8.01841">
        <ele>702.0</ele>
        <time>2018-10-03T12:02:59.000Z</time>
      </trkpt>
      <trkpt lat="42.53880833" lon="-8.018425">
        <ele>702.0</ele>
        <time>2018-10-03T12:03:00.000Z</time>
      </trkpt>
      <trkpt lat="42.53881833" lon="-8.01844333">
        <ele>702.0</ele>
        <time>2018-10-03T12:03:01.000Z</time>
      </trkpt>
      <trkpt lat="42.53882833" lon="-8.01846">
        <ele>702.0</ele>
        <time>2018-10-03T12:03:02.000Z</time>
      </trkpt>
      <trkpt lat="42.53883833" lon="-8.01847833">
        <ele>702.0</ele>
        <time>2018-10-03T12:03:03.000Z</time>
      </trkpt>
      <trkpt lat="42.53884667" lon="-8.01849667">
        <ele>703.0</ele>
        <time>2018-10-03T12:03:04.000Z</time>
      </trkpt>
      <trkpt lat="42.538855" lon="-8.01851333">
        <ele>703.0</ele>
        <time>2018-10-03T12:03:05.000Z</time>
      </trkpt>
      <trkpt lat="42.53886333" lon="-8.01853">
        <ele>703.0</ele>
        <time>2018-10-03T12:03:06.000Z</time>
      </trkpt>
      <trkpt lat="42.53887" lon="-8.01855">
        <ele>703.0</ele>
        <time>2018-10-03T12:03:07.000Z</time>
      </trkpt>
      <trkpt lat="42.53887667" lon="-8.01856667">
        <ele>703.0</ele>
        <time>2018-10-03T12:03:08.000Z</time>
      </trkpt>
      <trkpt lat="42.538885" lon="-8.018585">
        <ele>703.0</ele>
        <time>2018-10-03T12:03:09.000Z</time>
      </trkpt>
      <trkpt lat="42.538895" lon="-8.018605">
        <ele>703.0</ele>
        <time>2018-10-03T12:03:10.000Z</time>
      </trkpt>
      <trkpt lat="42.53890167" lon="-8.01862167">
        <ele>703.0</ele>
        <time>2018-10-03T12:03:11.000Z</time>
      </trkpt>
      <trkpt lat="42.53891167" lon="-8.01864">
        <ele>703.0</ele>
        <time>2018-10-03T12:03:12.000Z</time>
      </trkpt>
      <trkpt lat="42.53892167" lon="-8.01865833">
        <ele>703.0</ele>
        <time>2018-10-03T12:03:13.000Z</time>
      </trkpt>
      <trkpt lat="42.53893167" lon="-8.01867667">
        <ele>703.0</ele>
        <time>2018-10-03T12:03:14.000Z</time>
      </trkpt>
      <trkpt lat="42.53894" lon="-8.01869333">
        <ele>703.0</ele>
        <time>2018-10-03T12:03:15.000Z</time>
      </trkpt>
      <trkpt lat="42.538945" lon="-8.01870833">
        <ele>703.0</ele>
        <time>2018-10-03T12:03:16.000Z</time>
      </trkpt>
      <trkpt lat="42.53895" lon="-8.01872333">
        <ele>703.0</ele>
        <time>2018-10-03T12:03:17.000Z</time>
      </trkpt>
      <trkpt lat="42.53895667" lon="-8.01873833">
        <ele>703.0</ele>
        <time>2018-10-03T12:03:18.000Z</time>
      </trkpt>
      <trkpt lat="42.538965" lon="-8.018755">
        <ele>703.0</ele>
        <time>2018-10-03T12:03:19.000Z</time>
      </trkpt>
      <trkpt lat="42.538975" lon="-8.01877167">
        <ele>703.0</ele>
        <time>2018-10-03T12:03:20.000Z</time>
      </trkpt>
      <trkpt lat="42.538985" lon="-8.01878833">
        <ele>703.0</ele>
        <time>2018-10-03T12:03:21.000Z</time>
      </trkpt>
      <trkpt lat="42.538995" lon="-8.01880667">
        <ele>703.0</ele>
        <time>2018-10-03T12:03:22.000Z</time>
      </trkpt>
      <trkpt lat="42.539005" lon="-8.01882333">
        <ele>703.0</ele>
        <time>2018-10-03T12:03:23.000Z</time>
      </trkpt>
      <trkpt lat="42.539015" lon="-8.01884">
        <ele>703.0</ele>
        <time>2018-10-03T12:03:24.000Z</time>
      </trkpt>
      <trkpt lat="42.53902333" lon="-8.01885667">
        <ele>704.0</ele>
        <time>2018-10-03T12:03:25.000Z</time>
      </trkpt>
      <trkpt lat="42.53903167" lon="-8.01887333">
        <ele>704.0</ele>
        <time>2018-10-03T12:03:26.000Z</time>
      </trkpt>
      <trkpt lat="42.53903667" lon="-8.01889167">
        <ele>704.0</ele>
        <time>2018-10-03T12:03:27.000Z</time>
      </trkpt>
      <trkpt lat="42.53904333" lon="-8.01890667">
        <ele>704.0</ele>
        <time>2018-10-03T12:03:28.000Z</time>
      </trkpt>
      <trkpt lat="42.53905167" lon="-8.01892333">
        <ele>704.0</ele>
        <time>2018-10-03T12:03:29.000Z</time>
      </trkpt>
      <trkpt lat="42.53906167" lon="-8.01893833">
        <ele>704.0</ele>
        <time>2018-10-03T12:03:30.000Z</time>
      </trkpt>
      <trkpt lat="42.53907" lon="-8.018955">
        <ele>704.0</ele>
        <time>2018-10-03T12:03:31.000Z</time>
      </trkpt>
      <trkpt lat="42.53908" lon="-8.01897167">
        <ele>704.0</ele>
        <time>2018-10-03T12:03:32.000Z</time>
      </trkpt>
      <trkpt lat="42.53908833" lon="-8.01899">
        <ele>704.0</ele>
        <time>2018-10-03T12:03:33.000Z</time>
      </trkpt>
      <trkpt lat="42.53909833" lon="-8.019005">
        <ele>705.0</ele>
        <time>2018-10-03T12:03:34.000Z</time>
      </trkpt>
      <trkpt lat="42.53910667" lon="-8.01902167">
        <ele>705.0</ele>
        <time>2018-10-03T12:03:35.000Z</time>
      </trkpt>
      <trkpt lat="42.53911667" lon="-8.01903833">
        <ele>705.0</ele>
        <time>2018-10-03T12:03:36.000Z</time>
      </trkpt>
      <trkpt lat="42.539125" lon="-8.01905333">
        <ele>705.0</ele>
        <time>2018-10-03T12:03:37.000Z</time>
      </trkpt>
      <trkpt lat="42.539135" lon="-8.01906833">
        <ele>705.0</ele>
        <time>2018-10-03T12:03:38.000Z</time>
      </trkpt>
      <trkpt lat="42.53914333" lon="-8.01908667">
        <ele>705.0</ele>
        <time>2018-10-03T12:03:39.000Z</time>
      </trkpt>
      <trkpt lat="42.53915167" lon="-8.01910333">
        <ele>705.0</ele>
        <time>2018-10-03T12:03:40.000Z</time>
      </trkpt>
      <trkpt lat="42.53916" lon="-8.01912167">
        <ele>705.0</ele>
        <time>2018-10-03T12:03:41.000Z</time>
      </trkpt>
      <trkpt lat="42.53916833" lon="-8.01914">
        <ele>706.0</ele>
        <time>2018-10-03T12:03:42.000Z</time>
      </trkpt>
      <trkpt lat="42.53917833" lon="-8.01915667">
        <ele>706.0</ele>
        <time>2018-10-03T12:03:43.000Z</time>
      </trkpt>
      <trkpt lat="42.53918833" lon="-8.019175">
        <ele>706.0</ele>
        <time>2018-10-03T12:03:44.000Z</time>
      </trkpt>
      <trkpt lat="42.53919667" lon="-8.01919167">
        <ele>706.0</ele>
        <time>2018-10-03T12:03:45.000Z</time>
      </trkpt>
      <trkpt lat="42.53920167" lon="-8.01921">
        <ele>706.0</ele>
        <time>2018-10-03T12:03:46.000Z</time>
      </trkpt>
      <trkpt lat="42.53920667" lon="-8.01923">
        <ele>706.0</ele>
        <time>2018-10-03T12:03:47.000Z</time>
      </trkpt>
      <trkpt lat="42.53921333" lon="-8.01924833">
        <ele>706.0</ele>
        <time>2018-10-03T12:03:48.000Z</time>
      </trkpt>
      <trkpt lat="42.53921833" lon="-8.01926667">
        <ele>706.0</ele>
        <time>2018-10-03T12:03:49.000Z</time>
      </trkpt>
      <trkpt lat="42.53922333" lon="-8.019285">
        <ele>706.0</ele>
        <time>2018-10-03T12:03:50.000Z</time>
      </trkpt>
      <trkpt lat="42.53923" lon="-8.0193">
        <ele>706.0</ele>
        <time>2018-10-03T12:03:51.000Z</time>
      </trkpt>
      <trkpt lat="42.53923667" lon="-8.01931833">
        <ele>707.0</ele>
        <time>2018-10-03T12:03:52.000Z</time>
      </trkpt>
      <trkpt lat="42.53924333" lon="-8.01933667">
        <ele>707.0</ele>
        <time>2018-10-03T12:03:53.000Z</time>
      </trkpt>
      <trkpt lat="42.53925" lon="-8.01935333">
        <ele>707.0</ele>
        <time>2018-10-03T12:03:54.000Z</time>
      </trkpt>
      <trkpt lat="42.53925833" lon="-8.01937333">
        <ele>707.0</ele>
        <time>2018-10-03T12:03:55.000Z</time>
      </trkpt>
      <trkpt lat="42.53926333" lon="-8.019395">
        <ele>708.0</ele>
        <time>2018-10-03T12:03:56.000Z</time>
      </trkpt>
      <trkpt lat="42.53927167" lon="-8.019415">
        <ele>708.0</ele>
        <time>2018-10-03T12:03:57.000Z</time>
      </trkpt>
      <trkpt lat="42.53928" lon="-8.01943833">
        <ele>708.0</ele>
        <time>2018-10-03T12:03:58.000Z</time>
      </trkpt>
      <trkpt lat="42.53928833" lon="-8.01945833">
        <ele>708.0</ele>
        <time>2018-10-03T12:03:59.000Z</time>
      </trkpt>
      <trkpt lat="42.53929833" lon="-8.01947833">
        <ele>708.0</ele>
        <time>2018-10-03T12:04:00.000Z</time>
      </trkpt>
      <trkpt lat="42.539305" lon="-8.019495">
        <ele>709.0</ele>
        <time>2018-10-03T12:04:01.000Z</time>
      </trkpt>
      <trkpt lat="42.53931333" lon="-8.019515">
        <ele>709.0</ele>
        <time>2018-10-03T12:04:02.000Z</time>
      </trkpt>
      <trkpt lat="42.53932" lon="-8.01953333">
        <ele>709.0</ele>
        <time>2018-10-03T12:04:03.000Z</time>
      </trkpt>
      <trkpt lat="42.53932667" lon="-8.01955167">
        <ele>709.0</ele>
        <time>2018-10-03T12:04:04.000Z</time>
      </trkpt>
      <trkpt lat="42.53933333" lon="-8.01956833">
        <ele>710.0</ele>
        <time>2018-10-03T12:04:05.000Z</time>
      </trkpt>
      <trkpt lat="42.53934333" lon="-8.019585">
        <ele>710.0</ele>
        <time>2018-10-03T12:04:06.000Z</time>
      </trkpt>
      <trkpt lat="42.53935167" lon="-8.01960167">
        <ele>710.0</ele>
        <time>2018-10-03T12:04:07.000Z</time>
      </trkpt>
      <trkpt lat="42.53936" lon="-8.01961667">
        <ele>711.0</ele>
        <time>2018-10-03T12:04:08.000Z</time>
      </trkpt>
      <trkpt lat="42.53936833" lon="-8.019635">
        <ele>711.0</ele>
        <time>2018-10-03T12:04:09.000Z</time>
      </trkpt>
      <trkpt lat="42.53937667" lon="-8.01965">
        <ele>711.0</ele>
        <time>2018-10-03T12:04:10.000Z</time>
      </trkpt>
      <trkpt lat="42.53938667" lon="-8.01966667">
        <ele>711.0</ele>
        <time>2018-10-03T12:04:11.000Z</time>
      </trkpt>
      <trkpt lat="42.539395" lon="-8.01968333">
        <ele>711.0</ele>
        <time>2018-10-03T12:04:12.000Z</time>
      </trkpt>
      <trkpt lat="42.53940167" lon="-8.01970167">
        <ele>711.0</ele>
        <time>2018-10-03T12:04:13.000Z</time>
      </trkpt>
      <trkpt lat="42.53941" lon="-8.01971833">
        <ele>711.0</ele>
        <time>2018-10-03T12:04:14.000Z</time>
      </trkpt>
      <trkpt lat="42.53941833" lon="-8.019735">
        <ele>712.0</ele>
        <time>2018-10-03T12:04:15.000Z</time>
      </trkpt>
      <trkpt lat="42.53942833" lon="-8.01975167">
        <ele>712.0</ele>
        <time>2018-10-03T12:04:16.000Z</time>
      </trkpt>
      <trkpt lat="42.539435" lon="-8.01976833">
        <ele>712.0</ele>
        <time>2018-10-03T12:04:17.000Z</time>
      </trkpt>
      <trkpt lat="42.53944333" lon="-8.019785">
        <ele>712.0</ele>
        <time>2018-10-03T12:04:18.000Z</time>
      </trkpt>
      <trkpt lat="42.53945" lon="-8.01980333">
        <ele>712.0</ele>
        <time>2018-10-03T12:04:19.000Z</time>
      </trkpt>
      <trkpt lat="42.53945667" lon="-8.01982167">
        <ele>713.0</ele>
        <time>2018-10-03T12:04:20.000Z</time>
      </trkpt>
      <trkpt lat="42.539465" lon="-8.01983667">
        <ele>713.0</ele>
        <time>2018-10-03T12:04:21.000Z</time>
      </trkpt>
      <trkpt lat="42.53947333" lon="-8.01985333">
        <ele>713.0</ele>
        <time>2018-10-03T12:04:22.000Z</time>
      </trkpt>
      <trkpt lat="42.53948333" lon="-8.01987">
        <ele>713.0</ele>
        <time>2018-10-03T12:04:23.000Z</time>
      </trkpt>
      <trkpt lat="42.53949167" lon="-8.01988667">
        <ele>713.0</ele>
        <time>2018-10-03T12:04:24.000Z</time>
      </trkpt>
      <trkpt lat="42.53950167" lon="-8.01990167">
        <ele>713.0</ele>
        <time>2018-10-03T12:04:25.000Z</time>
      </trkpt>
      <trkpt lat="42.53951167" lon="-8.01991667">
        <ele>714.0</ele>
        <time>2018-10-03T12:04:26.000Z</time>
      </trkpt>
      <trkpt lat="42.53952" lon="-8.01993333">
        <ele>714.0</ele>
        <time>2018-10-03T12:04:27.000Z</time>
      </trkpt>
      <trkpt lat="42.53953167" lon="-8.01995">
        <ele>714.0</ele>
        <time>2018-10-03T12:04:28.000Z</time>
      </trkpt>
      <trkpt lat="42.53954" lon="-8.01996833">
        <ele>714.0</ele>
        <time>2018-10-03T12:04:29.000Z</time>
      </trkpt>
      <trkpt lat="42.53955" lon="-8.019985">
        <ele>714.0</ele>
        <time>2018-10-03T12:04:30.000Z</time>
      </trkpt>
      <trkpt lat="42.53956" lon="-8.02000167">
        <ele>715.0</ele>
        <time>2018-10-03T12:04:31.000Z</time>
      </trkpt>
      <trkpt lat="42.53957167" lon="-8.02001833">
        <ele>715.0</ele>
        <time>2018-10-03T12:04:32.000Z</time>
      </trkpt>
      <trkpt lat="42.53958333" lon="-8.02003333">
        <ele>715.0</ele>
        <time>2018-10-03T12:04:33.000Z</time>
      </trkpt>
      <trkpt lat="42.53959333" lon="-8.02005">
        <ele>715.0</ele>
        <time>2018-10-03T12:04:34.000Z</time>
      </trkpt>
      <trkpt lat="42.539605" lon="-8.02006667">
        <ele>715.0</ele>
        <time>2018-10-03T12:04:35.000Z</time>
      </trkpt>
      <trkpt lat="42.53961833" lon="-8.02008167">
        <ele>715.0</ele>
        <time>2018-10-03T12:04:36.000Z</time>
      </trkpt>
      <trkpt lat="42.53963167" lon="-8.02009833">
        <ele>716.0</ele>
        <time>2018-10-03T12:04:37.000Z</time>
      </trkpt>
      <trkpt lat="42.539645" lon="-8.02011333">
        <ele>716.0</ele>
        <time>2018-10-03T12:04:38.000Z</time>
      </trkpt>
      <trkpt lat="42.53966" lon="-8.02012833">
        <ele>716.0</ele>
        <time>2018-10-03T12:04:39.000Z</time>
      </trkpt>
      <trkpt lat="42.53967333" lon="-8.02014333">
        <ele>717.0</ele>
        <time>2018-10-03T12:04:40.000Z</time>
      </trkpt>
      <trkpt lat="42.539685" lon="-8.02015833">
        <ele>717.0</ele>
        <time>2018-10-03T12:04:41.000Z</time>
      </trkpt>
      <trkpt lat="42.53969333" lon="-8.02017167">
        <ele>717.0</ele>
        <time>2018-10-03T12:04:42.000Z</time>
      </trkpt>
      <trkpt lat="42.539705" lon="-8.020185">
        <ele>717.0</ele>
        <time>2018-10-03T12:04:43.000Z</time>
      </trkpt>
      <trkpt lat="42.539715" lon="-8.0202">
        <ele>717.0</ele>
        <time>2018-10-03T12:04:44.000Z</time>
      </trkpt>
      <trkpt lat="42.539725" lon="-8.02021333">
        <ele>717.0</ele>
        <time>2018-10-03T12:04:45.000Z</time>
      </trkpt>
      <trkpt lat="42.53973333" lon="-8.02022667">
        <ele>717.0</ele>
        <time>2018-10-03T12:04:46.000Z</time>
      </trkpt>
      <trkpt lat="42.53974667" lon="-8.02023833">
        <ele>717.0</ele>
        <time>2018-10-03T12:04:47.000Z</time>
      </trkpt>
      <trkpt lat="42.53975833" lon="-8.02025333">
        <ele>718.0</ele>
        <time>2018-10-03T12:04:48.000Z</time>
      </trkpt>
      <trkpt lat="42.53977" lon="-8.02026667">
        <ele>718.0</ele>
        <time>2018-10-03T12:04:49.000Z</time>
      </trkpt>
      <trkpt lat="42.53978333" lon="-8.02028167">
        <ele>718.0</ele>
        <time>2018-10-03T12:04:50.000Z</time>
      </trkpt>
      <trkpt lat="42.539795" lon="-8.02029667">
        <ele>718.0</ele>
        <time>2018-10-03T12:04:51.000Z</time>
      </trkpt>
      <trkpt lat="42.539805" lon="-8.02031">
        <ele>718.0</ele>
        <time>2018-10-03T12:04:52.000Z</time>
      </trkpt>
      <trkpt lat="42.53981667" lon="-8.020325">
        <ele>718.0</ele>
        <time>2018-10-03T12:04:53.000Z</time>
      </trkpt>
      <trkpt lat="42.53983167" lon="-8.02034">
        <ele>718.0</ele>
        <time>2018-10-03T12:04:54.000Z</time>
      </trkpt>
      <trkpt lat="42.53984667" lon="-8.02035333">
        <ele>718.0</ele>
        <time>2018-10-03T12:04:55.000Z</time>
      </trkpt>
      <trkpt lat="42.53986" lon="-8.02036667">
        <ele>718.0</ele>
        <time>2018-10-03T12:04:56.000Z</time>
      </trkpt>
      <trkpt lat="42.53987167" lon="-8.02037833">
        <ele>718.0</ele>
        <time>2018-10-03T12:04:57.000Z</time>
      </trkpt>
      <trkpt lat="42.53988667" lon="-8.02039167">
        <ele>718.0</ele>
        <time>2018-10-03T12:04:58.000Z</time>
      </trkpt>
      <trkpt lat="42.5399" lon="-8.020405">
        <ele>718.0</ele>
        <time>2018-10-03T12:04:59.000Z</time>
      </trkpt>
      <trkpt lat="42.539915" lon="-8.02041833">
        <ele>718.0</ele>
        <time>2018-10-03T12:05:00.000Z</time>
      </trkpt>
      <trkpt lat="42.53992833" lon="-8.02043">
        <ele>718.0</ele>
        <time>2018-10-03T12:05:01.000Z</time>
      </trkpt>
      <trkpt lat="42.53994333" lon="-8.02044333">
        <ele>718.0</ele>
        <time>2018-10-03T12:05:02.000Z</time>
      </trkpt>
      <trkpt lat="42.539955" lon="-8.020455">
        <ele>719.0</ele>
        <time>2018-10-03T12:05:03.000Z</time>
      </trkpt>
      <trkpt lat="42.53996833" lon="-8.02046667">
        <ele>719.0</ele>
        <time>2018-10-03T12:05:04.000Z</time>
      </trkpt>
      <trkpt lat="42.53998167" lon="-8.02048">
        <ele>719.0</ele>
        <time>2018-10-03T12:05:05.000Z</time>
      </trkpt>
      <trkpt lat="42.539995" lon="-8.02049167">
        <ele>719.0</ele>
        <time>2018-10-03T12:05:06.000Z</time>
      </trkpt>
      <trkpt lat="42.54001" lon="-8.02050333">
        <ele>719.0</ele>
        <time>2018-10-03T12:05:07.000Z</time>
      </trkpt>
      <trkpt lat="42.54002333" lon="-8.02051167">
        <ele>719.0</ele>
        <time>2018-10-03T12:05:08.000Z</time>
      </trkpt>
      <trkpt lat="42.54003667" lon="-8.02052167">
        <ele>719.0</ele>
        <time>2018-10-03T12:05:09.000Z</time>
      </trkpt>
      <trkpt lat="42.54005" lon="-8.02053">
        <ele>719.0</ele>
        <time>2018-10-03T12:05:10.000Z</time>
      </trkpt>
      <trkpt lat="42.54006333" lon="-8.02053667">
        <ele>719.0</ele>
        <time>2018-10-03T12:05:11.000Z</time>
      </trkpt>
      <trkpt lat="42.540075" lon="-8.020545">
        <ele>719.0</ele>
        <time>2018-10-03T12:05:12.000Z</time>
      </trkpt>
      <trkpt lat="42.54008833" lon="-8.02055167">
        <ele>719.0</ele>
        <time>2018-10-03T12:05:13.000Z</time>
      </trkpt>
      <trkpt lat="42.54010333" lon="-8.02056">
        <ele>719.0</ele>
        <time>2018-10-03T12:05:14.000Z</time>
      </trkpt>
      <trkpt lat="42.54011333" lon="-8.02057">
        <ele>719.0</ele>
        <time>2018-10-03T12:05:15.000Z</time>
      </trkpt>
      <trkpt lat="42.54013667" lon="-8.02057">
        <ele>719.0</ele>
        <time>2018-10-03T12:05:16.000Z</time>
      </trkpt>
      <trkpt lat="42.54016333" lon="-8.02057333">
        <ele>719.0</ele>
        <time>2018-10-03T12:05:17.000Z</time>
      </trkpt>
      <trkpt lat="42.54019333" lon="-8.020575">
        <ele>719.0</ele>
        <time>2018-10-03T12:05:18.000Z</time>
      </trkpt>
      <trkpt lat="42.54021167" lon="-8.02058">
        <ele>719.0</ele>
        <time>2018-10-03T12:05:19.000Z</time>
      </trkpt>
      <trkpt lat="42.54022833" lon="-8.02059">
        <ele>719.0</ele>
        <time>2018-10-03T12:05:20.000Z</time>
      </trkpt>
      <trkpt lat="42.54024167" lon="-8.02059667">
        <ele>719.0</ele>
        <time>2018-10-03T12:05:21.000Z</time>
      </trkpt>
      <trkpt lat="42.54025167" lon="-8.0206">
        <ele>719.0</ele>
        <time>2018-10-03T12:05:22.000Z</time>
      </trkpt>
      <trkpt lat="42.54026333" lon="-8.020605">
        <ele>719.0</ele>
        <time>2018-10-03T12:05:23.000Z</time>
      </trkpt>
      <trkpt lat="42.54026833" lon="-8.020605">
        <ele>719.0</ele>
        <time>2018-10-03T12:05:24.000Z</time>
      </trkpt>
      <trkpt lat="42.54027667" lon="-8.02060833">
        <ele>719.0</ele>
        <time>2018-10-03T12:05:25.000Z</time>
      </trkpt>
      <trkpt lat="42.54028667" lon="-8.02061">
        <ele>719.0</ele>
        <time>2018-10-03T12:05:26.000Z</time>
      </trkpt>
      <trkpt lat="42.54029833" lon="-8.02061333">
        <ele>719.0</ele>
        <time>2018-10-03T12:05:27.000Z</time>
      </trkpt>
      <trkpt lat="42.54031167" lon="-8.02062">
        <ele>719.0</ele>
        <time>2018-10-03T12:05:28.000Z</time>
      </trkpt>
      <trkpt lat="42.540325" lon="-8.02062667">
        <ele>719.0</ele>
        <time>2018-10-03T12:05:29.000Z</time>
      </trkpt>
      <trkpt lat="42.54034" lon="-8.02063167">
        <ele>719.0</ele>
        <time>2018-10-03T12:05:30.000Z</time>
      </trkpt>
      <trkpt lat="42.540355" lon="-8.02063667">
        <ele>719.0</ele>
        <time>2018-10-03T12:05:31.000Z</time>
      </trkpt>
      <trkpt lat="42.54036833" lon="-8.02064167">
        <ele>719.0</ele>
        <time>2018-10-03T12:05:32.000Z</time>
      </trkpt>
      <trkpt lat="42.54038333" lon="-8.02064667">
        <ele>719.0</ele>
        <time>2018-10-03T12:05:33.000Z</time>
      </trkpt>
      <trkpt lat="42.54039667" lon="-8.02065167">
        <ele>719.0</ele>
        <time>2018-10-03T12:05:34.000Z</time>
      </trkpt>
      <trkpt lat="42.54041167" lon="-8.02065667">
        <ele>719.0</ele>
        <time>2018-10-03T12:05:35.000Z</time>
      </trkpt>
      <trkpt lat="42.54042667" lon="-8.02066167">
        <ele>719.0</ele>
        <time>2018-10-03T12:05:36.000Z</time>
      </trkpt>
      <trkpt lat="42.54044167" lon="-8.02066833">
        <ele>719.0</ele>
        <time>2018-10-03T12:05:37.000Z</time>
      </trkpt>
      <trkpt lat="42.54045167" lon="-8.02067667">
        <ele>719.0</ele>
        <time>2018-10-03T12:05:38.000Z</time>
      </trkpt>
      <trkpt lat="42.540465" lon="-8.02068333">
        <ele>719.0</ele>
        <time>2018-10-03T12:05:39.000Z</time>
      </trkpt>
      <trkpt lat="42.54048" lon="-8.02069167">
        <ele>719.0</ele>
        <time>2018-10-03T12:05:40.000Z</time>
      </trkpt>
      <trkpt lat="42.54049667" lon="-8.02069833">
        <ele>719.0</ele>
        <time>2018-10-03T12:05:41.000Z</time>
      </trkpt>
      <trkpt lat="42.54051167" lon="-8.02070333">
        <ele>720.0</ele>
        <time>2018-10-03T12:05:42.000Z</time>
      </trkpt>
      <trkpt lat="42.54052667" lon="-8.02070833">
        <ele>720.0</ele>
        <time>2018-10-03T12:05:43.000Z</time>
      </trkpt>
      <trkpt lat="42.54054167" lon="-8.02071167">
        <ele>720.0</ele>
        <time>2018-10-03T12:05:44.000Z</time>
      </trkpt>
      <trkpt lat="42.54055667" lon="-8.02071667">
        <ele>720.0</ele>
        <time>2018-10-03T12:05:45.000Z</time>
      </trkpt>
      <trkpt lat="42.54057167" lon="-8.02072167">
        <ele>720.0</ele>
        <time>2018-10-03T12:05:46.000Z</time>
      </trkpt>
      <trkpt lat="42.54058667" lon="-8.02072667">
        <ele>720.0</ele>
        <time>2018-10-03T12:05:47.000Z</time>
      </trkpt>
      <trkpt lat="42.54060167" lon="-8.02073333">
        <ele>720.0</ele>
        <time>2018-10-03T12:05:48.000Z</time>
      </trkpt>
      <trkpt lat="42.54061667" lon="-8.02073667">
        <ele>720.0</ele>
        <time>2018-10-03T12:05:49.000Z</time>
      </trkpt>
      <trkpt lat="42.54063" lon="-8.02074167">
        <ele>720.0</ele>
        <time>2018-10-03T12:05:50.000Z</time>
      </trkpt>
      <trkpt lat="42.54064333" lon="-8.02074667">
        <ele>721.0</ele>
        <time>2018-10-03T12:05:51.000Z</time>
      </trkpt>
      <trkpt lat="42.54065833" lon="-8.02075167">
        <ele>721.0</ele>
        <time>2018-10-03T12:05:52.000Z</time>
      </trkpt>
      <trkpt lat="42.540675" lon="-8.02075833">
        <ele>721.0</ele>
        <time>2018-10-03T12:05:53.000Z</time>
      </trkpt>
      <trkpt lat="42.54068833" lon="-8.020765">
        <ele>721.0</ele>
        <time>2018-10-03T12:05:54.000Z</time>
      </trkpt>
      <trkpt lat="42.54070333" lon="-8.02077167">
        <ele>721.0</ele>
        <time>2018-10-03T12:05:55.000Z</time>
      </trkpt>
      <trkpt lat="42.54071833" lon="-8.02077667">
        <ele>721.0</ele>
        <time>2018-10-03T12:05:56.000Z</time>
      </trkpt>
      <trkpt lat="42.540735" lon="-8.02078167">
        <ele>721.0</ele>
        <time>2018-10-03T12:05:57.000Z</time>
      </trkpt>
      <trkpt lat="42.54075" lon="-8.02078833">
        <ele>721.0</ele>
        <time>2018-10-03T12:05:58.000Z</time>
      </trkpt>
      <trkpt lat="42.540765" lon="-8.02079333">
        <ele>722.0</ele>
        <time>2018-10-03T12:05:59.000Z</time>
      </trkpt>
      <trkpt lat="42.54078" lon="-8.0208">
        <ele>722.0</ele>
        <time>2018-10-03T12:06:00.000Z</time>
      </trkpt>
      <trkpt lat="42.54079333" lon="-8.020805">
        <ele>722.0</ele>
        <time>2018-10-03T12:06:01.000Z</time>
      </trkpt>
      <trkpt lat="42.54080833" lon="-8.02081">
        <ele>722.0</ele>
        <time>2018-10-03T12:06:02.000Z</time>
      </trkpt>
      <trkpt lat="42.54082333" lon="-8.02081833">
        <ele>722.0</ele>
        <time>2018-10-03T12:06:03.000Z</time>
      </trkpt>
      <trkpt lat="42.54083833" lon="-8.02082667">
        <ele>722.0</ele>
        <time>2018-10-03T12:06:04.000Z</time>
      </trkpt>
      <trkpt lat="42.54085167" lon="-8.02083333">
        <ele>722.0</ele>
        <time>2018-10-03T12:06:05.000Z</time>
      </trkpt>
      <trkpt lat="42.54086333" lon="-8.02084333">
        <ele>722.0</ele>
        <time>2018-10-03T12:06:06.000Z</time>
      </trkpt>
      <trkpt lat="42.54087667" lon="-8.02085333">
        <ele>722.0</ele>
        <time>2018-10-03T12:06:07.000Z</time>
      </trkpt>
      <trkpt lat="42.54088667" lon="-8.02086167">
        <ele>722.0</ele>
        <time>2018-10-03T12:06:08.000Z</time>
      </trkpt>
      <trkpt lat="42.540895" lon="-8.02087">
        <ele>722.0</ele>
        <time>2018-10-03T12:06:09.000Z</time>
      </trkpt>
      <trkpt lat="42.54090167" lon="-8.02087833">
        <ele>722.0</ele>
        <time>2018-10-03T12:06:10.000Z</time>
      </trkpt>
      <trkpt lat="42.54090833" lon="-8.020885">
        <ele>722.0</ele>
        <time>2018-10-03T12:06:11.000Z</time>
      </trkpt>
      <trkpt lat="42.54091833" lon="-8.02089333">
        <ele>722.0</ele>
        <time>2018-10-03T12:06:12.000Z</time>
      </trkpt>
      <trkpt lat="42.54093" lon="-8.02090333">
        <ele>722.0</ele>
        <time>2018-10-03T12:06:13.000Z</time>
      </trkpt>
      <trkpt lat="42.54094167" lon="-8.02091333">
        <ele>722.0</ele>
        <time>2018-10-03T12:06:14.000Z</time>
      </trkpt>
      <trkpt lat="42.540955" lon="-8.02092167">
        <ele>723.0</ele>
        <time>2018-10-03T12:06:15.000Z</time>
      </trkpt>
      <trkpt lat="42.54096833" lon="-8.02093167">
        <ele>723.0</ele>
        <time>2018-10-03T12:06:16.000Z</time>
      </trkpt>
      <trkpt lat="42.54098667" lon="-8.020945">
        <ele>723.0</ele>
        <time>2018-10-03T12:06:17.000Z</time>
      </trkpt>
      <trkpt lat="42.54100667" lon="-8.02095833">
        <ele>723.0</ele>
        <time>2018-10-03T12:06:18.000Z</time>
      </trkpt>
      <trkpt lat="42.54102667" lon="-8.02097167">
        <ele>723.0</ele>
        <time>2018-10-03T12:06:19.000Z</time>
      </trkpt>
      <trkpt lat="42.54104833" lon="-8.02098333">
        <ele>723.0</ele>
        <time>2018-10-03T12:06:20.000Z</time>
      </trkpt>
      <trkpt lat="42.54107167" lon="-8.02099167">
        <ele>723.0</ele>
        <time>2018-10-03T12:06:21.000Z</time>
      </trkpt>
      <trkpt lat="42.54108833" lon="-8.02100167">
        <ele>723.0</ele>
        <time>2018-10-03T12:06:22.000Z</time>
      </trkpt>
      <trkpt lat="42.54110167" lon="-8.02100833">
        <ele>724.0</ele>
        <time>2018-10-03T12:06:23.000Z</time>
      </trkpt>
      <trkpt lat="42.541115" lon="-8.02101">
        <ele>724.0</ele>
        <time>2018-10-03T12:06:24.000Z</time>
      </trkpt>
      <trkpt lat="42.54112833" lon="-8.02100833">
        <ele>724.0</ele>
        <time>2018-10-03T12:06:25.000Z</time>
      </trkpt>
      <trkpt lat="42.54114167" lon="-8.02100667">
        <ele>724.0</ele>
        <time>2018-10-03T12:06:26.000Z</time>
      </trkpt>
      <trkpt lat="42.541155" lon="-8.02100833">
        <ele>724.0</ele>
        <time>2018-10-03T12:06:27.000Z</time>
      </trkpt>
      <trkpt lat="42.54116833" lon="-8.02101">
        <ele>724.0</ele>
        <time>2018-10-03T12:06:28.000Z</time>
      </trkpt>
      <trkpt lat="42.54118167" lon="-8.021015">
        <ele>724.0</ele>
        <time>2018-10-03T12:06:29.000Z</time>
      </trkpt>
      <trkpt lat="42.54119333" lon="-8.02102">
        <ele>725.0</ele>
        <time>2018-10-03T12:06:30.000Z</time>
      </trkpt>
      <trkpt lat="42.54120333" lon="-8.02102667">
        <ele>725.0</ele>
        <time>2018-10-03T12:06:31.000Z</time>
      </trkpt>
      <trkpt lat="42.54121333" lon="-8.02103667">
        <ele>725.0</ele>
        <time>2018-10-03T12:06:32.000Z</time>
      </trkpt>
      <trkpt lat="42.54122167" lon="-8.02104833">
        <ele>725.0</ele>
        <time>2018-10-03T12:06:33.000Z</time>
      </trkpt>
      <trkpt lat="42.54123" lon="-8.02106167">
        <ele>725.0</ele>
        <time>2018-10-03T12:06:34.000Z</time>
      </trkpt>
      <trkpt lat="42.541235" lon="-8.021075">
        <ele>725.0</ele>
        <time>2018-10-03T12:06:35.000Z</time>
      </trkpt>
      <trkpt lat="42.54123667" lon="-8.02108833">
        <ele>725.0</ele>
        <time>2018-10-03T12:06:36.000Z</time>
      </trkpt>
      <trkpt lat="42.54124" lon="-8.02110333">
        <ele>725.0</ele>
        <time>2018-10-03T12:06:37.000Z</time>
      </trkpt>
      <trkpt lat="42.54124167" lon="-8.02111833">
        <ele>725.0</ele>
        <time>2018-10-03T12:06:38.000Z</time>
      </trkpt>
      <trkpt lat="42.541245" lon="-8.02113333">
        <ele>726.0</ele>
        <time>2018-10-03T12:06:39.000Z</time>
      </trkpt>
      <trkpt lat="42.54124833" lon="-8.02114833">
        <ele>726.0</ele>
        <time>2018-10-03T12:06:40.000Z</time>
      </trkpt>
      <trkpt lat="42.54125167" lon="-8.02116167">
        <ele>726.0</ele>
        <time>2018-10-03T12:06:41.000Z</time>
      </trkpt>
      <trkpt lat="42.54125333" lon="-8.021175">
        <ele>726.0</ele>
        <time>2018-10-03T12:06:42.000Z</time>
      </trkpt>
      <trkpt lat="42.54125333" lon="-8.02119167">
        <ele>726.0</ele>
        <time>2018-10-03T12:06:43.000Z</time>
      </trkpt>
      <trkpt lat="42.54125333" lon="-8.021205">
        <ele>726.0</ele>
        <time>2018-10-03T12:06:44.000Z</time>
      </trkpt>
      <trkpt lat="42.54125333" lon="-8.02122">
        <ele>726.0</ele>
        <time>2018-10-03T12:06:45.000Z</time>
      </trkpt>
      <trkpt lat="42.54125333" lon="-8.02123333">
        <ele>726.0</ele>
        <time>2018-10-03T12:06:46.000Z</time>
      </trkpt>
      <trkpt lat="42.54125167" lon="-8.02124667">
        <ele>726.0</ele>
        <time>2018-10-03T12:06:47.000Z</time>
      </trkpt>
      <trkpt lat="42.54124667" lon="-8.02126">
        <ele>726.0</ele>
        <time>2018-10-03T12:06:48.000Z</time>
      </trkpt>
      <trkpt lat="42.54124" lon="-8.02127333">
        <ele>725.0</ele>
        <time>2018-10-03T12:06:49.000Z</time>
      </trkpt>
      <trkpt lat="42.541235" lon="-8.02129">
        <ele>725.0</ele>
        <time>2018-10-03T12:06:50.000Z</time>
      </trkpt>
      <trkpt lat="42.54123" lon="-8.02130667">
        <ele>725.0</ele>
        <time>2018-10-03T12:06:51.000Z</time>
      </trkpt>
      <trkpt lat="42.54122833" lon="-8.02132333">
        <ele>725.0</ele>
        <time>2018-10-03T12:06:52.000Z</time>
      </trkpt>
      <trkpt lat="42.541225" lon="-8.02134">
        <ele>725.0</ele>
        <time>2018-10-03T12:06:53.000Z</time>
      </trkpt>
      <trkpt lat="42.54122333" lon="-8.02135667">
        <ele>725.0</ele>
        <time>2018-10-03T12:06:54.000Z</time>
      </trkpt>
      <trkpt lat="42.54122167" lon="-8.02137167">
        <ele>725.0</ele>
        <time>2018-10-03T12:06:55.000Z</time>
      </trkpt>
      <trkpt lat="42.54122" lon="-8.02139">
        <ele>725.0</ele>
        <time>2018-10-03T12:06:56.000Z</time>
      </trkpt>
      <trkpt lat="42.54121667" lon="-8.02140667">
        <ele>726.0</ele>
        <time>2018-10-03T12:06:57.000Z</time>
      </trkpt>
      <trkpt lat="42.541215" lon="-8.021425">
        <ele>726.0</ele>
        <time>2018-10-03T12:06:58.000Z</time>
      </trkpt>
      <trkpt lat="42.54121333" lon="-8.02144333">
        <ele>726.0</ele>
        <time>2018-10-03T12:06:59.000Z</time>
      </trkpt>
      <trkpt lat="42.54121" lon="-8.02146333">
        <ele>726.0</ele>
        <time>2018-10-03T12:07:00.000Z</time>
      </trkpt>
      <trkpt lat="42.54120833" lon="-8.02148167">
        <ele>726.0</ele>
        <time>2018-10-03T12:07:01.000Z</time>
      </trkpt>
      <trkpt lat="42.54120667" lon="-8.02150167">
        <ele>726.0</ele>
        <time>2018-10-03T12:07:02.000Z</time>
      </trkpt>
      <trkpt lat="42.54120333" lon="-8.02152">
        <ele>727.0</ele>
        <time>2018-10-03T12:07:03.000Z</time>
      </trkpt>
      <trkpt lat="42.54120167" lon="-8.02154">
        <ele>727.0</ele>
        <time>2018-10-03T12:07:04.000Z</time>
      </trkpt>
      <trkpt lat="42.5412" lon="-8.02155833">
        <ele>727.0</ele>
        <time>2018-10-03T12:07:05.000Z</time>
      </trkpt>
      <trkpt lat="42.54119667" lon="-8.02157833">
        <ele>727.0</ele>
        <time>2018-10-03T12:07:06.000Z</time>
      </trkpt>
      <trkpt lat="42.54119333" lon="-8.02159667">
        <ele>728.0</ele>
        <time>2018-10-03T12:07:07.000Z</time>
      </trkpt>
      <trkpt lat="42.54119" lon="-8.02161333">
        <ele>728.0</ele>
        <time>2018-10-03T12:07:08.000Z</time>
      </trkpt>
      <trkpt lat="42.54119" lon="-8.02163">
        <ele>728.0</ele>
        <time>2018-10-03T12:07:09.000Z</time>
      </trkpt>
      <trkpt lat="42.54118833" lon="-8.02164833">
        <ele>728.0</ele>
        <time>2018-10-03T12:07:10.000Z</time>
      </trkpt>
      <trkpt lat="42.54118667" lon="-8.02166667">
        <ele>728.0</ele>
        <time>2018-10-03T12:07:11.000Z</time>
      </trkpt>
      <trkpt lat="42.541185" lon="-8.02168333">
        <ele>729.0</ele>
        <time>2018-10-03T12:07:12.000Z</time>
      </trkpt>
      <trkpt lat="42.54118667" lon="-8.0217">
        <ele>729.0</ele>
        <time>2018-10-03T12:07:13.000Z</time>
      </trkpt>
      <trkpt lat="42.54118333" lon="-8.02171667">
        <ele>729.0</ele>
        <time>2018-10-03T12:07:14.000Z</time>
      </trkpt>
      <trkpt lat="42.54118" lon="-8.02173333">
        <ele>729.0</ele>
        <time>2018-10-03T12:07:15.000Z</time>
      </trkpt>
      <trkpt lat="42.54118167" lon="-8.02175167">
        <ele>729.0</ele>
        <time>2018-10-03T12:07:16.000Z</time>
      </trkpt>
      <trkpt lat="42.54118167" lon="-8.02176833">
        <ele>730.0</ele>
        <time>2018-10-03T12:07:17.000Z</time>
      </trkpt>
      <trkpt lat="42.54118" lon="-8.021785">
        <ele>730.0</ele>
        <time>2018-10-03T12:07:18.000Z</time>
      </trkpt>
      <trkpt lat="42.54117667" lon="-8.02180167">
        <ele>730.0</ele>
        <time>2018-10-03T12:07:19.000Z</time>
      </trkpt>
      <trkpt lat="42.54117667" lon="-8.02181833">
        <ele>730.0</ele>
        <time>2018-10-03T12:07:20.000Z</time>
      </trkpt>
      <trkpt lat="42.54117667" lon="-8.02183667">
        <ele>730.0</ele>
        <time>2018-10-03T12:07:21.000Z</time>
      </trkpt>
      <trkpt lat="42.54117667" lon="-8.021855">
        <ele>730.0</ele>
        <time>2018-10-03T12:07:22.000Z</time>
      </trkpt>
      <trkpt lat="42.54117667" lon="-8.02187167">
        <ele>731.0</ele>
        <time>2018-10-03T12:07:23.000Z</time>
      </trkpt>
      <trkpt lat="42.54117833" lon="-8.02189167">
        <ele>731.0</ele>
        <time>2018-10-03T12:07:24.000Z</time>
      </trkpt>
      <trkpt lat="42.54118167" lon="-8.02190833">
        <ele>731.0</ele>
        <time>2018-10-03T12:07:25.000Z</time>
      </trkpt>
      <trkpt lat="42.54118167" lon="-8.021925">
        <ele>731.0</ele>
        <time>2018-10-03T12:07:26.000Z</time>
      </trkpt>
      <trkpt lat="42.541185" lon="-8.02194167">
        <ele>731.0</ele>
        <time>2018-10-03T12:07:27.000Z</time>
      </trkpt>
      <trkpt lat="42.54118667" lon="-8.02195667">
        <ele>731.0</ele>
        <time>2018-10-03T12:07:28.000Z</time>
      </trkpt>
      <trkpt lat="42.54118833" lon="-8.02197167">
        <ele>732.0</ele>
        <time>2018-10-03T12:07:29.000Z</time>
      </trkpt>
      <trkpt lat="42.54119167" lon="-8.02198833">
        <ele>732.0</ele>
        <time>2018-10-03T12:07:30.000Z</time>
      </trkpt>
      <trkpt lat="42.541195" lon="-8.02200333">
        <ele>732.0</ele>
        <time>2018-10-03T12:07:31.000Z</time>
      </trkpt>
      <trkpt lat="42.5412" lon="-8.02201833">
        <ele>732.0</ele>
        <time>2018-10-03T12:07:32.000Z</time>
      </trkpt>
      <trkpt lat="42.54120333" lon="-8.02203333">
        <ele>733.0</ele>
        <time>2018-10-03T12:07:33.000Z</time>
      </trkpt>
      <trkpt lat="42.54120833" lon="-8.02204833">
        <ele>733.0</ele>
        <time>2018-10-03T12:07:34.000Z</time>
      </trkpt>
      <trkpt lat="42.54121167" lon="-8.02206333">
        <ele>733.0</ele>
        <time>2018-10-03T12:07:35.000Z</time>
      </trkpt>
      <trkpt lat="42.541215" lon="-8.02207667">
        <ele>733.0</ele>
        <time>2018-10-03T12:07:36.000Z</time>
      </trkpt>
      <trkpt lat="42.541215" lon="-8.02209333">
        <ele>733.0</ele>
        <time>2018-10-03T12:07:37.000Z</time>
      </trkpt>
      <trkpt lat="42.541215" lon="-8.02211">
        <ele>733.0</ele>
        <time>2018-10-03T12:07:38.000Z</time>
      </trkpt>
      <trkpt lat="42.541215" lon="-8.02212333">
        <ele>734.0</ele>
        <time>2018-10-03T12:07:39.000Z</time>
      </trkpt>
      <trkpt lat="42.54121667" lon="-8.02213167">
        <ele>734.0</ele>
        <time>2018-10-03T12:07:40.000Z</time>
      </trkpt>
      <trkpt lat="42.54121667" lon="-8.02214">
        <ele>734.0</ele>
        <time>2018-10-03T12:07:41.000Z</time>
      </trkpt>
      <trkpt lat="42.54121833" lon="-8.02215333">
        <ele>734.0</ele>
        <time>2018-10-03T12:07:42.000Z</time>
      </trkpt>
      <trkpt lat="42.54122" lon="-8.02216833">
        <ele>734.0</ele>
        <time>2018-10-03T12:07:43.000Z</time>
      </trkpt>
      <trkpt lat="42.54122167" lon="-8.02218333">
        <ele>734.0</ele>
        <time>2018-10-03T12:07:44.000Z</time>
      </trkpt>
      <trkpt lat="42.54122167" lon="-8.02219833">
        <ele>735.0</ele>
        <time>2018-10-03T12:07:45.000Z</time>
      </trkpt>
      <trkpt lat="42.54122333" lon="-8.022215">
        <ele>735.0</ele>
        <time>2018-10-03T12:07:46.000Z</time>
      </trkpt>
      <trkpt lat="42.54122333" lon="-8.02223167">
        <ele>735.0</ele>
        <time>2018-10-03T12:07:47.000Z</time>
      </trkpt>
      <trkpt lat="42.54122333" lon="-8.02224833">
        <ele>735.0</ele>
        <time>2018-10-03T12:07:48.000Z</time>
      </trkpt>
      <trkpt lat="42.541225" lon="-8.022265">
        <ele>735.0</ele>
        <time>2018-10-03T12:07:49.000Z</time>
      </trkpt>
      <trkpt lat="42.541225" lon="-8.02228167">
        <ele>735.0</ele>
        <time>2018-10-03T12:07:50.000Z</time>
      </trkpt>
      <trkpt lat="42.54122667" lon="-8.02229667">
        <ele>735.0</ele>
        <time>2018-10-03T12:07:51.000Z</time>
      </trkpt>
      <trkpt lat="42.54122833" lon="-8.02231333">
        <ele>736.0</ele>
        <time>2018-10-03T12:07:52.000Z</time>
      </trkpt>
      <trkpt lat="42.54123167" lon="-8.02233">
        <ele>736.0</ele>
        <time>2018-10-03T12:07:53.000Z</time>
      </trkpt>
      <trkpt lat="42.541235" lon="-8.02234667">
        <ele>736.0</ele>
        <time>2018-10-03T12:07:54.000Z</time>
      </trkpt>
      <trkpt lat="42.54124167" lon="-8.02236333">
        <ele>736.0</ele>
        <time>2018-10-03T12:07:55.000Z</time>
      </trkpt>
      <trkpt lat="42.54125" lon="-8.02237833">
        <ele>736.0</ele>
        <time>2018-10-03T12:07:56.000Z</time>
      </trkpt>
      <trkpt lat="42.541255" lon="-8.022395">
        <ele>737.0</ele>
        <time>2018-10-03T12:07:57.000Z</time>
      </trkpt>
      <trkpt lat="42.54126333" lon="-8.02241167">
        <ele>737.0</ele>
        <time>2018-10-03T12:07:58.000Z</time>
      </trkpt>
      <trkpt lat="42.54127" lon="-8.02242833">
        <ele>737.0</ele>
        <time>2018-10-03T12:07:59.000Z</time>
      </trkpt>
      <trkpt lat="42.54127667" lon="-8.02244333">
        <ele>737.0</ele>
        <time>2018-10-03T12:08:00.000Z</time>
      </trkpt>
      <trkpt lat="42.54128333" lon="-8.02246">
        <ele>738.0</ele>
        <time>2018-10-03T12:08:01.000Z</time>
      </trkpt>
      <trkpt lat="42.54129" lon="-8.022475">
        <ele>738.0</ele>
        <time>2018-10-03T12:08:02.000Z</time>
      </trkpt>
      <trkpt lat="42.5413" lon="-8.02249167">
        <ele>738.0</ele>
        <time>2018-10-03T12:08:03.000Z</time>
      </trkpt>
      <trkpt lat="42.541305" lon="-8.02250667">
        <ele>738.0</ele>
        <time>2018-10-03T12:08:04.000Z</time>
      </trkpt>
      <trkpt lat="42.54131333" lon="-8.02252167">
        <ele>738.0</ele>
        <time>2018-10-03T12:08:05.000Z</time>
      </trkpt>
      <trkpt lat="42.54132167" lon="-8.022535">
        <ele>739.0</ele>
        <time>2018-10-03T12:08:06.000Z</time>
      </trkpt>
      <trkpt lat="42.54133167" lon="-8.02254833">
        <ele>739.0</ele>
        <time>2018-10-03T12:08:07.000Z</time>
      </trkpt>
      <trkpt lat="42.54134" lon="-8.02256167">
        <ele>740.0</ele>
        <time>2018-10-03T12:08:08.000Z</time>
      </trkpt>
      <trkpt lat="42.54135" lon="-8.02257333">
        <ele>740.0</ele>
        <time>2018-10-03T12:08:09.000Z</time>
      </trkpt>
      <trkpt lat="42.54136" lon="-8.02258333">
        <ele>741.0</ele>
        <time>2018-10-03T12:08:10.000Z</time>
      </trkpt>
      <trkpt lat="42.54136833" lon="-8.02259167">
        <ele>741.0</ele>
        <time>2018-10-03T12:08:11.000Z</time>
      </trkpt>
      <trkpt lat="42.54137833" lon="-8.02260333">
        <ele>741.0</ele>
        <time>2018-10-03T12:08:12.000Z</time>
      </trkpt>
      <trkpt lat="42.54138667" lon="-8.02261167">
        <ele>742.0</ele>
        <time>2018-10-03T12:08:13.000Z</time>
      </trkpt>
      <trkpt lat="42.54139833" lon="-8.02262">
        <ele>742.0</ele>
        <time>2018-10-03T12:08:14.000Z</time>
      </trkpt>
      <trkpt lat="42.54141" lon="-8.02262833">
        <ele>742.0</ele>
        <time>2018-10-03T12:08:15.000Z</time>
      </trkpt>
      <trkpt lat="42.54142167" lon="-8.02263667">
        <ele>743.0</ele>
        <time>2018-10-03T12:08:16.000Z</time>
      </trkpt>
      <trkpt lat="42.541435" lon="-8.02264333">
        <ele>743.0</ele>
        <time>2018-10-03T12:08:17.000Z</time>
      </trkpt>
      <trkpt lat="42.541445" lon="-8.02265">
        <ele>743.0</ele>
        <time>2018-10-03T12:08:18.000Z</time>
      </trkpt>
      <trkpt lat="42.54145667" lon="-8.02265833">
        <ele>744.0</ele>
        <time>2018-10-03T12:08:19.000Z</time>
      </trkpt>
      <trkpt lat="42.54146667" lon="-8.02266667">
        <ele>744.0</ele>
        <time>2018-10-03T12:08:20.000Z</time>
      </trkpt>
      <trkpt lat="42.54148" lon="-8.02267333">
        <ele>744.0</ele>
        <time>2018-10-03T12:08:21.000Z</time>
      </trkpt>
      <trkpt lat="42.54149167" lon="-8.02268">
        <ele>744.0</ele>
        <time>2018-10-03T12:08:22.000Z</time>
      </trkpt>
      <trkpt lat="42.54150333" lon="-8.02268667">
        <ele>745.0</ele>
        <time>2018-10-03T12:08:23.000Z</time>
      </trkpt>
      <trkpt lat="42.541515" lon="-8.02269333">
        <ele>745.0</ele>
        <time>2018-10-03T12:08:24.000Z</time>
      </trkpt>
      <trkpt lat="42.54152833" lon="-8.0227">
        <ele>745.0</ele>
        <time>2018-10-03T12:08:25.000Z</time>
      </trkpt>
      <trkpt lat="42.54154" lon="-8.02270667">
        <ele>746.0</ele>
        <time>2018-10-03T12:08:26.000Z</time>
      </trkpt>
      <trkpt lat="42.54155167" lon="-8.022715">
        <ele>746.0</ele>
        <time>2018-10-03T12:08:27.000Z</time>
      </trkpt>
      <trkpt lat="42.54156333" lon="-8.02272">
        <ele>746.0</ele>
        <time>2018-10-03T12:08:28.000Z</time>
      </trkpt>
      <trkpt lat="42.541575" lon="-8.02272833">
        <ele>746.0</ele>
        <time>2018-10-03T12:08:29.000Z</time>
      </trkpt>
      <trkpt lat="42.54158667" lon="-8.02273333">
        <ele>746.0</ele>
        <time>2018-10-03T12:08:30.000Z</time>
      </trkpt>
      <trkpt lat="42.54159833" lon="-8.02273833">
        <ele>747.0</ele>
        <time>2018-10-03T12:08:31.000Z</time>
      </trkpt>
      <trkpt lat="42.54161" lon="-8.02274333">
        <ele>747.0</ele>
        <time>2018-10-03T12:08:32.000Z</time>
      </trkpt>
      <trkpt lat="42.54162167" lon="-8.02274833">
        <ele>747.0</ele>
        <time>2018-10-03T12:08:33.000Z</time>
      </trkpt>
      <trkpt lat="42.54163167" lon="-8.022755">
        <ele>747.0</ele>
        <time>2018-10-03T12:08:34.000Z</time>
      </trkpt>
      <trkpt lat="42.54164" lon="-8.02275667">
        <ele>747.0</ele>
        <time>2018-10-03T12:08:35.000Z</time>
      </trkpt>
      <trkpt lat="42.54165" lon="-8.02275833">
        <ele>747.0</ele>
        <time>2018-10-03T12:08:36.000Z</time>
      </trkpt>
      <trkpt lat="42.54166" lon="-8.02276">
        <ele>747.0</ele>
        <time>2018-10-03T12:08:37.000Z</time>
      </trkpt>
      <trkpt lat="42.54167" lon="-8.022765">
        <ele>747.0</ele>
        <time>2018-10-03T12:08:38.000Z</time>
      </trkpt>
      <trkpt lat="42.54168167" lon="-8.02277167">
        <ele>748.0</ele>
        <time>2018-10-03T12:08:39.000Z</time>
      </trkpt>
      <trkpt lat="42.54169333" lon="-8.02278">
        <ele>748.0</ele>
        <time>2018-10-03T12:08:40.000Z</time>
      </trkpt>
      <trkpt lat="42.54170667" lon="-8.022785">
        <ele>748.0</ele>
        <time>2018-10-03T12:08:41.000Z</time>
      </trkpt>
      <trkpt lat="42.54172333" lon="-8.02278833">
        <ele>748.0</ele>
        <time>2018-10-03T12:08:42.000Z</time>
      </trkpt>
      <trkpt lat="42.54173667" lon="-8.02279167">
        <ele>748.0</ele>
        <time>2018-10-03T12:08:43.000Z</time>
      </trkpt>
      <trkpt lat="42.54174833" lon="-8.02279667">
        <ele>748.0</ele>
        <time>2018-10-03T12:08:44.000Z</time>
      </trkpt>
      <trkpt lat="42.54175833" lon="-8.0228">
        <ele>749.0</ele>
        <time>2018-10-03T12:08:45.000Z</time>
      </trkpt>
      <trkpt lat="42.54177167" lon="-8.022805">
        <ele>749.0</ele>
        <time>2018-10-03T12:08:46.000Z</time>
      </trkpt>
      <trkpt lat="42.54178667" lon="-8.02281">
        <ele>749.0</ele>
        <time>2018-10-03T12:08:47.000Z</time>
      </trkpt>
      <trkpt lat="42.54180167" lon="-8.02281667">
        <ele>749.0</ele>
        <time>2018-10-03T12:08:48.000Z</time>
      </trkpt>
      <trkpt lat="42.54181833" lon="-8.02282333">
        <ele>749.0</ele>
        <time>2018-10-03T12:08:49.000Z</time>
      </trkpt>
      <trkpt lat="42.54183333" lon="-8.02283167">
        <ele>750.0</ele>
        <time>2018-10-03T12:08:50.000Z</time>
      </trkpt>
      <trkpt lat="42.54184667" lon="-8.02284">
        <ele>750.0</ele>
        <time>2018-10-03T12:08:51.000Z</time>
      </trkpt>
      <trkpt lat="42.54186167" lon="-8.02284667">
        <ele>750.0</ele>
        <time>2018-10-03T12:08:52.000Z</time>
      </trkpt>
      <trkpt lat="42.54187667" lon="-8.022855">
        <ele>750.0</ele>
        <time>2018-10-03T12:08:53.000Z</time>
      </trkpt>
      <trkpt lat="42.54189167" lon="-8.02286333">
        <ele>751.0</ele>
        <time>2018-10-03T12:08:54.000Z</time>
      </trkpt>
      <trkpt lat="42.54190667" lon="-8.02287167">
        <ele>751.0</ele>
        <time>2018-10-03T12:08:55.000Z</time>
      </trkpt>
      <trkpt lat="42.54192" lon="-8.02288167">
        <ele>751.0</ele>
        <time>2018-10-03T12:08:56.000Z</time>
      </trkpt>
      <trkpt lat="42.54193667" lon="-8.02289167">
        <ele>751.0</ele>
        <time>2018-10-03T12:08:57.000Z</time>
      </trkpt>
      <trkpt lat="42.54195667" lon="-8.0229">
        <ele>751.0</ele>
        <time>2018-10-03T12:08:58.000Z</time>
      </trkpt>
      <trkpt lat="42.54197167" lon="-8.02291">
        <ele>751.0</ele>
        <time>2018-10-03T12:08:59.000Z</time>
      </trkpt>
      <trkpt lat="42.54198667" lon="-8.02291833">
        <ele>751.0</ele>
        <time>2018-10-03T12:09:00.000Z</time>
      </trkpt>
      <trkpt lat="42.54199833" lon="-8.02292833">
        <ele>752.0</ele>
        <time>2018-10-03T12:09:01.000Z</time>
      </trkpt>
      <trkpt lat="42.54201167" lon="-8.02293333">
        <ele>752.0</ele>
        <time>2018-10-03T12:09:02.000Z</time>
      </trkpt>
      <trkpt lat="42.54202" lon="-8.02294">
        <ele>752.0</ele>
        <time>2018-10-03T12:09:03.000Z</time>
      </trkpt>
      <trkpt lat="42.54202667" lon="-8.02294667">
        <ele>752.0</ele>
        <time>2018-10-03T12:09:04.000Z</time>
      </trkpt>
      <trkpt lat="42.54202833" lon="-8.02295">
        <ele>752.0</ele>
        <time>2018-10-03T12:09:05.000Z</time>
      </trkpt>
      <trkpt lat="42.54202667" lon="-8.022955">
        <ele>752.0</ele>
        <time>2018-10-03T12:09:06.000Z</time>
      </trkpt>
      <trkpt lat="42.542025" lon="-8.02296333">
        <ele>752.0</ele>
        <time>2018-10-03T12:09:07.000Z</time>
      </trkpt>
      <trkpt lat="42.54202667" lon="-8.02297167">
        <ele>752.0</ele>
        <time>2018-10-03T12:09:08.000Z</time>
      </trkpt>
      <trkpt lat="42.54203167" lon="-8.02297667">
        <ele>752.0</ele>
        <time>2018-10-03T12:09:09.000Z</time>
      </trkpt>
      <trkpt lat="42.54204" lon="-8.022985">
        <ele>752.0</ele>
        <time>2018-10-03T12:09:10.000Z</time>
      </trkpt>
      <trkpt lat="42.54205333" lon="-8.02299333">
        <ele>752.0</ele>
        <time>2018-10-03T12:09:11.000Z</time>
      </trkpt>
      <trkpt lat="42.54207" lon="-8.02300333">
        <ele>752.0</ele>
        <time>2018-10-03T12:09:12.000Z</time>
      </trkpt>
      <trkpt lat="42.542085" lon="-8.023015">
        <ele>752.0</ele>
        <time>2018-10-03T12:09:13.000Z</time>
      </trkpt>
      <trkpt lat="42.54210333" lon="-8.02302667">
        <ele>752.0</ele>
        <time>2018-10-03T12:09:14.000Z</time>
      </trkpt>
      <trkpt lat="42.54211833" lon="-8.02303833">
        <ele>753.0</ele>
        <time>2018-10-03T12:09:15.000Z</time>
      </trkpt>
      <trkpt lat="42.542135" lon="-8.02305">
        <ele>753.0</ele>
        <time>2018-10-03T12:09:16.000Z</time>
      </trkpt>
      <trkpt lat="42.54215167" lon="-8.02306">
        <ele>753.0</ele>
        <time>2018-10-03T12:09:17.000Z</time>
      </trkpt>
      <trkpt lat="42.54216667" lon="-8.02307167">
        <ele>753.0</ele>
        <time>2018-10-03T12:09:18.000Z</time>
      </trkpt>
      <trkpt lat="42.54218167" lon="-8.02308333">
        <ele>753.0</ele>
        <time>2018-10-03T12:09:19.000Z</time>
      </trkpt>
      <trkpt lat="42.54219667" lon="-8.023095">
        <ele>753.0</ele>
        <time>2018-10-03T12:09:20.000Z</time>
      </trkpt>
      <trkpt lat="42.54221167" lon="-8.023105">
        <ele>753.0</ele>
        <time>2018-10-03T12:09:21.000Z</time>
      </trkpt>
      <trkpt lat="42.542225" lon="-8.02311667">
        <ele>753.0</ele>
        <time>2018-10-03T12:09:22.000Z</time>
      </trkpt>
      <trkpt lat="42.54224" lon="-8.02312667">
        <ele>753.0</ele>
        <time>2018-10-03T12:09:23.000Z</time>
      </trkpt>
      <trkpt lat="42.542255" lon="-8.02313667">
        <ele>753.0</ele>
        <time>2018-10-03T12:09:24.000Z</time>
      </trkpt>
      <trkpt lat="42.54226833" lon="-8.02314833">
        <ele>753.0</ele>
        <time>2018-10-03T12:09:25.000Z</time>
      </trkpt>
      <trkpt lat="42.54228167" lon="-8.02315667">
        <ele>753.0</ele>
        <time>2018-10-03T12:09:26.000Z</time>
      </trkpt>
      <trkpt lat="42.54229667" lon="-8.02316667">
        <ele>754.0</ele>
        <time>2018-10-03T12:09:27.000Z</time>
      </trkpt>
      <trkpt lat="42.54231" lon="-8.02317833">
        <ele>754.0</ele>
        <time>2018-10-03T12:09:28.000Z</time>
      </trkpt>
      <trkpt lat="42.542325" lon="-8.02318833">
        <ele>754.0</ele>
        <time>2018-10-03T12:09:29.000Z</time>
      </trkpt>
      <trkpt lat="42.54234" lon="-8.0232">
        <ele>754.0</ele>
        <time>2018-10-03T12:09:30.000Z</time>
      </trkpt>
      <trkpt lat="42.542355" lon="-8.02321167">
        <ele>754.0</ele>
        <time>2018-10-03T12:09:31.000Z</time>
      </trkpt>
      <trkpt lat="42.54237" lon="-8.02322167">
        <ele>754.0</ele>
        <time>2018-10-03T12:09:32.000Z</time>
      </trkpt>
      <trkpt lat="42.542385" lon="-8.02323">
        <ele>754.0</ele>
        <time>2018-10-03T12:09:33.000Z</time>
      </trkpt>
      <trkpt lat="42.5424" lon="-8.02324">
        <ele>754.0</ele>
        <time>2018-10-03T12:09:34.000Z</time>
      </trkpt>
      <trkpt lat="42.54241333" lon="-8.02325">
        <ele>754.0</ele>
        <time>2018-10-03T12:09:35.000Z</time>
      </trkpt>
      <trkpt lat="42.54242667" lon="-8.02325833">
        <ele>754.0</ele>
        <time>2018-10-03T12:09:36.000Z</time>
      </trkpt>
      <trkpt lat="42.54244" lon="-8.02326833">
        <ele>754.0</ele>
        <time>2018-10-03T12:09:37.000Z</time>
      </trkpt>
      <trkpt lat="42.54245333" lon="-8.02327833">
        <ele>754.0</ele>
        <time>2018-10-03T12:09:38.000Z</time>
      </trkpt>
      <trkpt lat="42.54246667" lon="-8.02328833">
        <ele>753.0</ele>
        <time>2018-10-03T12:09:39.000Z</time>
      </trkpt>
      <trkpt lat="42.54248" lon="-8.02329833">
        <ele>753.0</ele>
        <time>2018-10-03T12:09:40.000Z</time>
      </trkpt>
      <trkpt lat="42.542495" lon="-8.02331">
        <ele>753.0</ele>
        <time>2018-10-03T12:09:41.000Z</time>
      </trkpt>
      <trkpt lat="42.54251" lon="-8.02332">
        <ele>753.0</ele>
        <time>2018-10-03T12:09:42.000Z</time>
      </trkpt>
      <trkpt lat="42.54252333" lon="-8.02333167">
        <ele>753.0</ele>
        <time>2018-10-03T12:09:43.000Z</time>
      </trkpt>
      <trkpt lat="42.54253833" lon="-8.02334167">
        <ele>753.0</ele>
        <time>2018-10-03T12:09:44.000Z</time>
      </trkpt>
      <trkpt lat="42.54255167" lon="-8.02335167">
        <ele>754.0</ele>
        <time>2018-10-03T12:09:45.000Z</time>
      </trkpt>
      <trkpt lat="42.54256667" lon="-8.02336">
        <ele>754.0</ele>
        <time>2018-10-03T12:09:46.000Z</time>
      </trkpt>
      <trkpt lat="42.54258167" lon="-8.02336833">
        <ele>754.0</ele>
        <time>2018-10-03T12:09:47.000Z</time>
      </trkpt>
      <trkpt lat="42.54259833" lon="-8.02337833">
        <ele>754.0</ele>
        <time>2018-10-03T12:09:48.000Z</time>
      </trkpt>
      <trkpt lat="42.54261167" lon="-8.02339">
        <ele>754.0</ele>
        <time>2018-10-03T12:09:49.000Z</time>
      </trkpt>
      <trkpt lat="42.542625" lon="-8.02339833">
        <ele>754.0</ele>
        <time>2018-10-03T12:09:50.000Z</time>
      </trkpt>
      <trkpt lat="42.54263833" lon="-8.023405">
        <ele>754.0</ele>
        <time>2018-10-03T12:09:51.000Z</time>
      </trkpt>
      <trkpt lat="42.54264833" lon="-8.023415">
        <ele>754.0</ele>
        <time>2018-10-03T12:09:52.000Z</time>
      </trkpt>
      <trkpt lat="42.54265333" lon="-8.023425">
        <ele>754.0</ele>
        <time>2018-10-03T12:09:53.000Z</time>
      </trkpt>
      <trkpt lat="42.54266167" lon="-8.02343333">
        <ele>754.0</ele>
        <time>2018-10-03T12:09:54.000Z</time>
      </trkpt>
      <trkpt lat="42.542675" lon="-8.02344333">
        <ele>754.0</ele>
        <time>2018-10-03T12:09:55.000Z</time>
      </trkpt>
      <trkpt lat="42.54269" lon="-8.023455">
        <ele>754.0</ele>
        <time>2018-10-03T12:09:56.000Z</time>
      </trkpt>
      <trkpt lat="42.54270667" lon="-8.023465">
        <ele>754.0</ele>
        <time>2018-10-03T12:09:57.000Z</time>
      </trkpt>
      <trkpt lat="42.54272" lon="-8.02347667">
        <ele>754.0</ele>
        <time>2018-10-03T12:09:58.000Z</time>
      </trkpt>
      <trkpt lat="42.542735" lon="-8.02348833">
        <ele>754.0</ele>
        <time>2018-10-03T12:09:59.000Z</time>
      </trkpt>
      <trkpt lat="42.54274833" lon="-8.02349833">
        <ele>754.0</ele>
        <time>2018-10-03T12:10:00.000Z</time>
      </trkpt>
      <trkpt lat="42.54276" lon="-8.02351">
        <ele>754.0</ele>
        <time>2018-10-03T12:10:01.000Z</time>
      </trkpt>
      <trkpt lat="42.54277167" lon="-8.02352167">
        <ele>754.0</ele>
        <time>2018-10-03T12:10:02.000Z</time>
      </trkpt>
      <trkpt lat="42.54278167" lon="-8.02353333">
        <ele>754.0</ele>
        <time>2018-10-03T12:10:03.000Z</time>
      </trkpt>
      <trkpt lat="42.54279333" lon="-8.02354333">
        <ele>754.0</ele>
        <time>2018-10-03T12:10:04.000Z</time>
      </trkpt>
      <trkpt lat="42.542805" lon="-8.02355333">
        <ele>754.0</ele>
        <time>2018-10-03T12:10:05.000Z</time>
      </trkpt>
      <trkpt lat="42.54281667" lon="-8.02356167">
        <ele>754.0</ele>
        <time>2018-10-03T12:10:06.000Z</time>
      </trkpt>
      <trkpt lat="42.54282833" lon="-8.02357">
        <ele>754.0</ele>
        <time>2018-10-03T12:10:07.000Z</time>
      </trkpt>
      <trkpt lat="42.54282833" lon="-8.02357667">
        <ele>754.0</ele>
        <time>2018-10-03T12:10:08.000Z</time>
      </trkpt>
      <trkpt lat="42.54283333" lon="-8.02358667">
        <ele>754.0</ele>
        <time>2018-10-03T12:10:09.000Z</time>
      </trkpt>
      <trkpt lat="42.54285" lon="-8.02359167">
        <ele>754.0</ele>
        <time>2018-10-03T12:10:10.000Z</time>
      </trkpt>
      <trkpt lat="42.54287" lon="-8.02359833">
        <ele>754.0</ele>
        <time>2018-10-03T12:10:11.000Z</time>
      </trkpt>
      <trkpt lat="42.54289167" lon="-8.02360333">
        <ele>754.0</ele>
        <time>2018-10-03T12:10:12.000Z</time>
      </trkpt>
      <trkpt lat="42.54291167" lon="-8.02360667">
        <ele>754.0</ele>
        <time>2018-10-03T12:10:13.000Z</time>
      </trkpt>
      <trkpt lat="42.54292833" lon="-8.02361167">
        <ele>754.0</ele>
        <time>2018-10-03T12:10:14.000Z</time>
      </trkpt>
      <trkpt lat="42.542945" lon="-8.02362">
        <ele>754.0</ele>
        <time>2018-10-03T12:10:15.000Z</time>
      </trkpt>
      <trkpt lat="42.54295833" lon="-8.02363">
        <ele>754.0</ele>
        <time>2018-10-03T12:10:16.000Z</time>
      </trkpt>
      <trkpt lat="42.54297" lon="-8.02364">
        <ele>753.0</ele>
        <time>2018-10-03T12:10:17.000Z</time>
      </trkpt>
      <trkpt lat="42.54298333" lon="-8.02364833">
        <ele>753.0</ele>
        <time>2018-10-03T12:10:18.000Z</time>
      </trkpt>
      <trkpt lat="42.542995" lon="-8.023655">
        <ele>753.0</ele>
        <time>2018-10-03T12:10:19.000Z</time>
      </trkpt>
      <trkpt lat="42.54300833" lon="-8.02366">
        <ele>753.0</ele>
        <time>2018-10-03T12:10:20.000Z</time>
      </trkpt>
      <trkpt lat="42.54302333" lon="-8.02366833">
        <ele>753.0</ele>
        <time>2018-10-03T12:10:21.000Z</time>
      </trkpt>
      <trkpt lat="42.54303667" lon="-8.02367667">
        <ele>753.0</ele>
        <time>2018-10-03T12:10:22.000Z</time>
      </trkpt>
      <trkpt lat="42.54305333" lon="-8.023685">
        <ele>753.0</ele>
        <time>2018-10-03T12:10:23.000Z</time>
      </trkpt>
      <trkpt lat="42.54307" lon="-8.023695">
        <ele>752.0</ele>
        <time>2018-10-03T12:10:24.000Z</time>
      </trkpt>
      <trkpt lat="42.543085" lon="-8.02370333">
        <ele>752.0</ele>
        <time>2018-10-03T12:10:25.000Z</time>
      </trkpt>
      <trkpt lat="42.5431" lon="-8.02371">
        <ele>752.0</ele>
        <time>2018-10-03T12:10:26.000Z</time>
      </trkpt>
      <trkpt lat="42.543115" lon="-8.02371833">
        <ele>752.0</ele>
        <time>2018-10-03T12:10:27.000Z</time>
      </trkpt>
      <trkpt lat="42.54312833" lon="-8.02373">
        <ele>752.0</ele>
        <time>2018-10-03T12:10:28.000Z</time>
      </trkpt>
      <trkpt lat="42.54314167" lon="-8.02374">
        <ele>752.0</ele>
        <time>2018-10-03T12:10:29.000Z</time>
      </trkpt>
      <trkpt lat="42.54315333" lon="-8.02375">
        <ele>752.0</ele>
        <time>2018-10-03T12:10:30.000Z</time>
      </trkpt>
      <trkpt lat="42.543165" lon="-8.02376">
        <ele>752.0</ele>
        <time>2018-10-03T12:10:31.000Z</time>
      </trkpt>
      <trkpt lat="42.54317667" lon="-8.02377">
        <ele>752.0</ele>
        <time>2018-10-03T12:10:32.000Z</time>
      </trkpt>
      <trkpt lat="42.54319" lon="-8.02378167">
        <ele>752.0</ele>
        <time>2018-10-03T12:10:33.000Z</time>
      </trkpt>
      <trkpt lat="42.543205" lon="-8.02379333">
        <ele>752.0</ele>
        <time>2018-10-03T12:10:34.000Z</time>
      </trkpt>
      <trkpt lat="42.54322" lon="-8.02380667">
        <ele>751.0</ele>
        <time>2018-10-03T12:10:35.000Z</time>
      </trkpt>
      <trkpt lat="42.543235" lon="-8.02382167">
        <ele>751.0</ele>
        <time>2018-10-03T12:10:36.000Z</time>
      </trkpt>
      <trkpt lat="42.54324667" lon="-8.023835">
        <ele>751.0</ele>
        <time>2018-10-03T12:10:37.000Z</time>
      </trkpt>
      <trkpt lat="42.54326" lon="-8.02385">
        <ele>751.0</ele>
        <time>2018-10-03T12:10:38.000Z</time>
      </trkpt>
      <trkpt lat="42.54327" lon="-8.023865">
        <ele>751.0</ele>
        <time>2018-10-03T12:10:39.000Z</time>
      </trkpt>
      <trkpt lat="42.54328167" lon="-8.02387833">
        <ele>751.0</ele>
        <time>2018-10-03T12:10:40.000Z</time>
      </trkpt>
      <trkpt lat="42.54329333" lon="-8.023895">
        <ele>751.0</ele>
        <time>2018-10-03T12:10:41.000Z</time>
      </trkpt>
      <trkpt lat="42.54330167" lon="-8.02391333">
        <ele>751.0</ele>
        <time>2018-10-03T12:10:42.000Z</time>
      </trkpt>
      <trkpt lat="42.54331167" lon="-8.02393">
        <ele>750.0</ele>
        <time>2018-10-03T12:10:43.000Z</time>
      </trkpt>
      <trkpt lat="42.54332" lon="-8.02394667">
        <ele>750.0</ele>
        <time>2018-10-03T12:10:44.000Z</time>
      </trkpt>
      <trkpt lat="42.54332833" lon="-8.02396333">
        <ele>750.0</ele>
        <time>2018-10-03T12:10:45.000Z</time>
      </trkpt>
      <trkpt lat="42.54333333" lon="-8.02397833">
        <ele>750.0</ele>
        <time>2018-10-03T12:10:46.000Z</time>
      </trkpt>
      <trkpt lat="42.54334" lon="-8.023995">
        <ele>749.0</ele>
        <time>2018-10-03T12:10:47.000Z</time>
      </trkpt>
      <trkpt lat="42.54334667" lon="-8.02401167">
        <ele>749.0</ele>
        <time>2018-10-03T12:10:48.000Z</time>
      </trkpt>
      <trkpt lat="42.543355" lon="-8.02403">
        <ele>749.0</ele>
        <time>2018-10-03T12:10:49.000Z</time>
      </trkpt>
      <trkpt lat="42.54336333" lon="-8.02404667">
        <ele>749.0</ele>
        <time>2018-10-03T12:10:50.000Z</time>
      </trkpt>
      <trkpt lat="42.54337167" lon="-8.02406167">
        <ele>749.0</ele>
        <time>2018-10-03T12:10:51.000Z</time>
      </trkpt>
      <trkpt lat="42.54337667" lon="-8.02407667">
        <ele>748.0</ele>
        <time>2018-10-03T12:10:52.000Z</time>
      </trkpt>
      <trkpt lat="42.54338167" lon="-8.02409333">
        <ele>748.0</ele>
        <time>2018-10-03T12:10:53.000Z</time>
      </trkpt>
      <trkpt lat="42.54338167" lon="-8.02411">
        <ele>748.0</ele>
        <time>2018-10-03T12:10:54.000Z</time>
      </trkpt>
      <trkpt lat="42.54338333" lon="-8.02413">
        <ele>748.0</ele>
        <time>2018-10-03T12:10:55.000Z</time>
      </trkpt>
      <trkpt lat="42.543385" lon="-8.02414833">
        <ele>748.0</ele>
        <time>2018-10-03T12:10:56.000Z</time>
      </trkpt>
      <trkpt lat="42.54338333" lon="-8.02416667">
        <ele>748.0</ele>
        <time>2018-10-03T12:10:57.000Z</time>
      </trkpt>
      <trkpt lat="42.54338" lon="-8.02418333">
        <ele>748.0</ele>
        <time>2018-10-03T12:10:58.000Z</time>
      </trkpt>
      <trkpt lat="42.54337833" lon="-8.02420167">
        <ele>748.0</ele>
        <time>2018-10-03T12:10:59.000Z</time>
      </trkpt>
      <trkpt lat="42.54337667" lon="-8.02422">
        <ele>748.0</ele>
        <time>2018-10-03T12:11:00.000Z</time>
      </trkpt>
      <trkpt lat="42.54337667" lon="-8.02424">
        <ele>748.0</ele>
        <time>2018-10-03T12:11:01.000Z</time>
      </trkpt>
      <trkpt lat="42.54338" lon="-8.02425667">
        <ele>748.0</ele>
        <time>2018-10-03T12:11:02.000Z</time>
      </trkpt>
      <trkpt lat="42.54338333" lon="-8.02427333">
        <ele>748.0</ele>
        <time>2018-10-03T12:11:03.000Z</time>
      </trkpt>
      <trkpt lat="42.54338667" lon="-8.02429333">
        <ele>748.0</ele>
        <time>2018-10-03T12:11:04.000Z</time>
      </trkpt>
      <trkpt lat="42.54338667" lon="-8.02431">
        <ele>748.0</ele>
        <time>2018-10-03T12:11:05.000Z</time>
      </trkpt>
      <trkpt lat="42.54338833" lon="-8.02432833">
        <ele>748.0</ele>
        <time>2018-10-03T12:11:06.000Z</time>
      </trkpt>
      <trkpt lat="42.54338667" lon="-8.02434833">
        <ele>748.0</ele>
        <time>2018-10-03T12:11:07.000Z</time>
      </trkpt>
      <trkpt lat="42.543385" lon="-8.02436833">
        <ele>748.0</ele>
        <time>2018-10-03T12:11:08.000Z</time>
      </trkpt>
      <trkpt lat="42.54338333" lon="-8.02438667">
        <ele>748.0</ele>
        <time>2018-10-03T12:11:09.000Z</time>
      </trkpt>
      <trkpt lat="42.543385" lon="-8.02440667">
        <ele>749.0</ele>
        <time>2018-10-03T12:11:10.000Z</time>
      </trkpt>
      <trkpt lat="42.54338333" lon="-8.02442667">
        <ele>749.0</ele>
        <time>2018-10-03T12:11:11.000Z</time>
      </trkpt>
      <trkpt lat="42.54338333" lon="-8.024445">
        <ele>749.0</ele>
        <time>2018-10-03T12:11:12.000Z</time>
      </trkpt>
      <trkpt lat="42.543385" lon="-8.024465">
        <ele>749.0</ele>
        <time>2018-10-03T12:11:13.000Z</time>
      </trkpt>
      <trkpt lat="42.54338667" lon="-8.024485">
        <ele>749.0</ele>
        <time>2018-10-03T12:11:14.000Z</time>
      </trkpt>
      <trkpt lat="42.54338833" lon="-8.02450333">
        <ele>749.0</ele>
        <time>2018-10-03T12:11:15.000Z</time>
      </trkpt>
      <trkpt lat="42.54338833" lon="-8.02452333">
        <ele>749.0</ele>
        <time>2018-10-03T12:11:16.000Z</time>
      </trkpt>
      <trkpt lat="42.54338667" lon="-8.02454333">
        <ele>749.0</ele>
        <time>2018-10-03T12:11:17.000Z</time>
      </trkpt>
      <trkpt lat="42.54338667" lon="-8.024565">
        <ele>749.0</ele>
        <time>2018-10-03T12:11:18.000Z</time>
      </trkpt>
      <trkpt lat="42.54338667" lon="-8.02458167">
        <ele>749.0</ele>
        <time>2018-10-03T12:11:19.000Z</time>
      </trkpt>
      <trkpt lat="42.54338667" lon="-8.02460333">
        <ele>749.0</ele>
        <time>2018-10-03T12:11:20.000Z</time>
      </trkpt>
      <trkpt lat="42.54338833" lon="-8.02462333">
        <ele>749.0</ele>
        <time>2018-10-03T12:11:21.000Z</time>
      </trkpt>
      <trkpt lat="42.54339" lon="-8.024645">
        <ele>749.0</ele>
        <time>2018-10-03T12:11:22.000Z</time>
      </trkpt>
      <trkpt lat="42.54339333" lon="-8.024665">
        <ele>749.0</ele>
        <time>2018-10-03T12:11:23.000Z</time>
      </trkpt>
      <trkpt lat="42.54339667" lon="-8.02468333">
        <ele>749.0</ele>
        <time>2018-10-03T12:11:24.000Z</time>
      </trkpt>
      <trkpt lat="42.54340167" lon="-8.024705">
        <ele>749.0</ele>
        <time>2018-10-03T12:11:25.000Z</time>
      </trkpt>
      <trkpt lat="42.54340667" lon="-8.024725">
        <ele>749.0</ele>
        <time>2018-10-03T12:11:26.000Z</time>
      </trkpt>
      <trkpt lat="42.54341333" lon="-8.024745">
        <ele>750.0</ele>
        <time>2018-10-03T12:11:27.000Z</time>
      </trkpt>
      <trkpt lat="42.54341833" lon="-8.02476333">
        <ele>750.0</ele>
        <time>2018-10-03T12:11:28.000Z</time>
      </trkpt>
      <trkpt lat="42.54342333" lon="-8.02478333">
        <ele>750.0</ele>
        <time>2018-10-03T12:11:29.000Z</time>
      </trkpt>
      <trkpt lat="42.54342833" lon="-8.02480667">
        <ele>750.0</ele>
        <time>2018-10-03T12:11:30.000Z</time>
      </trkpt>
      <trkpt lat="42.54343667" lon="-8.02482833">
        <ele>750.0</ele>
        <time>2018-10-03T12:11:31.000Z</time>
      </trkpt>
      <trkpt lat="42.543445" lon="-8.02485">
        <ele>750.0</ele>
        <time>2018-10-03T12:11:32.000Z</time>
      </trkpt>
      <trkpt lat="42.543455" lon="-8.02487167">
        <ele>750.0</ele>
        <time>2018-10-03T12:11:33.000Z</time>
      </trkpt>
      <trkpt lat="42.54346833" lon="-8.02489167">
        <ele>750.0</ele>
        <time>2018-10-03T12:11:34.000Z</time>
      </trkpt>
      <trkpt lat="42.54348" lon="-8.02491">
        <ele>750.0</ele>
        <time>2018-10-03T12:11:35.000Z</time>
      </trkpt>
      <trkpt lat="42.54349167" lon="-8.02492833">
        <ele>751.0</ele>
        <time>2018-10-03T12:11:36.000Z</time>
      </trkpt>
      <trkpt lat="42.54350667" lon="-8.02494167">
        <ele>751.0</ele>
        <time>2018-10-03T12:11:37.000Z</time>
      </trkpt>
      <trkpt lat="42.54352333" lon="-8.02495333">
        <ele>751.0</ele>
        <time>2018-10-03T12:11:38.000Z</time>
      </trkpt>
      <trkpt lat="42.54353833" lon="-8.024965">
        <ele>750.0</ele>
        <time>2018-10-03T12:11:39.000Z</time>
      </trkpt>
      <trkpt lat="42.54355167" lon="-8.02497667">
        <ele>750.0</ele>
        <time>2018-10-03T12:11:40.000Z</time>
      </trkpt>
      <trkpt lat="42.543565" lon="-8.02498667">
        <ele>750.0</ele>
        <time>2018-10-03T12:11:41.000Z</time>
      </trkpt>
      <trkpt lat="42.54357667" lon="-8.02499667">
        <ele>750.0</ele>
        <time>2018-10-03T12:11:42.000Z</time>
      </trkpt>
      <trkpt lat="42.54358833" lon="-8.02500667">
        <ele>750.0</ele>
        <time>2018-10-03T12:11:43.000Z</time>
      </trkpt>
      <trkpt lat="42.54360167" lon="-8.02501167">
        <ele>750.0</ele>
        <time>2018-10-03T12:11:44.000Z</time>
      </trkpt>
      <trkpt lat="42.54361667" lon="-8.02501667">
        <ele>750.0</ele>
        <time>2018-10-03T12:11:45.000Z</time>
      </trkpt>
      <trkpt lat="42.54363167" lon="-8.02502333">
        <ele>750.0</ele>
        <time>2018-10-03T12:11:46.000Z</time>
      </trkpt>
      <trkpt lat="42.54364333" lon="-8.02503167">
        <ele>750.0</ele>
        <time>2018-10-03T12:11:47.000Z</time>
      </trkpt>
      <trkpt lat="42.54365833" lon="-8.02504167">
        <ele>749.0</ele>
        <time>2018-10-03T12:11:48.000Z</time>
      </trkpt>
      <trkpt lat="42.54367167" lon="-8.02504833">
        <ele>749.0</ele>
        <time>2018-10-03T12:11:49.000Z</time>
      </trkpt>
      <trkpt lat="42.543685" lon="-8.025055">
        <ele>749.0</ele>
        <time>2018-10-03T12:11:50.000Z</time>
      </trkpt>
      <trkpt lat="42.5437" lon="-8.02506167">
        <ele>749.0</ele>
        <time>2018-10-03T12:11:51.000Z</time>
      </trkpt>
      <trkpt lat="42.54371333" lon="-8.025065">
        <ele>749.0</ele>
        <time>2018-10-03T12:11:52.000Z</time>
      </trkpt>
      <trkpt lat="42.54373" lon="-8.02507167">
        <ele>749.0</ele>
        <time>2018-10-03T12:11:53.000Z</time>
      </trkpt>
      <trkpt lat="42.54375" lon="-8.02507833">
        <ele>748.0</ele>
        <time>2018-10-03T12:11:54.000Z</time>
      </trkpt>
      <trkpt lat="42.54377" lon="-8.025085">
        <ele>748.0</ele>
        <time>2018-10-03T12:11:55.000Z</time>
      </trkpt>
      <trkpt lat="42.54379" lon="-8.02509167">
        <ele>748.0</ele>
        <time>2018-10-03T12:11:56.000Z</time>
      </trkpt>
      <trkpt lat="42.54380667" lon="-8.02509833">
        <ele>748.0</ele>
        <time>2018-10-03T12:11:57.000Z</time>
      </trkpt>
      <trkpt lat="42.54382167" lon="-8.02510333">
        <ele>748.0</ele>
        <time>2018-10-03T12:11:58.000Z</time>
      </trkpt>
      <trkpt lat="42.54383833" lon="-8.02511167">
        <ele>748.0</ele>
        <time>2018-10-03T12:11:59.000Z</time>
      </trkpt>
      <trkpt lat="42.54385167" lon="-8.02512167">
        <ele>748.0</ele>
        <time>2018-10-03T12:12:00.000Z</time>
      </trkpt>
      <trkpt lat="42.543865" lon="-8.02513167">
        <ele>748.0</ele>
        <time>2018-10-03T12:12:01.000Z</time>
      </trkpt>
      <trkpt lat="42.54387833" lon="-8.02514333">
        <ele>748.0</ele>
        <time>2018-10-03T12:12:02.000Z</time>
      </trkpt>
      <trkpt lat="42.54389167" lon="-8.02515333">
        <ele>748.0</ele>
        <time>2018-10-03T12:12:03.000Z</time>
      </trkpt>
      <trkpt lat="42.54390833" lon="-8.02516333">
        <ele>748.0</ele>
        <time>2018-10-03T12:12:04.000Z</time>
      </trkpt>
      <trkpt lat="42.543925" lon="-8.02517333">
        <ele>748.0</ele>
        <time>2018-10-03T12:12:05.000Z</time>
      </trkpt>
      <trkpt lat="42.54394" lon="-8.02518167">
        <ele>747.0</ele>
        <time>2018-10-03T12:12:06.000Z</time>
      </trkpt>
      <trkpt lat="42.54395333" lon="-8.02519">
        <ele>747.0</ele>
        <time>2018-10-03T12:12:07.000Z</time>
      </trkpt>
      <trkpt lat="42.543965" lon="-8.02519667">
        <ele>747.0</ele>
        <time>2018-10-03T12:12:08.000Z</time>
      </trkpt>
      <trkpt lat="42.54397833" lon="-8.02520333">
        <ele>747.0</ele>
        <time>2018-10-03T12:12:09.000Z</time>
      </trkpt>
      <trkpt lat="42.54399167" lon="-8.02520667">
        <ele>747.0</ele>
        <time>2018-10-03T12:12:10.000Z</time>
      </trkpt>
      <trkpt lat="42.54400667" lon="-8.02520833">
        <ele>747.0</ele>
        <time>2018-10-03T12:12:11.000Z</time>
      </trkpt>
      <trkpt lat="42.54402167" lon="-8.02521">
        <ele>747.0</ele>
        <time>2018-10-03T12:12:12.000Z</time>
      </trkpt>
      <trkpt lat="42.54403333" lon="-8.02520667">
        <ele>747.0</ele>
        <time>2018-10-03T12:12:13.000Z</time>
      </trkpt>
      <trkpt lat="42.54404667" lon="-8.02520667">
        <ele>748.0</ele>
        <time>2018-10-03T12:12:14.000Z</time>
      </trkpt>
      <trkpt lat="42.54406" lon="-8.02520667">
        <ele>748.0</ele>
        <time>2018-10-03T12:12:15.000Z</time>
      </trkpt>
      <trkpt lat="42.544075" lon="-8.02520833">
        <ele>748.0</ele>
        <time>2018-10-03T12:12:16.000Z</time>
      </trkpt>
      <trkpt lat="42.54408833" lon="-8.02520833">
        <ele>748.0</ele>
        <time>2018-10-03T12:12:17.000Z</time>
      </trkpt>
      <trkpt lat="42.5441" lon="-8.02520833">
        <ele>748.0</ele>
        <time>2018-10-03T12:12:18.000Z</time>
      </trkpt>
      <trkpt lat="42.54411167" lon="-8.02520833">
        <ele>748.0</ele>
        <time>2018-10-03T12:12:19.000Z</time>
      </trkpt>
      <trkpt lat="42.54412667" lon="-8.02520667">
        <ele>748.0</ele>
        <time>2018-10-03T12:12:20.000Z</time>
      </trkpt>
      <trkpt lat="42.54414" lon="-8.02520167">
        <ele>748.0</ele>
        <time>2018-10-03T12:12:21.000Z</time>
      </trkpt>
      <trkpt lat="42.544155" lon="-8.02519667">
        <ele>748.0</ele>
        <time>2018-10-03T12:12:22.000Z</time>
      </trkpt>
      <trkpt lat="42.54417" lon="-8.02519667">
        <ele>748.0</ele>
        <time>2018-10-03T12:12:23.000Z</time>
      </trkpt>
      <trkpt lat="42.54418333" lon="-8.02519833">
        <ele>748.0</ele>
        <time>2018-10-03T12:12:24.000Z</time>
      </trkpt>
      <trkpt lat="42.544195" lon="-8.02519833">
        <ele>748.0</ele>
        <time>2018-10-03T12:12:25.000Z</time>
      </trkpt>
      <trkpt lat="42.544205" lon="-8.02519667">
        <ele>748.0</ele>
        <time>2018-10-03T12:12:26.000Z</time>
      </trkpt>
      <trkpt lat="42.544215" lon="-8.02519667">
        <ele>748.0</ele>
        <time>2018-10-03T12:12:27.000Z</time>
      </trkpt>
      <trkpt lat="42.54422667" lon="-8.0252">
        <ele>748.0</ele>
        <time>2018-10-03T12:12:28.000Z</time>
      </trkpt>
      <trkpt lat="42.54423833" lon="-8.02520333">
        <ele>748.0</ele>
        <time>2018-10-03T12:12:29.000Z</time>
      </trkpt>
      <trkpt lat="42.54424833" lon="-8.02520667">
        <ele>748.0</ele>
        <time>2018-10-03T12:12:30.000Z</time>
      </trkpt>
      <trkpt lat="42.54425667" lon="-8.02521">
        <ele>748.0</ele>
        <time>2018-10-03T12:12:31.000Z</time>
      </trkpt>
      <trkpt lat="42.544265" lon="-8.02521333">
        <ele>748.0</ele>
        <time>2018-10-03T12:12:32.000Z</time>
      </trkpt>
      <trkpt lat="42.54427333" lon="-8.02522167">
        <ele>748.0</ele>
        <time>2018-10-03T12:12:33.000Z</time>
      </trkpt>
      <trkpt lat="42.54428333" lon="-8.02523333">
        <ele>749.0</ele>
        <time>2018-10-03T12:12:34.000Z</time>
      </trkpt>
      <trkpt lat="42.544295" lon="-8.02524833">
        <ele>749.0</ele>
        <time>2018-10-03T12:12:35.000Z</time>
      </trkpt>
      <trkpt lat="42.544305" lon="-8.02526">
        <ele>749.0</ele>
        <time>2018-10-03T12:12:36.000Z</time>
      </trkpt>
      <trkpt lat="42.54430667" lon="-8.02526333">
        <ele>749.0</ele>
        <time>2018-10-03T12:12:37.000Z</time>
      </trkpt>
      <trkpt lat="42.54430833" lon="-8.02526667">
        <ele>749.0</ele>
        <time>2018-10-03T12:12:38.000Z</time>
      </trkpt>
      <trkpt lat="42.54431" lon="-8.02526833">
        <ele>749.0</ele>
        <time>2018-10-03T12:12:39.000Z</time>
      </trkpt>
      <trkpt lat="42.54431333" lon="-8.02527333">
        <ele>749.0</ele>
        <time>2018-10-03T12:12:40.000Z</time>
      </trkpt>
      <trkpt lat="42.54431333" lon="-8.025275">
        <ele>749.0</ele>
        <time>2018-10-03T12:12:41.000Z</time>
      </trkpt>
      <trkpt lat="42.544315" lon="-8.02527833">
        <ele>749.0</ele>
        <time>2018-10-03T12:12:42.000Z</time>
      </trkpt>
      <trkpt lat="42.54431333" lon="-8.02528">
        <ele>749.0</ele>
        <time>2018-10-03T12:12:43.000Z</time>
      </trkpt>
      <trkpt lat="42.544315" lon="-8.02528833">
        <ele>749.0</ele>
        <time>2018-10-03T12:12:44.000Z</time>
      </trkpt>
      <trkpt lat="42.54431833" lon="-8.025295">
        <ele>749.0</ele>
        <time>2018-10-03T12:12:45.000Z</time>
      </trkpt>
      <trkpt lat="42.544325" lon="-8.02530167">
        <ele>750.0</ele>
        <time>2018-10-03T12:12:46.000Z</time>
      </trkpt>
      <trkpt lat="42.54433333" lon="-8.02530833">
        <ele>750.0</ele>
        <time>2018-10-03T12:12:47.000Z</time>
      </trkpt>
      <trkpt lat="42.54434" lon="-8.025315">
        <ele>750.0</ele>
        <time>2018-10-03T12:12:48.000Z</time>
      </trkpt>
      <trkpt lat="42.54434667" lon="-8.02531833">
        <ele>750.0</ele>
        <time>2018-10-03T12:12:49.000Z</time>
      </trkpt>
      <trkpt lat="42.54435167" lon="-8.02532333">
        <ele>750.0</ele>
        <time>2018-10-03T12:12:50.000Z</time>
      </trkpt>
      <trkpt lat="42.54435667" lon="-8.02532667">
        <ele>750.0</ele>
        <time>2018-10-03T12:12:51.000Z</time>
      </trkpt>
      <trkpt lat="42.54436167" lon="-8.02533167">
        <ele>750.0</ele>
        <time>2018-10-03T12:12:52.000Z</time>
      </trkpt>
      <trkpt lat="42.54437" lon="-8.025335">
        <ele>750.0</ele>
        <time>2018-10-03T12:12:53.000Z</time>
      </trkpt>
      <trkpt lat="42.544375" lon="-8.02533833">
        <ele>750.0</ele>
        <time>2018-10-03T12:12:54.000Z</time>
      </trkpt>
      <trkpt lat="42.54438" lon="-8.02534167">
        <ele>750.0</ele>
        <time>2018-10-03T12:12:55.000Z</time>
      </trkpt>
      <trkpt lat="42.54438667" lon="-8.02534667">
        <ele>750.0</ele>
        <time>2018-10-03T12:12:56.000Z</time>
      </trkpt>
      <trkpt lat="42.54439667" lon="-8.02535">
        <ele>750.0</ele>
        <time>2018-10-03T12:12:57.000Z</time>
      </trkpt>
      <trkpt lat="42.544405" lon="-8.02535667">
        <ele>750.0</ele>
        <time>2018-10-03T12:12:58.000Z</time>
      </trkpt>
      <trkpt lat="42.54441333" lon="-8.02536167">
        <ele>750.0</ele>
        <time>2018-10-03T12:12:59.000Z</time>
      </trkpt>
      <trkpt lat="42.54442" lon="-8.02536667">
        <ele>750.0</ele>
        <time>2018-10-03T12:13:00.000Z</time>
      </trkpt>
      <trkpt lat="42.54442667" lon="-8.02537">
        <ele>750.0</ele>
        <time>2018-10-03T12:13:01.000Z</time>
      </trkpt>
      <trkpt lat="42.544435" lon="-8.02537667">
        <ele>750.0</ele>
        <time>2018-10-03T12:13:02.000Z</time>
      </trkpt>
      <trkpt lat="42.544445" lon="-8.02538167">
        <ele>750.0</ele>
        <time>2018-10-03T12:13:03.000Z</time>
      </trkpt>
      <trkpt lat="42.544455" lon="-8.025385">
        <ele>751.0</ele>
        <time>2018-10-03T12:13:04.000Z</time>
      </trkpt>
      <trkpt lat="42.544465" lon="-8.02538667">
        <ele>751.0</ele>
        <time>2018-10-03T12:13:05.000Z</time>
      </trkpt>
      <trkpt lat="42.544475" lon="-8.02539">
        <ele>751.0</ele>
        <time>2018-10-03T12:13:06.000Z</time>
      </trkpt>
      <trkpt lat="42.54448667" lon="-8.02539333">
        <ele>751.0</ele>
        <time>2018-10-03T12:13:07.000Z</time>
      </trkpt>
      <trkpt lat="42.54449667" lon="-8.025395">
        <ele>751.0</ele>
        <time>2018-10-03T12:13:08.000Z</time>
      </trkpt>
      <trkpt lat="42.54450833" lon="-8.0254">
        <ele>751.0</ele>
        <time>2018-10-03T12:13:09.000Z</time>
      </trkpt>
      <trkpt lat="42.54452" lon="-8.02540667">
        <ele>751.0</ele>
        <time>2018-10-03T12:13:10.000Z</time>
      </trkpt>
      <trkpt lat="42.54453167" lon="-8.02541167">
        <ele>751.0</ele>
        <time>2018-10-03T12:13:11.000Z</time>
      </trkpt>
      <trkpt lat="42.54454167" lon="-8.02541667">
        <ele>751.0</ele>
        <time>2018-10-03T12:13:12.000Z</time>
      </trkpt>
      <trkpt lat="42.544555" lon="-8.02542">
        <ele>751.0</ele>
        <time>2018-10-03T12:13:13.000Z</time>
      </trkpt>
      <trkpt lat="42.54457" lon="-8.02542167">
        <ele>752.0</ele>
        <time>2018-10-03T12:13:14.000Z</time>
      </trkpt>
      <trkpt lat="42.54458667" lon="-8.02542333">
        <ele>752.0</ele>
        <time>2018-10-03T12:13:15.000Z</time>
      </trkpt>
      <trkpt lat="42.54460167" lon="-8.02542333">
        <ele>752.0</ele>
        <time>2018-10-03T12:13:16.000Z</time>
      </trkpt>
      <trkpt lat="42.544615" lon="-8.02542667">
        <ele>752.0</ele>
        <time>2018-10-03T12:13:17.000Z</time>
      </trkpt>
      <trkpt lat="42.54462833" lon="-8.02543333">
        <ele>752.0</ele>
        <time>2018-10-03T12:13:18.000Z</time>
      </trkpt>
      <trkpt lat="42.54464" lon="-8.02543667">
        <ele>752.0</ele>
        <time>2018-10-03T12:13:19.000Z</time>
      </trkpt>
      <trkpt lat="42.54465333" lon="-8.02544167">
        <ele>752.0</ele>
        <time>2018-10-03T12:13:20.000Z</time>
      </trkpt>
      <trkpt lat="42.54466667" lon="-8.02544333">
        <ele>752.0</ele>
        <time>2018-10-03T12:13:21.000Z</time>
      </trkpt>
      <trkpt lat="42.54468" lon="-8.02545">
        <ele>752.0</ele>
        <time>2018-10-03T12:13:22.000Z</time>
      </trkpt>
      <trkpt lat="42.54469333" lon="-8.02545833">
        <ele>752.0</ele>
        <time>2018-10-03T12:13:23.000Z</time>
      </trkpt>
      <trkpt lat="42.54470667" lon="-8.02546833">
        <ele>752.0</ele>
        <time>2018-10-03T12:13:24.000Z</time>
      </trkpt>
      <trkpt lat="42.54472167" lon="-8.02547833">
        <ele>753.0</ele>
        <time>2018-10-03T12:13:25.000Z</time>
      </trkpt>
      <trkpt lat="42.544735" lon="-8.02548833">
        <ele>753.0</ele>
        <time>2018-10-03T12:13:26.000Z</time>
      </trkpt>
      <trkpt lat="42.54475" lon="-8.02549667">
        <ele>753.0</ele>
        <time>2018-10-03T12:13:27.000Z</time>
      </trkpt>
      <trkpt lat="42.544765" lon="-8.02550333">
        <ele>753.0</ele>
        <time>2018-10-03T12:13:28.000Z</time>
      </trkpt>
      <trkpt lat="42.54477833" lon="-8.02550667">
        <ele>753.0</ele>
        <time>2018-10-03T12:13:29.000Z</time>
      </trkpt>
      <trkpt lat="42.54479" lon="-8.02550667">
        <ele>753.0</ele>
        <time>2018-10-03T12:13:30.000Z</time>
      </trkpt>
      <trkpt lat="42.54480167" lon="-8.02550667">
        <ele>753.0</ele>
        <time>2018-10-03T12:13:31.000Z</time>
      </trkpt>
      <trkpt lat="42.54481333" lon="-8.02550333">
        <ele>753.0</ele>
        <time>2018-10-03T12:13:32.000Z</time>
      </trkpt>
      <trkpt lat="42.544825" lon="-8.02549667">
        <ele>753.0</ele>
        <time>2018-10-03T12:13:33.000Z</time>
      </trkpt>
      <trkpt lat="42.54483667" lon="-8.02548833">
        <ele>753.0</ele>
        <time>2018-10-03T12:13:34.000Z</time>
      </trkpt>
      <trkpt lat="42.54484667" lon="-8.02548">
        <ele>753.0</ele>
        <time>2018-10-03T12:13:35.000Z</time>
      </trkpt>
      <trkpt lat="42.544855" lon="-8.02547333">
        <ele>753.0</ele>
        <time>2018-10-03T12:13:36.000Z</time>
      </trkpt>
      <trkpt lat="42.544865" lon="-8.02546667">
        <ele>753.0</ele>
        <time>2018-10-03T12:13:37.000Z</time>
      </trkpt>
      <trkpt lat="42.54487333" lon="-8.02546">
        <ele>753.0</ele>
        <time>2018-10-03T12:13:38.000Z</time>
      </trkpt>
      <trkpt lat="42.54488333" lon="-8.02545333">
        <ele>753.0</ele>
        <time>2018-10-03T12:13:39.000Z</time>
      </trkpt>
      <trkpt lat="42.54489167" lon="-8.025445">
        <ele>753.0</ele>
        <time>2018-10-03T12:13:40.000Z</time>
      </trkpt>
      <trkpt lat="42.5449" lon="-8.02543333">
        <ele>753.0</ele>
        <time>2018-10-03T12:13:41.000Z</time>
      </trkpt>
      <trkpt lat="42.54491333" lon="-8.025425">
        <ele>753.0</ele>
        <time>2018-10-03T12:13:42.000Z</time>
      </trkpt>
      <trkpt lat="42.54492167" lon="-8.02541833">
        <ele>753.0</ele>
        <time>2018-10-03T12:13:43.000Z</time>
      </trkpt>
      <trkpt lat="42.54493167" lon="-8.02541167">
        <ele>753.0</ele>
        <time>2018-10-03T12:13:44.000Z</time>
      </trkpt>
      <trkpt lat="42.54494167" lon="-8.02540667">
        <ele>753.0</ele>
        <time>2018-10-03T12:13:45.000Z</time>
      </trkpt>
      <trkpt lat="42.54495167" lon="-8.02540333">
        <ele>753.0</ele>
        <time>2018-10-03T12:13:46.000Z</time>
      </trkpt>
      <trkpt lat="42.54496167" lon="-8.0254">
        <ele>753.0</ele>
        <time>2018-10-03T12:13:47.000Z</time>
      </trkpt>
      <trkpt lat="42.54497" lon="-8.02539667">
        <ele>753.0</ele>
        <time>2018-10-03T12:13:48.000Z</time>
      </trkpt>
      <trkpt lat="42.54498" lon="-8.02538833">
        <ele>753.0</ele>
        <time>2018-10-03T12:13:49.000Z</time>
      </trkpt>
      <trkpt lat="42.54499167" lon="-8.02537833">
        <ele>753.0</ele>
        <time>2018-10-03T12:13:50.000Z</time>
      </trkpt>
      <trkpt lat="42.54500333" lon="-8.02537333">
        <ele>753.0</ele>
        <time>2018-10-03T12:13:51.000Z</time>
      </trkpt>
      <trkpt lat="42.54501333" lon="-8.02536833">
        <ele>753.0</ele>
        <time>2018-10-03T12:13:52.000Z</time>
      </trkpt>
      <trkpt lat="42.54502333" lon="-8.02536667">
        <ele>753.0</ele>
        <time>2018-10-03T12:13:53.000Z</time>
      </trkpt>
      <trkpt lat="42.54503" lon="-8.02536333">
        <ele>753.0</ele>
        <time>2018-10-03T12:13:54.000Z</time>
      </trkpt>
      <trkpt lat="42.54503833" lon="-8.02536">
        <ele>753.0</ele>
        <time>2018-10-03T12:13:55.000Z</time>
      </trkpt>
      <trkpt lat="42.545045" lon="-8.025355">
        <ele>753.0</ele>
        <time>2018-10-03T12:13:56.000Z</time>
      </trkpt>
      <trkpt lat="42.545055" lon="-8.02534667">
        <ele>753.0</ele>
        <time>2018-10-03T12:13:57.000Z</time>
      </trkpt>
      <trkpt lat="42.545065" lon="-8.02534">
        <ele>753.0</ele>
        <time>2018-10-03T12:13:58.000Z</time>
      </trkpt>
      <trkpt lat="42.54507333" lon="-8.025335">
        <ele>753.0</ele>
        <time>2018-10-03T12:13:59.000Z</time>
      </trkpt>
      <trkpt lat="42.54508167" lon="-8.02533">
        <ele>753.0</ele>
        <time>2018-10-03T12:14:00.000Z</time>
      </trkpt>
      <trkpt lat="42.54509167" lon="-8.025325">
        <ele>753.0</ele>
        <time>2018-10-03T12:14:01.000Z</time>
      </trkpt>
      <trkpt lat="42.5451" lon="-8.02532167">
        <ele>753.0</ele>
        <time>2018-10-03T12:14:02.000Z</time>
      </trkpt>
      <trkpt lat="42.54511" lon="-8.02532167">
        <ele>753.0</ele>
        <time>2018-10-03T12:14:03.000Z</time>
      </trkpt>
      <trkpt lat="42.54512" lon="-8.025325">
        <ele>753.0</ele>
        <time>2018-10-03T12:14:04.000Z</time>
      </trkpt>
      <trkpt lat="42.54513167" lon="-8.02532833">
        <ele>753.0</ele>
        <time>2018-10-03T12:14:05.000Z</time>
      </trkpt>
      <trkpt lat="42.545145" lon="-8.02533167">
        <ele>753.0</ele>
        <time>2018-10-03T12:14:06.000Z</time>
      </trkpt>
      <trkpt lat="42.545155" lon="-8.02533667">
        <ele>753.0</ele>
        <time>2018-10-03T12:14:07.000Z</time>
      </trkpt>
      <trkpt lat="42.54516667" lon="-8.02534167">
        <ele>753.0</ele>
        <time>2018-10-03T12:14:08.000Z</time>
      </trkpt>
      <trkpt lat="42.54518" lon="-8.02534833">
        <ele>753.0</ele>
        <time>2018-10-03T12:14:09.000Z</time>
      </trkpt>
      <trkpt lat="42.54519" lon="-8.025355">
        <ele>753.0</ele>
        <time>2018-10-03T12:14:10.000Z</time>
      </trkpt>
      <trkpt lat="42.5452" lon="-8.02535667">
        <ele>753.0</ele>
        <time>2018-10-03T12:14:11.000Z</time>
      </trkpt>
      <trkpt lat="42.54521" lon="-8.02536167">
        <ele>754.0</ele>
        <time>2018-10-03T12:14:12.000Z</time>
      </trkpt>
      <trkpt lat="42.54522167" lon="-8.02536833">
        <ele>754.0</ele>
        <time>2018-10-03T12:14:13.000Z</time>
      </trkpt>
      <trkpt lat="42.54523667" lon="-8.02537667">
        <ele>754.0</ele>
        <time>2018-10-03T12:14:14.000Z</time>
      </trkpt>
      <trkpt lat="42.54525167" lon="-8.02538167">
        <ele>754.0</ele>
        <time>2018-10-03T12:14:15.000Z</time>
      </trkpt>
      <trkpt lat="42.545265" lon="-8.02538667">
        <ele>754.0</ele>
        <time>2018-10-03T12:14:16.000Z</time>
      </trkpt>
      <trkpt lat="42.54528" lon="-8.02539167">
        <ele>754.0</ele>
        <time>2018-10-03T12:14:17.000Z</time>
      </trkpt>
      <trkpt lat="42.54529333" lon="-8.02539833">
        <ele>754.0</ele>
        <time>2018-10-03T12:14:18.000Z</time>
      </trkpt>
      <trkpt lat="42.545305" lon="-8.02540667">
        <ele>754.0</ele>
        <time>2018-10-03T12:14:19.000Z</time>
      </trkpt>
      <trkpt lat="42.54531833" lon="-8.025415">
        <ele>754.0</ele>
        <time>2018-10-03T12:14:20.000Z</time>
      </trkpt>
      <trkpt lat="42.54532833" lon="-8.02542667">
        <ele>754.0</ele>
        <time>2018-10-03T12:14:21.000Z</time>
      </trkpt>
      <trkpt lat="42.54534333" lon="-8.02543667">
        <ele>754.0</ele>
        <time>2018-10-03T12:14:22.000Z</time>
      </trkpt>
      <trkpt lat="42.545355" lon="-8.02544667">
        <ele>754.0</ele>
        <time>2018-10-03T12:14:23.000Z</time>
      </trkpt>
      <trkpt lat="42.545365" lon="-8.02545667">
        <ele>754.0</ele>
        <time>2018-10-03T12:14:24.000Z</time>
      </trkpt>
      <trkpt lat="42.54537833" lon="-8.02546833">
        <ele>754.0</ele>
        <time>2018-10-03T12:14:25.000Z</time>
      </trkpt>
      <trkpt lat="42.54539167" lon="-8.02547667">
        <ele>754.0</ele>
        <time>2018-10-03T12:14:26.000Z</time>
      </trkpt>
      <trkpt lat="42.545405" lon="-8.02548667">
        <ele>754.0</ele>
        <time>2018-10-03T12:14:27.000Z</time>
      </trkpt>
      <trkpt lat="42.54541833" lon="-8.02549667">
        <ele>754.0</ele>
        <time>2018-10-03T12:14:28.000Z</time>
      </trkpt>
      <trkpt lat="42.54543167" lon="-8.02550667">
        <ele>754.0</ele>
        <time>2018-10-03T12:14:29.000Z</time>
      </trkpt>
      <trkpt lat="42.54544333" lon="-8.02551667">
        <ele>754.0</ele>
        <time>2018-10-03T12:14:30.000Z</time>
      </trkpt>
      <trkpt lat="42.54545667" lon="-8.02552833">
        <ele>754.0</ele>
        <time>2018-10-03T12:14:31.000Z</time>
      </trkpt>
      <trkpt lat="42.54546833" lon="-8.02553833">
        <ele>754.0</ele>
        <time>2018-10-03T12:14:32.000Z</time>
      </trkpt>
      <trkpt lat="42.54548" lon="-8.02555167">
        <ele>754.0</ele>
        <time>2018-10-03T12:14:33.000Z</time>
      </trkpt>
      <trkpt lat="42.54549167" lon="-8.025565">
        <ele>754.0</ele>
        <time>2018-10-03T12:14:34.000Z</time>
      </trkpt>
      <trkpt lat="42.545505" lon="-8.02557333">
        <ele>754.0</ele>
        <time>2018-10-03T12:14:35.000Z</time>
      </trkpt>
      <trkpt lat="42.54551833" lon="-8.02558167">
        <ele>755.0</ele>
        <time>2018-10-03T12:14:36.000Z</time>
      </trkpt>
      <trkpt lat="42.54553333" lon="-8.02559">
        <ele>755.0</ele>
        <time>2018-10-03T12:14:37.000Z</time>
      </trkpt>
      <trkpt lat="42.54554667" lon="-8.02559667">
        <ele>755.0</ele>
        <time>2018-10-03T12:14:38.000Z</time>
      </trkpt>
      <trkpt lat="42.54556333" lon="-8.02560333">
        <ele>755.0</ele>
        <time>2018-10-03T12:14:39.000Z</time>
      </trkpt>
      <trkpt lat="42.54557833" lon="-8.02560667">
        <ele>755.0</ele>
        <time>2018-10-03T12:14:40.000Z</time>
      </trkpt>
      <trkpt lat="42.545595" lon="-8.02560667">
        <ele>755.0</ele>
        <time>2018-10-03T12:14:41.000Z</time>
      </trkpt>
      <trkpt lat="42.54561167" lon="-8.02560333">
        <ele>755.0</ele>
        <time>2018-10-03T12:14:42.000Z</time>
      </trkpt>
      <trkpt lat="42.54562833" lon="-8.02559667">
        <ele>755.0</ele>
        <time>2018-10-03T12:14:43.000Z</time>
      </trkpt>
      <trkpt lat="42.54564333" lon="-8.02559">
        <ele>755.0</ele>
        <time>2018-10-03T12:14:44.000Z</time>
      </trkpt>
      <trkpt lat="42.54565667" lon="-8.02558">
        <ele>755.0</ele>
        <time>2018-10-03T12:14:45.000Z</time>
      </trkpt>
      <trkpt lat="42.54566833" lon="-8.02557">
        <ele>755.0</ele>
        <time>2018-10-03T12:14:46.000Z</time>
      </trkpt>
      <trkpt lat="42.54568167" lon="-8.02555333">
        <ele>755.0</ele>
        <time>2018-10-03T12:14:47.000Z</time>
      </trkpt>
      <trkpt lat="42.54569667" lon="-8.02553667">
        <ele>755.0</ele>
        <time>2018-10-03T12:14:48.000Z</time>
      </trkpt>
      <trkpt lat="42.54571333" lon="-8.02551833">
        <ele>755.0</ele>
        <time>2018-10-03T12:14:49.000Z</time>
      </trkpt>
      <trkpt lat="42.54572833" lon="-8.0255">
        <ele>755.0</ele>
        <time>2018-10-03T12:14:50.000Z</time>
      </trkpt>
      <trkpt lat="42.54574167" lon="-8.02548167">
        <ele>755.0</ele>
        <time>2018-10-03T12:14:51.000Z</time>
      </trkpt>
      <trkpt lat="42.54575167" lon="-8.02546333">
        <ele>755.0</ele>
        <time>2018-10-03T12:14:52.000Z</time>
      </trkpt>
      <trkpt lat="42.54576167" lon="-8.02544667">
        <ele>755.0</ele>
        <time>2018-10-03T12:14:53.000Z</time>
      </trkpt>
      <trkpt lat="42.54577167" lon="-8.02543">
        <ele>755.0</ele>
        <time>2018-10-03T12:14:54.000Z</time>
      </trkpt>
      <trkpt lat="42.54578" lon="-8.02541167">
        <ele>755.0</ele>
        <time>2018-10-03T12:14:55.000Z</time>
      </trkpt>
      <trkpt lat="42.54579167" lon="-8.02539333">
        <ele>755.0</ele>
        <time>2018-10-03T12:14:56.000Z</time>
      </trkpt>
      <trkpt lat="42.54580333" lon="-8.02537833">
        <ele>754.0</ele>
        <time>2018-10-03T12:14:57.000Z</time>
      </trkpt>
      <trkpt lat="42.545815" lon="-8.02536167">
        <ele>754.0</ele>
        <time>2018-10-03T12:14:58.000Z</time>
      </trkpt>
      <trkpt lat="42.54582667" lon="-8.02534333">
        <ele>754.0</ele>
        <time>2018-10-03T12:14:59.000Z</time>
      </trkpt>
      <trkpt lat="42.54583833" lon="-8.025325">
        <ele>754.0</ele>
        <time>2018-10-03T12:15:00.000Z</time>
      </trkpt>
      <trkpt lat="42.54585" lon="-8.02530667">
        <ele>754.0</ele>
        <time>2018-10-03T12:15:01.000Z</time>
      </trkpt>
      <trkpt lat="42.54586167" lon="-8.02528667">
        <ele>754.0</ele>
        <time>2018-10-03T12:15:02.000Z</time>
      </trkpt>
      <trkpt lat="42.54587167" lon="-8.02526667">
        <ele>754.0</ele>
        <time>2018-10-03T12:15:03.000Z</time>
      </trkpt>
      <trkpt lat="42.54588" lon="-8.02525">
        <ele>754.0</ele>
        <time>2018-10-03T12:15:04.000Z</time>
      </trkpt>
      <trkpt lat="42.54588667" lon="-8.02523833">
        <ele>754.0</ele>
        <time>2018-10-03T12:15:05.000Z</time>
      </trkpt>
      <trkpt lat="42.54588833" lon="-8.02523667">
        <ele>754.0</ele>
        <time>2018-10-03T12:15:06.000Z</time>
      </trkpt>
      <trkpt lat="42.54589" lon="-8.025235">
        <ele>754.0</ele>
        <time>2018-10-03T12:15:07.000Z</time>
      </trkpt>
      <trkpt lat="42.54588833" lon="-8.02523667">
        <ele>754.0</ele>
        <time>2018-10-03T12:15:08.000Z</time>
      </trkpt>
      <trkpt lat="42.54589" lon="-8.02523167">
        <ele>754.0</ele>
        <time>2018-10-03T12:15:09.000Z</time>
      </trkpt>
      <trkpt lat="42.545895" lon="-8.02522">
        <ele>753.0</ele>
        <time>2018-10-03T12:15:10.000Z</time>
      </trkpt>
      <trkpt lat="42.54590167" lon="-8.02520667">
        <ele>753.0</ele>
        <time>2018-10-03T12:15:11.000Z</time>
      </trkpt>
      <trkpt lat="42.54591" lon="-8.02519333">
        <ele>753.0</ele>
        <time>2018-10-03T12:15:12.000Z</time>
      </trkpt>
      <trkpt lat="42.54591833" lon="-8.02518167">
        <ele>753.0</ele>
        <time>2018-10-03T12:15:13.000Z</time>
      </trkpt>
      <trkpt lat="42.545925" lon="-8.02517">
        <ele>753.0</ele>
        <time>2018-10-03T12:15:14.000Z</time>
      </trkpt>
      <trkpt lat="42.54593167" lon="-8.02515833">
        <ele>753.0</ele>
        <time>2018-10-03T12:15:15.000Z</time>
      </trkpt>
      <trkpt lat="42.54593833" lon="-8.025145">
        <ele>753.0</ele>
        <time>2018-10-03T12:15:16.000Z</time>
      </trkpt>
      <trkpt lat="42.54594667" lon="-8.025135">
        <ele>753.0</ele>
        <time>2018-10-03T12:15:17.000Z</time>
      </trkpt>
      <trkpt lat="42.545955" lon="-8.02512167">
        <ele>753.0</ele>
        <time>2018-10-03T12:15:18.000Z</time>
      </trkpt>
      <trkpt lat="42.54596333" lon="-8.02511">
        <ele>753.0</ele>
        <time>2018-10-03T12:15:19.000Z</time>
      </trkpt>
      <trkpt lat="42.54596833" lon="-8.02509667">
        <ele>753.0</ele>
        <time>2018-10-03T12:15:20.000Z</time>
      </trkpt>
      <trkpt lat="42.54597833" lon="-8.025085">
        <ele>753.0</ele>
        <time>2018-10-03T12:15:21.000Z</time>
      </trkpt>
      <trkpt lat="42.54598667" lon="-8.02507167">
        <ele>753.0</ele>
        <time>2018-10-03T12:15:22.000Z</time>
      </trkpt>
      <trkpt lat="42.545995" lon="-8.02505667">
        <ele>753.0</ele>
        <time>2018-10-03T12:15:23.000Z</time>
      </trkpt>
      <trkpt lat="42.54600333" lon="-8.02504">
        <ele>752.0</ele>
        <time>2018-10-03T12:15:24.000Z</time>
      </trkpt>
      <trkpt lat="42.54601167" lon="-8.02502667">
        <ele>752.0</ele>
        <time>2018-10-03T12:15:25.000Z</time>
      </trkpt>
      <trkpt lat="42.54602" lon="-8.02501333">
        <ele>752.0</ele>
        <time>2018-10-03T12:15:26.000Z</time>
      </trkpt>
      <trkpt lat="42.54602667" lon="-8.025">
        <ele>752.0</ele>
        <time>2018-10-03T12:15:27.000Z</time>
      </trkpt>
      <trkpt lat="42.54603333" lon="-8.02498833">
        <ele>752.0</ele>
        <time>2018-10-03T12:15:28.000Z</time>
      </trkpt>
      <trkpt lat="42.54604" lon="-8.02497833">
        <ele>752.0</ele>
        <time>2018-10-03T12:15:29.000Z</time>
      </trkpt>
      <trkpt lat="42.546045" lon="-8.02496833">
        <ele>752.0</ele>
        <time>2018-10-03T12:15:30.000Z</time>
      </trkpt>
      <trkpt lat="42.54604833" lon="-8.024955">
        <ele>752.0</ele>
        <time>2018-10-03T12:15:31.000Z</time>
      </trkpt>
      <trkpt lat="42.54605333" lon="-8.024945">
        <ele>752.0</ele>
        <time>2018-10-03T12:15:32.000Z</time>
      </trkpt>
      <trkpt lat="42.54606" lon="-8.02493833">
        <ele>752.0</ele>
        <time>2018-10-03T12:15:33.000Z</time>
      </trkpt>
      <trkpt lat="42.54606833" lon="-8.024935">
        <ele>752.0</ele>
        <time>2018-10-03T12:15:34.000Z</time>
      </trkpt>
      <trkpt lat="42.54607333" lon="-8.02493667">
        <ele>752.0</ele>
        <time>2018-10-03T12:15:35.000Z</time>
      </trkpt>
      <trkpt lat="42.54608167" lon="-8.02493667">
        <ele>752.0</ele>
        <time>2018-10-03T12:15:36.000Z</time>
      </trkpt>
      <trkpt lat="42.54608667" lon="-8.02493667">
        <ele>752.0</ele>
        <time>2018-10-03T12:15:37.000Z</time>
      </trkpt>
      <trkpt lat="42.546095" lon="-8.02493667">
        <ele>752.0</ele>
        <time>2018-10-03T12:15:38.000Z</time>
      </trkpt>
      <trkpt lat="42.54610333" lon="-8.02493833">
        <ele>752.0</ele>
        <time>2018-10-03T12:15:39.000Z</time>
      </trkpt>
      <trkpt lat="42.54611333" lon="-8.02494167">
        <ele>752.0</ele>
        <time>2018-10-03T12:15:40.000Z</time>
      </trkpt>
      <trkpt lat="42.54612667" lon="-8.02494667">
        <ele>752.0</ele>
        <time>2018-10-03T12:15:41.000Z</time>
      </trkpt>
      <trkpt lat="42.54613833" lon="-8.02495">
        <ele>752.0</ele>
        <time>2018-10-03T12:15:42.000Z</time>
      </trkpt>
      <trkpt lat="42.54614833" lon="-8.02495333">
        <ele>752.0</ele>
        <time>2018-10-03T12:15:43.000Z</time>
      </trkpt>
      <trkpt lat="42.54615833" lon="-8.024955">
        <ele>752.0</ele>
        <time>2018-10-03T12:15:44.000Z</time>
      </trkpt>
      <trkpt lat="42.54617" lon="-8.02495667">
        <ele>752.0</ele>
        <time>2018-10-03T12:15:45.000Z</time>
      </trkpt>
      <trkpt lat="42.54617833" lon="-8.02496">
        <ele>752.0</ele>
        <time>2018-10-03T12:15:46.000Z</time>
      </trkpt>
      <trkpt lat="42.54618333" lon="-8.024965">
        <ele>752.0</ele>
        <time>2018-10-03T12:15:47.000Z</time>
      </trkpt>
      <trkpt lat="42.54619" lon="-8.02496833">
        <ele>752.0</ele>
        <time>2018-10-03T12:15:48.000Z</time>
      </trkpt>
      <trkpt lat="42.54619833" lon="-8.024975">
        <ele>752.0</ele>
        <time>2018-10-03T12:15:49.000Z</time>
      </trkpt>
      <trkpt lat="42.54621" lon="-8.02497833">
        <ele>752.0</ele>
        <time>2018-10-03T12:15:50.000Z</time>
      </trkpt>
      <trkpt lat="42.54622" lon="-8.02498">
        <ele>753.0</ele>
        <time>2018-10-03T12:15:51.000Z</time>
      </trkpt>
      <trkpt lat="42.54623" lon="-8.02498333">
        <ele>753.0</ele>
        <time>2018-10-03T12:15:52.000Z</time>
      </trkpt>
      <trkpt lat="42.54623833" lon="-8.02498833">
        <ele>753.0</ele>
        <time>2018-10-03T12:15:53.000Z</time>
      </trkpt>
      <trkpt lat="42.54624833" lon="-8.024995">
        <ele>753.0</ele>
        <time>2018-10-03T12:15:54.000Z</time>
      </trkpt>
      <trkpt lat="42.54625667" lon="-8.02499667">
        <ele>753.0</ele>
        <time>2018-10-03T12:15:55.000Z</time>
      </trkpt>
      <trkpt lat="42.54626833" lon="-8.02499833">
        <ele>753.0</ele>
        <time>2018-10-03T12:15:56.000Z</time>
      </trkpt>
      <trkpt lat="42.54628167" lon="-8.025">
        <ele>753.0</ele>
        <time>2018-10-03T12:15:57.000Z</time>
      </trkpt>
      <trkpt lat="42.546295" lon="-8.02500333">
        <ele>753.0</ele>
        <time>2018-10-03T12:15:58.000Z</time>
      </trkpt>
      <trkpt lat="42.54630833" lon="-8.02500667">
        <ele>753.0</ele>
        <time>2018-10-03T12:15:59.000Z</time>
      </trkpt>
      <trkpt lat="42.54631833" lon="-8.02500833">
        <ele>753.0</ele>
        <time>2018-10-03T12:16:00.000Z</time>
      </trkpt>
      <trkpt lat="42.54632833" lon="-8.02501333">
        <ele>753.0</ele>
        <time>2018-10-03T12:16:01.000Z</time>
      </trkpt>
      <trkpt lat="42.54633833" lon="-8.02501667">
        <ele>753.0</ele>
        <time>2018-10-03T12:16:02.000Z</time>
      </trkpt>
      <trkpt lat="42.54634833" lon="-8.02501833">
        <ele>753.0</ele>
        <time>2018-10-03T12:16:03.000Z</time>
      </trkpt>
      <trkpt lat="42.546355" lon="-8.02502167">
        <ele>754.0</ele>
        <time>2018-10-03T12:16:04.000Z</time>
      </trkpt>
      <trkpt lat="42.54636167" lon="-8.02502667">
        <ele>754.0</ele>
        <time>2018-10-03T12:16:05.000Z</time>
      </trkpt>
      <trkpt lat="42.54636667" lon="-8.02504">
        <ele>754.0</ele>
        <time>2018-10-03T12:16:06.000Z</time>
      </trkpt>
      <trkpt lat="42.54637167" lon="-8.02505">
        <ele>754.0</ele>
        <time>2018-10-03T12:16:07.000Z</time>
      </trkpt>
      <trkpt lat="42.546375" lon="-8.02506">
        <ele>755.0</ele>
        <time>2018-10-03T12:16:08.000Z</time>
      </trkpt>
      <trkpt lat="42.54638" lon="-8.02507">
        <ele>755.0</ele>
        <time>2018-10-03T12:16:09.000Z</time>
      </trkpt>
      <trkpt lat="42.54638667" lon="-8.02508">
        <ele>755.0</ele>
        <time>2018-10-03T12:16:10.000Z</time>
      </trkpt>
      <trkpt lat="42.54639333" lon="-8.02508833">
        <ele>755.0</ele>
        <time>2018-10-03T12:16:11.000Z</time>
      </trkpt>
      <trkpt lat="42.54639833" lon="-8.02509833">
        <ele>756.0</ele>
        <time>2018-10-03T12:16:12.000Z</time>
      </trkpt>
      <trkpt lat="42.546405" lon="-8.02511167">
        <ele>756.0</ele>
        <time>2018-10-03T12:16:13.000Z</time>
      </trkpt>
      <trkpt lat="42.54640833" lon="-8.02512333">
        <ele>756.0</ele>
        <time>2018-10-03T12:16:14.000Z</time>
      </trkpt>
      <trkpt lat="42.546415" lon="-8.02513333">
        <ele>757.0</ele>
        <time>2018-10-03T12:16:15.000Z</time>
      </trkpt>
      <trkpt lat="42.54642" lon="-8.025145">
        <ele>757.0</ele>
        <time>2018-10-03T12:16:16.000Z</time>
      </trkpt>
      <trkpt lat="42.54642333" lon="-8.02515833">
        <ele>758.0</ele>
        <time>2018-10-03T12:16:17.000Z</time>
      </trkpt>
      <trkpt lat="42.546425" lon="-8.02517333">
        <ele>758.0</ele>
        <time>2018-10-03T12:16:18.000Z</time>
      </trkpt>
      <trkpt lat="42.54642667" lon="-8.02518667">
        <ele>758.0</ele>
        <time>2018-10-03T12:16:19.000Z</time>
      </trkpt>
      <trkpt lat="42.54642833" lon="-8.0252">
        <ele>759.0</ele>
        <time>2018-10-03T12:16:20.000Z</time>
      </trkpt>
      <trkpt lat="42.546435" lon="-8.02521167">
        <ele>759.0</ele>
        <time>2018-10-03T12:16:21.000Z</time>
      </trkpt>
      <trkpt lat="42.54643833" lon="-8.025225">
        <ele>759.0</ele>
        <time>2018-10-03T12:16:22.000Z</time>
      </trkpt>
      <trkpt lat="42.54644167" lon="-8.02524">
        <ele>760.0</ele>
        <time>2018-10-03T12:16:23.000Z</time>
      </trkpt>
      <trkpt lat="42.54644667" lon="-8.02525333">
        <ele>760.0</ele>
        <time>2018-10-03T12:16:24.000Z</time>
      </trkpt>
      <trkpt lat="42.54645333" lon="-8.02527">
        <ele>760.0</ele>
        <time>2018-10-03T12:16:25.000Z</time>
      </trkpt>
      <trkpt lat="42.54646" lon="-8.02528667">
        <ele>760.0</ele>
        <time>2018-10-03T12:16:26.000Z</time>
      </trkpt>
      <trkpt lat="42.54646833" lon="-8.02530167">
        <ele>760.0</ele>
        <time>2018-10-03T12:16:27.000Z</time>
      </trkpt>
      <trkpt lat="42.54647833" lon="-8.02532">
        <ele>760.0</ele>
        <time>2018-10-03T12:16:28.000Z</time>
      </trkpt>
      <trkpt lat="42.54648667" lon="-8.025335">
        <ele>760.0</ele>
        <time>2018-10-03T12:16:29.000Z</time>
      </trkpt>
      <trkpt lat="42.546495" lon="-8.02535">
        <ele>760.0</ele>
        <time>2018-10-03T12:16:30.000Z</time>
      </trkpt>
      <trkpt lat="42.54650333" lon="-8.025365">
        <ele>761.0</ele>
        <time>2018-10-03T12:16:31.000Z</time>
      </trkpt>
      <trkpt lat="42.54651167" lon="-8.02538">
        <ele>761.0</ele>
        <time>2018-10-03T12:16:32.000Z</time>
      </trkpt>
      <trkpt lat="42.54652167" lon="-8.02539667">
        <ele>761.0</ele>
        <time>2018-10-03T12:16:33.000Z</time>
      </trkpt>
      <trkpt lat="42.54652833" lon="-8.02541">
        <ele>761.0</ele>
        <time>2018-10-03T12:16:34.000Z</time>
      </trkpt>
      <trkpt lat="42.54653167" lon="-8.02542333">
        <ele>762.0</ele>
        <time>2018-10-03T12:16:35.000Z</time>
      </trkpt>
      <trkpt lat="42.546535" lon="-8.02543833">
        <ele>762.0</ele>
        <time>2018-10-03T12:16:36.000Z</time>
      </trkpt>
      <trkpt lat="42.54653833" lon="-8.02545667">
        <ele>762.0</ele>
        <time>2018-10-03T12:16:37.000Z</time>
      </trkpt>
      <trkpt lat="42.546545" lon="-8.025475">
        <ele>763.0</ele>
        <time>2018-10-03T12:16:38.000Z</time>
      </trkpt>
      <trkpt lat="42.54655167" lon="-8.02549167">
        <ele>763.0</ele>
        <time>2018-10-03T12:16:39.000Z</time>
      </trkpt>
      <trkpt lat="42.54656" lon="-8.02551">
        <ele>763.0</ele>
        <time>2018-10-03T12:16:40.000Z</time>
      </trkpt>
      <trkpt lat="42.54656833" lon="-8.02552667">
        <ele>763.0</ele>
        <time>2018-10-03T12:16:41.000Z</time>
      </trkpt>
      <trkpt lat="42.54658" lon="-8.02554167">
        <ele>764.0</ele>
        <time>2018-10-03T12:16:42.000Z</time>
      </trkpt>
      <trkpt lat="42.54659167" lon="-8.02555833">
        <ele>764.0</ele>
        <time>2018-10-03T12:16:43.000Z</time>
      </trkpt>
      <trkpt lat="42.5466" lon="-8.025575">
        <ele>764.0</ele>
        <time>2018-10-03T12:16:44.000Z</time>
      </trkpt>
      <trkpt lat="42.54661167" lon="-8.02559">
        <ele>764.0</ele>
        <time>2018-10-03T12:16:45.000Z</time>
      </trkpt>
      <trkpt lat="42.54662" lon="-8.025605">
        <ele>765.0</ele>
        <time>2018-10-03T12:16:46.000Z</time>
      </trkpt>
      <trkpt lat="42.54662667" lon="-8.02562">
        <ele>765.0</ele>
        <time>2018-10-03T12:16:47.000Z</time>
      </trkpt>
      <trkpt lat="42.546635" lon="-8.025635">
        <ele>765.0</ele>
        <time>2018-10-03T12:16:48.000Z</time>
      </trkpt>
      <trkpt lat="42.546645" lon="-8.02565">
        <ele>765.0</ele>
        <time>2018-10-03T12:16:49.000Z</time>
      </trkpt>
      <trkpt lat="42.54665667" lon="-8.025665">
        <ele>765.0</ele>
        <time>2018-10-03T12:16:50.000Z</time>
      </trkpt>
      <trkpt lat="42.54666833" lon="-8.02568">
        <ele>766.0</ele>
        <time>2018-10-03T12:16:51.000Z</time>
      </trkpt>
      <trkpt lat="42.54667833" lon="-8.02569">
        <ele>766.0</ele>
        <time>2018-10-03T12:16:52.000Z</time>
      </trkpt>
      <trkpt lat="42.54668667" lon="-8.025705">
        <ele>766.0</ele>
        <time>2018-10-03T12:16:53.000Z</time>
      </trkpt>
      <trkpt lat="42.54669667" lon="-8.02571833">
        <ele>766.0</ele>
        <time>2018-10-03T12:16:54.000Z</time>
      </trkpt>
      <trkpt lat="42.546705" lon="-8.02573167">
        <ele>766.0</ele>
        <time>2018-10-03T12:16:55.000Z</time>
      </trkpt>
      <trkpt lat="42.546715" lon="-8.025745">
        <ele>767.0</ele>
        <time>2018-10-03T12:16:56.000Z</time>
      </trkpt>
      <trkpt lat="42.54672333" lon="-8.02575833">
        <ele>767.0</ele>
        <time>2018-10-03T12:16:57.000Z</time>
      </trkpt>
      <trkpt lat="42.54673" lon="-8.02577333">
        <ele>767.0</ele>
        <time>2018-10-03T12:16:58.000Z</time>
      </trkpt>
      <trkpt lat="42.54673833" lon="-8.025785">
        <ele>767.0</ele>
        <time>2018-10-03T12:16:59.000Z</time>
      </trkpt>
      <trkpt lat="42.54674833" lon="-8.02579833">
        <ele>767.0</ele>
        <time>2018-10-03T12:17:00.000Z</time>
      </trkpt>
      <trkpt lat="42.54676" lon="-8.02581167">
        <ele>767.0</ele>
        <time>2018-10-03T12:17:01.000Z</time>
      </trkpt>
      <trkpt lat="42.54677" lon="-8.025825">
        <ele>767.0</ele>
        <time>2018-10-03T12:17:02.000Z</time>
      </trkpt>
      <trkpt lat="42.54678167" lon="-8.02583833">
        <ele>767.0</ele>
        <time>2018-10-03T12:17:03.000Z</time>
      </trkpt>
      <trkpt lat="42.54679167" lon="-8.025855">
        <ele>767.0</ele>
        <time>2018-10-03T12:17:04.000Z</time>
      </trkpt>
      <trkpt lat="42.5468" lon="-8.02587">
        <ele>767.0</ele>
        <time>2018-10-03T12:17:05.000Z</time>
      </trkpt>
      <trkpt lat="42.54681" lon="-8.02588333">
        <ele>767.0</ele>
        <time>2018-10-03T12:17:06.000Z</time>
      </trkpt>
      <trkpt lat="42.54682" lon="-8.02589833">
        <ele>767.0</ele>
        <time>2018-10-03T12:17:07.000Z</time>
      </trkpt>
      <trkpt lat="42.54683" lon="-8.025915">
        <ele>767.0</ele>
        <time>2018-10-03T12:17:08.000Z</time>
      </trkpt>
      <trkpt lat="42.54684" lon="-8.02593167">
        <ele>767.0</ele>
        <time>2018-10-03T12:17:09.000Z</time>
      </trkpt>
      <trkpt lat="42.54684667" lon="-8.02594833">
        <ele>767.0</ele>
        <time>2018-10-03T12:17:10.000Z</time>
      </trkpt>
      <trkpt lat="42.54685167" lon="-8.02596333">
        <ele>767.0</ele>
        <time>2018-10-03T12:17:11.000Z</time>
      </trkpt>
      <trkpt lat="42.54685667" lon="-8.02598">
        <ele>767.0</ele>
        <time>2018-10-03T12:17:12.000Z</time>
      </trkpt>
      <trkpt lat="42.54686167" lon="-8.02599667">
        <ele>767.0</ele>
        <time>2018-10-03T12:17:13.000Z</time>
      </trkpt>
      <trkpt lat="42.546865" lon="-8.02600833">
        <ele>767.0</ele>
        <time>2018-10-03T12:17:14.000Z</time>
      </trkpt>
      <trkpt lat="42.54686667" lon="-8.02602333">
        <ele>767.0</ele>
        <time>2018-10-03T12:17:15.000Z</time>
      </trkpt>
      <trkpt lat="42.546865" lon="-8.026035">
        <ele>767.0</ele>
        <time>2018-10-03T12:17:16.000Z</time>
      </trkpt>
      <trkpt lat="42.54686" lon="-8.026045">
        <ele>767.0</ele>
        <time>2018-10-03T12:17:17.000Z</time>
      </trkpt>
      <trkpt lat="42.54685833" lon="-8.02605833">
        <ele>767.0</ele>
        <time>2018-10-03T12:17:18.000Z</time>
      </trkpt>
      <trkpt lat="42.54685833" lon="-8.02607167">
        <ele>767.0</ele>
        <time>2018-10-03T12:17:19.000Z</time>
      </trkpt>
      <trkpt lat="42.54685833" lon="-8.02608167">
        <ele>767.0</ele>
        <time>2018-10-03T12:17:20.000Z</time>
      </trkpt>
      <trkpt lat="42.54685833" lon="-8.026095">
        <ele>767.0</ele>
        <time>2018-10-03T12:17:21.000Z</time>
      </trkpt>
      <trkpt lat="42.54685833" lon="-8.02611167">
        <ele>767.0</ele>
        <time>2018-10-03T12:17:22.000Z</time>
      </trkpt>
      <trkpt lat="42.54685667" lon="-8.02612833">
        <ele>766.0</ele>
        <time>2018-10-03T12:17:23.000Z</time>
      </trkpt>
      <trkpt lat="42.54685167" lon="-8.026145">
        <ele>766.0</ele>
        <time>2018-10-03T12:17:24.000Z</time>
      </trkpt>
      <trkpt lat="42.54684667" lon="-8.02616333">
        <ele>766.0</ele>
        <time>2018-10-03T12:17:25.000Z</time>
      </trkpt>
      <trkpt lat="42.54684" lon="-8.02618">
        <ele>766.0</ele>
        <time>2018-10-03T12:17:26.000Z</time>
      </trkpt>
      <trkpt lat="42.54683167" lon="-8.02619667">
        <ele>766.0</ele>
        <time>2018-10-03T12:17:27.000Z</time>
      </trkpt>
      <trkpt lat="42.54682167" lon="-8.026215">
        <ele>766.0</ele>
        <time>2018-10-03T12:17:28.000Z</time>
      </trkpt>
      <trkpt lat="42.546815" lon="-8.02623333">
        <ele>766.0</ele>
        <time>2018-10-03T12:17:29.000Z</time>
      </trkpt>
      <trkpt lat="42.54681" lon="-8.02625">
        <ele>766.0</ele>
        <time>2018-10-03T12:17:30.000Z</time>
      </trkpt>
      <trkpt lat="42.546805" lon="-8.02626333">
        <ele>766.0</ele>
        <time>2018-10-03T12:17:31.000Z</time>
      </trkpt>
      <trkpt lat="42.5468" lon="-8.026275">
        <ele>766.0</ele>
        <time>2018-10-03T12:17:32.000Z</time>
      </trkpt>
      <trkpt lat="42.54679333" lon="-8.02628833">
        <ele>766.0</ele>
        <time>2018-10-03T12:17:33.000Z</time>
      </trkpt>
      <trkpt lat="42.54678667" lon="-8.0263">
        <ele>766.0</ele>
        <time>2018-10-03T12:17:34.000Z</time>
      </trkpt>
      <trkpt lat="42.54678" lon="-8.02631333">
        <ele>766.0</ele>
        <time>2018-10-03T12:17:35.000Z</time>
      </trkpt>
      <trkpt lat="42.546775" lon="-8.02632833">
        <ele>766.0</ele>
        <time>2018-10-03T12:17:36.000Z</time>
      </trkpt>
      <trkpt lat="42.54677" lon="-8.026345">
        <ele>766.0</ele>
        <time>2018-10-03T12:17:37.000Z</time>
      </trkpt>
      <trkpt lat="42.546765" lon="-8.02636">
        <ele>766.0</ele>
        <time>2018-10-03T12:17:38.000Z</time>
      </trkpt>
      <trkpt lat="42.54676" lon="-8.026375">
        <ele>766.0</ele>
        <time>2018-10-03T12:17:39.000Z</time>
      </trkpt>
      <trkpt lat="42.54675333" lon="-8.026395">
        <ele>766.0</ele>
        <time>2018-10-03T12:17:40.000Z</time>
      </trkpt>
      <trkpt lat="42.546745" lon="-8.02641167">
        <ele>766.0</ele>
        <time>2018-10-03T12:17:41.000Z</time>
      </trkpt>
      <trkpt lat="42.54673667" lon="-8.02642833">
        <ele>766.0</ele>
        <time>2018-10-03T12:17:42.000Z</time>
      </trkpt>
      <trkpt lat="42.54672667" lon="-8.026445">
        <ele>766.0</ele>
        <time>2018-10-03T12:17:43.000Z</time>
      </trkpt>
      <trkpt lat="42.54671833" lon="-8.02645833">
        <ele>766.0</ele>
        <time>2018-10-03T12:17:44.000Z</time>
      </trkpt>
      <trkpt lat="42.54670833" lon="-8.02646833">
        <ele>766.0</ele>
        <time>2018-10-03T12:17:45.000Z</time>
      </trkpt>
      <trkpt lat="42.54669833" lon="-8.02647333">
        <ele>766.0</ele>
        <time>2018-10-03T12:17:46.000Z</time>
      </trkpt>
      <trkpt lat="42.54669" lon="-8.02648167">
        <ele>766.0</ele>
        <time>2018-10-03T12:17:47.000Z</time>
      </trkpt>
      <trkpt lat="42.54668167" lon="-8.02649333">
        <ele>766.0</ele>
        <time>2018-10-03T12:17:48.000Z</time>
      </trkpt>
      <trkpt lat="42.54667" lon="-8.02649833">
        <ele>766.0</ele>
        <time>2018-10-03T12:17:49.000Z</time>
      </trkpt>
      <trkpt lat="42.54665833" lon="-8.026505">
        <ele>766.0</ele>
        <time>2018-10-03T12:17:50.000Z</time>
      </trkpt>
      <trkpt lat="42.54664833" lon="-8.02651333">
        <ele>766.0</ele>
        <time>2018-10-03T12:17:51.000Z</time>
      </trkpt>
      <trkpt lat="42.546635" lon="-8.02652333">
        <ele>766.0</ele>
        <time>2018-10-03T12:17:52.000Z</time>
      </trkpt>
      <trkpt lat="42.54662167" lon="-8.02653333">
        <ele>766.0</ele>
        <time>2018-10-03T12:17:53.000Z</time>
      </trkpt>
      <trkpt lat="42.54660667" lon="-8.02654333">
        <ele>766.0</ele>
        <time>2018-10-03T12:17:54.000Z</time>
      </trkpt>
      <trkpt lat="42.54659167" lon="-8.02655167">
        <ele>766.0</ele>
        <time>2018-10-03T12:17:55.000Z</time>
      </trkpt>
      <trkpt lat="42.54657833" lon="-8.02656167">
        <ele>767.0</ele>
        <time>2018-10-03T12:17:56.000Z</time>
      </trkpt>
      <trkpt lat="42.546565" lon="-8.02657167">
        <ele>767.0</ele>
        <time>2018-10-03T12:17:57.000Z</time>
      </trkpt>
      <trkpt lat="42.54655333" lon="-8.02658333">
        <ele>767.0</ele>
        <time>2018-10-03T12:17:58.000Z</time>
      </trkpt>
      <trkpt lat="42.54654333" lon="-8.026595">
        <ele>767.0</ele>
        <time>2018-10-03T12:17:59.000Z</time>
      </trkpt>
      <trkpt lat="42.54653333" lon="-8.02660667">
        <ele>767.0</ele>
        <time>2018-10-03T12:18:00.000Z</time>
      </trkpt>
      <trkpt lat="42.54652333" lon="-8.02661667">
        <ele>767.0</ele>
        <time>2018-10-03T12:18:01.000Z</time>
      </trkpt>
      <trkpt lat="42.54651667" lon="-8.02662833">
        <ele>768.0</ele>
        <time>2018-10-03T12:18:02.000Z</time>
      </trkpt>
      <trkpt lat="42.54651" lon="-8.02664333">
        <ele>768.0</ele>
        <time>2018-10-03T12:18:03.000Z</time>
      </trkpt>
      <trkpt lat="42.54650167" lon="-8.02666">
        <ele>768.0</ele>
        <time>2018-10-03T12:18:04.000Z</time>
      </trkpt>
      <trkpt lat="42.546495" lon="-8.02667667">
        <ele>768.0</ele>
        <time>2018-10-03T12:18:05.000Z</time>
      </trkpt>
      <trkpt lat="42.54648667" lon="-8.02669667">
        <ele>768.0</ele>
        <time>2018-10-03T12:18:06.000Z</time>
      </trkpt>
      <trkpt lat="42.54648167" lon="-8.026715">
        <ele>768.0</ele>
        <time>2018-10-03T12:18:07.000Z</time>
      </trkpt>
      <trkpt lat="42.546475" lon="-8.02673333">
        <ele>768.0</ele>
        <time>2018-10-03T12:18:08.000Z</time>
      </trkpt>
      <trkpt lat="42.54646833" lon="-8.02675">
        <ele>768.0</ele>
        <time>2018-10-03T12:18:09.000Z</time>
      </trkpt>
      <trkpt lat="42.54646167" lon="-8.02676833">
        <ele>768.0</ele>
        <time>2018-10-03T12:18:10.000Z</time>
      </trkpt>
      <trkpt lat="42.54645667" lon="-8.02678667">
        <ele>768.0</ele>
        <time>2018-10-03T12:18:11.000Z</time>
      </trkpt>
      <trkpt lat="42.54645167" lon="-8.026805">
        <ele>768.0</ele>
        <time>2018-10-03T12:18:12.000Z</time>
      </trkpt>
      <trkpt lat="42.54644833" lon="-8.02682333">
        <ele>768.0</ele>
        <time>2018-10-03T12:18:13.000Z</time>
      </trkpt>
      <trkpt lat="42.54644333" lon="-8.02683833">
        <ele>769.0</ele>
        <time>2018-10-03T12:18:14.000Z</time>
      </trkpt>
      <trkpt lat="42.54644" lon="-8.026855">
        <ele>769.0</ele>
        <time>2018-10-03T12:18:15.000Z</time>
      </trkpt>
      <trkpt lat="42.546435" lon="-8.02687333">
        <ele>769.0</ele>
        <time>2018-10-03T12:18:16.000Z</time>
      </trkpt>
      <trkpt lat="42.54643167" lon="-8.02689167">
        <ele>769.0</ele>
        <time>2018-10-03T12:18:17.000Z</time>
      </trkpt>
      <trkpt lat="42.54642667" lon="-8.026905">
        <ele>769.0</ele>
        <time>2018-10-03T12:18:18.000Z</time>
      </trkpt>
      <trkpt lat="42.54641833" lon="-8.02692">
        <ele>769.0</ele>
        <time>2018-10-03T12:18:19.000Z</time>
      </trkpt>
      <trkpt lat="42.54640833" lon="-8.02694">
        <ele>769.0</ele>
        <time>2018-10-03T12:18:20.000Z</time>
      </trkpt>
      <trkpt lat="42.5464" lon="-8.02696">
        <ele>769.0</ele>
        <time>2018-10-03T12:18:21.000Z</time>
      </trkpt>
      <trkpt lat="42.546395" lon="-8.02697667">
        <ele>769.0</ele>
        <time>2018-10-03T12:18:22.000Z</time>
      </trkpt>
      <trkpt lat="42.546395" lon="-8.02699833">
        <ele>769.0</ele>
        <time>2018-10-03T12:18:23.000Z</time>
      </trkpt>
      <trkpt lat="42.546395" lon="-8.02701667">
        <ele>769.0</ele>
        <time>2018-10-03T12:18:24.000Z</time>
      </trkpt>
      <trkpt lat="42.546395" lon="-8.027035">
        <ele>769.0</ele>
        <time>2018-10-03T12:18:25.000Z</time>
      </trkpt>
      <trkpt lat="42.54639833" lon="-8.027055">
        <ele>769.0</ele>
        <time>2018-10-03T12:18:26.000Z</time>
      </trkpt>
      <trkpt lat="42.5464" lon="-8.02706833">
        <ele>769.0</ele>
        <time>2018-10-03T12:18:27.000Z</time>
      </trkpt>
      <trkpt lat="42.54640333" lon="-8.02708">
        <ele>769.0</ele>
        <time>2018-10-03T12:18:28.000Z</time>
      </trkpt>
      <trkpt lat="42.546405" lon="-8.02709333">
        <ele>769.0</ele>
        <time>2018-10-03T12:18:29.000Z</time>
      </trkpt>
      <trkpt lat="42.54640833" lon="-8.02710833">
        <ele>769.0</ele>
        <time>2018-10-03T12:18:30.000Z</time>
      </trkpt>
      <trkpt lat="42.54641167" lon="-8.027125">
        <ele>769.0</ele>
        <time>2018-10-03T12:18:31.000Z</time>
      </trkpt>
      <trkpt lat="42.546415" lon="-8.02714167">
        <ele>769.0</ele>
        <time>2018-10-03T12:18:32.000Z</time>
      </trkpt>
      <trkpt lat="42.54641667" lon="-8.02716">
        <ele>769.0</ele>
        <time>2018-10-03T12:18:33.000Z</time>
      </trkpt>
      <trkpt lat="42.54641833" lon="-8.02717833">
        <ele>769.0</ele>
        <time>2018-10-03T12:18:34.000Z</time>
      </trkpt>
      <trkpt lat="42.54642167" lon="-8.027195">
        <ele>770.0</ele>
        <time>2018-10-03T12:18:35.000Z</time>
      </trkpt>
      <trkpt lat="42.54642333" lon="-8.02721333">
        <ele>770.0</ele>
        <time>2018-10-03T12:18:36.000Z</time>
      </trkpt>
      <trkpt lat="42.546425" lon="-8.02723">
        <ele>770.0</ele>
        <time>2018-10-03T12:18:37.000Z</time>
      </trkpt>
      <trkpt lat="42.54642667" lon="-8.02724833">
        <ele>770.0</ele>
        <time>2018-10-03T12:18:38.000Z</time>
      </trkpt>
      <trkpt lat="42.54643" lon="-8.02726333">
        <ele>770.0</ele>
        <time>2018-10-03T12:18:39.000Z</time>
      </trkpt>
      <trkpt lat="42.54643167" lon="-8.02728">
        <ele>770.0</ele>
        <time>2018-10-03T12:18:40.000Z</time>
      </trkpt>
      <trkpt lat="42.54643333" lon="-8.02729667">
        <ele>770.0</ele>
        <time>2018-10-03T12:18:41.000Z</time>
      </trkpt>
      <trkpt lat="42.54643333" lon="-8.027315">
        <ele>770.0</ele>
        <time>2018-10-03T12:18:42.000Z</time>
      </trkpt>
      <trkpt lat="42.54643333" lon="-8.02733167">
        <ele>770.0</ele>
        <time>2018-10-03T12:18:43.000Z</time>
      </trkpt>
      <trkpt lat="42.546435" lon="-8.02734833">
        <ele>770.0</ele>
        <time>2018-10-03T12:18:44.000Z</time>
      </trkpt>
      <trkpt lat="42.54643667" lon="-8.02736333">
        <ele>770.0</ele>
        <time>2018-10-03T12:18:45.000Z</time>
      </trkpt>
      <trkpt lat="42.54644" lon="-8.02738">
        <ele>770.0</ele>
        <time>2018-10-03T12:18:46.000Z</time>
      </trkpt>
      <trkpt lat="42.54644167" lon="-8.02739833">
        <ele>770.0</ele>
        <time>2018-10-03T12:18:47.000Z</time>
      </trkpt>
      <trkpt lat="42.54644333" lon="-8.027415">
        <ele>770.0</ele>
        <time>2018-10-03T12:18:48.000Z</time>
      </trkpt>
      <trkpt lat="42.546445" lon="-8.02743333">
        <ele>770.0</ele>
        <time>2018-10-03T12:18:49.000Z</time>
      </trkpt>
      <trkpt lat="42.54644667" lon="-8.02745">
        <ele>770.0</ele>
        <time>2018-10-03T12:18:50.000Z</time>
      </trkpt>
      <trkpt lat="42.54644833" lon="-8.02746667">
        <ele>770.0</ele>
        <time>2018-10-03T12:18:51.000Z</time>
      </trkpt>
      <trkpt lat="42.54645" lon="-8.02748333">
        <ele>770.0</ele>
        <time>2018-10-03T12:18:52.000Z</time>
      </trkpt>
      <trkpt lat="42.54645333" lon="-8.0275">
        <ele>771.0</ele>
        <time>2018-10-03T12:18:53.000Z</time>
      </trkpt>
      <trkpt lat="42.54645333" lon="-8.027515">
        <ele>771.0</ele>
        <time>2018-10-03T12:18:54.000Z</time>
      </trkpt>
      <trkpt lat="42.546455" lon="-8.02753167">
        <ele>771.0</ele>
        <time>2018-10-03T12:18:55.000Z</time>
      </trkpt>
      <trkpt lat="42.546455" lon="-8.02754667">
        <ele>771.0</ele>
        <time>2018-10-03T12:18:56.000Z</time>
      </trkpt>
      <trkpt lat="42.54645833" lon="-8.02756">
        <ele>771.0</ele>
        <time>2018-10-03T12:18:57.000Z</time>
      </trkpt>
      <trkpt lat="42.54646" lon="-8.02757167">
        <ele>771.0</ele>
        <time>2018-10-03T12:18:58.000Z</time>
      </trkpt>
      <trkpt lat="42.54646333" lon="-8.027585">
        <ele>771.0</ele>
        <time>2018-10-03T12:18:59.000Z</time>
      </trkpt>
      <trkpt lat="42.546465" lon="-8.0276">
        <ele>771.0</ele>
        <time>2018-10-03T12:19:00.000Z</time>
      </trkpt>
      <trkpt lat="42.54646833" lon="-8.027615">
        <ele>772.0</ele>
        <time>2018-10-03T12:19:01.000Z</time>
      </trkpt>
      <trkpt lat="42.54647" lon="-8.02763167">
        <ele>772.0</ele>
        <time>2018-10-03T12:19:02.000Z</time>
      </trkpt>
      <trkpt lat="42.54647333" lon="-8.02764833">
        <ele>772.0</ele>
        <time>2018-10-03T12:19:03.000Z</time>
      </trkpt>
      <trkpt lat="42.54647667" lon="-8.027665">
        <ele>772.0</ele>
        <time>2018-10-03T12:19:04.000Z</time>
      </trkpt>
      <trkpt lat="42.54647833" lon="-8.02768167">
        <ele>772.0</ele>
        <time>2018-10-03T12:19:05.000Z</time>
      </trkpt>
      <trkpt lat="42.54648" lon="-8.0277">
        <ele>772.0</ele>
        <time>2018-10-03T12:19:06.000Z</time>
      </trkpt>
      <trkpt lat="42.54648167" lon="-8.02771833">
        <ele>772.0</ele>
        <time>2018-10-03T12:19:07.000Z</time>
      </trkpt>
      <trkpt lat="42.54648667" lon="-8.02773667">
        <ele>772.0</ele>
        <time>2018-10-03T12:19:08.000Z</time>
      </trkpt>
      <trkpt lat="42.54649167" lon="-8.02775333">
        <ele>772.0</ele>
        <time>2018-10-03T12:19:09.000Z</time>
      </trkpt>
      <trkpt lat="42.54649667" lon="-8.02777167">
        <ele>772.0</ele>
        <time>2018-10-03T12:19:10.000Z</time>
      </trkpt>
      <trkpt lat="42.5465" lon="-8.02778833">
        <ele>772.0</ele>
        <time>2018-10-03T12:19:11.000Z</time>
      </trkpt>
      <trkpt lat="42.546505" lon="-8.02780667">
        <ele>772.0</ele>
        <time>2018-10-03T12:19:12.000Z</time>
      </trkpt>
      <trkpt lat="42.54650833" lon="-8.027825">
        <ele>772.0</ele>
        <time>2018-10-03T12:19:13.000Z</time>
      </trkpt>
      <trkpt lat="42.546515" lon="-8.02784333">
        <ele>772.0</ele>
        <time>2018-10-03T12:19:14.000Z</time>
      </trkpt>
      <trkpt lat="42.54652" lon="-8.02786167">
        <ele>772.0</ele>
        <time>2018-10-03T12:19:15.000Z</time>
      </trkpt>
      <trkpt lat="42.54652667" lon="-8.02787833">
        <ele>772.0</ele>
        <time>2018-10-03T12:19:16.000Z</time>
      </trkpt>
      <trkpt lat="42.54653" lon="-8.027895">
        <ele>772.0</ele>
        <time>2018-10-03T12:19:17.000Z</time>
      </trkpt>
      <trkpt lat="42.54653667" lon="-8.02791167">
        <ele>772.0</ele>
        <time>2018-10-03T12:19:18.000Z</time>
      </trkpt>
      <trkpt lat="42.54654833" lon="-8.02793">
        <ele>772.0</ele>
        <time>2018-10-03T12:19:19.000Z</time>
      </trkpt>
      <trkpt lat="42.546555" lon="-8.02794833">
        <ele>772.0</ele>
        <time>2018-10-03T12:19:20.000Z</time>
      </trkpt>
      <trkpt lat="42.54656333" lon="-8.02796667">
        <ele>772.0</ele>
        <time>2018-10-03T12:19:21.000Z</time>
      </trkpt>
      <trkpt lat="42.54657167" lon="-8.02798333">
        <ele>772.0</ele>
        <time>2018-10-03T12:19:22.000Z</time>
      </trkpt>
      <trkpt lat="42.54658167" lon="-8.02800167">
        <ele>772.0</ele>
        <time>2018-10-03T12:19:23.000Z</time>
      </trkpt>
      <trkpt lat="42.54658833" lon="-8.02802">
        <ele>772.0</ele>
        <time>2018-10-03T12:19:24.000Z</time>
      </trkpt>
      <trkpt lat="42.54659833" lon="-8.02804">
        <ele>772.0</ele>
        <time>2018-10-03T12:19:25.000Z</time>
      </trkpt>
      <trkpt lat="42.54661167" lon="-8.02806">
        <ele>772.0</ele>
        <time>2018-10-03T12:19:26.000Z</time>
      </trkpt>
      <trkpt lat="42.54662167" lon="-8.028075">
        <ele>772.0</ele>
        <time>2018-10-03T12:19:27.000Z</time>
      </trkpt>
      <trkpt lat="42.54663167" lon="-8.02809333">
        <ele>772.0</ele>
        <time>2018-10-03T12:19:28.000Z</time>
      </trkpt>
      <trkpt lat="42.54664167" lon="-8.02811">
        <ele>772.0</ele>
        <time>2018-10-03T12:19:29.000Z</time>
      </trkpt>
      <trkpt lat="42.54665" lon="-8.02812667">
        <ele>772.0</ele>
        <time>2018-10-03T12:19:30.000Z</time>
      </trkpt>
      <trkpt lat="42.54665833" lon="-8.028145">
        <ele>772.0</ele>
        <time>2018-10-03T12:19:31.000Z</time>
      </trkpt>
      <trkpt lat="42.54666667" lon="-8.02816167">
        <ele>772.0</ele>
        <time>2018-10-03T12:19:32.000Z</time>
      </trkpt>
      <trkpt lat="42.546675" lon="-8.02817833">
        <ele>772.0</ele>
        <time>2018-10-03T12:19:33.000Z</time>
      </trkpt>
      <trkpt lat="42.54668167" lon="-8.028195">
        <ele>772.0</ele>
        <time>2018-10-03T12:19:34.000Z</time>
      </trkpt>
      <trkpt lat="42.54669" lon="-8.02821">
        <ele>772.0</ele>
        <time>2018-10-03T12:19:35.000Z</time>
      </trkpt>
      <trkpt lat="42.54669667" lon="-8.02822833">
        <ele>772.0</ele>
        <time>2018-10-03T12:19:36.000Z</time>
      </trkpt>
      <trkpt lat="42.54670333" lon="-8.028245">
        <ele>772.0</ele>
        <time>2018-10-03T12:19:37.000Z</time>
      </trkpt>
      <trkpt lat="42.54671" lon="-8.02826333">
        <ele>772.0</ele>
        <time>2018-10-03T12:19:38.000Z</time>
      </trkpt>
      <trkpt lat="42.54671833" lon="-8.02828">
        <ele>773.0</ele>
        <time>2018-10-03T12:19:39.000Z</time>
      </trkpt>
      <trkpt lat="42.54672667" lon="-8.028295">
        <ele>773.0</ele>
        <time>2018-10-03T12:19:40.000Z</time>
      </trkpt>
      <trkpt lat="42.54673333" lon="-8.02831">
        <ele>773.0</ele>
        <time>2018-10-03T12:19:41.000Z</time>
      </trkpt>
      <trkpt lat="42.54674167" lon="-8.02832667">
        <ele>773.0</ele>
        <time>2018-10-03T12:19:42.000Z</time>
      </trkpt>
      <trkpt lat="42.54674833" lon="-8.028345">
        <ele>773.0</ele>
        <time>2018-10-03T12:19:43.000Z</time>
      </trkpt>
      <trkpt lat="42.54675667" lon="-8.02836167">
        <ele>773.0</ele>
        <time>2018-10-03T12:19:44.000Z</time>
      </trkpt>
      <trkpt lat="42.546765" lon="-8.02838">
        <ele>773.0</ele>
        <time>2018-10-03T12:19:45.000Z</time>
      </trkpt>
      <trkpt lat="42.54677167" lon="-8.02839833">
        <ele>773.0</ele>
        <time>2018-10-03T12:19:46.000Z</time>
      </trkpt>
      <trkpt lat="42.54678" lon="-8.02841667">
        <ele>773.0</ele>
        <time>2018-10-03T12:19:47.000Z</time>
      </trkpt>
      <trkpt lat="42.546785" lon="-8.02843333">
        <ele>773.0</ele>
        <time>2018-10-03T12:19:48.000Z</time>
      </trkpt>
      <trkpt lat="42.54679167" lon="-8.02845167">
        <ele>773.0</ele>
        <time>2018-10-03T12:19:49.000Z</time>
      </trkpt>
      <trkpt lat="42.5468" lon="-8.02847167">
        <ele>773.0</ele>
        <time>2018-10-03T12:19:50.000Z</time>
      </trkpt>
      <trkpt lat="42.54680833" lon="-8.02849167">
        <ele>773.0</ele>
        <time>2018-10-03T12:19:51.000Z</time>
      </trkpt>
      <trkpt lat="42.54681833" lon="-8.02851">
        <ele>773.0</ele>
        <time>2018-10-03T12:19:52.000Z</time>
      </trkpt>
      <trkpt lat="42.54682833" lon="-8.02852833">
        <ele>773.0</ele>
        <time>2018-10-03T12:19:53.000Z</time>
      </trkpt>
      <trkpt lat="42.54683833" lon="-8.02854667">
        <ele>773.0</ele>
        <time>2018-10-03T12:19:54.000Z</time>
      </trkpt>
      <trkpt lat="42.54684667" lon="-8.028565">
        <ele>773.0</ele>
        <time>2018-10-03T12:19:55.000Z</time>
      </trkpt>
      <trkpt lat="42.54685667" lon="-8.028585">
        <ele>773.0</ele>
        <time>2018-10-03T12:19:56.000Z</time>
      </trkpt>
      <trkpt lat="42.54686667" lon="-8.02860333">
        <ele>773.0</ele>
        <time>2018-10-03T12:19:57.000Z</time>
      </trkpt>
      <trkpt lat="42.546875" lon="-8.02862167">
        <ele>773.0</ele>
        <time>2018-10-03T12:19:58.000Z</time>
      </trkpt>
      <trkpt lat="42.546885" lon="-8.02864">
        <ele>773.0</ele>
        <time>2018-10-03T12:19:59.000Z</time>
      </trkpt>
      <trkpt lat="42.54689667" lon="-8.02866">
        <ele>773.0</ele>
        <time>2018-10-03T12:20:00.000Z</time>
      </trkpt>
      <trkpt lat="42.54690833" lon="-8.02867833">
        <ele>773.0</ele>
        <time>2018-10-03T12:20:01.000Z</time>
      </trkpt>
      <trkpt lat="42.54692" lon="-8.02869833">
        <ele>773.0</ele>
        <time>2018-10-03T12:20:02.000Z</time>
      </trkpt>
      <trkpt lat="42.54693167" lon="-8.02871667">
        <ele>773.0</ele>
        <time>2018-10-03T12:20:03.000Z</time>
      </trkpt>
      <trkpt lat="42.54694" lon="-8.028735">
        <ele>773.0</ele>
        <time>2018-10-03T12:20:04.000Z</time>
      </trkpt>
      <trkpt lat="42.54694833" lon="-8.02875333">
        <ele>773.0</ele>
        <time>2018-10-03T12:20:05.000Z</time>
      </trkpt>
      <trkpt lat="42.54695833" lon="-8.02877333">
        <ele>773.0</ele>
        <time>2018-10-03T12:20:06.000Z</time>
      </trkpt>
      <trkpt lat="42.54696833" lon="-8.02879167">
        <ele>773.0</ele>
        <time>2018-10-03T12:20:07.000Z</time>
      </trkpt>
      <trkpt lat="42.54697833" lon="-8.02881">
        <ele>773.0</ele>
        <time>2018-10-03T12:20:08.000Z</time>
      </trkpt>
      <trkpt lat="42.54698667" lon="-8.02882833">
        <ele>773.0</ele>
        <time>2018-10-03T12:20:09.000Z</time>
      </trkpt>
      <trkpt lat="42.54699333" lon="-8.02884667">
        <ele>773.0</ele>
        <time>2018-10-03T12:20:10.000Z</time>
      </trkpt>
      <trkpt lat="42.547" lon="-8.02886333">
        <ele>773.0</ele>
        <time>2018-10-03T12:20:11.000Z</time>
      </trkpt>
      <trkpt lat="42.54700667" lon="-8.02888">
        <ele>773.0</ele>
        <time>2018-10-03T12:20:12.000Z</time>
      </trkpt>
      <trkpt lat="42.54701333" lon="-8.02889833">
        <ele>773.0</ele>
        <time>2018-10-03T12:20:13.000Z</time>
      </trkpt>
      <trkpt lat="42.54701833" lon="-8.028915">
        <ele>773.0</ele>
        <time>2018-10-03T12:20:14.000Z</time>
      </trkpt>
      <trkpt lat="42.547025" lon="-8.028935">
        <ele>773.0</ele>
        <time>2018-10-03T12:20:15.000Z</time>
      </trkpt>
      <trkpt lat="42.54703333" lon="-8.028955">
        <ele>773.0</ele>
        <time>2018-10-03T12:20:16.000Z</time>
      </trkpt>
      <trkpt lat="42.54704333" lon="-8.02897667">
        <ele>774.0</ele>
        <time>2018-10-03T12:20:17.000Z</time>
      </trkpt>
      <trkpt lat="42.54705167" lon="-8.02899667">
        <ele>774.0</ele>
        <time>2018-10-03T12:20:18.000Z</time>
      </trkpt>
      <trkpt lat="42.54706" lon="-8.02901667">
        <ele>774.0</ele>
        <time>2018-10-03T12:20:19.000Z</time>
      </trkpt>
      <trkpt lat="42.54706833" lon="-8.02903667">
        <ele>774.0</ele>
        <time>2018-10-03T12:20:20.000Z</time>
      </trkpt>
      <trkpt lat="42.547075" lon="-8.02905333">
        <ele>774.0</ele>
        <time>2018-10-03T12:20:21.000Z</time>
      </trkpt>
      <trkpt lat="42.54708167" lon="-8.02907333">
        <ele>774.0</ele>
        <time>2018-10-03T12:20:22.000Z</time>
      </trkpt>
      <trkpt lat="42.54708667" lon="-8.02909167">
        <ele>774.0</ele>
        <time>2018-10-03T12:20:23.000Z</time>
      </trkpt>
      <trkpt lat="42.54709167" lon="-8.02911">
        <ele>774.0</ele>
        <time>2018-10-03T12:20:24.000Z</time>
      </trkpt>
      <trkpt lat="42.54709667" lon="-8.02912833">
        <ele>774.0</ele>
        <time>2018-10-03T12:20:25.000Z</time>
      </trkpt>
      <trkpt lat="42.54710333" lon="-8.02914833">
        <ele>775.0</ele>
        <time>2018-10-03T12:20:26.000Z</time>
      </trkpt>
      <trkpt lat="42.54710833" lon="-8.02917">
        <ele>775.0</ele>
        <time>2018-10-03T12:20:27.000Z</time>
      </trkpt>
      <trkpt lat="42.547115" lon="-8.02918833">
        <ele>775.0</ele>
        <time>2018-10-03T12:20:28.000Z</time>
      </trkpt>
      <trkpt lat="42.54712333" lon="-8.02921">
        <ele>775.0</ele>
        <time>2018-10-03T12:20:29.000Z</time>
      </trkpt>
      <trkpt lat="42.54713" lon="-8.02922667">
        <ele>775.0</ele>
        <time>2018-10-03T12:20:30.000Z</time>
      </trkpt>
      <trkpt lat="42.54713667" lon="-8.02924667">
        <ele>775.0</ele>
        <time>2018-10-03T12:20:31.000Z</time>
      </trkpt>
      <trkpt lat="42.54714167" lon="-8.02926833">
        <ele>776.0</ele>
        <time>2018-10-03T12:20:32.000Z</time>
      </trkpt>
      <trkpt lat="42.54714667" lon="-8.02928667">
        <ele>776.0</ele>
        <time>2018-10-03T12:20:33.000Z</time>
      </trkpt>
      <trkpt lat="42.54715167" lon="-8.02930667">
        <ele>776.0</ele>
        <time>2018-10-03T12:20:34.000Z</time>
      </trkpt>
      <trkpt lat="42.54716" lon="-8.029325">
        <ele>776.0</ele>
        <time>2018-10-03T12:20:35.000Z</time>
      </trkpt>
      <trkpt lat="42.547165" lon="-8.029345">
        <ele>776.0</ele>
        <time>2018-10-03T12:20:36.000Z</time>
      </trkpt>
      <trkpt lat="42.54717167" lon="-8.029365">
        <ele>776.0</ele>
        <time>2018-10-03T12:20:37.000Z</time>
      </trkpt>
      <trkpt lat="42.54717667" lon="-8.02938333">
        <ele>776.0</ele>
        <time>2018-10-03T12:20:38.000Z</time>
      </trkpt>
      <trkpt lat="42.547185" lon="-8.02940333">
        <ele>776.0</ele>
        <time>2018-10-03T12:20:39.000Z</time>
      </trkpt>
      <trkpt lat="42.547195" lon="-8.02942333">
        <ele>776.0</ele>
        <time>2018-10-03T12:20:40.000Z</time>
      </trkpt>
      <trkpt lat="42.54720333" lon="-8.02944333">
        <ele>777.0</ele>
        <time>2018-10-03T12:20:41.000Z</time>
      </trkpt>
      <trkpt lat="42.54721167" lon="-8.02946167">
        <ele>777.0</ele>
        <time>2018-10-03T12:20:42.000Z</time>
      </trkpt>
      <trkpt lat="42.54722167" lon="-8.02947667">
        <ele>777.0</ele>
        <time>2018-10-03T12:20:43.000Z</time>
      </trkpt>
      <trkpt lat="42.54723" lon="-8.02949333">
        <ele>777.0</ele>
        <time>2018-10-03T12:20:44.000Z</time>
      </trkpt>
      <trkpt lat="42.54723833" lon="-8.02951">
        <ele>777.0</ele>
        <time>2018-10-03T12:20:45.000Z</time>
      </trkpt>
      <trkpt lat="42.54724667" lon="-8.029525">
        <ele>777.0</ele>
        <time>2018-10-03T12:20:46.000Z</time>
      </trkpt>
      <trkpt lat="42.547255" lon="-8.02953833">
        <ele>777.0</ele>
        <time>2018-10-03T12:20:47.000Z</time>
      </trkpt>
      <trkpt lat="42.54726333" lon="-8.02955">
        <ele>777.0</ele>
        <time>2018-10-03T12:20:48.000Z</time>
      </trkpt>
      <trkpt lat="42.54727333" lon="-8.02956333">
        <ele>777.0</ele>
        <time>2018-10-03T12:20:49.000Z</time>
      </trkpt>
      <trkpt lat="42.547285" lon="-8.02957667">
        <ele>777.0</ele>
        <time>2018-10-03T12:20:50.000Z</time>
      </trkpt>
      <trkpt lat="42.547295" lon="-8.02958833">
        <ele>777.0</ele>
        <time>2018-10-03T12:20:51.000Z</time>
      </trkpt>
      <trkpt lat="42.54730333" lon="-8.02959667">
        <ele>777.0</ele>
        <time>2018-10-03T12:20:52.000Z</time>
      </trkpt>
      <trkpt lat="42.54731" lon="-8.029605">
        <ele>777.0</ele>
        <time>2018-10-03T12:20:53.000Z</time>
      </trkpt>
      <trkpt lat="42.54731667" lon="-8.02961667">
        <ele>777.0</ele>
        <time>2018-10-03T12:20:54.000Z</time>
      </trkpt>
      <trkpt lat="42.54732667" lon="-8.02962667">
        <ele>777.0</ele>
        <time>2018-10-03T12:20:55.000Z</time>
      </trkpt>
      <trkpt lat="42.54733667" lon="-8.02964">
        <ele>777.0</ele>
        <time>2018-10-03T12:20:56.000Z</time>
      </trkpt>
      <trkpt lat="42.547345" lon="-8.02965333">
        <ele>777.0</ele>
        <time>2018-10-03T12:20:57.000Z</time>
      </trkpt>
      <trkpt lat="42.54735333" lon="-8.02966667">
        <ele>777.0</ele>
        <time>2018-10-03T12:20:58.000Z</time>
      </trkpt>
      <trkpt lat="42.54736" lon="-8.02968333">
        <ele>776.0</ele>
        <time>2018-10-03T12:20:59.000Z</time>
      </trkpt>
      <trkpt lat="42.54736667" lon="-8.02969667">
        <ele>776.0</ele>
        <time>2018-10-03T12:21:00.000Z</time>
      </trkpt>
      <trkpt lat="42.547375" lon="-8.029705">
        <ele>776.0</ele>
        <time>2018-10-03T12:21:01.000Z</time>
      </trkpt>
      <trkpt lat="42.54738167" lon="-8.02971333">
        <ele>776.0</ele>
        <time>2018-10-03T12:21:02.000Z</time>
      </trkpt>
      <trkpt lat="42.54739167" lon="-8.02972333">
        <ele>776.0</ele>
        <time>2018-10-03T12:21:03.000Z</time>
      </trkpt>
      <trkpt lat="42.5474" lon="-8.02973333">
        <ele>776.0</ele>
        <time>2018-10-03T12:21:04.000Z</time>
      </trkpt>
      <trkpt lat="42.54740833" lon="-8.02974333">
        <ele>776.0</ele>
        <time>2018-10-03T12:21:05.000Z</time>
      </trkpt>
      <trkpt lat="42.54741833" lon="-8.029755">
        <ele>776.0</ele>
        <time>2018-10-03T12:21:06.000Z</time>
      </trkpt>
      <trkpt lat="42.54742833" lon="-8.02976333">
        <ele>776.0</ele>
        <time>2018-10-03T12:21:07.000Z</time>
      </trkpt>
      <trkpt lat="42.54743833" lon="-8.02977333">
        <ele>776.0</ele>
        <time>2018-10-03T12:21:08.000Z</time>
      </trkpt>
      <trkpt lat="42.54744833" lon="-8.02978333">
        <ele>776.0</ele>
        <time>2018-10-03T12:21:09.000Z</time>
      </trkpt>
      <trkpt lat="42.547455" lon="-8.029795">
        <ele>776.0</ele>
        <time>2018-10-03T12:21:10.000Z</time>
      </trkpt>
      <trkpt lat="42.547465" lon="-8.02980333">
        <ele>776.0</ele>
        <time>2018-10-03T12:21:11.000Z</time>
      </trkpt>
      <trkpt lat="42.54747667" lon="-8.02981167">
        <ele>777.0</ele>
        <time>2018-10-03T12:21:12.000Z</time>
      </trkpt>
      <trkpt lat="42.54748833" lon="-8.02982333">
        <ele>777.0</ele>
        <time>2018-10-03T12:21:13.000Z</time>
      </trkpt>
      <trkpt lat="42.5475" lon="-8.02983667">
        <ele>777.0</ele>
        <time>2018-10-03T12:21:14.000Z</time>
      </trkpt>
      <trkpt lat="42.54751" lon="-8.02984833">
        <ele>777.0</ele>
        <time>2018-10-03T12:21:15.000Z</time>
      </trkpt>
      <trkpt lat="42.54751833" lon="-8.02986167">
        <ele>777.0</ele>
        <time>2018-10-03T12:21:16.000Z</time>
      </trkpt>
      <trkpt lat="42.54752833" lon="-8.029875">
        <ele>777.0</ele>
        <time>2018-10-03T12:21:17.000Z</time>
      </trkpt>
      <trkpt lat="42.54753833" lon="-8.029885">
        <ele>777.0</ele>
        <time>2018-10-03T12:21:18.000Z</time>
      </trkpt>
      <trkpt lat="42.54754667" lon="-8.0299">
        <ele>778.0</ele>
        <time>2018-10-03T12:21:19.000Z</time>
      </trkpt>
      <trkpt lat="42.54755833" lon="-8.029915">
        <ele>778.0</ele>
        <time>2018-10-03T12:21:20.000Z</time>
      </trkpt>
      <trkpt lat="42.54757" lon="-8.02993">
        <ele>778.0</ele>
        <time>2018-10-03T12:21:21.000Z</time>
      </trkpt>
      <trkpt lat="42.54758333" lon="-8.02994667">
        <ele>778.0</ele>
        <time>2018-10-03T12:21:22.000Z</time>
      </trkpt>
      <trkpt lat="42.547595" lon="-8.02996">
        <ele>778.0</ele>
        <time>2018-10-03T12:21:23.000Z</time>
      </trkpt>
      <trkpt lat="42.54760667" lon="-8.02997333">
        <ele>778.0</ele>
        <time>2018-10-03T12:21:24.000Z</time>
      </trkpt>
      <trkpt lat="42.54761667" lon="-8.02998667">
        <ele>778.0</ele>
        <time>2018-10-03T12:21:25.000Z</time>
      </trkpt>
      <trkpt lat="42.54762833" lon="-8.03">
        <ele>778.0</ele>
        <time>2018-10-03T12:21:26.000Z</time>
      </trkpt>
      <trkpt lat="42.54764" lon="-8.03001167">
        <ele>778.0</ele>
        <time>2018-10-03T12:21:27.000Z</time>
      </trkpt>
      <trkpt lat="42.54765167" lon="-8.030025">
        <ele>778.0</ele>
        <time>2018-10-03T12:21:28.000Z</time>
      </trkpt>
      <trkpt lat="42.54765833" lon="-8.03003833">
        <ele>778.0</ele>
        <time>2018-10-03T12:21:29.000Z</time>
      </trkpt>
      <trkpt lat="42.54766667" lon="-8.03005667">
        <ele>778.0</ele>
        <time>2018-10-03T12:21:30.000Z</time>
      </trkpt>
      <trkpt lat="42.54767667" lon="-8.030075">
        <ele>778.0</ele>
        <time>2018-10-03T12:21:31.000Z</time>
      </trkpt>
      <trkpt lat="42.54768833" lon="-8.03009167">
        <ele>778.0</ele>
        <time>2018-10-03T12:21:32.000Z</time>
      </trkpt>
      <trkpt lat="42.5477" lon="-8.030105">
        <ele>778.0</ele>
        <time>2018-10-03T12:21:33.000Z</time>
      </trkpt>
      <trkpt lat="42.54771167" lon="-8.03011833">
        <ele>778.0</ele>
        <time>2018-10-03T12:21:34.000Z</time>
      </trkpt>
      <trkpt lat="42.54772333" lon="-8.03013167">
        <ele>778.0</ele>
        <time>2018-10-03T12:21:35.000Z</time>
      </trkpt>
      <trkpt lat="42.547735" lon="-8.030145">
        <ele>778.0</ele>
        <time>2018-10-03T12:21:36.000Z</time>
      </trkpt>
      <trkpt lat="42.54774667" lon="-8.03015833">
        <ele>778.0</ele>
        <time>2018-10-03T12:21:37.000Z</time>
      </trkpt>
      <trkpt lat="42.54775833" lon="-8.03017">
        <ele>778.0</ele>
        <time>2018-10-03T12:21:38.000Z</time>
      </trkpt>
      <trkpt lat="42.54777" lon="-8.03018">
        <ele>778.0</ele>
        <time>2018-10-03T12:21:39.000Z</time>
      </trkpt>
      <trkpt lat="42.54778" lon="-8.03019333">
        <ele>779.0</ele>
        <time>2018-10-03T12:21:40.000Z</time>
      </trkpt>
      <trkpt lat="42.54779167" lon="-8.03020667">
        <ele>779.0</ele>
        <time>2018-10-03T12:21:41.000Z</time>
      </trkpt>
      <trkpt lat="42.54780333" lon="-8.03022">
        <ele>779.0</ele>
        <time>2018-10-03T12:21:42.000Z</time>
      </trkpt>
      <trkpt lat="42.547815" lon="-8.03023333">
        <ele>779.0</ele>
        <time>2018-10-03T12:21:43.000Z</time>
      </trkpt>
      <trkpt lat="42.547825" lon="-8.030245">
        <ele>779.0</ele>
        <time>2018-10-03T12:21:44.000Z</time>
      </trkpt>
      <trkpt lat="42.54783667" lon="-8.03026">
        <ele>779.0</ele>
        <time>2018-10-03T12:21:45.000Z</time>
      </trkpt>
      <trkpt lat="42.54784833" lon="-8.030275">
        <ele>779.0</ele>
        <time>2018-10-03T12:21:46.000Z</time>
      </trkpt>
      <trkpt lat="42.54785833" lon="-8.03028833">
        <ele>779.0</ele>
        <time>2018-10-03T12:21:47.000Z</time>
      </trkpt>
      <trkpt lat="42.54787" lon="-8.0303">
        <ele>780.0</ele>
        <time>2018-10-03T12:21:48.000Z</time>
      </trkpt>
      <trkpt lat="42.54788167" lon="-8.03031333">
        <ele>780.0</ele>
        <time>2018-10-03T12:21:49.000Z</time>
      </trkpt>
      <trkpt lat="42.547895" lon="-8.03033">
        <ele>780.0</ele>
        <time>2018-10-03T12:21:50.000Z</time>
      </trkpt>
      <trkpt lat="42.54790833" lon="-8.03034333">
        <ele>780.0</ele>
        <time>2018-10-03T12:21:51.000Z</time>
      </trkpt>
      <trkpt lat="42.54792333" lon="-8.03035667">
        <ele>780.0</ele>
        <time>2018-10-03T12:21:52.000Z</time>
      </trkpt>
      <trkpt lat="42.547935" lon="-8.03036667">
        <ele>781.0</ele>
        <time>2018-10-03T12:21:53.000Z</time>
      </trkpt>
      <trkpt lat="42.54794833" lon="-8.03037667">
        <ele>781.0</ele>
        <time>2018-10-03T12:21:54.000Z</time>
      </trkpt>
      <trkpt lat="42.54796" lon="-8.03038833">
        <ele>781.0</ele>
        <time>2018-10-03T12:21:55.000Z</time>
      </trkpt>
      <trkpt lat="42.54797333" lon="-8.03039833">
        <ele>781.0</ele>
        <time>2018-10-03T12:21:56.000Z</time>
      </trkpt>
      <trkpt lat="42.547985" lon="-8.03040833">
        <ele>781.0</ele>
        <time>2018-10-03T12:21:57.000Z</time>
      </trkpt>
      <trkpt lat="42.54799667" lon="-8.03042">
        <ele>781.0</ele>
        <time>2018-10-03T12:21:58.000Z</time>
      </trkpt>
      <trkpt lat="42.54800833" lon="-8.03043167">
        <ele>781.0</ele>
        <time>2018-10-03T12:21:59.000Z</time>
      </trkpt>
      <trkpt lat="42.54802" lon="-8.03044167">
        <ele>782.0</ele>
        <time>2018-10-03T12:22:00.000Z</time>
      </trkpt>
      <trkpt lat="42.54803167" lon="-8.03045167">
        <ele>782.0</ele>
        <time>2018-10-03T12:22:01.000Z</time>
      </trkpt>
      <trkpt lat="42.54804333" lon="-8.03046333">
        <ele>782.0</ele>
        <time>2018-10-03T12:22:02.000Z</time>
      </trkpt>
      <trkpt lat="42.548055" lon="-8.030475">
        <ele>782.0</ele>
        <time>2018-10-03T12:22:03.000Z</time>
      </trkpt>
      <trkpt lat="42.54806833" lon="-8.030485">
        <ele>782.0</ele>
        <time>2018-10-03T12:22:04.000Z</time>
      </trkpt>
      <trkpt lat="42.54808167" lon="-8.030495">
        <ele>782.0</ele>
        <time>2018-10-03T12:22:05.000Z</time>
      </trkpt>
      <trkpt lat="42.548095" lon="-8.03050667">
        <ele>782.0</ele>
        <time>2018-10-03T12:22:06.000Z</time>
      </trkpt>
      <trkpt lat="42.54811" lon="-8.03051833">
        <ele>782.0</ele>
        <time>2018-10-03T12:22:07.000Z</time>
      </trkpt>
      <trkpt lat="42.54812333" lon="-8.03052833">
        <ele>782.0</ele>
        <time>2018-10-03T12:22:08.000Z</time>
      </trkpt>
      <trkpt lat="42.54813667" lon="-8.03054">
        <ele>783.0</ele>
        <time>2018-10-03T12:22:09.000Z</time>
      </trkpt>
      <trkpt lat="42.54815" lon="-8.03055">
        <ele>783.0</ele>
        <time>2018-10-03T12:22:10.000Z</time>
      </trkpt>
      <trkpt lat="42.54816333" lon="-8.03055833">
        <ele>783.0</ele>
        <time>2018-10-03T12:22:11.000Z</time>
      </trkpt>
      <trkpt lat="42.54817667" lon="-8.03057">
        <ele>783.0</ele>
        <time>2018-10-03T12:22:12.000Z</time>
      </trkpt>
      <trkpt lat="42.54819" lon="-8.03058167">
        <ele>783.0</ele>
        <time>2018-10-03T12:22:13.000Z</time>
      </trkpt>
      <trkpt lat="42.54820167" lon="-8.03059333">
        <ele>783.0</ele>
        <time>2018-10-03T12:22:14.000Z</time>
      </trkpt>
      <trkpt lat="42.548215" lon="-8.030605">
        <ele>783.0</ele>
        <time>2018-10-03T12:22:15.000Z</time>
      </trkpt>
      <trkpt lat="42.54822833" lon="-8.030615">
        <ele>784.0</ele>
        <time>2018-10-03T12:22:16.000Z</time>
      </trkpt>
      <trkpt lat="42.54824167" lon="-8.03062667">
        <ele>784.0</ele>
        <time>2018-10-03T12:22:17.000Z</time>
      </trkpt>
      <trkpt lat="42.54825333" lon="-8.03063833">
        <ele>784.0</ele>
        <time>2018-10-03T12:22:18.000Z</time>
      </trkpt>
      <trkpt lat="42.54826667" lon="-8.03065">
        <ele>784.0</ele>
        <time>2018-10-03T12:22:19.000Z</time>
      </trkpt>
      <trkpt lat="42.54827667" lon="-8.03066167">
        <ele>784.0</ele>
        <time>2018-10-03T12:22:20.000Z</time>
      </trkpt>
      <trkpt lat="42.54828667" lon="-8.03067333">
        <ele>784.0</ele>
        <time>2018-10-03T12:22:21.000Z</time>
      </trkpt>
      <trkpt lat="42.54829333" lon="-8.03068833">
        <ele>784.0</ele>
        <time>2018-10-03T12:22:22.000Z</time>
      </trkpt>
      <trkpt lat="42.54830167" lon="-8.03070167">
        <ele>784.0</ele>
        <time>2018-10-03T12:22:23.000Z</time>
      </trkpt>
      <trkpt lat="42.54830667" lon="-8.03071667">
        <ele>784.0</ele>
        <time>2018-10-03T12:22:24.000Z</time>
      </trkpt>
      <trkpt lat="42.54830833" lon="-8.030735">
        <ele>784.0</ele>
        <time>2018-10-03T12:22:25.000Z</time>
      </trkpt>
      <trkpt lat="42.54830667" lon="-8.03075">
        <ele>784.0</ele>
        <time>2018-10-03T12:22:26.000Z</time>
      </trkpt>
      <trkpt lat="42.54830333" lon="-8.03076333">
        <ele>785.0</ele>
        <time>2018-10-03T12:22:27.000Z</time>
      </trkpt>
      <trkpt lat="42.54830167" lon="-8.03077833">
        <ele>785.0</ele>
        <time>2018-10-03T12:22:28.000Z</time>
      </trkpt>
      <trkpt lat="42.54830167" lon="-8.03079">
        <ele>785.0</ele>
        <time>2018-10-03T12:22:29.000Z</time>
      </trkpt>
      <trkpt lat="42.5483" lon="-8.03080167">
        <ele>785.0</ele>
        <time>2018-10-03T12:22:30.000Z</time>
      </trkpt>
      <trkpt lat="42.54829833" lon="-8.03081667">
        <ele>785.0</ele>
        <time>2018-10-03T12:22:31.000Z</time>
      </trkpt>
      <trkpt lat="42.54829667" lon="-8.03083167">
        <ele>785.0</ele>
        <time>2018-10-03T12:22:32.000Z</time>
      </trkpt>
      <trkpt lat="42.54829167" lon="-8.03084667">
        <ele>785.0</ele>
        <time>2018-10-03T12:22:33.000Z</time>
      </trkpt>
      <trkpt lat="42.54828833" lon="-8.03086167">
        <ele>785.0</ele>
        <time>2018-10-03T12:22:34.000Z</time>
      </trkpt>
      <trkpt lat="42.548285" lon="-8.030875">
        <ele>785.0</ele>
        <time>2018-10-03T12:22:35.000Z</time>
      </trkpt>
      <trkpt lat="42.54828167" lon="-8.03089">
        <ele>785.0</ele>
        <time>2018-10-03T12:22:36.000Z</time>
      </trkpt>
      <trkpt lat="42.54827833" lon="-8.030905">
        <ele>785.0</ele>
        <time>2018-10-03T12:22:37.000Z</time>
      </trkpt>
      <trkpt lat="42.54827833" lon="-8.03092">
        <ele>785.0</ele>
        <time>2018-10-03T12:22:38.000Z</time>
      </trkpt>
      <trkpt lat="42.54827667" lon="-8.030935">
        <ele>786.0</ele>
        <time>2018-10-03T12:22:39.000Z</time>
      </trkpt>
      <trkpt lat="42.54827333" lon="-8.03095">
        <ele>786.0</ele>
        <time>2018-10-03T12:22:40.000Z</time>
      </trkpt>
      <trkpt lat="42.54827" lon="-8.03096833">
        <ele>786.0</ele>
        <time>2018-10-03T12:22:41.000Z</time>
      </trkpt>
      <trkpt lat="42.54826667" lon="-8.03098667">
        <ele>786.0</ele>
        <time>2018-10-03T12:22:42.000Z</time>
      </trkpt>
      <trkpt lat="42.54826167" lon="-8.03100333">
        <ele>786.0</ele>
        <time>2018-10-03T12:22:43.000Z</time>
      </trkpt>
      <trkpt lat="42.54826" lon="-8.03101833">
        <ele>786.0</ele>
        <time>2018-10-03T12:22:44.000Z</time>
      </trkpt>
      <trkpt lat="42.548255" lon="-8.031035">
        <ele>786.0</ele>
        <time>2018-10-03T12:22:45.000Z</time>
      </trkpt>
      <trkpt lat="42.54824833" lon="-8.03105">
        <ele>786.0</ele>
        <time>2018-10-03T12:22:46.000Z</time>
      </trkpt>
      <trkpt lat="42.54824667" lon="-8.03106833">
        <ele>786.0</ele>
        <time>2018-10-03T12:22:47.000Z</time>
      </trkpt>
      <trkpt lat="42.548245" lon="-8.031085">
        <ele>787.0</ele>
        <time>2018-10-03T12:22:48.000Z</time>
      </trkpt>
      <trkpt lat="42.54824333" lon="-8.0311">
        <ele>787.0</ele>
        <time>2018-10-03T12:22:49.000Z</time>
      </trkpt>
      <trkpt lat="42.54824" lon="-8.03111667">
        <ele>787.0</ele>
        <time>2018-10-03T12:22:50.000Z</time>
      </trkpt>
      <trkpt lat="42.54823667" lon="-8.03113167">
        <ele>787.0</ele>
        <time>2018-10-03T12:22:51.000Z</time>
      </trkpt>
      <trkpt lat="42.54823667" lon="-8.03114833">
        <ele>788.0</ele>
        <time>2018-10-03T12:22:52.000Z</time>
      </trkpt>
      <trkpt lat="42.548235" lon="-8.031165">
        <ele>788.0</ele>
        <time>2018-10-03T12:22:53.000Z</time>
      </trkpt>
      <trkpt lat="42.54823167" lon="-8.03118333">
        <ele>788.0</ele>
        <time>2018-10-03T12:22:54.000Z</time>
      </trkpt>
      <trkpt lat="42.54823167" lon="-8.03120167">
        <ele>789.0</ele>
        <time>2018-10-03T12:22:55.000Z</time>
      </trkpt>
      <trkpt lat="42.54823333" lon="-8.03121833">
        <ele>789.0</ele>
        <time>2018-10-03T12:22:56.000Z</time>
      </trkpt>
      <trkpt lat="42.548235" lon="-8.03123333">
        <ele>789.0</ele>
        <time>2018-10-03T12:22:57.000Z</time>
      </trkpt>
      <trkpt lat="42.54823833" lon="-8.03125">
        <ele>790.0</ele>
        <time>2018-10-03T12:22:58.000Z</time>
      </trkpt>
      <trkpt lat="42.54824167" lon="-8.03126833">
        <ele>790.0</ele>
        <time>2018-10-03T12:22:59.000Z</time>
      </trkpt>
      <trkpt lat="42.54824333" lon="-8.031285">
        <ele>790.0</ele>
        <time>2018-10-03T12:23:00.000Z</time>
      </trkpt>
      <trkpt lat="42.548245" lon="-8.031305">
        <ele>791.0</ele>
        <time>2018-10-03T12:23:01.000Z</time>
      </trkpt>
      <trkpt lat="42.54824667" lon="-8.03132333">
        <ele>791.0</ele>
        <time>2018-10-03T12:23:02.000Z</time>
      </trkpt>
      <trkpt lat="42.54824833" lon="-8.03134167">
        <ele>791.0</ele>
        <time>2018-10-03T12:23:03.000Z</time>
      </trkpt>
      <trkpt lat="42.54825" lon="-8.03136">
        <ele>792.0</ele>
        <time>2018-10-03T12:23:04.000Z</time>
      </trkpt>
      <trkpt lat="42.54825333" lon="-8.03137667">
        <ele>792.0</ele>
        <time>2018-10-03T12:23:05.000Z</time>
      </trkpt>
      <trkpt lat="42.54825667" lon="-8.03139333">
        <ele>792.0</ele>
        <time>2018-10-03T12:23:06.000Z</time>
      </trkpt>
      <trkpt lat="42.54825833" lon="-8.03141">
        <ele>792.0</ele>
        <time>2018-10-03T12:23:07.000Z</time>
      </trkpt>
      <trkpt lat="42.54826333" lon="-8.03142833">
        <ele>792.0</ele>
        <time>2018-10-03T12:23:08.000Z</time>
      </trkpt>
      <trkpt lat="42.548265" lon="-8.03144667">
        <ele>792.0</ele>
        <time>2018-10-03T12:23:09.000Z</time>
      </trkpt>
      <trkpt lat="42.54827" lon="-8.031465">
        <ele>792.0</ele>
        <time>2018-10-03T12:23:10.000Z</time>
      </trkpt>
      <trkpt lat="42.54827333" lon="-8.03148333">
        <ele>792.0</ele>
        <time>2018-10-03T12:23:11.000Z</time>
      </trkpt>
      <trkpt lat="42.54827833" lon="-8.0315">
        <ele>792.0</ele>
        <time>2018-10-03T12:23:12.000Z</time>
      </trkpt>
      <trkpt lat="42.54828167" lon="-8.031515">
        <ele>793.0</ele>
        <time>2018-10-03T12:23:13.000Z</time>
      </trkpt>
      <trkpt lat="42.54828333" lon="-8.03152333">
        <ele>793.0</ele>
        <time>2018-10-03T12:23:14.000Z</time>
      </trkpt>
      <trkpt lat="42.548285" lon="-8.03153">
        <ele>793.0</ele>
        <time>2018-10-03T12:23:15.000Z</time>
      </trkpt>
      <trkpt lat="42.54829" lon="-8.03154167">
        <ele>792.0</ele>
        <time>2018-10-03T12:23:16.000Z</time>
      </trkpt>
      <trkpt lat="42.54829667" lon="-8.03155333">
        <ele>792.0</ele>
        <time>2018-10-03T12:23:17.000Z</time>
      </trkpt>
      <trkpt lat="42.54830333" lon="-8.03156667">
        <ele>792.0</ele>
        <time>2018-10-03T12:23:18.000Z</time>
      </trkpt>
      <trkpt lat="42.54831" lon="-8.03158">
        <ele>792.0</ele>
        <time>2018-10-03T12:23:19.000Z</time>
      </trkpt>
      <trkpt lat="42.54831667" lon="-8.03159167">
        <ele>792.0</ele>
        <time>2018-10-03T12:23:20.000Z</time>
      </trkpt>
      <trkpt lat="42.54832333" lon="-8.031605">
        <ele>792.0</ele>
        <time>2018-10-03T12:23:21.000Z</time>
      </trkpt>
      <trkpt lat="42.54833" lon="-8.031615">
        <ele>792.0</ele>
        <time>2018-10-03T12:23:22.000Z</time>
      </trkpt>
      <trkpt lat="42.54833667" lon="-8.03162833">
        <ele>792.0</ele>
        <time>2018-10-03T12:23:23.000Z</time>
      </trkpt>
      <trkpt lat="42.548345" lon="-8.03164167">
        <ele>793.0</ele>
        <time>2018-10-03T12:23:24.000Z</time>
      </trkpt>
      <trkpt lat="42.54835167" lon="-8.03165333">
        <ele>793.0</ele>
        <time>2018-10-03T12:23:25.000Z</time>
      </trkpt>
      <trkpt lat="42.54835833" lon="-8.031665">
        <ele>793.0</ele>
        <time>2018-10-03T12:23:26.000Z</time>
      </trkpt>
      <trkpt lat="42.548365" lon="-8.03167833">
        <ele>793.0</ele>
        <time>2018-10-03T12:23:27.000Z</time>
      </trkpt>
      <trkpt lat="42.54837" lon="-8.03168833">
        <ele>793.0</ele>
        <time>2018-10-03T12:23:28.000Z</time>
      </trkpt>
      <trkpt lat="42.54837667" lon="-8.0317">
        <ele>793.0</ele>
        <time>2018-10-03T12:23:29.000Z</time>
      </trkpt>
      <trkpt lat="42.548385" lon="-8.03171">
        <ele>793.0</ele>
        <time>2018-10-03T12:23:30.000Z</time>
      </trkpt>
      <trkpt lat="42.54839167" lon="-8.03172">
        <ele>793.0</ele>
        <time>2018-10-03T12:23:31.000Z</time>
      </trkpt>
      <trkpt lat="42.54839667" lon="-8.03173167">
        <ele>793.0</ele>
        <time>2018-10-03T12:23:32.000Z</time>
      </trkpt>
      <trkpt lat="42.54839833" lon="-8.03174">
        <ele>794.0</ele>
        <time>2018-10-03T12:23:33.000Z</time>
      </trkpt>
      <trkpt lat="42.54839833" lon="-8.03174333">
        <ele>794.0</ele>
        <time>2018-10-03T12:23:34.000Z</time>
      </trkpt>
      <trkpt lat="42.54839833" lon="-8.03174667">
        <ele>794.0</ele>
        <time>2018-10-03T12:23:35.000Z</time>
      </trkpt>
      <trkpt lat="42.54839833" lon="-8.03174833">
        <ele>794.0</ele>
        <time>2018-10-03T12:23:36.000Z</time>
      </trkpt>
      <trkpt lat="42.5484" lon="-8.031755">
        <ele>794.0</ele>
        <time>2018-10-03T12:23:37.000Z</time>
      </trkpt>
      <trkpt lat="42.54840333" lon="-8.03176167">
        <ele>794.0</ele>
        <time>2018-10-03T12:23:38.000Z</time>
      </trkpt>
      <trkpt lat="42.54840833" lon="-8.03177167">
        <ele>794.0</ele>
        <time>2018-10-03T12:23:39.000Z</time>
      </trkpt>
      <trkpt lat="42.548415" lon="-8.03178">
        <ele>794.0</ele>
        <time>2018-10-03T12:23:40.000Z</time>
      </trkpt>
      <trkpt lat="42.54842" lon="-8.03179167">
        <ele>794.0</ele>
        <time>2018-10-03T12:23:41.000Z</time>
      </trkpt>
      <trkpt lat="42.548425" lon="-8.0318">
        <ele>795.0</ele>
        <time>2018-10-03T12:23:42.000Z</time>
      </trkpt>
      <trkpt lat="42.54843167" lon="-8.03181">
        <ele>795.0</ele>
        <time>2018-10-03T12:23:43.000Z</time>
      </trkpt>
      <trkpt lat="42.54843833" lon="-8.03182">
        <ele>795.0</ele>
        <time>2018-10-03T12:23:44.000Z</time>
      </trkpt>
      <trkpt lat="42.54844333" lon="-8.03183167">
        <ele>795.0</ele>
        <time>2018-10-03T12:23:45.000Z</time>
      </trkpt>
      <trkpt lat="42.54845" lon="-8.03184167">
        <ele>796.0</ele>
        <time>2018-10-03T12:23:46.000Z</time>
      </trkpt>
      <trkpt lat="42.548455" lon="-8.03185333">
        <ele>796.0</ele>
        <time>2018-10-03T12:23:47.000Z</time>
      </trkpt>
      <trkpt lat="42.54846167" lon="-8.03186333">
        <ele>796.0</ele>
        <time>2018-10-03T12:23:48.000Z</time>
      </trkpt>
      <trkpt lat="42.54846667" lon="-8.03187333">
        <ele>796.0</ele>
        <time>2018-10-03T12:23:49.000Z</time>
      </trkpt>
      <trkpt lat="42.54847333" lon="-8.031885">
        <ele>796.0</ele>
        <time>2018-10-03T12:23:50.000Z</time>
      </trkpt>
      <trkpt lat="42.54848" lon="-8.03189333">
        <ele>797.0</ele>
        <time>2018-10-03T12:23:51.000Z</time>
      </trkpt>
      <trkpt lat="42.54848667" lon="-8.031905">
        <ele>797.0</ele>
        <time>2018-10-03T12:23:52.000Z</time>
      </trkpt>
      <trkpt lat="42.54849333" lon="-8.03191333">
        <ele>797.0</ele>
        <time>2018-10-03T12:23:53.000Z</time>
      </trkpt>
      <trkpt lat="42.54850167" lon="-8.03192333">
        <ele>797.0</ele>
        <time>2018-10-03T12:23:54.000Z</time>
      </trkpt>
      <trkpt lat="42.54850833" lon="-8.031935">
        <ele>797.0</ele>
        <time>2018-10-03T12:23:55.000Z</time>
      </trkpt>
      <trkpt lat="42.548515" lon="-8.03194667">
        <ele>797.0</ele>
        <time>2018-10-03T12:23:56.000Z</time>
      </trkpt>
      <trkpt lat="42.54852" lon="-8.03195833">
        <ele>797.0</ele>
        <time>2018-10-03T12:23:57.000Z</time>
      </trkpt>
      <trkpt lat="42.54852667" lon="-8.03197333">
        <ele>798.0</ele>
        <time>2018-10-03T12:23:58.000Z</time>
      </trkpt>
      <trkpt lat="42.54853167" lon="-8.03198667">
        <ele>798.0</ele>
        <time>2018-10-03T12:23:59.000Z</time>
      </trkpt>
      <trkpt lat="42.54853833" lon="-8.032">
        <ele>798.0</ele>
        <time>2018-10-03T12:24:00.000Z</time>
      </trkpt>
      <trkpt lat="42.548545" lon="-8.032015">
        <ele>798.0</ele>
        <time>2018-10-03T12:24:01.000Z</time>
      </trkpt>
      <trkpt lat="42.54855" lon="-8.03202833">
        <ele>798.0</ele>
        <time>2018-10-03T12:24:02.000Z</time>
      </trkpt>
      <trkpt lat="42.548555" lon="-8.03204167">
        <ele>799.0</ele>
        <time>2018-10-03T12:24:03.000Z</time>
      </trkpt>
      <trkpt lat="42.54856" lon="-8.03205667">
        <ele>799.0</ele>
        <time>2018-10-03T12:24:04.000Z</time>
      </trkpt>
      <trkpt lat="42.54856167" lon="-8.03207333">
        <ele>799.0</ele>
        <time>2018-10-03T12:24:05.000Z</time>
      </trkpt>
      <trkpt lat="42.548565" lon="-8.03208833">
        <ele>799.0</ele>
        <time>2018-10-03T12:24:06.000Z</time>
      </trkpt>
      <trkpt lat="42.54857" lon="-8.03210167">
        <ele>800.0</ele>
        <time>2018-10-03T12:24:07.000Z</time>
      </trkpt>
      <trkpt lat="42.548575" lon="-8.03211667">
        <ele>800.0</ele>
        <time>2018-10-03T12:24:08.000Z</time>
      </trkpt>
      <trkpt lat="42.54857833" lon="-8.03213167">
        <ele>800.0</ele>
        <time>2018-10-03T12:24:09.000Z</time>
      </trkpt>
      <trkpt lat="42.54858167" lon="-8.032145">
        <ele>801.0</ele>
        <time>2018-10-03T12:24:10.000Z</time>
      </trkpt>
      <trkpt lat="42.54858833" lon="-8.03215667">
        <ele>801.0</ele>
        <time>2018-10-03T12:24:11.000Z</time>
      </trkpt>
      <trkpt lat="42.54859167" lon="-8.03217">
        <ele>801.0</ele>
        <time>2018-10-03T12:24:12.000Z</time>
      </trkpt>
      <trkpt lat="42.548595" lon="-8.032185">
        <ele>801.0</ele>
        <time>2018-10-03T12:24:13.000Z</time>
      </trkpt>
      <trkpt lat="42.54859833" lon="-8.0322">
        <ele>802.0</ele>
        <time>2018-10-03T12:24:14.000Z</time>
      </trkpt>
      <trkpt lat="42.54860333" lon="-8.03221333">
        <ele>802.0</ele>
        <time>2018-10-03T12:24:15.000Z</time>
      </trkpt>
      <trkpt lat="42.54860833" lon="-8.032225">
        <ele>802.0</ele>
        <time>2018-10-03T12:24:16.000Z</time>
      </trkpt>
      <trkpt lat="42.54861167" lon="-8.03224">
        <ele>803.0</ele>
        <time>2018-10-03T12:24:17.000Z</time>
      </trkpt>
      <trkpt lat="42.548615" lon="-8.032255">
        <ele>803.0</ele>
        <time>2018-10-03T12:24:18.000Z</time>
      </trkpt>
      <trkpt lat="42.54861667" lon="-8.03227">
        <ele>803.0</ele>
        <time>2018-10-03T12:24:19.000Z</time>
      </trkpt>
      <trkpt lat="42.54862167" lon="-8.03228667">
        <ele>803.0</ele>
        <time>2018-10-03T12:24:20.000Z</time>
      </trkpt>
      <trkpt lat="42.548625" lon="-8.03230333">
        <ele>803.0</ele>
        <time>2018-10-03T12:24:21.000Z</time>
      </trkpt>
      <trkpt lat="42.54862833" lon="-8.03231833">
        <ele>804.0</ele>
        <time>2018-10-03T12:24:22.000Z</time>
      </trkpt>
      <trkpt lat="42.54863167" lon="-8.03233333">
        <ele>804.0</ele>
        <time>2018-10-03T12:24:23.000Z</time>
      </trkpt>
      <trkpt lat="42.548635" lon="-8.03234833">
        <ele>804.0</ele>
        <time>2018-10-03T12:24:24.000Z</time>
      </trkpt>
      <trkpt lat="42.54863833" lon="-8.032365">
        <ele>804.0</ele>
        <time>2018-10-03T12:24:25.000Z</time>
      </trkpt>
      <trkpt lat="42.54864167" lon="-8.03238167">
        <ele>804.0</ele>
        <time>2018-10-03T12:24:26.000Z</time>
      </trkpt>
      <trkpt lat="42.548645" lon="-8.03239167">
        <ele>805.0</ele>
        <time>2018-10-03T12:24:27.000Z</time>
      </trkpt>
      <trkpt lat="42.54865" lon="-8.032405">
        <ele>805.0</ele>
        <time>2018-10-03T12:24:28.000Z</time>
      </trkpt>
      <trkpt lat="42.54865333" lon="-8.03241667">
        <ele>805.0</ele>
        <time>2018-10-03T12:24:29.000Z</time>
      </trkpt>
      <trkpt lat="42.54865667" lon="-8.03243">
        <ele>805.0</ele>
        <time>2018-10-03T12:24:30.000Z</time>
      </trkpt>
      <trkpt lat="42.54866" lon="-8.03244667">
        <ele>806.0</ele>
        <time>2018-10-03T12:24:31.000Z</time>
      </trkpt>
      <trkpt lat="42.54866167" lon="-8.03246333">
        <ele>806.0</ele>
        <time>2018-10-03T12:24:32.000Z</time>
      </trkpt>
      <trkpt lat="42.54866" lon="-8.03248">
        <ele>806.0</ele>
        <time>2018-10-03T12:24:33.000Z</time>
      </trkpt>
      <trkpt lat="42.54866167" lon="-8.03249667">
        <ele>806.0</ele>
        <time>2018-10-03T12:24:34.000Z</time>
      </trkpt>
      <trkpt lat="42.54866" lon="-8.03251333">
        <ele>807.0</ele>
        <time>2018-10-03T12:24:35.000Z</time>
      </trkpt>
      <trkpt lat="42.54865667" lon="-8.03253167">
        <ele>807.0</ele>
        <time>2018-10-03T12:24:36.000Z</time>
      </trkpt>
      <trkpt lat="42.54865333" lon="-8.03255">
        <ele>807.0</ele>
        <time>2018-10-03T12:24:37.000Z</time>
      </trkpt>
      <trkpt lat="42.54865" lon="-8.03257">
        <ele>807.0</ele>
        <time>2018-10-03T12:24:38.000Z</time>
      </trkpt>
      <trkpt lat="42.54864667" lon="-8.03259">
        <ele>807.0</ele>
        <time>2018-10-03T12:24:39.000Z</time>
      </trkpt>
      <trkpt lat="42.54864333" lon="-8.03260667">
        <ele>807.0</ele>
        <time>2018-10-03T12:24:40.000Z</time>
      </trkpt>
      <trkpt lat="42.54864" lon="-8.032625">
        <ele>808.0</ele>
        <time>2018-10-03T12:24:41.000Z</time>
      </trkpt>
      <trkpt lat="42.54863667" lon="-8.03264333">
        <ele>808.0</ele>
        <time>2018-10-03T12:24:42.000Z</time>
      </trkpt>
      <trkpt lat="42.548635" lon="-8.03266167">
        <ele>808.0</ele>
        <time>2018-10-03T12:24:43.000Z</time>
      </trkpt>
      <trkpt lat="42.54863167" lon="-8.03268">
        <ele>808.0</ele>
        <time>2018-10-03T12:24:44.000Z</time>
      </trkpt>
      <trkpt lat="42.54862667" lon="-8.03269833">
        <ele>808.0</ele>
        <time>2018-10-03T12:24:45.000Z</time>
      </trkpt>
      <trkpt lat="42.54862167" lon="-8.03271833">
        <ele>809.0</ele>
        <time>2018-10-03T12:24:46.000Z</time>
      </trkpt>
      <trkpt lat="42.54861833" lon="-8.03273667">
        <ele>809.0</ele>
        <time>2018-10-03T12:24:47.000Z</time>
      </trkpt>
      <trkpt lat="42.54861333" lon="-8.03275667">
        <ele>809.0</ele>
        <time>2018-10-03T12:24:48.000Z</time>
      </trkpt>
      <trkpt lat="42.54861" lon="-8.032775">
        <ele>809.0</ele>
        <time>2018-10-03T12:24:49.000Z</time>
      </trkpt>
      <trkpt lat="42.54860667" lon="-8.032795">
        <ele>809.0</ele>
        <time>2018-10-03T12:24:50.000Z</time>
      </trkpt>
      <trkpt lat="42.548605" lon="-8.032815">
        <ele>809.0</ele>
        <time>2018-10-03T12:24:51.000Z</time>
      </trkpt>
      <trkpt lat="42.54860167" lon="-8.032835">
        <ele>809.0</ele>
        <time>2018-10-03T12:24:52.000Z</time>
      </trkpt>
      <trkpt lat="42.5486" lon="-8.032855">
        <ele>810.0</ele>
        <time>2018-10-03T12:24:53.000Z</time>
      </trkpt>
      <trkpt lat="42.5486" lon="-8.032875">
        <ele>810.0</ele>
        <time>2018-10-03T12:24:54.000Z</time>
      </trkpt>
      <trkpt lat="42.54859667" lon="-8.03289333">
        <ele>810.0</ele>
        <time>2018-10-03T12:24:55.000Z</time>
      </trkpt>
      <trkpt lat="42.548595" lon="-8.03291167">
        <ele>810.0</ele>
        <time>2018-10-03T12:24:56.000Z</time>
      </trkpt>
      <trkpt lat="42.54859333" lon="-8.03293">
        <ele>809.0</ele>
        <time>2018-10-03T12:24:57.000Z</time>
      </trkpt>
      <trkpt lat="42.54859167" lon="-8.03294833">
        <ele>809.0</ele>
        <time>2018-10-03T12:24:58.000Z</time>
      </trkpt>
      <trkpt lat="42.54859" lon="-8.03296667">
        <ele>809.0</ele>
        <time>2018-10-03T12:24:59.000Z</time>
      </trkpt>
      <trkpt lat="42.54858833" lon="-8.032985">
        <ele>809.0</ele>
        <time>2018-10-03T12:25:00.000Z</time>
      </trkpt>
      <trkpt lat="42.54858667" lon="-8.03300333">
        <ele>809.0</ele>
        <time>2018-10-03T12:25:01.000Z</time>
      </trkpt>
      <trkpt lat="42.548585" lon="-8.03301667">
        <ele>809.0</ele>
        <time>2018-10-03T12:25:02.000Z</time>
      </trkpt>
      <trkpt lat="42.54858167" lon="-8.03302833">
        <ele>809.0</ele>
        <time>2018-10-03T12:25:03.000Z</time>
      </trkpt>
      <trkpt lat="42.54858" lon="-8.03304333">
        <ele>809.0</ele>
        <time>2018-10-03T12:25:04.000Z</time>
      </trkpt>
      <trkpt lat="42.54857833" lon="-8.03306">
        <ele>810.0</ele>
        <time>2018-10-03T12:25:05.000Z</time>
      </trkpt>
      <trkpt lat="42.548575" lon="-8.03307667">
        <ele>810.0</ele>
        <time>2018-10-03T12:25:06.000Z</time>
      </trkpt>
      <trkpt lat="42.54857167" lon="-8.03309333">
        <ele>810.0</ele>
        <time>2018-10-03T12:25:07.000Z</time>
      </trkpt>
      <trkpt lat="42.54857" lon="-8.03311">
        <ele>810.0</ele>
        <time>2018-10-03T12:25:08.000Z</time>
      </trkpt>
      <trkpt lat="42.54856667" lon="-8.03312667">
        <ele>810.0</ele>
        <time>2018-10-03T12:25:09.000Z</time>
      </trkpt>
      <trkpt lat="42.548565" lon="-8.03314667">
        <ele>810.0</ele>
        <time>2018-10-03T12:25:10.000Z</time>
      </trkpt>
      <trkpt lat="42.54856333" lon="-8.03316333">
        <ele>810.0</ele>
        <time>2018-10-03T12:25:11.000Z</time>
      </trkpt>
      <trkpt lat="42.54856" lon="-8.03317833">
        <ele>810.0</ele>
        <time>2018-10-03T12:25:12.000Z</time>
      </trkpt>
      <trkpt lat="42.54855333" lon="-8.03319167">
        <ele>810.0</ele>
        <time>2018-10-03T12:25:13.000Z</time>
      </trkpt>
      <trkpt lat="42.54855" lon="-8.03320667">
        <ele>810.0</ele>
        <time>2018-10-03T12:25:14.000Z</time>
      </trkpt>
      <trkpt lat="42.54854667" lon="-8.03321833">
        <ele>810.0</ele>
        <time>2018-10-03T12:25:15.000Z</time>
      </trkpt>
      <trkpt lat="42.54854167" lon="-8.03323333">
        <ele>811.0</ele>
        <time>2018-10-03T12:25:16.000Z</time>
      </trkpt>
      <trkpt lat="42.54853833" lon="-8.03324833">
        <ele>811.0</ele>
        <time>2018-10-03T12:25:17.000Z</time>
      </trkpt>
      <trkpt lat="42.54853667" lon="-8.033265">
        <ele>811.0</ele>
        <time>2018-10-03T12:25:18.000Z</time>
      </trkpt>
      <trkpt lat="42.54853333" lon="-8.03328333">
        <ele>812.0</ele>
        <time>2018-10-03T12:25:19.000Z</time>
      </trkpt>
      <trkpt lat="42.54853" lon="-8.0333">
        <ele>812.0</ele>
        <time>2018-10-03T12:25:20.000Z</time>
      </trkpt>
      <trkpt lat="42.54852833" lon="-8.03331667">
        <ele>812.0</ele>
        <time>2018-10-03T12:25:21.000Z</time>
      </trkpt>
      <trkpt lat="42.54852333" lon="-8.033335">
        <ele>812.0</ele>
        <time>2018-10-03T12:25:22.000Z</time>
      </trkpt>
      <trkpt lat="42.54852" lon="-8.03335333">
        <ele>813.0</ele>
        <time>2018-10-03T12:25:23.000Z</time>
      </trkpt>
      <trkpt lat="42.54851833" lon="-8.03337">
        <ele>813.0</ele>
        <time>2018-10-03T12:25:24.000Z</time>
      </trkpt>
      <trkpt lat="42.54851667" lon="-8.03338833">
        <ele>813.0</ele>
        <time>2018-10-03T12:25:25.000Z</time>
      </trkpt>
      <trkpt lat="42.548515" lon="-8.033405">
        <ele>813.0</ele>
        <time>2018-10-03T12:25:26.000Z</time>
      </trkpt>
      <trkpt lat="42.54851167" lon="-8.03342333">
        <ele>814.0</ele>
        <time>2018-10-03T12:25:27.000Z</time>
      </trkpt>
      <trkpt lat="42.54851" lon="-8.03344">
        <ele>814.0</ele>
        <time>2018-10-03T12:25:28.000Z</time>
      </trkpt>
      <trkpt lat="42.54850833" lon="-8.03345667">
        <ele>814.0</ele>
        <time>2018-10-03T12:25:29.000Z</time>
      </trkpt>
      <trkpt lat="42.54850667" lon="-8.033475">
        <ele>814.0</ele>
        <time>2018-10-03T12:25:30.000Z</time>
      </trkpt>
      <trkpt lat="42.548505" lon="-8.03349333">
        <ele>814.0</ele>
        <time>2018-10-03T12:25:31.000Z</time>
      </trkpt>
      <trkpt lat="42.54850333" lon="-8.03351167">
        <ele>814.0</ele>
        <time>2018-10-03T12:25:32.000Z</time>
      </trkpt>
      <trkpt lat="42.54850333" lon="-8.03352833">
        <ele>815.0</ele>
        <time>2018-10-03T12:25:33.000Z</time>
      </trkpt>
      <trkpt lat="42.5485" lon="-8.033545">
        <ele>815.0</ele>
        <time>2018-10-03T12:25:34.000Z</time>
      </trkpt>
      <trkpt lat="42.548495" lon="-8.03356333">
        <ele>815.0</ele>
        <time>2018-10-03T12:25:35.000Z</time>
      </trkpt>
      <trkpt lat="42.54849333" lon="-8.03358">
        <ele>815.0</ele>
        <time>2018-10-03T12:25:36.000Z</time>
      </trkpt>
      <trkpt lat="42.54849" lon="-8.03359667">
        <ele>816.0</ele>
        <time>2018-10-03T12:25:37.000Z</time>
      </trkpt>
      <trkpt lat="42.54848833" lon="-8.033615">
        <ele>816.0</ele>
        <time>2018-10-03T12:25:38.000Z</time>
      </trkpt>
      <trkpt lat="42.54848667" lon="-8.03363833">
        <ele>816.0</ele>
        <time>2018-10-03T12:25:39.000Z</time>
      </trkpt>
      <trkpt lat="42.548485" lon="-8.03365667">
        <ele>817.0</ele>
        <time>2018-10-03T12:25:40.000Z</time>
      </trkpt>
      <trkpt lat="42.54848333" lon="-8.03367667">
        <ele>817.0</ele>
        <time>2018-10-03T12:25:41.000Z</time>
      </trkpt>
      <trkpt lat="42.54848" lon="-8.033695">
        <ele>817.0</ele>
        <time>2018-10-03T12:25:42.000Z</time>
      </trkpt>
      <trkpt lat="42.54847667" lon="-8.03371167">
        <ele>818.0</ele>
        <time>2018-10-03T12:25:43.000Z</time>
      </trkpt>
      <trkpt lat="42.54847333" lon="-8.03373">
        <ele>818.0</ele>
        <time>2018-10-03T12:25:44.000Z</time>
      </trkpt>
      <trkpt lat="42.54847" lon="-8.03374833">
        <ele>818.0</ele>
        <time>2018-10-03T12:25:45.000Z</time>
      </trkpt>
      <trkpt lat="42.54846667" lon="-8.03377">
        <ele>819.0</ele>
        <time>2018-10-03T12:25:46.000Z</time>
      </trkpt>
      <trkpt lat="42.54846333" lon="-8.03379">
        <ele>819.0</ele>
        <time>2018-10-03T12:25:47.000Z</time>
      </trkpt>
      <trkpt lat="42.54845833" lon="-8.03381">
        <ele>819.0</ele>
        <time>2018-10-03T12:25:48.000Z</time>
      </trkpt>
      <trkpt lat="42.548455" lon="-8.03383">
        <ele>820.0</ele>
        <time>2018-10-03T12:25:49.000Z</time>
      </trkpt>
      <trkpt lat="42.54845167" lon="-8.03385167">
        <ele>820.0</ele>
        <time>2018-10-03T12:25:50.000Z</time>
      </trkpt>
      <trkpt lat="42.54845" lon="-8.03387333">
        <ele>820.0</ele>
        <time>2018-10-03T12:25:51.000Z</time>
      </trkpt>
      <trkpt lat="42.54844667" lon="-8.03389167">
        <ele>821.0</ele>
        <time>2018-10-03T12:25:52.000Z</time>
      </trkpt>
      <trkpt lat="42.548445" lon="-8.03390833">
        <ele>821.0</ele>
        <time>2018-10-03T12:25:53.000Z</time>
      </trkpt>
      <trkpt lat="42.54844333" lon="-8.03392833">
        <ele>821.0</ele>
        <time>2018-10-03T12:25:54.000Z</time>
      </trkpt>
      <trkpt lat="42.54844167" lon="-8.03395">
        <ele>821.0</ele>
        <time>2018-10-03T12:25:55.000Z</time>
      </trkpt>
      <trkpt lat="42.54843833" lon="-8.03397167">
        <ele>821.0</ele>
        <time>2018-10-03T12:25:56.000Z</time>
      </trkpt>
      <trkpt lat="42.548435" lon="-8.03398833">
        <ele>821.0</ele>
        <time>2018-10-03T12:25:57.000Z</time>
      </trkpt>
      <trkpt lat="42.54843333" lon="-8.03400667">
        <ele>821.0</ele>
        <time>2018-10-03T12:25:58.000Z</time>
      </trkpt>
      <trkpt lat="42.54843" lon="-8.03402333">
        <ele>822.0</ele>
        <time>2018-10-03T12:25:59.000Z</time>
      </trkpt>
      <trkpt lat="42.54842667" lon="-8.03404167">
        <ele>822.0</ele>
        <time>2018-10-03T12:26:00.000Z</time>
      </trkpt>
      <trkpt lat="42.54842333" lon="-8.03406333">
        <ele>822.0</ele>
        <time>2018-10-03T12:26:01.000Z</time>
      </trkpt>
      <trkpt lat="42.54842167" lon="-8.03408333">
        <ele>822.0</ele>
        <time>2018-10-03T12:26:02.000Z</time>
      </trkpt>
      <trkpt lat="42.54841833" lon="-8.0341">
        <ele>822.0</ele>
        <time>2018-10-03T12:26:03.000Z</time>
      </trkpt>
      <trkpt lat="42.54841833" lon="-8.03411667">
        <ele>822.0</ele>
        <time>2018-10-03T12:26:04.000Z</time>
      </trkpt>
      <trkpt lat="42.548415" lon="-8.03413167">
        <ele>822.0</ele>
        <time>2018-10-03T12:26:05.000Z</time>
      </trkpt>
      <trkpt lat="42.54841167" lon="-8.03414833">
        <ele>823.0</ele>
        <time>2018-10-03T12:26:06.000Z</time>
      </trkpt>
      <trkpt lat="42.54840833" lon="-8.034165">
        <ele>823.0</ele>
        <time>2018-10-03T12:26:07.000Z</time>
      </trkpt>
      <trkpt lat="42.54840667" lon="-8.03418167">
        <ele>823.0</ele>
        <time>2018-10-03T12:26:08.000Z</time>
      </trkpt>
      <trkpt lat="42.54840333" lon="-8.03419833">
        <ele>823.0</ele>
        <time>2018-10-03T12:26:09.000Z</time>
      </trkpt>
      <trkpt lat="42.54840333" lon="-8.034215">
        <ele>823.0</ele>
        <time>2018-10-03T12:26:10.000Z</time>
      </trkpt>
      <trkpt lat="42.54840333" lon="-8.034235">
        <ele>823.0</ele>
        <time>2018-10-03T12:26:11.000Z</time>
      </trkpt>
      <trkpt lat="42.5484" lon="-8.03425167">
        <ele>823.0</ele>
        <time>2018-10-03T12:26:12.000Z</time>
      </trkpt>
      <trkpt lat="42.54839833" lon="-8.03427167">
        <ele>823.0</ele>
        <time>2018-10-03T12:26:13.000Z</time>
      </trkpt>
      <trkpt lat="42.54839833" lon="-8.03429167">
        <ele>823.0</ele>
        <time>2018-10-03T12:26:14.000Z</time>
      </trkpt>
      <trkpt lat="42.54839833" lon="-8.03431">
        <ele>822.0</ele>
        <time>2018-10-03T12:26:15.000Z</time>
      </trkpt>
      <trkpt lat="42.5484" lon="-8.03433167">
        <ele>822.0</ele>
        <time>2018-10-03T12:26:16.000Z</time>
      </trkpt>
      <trkpt lat="42.54840167" lon="-8.03435">
        <ele>822.0</ele>
        <time>2018-10-03T12:26:17.000Z</time>
      </trkpt>
      <trkpt lat="42.54840333" lon="-8.03436833">
        <ele>822.0</ele>
        <time>2018-10-03T12:26:18.000Z</time>
      </trkpt>
      <trkpt lat="42.54840167" lon="-8.03438667">
        <ele>822.0</ele>
        <time>2018-10-03T12:26:19.000Z</time>
      </trkpt>
      <trkpt lat="42.54840333" lon="-8.03440333">
        <ele>822.0</ele>
        <time>2018-10-03T12:26:20.000Z</time>
      </trkpt>
      <trkpt lat="42.54840667" lon="-8.03442167">
        <ele>822.0</ele>
        <time>2018-10-03T12:26:21.000Z</time>
      </trkpt>
      <trkpt lat="42.54841333" lon="-8.03444">
        <ele>822.0</ele>
        <time>2018-10-03T12:26:22.000Z</time>
      </trkpt>
      <trkpt lat="42.54842" lon="-8.03445833">
        <ele>822.0</ele>
        <time>2018-10-03T12:26:23.000Z</time>
      </trkpt>
      <trkpt lat="42.54842833" lon="-8.034475">
        <ele>822.0</ele>
        <time>2018-10-03T12:26:24.000Z</time>
      </trkpt>
      <trkpt lat="42.54843667" lon="-8.03449">
        <ele>822.0</ele>
        <time>2018-10-03T12:26:25.000Z</time>
      </trkpt>
      <trkpt lat="42.54844833" lon="-8.03450333">
        <ele>822.0</ele>
        <time>2018-10-03T12:26:26.000Z</time>
      </trkpt>
      <trkpt lat="42.54846167" lon="-8.03451333">
        <ele>822.0</ele>
        <time>2018-10-03T12:26:27.000Z</time>
      </trkpt>
      <trkpt lat="42.548475" lon="-8.03452333">
        <ele>822.0</ele>
        <time>2018-10-03T12:26:28.000Z</time>
      </trkpt>
      <trkpt lat="42.54849" lon="-8.03453">
        <ele>822.0</ele>
        <time>2018-10-03T12:26:29.000Z</time>
      </trkpt>
      <trkpt lat="42.54850667" lon="-8.03453333">
        <ele>822.0</ele>
        <time>2018-10-03T12:26:30.000Z</time>
      </trkpt>
      <trkpt lat="42.54852333" lon="-8.03453833">
        <ele>822.0</ele>
        <time>2018-10-03T12:26:31.000Z</time>
      </trkpt>
      <trkpt lat="42.54854" lon="-8.03454167">
        <ele>822.0</ele>
        <time>2018-10-03T12:26:32.000Z</time>
      </trkpt>
      <trkpt lat="42.54855667" lon="-8.03454667">
        <ele>822.0</ele>
        <time>2018-10-03T12:26:33.000Z</time>
      </trkpt>
      <trkpt lat="42.54857167" lon="-8.03455">
        <ele>822.0</ele>
        <time>2018-10-03T12:26:34.000Z</time>
      </trkpt>
      <trkpt lat="42.54859" lon="-8.03455333">
        <ele>822.0</ele>
        <time>2018-10-03T12:26:35.000Z</time>
      </trkpt>
      <trkpt lat="42.54860667" lon="-8.03455667">
        <ele>822.0</ele>
        <time>2018-10-03T12:26:36.000Z</time>
      </trkpt>
      <trkpt lat="42.54862333" lon="-8.03455833">
        <ele>822.0</ele>
        <time>2018-10-03T12:26:37.000Z</time>
      </trkpt>
      <trkpt lat="42.54863833" lon="-8.03456333">
        <ele>822.0</ele>
        <time>2018-10-03T12:26:38.000Z</time>
      </trkpt>
      <trkpt lat="42.54865333" lon="-8.03456667">
        <ele>822.0</ele>
        <time>2018-10-03T12:26:39.000Z</time>
      </trkpt>
      <trkpt lat="42.54867" lon="-8.03457167">
        <ele>821.0</ele>
        <time>2018-10-03T12:26:40.000Z</time>
      </trkpt>
      <trkpt lat="42.54868667" lon="-8.034575">
        <ele>821.0</ele>
        <time>2018-10-03T12:26:41.000Z</time>
      </trkpt>
      <trkpt lat="42.54870167" lon="-8.03458">
        <ele>821.0</ele>
        <time>2018-10-03T12:26:42.000Z</time>
      </trkpt>
      <trkpt lat="42.54871667" lon="-8.03458333">
        <ele>821.0</ele>
        <time>2018-10-03T12:26:43.000Z</time>
      </trkpt>
      <trkpt lat="42.54873333" lon="-8.034585">
        <ele>821.0</ele>
        <time>2018-10-03T12:26:44.000Z</time>
      </trkpt>
      <trkpt lat="42.54875" lon="-8.03458833">
        <ele>821.0</ele>
        <time>2018-10-03T12:26:45.000Z</time>
      </trkpt>
      <trkpt lat="42.54876833" lon="-8.03459167">
        <ele>821.0</ele>
        <time>2018-10-03T12:26:46.000Z</time>
      </trkpt>
      <trkpt lat="42.54878667" lon="-8.03459333">
        <ele>821.0</ele>
        <time>2018-10-03T12:26:47.000Z</time>
      </trkpt>
      <trkpt lat="42.54880333" lon="-8.03459667">
        <ele>822.0</ele>
        <time>2018-10-03T12:26:48.000Z</time>
      </trkpt>
      <trkpt lat="42.54882" lon="-8.03459833">
        <ele>822.0</ele>
        <time>2018-10-03T12:26:49.000Z</time>
      </trkpt>
      <trkpt lat="42.54883667" lon="-8.0346">
        <ele>822.0</ele>
        <time>2018-10-03T12:26:50.000Z</time>
      </trkpt>
      <trkpt lat="42.54885167" lon="-8.03460167">
        <ele>822.0</ele>
        <time>2018-10-03T12:26:51.000Z</time>
      </trkpt>
      <trkpt lat="42.54886667" lon="-8.03460167">
        <ele>822.0</ele>
        <time>2018-10-03T12:26:52.000Z</time>
      </trkpt>
      <trkpt lat="42.54888333" lon="-8.03460333">
        <ele>822.0</ele>
        <time>2018-10-03T12:26:53.000Z</time>
      </trkpt>
      <trkpt lat="42.54889833" lon="-8.03460333">
        <ele>822.0</ele>
        <time>2018-10-03T12:26:54.000Z</time>
      </trkpt>
      <trkpt lat="42.548915" lon="-8.034605">
        <ele>822.0</ele>
        <time>2018-10-03T12:26:55.000Z</time>
      </trkpt>
      <trkpt lat="42.54893167" lon="-8.03460667">
        <ele>822.0</ele>
        <time>2018-10-03T12:26:56.000Z</time>
      </trkpt>
      <trkpt lat="42.54894667" lon="-8.03460667">
        <ele>822.0</ele>
        <time>2018-10-03T12:26:57.000Z</time>
      </trkpt>
      <trkpt lat="42.54895833" lon="-8.03460833">
        <ele>822.0</ele>
        <time>2018-10-03T12:26:58.000Z</time>
      </trkpt>
      <trkpt lat="42.54896833" lon="-8.03461333">
        <ele>822.0</ele>
        <time>2018-10-03T12:26:59.000Z</time>
      </trkpt>
      <trkpt lat="42.54897667" lon="-8.034615">
        <ele>822.0</ele>
        <time>2018-10-03T12:27:00.000Z</time>
      </trkpt>
      <trkpt lat="42.54898833" lon="-8.03461667">
        <ele>822.0</ele>
        <time>2018-10-03T12:27:01.000Z</time>
      </trkpt>
      <trkpt lat="42.54900167" lon="-8.03461833">
        <ele>822.0</ele>
        <time>2018-10-03T12:27:02.000Z</time>
      </trkpt>
      <trkpt lat="42.549015" lon="-8.03462">
        <ele>822.0</ele>
        <time>2018-10-03T12:27:03.000Z</time>
      </trkpt>
      <trkpt lat="42.549025" lon="-8.03462333">
        <ele>822.0</ele>
        <time>2018-10-03T12:27:04.000Z</time>
      </trkpt>
      <trkpt lat="42.54903833" lon="-8.034625">
        <ele>822.0</ele>
        <time>2018-10-03T12:27:05.000Z</time>
      </trkpt>
      <trkpt lat="42.54904833" lon="-8.03463167">
        <ele>821.0</ele>
        <time>2018-10-03T12:27:06.000Z</time>
      </trkpt>
      <trkpt lat="42.54906" lon="-8.03463667">
        <ele>821.0</ele>
        <time>2018-10-03T12:27:07.000Z</time>
      </trkpt>
      <trkpt lat="42.54907333" lon="-8.03463833">
        <ele>821.0</ele>
        <time>2018-10-03T12:27:08.000Z</time>
      </trkpt>
      <trkpt lat="42.549085" lon="-8.03464">
        <ele>821.0</ele>
        <time>2018-10-03T12:27:09.000Z</time>
      </trkpt>
      <trkpt lat="42.54909667" lon="-8.034645">
        <ele>821.0</ele>
        <time>2018-10-03T12:27:10.000Z</time>
      </trkpt>
      <trkpt lat="42.54910833" lon="-8.03465167">
        <ele>821.0</ele>
        <time>2018-10-03T12:27:11.000Z</time>
      </trkpt>
      <trkpt lat="42.54912167" lon="-8.03465667">
        <ele>821.0</ele>
        <time>2018-10-03T12:27:12.000Z</time>
      </trkpt>
      <trkpt lat="42.54913667" lon="-8.03465667">
        <ele>821.0</ele>
        <time>2018-10-03T12:27:13.000Z</time>
      </trkpt>
      <trkpt lat="42.54915" lon="-8.03466">
        <ele>821.0</ele>
        <time>2018-10-03T12:27:14.000Z</time>
      </trkpt>
      <trkpt lat="42.549165" lon="-8.03466">
        <ele>821.0</ele>
        <time>2018-10-03T12:27:15.000Z</time>
      </trkpt>
      <trkpt lat="42.54918167" lon="-8.03466167">
        <ele>821.0</ele>
        <time>2018-10-03T12:27:16.000Z</time>
      </trkpt>
      <trkpt lat="42.54919833" lon="-8.034665">
        <ele>821.0</ele>
        <time>2018-10-03T12:27:17.000Z</time>
      </trkpt>
      <trkpt lat="42.549215" lon="-8.034665">
        <ele>821.0</ele>
        <time>2018-10-03T12:27:18.000Z</time>
      </trkpt>
      <trkpt lat="42.54923167" lon="-8.03466667">
        <ele>821.0</ele>
        <time>2018-10-03T12:27:19.000Z</time>
      </trkpt>
      <trkpt lat="42.54924667" lon="-8.03467167">
        <ele>821.0</ele>
        <time>2018-10-03T12:27:20.000Z</time>
      </trkpt>
      <trkpt lat="42.54926" lon="-8.03467667">
        <ele>822.0</ele>
        <time>2018-10-03T12:27:21.000Z</time>
      </trkpt>
      <trkpt lat="42.54927833" lon="-8.03467833">
        <ele>822.0</ele>
        <time>2018-10-03T12:27:22.000Z</time>
      </trkpt>
      <trkpt lat="42.54929333" lon="-8.03468333">
        <ele>821.0</ele>
        <time>2018-10-03T12:27:23.000Z</time>
      </trkpt>
      <trkpt lat="42.54930667" lon="-8.03468667">
        <ele>821.0</ele>
        <time>2018-10-03T12:27:24.000Z</time>
      </trkpt>
      <trkpt lat="42.54932167" lon="-8.03469">
        <ele>821.0</ele>
        <time>2018-10-03T12:27:25.000Z</time>
      </trkpt>
      <trkpt lat="42.549335" lon="-8.03469667">
        <ele>821.0</ele>
        <time>2018-10-03T12:27:26.000Z</time>
      </trkpt>
      <trkpt lat="42.54934667" lon="-8.03470167">
        <ele>821.0</ele>
        <time>2018-10-03T12:27:27.000Z</time>
      </trkpt>
      <trkpt lat="42.54936167" lon="-8.034705">
        <ele>821.0</ele>
        <time>2018-10-03T12:27:28.000Z</time>
      </trkpt>
      <trkpt lat="42.54937667" lon="-8.03470667">
        <ele>821.0</ele>
        <time>2018-10-03T12:27:29.000Z</time>
      </trkpt>
      <trkpt lat="42.54939167" lon="-8.03471167">
        <ele>821.0</ele>
        <time>2018-10-03T12:27:30.000Z</time>
      </trkpt>
      <trkpt lat="42.54940833" lon="-8.034715">
        <ele>821.0</ele>
        <time>2018-10-03T12:27:31.000Z</time>
      </trkpt>
      <trkpt lat="42.549425" lon="-8.03471667">
        <ele>821.0</ele>
        <time>2018-10-03T12:27:32.000Z</time>
      </trkpt>
      <trkpt lat="42.54944167" lon="-8.034715">
        <ele>821.0</ele>
        <time>2018-10-03T12:27:33.000Z</time>
      </trkpt>
      <trkpt lat="42.54945833" lon="-8.03471333">
        <ele>821.0</ele>
        <time>2018-10-03T12:27:34.000Z</time>
      </trkpt>
      <trkpt lat="42.54947333" lon="-8.03471">
        <ele>822.0</ele>
        <time>2018-10-03T12:27:35.000Z</time>
      </trkpt>
      <trkpt lat="42.54948833" lon="-8.03470833">
        <ele>822.0</ele>
        <time>2018-10-03T12:27:36.000Z</time>
      </trkpt>
      <trkpt lat="42.549505" lon="-8.03470667">
        <ele>822.0</ele>
        <time>2018-10-03T12:27:37.000Z</time>
      </trkpt>
      <trkpt lat="42.54952" lon="-8.034705">
        <ele>822.0</ele>
        <time>2018-10-03T12:27:38.000Z</time>
      </trkpt>
      <trkpt lat="42.549535" lon="-8.034705">
        <ele>822.0</ele>
        <time>2018-10-03T12:27:39.000Z</time>
      </trkpt>
      <trkpt lat="42.54954833" lon="-8.034705">
        <ele>822.0</ele>
        <time>2018-10-03T12:27:40.000Z</time>
      </trkpt>
      <trkpt lat="42.549565" lon="-8.03470333">
        <ele>822.0</ele>
        <time>2018-10-03T12:27:41.000Z</time>
      </trkpt>
      <trkpt lat="42.54957833" lon="-8.0347">
        <ele>822.0</ele>
        <time>2018-10-03T12:27:42.000Z</time>
      </trkpt>
      <trkpt lat="42.54959333" lon="-8.03469833">
        <ele>822.0</ele>
        <time>2018-10-03T12:27:43.000Z</time>
      </trkpt>
      <trkpt lat="42.54960667" lon="-8.034695">
        <ele>822.0</ele>
        <time>2018-10-03T12:27:44.000Z</time>
      </trkpt>
      <trkpt lat="42.54962167" lon="-8.03469333">
        <ele>822.0</ele>
        <time>2018-10-03T12:27:45.000Z</time>
      </trkpt>
      <trkpt lat="42.54963667" lon="-8.03469333">
        <ele>822.0</ele>
        <time>2018-10-03T12:27:46.000Z</time>
      </trkpt>
      <trkpt lat="42.54965167" lon="-8.03469">
        <ele>822.0</ele>
        <time>2018-10-03T12:27:47.000Z</time>
      </trkpt>
      <trkpt lat="42.549665" lon="-8.03468667">
        <ele>822.0</ele>
        <time>2018-10-03T12:27:48.000Z</time>
      </trkpt>
      <trkpt lat="42.54968" lon="-8.034685">
        <ele>822.0</ele>
        <time>2018-10-03T12:27:49.000Z</time>
      </trkpt>
      <trkpt lat="42.549695" lon="-8.03468167">
        <ele>821.0</ele>
        <time>2018-10-03T12:27:50.000Z</time>
      </trkpt>
      <trkpt lat="42.54971" lon="-8.03468167">
        <ele>821.0</ele>
        <time>2018-10-03T12:27:51.000Z</time>
      </trkpt>
      <trkpt lat="42.549725" lon="-8.03468">
        <ele>821.0</ele>
        <time>2018-10-03T12:27:52.000Z</time>
      </trkpt>
      <trkpt lat="42.54973833" lon="-8.03467833">
        <ele>821.0</ele>
        <time>2018-10-03T12:27:53.000Z</time>
      </trkpt>
      <trkpt lat="42.54975167" lon="-8.03467833">
        <ele>821.0</ele>
        <time>2018-10-03T12:27:54.000Z</time>
      </trkpt>
      <trkpt lat="42.54976667" lon="-8.03467833">
        <ele>821.0</ele>
        <time>2018-10-03T12:27:55.000Z</time>
      </trkpt>
      <trkpt lat="42.54978167" lon="-8.03467833">
        <ele>821.0</ele>
        <time>2018-10-03T12:27:56.000Z</time>
      </trkpt>
      <trkpt lat="42.54979667" lon="-8.03467833">
        <ele>821.0</ele>
        <time>2018-10-03T12:27:57.000Z</time>
      </trkpt>
      <trkpt lat="42.54981167" lon="-8.03467667">
        <ele>821.0</ele>
        <time>2018-10-03T12:27:58.000Z</time>
      </trkpt>
      <trkpt lat="42.549825" lon="-8.03467333">
        <ele>821.0</ele>
        <time>2018-10-03T12:27:59.000Z</time>
      </trkpt>
      <trkpt lat="42.54984" lon="-8.03467167">
        <ele>821.0</ele>
        <time>2018-10-03T12:28:00.000Z</time>
      </trkpt>
      <trkpt lat="42.549855" lon="-8.03467">
        <ele>821.0</ele>
        <time>2018-10-03T12:28:01.000Z</time>
      </trkpt>
      <trkpt lat="42.54987" lon="-8.03466667">
        <ele>821.0</ele>
        <time>2018-10-03T12:28:02.000Z</time>
      </trkpt>
      <trkpt lat="42.54988333" lon="-8.03466333">
        <ele>821.0</ele>
        <time>2018-10-03T12:28:03.000Z</time>
      </trkpt>
      <trkpt lat="42.54989833" lon="-8.03465667">
        <ele>821.0</ele>
        <time>2018-10-03T12:28:04.000Z</time>
      </trkpt>
      <trkpt lat="42.54991167" lon="-8.03465167">
        <ele>821.0</ele>
        <time>2018-10-03T12:28:05.000Z</time>
      </trkpt>
      <trkpt lat="42.54992667" lon="-8.03465167">
        <ele>821.0</ele>
        <time>2018-10-03T12:28:06.000Z</time>
      </trkpt>
      <trkpt lat="42.54994167" lon="-8.03465">
        <ele>821.0</ele>
        <time>2018-10-03T12:28:07.000Z</time>
      </trkpt>
      <trkpt lat="42.54995667" lon="-8.03464833">
        <ele>821.0</ele>
        <time>2018-10-03T12:28:08.000Z</time>
      </trkpt>
      <trkpt lat="42.54997167" lon="-8.03464667">
        <ele>821.0</ele>
        <time>2018-10-03T12:28:09.000Z</time>
      </trkpt>
      <trkpt lat="42.54998667" lon="-8.034645">
        <ele>821.0</ele>
        <time>2018-10-03T12:28:10.000Z</time>
      </trkpt>
      <trkpt lat="42.55000167" lon="-8.034645">
        <ele>821.0</ele>
        <time>2018-10-03T12:28:11.000Z</time>
      </trkpt>
      <trkpt lat="42.55001667" lon="-8.034645">
        <ele>821.0</ele>
        <time>2018-10-03T12:28:12.000Z</time>
      </trkpt>
      <trkpt lat="42.55003167" lon="-8.03464333">
        <ele>821.0</ele>
        <time>2018-10-03T12:28:13.000Z</time>
      </trkpt>
      <trkpt lat="42.55004667" lon="-8.03464167">
        <ele>821.0</ele>
        <time>2018-10-03T12:28:14.000Z</time>
      </trkpt>
      <trkpt lat="42.55006167" lon="-8.03464167">
        <ele>821.0</ele>
        <time>2018-10-03T12:28:15.000Z</time>
      </trkpt>
      <trkpt lat="42.55007667" lon="-8.03464167">
        <ele>821.0</ele>
        <time>2018-10-03T12:28:16.000Z</time>
      </trkpt>
      <trkpt lat="42.55009333" lon="-8.03464167">
        <ele>821.0</ele>
        <time>2018-10-03T12:28:17.000Z</time>
      </trkpt>
      <trkpt lat="42.55010833" lon="-8.03464167">
        <ele>821.0</ele>
        <time>2018-10-03T12:28:18.000Z</time>
      </trkpt>
      <trkpt lat="42.550125" lon="-8.03464167">
        <ele>821.0</ele>
        <time>2018-10-03T12:28:19.000Z</time>
      </trkpt>
      <trkpt lat="42.55013833" lon="-8.034645">
        <ele>821.0</ele>
        <time>2018-10-03T12:28:20.000Z</time>
      </trkpt>
      <trkpt lat="42.55015167" lon="-8.03464833">
        <ele>821.0</ele>
        <time>2018-10-03T12:28:21.000Z</time>
      </trkpt>
      <trkpt lat="42.55016667" lon="-8.03464833">
        <ele>821.0</ele>
        <time>2018-10-03T12:28:22.000Z</time>
      </trkpt>
      <trkpt lat="42.55018333" lon="-8.03465">
        <ele>821.0</ele>
        <time>2018-10-03T12:28:23.000Z</time>
      </trkpt>
      <trkpt lat="42.5502" lon="-8.03465">
        <ele>821.0</ele>
        <time>2018-10-03T12:28:24.000Z</time>
      </trkpt>
      <trkpt lat="42.55021667" lon="-8.03465">
        <ele>821.0</ele>
        <time>2018-10-03T12:28:25.000Z</time>
      </trkpt>
      <trkpt lat="42.550235" lon="-8.03465167">
        <ele>821.0</ele>
        <time>2018-10-03T12:28:26.000Z</time>
      </trkpt>
      <trkpt lat="42.55025167" lon="-8.03465167">
        <ele>821.0</ele>
        <time>2018-10-03T12:28:27.000Z</time>
      </trkpt>
      <trkpt lat="42.55026833" lon="-8.03465167">
        <ele>821.0</ele>
        <time>2018-10-03T12:28:28.000Z</time>
      </trkpt>
      <trkpt lat="42.55028333" lon="-8.03465333">
        <ele>821.0</ele>
        <time>2018-10-03T12:28:29.000Z</time>
      </trkpt>
      <trkpt lat="42.5503" lon="-8.034655">
        <ele>821.0</ele>
        <time>2018-10-03T12:28:30.000Z</time>
      </trkpt>
      <trkpt lat="42.550315" lon="-8.03465667">
        <ele>821.0</ele>
        <time>2018-10-03T12:28:31.000Z</time>
      </trkpt>
      <trkpt lat="42.55033" lon="-8.03465667">
        <ele>821.0</ele>
        <time>2018-10-03T12:28:32.000Z</time>
      </trkpt>
      <trkpt lat="42.55034333" lon="-8.03465833">
        <ele>821.0</ele>
        <time>2018-10-03T12:28:33.000Z</time>
      </trkpt>
      <trkpt lat="42.55035833" lon="-8.03466">
        <ele>821.0</ele>
        <time>2018-10-03T12:28:34.000Z</time>
      </trkpt>
      <trkpt lat="42.550375" lon="-8.03466167">
        <ele>821.0</ele>
        <time>2018-10-03T12:28:35.000Z</time>
      </trkpt>
      <trkpt lat="42.55039167" lon="-8.03466333">
        <ele>821.0</ele>
        <time>2018-10-03T12:28:36.000Z</time>
      </trkpt>
      <trkpt lat="42.55040667" lon="-8.034665">
        <ele>821.0</ele>
        <time>2018-10-03T12:28:37.000Z</time>
      </trkpt>
      <trkpt lat="42.550425" lon="-8.034665">
        <ele>821.0</ele>
        <time>2018-10-03T12:28:38.000Z</time>
      </trkpt>
      <trkpt lat="42.55044167" lon="-8.03466667">
        <ele>822.0</ele>
        <time>2018-10-03T12:28:39.000Z</time>
      </trkpt>
      <trkpt lat="42.55045833" lon="-8.03466833">
        <ele>822.0</ele>
        <time>2018-10-03T12:28:40.000Z</time>
      </trkpt>
      <trkpt lat="42.550475" lon="-8.03466833">
        <ele>822.0</ele>
        <time>2018-10-03T12:28:41.000Z</time>
      </trkpt>
      <trkpt lat="42.55049" lon="-8.03466833">
        <ele>822.0</ele>
        <time>2018-10-03T12:28:42.000Z</time>
      </trkpt>
      <trkpt lat="42.55050667" lon="-8.03467333">
        <ele>822.0</ele>
        <time>2018-10-03T12:28:43.000Z</time>
      </trkpt>
      <trkpt lat="42.55052167" lon="-8.03467833">
        <ele>822.0</ele>
        <time>2018-10-03T12:28:44.000Z</time>
      </trkpt>
      <trkpt lat="42.550535" lon="-8.03468167">
        <ele>822.0</ele>
        <time>2018-10-03T12:28:45.000Z</time>
      </trkpt>
      <trkpt lat="42.55055" lon="-8.03468167">
        <ele>823.0</ele>
        <time>2018-10-03T12:28:46.000Z</time>
      </trkpt>
      <trkpt lat="42.55056333" lon="-8.03468333">
        <ele>823.0</ele>
        <time>2018-10-03T12:28:47.000Z</time>
      </trkpt>
      <trkpt lat="42.55057833" lon="-8.03468667">
        <ele>823.0</ele>
        <time>2018-10-03T12:28:48.000Z</time>
      </trkpt>
      <trkpt lat="42.55059333" lon="-8.034695">
        <ele>823.0</ele>
        <time>2018-10-03T12:28:49.000Z</time>
      </trkpt>
      <trkpt lat="42.55060667" lon="-8.0347">
        <ele>823.0</ele>
        <time>2018-10-03T12:28:50.000Z</time>
      </trkpt>
      <trkpt lat="42.55062" lon="-8.034705">
        <ele>823.0</ele>
        <time>2018-10-03T12:28:51.000Z</time>
      </trkpt>
      <trkpt lat="42.550635" lon="-8.03470667">
        <ele>823.0</ele>
        <time>2018-10-03T12:28:52.000Z</time>
      </trkpt>
      <trkpt lat="42.55065" lon="-8.03470833">
        <ele>823.0</ele>
        <time>2018-10-03T12:28:53.000Z</time>
      </trkpt>
      <trkpt lat="42.55066667" lon="-8.034705">
        <ele>823.0</ele>
        <time>2018-10-03T12:28:54.000Z</time>
      </trkpt>
      <trkpt lat="42.55068" lon="-8.034705">
        <ele>823.0</ele>
        <time>2018-10-03T12:28:55.000Z</time>
      </trkpt>
      <trkpt lat="42.55069333" lon="-8.03470833">
        <ele>823.0</ele>
        <time>2018-10-03T12:28:56.000Z</time>
      </trkpt>
      <trkpt lat="42.55070667" lon="-8.03471">
        <ele>823.0</ele>
        <time>2018-10-03T12:28:57.000Z</time>
      </trkpt>
      <trkpt lat="42.55072" lon="-8.03471167">
        <ele>823.0</ele>
        <time>2018-10-03T12:28:58.000Z</time>
      </trkpt>
      <trkpt lat="42.550735" lon="-8.03471167">
        <ele>823.0</ele>
        <time>2018-10-03T12:28:59.000Z</time>
      </trkpt>
      <trkpt lat="42.55075167" lon="-8.03471167">
        <ele>823.0</ele>
        <time>2018-10-03T12:29:00.000Z</time>
      </trkpt>
      <trkpt lat="42.550765" lon="-8.03471167">
        <ele>823.0</ele>
        <time>2018-10-03T12:29:01.000Z</time>
      </trkpt>
      <trkpt lat="42.55077833" lon="-8.03471167">
        <ele>823.0</ele>
        <time>2018-10-03T12:29:02.000Z</time>
      </trkpt>
      <trkpt lat="42.55079167" lon="-8.03471167">
        <ele>823.0</ele>
        <time>2018-10-03T12:29:03.000Z</time>
      </trkpt>
      <trkpt lat="42.55080667" lon="-8.03471">
        <ele>823.0</ele>
        <time>2018-10-03T12:29:04.000Z</time>
      </trkpt>
      <trkpt lat="42.55082" lon="-8.03470833">
        <ele>823.0</ele>
        <time>2018-10-03T12:29:05.000Z</time>
      </trkpt>
      <trkpt lat="42.55083333" lon="-8.03471">
        <ele>823.0</ele>
        <time>2018-10-03T12:29:06.000Z</time>
      </trkpt>
      <trkpt lat="42.55084667" lon="-8.03471">
        <ele>823.0</ele>
        <time>2018-10-03T12:29:07.000Z</time>
      </trkpt>
      <trkpt lat="42.55086" lon="-8.03471">
        <ele>823.0</ele>
        <time>2018-10-03T12:29:08.000Z</time>
      </trkpt>
      <trkpt lat="42.55087333" lon="-8.03471167">
        <ele>823.0</ele>
        <time>2018-10-03T12:29:09.000Z</time>
      </trkpt>
      <trkpt lat="42.55088833" lon="-8.03471167">
        <ele>823.0</ele>
        <time>2018-10-03T12:29:10.000Z</time>
      </trkpt>
      <trkpt lat="42.55090167" lon="-8.03471">
        <ele>823.0</ele>
        <time>2018-10-03T12:29:11.000Z</time>
      </trkpt>
      <trkpt lat="42.55091667" lon="-8.03471">
        <ele>823.0</ele>
        <time>2018-10-03T12:29:12.000Z</time>
      </trkpt>
      <trkpt lat="42.55093" lon="-8.03471">
        <ele>823.0</ele>
        <time>2018-10-03T12:29:13.000Z</time>
      </trkpt>
      <trkpt lat="42.55094333" lon="-8.03471">
        <ele>823.0</ele>
        <time>2018-10-03T12:29:14.000Z</time>
      </trkpt>
      <trkpt lat="42.55095833" lon="-8.03471">
        <ele>823.0</ele>
        <time>2018-10-03T12:29:15.000Z</time>
      </trkpt>
      <trkpt lat="42.55097167" lon="-8.03471167">
        <ele>823.0</ele>
        <time>2018-10-03T12:29:16.000Z</time>
      </trkpt>
      <trkpt lat="42.550985" lon="-8.03471333">
        <ele>823.0</ele>
        <time>2018-10-03T12:29:17.000Z</time>
      </trkpt>
      <trkpt lat="42.551" lon="-8.034715">
        <ele>823.0</ele>
        <time>2018-10-03T12:29:18.000Z</time>
      </trkpt>
      <trkpt lat="42.55101667" lon="-8.034715">
        <ele>823.0</ele>
        <time>2018-10-03T12:29:19.000Z</time>
      </trkpt>
      <trkpt lat="42.55103167" lon="-8.03471667">
        <ele>823.0</ele>
        <time>2018-10-03T12:29:20.000Z</time>
      </trkpt>
      <trkpt lat="42.55104833" lon="-8.03471667">
        <ele>823.0</ele>
        <time>2018-10-03T12:29:21.000Z</time>
      </trkpt>
      <trkpt lat="42.55106333" lon="-8.03471833">
        <ele>823.0</ele>
        <time>2018-10-03T12:29:22.000Z</time>
      </trkpt>
      <trkpt lat="42.55107833" lon="-8.03471833">
        <ele>823.0</ele>
        <time>2018-10-03T12:29:23.000Z</time>
      </trkpt>
      <trkpt lat="42.55109333" lon="-8.03471833">
        <ele>823.0</ele>
        <time>2018-10-03T12:29:24.000Z</time>
      </trkpt>
      <trkpt lat="42.55110667" lon="-8.03472">
        <ele>824.0</ele>
        <time>2018-10-03T12:29:25.000Z</time>
      </trkpt>
      <trkpt lat="42.55112" lon="-8.03472">
        <ele>824.0</ele>
        <time>2018-10-03T12:29:26.000Z</time>
      </trkpt>
      <trkpt lat="42.55113333" lon="-8.03472">
        <ele>824.0</ele>
        <time>2018-10-03T12:29:27.000Z</time>
      </trkpt>
      <trkpt lat="42.55114833" lon="-8.03472167">
        <ele>824.0</ele>
        <time>2018-10-03T12:29:28.000Z</time>
      </trkpt>
      <trkpt lat="42.55116333" lon="-8.03472167">
        <ele>824.0</ele>
        <time>2018-10-03T12:29:29.000Z</time>
      </trkpt>
      <trkpt lat="42.55117667" lon="-8.03472167">
        <ele>824.0</ele>
        <time>2018-10-03T12:29:30.000Z</time>
      </trkpt>
      <trkpt lat="42.55119" lon="-8.03472167">
        <ele>824.0</ele>
        <time>2018-10-03T12:29:31.000Z</time>
      </trkpt>
      <trkpt lat="42.551205" lon="-8.03472167">
        <ele>824.0</ele>
        <time>2018-10-03T12:29:32.000Z</time>
      </trkpt>
      <trkpt lat="42.55122" lon="-8.03472167">
        <ele>824.0</ele>
        <time>2018-10-03T12:29:33.000Z</time>
      </trkpt>
      <trkpt lat="42.55123667" lon="-8.03472333">
        <ele>824.0</ele>
        <time>2018-10-03T12:29:34.000Z</time>
      </trkpt>
      <trkpt lat="42.55125333" lon="-8.03472333">
        <ele>824.0</ele>
        <time>2018-10-03T12:29:35.000Z</time>
      </trkpt>
      <trkpt lat="42.55127" lon="-8.03472167">
        <ele>824.0</ele>
        <time>2018-10-03T12:29:36.000Z</time>
      </trkpt>
      <trkpt lat="42.551285" lon="-8.03472">
        <ele>824.0</ele>
        <time>2018-10-03T12:29:37.000Z</time>
      </trkpt>
      <trkpt lat="42.5513" lon="-8.03472">
        <ele>824.0</ele>
        <time>2018-10-03T12:29:38.000Z</time>
      </trkpt>
      <trkpt lat="42.551315" lon="-8.03472167">
        <ele>824.0</ele>
        <time>2018-10-03T12:29:39.000Z</time>
      </trkpt>
      <trkpt lat="42.55132833" lon="-8.03472333">
        <ele>824.0</ele>
        <time>2018-10-03T12:29:40.000Z</time>
      </trkpt>
      <trkpt lat="42.55134167" lon="-8.03473">
        <ele>824.0</ele>
        <time>2018-10-03T12:29:41.000Z</time>
      </trkpt>
      <trkpt lat="42.55135667" lon="-8.03473333">
        <ele>824.0</ele>
        <time>2018-10-03T12:29:42.000Z</time>
      </trkpt>
      <trkpt lat="42.55136667" lon="-8.034735">
        <ele>824.0</ele>
        <time>2018-10-03T12:29:43.000Z</time>
      </trkpt>
      <trkpt lat="42.55137333" lon="-8.03473833">
        <ele>824.0</ele>
        <time>2018-10-03T12:29:44.000Z</time>
      </trkpt>
      <trkpt lat="42.551385" lon="-8.03474167">
        <ele>824.0</ele>
        <time>2018-10-03T12:29:45.000Z</time>
      </trkpt>
      <trkpt lat="42.55139667" lon="-8.03474333">
        <ele>824.0</ele>
        <time>2018-10-03T12:29:46.000Z</time>
      </trkpt>
      <trkpt lat="42.55141167" lon="-8.034745">
        <ele>824.0</ele>
        <time>2018-10-03T12:29:47.000Z</time>
      </trkpt>
      <trkpt lat="42.55142667" lon="-8.034745">
        <ele>824.0</ele>
        <time>2018-10-03T12:29:48.000Z</time>
      </trkpt>
      <trkpt lat="42.55144333" lon="-8.034745">
        <ele>824.0</ele>
        <time>2018-10-03T12:29:49.000Z</time>
      </trkpt>
      <trkpt lat="42.55145833" lon="-8.034745">
        <ele>824.0</ele>
        <time>2018-10-03T12:29:50.000Z</time>
      </trkpt>
      <trkpt lat="42.55147333" lon="-8.034745">
        <ele>824.0</ele>
        <time>2018-10-03T12:29:51.000Z</time>
      </trkpt>
      <trkpt lat="42.55149" lon="-8.03474667">
        <ele>824.0</ele>
        <time>2018-10-03T12:29:52.000Z</time>
      </trkpt>
      <trkpt lat="42.551505" lon="-8.034745">
        <ele>824.0</ele>
        <time>2018-10-03T12:29:53.000Z</time>
      </trkpt>
      <trkpt lat="42.55151833" lon="-8.03474333">
        <ele>824.0</ele>
        <time>2018-10-03T12:29:54.000Z</time>
      </trkpt>
      <trkpt lat="42.55153333" lon="-8.03474333">
        <ele>824.0</ele>
        <time>2018-10-03T12:29:55.000Z</time>
      </trkpt>
      <trkpt lat="42.55155333" lon="-8.03473667">
        <ele>824.0</ele>
        <time>2018-10-03T12:29:56.000Z</time>
      </trkpt>
      <trkpt lat="42.55158" lon="-8.034725">
        <ele>824.0</ele>
        <time>2018-10-03T12:29:57.000Z</time>
      </trkpt>
      <trkpt lat="42.55159833" lon="-8.03472167">
        <ele>824.0</ele>
        <time>2018-10-03T12:29:58.000Z</time>
      </trkpt>
      <trkpt lat="42.55161333" lon="-8.03472333">
        <ele>824.0</ele>
        <time>2018-10-03T12:29:59.000Z</time>
      </trkpt>
      <trkpt lat="42.55162833" lon="-8.03472333">
        <ele>824.0</ele>
        <time>2018-10-03T12:30:00.000Z</time>
      </trkpt>
      <trkpt lat="42.55164333" lon="-8.03472333">
        <ele>824.0</ele>
        <time>2018-10-03T12:30:01.000Z</time>
      </trkpt>
      <trkpt lat="42.55165833" lon="-8.03472333">
        <ele>824.0</ele>
        <time>2018-10-03T12:30:02.000Z</time>
      </trkpt>
      <trkpt lat="42.55167333" lon="-8.03472333">
        <ele>824.0</ele>
        <time>2018-10-03T12:30:03.000Z</time>
      </trkpt>
      <trkpt lat="42.55168833" lon="-8.034725">
        <ele>824.0</ele>
        <time>2018-10-03T12:30:04.000Z</time>
      </trkpt>
      <trkpt lat="42.55170333" lon="-8.034725">
        <ele>824.0</ele>
        <time>2018-10-03T12:30:05.000Z</time>
      </trkpt>
      <trkpt lat="42.55171833" lon="-8.03472667">
        <ele>824.0</ele>
        <time>2018-10-03T12:30:06.000Z</time>
      </trkpt>
      <trkpt lat="42.55173333" lon="-8.03472667">
        <ele>824.0</ele>
        <time>2018-10-03T12:30:07.000Z</time>
      </trkpt>
      <trkpt lat="42.55175" lon="-8.03472833">
        <ele>824.0</ele>
        <time>2018-10-03T12:30:08.000Z</time>
      </trkpt>
      <trkpt lat="42.55176333" lon="-8.03472833">
        <ele>824.0</ele>
        <time>2018-10-03T12:30:09.000Z</time>
      </trkpt>
      <trkpt lat="42.55177833" lon="-8.03472667">
        <ele>824.0</ele>
        <time>2018-10-03T12:30:10.000Z</time>
      </trkpt>
      <trkpt lat="42.55179167" lon="-8.03472833">
        <ele>824.0</ele>
        <time>2018-10-03T12:30:11.000Z</time>
      </trkpt>
      <trkpt lat="42.551805" lon="-8.03473">
        <ele>824.0</ele>
        <time>2018-10-03T12:30:12.000Z</time>
      </trkpt>
      <trkpt lat="42.55182167" lon="-8.03473">
        <ele>824.0</ele>
        <time>2018-10-03T12:30:13.000Z</time>
      </trkpt>
      <trkpt lat="42.551835" lon="-8.03472833">
        <ele>824.0</ele>
        <time>2018-10-03T12:30:14.000Z</time>
      </trkpt>
      <trkpt lat="42.55184833" lon="-8.03472833">
        <ele>824.0</ele>
        <time>2018-10-03T12:30:15.000Z</time>
      </trkpt>
      <trkpt lat="42.55186167" lon="-8.03472667">
        <ele>825.0</ele>
        <time>2018-10-03T12:30:16.000Z</time>
      </trkpt>
      <trkpt lat="42.551875" lon="-8.034725">
        <ele>825.0</ele>
        <time>2018-10-03T12:30:17.000Z</time>
      </trkpt>
      <trkpt lat="42.55188833" lon="-8.034725">
        <ele>825.0</ele>
        <time>2018-10-03T12:30:18.000Z</time>
      </trkpt>
      <trkpt lat="42.5519" lon="-8.034725">
        <ele>825.0</ele>
        <time>2018-10-03T12:30:19.000Z</time>
      </trkpt>
      <trkpt lat="42.55191167" lon="-8.03472667">
        <ele>825.0</ele>
        <time>2018-10-03T12:30:20.000Z</time>
      </trkpt>
      <trkpt lat="42.551925" lon="-8.03472667">
        <ele>825.0</ele>
        <time>2018-10-03T12:30:21.000Z</time>
      </trkpt>
      <trkpt lat="42.55194" lon="-8.03472833">
        <ele>825.0</ele>
        <time>2018-10-03T12:30:22.000Z</time>
      </trkpt>
      <trkpt lat="42.55194833" lon="-8.03473333">
        <ele>825.0</ele>
        <time>2018-10-03T12:30:23.000Z</time>
      </trkpt>
      <trkpt lat="42.55195333" lon="-8.03473667">
        <ele>825.0</ele>
        <time>2018-10-03T12:30:24.000Z</time>
      </trkpt>
      <trkpt lat="42.55196333" lon="-8.03474">
        <ele>825.0</ele>
        <time>2018-10-03T12:30:25.000Z</time>
      </trkpt>
      <trkpt lat="42.55197833" lon="-8.03474167">
        <ele>825.0</ele>
        <time>2018-10-03T12:30:26.000Z</time>
      </trkpt>
      <trkpt lat="42.55199333" lon="-8.03474167">
        <ele>826.0</ele>
        <time>2018-10-03T12:30:27.000Z</time>
      </trkpt>
      <trkpt lat="42.55200833" lon="-8.03474167">
        <ele>826.0</ele>
        <time>2018-10-03T12:30:28.000Z</time>
      </trkpt>
      <trkpt lat="42.55202333" lon="-8.03474">
        <ele>826.0</ele>
        <time>2018-10-03T12:30:29.000Z</time>
      </trkpt>
      <trkpt lat="42.55204" lon="-8.03473667">
        <ele>826.0</ele>
        <time>2018-10-03T12:30:30.000Z</time>
      </trkpt>
      <trkpt lat="42.552055" lon="-8.03473">
        <ele>826.0</ele>
        <time>2018-10-03T12:30:31.000Z</time>
      </trkpt>
      <trkpt lat="42.55206833" lon="-8.03473333">
        <ele>826.0</ele>
        <time>2018-10-03T12:30:32.000Z</time>
      </trkpt>
      <trkpt lat="42.55207833" lon="-8.03473667">
        <ele>826.0</ele>
        <time>2018-10-03T12:30:33.000Z</time>
      </trkpt>
      <trkpt lat="42.55209333" lon="-8.03473333">
        <ele>826.0</ele>
        <time>2018-10-03T12:30:34.000Z</time>
      </trkpt>
      <trkpt lat="42.552105" lon="-8.03473167">
        <ele>826.0</ele>
        <time>2018-10-03T12:30:35.000Z</time>
      </trkpt>
      <trkpt lat="42.55211833" lon="-8.03473">
        <ele>827.0</ele>
        <time>2018-10-03T12:30:36.000Z</time>
      </trkpt>
      <trkpt lat="42.55212833" lon="-8.03473167">
        <ele>827.0</ele>
        <time>2018-10-03T12:30:37.000Z</time>
      </trkpt>
      <trkpt lat="42.55213333" lon="-8.034735">
        <ele>827.0</ele>
        <time>2018-10-03T12:30:38.000Z</time>
      </trkpt>
      <trkpt lat="42.552135" lon="-8.03473667">
        <ele>827.0</ele>
        <time>2018-10-03T12:30:39.000Z</time>
      </trkpt>
      <trkpt lat="42.552135" lon="-8.034735">
        <ele>827.0</ele>
        <time>2018-10-03T12:30:40.000Z</time>
      </trkpt>
      <trkpt lat="42.552135" lon="-8.03473333">
        <ele>827.0</ele>
        <time>2018-10-03T12:30:41.000Z</time>
      </trkpt>
      <trkpt lat="42.552135" lon="-8.03473333">
        <ele>827.0</ele>
        <time>2018-10-03T12:30:42.000Z</time>
      </trkpt>
      <trkpt lat="42.552135" lon="-8.03473333">
        <ele>827.0</ele>
        <time>2018-10-03T12:30:43.000Z</time>
      </trkpt>
      <trkpt lat="42.55213667" lon="-8.03473333">
        <ele>827.0</ele>
        <time>2018-10-03T12:30:44.000Z</time>
      </trkpt>
      <trkpt lat="42.55213667" lon="-8.03473333">
        <ele>827.0</ele>
        <time>2018-10-03T12:30:45.000Z</time>
      </trkpt>
      <trkpt lat="42.55213667" lon="-8.03473333">
        <ele>826.0</ele>
        <time>2018-10-03T12:30:46.000Z</time>
      </trkpt>
      <trkpt lat="42.55213667" lon="-8.03473167">
        <ele>826.0</ele>
        <time>2018-10-03T12:30:47.000Z</time>
      </trkpt>
      <trkpt lat="42.55213667" lon="-8.03473167">
        <ele>826.0</ele>
        <time>2018-10-03T12:30:48.000Z</time>
      </trkpt>
      <trkpt lat="42.55213833" lon="-8.03473167">
        <ele>826.0</ele>
        <time>2018-10-03T12:30:49.000Z</time>
      </trkpt>
      <trkpt lat="42.552135" lon="-8.03473333">
        <ele>826.0</ele>
        <time>2018-10-03T12:30:50.000Z</time>
      </trkpt>
      <trkpt lat="42.552135" lon="-8.03473333">
        <ele>826.0</ele>
        <time>2018-10-03T12:30:51.000Z</time>
      </trkpt>
      <trkpt lat="42.55214" lon="-8.03473333">
        <ele>826.0</ele>
        <time>2018-10-03T12:30:52.000Z</time>
      </trkpt>
      <trkpt lat="42.55215" lon="-8.03474">
        <ele>826.0</ele>
        <time>2018-10-03T12:30:53.000Z</time>
      </trkpt>
      <trkpt lat="42.552155" lon="-8.03474833">
        <ele>826.0</ele>
        <time>2018-10-03T12:30:54.000Z</time>
      </trkpt>
      <trkpt lat="42.552155" lon="-8.03476">
        <ele>826.0</ele>
        <time>2018-10-03T12:30:55.000Z</time>
      </trkpt>
      <trkpt lat="42.552155" lon="-8.03477167">
        <ele>826.0</ele>
        <time>2018-10-03T12:30:56.000Z</time>
      </trkpt>
      <trkpt lat="42.55215333" lon="-8.03478167">
        <ele>827.0</ele>
        <time>2018-10-03T12:30:57.000Z</time>
      </trkpt>
      <trkpt lat="42.55215167" lon="-8.03479333">
        <ele>827.0</ele>
        <time>2018-10-03T12:30:58.000Z</time>
      </trkpt>
      <trkpt lat="42.55214833" lon="-8.03481167">
        <ele>827.0</ele>
        <time>2018-10-03T12:30:59.000Z</time>
      </trkpt>
      <trkpt lat="42.552145" lon="-8.03483333">
        <ele>827.0</ele>
        <time>2018-10-03T12:31:00.000Z</time>
      </trkpt>
      <trkpt lat="42.55214333" lon="-8.03485667">
        <ele>827.0</ele>
        <time>2018-10-03T12:31:01.000Z</time>
      </trkpt>
      <trkpt lat="42.55214167" lon="-8.03487833">
        <ele>827.0</ele>
        <time>2018-10-03T12:31:02.000Z</time>
      </trkpt>
      <trkpt lat="42.55214167" lon="-8.03489833">
        <ele>827.0</ele>
        <time>2018-10-03T12:31:03.000Z</time>
      </trkpt>
      <trkpt lat="42.55213833" lon="-8.03492333">
        <ele>827.0</ele>
        <time>2018-10-03T12:31:04.000Z</time>
      </trkpt>
      <trkpt lat="42.55213667" lon="-8.03494167">
        <ele>827.0</ele>
        <time>2018-10-03T12:31:05.000Z</time>
      </trkpt>
      <trkpt lat="42.55213333" lon="-8.03495833">
        <ele>827.0</ele>
        <time>2018-10-03T12:31:06.000Z</time>
      </trkpt>
      <trkpt lat="42.55213" lon="-8.03497333">
        <ele>827.0</ele>
        <time>2018-10-03T12:31:07.000Z</time>
      </trkpt>
      <trkpt lat="42.55212833" lon="-8.034985">
        <ele>827.0</ele>
        <time>2018-10-03T12:31:08.000Z</time>
      </trkpt>
      <trkpt lat="42.55212167" lon="-8.03499333">
        <ele>827.0</ele>
        <time>2018-10-03T12:31:09.000Z</time>
      </trkpt>
      <trkpt lat="42.552115" lon="-8.03499667">
        <ele>827.0</ele>
        <time>2018-10-03T12:31:10.000Z</time>
      </trkpt>
      <trkpt lat="42.55210833" lon="-8.035">
        <ele>827.0</ele>
        <time>2018-10-03T12:31:11.000Z</time>
      </trkpt>
      <trkpt lat="42.55210333" lon="-8.03500833">
        <ele>827.0</ele>
        <time>2018-10-03T12:31:12.000Z</time>
      </trkpt>
      <trkpt lat="42.55210167" lon="-8.03502167">
        <ele>827.0</ele>
        <time>2018-10-03T12:31:13.000Z</time>
      </trkpt>
      <trkpt lat="42.552105" lon="-8.03504">
        <ele>827.0</ele>
        <time>2018-10-03T12:31:14.000Z</time>
      </trkpt>
      <trkpt lat="42.55211" lon="-8.03506167">
        <ele>827.0</ele>
        <time>2018-10-03T12:31:15.000Z</time>
      </trkpt>
      <trkpt lat="42.55211667" lon="-8.03508">
        <ele>826.0</ele>
        <time>2018-10-03T12:31:16.000Z</time>
      </trkpt>
      <trkpt lat="42.55212667" lon="-8.03509167">
        <ele>826.0</ele>
        <time>2018-10-03T12:31:17.000Z</time>
      </trkpt>
      <trkpt lat="42.55214167" lon="-8.03509667">
        <ele>826.0</ele>
        <time>2018-10-03T12:31:18.000Z</time>
      </trkpt>
      <trkpt lat="42.552155" lon="-8.03510167">
        <ele>826.0</ele>
        <time>2018-10-03T12:31:19.000Z</time>
      </trkpt>
      <trkpt lat="42.55217167" lon="-8.03510333">
        <ele>826.0</ele>
        <time>2018-10-03T12:31:20.000Z</time>
      </trkpt>
      <trkpt lat="42.552185" lon="-8.03511333">
        <ele>826.0</ele>
        <time>2018-10-03T12:31:21.000Z</time>
      </trkpt>
      <trkpt lat="42.55219667" lon="-8.03512167">
        <ele>826.0</ele>
        <time>2018-10-03T12:31:22.000Z</time>
      </trkpt>
      <trkpt lat="42.55221" lon="-8.035125">
        <ele>826.0</ele>
        <time>2018-10-03T12:31:23.000Z</time>
      </trkpt>
      <trkpt lat="42.55222" lon="-8.03512667">
        <ele>826.0</ele>
        <time>2018-10-03T12:31:24.000Z</time>
      </trkpt>
      <trkpt lat="42.55222667" lon="-8.03513333">
        <ele>826.0</ele>
        <time>2018-10-03T12:31:25.000Z</time>
      </trkpt>
      <trkpt lat="42.55223" lon="-8.03514333">
        <ele>827.0</ele>
        <time>2018-10-03T12:31:26.000Z</time>
      </trkpt>
      <trkpt lat="42.55223833" lon="-8.03515667">
        <ele>827.0</ele>
        <time>2018-10-03T12:31:27.000Z</time>
      </trkpt>
      <trkpt lat="42.55225" lon="-8.03516667">
        <ele>827.0</ele>
        <time>2018-10-03T12:31:28.000Z</time>
      </trkpt>
      <trkpt lat="42.55227167" lon="-8.03516333">
        <ele>827.0</ele>
        <time>2018-10-03T12:31:29.000Z</time>
      </trkpt>
      <trkpt lat="42.55229333" lon="-8.03515833">
        <ele>827.0</ele>
        <time>2018-10-03T12:31:30.000Z</time>
      </trkpt>
      <trkpt lat="42.55231833" lon="-8.03515667">
        <ele>827.0</ele>
        <time>2018-10-03T12:31:31.000Z</time>
      </trkpt>
      <trkpt lat="42.55234" lon="-8.03515333">
        <ele>827.0</ele>
        <time>2018-10-03T12:31:32.000Z</time>
      </trkpt>
      <trkpt lat="42.55236333" lon="-8.03515">
        <ele>827.0</ele>
        <time>2018-10-03T12:31:33.000Z</time>
      </trkpt>
      <trkpt lat="42.55238667" lon="-8.03514">
        <ele>827.0</ele>
        <time>2018-10-03T12:31:34.000Z</time>
      </trkpt>
      <trkpt lat="42.55240833" lon="-8.03513">
        <ele>828.0</ele>
        <time>2018-10-03T12:31:35.000Z</time>
      </trkpt>
      <trkpt lat="42.55243" lon="-8.03512333">
        <ele>828.0</ele>
        <time>2018-10-03T12:31:36.000Z</time>
      </trkpt>
      <trkpt lat="42.55245" lon="-8.03511833">
        <ele>828.0</ele>
        <time>2018-10-03T12:31:37.000Z</time>
      </trkpt>
      <trkpt lat="42.55246667" lon="-8.03511">
        <ele>828.0</ele>
        <time>2018-10-03T12:31:38.000Z</time>
      </trkpt>
      <trkpt lat="42.55248167" lon="-8.03510667">
        <ele>828.0</ele>
        <time>2018-10-03T12:31:39.000Z</time>
      </trkpt>
      <trkpt lat="42.552495" lon="-8.03510667">
        <ele>828.0</ele>
        <time>2018-10-03T12:31:40.000Z</time>
      </trkpt>
      <trkpt lat="42.55250833" lon="-8.03510667">
        <ele>828.0</ele>
        <time>2018-10-03T12:31:41.000Z</time>
      </trkpt>
      <trkpt lat="42.55252" lon="-8.03510833">
        <ele>828.0</ele>
        <time>2018-10-03T12:31:42.000Z</time>
      </trkpt>
      <trkpt lat="42.55253333" lon="-8.03510833">
        <ele>828.0</ele>
        <time>2018-10-03T12:31:43.000Z</time>
      </trkpt>
      <trkpt lat="42.552545" lon="-8.03510833">
        <ele>829.0</ele>
        <time>2018-10-03T12:31:44.000Z</time>
      </trkpt>
      <trkpt lat="42.55255833" lon="-8.03510167">
        <ele>829.0</ele>
        <time>2018-10-03T12:31:45.000Z</time>
      </trkpt>
      <trkpt lat="42.55256833" lon="-8.0351">
        <ele>829.0</ele>
        <time>2018-10-03T12:31:46.000Z</time>
      </trkpt>
      <trkpt lat="42.55257833" lon="-8.03509833">
        <ele>829.0</ele>
        <time>2018-10-03T12:31:47.000Z</time>
      </trkpt>
      <trkpt lat="42.55258833" lon="-8.0351">
        <ele>829.0</ele>
        <time>2018-10-03T12:31:48.000Z</time>
      </trkpt>
      <trkpt lat="42.5526" lon="-8.0351">
        <ele>829.0</ele>
        <time>2018-10-03T12:31:49.000Z</time>
      </trkpt>
      <trkpt lat="42.55261833" lon="-8.03508667">
        <ele>829.0</ele>
        <time>2018-10-03T12:31:50.000Z</time>
      </trkpt>
      <trkpt lat="42.552625" lon="-8.03508">
        <ele>830.0</ele>
        <time>2018-10-03T12:31:51.000Z</time>
      </trkpt>
      <trkpt lat="42.55263667" lon="-8.03506333">
        <ele>830.0</ele>
        <time>2018-10-03T12:31:52.000Z</time>
      </trkpt>
      <trkpt lat="42.55264833" lon="-8.03505167">
        <ele>830.0</ele>
        <time>2018-10-03T12:31:53.000Z</time>
      </trkpt>
      <trkpt lat="42.552655" lon="-8.03504667">
        <ele>831.0</ele>
        <time>2018-10-03T12:31:54.000Z</time>
      </trkpt>
      <trkpt lat="42.552665" lon="-8.03504">
        <ele>831.0</ele>
        <time>2018-10-03T12:31:55.000Z</time>
      </trkpt>
      <trkpt lat="42.55267667" lon="-8.03504333">
        <ele>831.0</ele>
        <time>2018-10-03T12:31:56.000Z</time>
      </trkpt>
      <trkpt lat="42.55268667" lon="-8.03504333">
        <ele>831.0</ele>
        <time>2018-10-03T12:31:57.000Z</time>
      </trkpt>
      <trkpt lat="42.5527" lon="-8.03504167">
        <ele>832.0</ele>
        <time>2018-10-03T12:31:58.000Z</time>
      </trkpt>
      <trkpt lat="42.55271167" lon="-8.03504167">
        <ele>832.0</ele>
        <time>2018-10-03T12:31:59.000Z</time>
      </trkpt>
      <trkpt lat="42.55272333" lon="-8.03504333">
        <ele>832.0</ele>
        <time>2018-10-03T12:32:00.000Z</time>
      </trkpt>
      <trkpt lat="42.552735" lon="-8.03504667">
        <ele>833.0</ele>
        <time>2018-10-03T12:32:01.000Z</time>
      </trkpt>
      <trkpt lat="42.55274667" lon="-8.03505167">
        <ele>833.0</ele>
        <time>2018-10-03T12:32:02.000Z</time>
      </trkpt>
      <trkpt lat="42.55275833" lon="-8.035055">
        <ele>833.0</ele>
        <time>2018-10-03T12:32:03.000Z</time>
      </trkpt>
      <trkpt lat="42.55276833" lon="-8.03506167">
        <ele>833.0</ele>
        <time>2018-10-03T12:32:04.000Z</time>
      </trkpt>
      <trkpt lat="42.552775" lon="-8.035065">
        <ele>834.0</ele>
        <time>2018-10-03T12:32:05.000Z</time>
      </trkpt>
      <trkpt lat="42.55278333" lon="-8.03507">
        <ele>834.0</ele>
        <time>2018-10-03T12:32:06.000Z</time>
      </trkpt>
      <trkpt lat="42.55279167" lon="-8.03507667">
        <ele>834.0</ele>
        <time>2018-10-03T12:32:07.000Z</time>
      </trkpt>
      <trkpt lat="42.55279833" lon="-8.03508333">
        <ele>834.0</ele>
        <time>2018-10-03T12:32:08.000Z</time>
      </trkpt>
      <trkpt lat="42.55280833" lon="-8.035085">
        <ele>834.0</ele>
        <time>2018-10-03T12:32:09.000Z</time>
      </trkpt>
      <trkpt lat="42.55282" lon="-8.035085">
        <ele>834.0</ele>
        <time>2018-10-03T12:32:10.000Z</time>
      </trkpt>
      <trkpt lat="42.552835" lon="-8.035085">
        <ele>834.0</ele>
        <time>2018-10-03T12:32:11.000Z</time>
      </trkpt>
      <trkpt lat="42.55284833" lon="-8.035085">
        <ele>834.0</ele>
        <time>2018-10-03T12:32:12.000Z</time>
      </trkpt>
      <trkpt lat="42.55286167" lon="-8.03508333">
        <ele>834.0</ele>
        <time>2018-10-03T12:32:13.000Z</time>
      </trkpt>
      <trkpt lat="42.55287667" lon="-8.03508167">
        <ele>834.0</ele>
        <time>2018-10-03T12:32:14.000Z</time>
      </trkpt>
      <trkpt lat="42.55289333" lon="-8.03507833">
        <ele>834.0</ele>
        <time>2018-10-03T12:32:15.000Z</time>
      </trkpt>
      <trkpt lat="42.55290833" lon="-8.03507333">
        <ele>834.0</ele>
        <time>2018-10-03T12:32:16.000Z</time>
      </trkpt>
      <trkpt lat="42.55292" lon="-8.03507">
        <ele>834.0</ele>
        <time>2018-10-03T12:32:17.000Z</time>
      </trkpt>
      <trkpt lat="42.55293333" lon="-8.035065">
        <ele>835.0</ele>
        <time>2018-10-03T12:32:18.000Z</time>
      </trkpt>
      <trkpt lat="42.55294833" lon="-8.03506">
        <ele>835.0</ele>
        <time>2018-10-03T12:32:19.000Z</time>
      </trkpt>
      <trkpt lat="42.55296333" lon="-8.03505667">
        <ele>835.0</ele>
        <time>2018-10-03T12:32:20.000Z</time>
      </trkpt>
      <trkpt lat="42.55298" lon="-8.03505">
        <ele>835.0</ele>
        <time>2018-10-03T12:32:21.000Z</time>
      </trkpt>
      <trkpt lat="42.55299167" lon="-8.03504333">
        <ele>835.0</ele>
        <time>2018-10-03T12:32:22.000Z</time>
      </trkpt>
      <trkpt lat="42.55300333" lon="-8.03504">
        <ele>835.0</ele>
        <time>2018-10-03T12:32:23.000Z</time>
      </trkpt>
      <trkpt lat="42.553015" lon="-8.03503833">
        <ele>836.0</ele>
        <time>2018-10-03T12:32:24.000Z</time>
      </trkpt>
      <trkpt lat="42.55302667" lon="-8.03503833">
        <ele>836.0</ele>
        <time>2018-10-03T12:32:25.000Z</time>
      </trkpt>
      <trkpt lat="42.55304" lon="-8.03503833">
        <ele>836.0</ele>
        <time>2018-10-03T12:32:26.000Z</time>
      </trkpt>
      <trkpt lat="42.55305333" lon="-8.03504">
        <ele>836.0</ele>
        <time>2018-10-03T12:32:27.000Z</time>
      </trkpt>
      <trkpt lat="42.55306667" lon="-8.03503833">
        <ele>836.0</ele>
        <time>2018-10-03T12:32:28.000Z</time>
      </trkpt>
      <trkpt lat="42.55308" lon="-8.03503833">
        <ele>837.0</ele>
        <time>2018-10-03T12:32:29.000Z</time>
      </trkpt>
      <trkpt lat="42.55309333" lon="-8.03504">
        <ele>837.0</ele>
        <time>2018-10-03T12:32:30.000Z</time>
      </trkpt>
      <trkpt lat="42.55310833" lon="-8.03504">
        <ele>837.0</ele>
        <time>2018-10-03T12:32:31.000Z</time>
      </trkpt>
      <trkpt lat="42.55312167" lon="-8.03503833">
        <ele>837.0</ele>
        <time>2018-10-03T12:32:32.000Z</time>
      </trkpt>
      <trkpt lat="42.553135" lon="-8.03503667">
        <ele>838.0</ele>
        <time>2018-10-03T12:32:33.000Z</time>
      </trkpt>
      <trkpt lat="42.55314833" lon="-8.03503667">
        <ele>838.0</ele>
        <time>2018-10-03T12:32:34.000Z</time>
      </trkpt>
      <trkpt lat="42.55316333" lon="-8.03503667">
        <ele>838.0</ele>
        <time>2018-10-03T12:32:35.000Z</time>
      </trkpt>
      <trkpt lat="42.55317667" lon="-8.03503833">
        <ele>838.0</ele>
        <time>2018-10-03T12:32:36.000Z</time>
      </trkpt>
      <trkpt lat="42.55319" lon="-8.03504">
        <ele>838.0</ele>
        <time>2018-10-03T12:32:37.000Z</time>
      </trkpt>
      <trkpt lat="42.55320333" lon="-8.03503833">
        <ele>839.0</ele>
        <time>2018-10-03T12:32:38.000Z</time>
      </trkpt>
      <trkpt lat="42.55321667" lon="-8.03503833">
        <ele>839.0</ele>
        <time>2018-10-03T12:32:39.000Z</time>
      </trkpt>
      <trkpt lat="42.55323" lon="-8.035035">
        <ele>839.0</ele>
        <time>2018-10-03T12:32:40.000Z</time>
      </trkpt>
      <trkpt lat="42.55324333" lon="-8.03503667">
        <ele>839.0</ele>
        <time>2018-10-03T12:32:41.000Z</time>
      </trkpt>
      <trkpt lat="42.55325667" lon="-8.03503833">
        <ele>839.0</ele>
        <time>2018-10-03T12:32:42.000Z</time>
      </trkpt>
      <trkpt lat="42.55327167" lon="-8.03503833">
        <ele>840.0</ele>
        <time>2018-10-03T12:32:43.000Z</time>
      </trkpt>
      <trkpt lat="42.553285" lon="-8.03503833">
        <ele>840.0</ele>
        <time>2018-10-03T12:32:44.000Z</time>
      </trkpt>
      <trkpt lat="42.5533" lon="-8.03504">
        <ele>840.0</ele>
        <time>2018-10-03T12:32:45.000Z</time>
      </trkpt>
      <trkpt lat="42.55331333" lon="-8.03503833">
        <ele>840.0</ele>
        <time>2018-10-03T12:32:46.000Z</time>
      </trkpt>
      <trkpt lat="42.553325" lon="-8.03503833">
        <ele>840.0</ele>
        <time>2018-10-03T12:32:47.000Z</time>
      </trkpt>
      <trkpt lat="42.55333833" lon="-8.03503667">
        <ele>841.0</ele>
        <time>2018-10-03T12:32:48.000Z</time>
      </trkpt>
      <trkpt lat="42.55335167" lon="-8.035035">
        <ele>841.0</ele>
        <time>2018-10-03T12:32:49.000Z</time>
      </trkpt>
      <trkpt lat="42.553365" lon="-8.035035">
        <ele>841.0</ele>
        <time>2018-10-03T12:32:50.000Z</time>
      </trkpt>
      <trkpt lat="42.55338167" lon="-8.03503167">
        <ele>841.0</ele>
        <time>2018-10-03T12:32:51.000Z</time>
      </trkpt>
      <trkpt lat="42.553395" lon="-8.03503">
        <ele>841.0</ele>
        <time>2018-10-03T12:32:52.000Z</time>
      </trkpt>
      <trkpt lat="42.55340833" lon="-8.03502667">
        <ele>841.0</ele>
        <time>2018-10-03T12:32:53.000Z</time>
      </trkpt>
      <trkpt lat="42.55341667" lon="-8.03503167">
        <ele>841.0</ele>
        <time>2018-10-03T12:32:54.000Z</time>
      </trkpt>
      <trkpt lat="42.55342667" lon="-8.03503333">
        <ele>841.0</ele>
        <time>2018-10-03T12:32:55.000Z</time>
      </trkpt>
      <trkpt lat="42.55343833" lon="-8.03503167">
        <ele>841.0</ele>
        <time>2018-10-03T12:32:56.000Z</time>
      </trkpt>
      <trkpt lat="42.55345" lon="-8.03503167">
        <ele>841.0</ele>
        <time>2018-10-03T12:32:57.000Z</time>
      </trkpt>
      <trkpt lat="42.55346333" lon="-8.03503167">
        <ele>841.0</ele>
        <time>2018-10-03T12:32:58.000Z</time>
      </trkpt>
      <trkpt lat="42.55347667" lon="-8.03503167">
        <ele>841.0</ele>
        <time>2018-10-03T12:32:59.000Z</time>
      </trkpt>
      <trkpt lat="42.55348667" lon="-8.035035">
        <ele>841.0</ele>
        <time>2018-10-03T12:33:00.000Z</time>
      </trkpt>
      <trkpt lat="42.5535" lon="-8.03503667">
        <ele>841.0</ele>
        <time>2018-10-03T12:33:01.000Z</time>
      </trkpt>
      <trkpt lat="42.55351333" lon="-8.035035">
        <ele>841.0</ele>
        <time>2018-10-03T12:33:02.000Z</time>
      </trkpt>
      <trkpt lat="42.55352667" lon="-8.03503333">
        <ele>841.0</ele>
        <time>2018-10-03T12:33:03.000Z</time>
      </trkpt>
      <trkpt lat="42.55353833" lon="-8.03503">
        <ele>841.0</ele>
        <time>2018-10-03T12:33:04.000Z</time>
      </trkpt>
      <trkpt lat="42.55355167" lon="-8.03503167">
        <ele>841.0</ele>
        <time>2018-10-03T12:33:05.000Z</time>
      </trkpt>
      <trkpt lat="42.55356333" lon="-8.03503167">
        <ele>841.0</ele>
        <time>2018-10-03T12:33:06.000Z</time>
      </trkpt>
      <trkpt lat="42.55357667" lon="-8.03503167">
        <ele>842.0</ele>
        <time>2018-10-03T12:33:07.000Z</time>
      </trkpt>
      <trkpt lat="42.55359" lon="-8.03503">
        <ele>842.0</ele>
        <time>2018-10-03T12:33:08.000Z</time>
      </trkpt>
      <trkpt lat="42.553605" lon="-8.03502833">
        <ele>842.0</ele>
        <time>2018-10-03T12:33:09.000Z</time>
      </trkpt>
      <trkpt lat="42.55362167" lon="-8.03502833">
        <ele>842.0</ele>
        <time>2018-10-03T12:33:10.000Z</time>
      </trkpt>
      <trkpt lat="42.55363833" lon="-8.03502667">
        <ele>842.0</ele>
        <time>2018-10-03T12:33:11.000Z</time>
      </trkpt>
      <trkpt lat="42.55365333" lon="-8.035025">
        <ele>842.0</ele>
        <time>2018-10-03T12:33:12.000Z</time>
      </trkpt>
      <trkpt lat="42.55366667" lon="-8.03501833">
        <ele>842.0</ele>
        <time>2018-10-03T12:33:13.000Z</time>
      </trkpt>
      <trkpt lat="42.55368167" lon="-8.035015">
        <ele>842.0</ele>
        <time>2018-10-03T12:33:14.000Z</time>
      </trkpt>
      <trkpt lat="42.553695" lon="-8.035015">
        <ele>842.0</ele>
        <time>2018-10-03T12:33:15.000Z</time>
      </trkpt>
      <trkpt lat="42.55370833" lon="-8.03501333">
        <ele>842.0</ele>
        <time>2018-10-03T12:33:16.000Z</time>
      </trkpt>
      <trkpt lat="42.55372" lon="-8.03501333">
        <ele>842.0</ele>
        <time>2018-10-03T12:33:17.000Z</time>
      </trkpt>
      <trkpt lat="42.553735" lon="-8.03501">
        <ele>842.0</ele>
        <time>2018-10-03T12:33:18.000Z</time>
      </trkpt>
      <trkpt lat="42.55374833" lon="-8.03500833">
        <ele>842.0</ele>
        <time>2018-10-03T12:33:19.000Z</time>
      </trkpt>
      <trkpt lat="42.55375667" lon="-8.03501">
        <ele>842.0</ele>
        <time>2018-10-03T12:33:20.000Z</time>
      </trkpt>
      <trkpt lat="42.55376667" lon="-8.03500667">
        <ele>842.0</ele>
        <time>2018-10-03T12:33:21.000Z</time>
      </trkpt>
      <trkpt lat="42.55377833" lon="-8.03500833">
        <ele>842.0</ele>
        <time>2018-10-03T12:33:22.000Z</time>
      </trkpt>
      <trkpt lat="42.55379167" lon="-8.03500667">
        <ele>842.0</ele>
        <time>2018-10-03T12:33:23.000Z</time>
      </trkpt>
      <trkpt lat="42.55380333" lon="-8.03500667">
        <ele>842.0</ele>
        <time>2018-10-03T12:33:24.000Z</time>
      </trkpt>
      <trkpt lat="42.55381667" lon="-8.03500833">
        <ele>842.0</ele>
        <time>2018-10-03T12:33:25.000Z</time>
      </trkpt>
      <trkpt lat="42.55382833" lon="-8.035005">
        <ele>842.0</ele>
        <time>2018-10-03T12:33:26.000Z</time>
      </trkpt>
      <trkpt lat="42.55384167" lon="-8.035005">
        <ele>842.0</ele>
        <time>2018-10-03T12:33:27.000Z</time>
      </trkpt>
      <trkpt lat="42.553855" lon="-8.03500333">
        <ele>842.0</ele>
        <time>2018-10-03T12:33:28.000Z</time>
      </trkpt>
      <trkpt lat="42.55387" lon="-8.03500333">
        <ele>842.0</ele>
        <time>2018-10-03T12:33:29.000Z</time>
      </trkpt>
      <trkpt lat="42.553885" lon="-8.03500167">
        <ele>842.0</ele>
        <time>2018-10-03T12:33:30.000Z</time>
      </trkpt>
      <trkpt lat="42.55389667" lon="-8.03499833">
        <ele>842.0</ele>
        <time>2018-10-03T12:33:31.000Z</time>
      </trkpt>
      <trkpt lat="42.5539" lon="-8.03499667">
        <ele>842.0</ele>
        <time>2018-10-03T12:33:32.000Z</time>
      </trkpt>
      <trkpt lat="42.55390667" lon="-8.034995">
        <ele>842.0</ele>
        <time>2018-10-03T12:33:33.000Z</time>
      </trkpt>
      <trkpt lat="42.55391667" lon="-8.034995">
        <ele>842.0</ele>
        <time>2018-10-03T12:33:34.000Z</time>
      </trkpt>
      <trkpt lat="42.553935" lon="-8.034995">
        <ele>842.0</ele>
        <time>2018-10-03T12:33:35.000Z</time>
      </trkpt>
      <trkpt lat="42.55395167" lon="-8.03499667">
        <ele>842.0</ele>
        <time>2018-10-03T12:33:36.000Z</time>
      </trkpt>
      <trkpt lat="42.55396667" lon="-8.035">
        <ele>842.0</ele>
        <time>2018-10-03T12:33:37.000Z</time>
      </trkpt>
      <trkpt lat="42.55398333" lon="-8.03499833">
        <ele>843.0</ele>
        <time>2018-10-03T12:33:38.000Z</time>
      </trkpt>
      <trkpt lat="42.554" lon="-8.03499667">
        <ele>843.0</ele>
        <time>2018-10-03T12:33:39.000Z</time>
      </trkpt>
      <trkpt lat="42.55401667" lon="-8.03499333">
        <ele>843.0</ele>
        <time>2018-10-03T12:33:40.000Z</time>
      </trkpt>
      <trkpt lat="42.55403" lon="-8.03498833">
        <ele>843.0</ele>
        <time>2018-10-03T12:33:41.000Z</time>
      </trkpt>
      <trkpt lat="42.55404333" lon="-8.034985">
        <ele>843.0</ele>
        <time>2018-10-03T12:33:42.000Z</time>
      </trkpt>
      <trkpt lat="42.55405833" lon="-8.03498333">
        <ele>843.0</ele>
        <time>2018-10-03T12:33:43.000Z</time>
      </trkpt>
      <trkpt lat="42.55407167" lon="-8.03498667">
        <ele>843.0</ele>
        <time>2018-10-03T12:33:44.000Z</time>
      </trkpt>
      <trkpt lat="42.55408" lon="-8.03499">
        <ele>843.0</ele>
        <time>2018-10-03T12:33:45.000Z</time>
      </trkpt>
      <trkpt lat="42.55409" lon="-8.034995">
        <ele>843.0</ele>
        <time>2018-10-03T12:33:46.000Z</time>
      </trkpt>
      <trkpt lat="42.55410333" lon="-8.034995">
        <ele>843.0</ele>
        <time>2018-10-03T12:33:47.000Z</time>
      </trkpt>
      <trkpt lat="42.55411667" lon="-8.03499667">
        <ele>843.0</ele>
        <time>2018-10-03T12:33:48.000Z</time>
      </trkpt>
      <trkpt lat="42.55413" lon="-8.03499667">
        <ele>843.0</ele>
        <time>2018-10-03T12:33:49.000Z</time>
      </trkpt>
      <trkpt lat="42.55414667" lon="-8.03499167">
        <ele>843.0</ele>
        <time>2018-10-03T12:33:50.000Z</time>
      </trkpt>
      <trkpt lat="42.55416333" lon="-8.03498333">
        <ele>843.0</ele>
        <time>2018-10-03T12:33:51.000Z</time>
      </trkpt>
      <trkpt lat="42.55418167" lon="-8.034975">
        <ele>843.0</ele>
        <time>2018-10-03T12:33:52.000Z</time>
      </trkpt>
      <trkpt lat="42.55419667" lon="-8.03497167">
        <ele>843.0</ele>
        <time>2018-10-03T12:33:53.000Z</time>
      </trkpt>
      <trkpt lat="42.55421167" lon="-8.03497333">
        <ele>843.0</ele>
        <time>2018-10-03T12:33:54.000Z</time>
      </trkpt>
      <trkpt lat="42.55422667" lon="-8.03497333">
        <ele>843.0</ele>
        <time>2018-10-03T12:33:55.000Z</time>
      </trkpt>
      <trkpt lat="42.55424" lon="-8.034975">
        <ele>842.0</ele>
        <time>2018-10-03T12:33:56.000Z</time>
      </trkpt>
      <trkpt lat="42.55425167" lon="-8.03498167">
        <ele>842.0</ele>
        <time>2018-10-03T12:33:57.000Z</time>
      </trkpt>
      <trkpt lat="42.55425833" lon="-8.03499">
        <ele>842.0</ele>
        <time>2018-10-03T12:33:58.000Z</time>
      </trkpt>
      <trkpt lat="42.55426333" lon="-8.035">
        <ele>843.0</ele>
        <time>2018-10-03T12:33:59.000Z</time>
      </trkpt>
      <trkpt lat="42.55428" lon="-8.03500167">
        <ele>843.0</ele>
        <time>2018-10-03T12:34:00.000Z</time>
      </trkpt>
      <trkpt lat="42.554295" lon="-8.035">
        <ele>843.0</ele>
        <time>2018-10-03T12:34:01.000Z</time>
      </trkpt>
      <trkpt lat="42.55431667" lon="-8.03499667">
        <ele>843.0</ele>
        <time>2018-10-03T12:34:02.000Z</time>
      </trkpt>
      <trkpt lat="42.55433833" lon="-8.03499667">
        <ele>843.0</ele>
        <time>2018-10-03T12:34:03.000Z</time>
      </trkpt>
      <trkpt lat="42.55435667" lon="-8.03499333">
        <ele>843.0</ele>
        <time>2018-10-03T12:34:04.000Z</time>
      </trkpt>
      <trkpt lat="42.55437333" lon="-8.034995">
        <ele>842.0</ele>
        <time>2018-10-03T12:34:05.000Z</time>
      </trkpt>
      <trkpt lat="42.55439" lon="-8.03499333">
        <ele>843.0</ele>
        <time>2018-10-03T12:34:06.000Z</time>
      </trkpt>
      <trkpt lat="42.554405" lon="-8.034995">
        <ele>842.0</ele>
        <time>2018-10-03T12:34:07.000Z</time>
      </trkpt>
      <trkpt lat="42.55441833" lon="-8.03499667">
        <ele>842.0</ele>
        <time>2018-10-03T12:34:08.000Z</time>
      </trkpt>
      <trkpt lat="42.55443333" lon="-8.03499667">
        <ele>842.0</ele>
        <time>2018-10-03T12:34:09.000Z</time>
      </trkpt>
      <trkpt lat="42.55445" lon="-8.034995">
        <ele>842.0</ele>
        <time>2018-10-03T12:34:10.000Z</time>
      </trkpt>
      <trkpt lat="42.55446833" lon="-8.03499667">
        <ele>842.0</ele>
        <time>2018-10-03T12:34:11.000Z</time>
      </trkpt>
      <trkpt lat="42.554485" lon="-8.035">
        <ele>842.0</ele>
        <time>2018-10-03T12:34:12.000Z</time>
      </trkpt>
      <trkpt lat="42.55450167" lon="-8.03500167">
        <ele>842.0</ele>
        <time>2018-10-03T12:34:13.000Z</time>
      </trkpt>
      <trkpt lat="42.55451333" lon="-8.035005">
        <ele>843.0</ele>
        <time>2018-10-03T12:34:14.000Z</time>
      </trkpt>
      <trkpt lat="42.55452667" lon="-8.03501167">
        <ele>843.0</ele>
        <time>2018-10-03T12:34:15.000Z</time>
      </trkpt>
      <trkpt lat="42.55454" lon="-8.03501667">
        <ele>843.0</ele>
        <time>2018-10-03T12:34:16.000Z</time>
      </trkpt>
      <trkpt lat="42.55456" lon="-8.03502167">
        <ele>842.0</ele>
        <time>2018-10-03T12:34:17.000Z</time>
      </trkpt>
      <trkpt lat="42.554585" lon="-8.03502">
        <ele>842.0</ele>
        <time>2018-10-03T12:34:18.000Z</time>
      </trkpt>
      <trkpt lat="42.5546" lon="-8.03501833">
        <ele>842.0</ele>
        <time>2018-10-03T12:34:19.000Z</time>
      </trkpt>
      <trkpt lat="42.55461333" lon="-8.03501">
        <ele>842.0</ele>
        <time>2018-10-03T12:34:20.000Z</time>
      </trkpt>
      <trkpt lat="42.55462833" lon="-8.03499833">
        <ele>842.0</ele>
        <time>2018-10-03T12:34:21.000Z</time>
      </trkpt>
      <trkpt lat="42.554635" lon="-8.034995">
        <ele>842.0</ele>
        <time>2018-10-03T12:34:22.000Z</time>
      </trkpt>
      <trkpt lat="42.55464833" lon="-8.03499">
        <ele>841.0</ele>
        <time>2018-10-03T12:34:23.000Z</time>
      </trkpt>
      <trkpt lat="42.55465833" lon="-8.03499">
        <ele>841.0</ele>
        <time>2018-10-03T12:34:24.000Z</time>
      </trkpt>
      <trkpt lat="42.55466333" lon="-8.034995">
        <ele>841.0</ele>
        <time>2018-10-03T12:34:25.000Z</time>
      </trkpt>
      <trkpt lat="42.554665" lon="-8.03500167">
        <ele>841.0</ele>
        <time>2018-10-03T12:34:26.000Z</time>
      </trkpt>
      <trkpt lat="42.55466833" lon="-8.03501">
        <ele>841.0</ele>
        <time>2018-10-03T12:34:27.000Z</time>
      </trkpt>
      <trkpt lat="42.554675" lon="-8.03502">
        <ele>841.0</ele>
        <time>2018-10-03T12:34:28.000Z</time>
      </trkpt>
      <trkpt lat="42.55469167" lon="-8.03502833">
        <ele>841.0</ele>
        <time>2018-10-03T12:34:29.000Z</time>
      </trkpt>
      <trkpt lat="42.554705" lon="-8.03503333">
        <ele>841.0</ele>
        <time>2018-10-03T12:34:30.000Z</time>
      </trkpt>
      <trkpt lat="42.55472167" lon="-8.03503">
        <ele>841.0</ele>
        <time>2018-10-03T12:34:31.000Z</time>
      </trkpt>
      <trkpt lat="42.55473833" lon="-8.03502833">
        <ele>841.0</ele>
        <time>2018-10-03T12:34:32.000Z</time>
      </trkpt>
      <trkpt lat="42.55475667" lon="-8.035025">
        <ele>841.0</ele>
        <time>2018-10-03T12:34:33.000Z</time>
      </trkpt>
      <trkpt lat="42.55477167" lon="-8.03502333">
        <ele>841.0</ele>
        <time>2018-10-03T12:34:34.000Z</time>
      </trkpt>
      <trkpt lat="42.55479" lon="-8.03502333">
        <ele>841.0</ele>
        <time>2018-10-03T12:34:35.000Z</time>
      </trkpt>
      <trkpt lat="42.55480833" lon="-8.03501833">
        <ele>841.0</ele>
        <time>2018-10-03T12:34:36.000Z</time>
      </trkpt>
      <trkpt lat="42.554825" lon="-8.03501333">
        <ele>841.0</ele>
        <time>2018-10-03T12:34:37.000Z</time>
      </trkpt>
      <trkpt lat="42.55483833" lon="-8.035015">
        <ele>841.0</ele>
        <time>2018-10-03T12:34:38.000Z</time>
      </trkpt>
      <trkpt lat="42.55485" lon="-8.03502">
        <ele>841.0</ele>
        <time>2018-10-03T12:34:39.000Z</time>
      </trkpt>
      <trkpt lat="42.554865" lon="-8.03502167">
        <ele>840.0</ele>
        <time>2018-10-03T12:34:40.000Z</time>
      </trkpt>
      <trkpt lat="42.55487833" lon="-8.03502">
        <ele>840.0</ele>
        <time>2018-10-03T12:34:41.000Z</time>
      </trkpt>
      <trkpt lat="42.554895" lon="-8.035015">
        <ele>840.0</ele>
        <time>2018-10-03T12:34:42.000Z</time>
      </trkpt>
      <trkpt lat="42.55491" lon="-8.03501">
        <ele>840.0</ele>
        <time>2018-10-03T12:34:43.000Z</time>
      </trkpt>
      <trkpt lat="42.55492667" lon="-8.035005">
        <ele>840.0</ele>
        <time>2018-10-03T12:34:44.000Z</time>
      </trkpt>
      <trkpt lat="42.55494333" lon="-8.03500333">
        <ele>840.0</ele>
        <time>2018-10-03T12:34:45.000Z</time>
      </trkpt>
      <trkpt lat="42.55495667" lon="-8.035005">
        <ele>840.0</ele>
        <time>2018-10-03T12:34:46.000Z</time>
      </trkpt>
      <trkpt lat="42.55497333" lon="-8.03500833">
        <ele>840.0</ele>
        <time>2018-10-03T12:34:47.000Z</time>
      </trkpt>
      <trkpt lat="42.554985" lon="-8.03501">
        <ele>840.0</ele>
        <time>2018-10-03T12:34:48.000Z</time>
      </trkpt>
      <trkpt lat="42.555" lon="-8.03500667">
        <ele>840.0</ele>
        <time>2018-10-03T12:34:49.000Z</time>
      </trkpt>
      <trkpt lat="42.555015" lon="-8.03500667">
        <ele>839.0</ele>
        <time>2018-10-03T12:34:50.000Z</time>
      </trkpt>
      <trkpt lat="42.55503167" lon="-8.03500333">
        <ele>839.0</ele>
        <time>2018-10-03T12:34:51.000Z</time>
      </trkpt>
      <trkpt lat="42.55505" lon="-8.034995">
        <ele>839.0</ele>
        <time>2018-10-03T12:34:52.000Z</time>
      </trkpt>
      <trkpt lat="42.55506833" lon="-8.03498667">
        <ele>839.0</ele>
        <time>2018-10-03T12:34:53.000Z</time>
      </trkpt>
      <trkpt lat="42.555085" lon="-8.034975">
        <ele>840.0</ele>
        <time>2018-10-03T12:34:54.000Z</time>
      </trkpt>
      <trkpt lat="42.55510167" lon="-8.03496833">
        <ele>840.0</ele>
        <time>2018-10-03T12:34:55.000Z</time>
      </trkpt>
      <trkpt lat="42.55512" lon="-8.03496333">
        <ele>840.0</ele>
        <time>2018-10-03T12:34:56.000Z</time>
      </trkpt>
      <trkpt lat="42.55514333" lon="-8.03495667">
        <ele>839.0</ele>
        <time>2018-10-03T12:34:57.000Z</time>
      </trkpt>
      <trkpt lat="42.55516333" lon="-8.034955">
        <ele>839.0</ele>
        <time>2018-10-03T12:34:58.000Z</time>
      </trkpt>
      <trkpt lat="42.555175" lon="-8.03495667">
        <ele>839.0</ele>
        <time>2018-10-03T12:34:59.000Z</time>
      </trkpt>
      <trkpt lat="42.55518333" lon="-8.03496">
        <ele>839.0</ele>
        <time>2018-10-03T12:35:00.000Z</time>
      </trkpt>
      <trkpt lat="42.55519" lon="-8.03496167">
        <ele>839.0</ele>
        <time>2018-10-03T12:35:01.000Z</time>
      </trkpt>
      <trkpt lat="42.55520833" lon="-8.03495667">
        <ele>839.0</ele>
        <time>2018-10-03T12:35:02.000Z</time>
      </trkpt>
      <trkpt lat="42.55523667" lon="-8.03495167">
        <ele>839.0</ele>
        <time>2018-10-03T12:35:03.000Z</time>
      </trkpt>
      <trkpt lat="42.55526" lon="-8.03494667">
        <ele>839.0</ele>
        <time>2018-10-03T12:35:04.000Z</time>
      </trkpt>
      <trkpt lat="42.555275" lon="-8.03494333">
        <ele>839.0</ele>
        <time>2018-10-03T12:35:05.000Z</time>
      </trkpt>
      <trkpt lat="42.555285" lon="-8.03494333">
        <ele>839.0</ele>
        <time>2018-10-03T12:35:06.000Z</time>
      </trkpt>
      <trkpt lat="42.5553" lon="-8.03494167">
        <ele>839.0</ele>
        <time>2018-10-03T12:35:07.000Z</time>
      </trkpt>
      <trkpt lat="42.55531667" lon="-8.03494333">
        <ele>839.0</ele>
        <time>2018-10-03T12:35:08.000Z</time>
      </trkpt>
      <trkpt lat="42.55533667" lon="-8.03494833">
        <ele>839.0</ele>
        <time>2018-10-03T12:35:09.000Z</time>
      </trkpt>
      <trkpt lat="42.555355" lon="-8.03495167">
        <ele>839.0</ele>
        <time>2018-10-03T12:35:10.000Z</time>
      </trkpt>
      <trkpt lat="42.55537167" lon="-8.03495167">
        <ele>839.0</ele>
        <time>2018-10-03T12:35:11.000Z</time>
      </trkpt>
      <trkpt lat="42.555385" lon="-8.03495167">
        <ele>839.0</ele>
        <time>2018-10-03T12:35:12.000Z</time>
      </trkpt>
      <trkpt lat="42.55540167" lon="-8.03495">
        <ele>839.0</ele>
        <time>2018-10-03T12:35:13.000Z</time>
      </trkpt>
      <trkpt lat="42.555415" lon="-8.03494833">
        <ele>839.0</ele>
        <time>2018-10-03T12:35:14.000Z</time>
      </trkpt>
      <trkpt lat="42.55543167" lon="-8.03494167">
        <ele>838.0</ele>
        <time>2018-10-03T12:35:15.000Z</time>
      </trkpt>
      <trkpt lat="42.55545" lon="-8.03493667">
        <ele>838.0</ele>
        <time>2018-10-03T12:35:16.000Z</time>
      </trkpt>
      <trkpt lat="42.55546667" lon="-8.03493333">
        <ele>838.0</ele>
        <time>2018-10-03T12:35:17.000Z</time>
      </trkpt>
      <trkpt lat="42.555485" lon="-8.03492833">
        <ele>838.0</ele>
        <time>2018-10-03T12:35:18.000Z</time>
      </trkpt>
      <trkpt lat="42.55550333" lon="-8.03492167">
        <ele>838.0</ele>
        <time>2018-10-03T12:35:19.000Z</time>
      </trkpt>
      <trkpt lat="42.55552333" lon="-8.03492">
        <ele>838.0</ele>
        <time>2018-10-03T12:35:20.000Z</time>
      </trkpt>
      <trkpt lat="42.55554" lon="-8.034915">
        <ele>838.0</ele>
        <time>2018-10-03T12:35:21.000Z</time>
      </trkpt>
      <trkpt lat="42.55555833" lon="-8.03491333">
        <ele>838.0</ele>
        <time>2018-10-03T12:35:22.000Z</time>
      </trkpt>
      <trkpt lat="42.55557667" lon="-8.03491167">
        <ele>838.0</ele>
        <time>2018-10-03T12:35:23.000Z</time>
      </trkpt>
      <trkpt lat="42.55559167" lon="-8.034915">
        <ele>838.0</ele>
        <time>2018-10-03T12:35:24.000Z</time>
      </trkpt>
      <trkpt lat="42.55560833" lon="-8.03491333">
        <ele>838.0</ele>
        <time>2018-10-03T12:35:25.000Z</time>
      </trkpt>
      <trkpt lat="42.555625" lon="-8.034915">
        <ele>838.0</ele>
        <time>2018-10-03T12:35:26.000Z</time>
      </trkpt>
      <trkpt lat="42.55564" lon="-8.03491667">
        <ele>838.0</ele>
        <time>2018-10-03T12:35:27.000Z</time>
      </trkpt>
      <trkpt lat="42.55565833" lon="-8.03491833">
        <ele>838.0</ele>
        <time>2018-10-03T12:35:28.000Z</time>
      </trkpt>
      <trkpt lat="42.55567167" lon="-8.03492">
        <ele>838.0</ele>
        <time>2018-10-03T12:35:29.000Z</time>
      </trkpt>
      <trkpt lat="42.55568667" lon="-8.03492">
        <ele>838.0</ele>
        <time>2018-10-03T12:35:30.000Z</time>
      </trkpt>
      <trkpt lat="42.55570167" lon="-8.03492">
        <ele>838.0</ele>
        <time>2018-10-03T12:35:31.000Z</time>
      </trkpt>
      <trkpt lat="42.55571667" lon="-8.03492167">
        <ele>838.0</ele>
        <time>2018-10-03T12:35:32.000Z</time>
      </trkpt>
      <trkpt lat="42.55573167" lon="-8.03492333">
        <ele>838.0</ele>
        <time>2018-10-03T12:35:33.000Z</time>
      </trkpt>
      <trkpt lat="42.55574667" lon="-8.03492667">
        <ele>838.0</ele>
        <time>2018-10-03T12:35:34.000Z</time>
      </trkpt>
      <trkpt lat="42.55576167" lon="-8.03492833">
        <ele>838.0</ele>
        <time>2018-10-03T12:35:35.000Z</time>
      </trkpt>
      <trkpt lat="42.55577833" lon="-8.03493">
        <ele>838.0</ele>
        <time>2018-10-03T12:35:36.000Z</time>
      </trkpt>
      <trkpt lat="42.55579333" lon="-8.03493167">
        <ele>839.0</ele>
        <time>2018-10-03T12:35:37.000Z</time>
      </trkpt>
      <trkpt lat="42.55580833" lon="-8.034935">
        <ele>839.0</ele>
        <time>2018-10-03T12:35:38.000Z</time>
      </trkpt>
      <trkpt lat="42.55582333" lon="-8.03493833">
        <ele>839.0</ele>
        <time>2018-10-03T12:35:39.000Z</time>
      </trkpt>
      <trkpt lat="42.55583833" lon="-8.03494333">
        <ele>839.0</ele>
        <time>2018-10-03T12:35:40.000Z</time>
      </trkpt>
      <trkpt lat="42.55585167" lon="-8.03494667">
        <ele>839.0</ele>
        <time>2018-10-03T12:35:41.000Z</time>
      </trkpt>
      <trkpt lat="42.55586667" lon="-8.03495">
        <ele>839.0</ele>
        <time>2018-10-03T12:35:42.000Z</time>
      </trkpt>
      <trkpt lat="42.55588167" lon="-8.034955">
        <ele>839.0</ele>
        <time>2018-10-03T12:35:43.000Z</time>
      </trkpt>
      <trkpt lat="42.55589667" lon="-8.03496167">
        <ele>839.0</ele>
        <time>2018-10-03T12:35:44.000Z</time>
      </trkpt>
      <trkpt lat="42.55591167" lon="-8.03496833">
        <ele>839.0</ele>
        <time>2018-10-03T12:35:45.000Z</time>
      </trkpt>
      <trkpt lat="42.55592667" lon="-8.034975">
        <ele>839.0</ele>
        <time>2018-10-03T12:35:46.000Z</time>
      </trkpt>
      <trkpt lat="42.55594" lon="-8.03498167">
        <ele>839.0</ele>
        <time>2018-10-03T12:35:47.000Z</time>
      </trkpt>
      <trkpt lat="42.55595667" lon="-8.03499">
        <ele>839.0</ele>
        <time>2018-10-03T12:35:48.000Z</time>
      </trkpt>
      <trkpt lat="42.55597" lon="-8.03499667">
        <ele>839.0</ele>
        <time>2018-10-03T12:35:49.000Z</time>
      </trkpt>
      <trkpt lat="42.55598667" lon="-8.03500167">
        <ele>839.0</ele>
        <time>2018-10-03T12:35:50.000Z</time>
      </trkpt>
      <trkpt lat="42.55600167" lon="-8.03500667">
        <ele>839.0</ele>
        <time>2018-10-03T12:35:51.000Z</time>
      </trkpt>
      <trkpt lat="42.55601667" lon="-8.03501167">
        <ele>839.0</ele>
        <time>2018-10-03T12:35:52.000Z</time>
      </trkpt>
      <trkpt lat="42.55603333" lon="-8.03501667">
        <ele>839.0</ele>
        <time>2018-10-03T12:35:53.000Z</time>
      </trkpt>
      <trkpt lat="42.55604667" lon="-8.03502167">
        <ele>839.0</ele>
        <time>2018-10-03T12:35:54.000Z</time>
      </trkpt>
      <trkpt lat="42.55606" lon="-8.03502833">
        <ele>839.0</ele>
        <time>2018-10-03T12:35:55.000Z</time>
      </trkpt>
      <trkpt lat="42.55607333" lon="-8.03503333">
        <ele>839.0</ele>
        <time>2018-10-03T12:35:56.000Z</time>
      </trkpt>
      <trkpt lat="42.55608167" lon="-8.035035">
        <ele>839.0</ele>
        <time>2018-10-03T12:35:57.000Z</time>
      </trkpt>
      <trkpt lat="42.55609" lon="-8.03504333">
        <ele>839.0</ele>
        <time>2018-10-03T12:35:58.000Z</time>
      </trkpt>
      <trkpt lat="42.55610167" lon="-8.03505">
        <ele>839.0</ele>
        <time>2018-10-03T12:35:59.000Z</time>
      </trkpt>
      <trkpt lat="42.55612" lon="-8.03505833">
        <ele>839.0</ele>
        <time>2018-10-03T12:36:00.000Z</time>
      </trkpt>
      <trkpt lat="42.55614167" lon="-8.03506667">
        <ele>839.0</ele>
        <time>2018-10-03T12:36:01.000Z</time>
      </trkpt>
      <trkpt lat="42.556165" lon="-8.03507333">
        <ele>839.0</ele>
        <time>2018-10-03T12:36:02.000Z</time>
      </trkpt>
      <trkpt lat="42.55618833" lon="-8.03507667">
        <ele>839.0</ele>
        <time>2018-10-03T12:36:03.000Z</time>
      </trkpt>
      <trkpt lat="42.55620667" lon="-8.03507333">
        <ele>839.0</ele>
        <time>2018-10-03T12:36:04.000Z</time>
      </trkpt>
      <trkpt lat="42.55622" lon="-8.03507">
        <ele>839.0</ele>
        <time>2018-10-03T12:36:05.000Z</time>
      </trkpt>
      <trkpt lat="42.55622833" lon="-8.03506667">
        <ele>839.0</ele>
        <time>2018-10-03T12:36:06.000Z</time>
      </trkpt>
      <trkpt lat="42.556235" lon="-8.03507167">
        <ele>839.0</ele>
        <time>2018-10-03T12:36:07.000Z</time>
      </trkpt>
      <trkpt lat="42.55624" lon="-8.03508167">
        <ele>839.0</ele>
        <time>2018-10-03T12:36:08.000Z</time>
      </trkpt>
      <trkpt lat="42.556245" lon="-8.03509">
        <ele>840.0</ele>
        <time>2018-10-03T12:36:09.000Z</time>
      </trkpt>
      <trkpt lat="42.55625167" lon="-8.035105">
        <ele>840.0</ele>
        <time>2018-10-03T12:36:10.000Z</time>
      </trkpt>
      <trkpt lat="42.55626667" lon="-8.035115">
        <ele>840.0</ele>
        <time>2018-10-03T12:36:11.000Z</time>
      </trkpt>
      <trkpt lat="42.55628667" lon="-8.03512833">
        <ele>840.0</ele>
        <time>2018-10-03T12:36:12.000Z</time>
      </trkpt>
      <trkpt lat="42.55630667" lon="-8.03513167">
        <ele>840.0</ele>
        <time>2018-10-03T12:36:13.000Z</time>
      </trkpt>
      <trkpt lat="42.556325" lon="-8.03513333">
        <ele>840.0</ele>
        <time>2018-10-03T12:36:14.000Z</time>
      </trkpt>
      <trkpt lat="42.55633833" lon="-8.03513">
        <ele>840.0</ele>
        <time>2018-10-03T12:36:15.000Z</time>
      </trkpt>
      <trkpt lat="42.55635" lon="-8.03513333">
        <ele>840.0</ele>
        <time>2018-10-03T12:36:16.000Z</time>
      </trkpt>
      <trkpt lat="42.55635833" lon="-8.03514167">
        <ele>841.0</ele>
        <time>2018-10-03T12:36:17.000Z</time>
      </trkpt>
      <trkpt lat="42.556365" lon="-8.03515333">
        <ele>841.0</ele>
        <time>2018-10-03T12:36:18.000Z</time>
      </trkpt>
      <trkpt lat="42.556375" lon="-8.035165">
        <ele>841.0</ele>
        <time>2018-10-03T12:36:19.000Z</time>
      </trkpt>
      <trkpt lat="42.55638833" lon="-8.03517667">
        <ele>841.0</ele>
        <time>2018-10-03T12:36:20.000Z</time>
      </trkpt>
      <trkpt lat="42.55640667" lon="-8.03518833">
        <ele>841.0</ele>
        <time>2018-10-03T12:36:21.000Z</time>
      </trkpt>
      <trkpt lat="42.556425" lon="-8.03519833">
        <ele>841.0</ele>
        <time>2018-10-03T12:36:22.000Z</time>
      </trkpt>
      <trkpt lat="42.556445" lon="-8.035205">
        <ele>841.0</ele>
        <time>2018-10-03T12:36:23.000Z</time>
      </trkpt>
      <trkpt lat="42.55646667" lon="-8.03520833">
        <ele>841.0</ele>
        <time>2018-10-03T12:36:24.000Z</time>
      </trkpt>
      <trkpt lat="42.55648833" lon="-8.03521">
        <ele>842.0</ele>
        <time>2018-10-03T12:36:25.000Z</time>
      </trkpt>
      <trkpt lat="42.556505" lon="-8.035215">
        <ele>842.0</ele>
        <time>2018-10-03T12:36:26.000Z</time>
      </trkpt>
      <trkpt lat="42.55652" lon="-8.03522167">
        <ele>842.0</ele>
        <time>2018-10-03T12:36:27.000Z</time>
      </trkpt>
      <trkpt lat="42.55653167" lon="-8.03522833">
        <ele>842.0</ele>
        <time>2018-10-03T12:36:28.000Z</time>
      </trkpt>
      <trkpt lat="42.55653833" lon="-8.03523333">
        <ele>842.0</ele>
        <time>2018-10-03T12:36:29.000Z</time>
      </trkpt>
      <trkpt lat="42.55654667" lon="-8.03524167">
        <ele>842.0</ele>
        <time>2018-10-03T12:36:30.000Z</time>
      </trkpt>
      <trkpt lat="42.55655333" lon="-8.03525167">
        <ele>842.0</ele>
        <time>2018-10-03T12:36:31.000Z</time>
      </trkpt>
      <trkpt lat="42.55656167" lon="-8.03525833">
        <ele>842.0</ele>
        <time>2018-10-03T12:36:32.000Z</time>
      </trkpt>
      <trkpt lat="42.556575" lon="-8.03526833">
        <ele>842.0</ele>
        <time>2018-10-03T12:36:33.000Z</time>
      </trkpt>
      <trkpt lat="42.55659" lon="-8.03527833">
        <ele>842.0</ele>
        <time>2018-10-03T12:36:34.000Z</time>
      </trkpt>
      <trkpt lat="42.55660667" lon="-8.03528667">
        <ele>842.0</ele>
        <time>2018-10-03T12:36:35.000Z</time>
      </trkpt>
      <trkpt lat="42.55662833" lon="-8.03529333">
        <ele>842.0</ele>
        <time>2018-10-03T12:36:36.000Z</time>
      </trkpt>
      <trkpt lat="42.55665167" lon="-8.03529667">
        <ele>842.0</ele>
        <time>2018-10-03T12:36:37.000Z</time>
      </trkpt>
      <trkpt lat="42.556675" lon="-8.0353">
        <ele>842.0</ele>
        <time>2018-10-03T12:36:38.000Z</time>
      </trkpt>
      <trkpt lat="42.55669667" lon="-8.03530167">
        <ele>842.0</ele>
        <time>2018-10-03T12:36:39.000Z</time>
      </trkpt>
      <trkpt lat="42.55671333" lon="-8.0353">
        <ele>843.0</ele>
        <time>2018-10-03T12:36:40.000Z</time>
      </trkpt>
      <trkpt lat="42.55672333" lon="-8.03530167">
        <ele>843.0</ele>
        <time>2018-10-03T12:36:41.000Z</time>
      </trkpt>
      <trkpt lat="42.556735" lon="-8.03530333">
        <ele>843.0</ele>
        <time>2018-10-03T12:36:42.000Z</time>
      </trkpt>
      <trkpt lat="42.55675" lon="-8.03531">
        <ele>843.0</ele>
        <time>2018-10-03T12:36:43.000Z</time>
      </trkpt>
      <trkpt lat="42.556765" lon="-8.03531667">
        <ele>843.0</ele>
        <time>2018-10-03T12:36:44.000Z</time>
      </trkpt>
      <trkpt lat="42.55678" lon="-8.03532333">
        <ele>843.0</ele>
        <time>2018-10-03T12:36:45.000Z</time>
      </trkpt>
      <trkpt lat="42.556795" lon="-8.03533">
        <ele>843.0</ele>
        <time>2018-10-03T12:36:46.000Z</time>
      </trkpt>
      <trkpt lat="42.55681" lon="-8.03533833">
        <ele>843.0</ele>
        <time>2018-10-03T12:36:47.000Z</time>
      </trkpt>
      <trkpt lat="42.556825" lon="-8.035345">
        <ele>843.0</ele>
        <time>2018-10-03T12:36:48.000Z</time>
      </trkpt>
      <trkpt lat="42.55684167" lon="-8.03535167">
        <ele>843.0</ele>
        <time>2018-10-03T12:36:49.000Z</time>
      </trkpt>
      <trkpt lat="42.55685667" lon="-8.03536">
        <ele>843.0</ele>
        <time>2018-10-03T12:36:50.000Z</time>
      </trkpt>
      <trkpt lat="42.55687167" lon="-8.03536667">
        <ele>843.0</ele>
        <time>2018-10-03T12:36:51.000Z</time>
      </trkpt>
      <trkpt lat="42.55688667" lon="-8.03537333">
        <ele>843.0</ele>
        <time>2018-10-03T12:36:52.000Z</time>
      </trkpt>
      <trkpt lat="42.55690167" lon="-8.03538">
        <ele>843.0</ele>
        <time>2018-10-03T12:36:53.000Z</time>
      </trkpt>
      <trkpt lat="42.55691667" lon="-8.03538833">
        <ele>843.0</ele>
        <time>2018-10-03T12:36:54.000Z</time>
      </trkpt>
      <trkpt lat="42.55693167" lon="-8.03539667">
        <ele>843.0</ele>
        <time>2018-10-03T12:36:55.000Z</time>
      </trkpt>
      <trkpt lat="42.55694667" lon="-8.03540333">
        <ele>843.0</ele>
        <time>2018-10-03T12:36:56.000Z</time>
      </trkpt>
      <trkpt lat="42.55696167" lon="-8.03541">
        <ele>843.0</ele>
        <time>2018-10-03T12:36:57.000Z</time>
      </trkpt>
      <trkpt lat="42.55697667" lon="-8.035415">
        <ele>843.0</ele>
        <time>2018-10-03T12:36:58.000Z</time>
      </trkpt>
      <trkpt lat="42.55699167" lon="-8.03542">
        <ele>843.0</ele>
        <time>2018-10-03T12:36:59.000Z</time>
      </trkpt>
      <trkpt lat="42.557005" lon="-8.03542667">
        <ele>843.0</ele>
        <time>2018-10-03T12:37:00.000Z</time>
      </trkpt>
      <trkpt lat="42.55702" lon="-8.03543333">
        <ele>843.0</ele>
        <time>2018-10-03T12:37:01.000Z</time>
      </trkpt>
      <trkpt lat="42.557035" lon="-8.03544">
        <ele>843.0</ele>
        <time>2018-10-03T12:37:02.000Z</time>
      </trkpt>
      <trkpt lat="42.55704833" lon="-8.03544667">
        <ele>843.0</ele>
        <time>2018-10-03T12:37:03.000Z</time>
      </trkpt>
      <trkpt lat="42.55706333" lon="-8.03545333">
        <ele>843.0</ele>
        <time>2018-10-03T12:37:04.000Z</time>
      </trkpt>
      <trkpt lat="42.55708" lon="-8.03545833">
        <ele>843.0</ele>
        <time>2018-10-03T12:37:05.000Z</time>
      </trkpt>
      <trkpt lat="42.557095" lon="-8.035465">
        <ele>842.0</ele>
        <time>2018-10-03T12:37:06.000Z</time>
      </trkpt>
      <trkpt lat="42.55710833" lon="-8.03546833">
        <ele>842.0</ele>
        <time>2018-10-03T12:37:07.000Z</time>
      </trkpt>
      <trkpt lat="42.55712333" lon="-8.03547167">
        <ele>842.0</ele>
        <time>2018-10-03T12:37:08.000Z</time>
      </trkpt>
      <trkpt lat="42.55713667" lon="-8.03547333">
        <ele>842.0</ele>
        <time>2018-10-03T12:37:09.000Z</time>
      </trkpt>
      <trkpt lat="42.55715" lon="-8.03547333">
        <ele>842.0</ele>
        <time>2018-10-03T12:37:10.000Z</time>
      </trkpt>
      <trkpt lat="42.55716333" lon="-8.03548167">
        <ele>842.0</ele>
        <time>2018-10-03T12:37:11.000Z</time>
      </trkpt>
      <trkpt lat="42.55717833" lon="-8.03549333">
        <ele>843.0</ele>
        <time>2018-10-03T12:37:12.000Z</time>
      </trkpt>
      <trkpt lat="42.557195" lon="-8.035505">
        <ele>843.0</ele>
        <time>2018-10-03T12:37:13.000Z</time>
      </trkpt>
      <trkpt lat="42.55721333" lon="-8.03551167">
        <ele>843.0</ele>
        <time>2018-10-03T12:37:14.000Z</time>
      </trkpt>
      <trkpt lat="42.55723167" lon="-8.035515">
        <ele>843.0</ele>
        <time>2018-10-03T12:37:15.000Z</time>
      </trkpt>
      <trkpt lat="42.55724667" lon="-8.03552167">
        <ele>843.0</ele>
        <time>2018-10-03T12:37:16.000Z</time>
      </trkpt>
      <trkpt lat="42.55726167" lon="-8.03552833">
        <ele>843.0</ele>
        <time>2018-10-03T12:37:17.000Z</time>
      </trkpt>
      <trkpt lat="42.55727667" lon="-8.03553667">
        <ele>843.0</ele>
        <time>2018-10-03T12:37:18.000Z</time>
      </trkpt>
      <trkpt lat="42.55729167" lon="-8.03554333">
        <ele>843.0</ele>
        <time>2018-10-03T12:37:19.000Z</time>
      </trkpt>
      <trkpt lat="42.55730667" lon="-8.03555167">
        <ele>843.0</ele>
        <time>2018-10-03T12:37:20.000Z</time>
      </trkpt>
      <trkpt lat="42.55732" lon="-8.03556">
        <ele>843.0</ele>
        <time>2018-10-03T12:37:21.000Z</time>
      </trkpt>
      <trkpt lat="42.557335" lon="-8.03556833">
        <ele>843.0</ele>
        <time>2018-10-03T12:37:22.000Z</time>
      </trkpt>
      <trkpt lat="42.55735" lon="-8.035575">
        <ele>842.0</ele>
        <time>2018-10-03T12:37:23.000Z</time>
      </trkpt>
      <trkpt lat="42.557365" lon="-8.03558167">
        <ele>842.0</ele>
        <time>2018-10-03T12:37:24.000Z</time>
      </trkpt>
      <trkpt lat="42.55738167" lon="-8.03559">
        <ele>842.0</ele>
        <time>2018-10-03T12:37:25.000Z</time>
      </trkpt>
      <trkpt lat="42.557395" lon="-8.03559833">
        <ele>842.0</ele>
        <time>2018-10-03T12:37:26.000Z</time>
      </trkpt>
      <trkpt lat="42.55741" lon="-8.035605">
        <ele>842.0</ele>
        <time>2018-10-03T12:37:27.000Z</time>
      </trkpt>
      <trkpt lat="42.557425" lon="-8.03561333">
        <ele>842.0</ele>
        <time>2018-10-03T12:37:28.000Z</time>
      </trkpt>
      <trkpt lat="42.55744" lon="-8.03562">
        <ele>842.0</ele>
        <time>2018-10-03T12:37:29.000Z</time>
      </trkpt>
      <trkpt lat="42.557455" lon="-8.03562667">
        <ele>842.0</ele>
        <time>2018-10-03T12:37:30.000Z</time>
      </trkpt>
      <trkpt lat="42.55747" lon="-8.03563167">
        <ele>842.0</ele>
        <time>2018-10-03T12:37:31.000Z</time>
      </trkpt>
      <trkpt lat="42.557485" lon="-8.03563833">
        <ele>842.0</ele>
        <time>2018-10-03T12:37:32.000Z</time>
      </trkpt>
      <trkpt lat="42.5575" lon="-8.035645">
        <ele>842.0</ele>
        <time>2018-10-03T12:37:33.000Z</time>
      </trkpt>
      <trkpt lat="42.557515" lon="-8.03565333">
        <ele>842.0</ele>
        <time>2018-10-03T12:37:34.000Z</time>
      </trkpt>
      <trkpt lat="42.55752833" lon="-8.03566167">
        <ele>842.0</ele>
        <time>2018-10-03T12:37:35.000Z</time>
      </trkpt>
      <trkpt lat="42.55754333" lon="-8.03566833">
        <ele>842.0</ele>
        <time>2018-10-03T12:37:36.000Z</time>
      </trkpt>
      <trkpt lat="42.55756" lon="-8.035675">
        <ele>842.0</ele>
        <time>2018-10-03T12:37:37.000Z</time>
      </trkpt>
      <trkpt lat="42.557575" lon="-8.03568167">
        <ele>842.0</ele>
        <time>2018-10-03T12:37:38.000Z</time>
      </trkpt>
      <trkpt lat="42.55759" lon="-8.03568667">
        <ele>842.0</ele>
        <time>2018-10-03T12:37:39.000Z</time>
      </trkpt>
      <trkpt lat="42.557605" lon="-8.03569333">
        <ele>842.0</ele>
        <time>2018-10-03T12:37:40.000Z</time>
      </trkpt>
      <trkpt lat="42.55762" lon="-8.0357">
        <ele>842.0</ele>
        <time>2018-10-03T12:37:41.000Z</time>
      </trkpt>
      <trkpt lat="42.557635" lon="-8.035705">
        <ele>842.0</ele>
        <time>2018-10-03T12:37:42.000Z</time>
      </trkpt>
      <trkpt lat="42.55765" lon="-8.03571">
        <ele>842.0</ele>
        <time>2018-10-03T12:37:43.000Z</time>
      </trkpt>
      <trkpt lat="42.55766333" lon="-8.03571833">
        <ele>842.0</ele>
        <time>2018-10-03T12:37:44.000Z</time>
      </trkpt>
      <trkpt lat="42.55767833" lon="-8.03572667">
        <ele>842.0</ele>
        <time>2018-10-03T12:37:45.000Z</time>
      </trkpt>
      <trkpt lat="42.55769333" lon="-8.03573333">
        <ele>842.0</ele>
        <time>2018-10-03T12:37:46.000Z</time>
      </trkpt>
      <trkpt lat="42.55770667" lon="-8.03573833">
        <ele>841.0</ele>
        <time>2018-10-03T12:37:47.000Z</time>
      </trkpt>
      <trkpt lat="42.55772167" lon="-8.03574333">
        <ele>841.0</ele>
        <time>2018-10-03T12:37:48.000Z</time>
      </trkpt>
      <trkpt lat="42.55773667" lon="-8.03575">
        <ele>841.0</ele>
        <time>2018-10-03T12:37:49.000Z</time>
      </trkpt>
      <trkpt lat="42.55775167" lon="-8.035755">
        <ele>841.0</ele>
        <time>2018-10-03T12:37:50.000Z</time>
      </trkpt>
      <trkpt lat="42.55776833" lon="-8.03576167">
        <ele>841.0</ele>
        <time>2018-10-03T12:37:51.000Z</time>
      </trkpt>
      <trkpt lat="42.55778167" lon="-8.03576667">
        <ele>841.0</ele>
        <time>2018-10-03T12:37:52.000Z</time>
      </trkpt>
      <trkpt lat="42.55779667" lon="-8.035775">
        <ele>841.0</ele>
        <time>2018-10-03T12:37:53.000Z</time>
      </trkpt>
      <trkpt lat="42.55781167" lon="-8.03578">
        <ele>840.0</ele>
        <time>2018-10-03T12:37:54.000Z</time>
      </trkpt>
      <trkpt lat="42.557825" lon="-8.03578667">
        <ele>840.0</ele>
        <time>2018-10-03T12:37:55.000Z</time>
      </trkpt>
      <trkpt lat="42.55783833" lon="-8.03579833">
        <ele>840.0</ele>
        <time>2018-10-03T12:37:56.000Z</time>
      </trkpt>
      <trkpt lat="42.55785167" lon="-8.03580667">
        <ele>840.0</ele>
        <time>2018-10-03T12:37:57.000Z</time>
      </trkpt>
      <trkpt lat="42.55786333" lon="-8.035815">
        <ele>840.0</ele>
        <time>2018-10-03T12:37:58.000Z</time>
      </trkpt>
      <trkpt lat="42.55787333" lon="-8.035825">
        <ele>840.0</ele>
        <time>2018-10-03T12:37:59.000Z</time>
      </trkpt>
      <trkpt lat="42.55788333" lon="-8.03583167">
        <ele>840.0</ele>
        <time>2018-10-03T12:38:00.000Z</time>
      </trkpt>
      <trkpt lat="42.55789833" lon="-8.03584167">
        <ele>840.0</ele>
        <time>2018-10-03T12:38:01.000Z</time>
      </trkpt>
      <trkpt lat="42.557915" lon="-8.03585333">
        <ele>840.0</ele>
        <time>2018-10-03T12:38:02.000Z</time>
      </trkpt>
      <trkpt lat="42.55793333" lon="-8.03586167">
        <ele>840.0</ele>
        <time>2018-10-03T12:38:03.000Z</time>
      </trkpt>
      <trkpt lat="42.55795" lon="-8.03587">
        <ele>840.0</ele>
        <time>2018-10-03T12:38:04.000Z</time>
      </trkpt>
      <trkpt lat="42.55796833" lon="-8.035875">
        <ele>840.0</ele>
        <time>2018-10-03T12:38:05.000Z</time>
      </trkpt>
      <trkpt lat="42.55798667" lon="-8.03588167">
        <ele>840.0</ele>
        <time>2018-10-03T12:38:06.000Z</time>
      </trkpt>
      <trkpt lat="42.558" lon="-8.03589167">
        <ele>840.0</ele>
        <time>2018-10-03T12:38:07.000Z</time>
      </trkpt>
      <trkpt lat="42.55801333" lon="-8.03590167">
        <ele>841.0</ele>
        <time>2018-10-03T12:38:08.000Z</time>
      </trkpt>
      <trkpt lat="42.55802333" lon="-8.035915">
        <ele>841.0</ele>
        <time>2018-10-03T12:38:09.000Z</time>
      </trkpt>
      <trkpt lat="42.55803333" lon="-8.03592833">
        <ele>841.0</ele>
        <time>2018-10-03T12:38:10.000Z</time>
      </trkpt>
      <trkpt lat="42.55804333" lon="-8.03594167">
        <ele>841.0</ele>
        <time>2018-10-03T12:38:11.000Z</time>
      </trkpt>
      <trkpt lat="42.55805333" lon="-8.03595333">
        <ele>841.0</ele>
        <time>2018-10-03T12:38:12.000Z</time>
      </trkpt>
      <trkpt lat="42.55806667" lon="-8.035965">
        <ele>841.0</ele>
        <time>2018-10-03T12:38:13.000Z</time>
      </trkpt>
      <trkpt lat="42.558085" lon="-8.03597333">
        <ele>841.0</ele>
        <time>2018-10-03T12:38:14.000Z</time>
      </trkpt>
      <trkpt lat="42.558105" lon="-8.03598333">
        <ele>841.0</ele>
        <time>2018-10-03T12:38:15.000Z</time>
      </trkpt>
      <trkpt lat="42.55812167" lon="-8.03599333">
        <ele>841.0</ele>
        <time>2018-10-03T12:38:16.000Z</time>
      </trkpt>
      <trkpt lat="42.55813667" lon="-8.03600167">
        <ele>841.0</ele>
        <time>2018-10-03T12:38:17.000Z</time>
      </trkpt>
      <trkpt lat="42.55814667" lon="-8.03601333">
        <ele>841.0</ele>
        <time>2018-10-03T12:38:18.000Z</time>
      </trkpt>
      <trkpt lat="42.558155" lon="-8.036025">
        <ele>841.0</ele>
        <time>2018-10-03T12:38:19.000Z</time>
      </trkpt>
      <trkpt lat="42.55816833" lon="-8.036035">
        <ele>841.0</ele>
        <time>2018-10-03T12:38:20.000Z</time>
      </trkpt>
      <trkpt lat="42.55818667" lon="-8.036045">
        <ele>841.0</ele>
        <time>2018-10-03T12:38:21.000Z</time>
      </trkpt>
      <trkpt lat="42.55821" lon="-8.03605833">
        <ele>841.0</ele>
        <time>2018-10-03T12:38:22.000Z</time>
      </trkpt>
      <trkpt lat="42.55823667" lon="-8.03607167">
        <ele>842.0</ele>
        <time>2018-10-03T12:38:23.000Z</time>
      </trkpt>
      <trkpt lat="42.55826167" lon="-8.03608333">
        <ele>842.0</ele>
        <time>2018-10-03T12:38:24.000Z</time>
      </trkpt>
      <trkpt lat="42.55828167" lon="-8.036095">
        <ele>841.0</ele>
        <time>2018-10-03T12:38:25.000Z</time>
      </trkpt>
      <trkpt lat="42.55829833" lon="-8.03610167">
        <ele>841.0</ele>
        <time>2018-10-03T12:38:26.000Z</time>
      </trkpt>
      <trkpt lat="42.55831" lon="-8.03610833">
        <ele>841.0</ele>
        <time>2018-10-03T12:38:27.000Z</time>
      </trkpt>
      <trkpt lat="42.55831833" lon="-8.03611333">
        <ele>841.0</ele>
        <time>2018-10-03T12:38:28.000Z</time>
      </trkpt>
      <trkpt lat="42.558325" lon="-8.03611833">
        <ele>841.0</ele>
        <time>2018-10-03T12:38:29.000Z</time>
      </trkpt>
      <trkpt lat="42.55833" lon="-8.03612167">
        <ele>841.0</ele>
        <time>2018-10-03T12:38:30.000Z</time>
      </trkpt>
      <trkpt lat="42.55833167" lon="-8.03613167">
        <ele>841.0</ele>
        <time>2018-10-03T12:38:31.000Z</time>
      </trkpt>
      <trkpt lat="42.55833333" lon="-8.036145">
        <ele>841.0</ele>
        <time>2018-10-03T12:38:32.000Z</time>
      </trkpt>
      <trkpt lat="42.55833667" lon="-8.03615833">
        <ele>841.0</ele>
        <time>2018-10-03T12:38:33.000Z</time>
      </trkpt>
      <trkpt lat="42.55834667" lon="-8.036175">
        <ele>841.0</ele>
        <time>2018-10-03T12:38:34.000Z</time>
      </trkpt>
      <trkpt lat="42.55835667" lon="-8.03618667">
        <ele>841.0</ele>
        <time>2018-10-03T12:38:35.000Z</time>
      </trkpt>
      <trkpt lat="42.55837333" lon="-8.036195">
        <ele>841.0</ele>
        <time>2018-10-03T12:38:36.000Z</time>
      </trkpt>
      <trkpt lat="42.55839333" lon="-8.03620333">
        <ele>841.0</ele>
        <time>2018-10-03T12:38:37.000Z</time>
      </trkpt>
      <trkpt lat="42.55841333" lon="-8.03621167">
        <ele>841.0</ele>
        <time>2018-10-03T12:38:38.000Z</time>
      </trkpt>
      <trkpt lat="42.55842833" lon="-8.03622333">
        <ele>841.0</ele>
        <time>2018-10-03T12:38:39.000Z</time>
      </trkpt>
      <trkpt lat="42.55844" lon="-8.036235">
        <ele>841.0</ele>
        <time>2018-10-03T12:38:40.000Z</time>
      </trkpt>
      <trkpt lat="42.55844667" lon="-8.03624333">
        <ele>841.0</ele>
        <time>2018-10-03T12:38:41.000Z</time>
      </trkpt>
      <trkpt lat="42.558455" lon="-8.03625333">
        <ele>841.0</ele>
        <time>2018-10-03T12:38:42.000Z</time>
      </trkpt>
      <trkpt lat="42.55845833" lon="-8.03626">
        <ele>841.0</ele>
        <time>2018-10-03T12:38:43.000Z</time>
      </trkpt>
      <trkpt lat="42.55846333" lon="-8.036275">
        <ele>841.0</ele>
        <time>2018-10-03T12:38:44.000Z</time>
      </trkpt>
      <trkpt lat="42.558475" lon="-8.036295">
        <ele>841.0</ele>
        <time>2018-10-03T12:38:45.000Z</time>
      </trkpt>
      <trkpt lat="42.55849167" lon="-8.036315">
        <ele>841.0</ele>
        <time>2018-10-03T12:38:46.000Z</time>
      </trkpt>
      <trkpt lat="42.55850167" lon="-8.03633333">
        <ele>841.0</ele>
        <time>2018-10-03T12:38:47.000Z</time>
      </trkpt>
      <trkpt lat="42.55851167" lon="-8.036355">
        <ele>841.0</ele>
        <time>2018-10-03T12:38:48.000Z</time>
      </trkpt>
      <trkpt lat="42.55852667" lon="-8.03638">
        <ele>841.0</ele>
        <time>2018-10-03T12:38:49.000Z</time>
      </trkpt>
      <trkpt lat="42.55854167" lon="-8.036395">
        <ele>841.0</ele>
        <time>2018-10-03T12:38:50.000Z</time>
      </trkpt>
      <trkpt lat="42.55855333" lon="-8.03641">
        <ele>841.0</ele>
        <time>2018-10-03T12:38:51.000Z</time>
      </trkpt>
      <trkpt lat="42.558565" lon="-8.036425">
        <ele>841.0</ele>
        <time>2018-10-03T12:38:52.000Z</time>
      </trkpt>
      <trkpt lat="42.558575" lon="-8.03644">
        <ele>841.0</ele>
        <time>2018-10-03T12:38:53.000Z</time>
      </trkpt>
      <trkpt lat="42.55858667" lon="-8.03645333">
        <ele>841.0</ele>
        <time>2018-10-03T12:38:54.000Z</time>
      </trkpt>
      <trkpt lat="42.5586" lon="-8.03646833">
        <ele>841.0</ele>
        <time>2018-10-03T12:38:55.000Z</time>
      </trkpt>
      <trkpt lat="42.55860667" lon="-8.03648333">
        <ele>841.0</ele>
        <time>2018-10-03T12:38:56.000Z</time>
      </trkpt>
      <trkpt lat="42.55861" lon="-8.03649333">
        <ele>841.0</ele>
        <time>2018-10-03T12:38:57.000Z</time>
      </trkpt>
      <trkpt lat="42.558615" lon="-8.03650167">
        <ele>841.0</ele>
        <time>2018-10-03T12:38:58.000Z</time>
      </trkpt>
      <trkpt lat="42.55862333" lon="-8.03651167">
        <ele>841.0</ele>
        <time>2018-10-03T12:38:59.000Z</time>
      </trkpt>
      <trkpt lat="42.55863333" lon="-8.03652833">
        <ele>841.0</ele>
        <time>2018-10-03T12:39:00.000Z</time>
      </trkpt>
      <trkpt lat="42.55865333" lon="-8.03655167">
        <ele>842.0</ele>
        <time>2018-10-03T12:39:01.000Z</time>
      </trkpt>
      <trkpt lat="42.55868" lon="-8.03657667">
        <ele>842.0</ele>
        <time>2018-10-03T12:39:02.000Z</time>
      </trkpt>
      <trkpt lat="42.55870667" lon="-8.03660333">
        <ele>842.0</ele>
        <time>2018-10-03T12:39:03.000Z</time>
      </trkpt>
      <trkpt lat="42.55872833" lon="-8.03662667">
        <ele>842.0</ele>
        <time>2018-10-03T12:39:04.000Z</time>
      </trkpt>
      <trkpt lat="42.55874833" lon="-8.03664167">
        <ele>842.0</ele>
        <time>2018-10-03T12:39:05.000Z</time>
      </trkpt>
      <trkpt lat="42.55876167" lon="-8.036655">
        <ele>842.0</ele>
        <time>2018-10-03T12:39:06.000Z</time>
      </trkpt>
      <trkpt lat="42.55877167" lon="-8.03666667">
        <ele>842.0</ele>
        <time>2018-10-03T12:39:07.000Z</time>
      </trkpt>
      <trkpt lat="42.558775" lon="-8.03667667">
        <ele>842.0</ele>
        <time>2018-10-03T12:39:08.000Z</time>
      </trkpt>
      <trkpt lat="42.55877333" lon="-8.036685">
        <ele>842.0</ele>
        <time>2018-10-03T12:39:09.000Z</time>
      </trkpt>
      <trkpt lat="42.55877167" lon="-8.03669167">
        <ele>842.0</ele>
        <time>2018-10-03T12:39:10.000Z</time>
      </trkpt>
      <trkpt lat="42.55877333" lon="-8.0367">
        <ele>843.0</ele>
        <time>2018-10-03T12:39:11.000Z</time>
      </trkpt>
      <trkpt lat="42.55877833" lon="-8.03671">
        <ele>843.0</ele>
        <time>2018-10-03T12:39:12.000Z</time>
      </trkpt>
      <trkpt lat="42.558785" lon="-8.03672167">
        <ele>843.0</ele>
        <time>2018-10-03T12:39:13.000Z</time>
      </trkpt>
      <trkpt lat="42.55879833" lon="-8.03674">
        <ele>843.0</ele>
        <time>2018-10-03T12:39:14.000Z</time>
      </trkpt>
      <trkpt lat="42.558815" lon="-8.03676">
        <ele>843.0</ele>
        <time>2018-10-03T12:39:15.000Z</time>
      </trkpt>
      <trkpt lat="42.55883167" lon="-8.03677833">
        <ele>843.0</ele>
        <time>2018-10-03T12:39:16.000Z</time>
      </trkpt>
      <trkpt lat="42.558845" lon="-8.03679333">
        <ele>844.0</ele>
        <time>2018-10-03T12:39:17.000Z</time>
      </trkpt>
      <trkpt lat="42.55885667" lon="-8.03681167">
        <ele>844.0</ele>
        <time>2018-10-03T12:39:18.000Z</time>
      </trkpt>
      <trkpt lat="42.55886667" lon="-8.03682833">
        <ele>844.0</ele>
        <time>2018-10-03T12:39:19.000Z</time>
      </trkpt>
      <trkpt lat="42.55887333" lon="-8.03684167">
        <ele>844.0</ele>
        <time>2018-10-03T12:39:20.000Z</time>
      </trkpt>
      <trkpt lat="42.558875" lon="-8.03685">
        <ele>844.0</ele>
        <time>2018-10-03T12:39:21.000Z</time>
      </trkpt>
      <trkpt lat="42.55887833" lon="-8.03686167">
        <ele>844.0</ele>
        <time>2018-10-03T12:39:22.000Z</time>
      </trkpt>
      <trkpt lat="42.55888667" lon="-8.03687333">
        <ele>844.0</ele>
        <time>2018-10-03T12:39:23.000Z</time>
      </trkpt>
      <trkpt lat="42.55889667" lon="-8.03688833">
        <ele>844.0</ele>
        <time>2018-10-03T12:39:24.000Z</time>
      </trkpt>
      <trkpt lat="42.55891" lon="-8.03690333">
        <ele>844.0</ele>
        <time>2018-10-03T12:39:25.000Z</time>
      </trkpt>
      <trkpt lat="42.55892833" lon="-8.03692167">
        <ele>844.0</ele>
        <time>2018-10-03T12:39:26.000Z</time>
      </trkpt>
      <trkpt lat="42.55895333" lon="-8.03694">
        <ele>843.0</ele>
        <time>2018-10-03T12:39:27.000Z</time>
      </trkpt>
      <trkpt lat="42.55897167" lon="-8.03695333">
        <ele>843.0</ele>
        <time>2018-10-03T12:39:28.000Z</time>
      </trkpt>
      <trkpt lat="42.55898833" lon="-8.03696667">
        <ele>843.0</ele>
        <time>2018-10-03T12:39:29.000Z</time>
      </trkpt>
      <trkpt lat="42.55900167" lon="-8.03698">
        <ele>843.0</ele>
        <time>2018-10-03T12:39:30.000Z</time>
      </trkpt>
      <trkpt lat="42.55901333" lon="-8.03699167">
        <ele>843.0</ele>
        <time>2018-10-03T12:39:31.000Z</time>
      </trkpt>
      <trkpt lat="42.55902333" lon="-8.037">
        <ele>843.0</ele>
        <time>2018-10-03T12:39:32.000Z</time>
      </trkpt>
      <trkpt lat="42.55902833" lon="-8.03700667">
        <ele>843.0</ele>
        <time>2018-10-03T12:39:33.000Z</time>
      </trkpt>
      <trkpt lat="42.55903333" lon="-8.03701667">
        <ele>843.0</ele>
        <time>2018-10-03T12:39:34.000Z</time>
      </trkpt>
      <trkpt lat="42.55904333" lon="-8.03702667">
        <ele>842.0</ele>
        <time>2018-10-03T12:39:35.000Z</time>
      </trkpt>
      <trkpt lat="42.55905667" lon="-8.03703667">
        <ele>842.0</ele>
        <time>2018-10-03T12:39:36.000Z</time>
      </trkpt>
      <trkpt lat="42.55906833" lon="-8.03704833">
        <ele>842.0</ele>
        <time>2018-10-03T12:39:37.000Z</time>
      </trkpt>
      <trkpt lat="42.55908" lon="-8.03706333">
        <ele>842.0</ele>
        <time>2018-10-03T12:39:38.000Z</time>
      </trkpt>
      <trkpt lat="42.55909" lon="-8.03707833">
        <ele>842.0</ele>
        <time>2018-10-03T12:39:39.000Z</time>
      </trkpt>
      <trkpt lat="42.55910333" lon="-8.03709167">
        <ele>842.0</ele>
        <time>2018-10-03T12:39:40.000Z</time>
      </trkpt>
      <trkpt lat="42.55911667" lon="-8.03710333">
        <ele>842.0</ele>
        <time>2018-10-03T12:39:41.000Z</time>
      </trkpt>
      <trkpt lat="42.55913167" lon="-8.03711167">
        <ele>842.0</ele>
        <time>2018-10-03T12:39:42.000Z</time>
      </trkpt>
      <trkpt lat="42.55914667" lon="-8.03712167">
        <ele>842.0</ele>
        <time>2018-10-03T12:39:43.000Z</time>
      </trkpt>
      <trkpt lat="42.55916" lon="-8.03713167">
        <ele>842.0</ele>
        <time>2018-10-03T12:39:44.000Z</time>
      </trkpt>
      <trkpt lat="42.55917167" lon="-8.03713833">
        <ele>842.0</ele>
        <time>2018-10-03T12:39:45.000Z</time>
      </trkpt>
      <trkpt lat="42.55918667" lon="-8.03714167">
        <ele>842.0</ele>
        <time>2018-10-03T12:39:46.000Z</time>
      </trkpt>
      <trkpt lat="42.55920167" lon="-8.03714833">
        <ele>842.0</ele>
        <time>2018-10-03T12:39:47.000Z</time>
      </trkpt>
      <trkpt lat="42.559215" lon="-8.03716">
        <ele>842.0</ele>
        <time>2018-10-03T12:39:48.000Z</time>
      </trkpt>
      <trkpt lat="42.55922833" lon="-8.03717">
        <ele>842.0</ele>
        <time>2018-10-03T12:39:49.000Z</time>
      </trkpt>
      <trkpt lat="42.55924167" lon="-8.03718333">
        <ele>842.0</ele>
        <time>2018-10-03T12:39:50.000Z</time>
      </trkpt>
      <trkpt lat="42.559255" lon="-8.037195">
        <ele>842.0</ele>
        <time>2018-10-03T12:39:51.000Z</time>
      </trkpt>
      <trkpt lat="42.55926833" lon="-8.03720667">
        <ele>842.0</ele>
        <time>2018-10-03T12:39:52.000Z</time>
      </trkpt>
      <trkpt lat="42.55928333" lon="-8.03721667">
        <ele>842.0</ele>
        <time>2018-10-03T12:39:53.000Z</time>
      </trkpt>
      <trkpt lat="42.55929667" lon="-8.03722667">
        <ele>842.0</ele>
        <time>2018-10-03T12:39:54.000Z</time>
      </trkpt>
      <trkpt lat="42.55931167" lon="-8.03724333">
        <ele>841.0</ele>
        <time>2018-10-03T12:39:55.000Z</time>
      </trkpt>
      <trkpt lat="42.55932667" lon="-8.03726167">
        <ele>841.0</ele>
        <time>2018-10-03T12:39:56.000Z</time>
      </trkpt>
      <trkpt lat="42.55934" lon="-8.03727833">
        <ele>841.0</ele>
        <time>2018-10-03T12:39:57.000Z</time>
      </trkpt>
      <trkpt lat="42.55935" lon="-8.03729333">
        <ele>841.0</ele>
        <time>2018-10-03T12:39:58.000Z</time>
      </trkpt>
      <trkpt lat="42.559365" lon="-8.03729667">
        <ele>841.0</ele>
        <time>2018-10-03T12:39:59.000Z</time>
      </trkpt>
      <trkpt lat="42.55937333" lon="-8.03731167">
        <ele>841.0</ele>
        <time>2018-10-03T12:40:00.000Z</time>
      </trkpt>
      <trkpt lat="42.55938333" lon="-8.03732833">
        <ele>841.0</ele>
        <time>2018-10-03T12:40:01.000Z</time>
      </trkpt>
      <trkpt lat="42.55939167" lon="-8.037345">
        <ele>841.0</ele>
        <time>2018-10-03T12:40:02.000Z</time>
      </trkpt>
      <trkpt lat="42.55939833" lon="-8.03736333">
        <ele>841.0</ele>
        <time>2018-10-03T12:40:03.000Z</time>
      </trkpt>
      <trkpt lat="42.55940667" lon="-8.03738333">
        <ele>840.0</ele>
        <time>2018-10-03T12:40:04.000Z</time>
      </trkpt>
      <trkpt lat="42.55941333" lon="-8.03740333">
        <ele>840.0</ele>
        <time>2018-10-03T12:40:05.000Z</time>
      </trkpt>
      <trkpt lat="42.55942167" lon="-8.037425">
        <ele>840.0</ele>
        <time>2018-10-03T12:40:06.000Z</time>
      </trkpt>
      <trkpt lat="42.55943" lon="-8.03744333">
        <ele>840.0</ele>
        <time>2018-10-03T12:40:07.000Z</time>
      </trkpt>
      <trkpt lat="42.559435" lon="-8.037465">
        <ele>840.0</ele>
        <time>2018-10-03T12:40:08.000Z</time>
      </trkpt>
      <trkpt lat="42.55944333" lon="-8.037485">
        <ele>840.0</ele>
        <time>2018-10-03T12:40:09.000Z</time>
      </trkpt>
      <trkpt lat="42.55945167" lon="-8.03750667">
        <ele>840.0</ele>
        <time>2018-10-03T12:40:10.000Z</time>
      </trkpt>
      <trkpt lat="42.55946" lon="-8.037525">
        <ele>839.0</ele>
        <time>2018-10-03T12:40:11.000Z</time>
      </trkpt>
      <trkpt lat="42.559465" lon="-8.03754">
        <ele>839.0</ele>
        <time>2018-10-03T12:40:12.000Z</time>
      </trkpt>
      <trkpt lat="42.55946833" lon="-8.03755833">
        <ele>839.0</ele>
        <time>2018-10-03T12:40:13.000Z</time>
      </trkpt>
      <trkpt lat="42.55947" lon="-8.03758">
        <ele>839.0</ele>
        <time>2018-10-03T12:40:14.000Z</time>
      </trkpt>
      <trkpt lat="42.55947167" lon="-8.0376">
        <ele>839.0</ele>
        <time>2018-10-03T12:40:15.000Z</time>
      </trkpt>
      <trkpt lat="42.55947667" lon="-8.03761833">
        <ele>839.0</ele>
        <time>2018-10-03T12:40:16.000Z</time>
      </trkpt>
      <trkpt lat="42.55948167" lon="-8.03763833">
        <ele>839.0</ele>
        <time>2018-10-03T12:40:17.000Z</time>
      </trkpt>
      <trkpt lat="42.559485" lon="-8.03766167">
        <ele>839.0</ele>
        <time>2018-10-03T12:40:18.000Z</time>
      </trkpt>
      <trkpt lat="42.55948667" lon="-8.03768167">
        <ele>839.0</ele>
        <time>2018-10-03T12:40:19.000Z</time>
      </trkpt>
      <trkpt lat="42.55948667" lon="-8.03770333">
        <ele>839.0</ele>
        <time>2018-10-03T12:40:20.000Z</time>
      </trkpt>
      <trkpt lat="42.55948667" lon="-8.03772167">
        <ele>839.0</ele>
        <time>2018-10-03T12:40:21.000Z</time>
      </trkpt>
      <trkpt lat="42.55949" lon="-8.03774167">
        <ele>838.0</ele>
        <time>2018-10-03T12:40:22.000Z</time>
      </trkpt>
      <trkpt lat="42.55949" lon="-8.03776167">
        <ele>838.0</ele>
        <time>2018-10-03T12:40:23.000Z</time>
      </trkpt>
      <trkpt lat="42.55949167" lon="-8.03778">
        <ele>838.0</ele>
        <time>2018-10-03T12:40:24.000Z</time>
      </trkpt>
      <trkpt lat="42.55949167" lon="-8.03779667">
        <ele>838.0</ele>
        <time>2018-10-03T12:40:25.000Z</time>
      </trkpt>
      <trkpt lat="42.55949167" lon="-8.037815">
        <ele>838.0</ele>
        <time>2018-10-03T12:40:26.000Z</time>
      </trkpt>
      <trkpt lat="42.55949167" lon="-8.03783833">
        <ele>838.0</ele>
        <time>2018-10-03T12:40:27.000Z</time>
      </trkpt>
      <trkpt lat="42.55949333" lon="-8.03786667">
        <ele>838.0</ele>
        <time>2018-10-03T12:40:28.000Z</time>
      </trkpt>
      <trkpt lat="42.55949833" lon="-8.03789667">
        <ele>838.0</ele>
        <time>2018-10-03T12:40:29.000Z</time>
      </trkpt>
      <trkpt lat="42.55950333" lon="-8.03792833">
        <ele>838.0</ele>
        <time>2018-10-03T12:40:30.000Z</time>
      </trkpt>
      <trkpt lat="42.55951167" lon="-8.03795667">
        <ele>838.0</ele>
        <time>2018-10-03T12:40:31.000Z</time>
      </trkpt>
      <trkpt lat="42.55952167" lon="-8.03798333">
        <ele>838.0</ele>
        <time>2018-10-03T12:40:32.000Z</time>
      </trkpt>
      <trkpt lat="42.55953" lon="-8.038005">
        <ele>838.0</ele>
        <time>2018-10-03T12:40:33.000Z</time>
      </trkpt>
      <trkpt lat="42.55953667" lon="-8.03802167">
        <ele>838.0</ele>
        <time>2018-10-03T12:40:34.000Z</time>
      </trkpt>
      <trkpt lat="42.55954" lon="-8.03803833">
        <ele>838.0</ele>
        <time>2018-10-03T12:40:35.000Z</time>
      </trkpt>
      <trkpt lat="42.55954" lon="-8.03805">
        <ele>838.0</ele>
        <time>2018-10-03T12:40:36.000Z</time>
      </trkpt>
      <trkpt lat="42.55953667" lon="-8.03805667">
        <ele>838.0</ele>
        <time>2018-10-03T12:40:37.000Z</time>
      </trkpt>
      <trkpt lat="42.559535" lon="-8.03806333">
        <ele>838.0</ele>
        <time>2018-10-03T12:40:38.000Z</time>
      </trkpt>
      <trkpt lat="42.559535" lon="-8.03807833">
        <ele>838.0</ele>
        <time>2018-10-03T12:40:39.000Z</time>
      </trkpt>
      <trkpt lat="42.55953667" lon="-8.038095">
        <ele>838.0</ele>
        <time>2018-10-03T12:40:40.000Z</time>
      </trkpt>
      <trkpt lat="42.55954" lon="-8.03811667">
        <ele>838.0</ele>
        <time>2018-10-03T12:40:41.000Z</time>
      </trkpt>
      <trkpt lat="42.55954833" lon="-8.03813833">
        <ele>838.0</ele>
        <time>2018-10-03T12:40:42.000Z</time>
      </trkpt>
      <trkpt lat="42.55956" lon="-8.03817">
        <ele>838.0</ele>
        <time>2018-10-03T12:40:43.000Z</time>
      </trkpt>
      <trkpt lat="42.55956833" lon="-8.03820167">
        <ele>838.0</ele>
        <time>2018-10-03T12:40:44.000Z</time>
      </trkpt>
      <trkpt lat="42.55957667" lon="-8.03823">
        <ele>838.0</ele>
        <time>2018-10-03T12:40:45.000Z</time>
      </trkpt>
      <trkpt lat="42.55958167" lon="-8.03825333">
        <ele>839.0</ele>
        <time>2018-10-03T12:40:46.000Z</time>
      </trkpt>
      <trkpt lat="42.55958167" lon="-8.03827333">
        <ele>839.0</ele>
        <time>2018-10-03T12:40:47.000Z</time>
      </trkpt>
      <trkpt lat="42.55957833" lon="-8.03829167">
        <ele>839.0</ele>
        <time>2018-10-03T12:40:48.000Z</time>
      </trkpt>
      <trkpt lat="42.55957167" lon="-8.03831">
        <ele>839.0</ele>
        <time>2018-10-03T12:40:49.000Z</time>
      </trkpt>
      <trkpt lat="42.55956833" lon="-8.03832833">
        <ele>839.0</ele>
        <time>2018-10-03T12:40:50.000Z</time>
      </trkpt>
      <trkpt lat="42.55956833" lon="-8.03834833">
        <ele>838.0</ele>
        <time>2018-10-03T12:40:51.000Z</time>
      </trkpt>
      <trkpt lat="42.55957" lon="-8.038365">
        <ele>838.0</ele>
        <time>2018-10-03T12:40:52.000Z</time>
      </trkpt>
      <trkpt lat="42.559575" lon="-8.03838333">
        <ele>838.0</ele>
        <time>2018-10-03T12:40:53.000Z</time>
      </trkpt>
      <trkpt lat="42.55958333" lon="-8.038405">
        <ele>838.0</ele>
        <time>2018-10-03T12:40:54.000Z</time>
      </trkpt>
      <trkpt lat="42.55959" lon="-8.03843333">
        <ele>838.0</ele>
        <time>2018-10-03T12:40:55.000Z</time>
      </trkpt>
      <trkpt lat="42.55959333" lon="-8.03846">
        <ele>838.0</ele>
        <time>2018-10-03T12:40:56.000Z</time>
      </trkpt>
      <trkpt lat="42.55959667" lon="-8.038485">
        <ele>838.0</ele>
        <time>2018-10-03T12:40:57.000Z</time>
      </trkpt>
      <trkpt lat="42.55959833" lon="-8.03850833">
        <ele>839.0</ele>
        <time>2018-10-03T12:40:58.000Z</time>
      </trkpt>
      <trkpt lat="42.55959333" lon="-8.03853167">
        <ele>838.0</ele>
        <time>2018-10-03T12:40:59.000Z</time>
      </trkpt>
      <trkpt lat="42.559585" lon="-8.03855333">
        <ele>838.0</ele>
        <time>2018-10-03T12:41:00.000Z</time>
      </trkpt>
      <trkpt lat="42.55958" lon="-8.03857">
        <ele>838.0</ele>
        <time>2018-10-03T12:41:01.000Z</time>
      </trkpt>
      <trkpt lat="42.559575" lon="-8.03859">
        <ele>838.0</ele>
        <time>2018-10-03T12:41:02.000Z</time>
      </trkpt>
      <trkpt lat="42.559575" lon="-8.03861333">
        <ele>839.0</ele>
        <time>2018-10-03T12:41:03.000Z</time>
      </trkpt>
      <trkpt lat="42.559575" lon="-8.03864">
        <ele>839.0</ele>
        <time>2018-10-03T12:41:04.000Z</time>
      </trkpt>
      <trkpt lat="42.55957667" lon="-8.038665">
        <ele>839.0</ele>
        <time>2018-10-03T12:41:05.000Z</time>
      </trkpt>
      <trkpt lat="42.55958" lon="-8.03868833">
        <ele>839.0</ele>
        <time>2018-10-03T12:41:06.000Z</time>
      </trkpt>
      <trkpt lat="42.55958667" lon="-8.03871">
        <ele>839.0</ele>
        <time>2018-10-03T12:41:07.000Z</time>
      </trkpt>
      <trkpt lat="42.55959" lon="-8.03872833">
        <ele>839.0</ele>
        <time>2018-10-03T12:41:08.000Z</time>
      </trkpt>
      <trkpt lat="42.55959167" lon="-8.03874667">
        <ele>839.0</ele>
        <time>2018-10-03T12:41:09.000Z</time>
      </trkpt>
      <trkpt lat="42.55959333" lon="-8.03876167">
        <ele>839.0</ele>
        <time>2018-10-03T12:41:10.000Z</time>
      </trkpt>
      <trkpt lat="42.55959333" lon="-8.03877333">
        <ele>839.0</ele>
        <time>2018-10-03T12:41:11.000Z</time>
      </trkpt>
      <trkpt lat="42.55959667" lon="-8.03878333">
        <ele>839.0</ele>
        <time>2018-10-03T12:41:12.000Z</time>
      </trkpt>
      <trkpt lat="42.5596" lon="-8.03879667">
        <ele>839.0</ele>
        <time>2018-10-03T12:41:13.000Z</time>
      </trkpt>
      <trkpt lat="42.55960833" lon="-8.038815">
        <ele>839.0</ele>
        <time>2018-10-03T12:41:14.000Z</time>
      </trkpt>
      <trkpt lat="42.55961833" lon="-8.03883333">
        <ele>839.0</ele>
        <time>2018-10-03T12:41:15.000Z</time>
      </trkpt>
      <trkpt lat="42.55963167" lon="-8.03885833">
        <ele>839.0</ele>
        <time>2018-10-03T12:41:16.000Z</time>
      </trkpt>
      <trkpt lat="42.55964667" lon="-8.03888">
        <ele>839.0</ele>
        <time>2018-10-03T12:41:17.000Z</time>
      </trkpt>
      <trkpt lat="42.55966" lon="-8.0389">
        <ele>839.0</ele>
        <time>2018-10-03T12:41:18.000Z</time>
      </trkpt>
      <trkpt lat="42.55966833" lon="-8.03892167">
        <ele>839.0</ele>
        <time>2018-10-03T12:41:19.000Z</time>
      </trkpt>
      <trkpt lat="42.559675" lon="-8.03893833">
        <ele>839.0</ele>
        <time>2018-10-03T12:41:20.000Z</time>
      </trkpt>
      <trkpt lat="42.55967833" lon="-8.038955">
        <ele>840.0</ele>
        <time>2018-10-03T12:41:21.000Z</time>
      </trkpt>
      <trkpt lat="42.55967833" lon="-8.038965">
        <ele>840.0</ele>
        <time>2018-10-03T12:41:22.000Z</time>
      </trkpt>
      <trkpt lat="42.55968167" lon="-8.03898">
        <ele>840.0</ele>
        <time>2018-10-03T12:41:23.000Z</time>
      </trkpt>
      <trkpt lat="42.559685" lon="-8.03899167">
        <ele>840.0</ele>
        <time>2018-10-03T12:41:24.000Z</time>
      </trkpt>
      <trkpt lat="42.55968667" lon="-8.039">
        <ele>840.0</ele>
        <time>2018-10-03T12:41:25.000Z</time>
      </trkpt>
      <trkpt lat="42.55968833" lon="-8.03900167">
        <ele>840.0</ele>
        <time>2018-10-03T12:41:26.000Z</time>
      </trkpt>
      <trkpt lat="42.55968833" lon="-8.03900667">
        <ele>840.0</ele>
        <time>2018-10-03T12:41:27.000Z</time>
      </trkpt>
      <trkpt lat="42.55969" lon="-8.03901833">
        <ele>840.0</ele>
        <time>2018-10-03T12:41:28.000Z</time>
      </trkpt>
      <trkpt lat="42.559695" lon="-8.039035">
        <ele>840.0</ele>
        <time>2018-10-03T12:41:29.000Z</time>
      </trkpt>
      <trkpt lat="42.5597" lon="-8.03905167">
        <ele>841.0</ele>
        <time>2018-10-03T12:41:30.000Z</time>
      </trkpt>
      <trkpt lat="42.55970333" lon="-8.03907">
        <ele>841.0</ele>
        <time>2018-10-03T12:41:31.000Z</time>
      </trkpt>
      <trkpt lat="42.55970667" lon="-8.03908833">
        <ele>841.0</ele>
        <time>2018-10-03T12:41:32.000Z</time>
      </trkpt>
      <trkpt lat="42.55971167" lon="-8.03910667">
        <ele>841.0</ele>
        <time>2018-10-03T12:41:33.000Z</time>
      </trkpt>
      <trkpt lat="42.559715" lon="-8.039125">
        <ele>841.0</ele>
        <time>2018-10-03T12:41:34.000Z</time>
      </trkpt>
      <trkpt lat="42.55972167" lon="-8.03914333">
        <ele>841.0</ele>
        <time>2018-10-03T12:41:35.000Z</time>
      </trkpt>
      <trkpt lat="42.55972667" lon="-8.03916">
        <ele>841.0</ele>
        <time>2018-10-03T12:41:36.000Z</time>
      </trkpt>
      <trkpt lat="42.55973167" lon="-8.03917833">
        <ele>842.0</ele>
        <time>2018-10-03T12:41:37.000Z</time>
      </trkpt>
      <trkpt lat="42.55973667" lon="-8.03919667">
        <ele>842.0</ele>
        <time>2018-10-03T12:41:38.000Z</time>
      </trkpt>
      <trkpt lat="42.55974167" lon="-8.039215">
        <ele>842.0</ele>
        <time>2018-10-03T12:41:39.000Z</time>
      </trkpt>
      <trkpt lat="42.55974667" lon="-8.039235">
        <ele>842.0</ele>
        <time>2018-10-03T12:41:40.000Z</time>
      </trkpt>
      <trkpt lat="42.55975" lon="-8.039255">
        <ele>842.0</ele>
        <time>2018-10-03T12:41:41.000Z</time>
      </trkpt>
      <trkpt lat="42.55975333" lon="-8.03927667">
        <ele>842.0</ele>
        <time>2018-10-03T12:41:42.000Z</time>
      </trkpt>
      <trkpt lat="42.55975667" lon="-8.03929667">
        <ele>842.0</ele>
        <time>2018-10-03T12:41:43.000Z</time>
      </trkpt>
      <trkpt lat="42.55976" lon="-8.03932">
        <ele>842.0</ele>
        <time>2018-10-03T12:41:44.000Z</time>
      </trkpt>
      <trkpt lat="42.559765" lon="-8.03934167">
        <ele>842.0</ele>
        <time>2018-10-03T12:41:45.000Z</time>
      </trkpt>
      <trkpt lat="42.55977" lon="-8.03936">
        <ele>842.0</ele>
        <time>2018-10-03T12:41:46.000Z</time>
      </trkpt>
      <trkpt lat="42.559775" lon="-8.03937833">
        <ele>842.0</ele>
        <time>2018-10-03T12:41:47.000Z</time>
      </trkpt>
      <trkpt lat="42.55978" lon="-8.03939833">
        <ele>842.0</ele>
        <time>2018-10-03T12:41:48.000Z</time>
      </trkpt>
      <trkpt lat="42.55978833" lon="-8.03942">
        <ele>842.0</ele>
        <time>2018-10-03T12:41:49.000Z</time>
      </trkpt>
      <trkpt lat="42.55979333" lon="-8.03944167">
        <ele>842.0</ele>
        <time>2018-10-03T12:41:50.000Z</time>
      </trkpt>
      <trkpt lat="42.55980167" lon="-8.03946333">
        <ele>842.0</ele>
        <time>2018-10-03T12:41:51.000Z</time>
      </trkpt>
      <trkpt lat="42.55980833" lon="-8.03948167">
        <ele>842.0</ele>
        <time>2018-10-03T12:41:52.000Z</time>
      </trkpt>
      <trkpt lat="42.55980833" lon="-8.03949667">
        <ele>842.0</ele>
        <time>2018-10-03T12:41:53.000Z</time>
      </trkpt>
      <trkpt lat="42.559815" lon="-8.039515">
        <ele>843.0</ele>
        <time>2018-10-03T12:41:54.000Z</time>
      </trkpt>
      <trkpt lat="42.55982" lon="-8.03953333">
        <ele>843.0</ele>
        <time>2018-10-03T12:41:55.000Z</time>
      </trkpt>
      <trkpt lat="42.55982333" lon="-8.03955">
        <ele>843.0</ele>
        <time>2018-10-03T12:41:56.000Z</time>
      </trkpt>
      <trkpt lat="42.55982833" lon="-8.03956833">
        <ele>843.0</ele>
        <time>2018-10-03T12:41:57.000Z</time>
      </trkpt>
      <trkpt lat="42.55983333" lon="-8.03958667">
        <ele>843.0</ele>
        <time>2018-10-03T12:41:58.000Z</time>
      </trkpt>
      <trkpt lat="42.55983833" lon="-8.03960667">
        <ele>843.0</ele>
        <time>2018-10-03T12:41:59.000Z</time>
      </trkpt>
      <trkpt lat="42.55984333" lon="-8.03962667">
        <ele>843.0</ele>
        <time>2018-10-03T12:42:00.000Z</time>
      </trkpt>
      <trkpt lat="42.55984833" lon="-8.03964667">
        <ele>843.0</ele>
        <time>2018-10-03T12:42:01.000Z</time>
      </trkpt>
      <trkpt lat="42.559855" lon="-8.03966833">
        <ele>843.0</ele>
        <time>2018-10-03T12:42:02.000Z</time>
      </trkpt>
      <trkpt lat="42.55986" lon="-8.03968833">
        <ele>843.0</ele>
        <time>2018-10-03T12:42:03.000Z</time>
      </trkpt>
      <trkpt lat="42.559865" lon="-8.03971">
        <ele>843.0</ele>
        <time>2018-10-03T12:42:04.000Z</time>
      </trkpt>
      <trkpt lat="42.55986833" lon="-8.03973">
        <ele>843.0</ele>
        <time>2018-10-03T12:42:05.000Z</time>
      </trkpt>
      <trkpt lat="42.55987333" lon="-8.03975">
        <ele>843.0</ele>
        <time>2018-10-03T12:42:06.000Z</time>
      </trkpt>
      <trkpt lat="42.55987667" lon="-8.03977">
        <ele>843.0</ele>
        <time>2018-10-03T12:42:07.000Z</time>
      </trkpt>
      <trkpt lat="42.55987667" lon="-8.039785">
        <ele>843.0</ele>
        <time>2018-10-03T12:42:08.000Z</time>
      </trkpt>
      <trkpt lat="42.55987333" lon="-8.03979667">
        <ele>843.0</ele>
        <time>2018-10-03T12:42:09.000Z</time>
      </trkpt>
      <trkpt lat="42.55987333" lon="-8.03981333">
        <ele>843.0</ele>
        <time>2018-10-03T12:42:10.000Z</time>
      </trkpt>
      <trkpt lat="42.559875" lon="-8.039835">
        <ele>843.0</ele>
        <time>2018-10-03T12:42:11.000Z</time>
      </trkpt>
      <trkpt lat="42.55988" lon="-8.03985833">
        <ele>843.0</ele>
        <time>2018-10-03T12:42:12.000Z</time>
      </trkpt>
      <trkpt lat="42.55988833" lon="-8.03988667">
        <ele>843.0</ele>
        <time>2018-10-03T12:42:13.000Z</time>
      </trkpt>
      <trkpt lat="42.55989833" lon="-8.03991667">
        <ele>843.0</ele>
        <time>2018-10-03T12:42:14.000Z</time>
      </trkpt>
      <trkpt lat="42.55991" lon="-8.03994333">
        <ele>843.0</ele>
        <time>2018-10-03T12:42:15.000Z</time>
      </trkpt>
      <trkpt lat="42.55991833" lon="-8.03996667">
        <ele>843.0</ele>
        <time>2018-10-03T12:42:16.000Z</time>
      </trkpt>
      <trkpt lat="42.559925" lon="-8.03998833">
        <ele>843.0</ele>
        <time>2018-10-03T12:42:17.000Z</time>
      </trkpt>
      <trkpt lat="42.55993" lon="-8.04000667">
        <ele>843.0</ele>
        <time>2018-10-03T12:42:18.000Z</time>
      </trkpt>
      <trkpt lat="42.55993" lon="-8.04002167">
        <ele>843.0</ele>
        <time>2018-10-03T12:42:19.000Z</time>
      </trkpt>
      <trkpt lat="42.55993167" lon="-8.04003333">
        <ele>843.0</ele>
        <time>2018-10-03T12:42:20.000Z</time>
      </trkpt>
      <trkpt lat="42.55993167" lon="-8.040045">
        <ele>843.0</ele>
        <time>2018-10-03T12:42:21.000Z</time>
      </trkpt>
      <trkpt lat="42.55993167" lon="-8.04006">
        <ele>843.0</ele>
        <time>2018-10-03T12:42:22.000Z</time>
      </trkpt>
      <trkpt lat="42.55993333" lon="-8.04007833">
        <ele>843.0</ele>
        <time>2018-10-03T12:42:23.000Z</time>
      </trkpt>
      <trkpt lat="42.55993667" lon="-8.0401">
        <ele>843.0</ele>
        <time>2018-10-03T12:42:24.000Z</time>
      </trkpt>
      <trkpt lat="42.559945" lon="-8.04013">
        <ele>843.0</ele>
        <time>2018-10-03T12:42:25.000Z</time>
      </trkpt>
      <trkpt lat="42.559955" lon="-8.040155">
        <ele>843.0</ele>
        <time>2018-10-03T12:42:26.000Z</time>
      </trkpt>
      <trkpt lat="42.55996333" lon="-8.04018">
        <ele>843.0</ele>
        <time>2018-10-03T12:42:27.000Z</time>
      </trkpt>
      <trkpt lat="42.55997167" lon="-8.04020667">
        <ele>844.0</ele>
        <time>2018-10-03T12:42:28.000Z</time>
      </trkpt>
      <trkpt lat="42.55998167" lon="-8.04023">
        <ele>844.0</ele>
        <time>2018-10-03T12:42:29.000Z</time>
      </trkpt>
      <trkpt lat="42.55998833" lon="-8.04025333">
        <ele>844.0</ele>
        <time>2018-10-03T12:42:30.000Z</time>
      </trkpt>
      <trkpt lat="42.55999167" lon="-8.04027">
        <ele>844.0</ele>
        <time>2018-10-03T12:42:31.000Z</time>
      </trkpt>
      <trkpt lat="42.55999" lon="-8.040285">
        <ele>844.0</ele>
        <time>2018-10-03T12:42:32.000Z</time>
      </trkpt>
      <trkpt lat="42.55998667" lon="-8.040295">
        <ele>844.0</ele>
        <time>2018-10-03T12:42:33.000Z</time>
      </trkpt>
      <trkpt lat="42.55998167" lon="-8.04030333">
        <ele>844.0</ele>
        <time>2018-10-03T12:42:34.000Z</time>
      </trkpt>
      <trkpt lat="42.55997833" lon="-8.04031667">
        <ele>844.0</ele>
        <time>2018-10-03T12:42:35.000Z</time>
      </trkpt>
      <trkpt lat="42.55997667" lon="-8.04033">
        <ele>844.0</ele>
        <time>2018-10-03T12:42:36.000Z</time>
      </trkpt>
      <trkpt lat="42.55997667" lon="-8.04034833">
        <ele>844.0</ele>
        <time>2018-10-03T12:42:37.000Z</time>
      </trkpt>
      <trkpt lat="42.55998" lon="-8.04037333">
        <ele>844.0</ele>
        <time>2018-10-03T12:42:38.000Z</time>
      </trkpt>
      <trkpt lat="42.55998667" lon="-8.04040167">
        <ele>845.0</ele>
        <time>2018-10-03T12:42:39.000Z</time>
      </trkpt>
      <trkpt lat="42.55999667" lon="-8.040435">
        <ele>845.0</ele>
        <time>2018-10-03T12:42:40.000Z</time>
      </trkpt>
      <trkpt lat="42.56000833" lon="-8.04046833">
        <ele>845.0</ele>
        <time>2018-10-03T12:42:41.000Z</time>
      </trkpt>
      <trkpt lat="42.56001667" lon="-8.040495">
        <ele>845.0</ele>
        <time>2018-10-03T12:42:42.000Z</time>
      </trkpt>
      <trkpt lat="42.56002333" lon="-8.04052">
        <ele>845.0</ele>
        <time>2018-10-03T12:42:43.000Z</time>
      </trkpt>
      <trkpt lat="42.56002667" lon="-8.04054">
        <ele>845.0</ele>
        <time>2018-10-03T12:42:44.000Z</time>
      </trkpt>
      <trkpt lat="42.56002667" lon="-8.04055667">
        <ele>845.0</ele>
        <time>2018-10-03T12:42:45.000Z</time>
      </trkpt>
      <trkpt lat="42.56002333" lon="-8.04057">
        <ele>845.0</ele>
        <time>2018-10-03T12:42:46.000Z</time>
      </trkpt>
      <trkpt lat="42.56001667" lon="-8.04058167">
        <ele>845.0</ele>
        <time>2018-10-03T12:42:47.000Z</time>
      </trkpt>
      <trkpt lat="42.560015" lon="-8.040595">
        <ele>845.0</ele>
        <time>2018-10-03T12:42:48.000Z</time>
      </trkpt>
      <trkpt lat="42.560015" lon="-8.04061">
        <ele>845.0</ele>
        <time>2018-10-03T12:42:49.000Z</time>
      </trkpt>
      <trkpt lat="42.56001833" lon="-8.04063167">
        <ele>845.0</ele>
        <time>2018-10-03T12:42:50.000Z</time>
      </trkpt>
      <trkpt lat="42.56002667" lon="-8.040655">
        <ele>845.0</ele>
        <time>2018-10-03T12:42:51.000Z</time>
      </trkpt>
      <trkpt lat="42.56003833" lon="-8.04068">
        <ele>845.0</ele>
        <time>2018-10-03T12:42:52.000Z</time>
      </trkpt>
      <trkpt lat="42.56005333" lon="-8.04071">
        <ele>846.0</ele>
        <time>2018-10-03T12:42:53.000Z</time>
      </trkpt>
      <trkpt lat="42.560065" lon="-8.04074333">
        <ele>846.0</ele>
        <time>2018-10-03T12:42:54.000Z</time>
      </trkpt>
      <trkpt lat="42.56007667" lon="-8.04077">
        <ele>846.0</ele>
        <time>2018-10-03T12:42:55.000Z</time>
      </trkpt>
      <trkpt lat="42.560085" lon="-8.040795">
        <ele>846.0</ele>
        <time>2018-10-03T12:42:56.000Z</time>
      </trkpt>
      <trkpt lat="42.56009" lon="-8.040815">
        <ele>846.0</ele>
        <time>2018-10-03T12:42:57.000Z</time>
      </trkpt>
      <trkpt lat="42.560095" lon="-8.04083333">
        <ele>846.0</ele>
        <time>2018-10-03T12:42:58.000Z</time>
      </trkpt>
      <trkpt lat="42.56009667" lon="-8.04084833">
        <ele>845.0</ele>
        <time>2018-10-03T12:42:59.000Z</time>
      </trkpt>
      <trkpt lat="42.5601" lon="-8.040865">
        <ele>845.0</ele>
        <time>2018-10-03T12:43:00.000Z</time>
      </trkpt>
      <trkpt lat="42.560105" lon="-8.04088">
        <ele>845.0</ele>
        <time>2018-10-03T12:43:01.000Z</time>
      </trkpt>
      <trkpt lat="42.56010833" lon="-8.04089167">
        <ele>845.0</ele>
        <time>2018-10-03T12:43:02.000Z</time>
      </trkpt>
      <trkpt lat="42.56011" lon="-8.04090833">
        <ele>845.0</ele>
        <time>2018-10-03T12:43:03.000Z</time>
      </trkpt>
      <trkpt lat="42.56011333" lon="-8.040925">
        <ele>845.0</ele>
        <time>2018-10-03T12:43:04.000Z</time>
      </trkpt>
      <trkpt lat="42.56011667" lon="-8.04094333">
        <ele>845.0</ele>
        <time>2018-10-03T12:43:05.000Z</time>
      </trkpt>
      <trkpt lat="42.56011833" lon="-8.04096167">
        <ele>845.0</ele>
        <time>2018-10-03T12:43:06.000Z</time>
      </trkpt>
      <trkpt lat="42.56011833" lon="-8.04098167">
        <ele>846.0</ele>
        <time>2018-10-03T12:43:07.000Z</time>
      </trkpt>
      <trkpt lat="42.56011667" lon="-8.04100333">
        <ele>846.0</ele>
        <time>2018-10-03T12:43:08.000Z</time>
      </trkpt>
      <trkpt lat="42.56011333" lon="-8.04102833">
        <ele>846.0</ele>
        <time>2018-10-03T12:43:09.000Z</time>
      </trkpt>
      <trkpt lat="42.56011333" lon="-8.04104833">
        <ele>846.0</ele>
        <time>2018-10-03T12:43:10.000Z</time>
      </trkpt>
      <trkpt lat="42.560115" lon="-8.04106667">
        <ele>846.0</ele>
        <time>2018-10-03T12:43:11.000Z</time>
      </trkpt>
      <trkpt lat="42.56011667" lon="-8.04108833">
        <ele>846.0</ele>
        <time>2018-10-03T12:43:12.000Z</time>
      </trkpt>
      <trkpt lat="42.56011667" lon="-8.04110833">
        <ele>846.0</ele>
        <time>2018-10-03T12:43:13.000Z</time>
      </trkpt>
      <trkpt lat="42.56011667" lon="-8.04112833">
        <ele>846.0</ele>
        <time>2018-10-03T12:43:14.000Z</time>
      </trkpt>
      <trkpt lat="42.56011667" lon="-8.04114833">
        <ele>845.0</ele>
        <time>2018-10-03T12:43:15.000Z</time>
      </trkpt>
      <trkpt lat="42.56012" lon="-8.04116667">
        <ele>845.0</ele>
        <time>2018-10-03T12:43:16.000Z</time>
      </trkpt>
      <trkpt lat="42.560125" lon="-8.041185">
        <ele>845.0</ele>
        <time>2018-10-03T12:43:17.000Z</time>
      </trkpt>
      <trkpt lat="42.56013" lon="-8.04120167">
        <ele>846.0</ele>
        <time>2018-10-03T12:43:18.000Z</time>
      </trkpt>
      <trkpt lat="42.56013" lon="-8.04122167">
        <ele>845.0</ele>
        <time>2018-10-03T12:43:19.000Z</time>
      </trkpt>
      <trkpt lat="42.56013" lon="-8.04124167">
        <ele>845.0</ele>
        <time>2018-10-03T12:43:20.000Z</time>
      </trkpt>
      <trkpt lat="42.56013167" lon="-8.04126167">
        <ele>845.0</ele>
        <time>2018-10-03T12:43:21.000Z</time>
      </trkpt>
      <trkpt lat="42.56013167" lon="-8.04127833">
        <ele>845.0</ele>
        <time>2018-10-03T12:43:22.000Z</time>
      </trkpt>
      <trkpt lat="42.560135" lon="-8.041295">
        <ele>845.0</ele>
        <time>2018-10-03T12:43:23.000Z</time>
      </trkpt>
      <trkpt lat="42.56013833" lon="-8.04131833">
        <ele>845.0</ele>
        <time>2018-10-03T12:43:24.000Z</time>
      </trkpt>
      <trkpt lat="42.560145" lon="-8.041345">
        <ele>845.0</ele>
        <time>2018-10-03T12:43:25.000Z</time>
      </trkpt>
      <trkpt lat="42.56015167" lon="-8.04137167">
        <ele>845.0</ele>
        <time>2018-10-03T12:43:26.000Z</time>
      </trkpt>
      <trkpt lat="42.560155" lon="-8.041395">
        <ele>845.0</ele>
        <time>2018-10-03T12:43:27.000Z</time>
      </trkpt>
      <trkpt lat="42.56016" lon="-8.04141833">
        <ele>845.0</ele>
        <time>2018-10-03T12:43:28.000Z</time>
      </trkpt>
      <trkpt lat="42.56016333" lon="-8.04144333">
        <ele>845.0</ele>
        <time>2018-10-03T12:43:29.000Z</time>
      </trkpt>
      <trkpt lat="42.560165" lon="-8.041465">
        <ele>845.0</ele>
        <time>2018-10-03T12:43:30.000Z</time>
      </trkpt>
      <trkpt lat="42.56016667" lon="-8.04148833">
        <ele>845.0</ele>
        <time>2018-10-03T12:43:31.000Z</time>
      </trkpt>
      <trkpt lat="42.56016667" lon="-8.04150833">
        <ele>845.0</ele>
        <time>2018-10-03T12:43:32.000Z</time>
      </trkpt>
      <trkpt lat="42.56016667" lon="-8.04152333">
        <ele>845.0</ele>
        <time>2018-10-03T12:43:33.000Z</time>
      </trkpt>
      <trkpt lat="42.560165" lon="-8.04153667">
        <ele>845.0</ele>
        <time>2018-10-03T12:43:34.000Z</time>
      </trkpt>
      <trkpt lat="42.56016167" lon="-8.04155333">
        <ele>845.0</ele>
        <time>2018-10-03T12:43:35.000Z</time>
      </trkpt>
      <trkpt lat="42.56016167" lon="-8.04157667">
        <ele>845.0</ele>
        <time>2018-10-03T12:43:36.000Z</time>
      </trkpt>
      <trkpt lat="42.56016167" lon="-8.04160333">
        <ele>845.0</ele>
        <time>2018-10-03T12:43:37.000Z</time>
      </trkpt>
      <trkpt lat="42.56016333" lon="-8.041635">
        <ele>845.0</ele>
        <time>2018-10-03T12:43:38.000Z</time>
      </trkpt>
      <trkpt lat="42.56016833" lon="-8.04166667">
        <ele>845.0</ele>
        <time>2018-10-03T12:43:39.000Z</time>
      </trkpt>
      <trkpt lat="42.56017333" lon="-8.04169667">
        <ele>845.0</ele>
        <time>2018-10-03T12:43:40.000Z</time>
      </trkpt>
      <trkpt lat="42.56017667" lon="-8.04171833">
        <ele>845.0</ele>
        <time>2018-10-03T12:43:41.000Z</time>
      </trkpt>
      <trkpt lat="42.56018" lon="-8.04173833">
        <ele>845.0</ele>
        <time>2018-10-03T12:43:42.000Z</time>
      </trkpt>
      <trkpt lat="42.56018167" lon="-8.04175667">
        <ele>845.0</ele>
        <time>2018-10-03T12:43:43.000Z</time>
      </trkpt>
      <trkpt lat="42.56018" lon="-8.04176833">
        <ele>845.0</ele>
        <time>2018-10-03T12:43:44.000Z</time>
      </trkpt>
      <trkpt lat="42.56017833" lon="-8.04177667">
        <ele>845.0</ele>
        <time>2018-10-03T12:43:45.000Z</time>
      </trkpt>
      <trkpt lat="42.56017833" lon="-8.04179167">
        <ele>845.0</ele>
        <time>2018-10-03T12:43:46.000Z</time>
      </trkpt>
      <trkpt lat="42.56017833" lon="-8.04181">
        <ele>845.0</ele>
        <time>2018-10-03T12:43:47.000Z</time>
      </trkpt>
      <trkpt lat="42.56018167" lon="-8.041835">
        <ele>845.0</ele>
        <time>2018-10-03T12:43:48.000Z</time>
      </trkpt>
      <trkpt lat="42.56018833" lon="-8.04186667">
        <ele>845.0</ele>
        <time>2018-10-03T12:43:49.000Z</time>
      </trkpt>
      <trkpt lat="42.560195" lon="-8.0419">
        <ele>845.0</ele>
        <time>2018-10-03T12:43:50.000Z</time>
      </trkpt>
      <trkpt lat="42.5602" lon="-8.04192833">
        <ele>845.0</ele>
        <time>2018-10-03T12:43:51.000Z</time>
      </trkpt>
      <trkpt lat="42.56020333" lon="-8.04194833">
        <ele>845.0</ele>
        <time>2018-10-03T12:43:52.000Z</time>
      </trkpt>
      <trkpt lat="42.56020167" lon="-8.041965">
        <ele>845.0</ele>
        <time>2018-10-03T12:43:53.000Z</time>
      </trkpt>
      <trkpt lat="42.56019833" lon="-8.04198167">
        <ele>845.0</ele>
        <time>2018-10-03T12:43:54.000Z</time>
      </trkpt>
      <trkpt lat="42.56019667" lon="-8.04199667">
        <ele>845.0</ele>
        <time>2018-10-03T12:43:55.000Z</time>
      </trkpt>
      <trkpt lat="42.560195" lon="-8.04201">
        <ele>845.0</ele>
        <time>2018-10-03T12:43:56.000Z</time>
      </trkpt>
      <trkpt lat="42.560195" lon="-8.04202833">
        <ele>845.0</ele>
        <time>2018-10-03T12:43:57.000Z</time>
      </trkpt>
      <trkpt lat="42.56019333" lon="-8.042045">
        <ele>845.0</ele>
        <time>2018-10-03T12:43:58.000Z</time>
      </trkpt>
      <trkpt lat="42.560195" lon="-8.042065">
        <ele>846.0</ele>
        <time>2018-10-03T12:43:59.000Z</time>
      </trkpt>
      <trkpt lat="42.56019833" lon="-8.04208833">
        <ele>846.0</ele>
        <time>2018-10-03T12:44:00.000Z</time>
      </trkpt>
      <trkpt lat="42.560205" lon="-8.04211333">
        <ele>846.0</ele>
        <time>2018-10-03T12:44:01.000Z</time>
      </trkpt>
      <trkpt lat="42.56020833" lon="-8.04213833">
        <ele>846.0</ele>
        <time>2018-10-03T12:44:02.000Z</time>
      </trkpt>
      <trkpt lat="42.56021167" lon="-8.04216">
        <ele>846.0</ele>
        <time>2018-10-03T12:44:03.000Z</time>
      </trkpt>
      <trkpt lat="42.56021167" lon="-8.04217833">
        <ele>846.0</ele>
        <time>2018-10-03T12:44:04.000Z</time>
      </trkpt>
      <trkpt lat="42.56020667" lon="-8.04219167">
        <ele>846.0</ele>
        <time>2018-10-03T12:44:05.000Z</time>
      </trkpt>
      <trkpt lat="42.5602" lon="-8.04220167">
        <ele>846.0</ele>
        <time>2018-10-03T12:44:06.000Z</time>
      </trkpt>
      <trkpt lat="42.560195" lon="-8.04221333">
        <ele>846.0</ele>
        <time>2018-10-03T12:44:07.000Z</time>
      </trkpt>
      <trkpt lat="42.56019167" lon="-8.04222667">
        <ele>846.0</ele>
        <time>2018-10-03T12:44:08.000Z</time>
      </trkpt>
      <trkpt lat="42.56019167" lon="-8.04224667">
        <ele>846.0</ele>
        <time>2018-10-03T12:44:09.000Z</time>
      </trkpt>
      <trkpt lat="42.56019333" lon="-8.04226833">
        <ele>846.0</ele>
        <time>2018-10-03T12:44:10.000Z</time>
      </trkpt>
      <trkpt lat="42.56019333" lon="-8.04229167">
        <ele>846.0</ele>
        <time>2018-10-03T12:44:11.000Z</time>
      </trkpt>
      <trkpt lat="42.560195" lon="-8.04231333">
        <ele>846.0</ele>
        <time>2018-10-03T12:44:12.000Z</time>
      </trkpt>
      <trkpt lat="42.560195" lon="-8.04233667">
        <ele>846.0</ele>
        <time>2018-10-03T12:44:13.000Z</time>
      </trkpt>
      <trkpt lat="42.560195" lon="-8.04236">
        <ele>846.0</ele>
        <time>2018-10-03T12:44:14.000Z</time>
      </trkpt>
      <trkpt lat="42.56019333" lon="-8.04238">
        <ele>846.0</ele>
        <time>2018-10-03T12:44:15.000Z</time>
      </trkpt>
      <trkpt lat="42.56019333" lon="-8.0424">
        <ele>846.0</ele>
        <time>2018-10-03T12:44:16.000Z</time>
      </trkpt>
      <trkpt lat="42.56019167" lon="-8.04241667">
        <ele>846.0</ele>
        <time>2018-10-03T12:44:17.000Z</time>
      </trkpt>
      <trkpt lat="42.56019" lon="-8.04243333">
        <ele>846.0</ele>
        <time>2018-10-03T12:44:18.000Z</time>
      </trkpt>
      <trkpt lat="42.56019" lon="-8.042455">
        <ele>846.0</ele>
        <time>2018-10-03T12:44:19.000Z</time>
      </trkpt>
      <trkpt lat="42.56018833" lon="-8.04248167">
        <ele>846.0</ele>
        <time>2018-10-03T12:44:20.000Z</time>
      </trkpt>
      <trkpt lat="42.56019" lon="-8.042505">
        <ele>847.0</ele>
        <time>2018-10-03T12:44:21.000Z</time>
      </trkpt>
      <trkpt lat="42.56019167" lon="-8.04252667">
        <ele>847.0</ele>
        <time>2018-10-03T12:44:22.000Z</time>
      </trkpt>
      <trkpt lat="42.56019333" lon="-8.04255">
        <ele>847.0</ele>
        <time>2018-10-03T12:44:23.000Z</time>
      </trkpt>
      <trkpt lat="42.56019667" lon="-8.04257333">
        <ele>847.0</ele>
        <time>2018-10-03T12:44:24.000Z</time>
      </trkpt>
      <trkpt lat="42.56019833" lon="-8.04259833">
        <ele>848.0</ele>
        <time>2018-10-03T12:44:25.000Z</time>
      </trkpt>
      <trkpt lat="42.560195" lon="-8.04262">
        <ele>848.0</ele>
        <time>2018-10-03T12:44:26.000Z</time>
      </trkpt>
      <trkpt lat="42.56018833" lon="-8.04263833">
        <ele>848.0</ele>
        <time>2018-10-03T12:44:27.000Z</time>
      </trkpt>
      <trkpt lat="42.56018167" lon="-8.04265333">
        <ele>848.0</ele>
        <time>2018-10-03T12:44:28.000Z</time>
      </trkpt>
      <trkpt lat="42.56017333" lon="-8.04265667">
        <ele>848.0</ele>
        <time>2018-10-03T12:44:29.000Z</time>
      </trkpt>
      <trkpt lat="42.560165" lon="-8.04265667">
        <ele>848.0</ele>
        <time>2018-10-03T12:44:30.000Z</time>
      </trkpt>
      <trkpt lat="42.560155" lon="-8.042655">
        <ele>848.0</ele>
        <time>2018-10-03T12:44:31.000Z</time>
      </trkpt>
      <trkpt lat="42.56015" lon="-8.04266333">
        <ele>848.0</ele>
        <time>2018-10-03T12:44:32.000Z</time>
      </trkpt>
      <trkpt lat="42.56014667" lon="-8.04268">
        <ele>848.0</ele>
        <time>2018-10-03T12:44:33.000Z</time>
      </trkpt>
      <trkpt lat="42.56014333" lon="-8.04269833">
        <ele>848.0</ele>
        <time>2018-10-03T12:44:34.000Z</time>
      </trkpt>
      <trkpt lat="42.56013833" lon="-8.04271833">
        <ele>848.0</ele>
        <time>2018-10-03T12:44:35.000Z</time>
      </trkpt>
      <trkpt lat="42.560135" lon="-8.04273833">
        <ele>848.0</ele>
        <time>2018-10-03T12:44:36.000Z</time>
      </trkpt>
      <trkpt lat="42.56013167" lon="-8.04276167">
        <ele>848.0</ele>
        <time>2018-10-03T12:44:37.000Z</time>
      </trkpt>
      <trkpt lat="42.56013" lon="-8.04278333">
        <ele>848.0</ele>
        <time>2018-10-03T12:44:38.000Z</time>
      </trkpt>
      <trkpt lat="42.56013" lon="-8.042805">
        <ele>848.0</ele>
        <time>2018-10-03T12:44:39.000Z</time>
      </trkpt>
      <trkpt lat="42.56013" lon="-8.04282667">
        <ele>848.0</ele>
        <time>2018-10-03T12:44:40.000Z</time>
      </trkpt>
      <trkpt lat="42.56013" lon="-8.04284833">
        <ele>848.0</ele>
        <time>2018-10-03T12:44:41.000Z</time>
      </trkpt>
      <trkpt lat="42.56013" lon="-8.04287">
        <ele>849.0</ele>
        <time>2018-10-03T12:44:42.000Z</time>
      </trkpt>
      <trkpt lat="42.56013" lon="-8.04289167">
        <ele>849.0</ele>
        <time>2018-10-03T12:44:43.000Z</time>
      </trkpt>
      <trkpt lat="42.56013" lon="-8.04291333">
        <ele>849.0</ele>
        <time>2018-10-03T12:44:44.000Z</time>
      </trkpt>
      <trkpt lat="42.56013167" lon="-8.04293333">
        <ele>849.0</ele>
        <time>2018-10-03T12:44:45.000Z</time>
      </trkpt>
      <trkpt lat="42.56014333" lon="-8.04296333">
        <ele>849.0</ele>
        <time>2018-10-03T12:44:46.000Z</time>
      </trkpt>
      <trkpt lat="42.56015833" lon="-8.04299667">
        <ele>849.0</ele>
        <time>2018-10-03T12:44:47.000Z</time>
      </trkpt>
      <trkpt lat="42.56017167" lon="-8.04302667">
        <ele>849.0</ele>
        <time>2018-10-03T12:44:48.000Z</time>
      </trkpt>
      <trkpt lat="42.56017833" lon="-8.04305">
        <ele>849.0</ele>
        <time>2018-10-03T12:44:49.000Z</time>
      </trkpt>
      <trkpt lat="42.56017833" lon="-8.04307167">
        <ele>849.0</ele>
        <time>2018-10-03T12:44:50.000Z</time>
      </trkpt>
      <trkpt lat="42.56018" lon="-8.04309167">
        <ele>849.0</ele>
        <time>2018-10-03T12:44:51.000Z</time>
      </trkpt>
      <trkpt lat="42.56018333" lon="-8.04311167">
        <ele>849.0</ele>
        <time>2018-10-03T12:44:52.000Z</time>
      </trkpt>
      <trkpt lat="42.56018333" lon="-8.04312667">
        <ele>850.0</ele>
        <time>2018-10-03T12:44:53.000Z</time>
      </trkpt>
      <trkpt lat="42.56018" lon="-8.04313667">
        <ele>850.0</ele>
        <time>2018-10-03T12:44:54.000Z</time>
      </trkpt>
      <trkpt lat="42.560185" lon="-8.04315333">
        <ele>850.0</ele>
        <time>2018-10-03T12:44:55.000Z</time>
      </trkpt>
      <trkpt lat="42.56019" lon="-8.04317333">
        <ele>850.0</ele>
        <time>2018-10-03T12:44:56.000Z</time>
      </trkpt>
      <trkpt lat="42.56019333" lon="-8.04319333">
        <ele>850.0</ele>
        <time>2018-10-03T12:44:57.000Z</time>
      </trkpt>
      <trkpt lat="42.56019667" lon="-8.043215">
        <ele>850.0</ele>
        <time>2018-10-03T12:44:58.000Z</time>
      </trkpt>
      <trkpt lat="42.56020167" lon="-8.04323833">
        <ele>850.0</ele>
        <time>2018-10-03T12:44:59.000Z</time>
      </trkpt>
      <trkpt lat="42.56020333" lon="-8.04325833">
        <ele>851.0</ele>
        <time>2018-10-03T12:45:00.000Z</time>
      </trkpt>
      <trkpt lat="42.56020833" lon="-8.04327833">
        <ele>851.0</ele>
        <time>2018-10-03T12:45:01.000Z</time>
      </trkpt>
      <trkpt lat="42.56021167" lon="-8.0433">
        <ele>851.0</ele>
        <time>2018-10-03T12:45:02.000Z</time>
      </trkpt>
      <trkpt lat="42.56021667" lon="-8.04332167">
        <ele>851.0</ele>
        <time>2018-10-03T12:45:03.000Z</time>
      </trkpt>
      <trkpt lat="42.56022333" lon="-8.04334167">
        <ele>851.0</ele>
        <time>2018-10-03T12:45:04.000Z</time>
      </trkpt>
      <trkpt lat="42.56022833" lon="-8.04336333">
        <ele>851.0</ele>
        <time>2018-10-03T12:45:05.000Z</time>
      </trkpt>
      <trkpt lat="42.56023167" lon="-8.04338167">
        <ele>852.0</ele>
        <time>2018-10-03T12:45:06.000Z</time>
      </trkpt>
      <trkpt lat="42.560235" lon="-8.04340167">
        <ele>852.0</ele>
        <time>2018-10-03T12:45:07.000Z</time>
      </trkpt>
      <trkpt lat="42.560235" lon="-8.04342">
        <ele>852.0</ele>
        <time>2018-10-03T12:45:08.000Z</time>
      </trkpt>
      <trkpt lat="42.56023333" lon="-8.04343667">
        <ele>852.0</ele>
        <time>2018-10-03T12:45:09.000Z</time>
      </trkpt>
      <trkpt lat="42.56023" lon="-8.04345167">
        <ele>852.0</ele>
        <time>2018-10-03T12:45:10.000Z</time>
      </trkpt>
      <trkpt lat="42.56023" lon="-8.04346833">
        <ele>853.0</ele>
        <time>2018-10-03T12:45:11.000Z</time>
      </trkpt>
      <trkpt lat="42.56023167" lon="-8.04348667">
        <ele>853.0</ele>
        <time>2018-10-03T12:45:12.000Z</time>
      </trkpt>
      <trkpt lat="42.56023167" lon="-8.04350333">
        <ele>853.0</ele>
        <time>2018-10-03T12:45:13.000Z</time>
      </trkpt>
      <trkpt lat="42.56023167" lon="-8.04352">
        <ele>853.0</ele>
        <time>2018-10-03T12:45:14.000Z</time>
      </trkpt>
      <trkpt lat="42.56023167" lon="-8.04353833">
        <ele>853.0</ele>
        <time>2018-10-03T12:45:15.000Z</time>
      </trkpt>
      <trkpt lat="42.56023333" lon="-8.04355667">
        <ele>853.0</ele>
        <time>2018-10-03T12:45:16.000Z</time>
      </trkpt>
      <trkpt lat="42.56023667" lon="-8.04357667">
        <ele>853.0</ele>
        <time>2018-10-03T12:45:17.000Z</time>
      </trkpt>
      <trkpt lat="42.56024" lon="-8.04359833">
        <ele>853.0</ele>
        <time>2018-10-03T12:45:18.000Z</time>
      </trkpt>
      <trkpt lat="42.56024167" lon="-8.04362167">
        <ele>853.0</ele>
        <time>2018-10-03T12:45:19.000Z</time>
      </trkpt>
      <trkpt lat="42.56024333" lon="-8.04364167">
        <ele>853.0</ele>
        <time>2018-10-03T12:45:20.000Z</time>
      </trkpt>
      <trkpt lat="42.56024333" lon="-8.04366333">
        <ele>853.0</ele>
        <time>2018-10-03T12:45:21.000Z</time>
      </trkpt>
      <trkpt lat="42.560245" lon="-8.04368667">
        <ele>853.0</ele>
        <time>2018-10-03T12:45:22.000Z</time>
      </trkpt>
      <trkpt lat="42.56024667" lon="-8.04370667">
        <ele>853.0</ele>
        <time>2018-10-03T12:45:23.000Z</time>
      </trkpt>
      <trkpt lat="42.56024667" lon="-8.04372667">
        <ele>853.0</ele>
        <time>2018-10-03T12:45:24.000Z</time>
      </trkpt>
      <trkpt lat="42.56024833" lon="-8.04374833">
        <ele>852.0</ele>
        <time>2018-10-03T12:45:25.000Z</time>
      </trkpt>
      <trkpt lat="42.56025" lon="-8.04376833">
        <ele>852.0</ele>
        <time>2018-10-03T12:45:26.000Z</time>
      </trkpt>
      <trkpt lat="42.56025167" lon="-8.04378833">
        <ele>852.0</ele>
        <time>2018-10-03T12:45:27.000Z</time>
      </trkpt>
      <trkpt lat="42.56025333" lon="-8.04381">
        <ele>852.0</ele>
        <time>2018-10-03T12:45:28.000Z</time>
      </trkpt>
      <trkpt lat="42.560255" lon="-8.04383">
        <ele>853.0</ele>
        <time>2018-10-03T12:45:29.000Z</time>
      </trkpt>
      <trkpt lat="42.56025667" lon="-8.04385">
        <ele>853.0</ele>
        <time>2018-10-03T12:45:30.000Z</time>
      </trkpt>
      <trkpt lat="42.56026" lon="-8.04387167">
        <ele>853.0</ele>
        <time>2018-10-03T12:45:31.000Z</time>
      </trkpt>
      <trkpt lat="42.56026333" lon="-8.04389167">
        <ele>853.0</ele>
        <time>2018-10-03T12:45:32.000Z</time>
      </trkpt>
      <trkpt lat="42.56026833" lon="-8.04391">
        <ele>853.0</ele>
        <time>2018-10-03T12:45:33.000Z</time>
      </trkpt>
      <trkpt lat="42.560275" lon="-8.04393">
        <ele>853.0</ele>
        <time>2018-10-03T12:45:34.000Z</time>
      </trkpt>
      <trkpt lat="42.56028167" lon="-8.04394833">
        <ele>853.0</ele>
        <time>2018-10-03T12:45:35.000Z</time>
      </trkpt>
      <trkpt lat="42.56028667" lon="-8.04396833">
        <ele>853.0</ele>
        <time>2018-10-03T12:45:36.000Z</time>
      </trkpt>
      <trkpt lat="42.56029" lon="-8.04398833">
        <ele>853.0</ele>
        <time>2018-10-03T12:45:37.000Z</time>
      </trkpt>
      <trkpt lat="42.560295" lon="-8.04400833">
        <ele>853.0</ele>
        <time>2018-10-03T12:45:38.000Z</time>
      </trkpt>
      <trkpt lat="42.56029833" lon="-8.04403">
        <ele>853.0</ele>
        <time>2018-10-03T12:45:39.000Z</time>
      </trkpt>
      <trkpt lat="42.56030167" lon="-8.04405">
        <ele>853.0</ele>
        <time>2018-10-03T12:45:40.000Z</time>
      </trkpt>
      <trkpt lat="42.56030667" lon="-8.04406833">
        <ele>853.0</ele>
        <time>2018-10-03T12:45:41.000Z</time>
      </trkpt>
      <trkpt lat="42.56031167" lon="-8.04408833">
        <ele>853.0</ele>
        <time>2018-10-03T12:45:42.000Z</time>
      </trkpt>
      <trkpt lat="42.56031667" lon="-8.04410667">
        <ele>852.0</ele>
        <time>2018-10-03T12:45:43.000Z</time>
      </trkpt>
      <trkpt lat="42.56032167" lon="-8.04412667">
        <ele>853.0</ele>
        <time>2018-10-03T12:45:44.000Z</time>
      </trkpt>
      <trkpt lat="42.56032667" lon="-8.04414667">
        <ele>853.0</ele>
        <time>2018-10-03T12:45:45.000Z</time>
      </trkpt>
      <trkpt lat="42.56033167" lon="-8.04416667">
        <ele>853.0</ele>
        <time>2018-10-03T12:45:46.000Z</time>
      </trkpt>
      <trkpt lat="42.56033833" lon="-8.04418833">
        <ele>853.0</ele>
        <time>2018-10-03T12:45:47.000Z</time>
      </trkpt>
      <trkpt lat="42.560345" lon="-8.04420833">
        <ele>853.0</ele>
        <time>2018-10-03T12:45:48.000Z</time>
      </trkpt>
      <trkpt lat="42.56035167" lon="-8.04422667">
        <ele>853.0</ele>
        <time>2018-10-03T12:45:49.000Z</time>
      </trkpt>
      <trkpt lat="42.56035833" lon="-8.044245">
        <ele>853.0</ele>
        <time>2018-10-03T12:45:50.000Z</time>
      </trkpt>
      <trkpt lat="42.56036667" lon="-8.04426333">
        <ele>853.0</ele>
        <time>2018-10-03T12:45:51.000Z</time>
      </trkpt>
      <trkpt lat="42.56037333" lon="-8.04428">
        <ele>853.0</ele>
        <time>2018-10-03T12:45:52.000Z</time>
      </trkpt>
      <trkpt lat="42.56037833" lon="-8.04429833">
        <ele>853.0</ele>
        <time>2018-10-03T12:45:53.000Z</time>
      </trkpt>
      <trkpt lat="42.56038333" lon="-8.04431667">
        <ele>853.0</ele>
        <time>2018-10-03T12:45:54.000Z</time>
      </trkpt>
      <trkpt lat="42.56038667" lon="-8.04433667">
        <ele>853.0</ele>
        <time>2018-10-03T12:45:55.000Z</time>
      </trkpt>
      <trkpt lat="42.560395" lon="-8.04435333">
        <ele>853.0</ele>
        <time>2018-10-03T12:45:56.000Z</time>
      </trkpt>
      <trkpt lat="42.5604" lon="-8.04437167">
        <ele>853.0</ele>
        <time>2018-10-03T12:45:57.000Z</time>
      </trkpt>
      <trkpt lat="42.56040667" lon="-8.04439">
        <ele>853.0</ele>
        <time>2018-10-03T12:45:58.000Z</time>
      </trkpt>
      <trkpt lat="42.560415" lon="-8.04441167">
        <ele>853.0</ele>
        <time>2018-10-03T12:45:59.000Z</time>
      </trkpt>
      <trkpt lat="42.56042333" lon="-8.04443">
        <ele>853.0</ele>
        <time>2018-10-03T12:46:00.000Z</time>
      </trkpt>
      <trkpt lat="42.56042833" lon="-8.04444833">
        <ele>854.0</ele>
        <time>2018-10-03T12:46:01.000Z</time>
      </trkpt>
      <trkpt lat="42.560435" lon="-8.04447">
        <ele>854.0</ele>
        <time>2018-10-03T12:46:02.000Z</time>
      </trkpt>
      <trkpt lat="42.56044" lon="-8.04448833">
        <ele>854.0</ele>
        <time>2018-10-03T12:46:03.000Z</time>
      </trkpt>
      <trkpt lat="42.560445" lon="-8.04450667">
        <ele>854.0</ele>
        <time>2018-10-03T12:46:04.000Z</time>
      </trkpt>
      <trkpt lat="42.56045167" lon="-8.044525">
        <ele>854.0</ele>
        <time>2018-10-03T12:46:05.000Z</time>
      </trkpt>
      <trkpt lat="42.56045667" lon="-8.04454">
        <ele>854.0</ele>
        <time>2018-10-03T12:46:06.000Z</time>
      </trkpt>
      <trkpt lat="42.56046167" lon="-8.04455833">
        <ele>854.0</ele>
        <time>2018-10-03T12:46:07.000Z</time>
      </trkpt>
      <trkpt lat="42.56046667" lon="-8.04457833">
        <ele>854.0</ele>
        <time>2018-10-03T12:46:08.000Z</time>
      </trkpt>
      <trkpt lat="42.56047333" lon="-8.04459833">
        <ele>854.0</ele>
        <time>2018-10-03T12:46:09.000Z</time>
      </trkpt>
      <trkpt lat="42.56048" lon="-8.04462">
        <ele>854.0</ele>
        <time>2018-10-03T12:46:10.000Z</time>
      </trkpt>
      <trkpt lat="42.56048667" lon="-8.04464333">
        <ele>854.0</ele>
        <time>2018-10-03T12:46:11.000Z</time>
      </trkpt>
      <trkpt lat="42.560495" lon="-8.04466833">
        <ele>854.0</ele>
        <time>2018-10-03T12:46:12.000Z</time>
      </trkpt>
      <trkpt lat="42.56050167" lon="-8.04469333">
        <ele>854.0</ele>
        <time>2018-10-03T12:46:13.000Z</time>
      </trkpt>
      <trkpt lat="42.56050667" lon="-8.044715">
        <ele>854.0</ele>
        <time>2018-10-03T12:46:14.000Z</time>
      </trkpt>
      <trkpt lat="42.56051167" lon="-8.04473667">
        <ele>854.0</ele>
        <time>2018-10-03T12:46:15.000Z</time>
      </trkpt>
      <trkpt lat="42.560515" lon="-8.04475833">
        <ele>854.0</ele>
        <time>2018-10-03T12:46:16.000Z</time>
      </trkpt>
      <trkpt lat="42.56051833" lon="-8.04477833">
        <ele>854.0</ele>
        <time>2018-10-03T12:46:17.000Z</time>
      </trkpt>
      <trkpt lat="42.56052" lon="-8.04479833">
        <ele>854.0</ele>
        <time>2018-10-03T12:46:18.000Z</time>
      </trkpt>
      <trkpt lat="42.56052" lon="-8.04481833">
        <ele>855.0</ele>
        <time>2018-10-03T12:46:19.000Z</time>
      </trkpt>
      <trkpt lat="42.56052333" lon="-8.04484">
        <ele>855.0</ele>
        <time>2018-10-03T12:46:20.000Z</time>
      </trkpt>
      <trkpt lat="42.56052667" lon="-8.04486">
        <ele>855.0</ele>
        <time>2018-10-03T12:46:21.000Z</time>
      </trkpt>
      <trkpt lat="42.56053" lon="-8.04488167">
        <ele>855.0</ele>
        <time>2018-10-03T12:46:22.000Z</time>
      </trkpt>
      <trkpt lat="42.56053" lon="-8.04490333">
        <ele>855.0</ele>
        <time>2018-10-03T12:46:23.000Z</time>
      </trkpt>
      <trkpt lat="42.56052667" lon="-8.04492167">
        <ele>855.0</ele>
        <time>2018-10-03T12:46:24.000Z</time>
      </trkpt>
      <trkpt lat="42.560525" lon="-8.04494">
        <ele>855.0</ele>
        <time>2018-10-03T12:46:25.000Z</time>
      </trkpt>
      <trkpt lat="42.56052667" lon="-8.04496167">
        <ele>855.0</ele>
        <time>2018-10-03T12:46:26.000Z</time>
      </trkpt>
      <trkpt lat="42.56052667" lon="-8.044985">
        <ele>855.0</ele>
        <time>2018-10-03T12:46:27.000Z</time>
      </trkpt>
      <trkpt lat="42.56052833" lon="-8.045005">
        <ele>855.0</ele>
        <time>2018-10-03T12:46:28.000Z</time>
      </trkpt>
      <trkpt lat="42.56053" lon="-8.04502167">
        <ele>855.0</ele>
        <time>2018-10-03T12:46:29.000Z</time>
      </trkpt>
      <trkpt lat="42.56053333" lon="-8.04504333">
        <ele>855.0</ele>
        <time>2018-10-03T12:46:30.000Z</time>
      </trkpt>
      <trkpt lat="42.560535" lon="-8.04506333">
        <ele>855.0</ele>
        <time>2018-10-03T12:46:31.000Z</time>
      </trkpt>
      <trkpt lat="42.56053833" lon="-8.045085">
        <ele>855.0</ele>
        <time>2018-10-03T12:46:32.000Z</time>
      </trkpt>
      <trkpt lat="42.56054167" lon="-8.04510833">
        <ele>855.0</ele>
        <time>2018-10-03T12:46:33.000Z</time>
      </trkpt>
      <trkpt lat="42.56054667" lon="-8.04513">
        <ele>855.0</ele>
        <time>2018-10-03T12:46:34.000Z</time>
      </trkpt>
      <trkpt lat="42.56054833" lon="-8.04515">
        <ele>855.0</ele>
        <time>2018-10-03T12:46:35.000Z</time>
      </trkpt>
      <trkpt lat="42.56055" lon="-8.04517333">
        <ele>855.0</ele>
        <time>2018-10-03T12:46:36.000Z</time>
      </trkpt>
      <trkpt lat="42.56055333" lon="-8.04519333">
        <ele>855.0</ele>
        <time>2018-10-03T12:46:37.000Z</time>
      </trkpt>
      <trkpt lat="42.56055833" lon="-8.045215">
        <ele>855.0</ele>
        <time>2018-10-03T12:46:38.000Z</time>
      </trkpt>
      <trkpt lat="42.56056" lon="-8.04523833">
        <ele>855.0</ele>
        <time>2018-10-03T12:46:39.000Z</time>
      </trkpt>
      <trkpt lat="42.56056333" lon="-8.04526167">
        <ele>855.0</ele>
        <time>2018-10-03T12:46:40.000Z</time>
      </trkpt>
      <trkpt lat="42.56056667" lon="-8.045285">
        <ele>855.0</ele>
        <time>2018-10-03T12:46:41.000Z</time>
      </trkpt>
      <trkpt lat="42.56056833" lon="-8.04530667">
        <ele>855.0</ele>
        <time>2018-10-03T12:46:42.000Z</time>
      </trkpt>
      <trkpt lat="42.56057167" lon="-8.04532333">
        <ele>855.0</ele>
        <time>2018-10-03T12:46:43.000Z</time>
      </trkpt>
      <trkpt lat="42.560575" lon="-8.045335">
        <ele>855.0</ele>
        <time>2018-10-03T12:46:44.000Z</time>
      </trkpt>
      <trkpt lat="42.56057833" lon="-8.04534167">
        <ele>855.0</ele>
        <time>2018-10-03T12:46:45.000Z</time>
      </trkpt>
      <trkpt lat="42.56058167" lon="-8.04534333">
        <ele>855.0</ele>
        <time>2018-10-03T12:46:46.000Z</time>
      </trkpt>
      <trkpt lat="42.56058" lon="-8.04534333">
        <ele>855.0</ele>
        <time>2018-10-03T12:46:47.000Z</time>
      </trkpt>
      <trkpt lat="42.56058" lon="-8.04534167">
        <ele>855.0</ele>
        <time>2018-10-03T12:46:48.000Z</time>
      </trkpt>
      <trkpt lat="42.56058" lon="-8.04534">
        <ele>855.0</ele>
        <time>2018-10-03T12:46:49.000Z</time>
      </trkpt>
      <trkpt lat="42.56058" lon="-8.04534">
        <ele>855.0</ele>
        <time>2018-10-03T12:46:50.000Z</time>
      </trkpt>
      <trkpt lat="42.56058167" lon="-8.04534333">
        <ele>855.0</ele>
        <time>2018-10-03T12:46:51.000Z</time>
      </trkpt>
      <trkpt lat="42.56058333" lon="-8.04534167">
        <ele>855.0</ele>
        <time>2018-10-03T12:46:52.000Z</time>
      </trkpt>
      <trkpt lat="42.56058333" lon="-8.04534167">
        <ele>855.0</ele>
        <time>2018-10-03T12:46:53.000Z</time>
      </trkpt>
      <trkpt lat="42.56058333" lon="-8.04534">
        <ele>855.0</ele>
        <time>2018-10-03T12:46:54.000Z</time>
      </trkpt>
      <trkpt lat="42.56058333" lon="-8.04534">
        <ele>855.0</ele>
        <time>2018-10-03T12:46:55.000Z</time>
      </trkpt>
      <trkpt lat="42.560585" lon="-8.04534">
        <ele>855.0</ele>
        <time>2018-10-03T12:46:56.000Z</time>
      </trkpt>
      <trkpt lat="42.560585" lon="-8.04534">
        <ele>855.0</ele>
        <time>2018-10-03T12:46:57.000Z</time>
      </trkpt>
      <trkpt lat="42.560585" lon="-8.04533833">
        <ele>855.0</ele>
        <time>2018-10-03T12:46:58.000Z</time>
      </trkpt>
      <trkpt lat="42.560585" lon="-8.04533833">
        <ele>855.0</ele>
        <time>2018-10-03T12:46:59.000Z</time>
      </trkpt>
      <trkpt lat="42.560585" lon="-8.04533833">
        <ele>855.0</ele>
        <time>2018-10-03T12:47:00.000Z</time>
      </trkpt>
      <trkpt lat="42.560585" lon="-8.04533833">
        <ele>855.0</ele>
        <time>2018-10-03T12:47:01.000Z</time>
      </trkpt>
      <trkpt lat="42.560585" lon="-8.04533833">
        <ele>855.0</ele>
        <time>2018-10-03T12:47:02.000Z</time>
      </trkpt>
      <trkpt lat="42.56058833" lon="-8.04534167">
        <ele>855.0</ele>
        <time>2018-10-03T12:47:03.000Z</time>
      </trkpt>
      <trkpt lat="42.56059" lon="-8.04535">
        <ele>855.0</ele>
        <time>2018-10-03T12:47:04.000Z</time>
      </trkpt>
      <trkpt lat="42.56059333" lon="-8.04536">
        <ele>855.0</ele>
        <time>2018-10-03T12:47:05.000Z</time>
      </trkpt>
      <trkpt lat="42.5606" lon="-8.04537167">
        <ele>855.0</ele>
        <time>2018-10-03T12:47:06.000Z</time>
      </trkpt>
      <trkpt lat="42.56061" lon="-8.04538667">
        <ele>855.0</ele>
        <time>2018-10-03T12:47:07.000Z</time>
      </trkpt>
      <trkpt lat="42.56062333" lon="-8.04539833">
        <ele>855.0</ele>
        <time>2018-10-03T12:47:08.000Z</time>
      </trkpt>
      <trkpt lat="42.560635" lon="-8.04541167">
        <ele>855.0</ele>
        <time>2018-10-03T12:47:09.000Z</time>
      </trkpt>
      <trkpt lat="42.56064833" lon="-8.04541833">
        <ele>855.0</ele>
        <time>2018-10-03T12:47:10.000Z</time>
      </trkpt>
      <trkpt lat="42.56066" lon="-8.04542667">
        <ele>854.0</ele>
        <time>2018-10-03T12:47:11.000Z</time>
      </trkpt>
      <trkpt lat="42.56067333" lon="-8.04543167">
        <ele>854.0</ele>
        <time>2018-10-03T12:47:12.000Z</time>
      </trkpt>
      <trkpt lat="42.56068667" lon="-8.04543667">
        <ele>854.0</ele>
        <time>2018-10-03T12:47:13.000Z</time>
      </trkpt>
      <trkpt lat="42.56070167" lon="-8.04544167">
        <ele>854.0</ele>
        <time>2018-10-03T12:47:14.000Z</time>
      </trkpt>
      <trkpt lat="42.560715" lon="-8.04544667">
        <ele>854.0</ele>
        <time>2018-10-03T12:47:15.000Z</time>
      </trkpt>
      <trkpt lat="42.56072667" lon="-8.04544833">
        <ele>854.0</ele>
        <time>2018-10-03T12:47:16.000Z</time>
      </trkpt>
      <trkpt lat="42.56074167" lon="-8.04544833">
        <ele>853.0</ele>
        <time>2018-10-03T12:47:17.000Z</time>
      </trkpt>
      <trkpt lat="42.560755" lon="-8.04544667">
        <ele>853.0</ele>
        <time>2018-10-03T12:47:18.000Z</time>
      </trkpt>
      <trkpt lat="42.56077" lon="-8.04544333">
        <ele>853.0</ele>
        <time>2018-10-03T12:47:19.000Z</time>
      </trkpt>
      <trkpt lat="42.56078667" lon="-8.04544167">
        <ele>853.0</ele>
        <time>2018-10-03T12:47:20.000Z</time>
      </trkpt>
      <trkpt lat="42.5608" lon="-8.04544333">
        <ele>852.0</ele>
        <time>2018-10-03T12:47:21.000Z</time>
      </trkpt>
      <trkpt lat="42.560815" lon="-8.04544333">
        <ele>852.0</ele>
        <time>2018-10-03T12:47:22.000Z</time>
      </trkpt>
      <trkpt lat="42.56082833" lon="-8.045445">
        <ele>852.0</ele>
        <time>2018-10-03T12:47:23.000Z</time>
      </trkpt>
      <trkpt lat="42.56084167" lon="-8.04544833">
        <ele>852.0</ele>
        <time>2018-10-03T12:47:24.000Z</time>
      </trkpt>
      <trkpt lat="42.56085333" lon="-8.04545333">
        <ele>852.0</ele>
        <time>2018-10-03T12:47:25.000Z</time>
      </trkpt>
      <trkpt lat="42.560865" lon="-8.04545833">
        <ele>851.0</ele>
        <time>2018-10-03T12:47:26.000Z</time>
      </trkpt>
      <trkpt lat="42.56087333" lon="-8.045465">
        <ele>851.0</ele>
        <time>2018-10-03T12:47:27.000Z</time>
      </trkpt>
      <trkpt lat="42.56088" lon="-8.04547333">
        <ele>851.0</ele>
        <time>2018-10-03T12:47:28.000Z</time>
      </trkpt>
      <trkpt lat="42.56088833" lon="-8.04548167">
        <ele>851.0</ele>
        <time>2018-10-03T12:47:29.000Z</time>
      </trkpt>
      <trkpt lat="42.560895" lon="-8.04549333">
        <ele>851.0</ele>
        <time>2018-10-03T12:47:30.000Z</time>
      </trkpt>
      <trkpt lat="42.56090333" lon="-8.045505">
        <ele>851.0</ele>
        <time>2018-10-03T12:47:31.000Z</time>
      </trkpt>
      <trkpt lat="42.56091" lon="-8.04551667">
        <ele>850.0</ele>
        <time>2018-10-03T12:47:32.000Z</time>
      </trkpt>
      <trkpt lat="42.56091667" lon="-8.04553">
        <ele>850.0</ele>
        <time>2018-10-03T12:47:33.000Z</time>
      </trkpt>
      <trkpt lat="42.56092167" lon="-8.04554333">
        <ele>850.0</ele>
        <time>2018-10-03T12:47:34.000Z</time>
      </trkpt>
      <trkpt lat="42.56092667" lon="-8.045555">
        <ele>850.0</ele>
        <time>2018-10-03T12:47:35.000Z</time>
      </trkpt>
      <trkpt lat="42.56092833" lon="-8.04556833">
        <ele>850.0</ele>
        <time>2018-10-03T12:47:36.000Z</time>
      </trkpt>
      <trkpt lat="42.56093" lon="-8.045585">
        <ele>850.0</ele>
        <time>2018-10-03T12:47:37.000Z</time>
      </trkpt>
      <trkpt lat="42.56092667" lon="-8.0456">
        <ele>850.0</ele>
        <time>2018-10-03T12:47:38.000Z</time>
      </trkpt>
      <trkpt lat="42.56092667" lon="-8.04561833">
        <ele>850.0</ele>
        <time>2018-10-03T12:47:39.000Z</time>
      </trkpt>
      <trkpt lat="42.56092833" lon="-8.04563667">
        <ele>850.0</ele>
        <time>2018-10-03T12:47:40.000Z</time>
      </trkpt>
      <trkpt lat="42.56093167" lon="-8.045655">
        <ele>849.0</ele>
        <time>2018-10-03T12:47:41.000Z</time>
      </trkpt>
      <trkpt lat="42.560935" lon="-8.04567167">
        <ele>849.0</ele>
        <time>2018-10-03T12:47:42.000Z</time>
      </trkpt>
      <trkpt lat="42.560935" lon="-8.04568833">
        <ele>849.0</ele>
        <time>2018-10-03T12:47:43.000Z</time>
      </trkpt>
      <trkpt lat="42.56093833" lon="-8.045705">
        <ele>849.0</ele>
        <time>2018-10-03T12:47:44.000Z</time>
      </trkpt>
      <trkpt lat="42.56093833" lon="-8.04572">
        <ele>849.0</ele>
        <time>2018-10-03T12:47:45.000Z</time>
      </trkpt>
      <trkpt lat="42.56094" lon="-8.04573667">
        <ele>849.0</ele>
        <time>2018-10-03T12:47:46.000Z</time>
      </trkpt>
      <trkpt lat="42.56094167" lon="-8.04575167">
        <ele>849.0</ele>
        <time>2018-10-03T12:47:47.000Z</time>
      </trkpt>
      <trkpt lat="42.560945" lon="-8.04576667">
        <ele>849.0</ele>
        <time>2018-10-03T12:47:48.000Z</time>
      </trkpt>
      <trkpt lat="42.56094833" lon="-8.04578">
        <ele>848.0</ele>
        <time>2018-10-03T12:47:49.000Z</time>
      </trkpt>
      <trkpt lat="42.56094833" lon="-8.045795">
        <ele>848.0</ele>
        <time>2018-10-03T12:47:50.000Z</time>
      </trkpt>
      <trkpt lat="42.56095167" lon="-8.04581">
        <ele>848.0</ele>
        <time>2018-10-03T12:47:51.000Z</time>
      </trkpt>
      <trkpt lat="42.56095667" lon="-8.04582667">
        <ele>848.0</ele>
        <time>2018-10-03T12:47:52.000Z</time>
      </trkpt>
      <trkpt lat="42.56095833" lon="-8.04584">
        <ele>848.0</ele>
        <time>2018-10-03T12:47:53.000Z</time>
      </trkpt>
      <trkpt lat="42.56096" lon="-8.045855">
        <ele>847.0</ele>
        <time>2018-10-03T12:47:54.000Z</time>
      </trkpt>
      <trkpt lat="42.560965" lon="-8.04587167">
        <ele>847.0</ele>
        <time>2018-10-03T12:47:55.000Z</time>
      </trkpt>
      <trkpt lat="42.56096833" lon="-8.04588667">
        <ele>847.0</ele>
        <time>2018-10-03T12:47:56.000Z</time>
      </trkpt>
      <trkpt lat="42.56097167" lon="-8.045905">
        <ele>847.0</ele>
        <time>2018-10-03T12:47:57.000Z</time>
      </trkpt>
      <trkpt lat="42.56097667" lon="-8.045925">
        <ele>846.0</ele>
        <time>2018-10-03T12:47:58.000Z</time>
      </trkpt>
      <trkpt lat="42.56098167" lon="-8.04594167">
        <ele>846.0</ele>
        <time>2018-10-03T12:47:59.000Z</time>
      </trkpt>
      <trkpt lat="42.56098667" lon="-8.04596">
        <ele>846.0</ele>
        <time>2018-10-03T12:48:00.000Z</time>
      </trkpt>
      <trkpt lat="42.56099167" lon="-8.04597667">
        <ele>846.0</ele>
        <time>2018-10-03T12:48:01.000Z</time>
      </trkpt>
      <trkpt lat="42.56099667" lon="-8.045995">
        <ele>845.0</ele>
        <time>2018-10-03T12:48:02.000Z</time>
      </trkpt>
      <trkpt lat="42.56099833" lon="-8.04601167">
        <ele>845.0</ele>
        <time>2018-10-03T12:48:03.000Z</time>
      </trkpt>
      <trkpt lat="42.56100167" lon="-8.04602833">
        <ele>845.0</ele>
        <time>2018-10-03T12:48:04.000Z</time>
      </trkpt>
      <trkpt lat="42.561005" lon="-8.04604667">
        <ele>845.0</ele>
        <time>2018-10-03T12:48:05.000Z</time>
      </trkpt>
      <trkpt lat="42.56100667" lon="-8.046065">
        <ele>844.0</ele>
        <time>2018-10-03T12:48:06.000Z</time>
      </trkpt>
      <trkpt lat="42.56101" lon="-8.04608167">
        <ele>844.0</ele>
        <time>2018-10-03T12:48:07.000Z</time>
      </trkpt>
      <trkpt lat="42.56101333" lon="-8.0461">
        <ele>844.0</ele>
        <time>2018-10-03T12:48:08.000Z</time>
      </trkpt>
      <trkpt lat="42.56101667" lon="-8.04612">
        <ele>843.0</ele>
        <time>2018-10-03T12:48:09.000Z</time>
      </trkpt>
      <trkpt lat="42.56101667" lon="-8.04613667">
        <ele>843.0</ele>
        <time>2018-10-03T12:48:10.000Z</time>
      </trkpt>
      <trkpt lat="42.56102" lon="-8.04615">
        <ele>843.0</ele>
        <time>2018-10-03T12:48:11.000Z</time>
      </trkpt>
      <trkpt lat="42.561025" lon="-8.04616667">
        <ele>843.0</ele>
        <time>2018-10-03T12:48:12.000Z</time>
      </trkpt>
      <trkpt lat="42.56103" lon="-8.04618333">
        <ele>843.0</ele>
        <time>2018-10-03T12:48:13.000Z</time>
      </trkpt>
      <trkpt lat="42.56103333" lon="-8.0462">
        <ele>842.0</ele>
        <time>2018-10-03T12:48:14.000Z</time>
      </trkpt>
      <trkpt lat="42.56103833" lon="-8.04621833">
        <ele>842.0</ele>
        <time>2018-10-03T12:48:15.000Z</time>
      </trkpt>
      <trkpt lat="42.56104167" lon="-8.04623667">
        <ele>842.0</ele>
        <time>2018-10-03T12:48:16.000Z</time>
      </trkpt>
      <trkpt lat="42.56104333" lon="-8.04625667">
        <ele>842.0</ele>
        <time>2018-10-03T12:48:17.000Z</time>
      </trkpt>
      <trkpt lat="42.56104667" lon="-8.046275">
        <ele>841.0</ele>
        <time>2018-10-03T12:48:18.000Z</time>
      </trkpt>
      <trkpt lat="42.56104833" lon="-8.04629167">
        <ele>841.0</ele>
        <time>2018-10-03T12:48:19.000Z</time>
      </trkpt>
      <trkpt lat="42.56104667" lon="-8.04630667">
        <ele>841.0</ele>
        <time>2018-10-03T12:48:20.000Z</time>
      </trkpt>
      <trkpt lat="42.56104833" lon="-8.04632">
        <ele>840.0</ele>
        <time>2018-10-03T12:48:21.000Z</time>
      </trkpt>
      <trkpt lat="42.56105167" lon="-8.04633667">
        <ele>840.0</ele>
        <time>2018-10-03T12:48:22.000Z</time>
      </trkpt>
      <trkpt lat="42.56105667" lon="-8.04635333">
        <ele>840.0</ele>
        <time>2018-10-03T12:48:23.000Z</time>
      </trkpt>
      <trkpt lat="42.56106" lon="-8.04636833">
        <ele>839.0</ele>
        <time>2018-10-03T12:48:24.000Z</time>
      </trkpt>
      <trkpt lat="42.56106333" lon="-8.046385">
        <ele>839.0</ele>
        <time>2018-10-03T12:48:25.000Z</time>
      </trkpt>
      <trkpt lat="42.56106833" lon="-8.04639667">
        <ele>839.0</ele>
        <time>2018-10-03T12:48:26.000Z</time>
      </trkpt>
      <trkpt lat="42.56107333" lon="-8.04641">
        <ele>838.0</ele>
        <time>2018-10-03T12:48:27.000Z</time>
      </trkpt>
      <trkpt lat="42.561075" lon="-8.046425">
        <ele>838.0</ele>
        <time>2018-10-03T12:48:28.000Z</time>
      </trkpt>
      <trkpt lat="42.56108" lon="-8.04644">
        <ele>838.0</ele>
        <time>2018-10-03T12:48:29.000Z</time>
      </trkpt>
      <trkpt lat="42.56108167" lon="-8.04645333">
        <ele>838.0</ele>
        <time>2018-10-03T12:48:30.000Z</time>
      </trkpt>
      <trkpt lat="42.561085" lon="-8.04646833">
        <ele>837.0</ele>
        <time>2018-10-03T12:48:31.000Z</time>
      </trkpt>
      <trkpt lat="42.56108833" lon="-8.04648167">
        <ele>837.0</ele>
        <time>2018-10-03T12:48:32.000Z</time>
      </trkpt>
      <trkpt lat="42.56109167" lon="-8.04649833">
        <ele>837.0</ele>
        <time>2018-10-03T12:48:33.000Z</time>
      </trkpt>
      <trkpt lat="42.561095" lon="-8.04651667">
        <ele>836.0</ele>
        <time>2018-10-03T12:48:34.000Z</time>
      </trkpt>
      <trkpt lat="42.56109833" lon="-8.04653167">
        <ele>836.0</ele>
        <time>2018-10-03T12:48:35.000Z</time>
      </trkpt>
      <trkpt lat="42.56110333" lon="-8.04654833">
        <ele>836.0</ele>
        <time>2018-10-03T12:48:36.000Z</time>
      </trkpt>
      <trkpt lat="42.56110833" lon="-8.046565">
        <ele>836.0</ele>
        <time>2018-10-03T12:48:37.000Z</time>
      </trkpt>
      <trkpt lat="42.561115" lon="-8.04658167">
        <ele>836.0</ele>
        <time>2018-10-03T12:48:38.000Z</time>
      </trkpt>
      <trkpt lat="42.56112167" lon="-8.04659833">
        <ele>835.0</ele>
        <time>2018-10-03T12:48:39.000Z</time>
      </trkpt>
      <trkpt lat="42.56113" lon="-8.046615">
        <ele>835.0</ele>
        <time>2018-10-03T12:48:40.000Z</time>
      </trkpt>
      <trkpt lat="42.56113833" lon="-8.04662833">
        <ele>835.0</ele>
        <time>2018-10-03T12:48:41.000Z</time>
      </trkpt>
      <trkpt lat="42.56114667" lon="-8.04664333">
        <ele>835.0</ele>
        <time>2018-10-03T12:48:42.000Z</time>
      </trkpt>
      <trkpt lat="42.561155" lon="-8.04666">
        <ele>835.0</ele>
        <time>2018-10-03T12:48:43.000Z</time>
      </trkpt>
      <trkpt lat="42.56116667" lon="-8.04667333">
        <ele>835.0</ele>
        <time>2018-10-03T12:48:44.000Z</time>
      </trkpt>
      <trkpt lat="42.56118" lon="-8.046685">
        <ele>835.0</ele>
        <time>2018-10-03T12:48:45.000Z</time>
      </trkpt>
      <trkpt lat="42.56119167" lon="-8.046695">
        <ele>835.0</ele>
        <time>2018-10-03T12:48:46.000Z</time>
      </trkpt>
      <trkpt lat="42.56120333" lon="-8.0467">
        <ele>835.0</ele>
        <time>2018-10-03T12:48:47.000Z</time>
      </trkpt>
      <trkpt lat="42.561215" lon="-8.0467">
        <ele>834.0</ele>
        <time>2018-10-03T12:48:48.000Z</time>
      </trkpt>
      <trkpt lat="42.56122833" lon="-8.04669833">
        <ele>834.0</ele>
        <time>2018-10-03T12:48:49.000Z</time>
      </trkpt>
      <trkpt lat="42.56124167" lon="-8.04669667">
        <ele>834.0</ele>
        <time>2018-10-03T12:48:50.000Z</time>
      </trkpt>
      <trkpt lat="42.56125667" lon="-8.04669333">
        <ele>834.0</ele>
        <time>2018-10-03T12:48:51.000Z</time>
      </trkpt>
      <trkpt lat="42.56127167" lon="-8.04669">
        <ele>833.0</ele>
        <time>2018-10-03T12:48:52.000Z</time>
      </trkpt>
      <trkpt lat="42.56128667" lon="-8.04668833">
        <ele>833.0</ele>
        <time>2018-10-03T12:48:53.000Z</time>
      </trkpt>
      <trkpt lat="42.56130167" lon="-8.04668833">
        <ele>833.0</ele>
        <time>2018-10-03T12:48:54.000Z</time>
      </trkpt>
      <trkpt lat="42.56131833" lon="-8.04668667">
        <ele>833.0</ele>
        <time>2018-10-03T12:48:55.000Z</time>
      </trkpt>
      <trkpt lat="42.561335" lon="-8.04668833">
        <ele>833.0</ele>
        <time>2018-10-03T12:48:56.000Z</time>
      </trkpt>
      <trkpt lat="42.56135167" lon="-8.04668667">
        <ele>832.0</ele>
        <time>2018-10-03T12:48:57.000Z</time>
      </trkpt>
      <trkpt lat="42.56136833" lon="-8.046685">
        <ele>832.0</ele>
        <time>2018-10-03T12:48:58.000Z</time>
      </trkpt>
      <trkpt lat="42.561385" lon="-8.04668333">
        <ele>832.0</ele>
        <time>2018-10-03T12:48:59.000Z</time>
      </trkpt>
      <trkpt lat="42.5614" lon="-8.04668">
        <ele>832.0</ele>
        <time>2018-10-03T12:49:00.000Z</time>
      </trkpt>
      <trkpt lat="42.561415" lon="-8.04667333">
        <ele>832.0</ele>
        <time>2018-10-03T12:49:01.000Z</time>
      </trkpt>
      <trkpt lat="42.56143" lon="-8.04666833">
        <ele>832.0</ele>
        <time>2018-10-03T12:49:02.000Z</time>
      </trkpt>
      <trkpt lat="42.56144167" lon="-8.04666">
        <ele>832.0</ele>
        <time>2018-10-03T12:49:03.000Z</time>
      </trkpt>
      <trkpt lat="42.56145833" lon="-8.04665667">
        <ele>832.0</ele>
        <time>2018-10-03T12:49:04.000Z</time>
      </trkpt>
      <trkpt lat="42.56147333" lon="-8.046655">
        <ele>832.0</ele>
        <time>2018-10-03T12:49:05.000Z</time>
      </trkpt>
      <trkpt lat="42.56148833" lon="-8.04665333">
        <ele>832.0</ele>
        <time>2018-10-03T12:49:06.000Z</time>
      </trkpt>
      <trkpt lat="42.56150167" lon="-8.04665167">
        <ele>832.0</ele>
        <time>2018-10-03T12:49:07.000Z</time>
      </trkpt>
      <trkpt lat="42.56151667" lon="-8.04664833">
        <ele>832.0</ele>
        <time>2018-10-03T12:49:08.000Z</time>
      </trkpt>
      <trkpt lat="42.56153167" lon="-8.04664333">
        <ele>832.0</ele>
        <time>2018-10-03T12:49:09.000Z</time>
      </trkpt>
      <trkpt lat="42.56154667" lon="-8.04663833">
        <ele>832.0</ele>
        <time>2018-10-03T12:49:10.000Z</time>
      </trkpt>
      <trkpt lat="42.56156167" lon="-8.04663">
        <ele>832.0</ele>
        <time>2018-10-03T12:49:11.000Z</time>
      </trkpt>
      <trkpt lat="42.56157667" lon="-8.046625">
        <ele>831.0</ele>
        <time>2018-10-03T12:49:12.000Z</time>
      </trkpt>
      <trkpt lat="42.56159333" lon="-8.04662">
        <ele>831.0</ele>
        <time>2018-10-03T12:49:13.000Z</time>
      </trkpt>
      <trkpt lat="42.56160833" lon="-8.04661333">
        <ele>831.0</ele>
        <time>2018-10-03T12:49:14.000Z</time>
      </trkpt>
      <trkpt lat="42.56162333" lon="-8.04660667">
        <ele>831.0</ele>
        <time>2018-10-03T12:49:15.000Z</time>
      </trkpt>
      <trkpt lat="42.56163833" lon="-8.0466">
        <ele>830.0</ele>
        <time>2018-10-03T12:49:16.000Z</time>
      </trkpt>
      <trkpt lat="42.561655" lon="-8.04659667">
        <ele>830.0</ele>
        <time>2018-10-03T12:49:17.000Z</time>
      </trkpt>
      <trkpt lat="42.56167" lon="-8.04659333">
        <ele>830.0</ele>
        <time>2018-10-03T12:49:18.000Z</time>
      </trkpt>
      <trkpt lat="42.56168333" lon="-8.04658833">
        <ele>830.0</ele>
        <time>2018-10-03T12:49:19.000Z</time>
      </trkpt>
      <trkpt lat="42.5617" lon="-8.04658167">
        <ele>830.0</ele>
        <time>2018-10-03T12:49:20.000Z</time>
      </trkpt>
      <trkpt lat="42.56171667" lon="-8.046575">
        <ele>830.0</ele>
        <time>2018-10-03T12:49:21.000Z</time>
      </trkpt>
      <trkpt lat="42.56173167" lon="-8.04657167">
        <ele>830.0</ele>
        <time>2018-10-03T12:49:22.000Z</time>
      </trkpt>
      <trkpt lat="42.56174667" lon="-8.04657">
        <ele>829.0</ele>
        <time>2018-10-03T12:49:23.000Z</time>
      </trkpt>
      <trkpt lat="42.56176" lon="-8.04656833">
        <ele>829.0</ele>
        <time>2018-10-03T12:49:24.000Z</time>
      </trkpt>
      <trkpt lat="42.561775" lon="-8.04656667">
        <ele>829.0</ele>
        <time>2018-10-03T12:49:25.000Z</time>
      </trkpt>
      <trkpt lat="42.56178667" lon="-8.04656333">
        <ele>829.0</ele>
        <time>2018-10-03T12:49:26.000Z</time>
      </trkpt>
      <trkpt lat="42.56180167" lon="-8.04655833">
        <ele>829.0</ele>
        <time>2018-10-03T12:49:27.000Z</time>
      </trkpt>
      <trkpt lat="42.561815" lon="-8.04656">
        <ele>829.0</ele>
        <time>2018-10-03T12:49:28.000Z</time>
      </trkpt>
      <trkpt lat="42.56182833" lon="-8.04656167">
        <ele>829.0</ele>
        <time>2018-10-03T12:49:29.000Z</time>
      </trkpt>
      <trkpt lat="42.56184333" lon="-8.04656667">
        <ele>828.0</ele>
        <time>2018-10-03T12:49:30.000Z</time>
      </trkpt>
      <trkpt lat="42.56185833" lon="-8.04656833">
        <ele>828.0</ele>
        <time>2018-10-03T12:49:31.000Z</time>
      </trkpt>
      <trkpt lat="42.56187" lon="-8.04657333">
        <ele>828.0</ele>
        <time>2018-10-03T12:49:32.000Z</time>
      </trkpt>
      <trkpt lat="42.56188167" lon="-8.04657833">
        <ele>828.0</ele>
        <time>2018-10-03T12:49:33.000Z</time>
      </trkpt>
      <trkpt lat="42.561895" lon="-8.04658167">
        <ele>828.0</ele>
        <time>2018-10-03T12:49:34.000Z</time>
      </trkpt>
      <trkpt lat="42.56190833" lon="-8.04658667">
        <ele>828.0</ele>
        <time>2018-10-03T12:49:35.000Z</time>
      </trkpt>
      <trkpt lat="42.56192167" lon="-8.04659">
        <ele>829.0</ele>
        <time>2018-10-03T12:49:36.000Z</time>
      </trkpt>
      <trkpt lat="42.561935" lon="-8.04659667">
        <ele>829.0</ele>
        <time>2018-10-03T12:49:37.000Z</time>
      </trkpt>
      <trkpt lat="42.56194833" lon="-8.04660167">
        <ele>829.0</ele>
        <time>2018-10-03T12:49:38.000Z</time>
      </trkpt>
      <trkpt lat="42.56196" lon="-8.04660667">
        <ele>829.0</ele>
        <time>2018-10-03T12:49:39.000Z</time>
      </trkpt>
      <trkpt lat="42.56197167" lon="-8.04661333">
        <ele>829.0</ele>
        <time>2018-10-03T12:49:40.000Z</time>
      </trkpt>
      <trkpt lat="42.56198333" lon="-8.04662">
        <ele>829.0</ele>
        <time>2018-10-03T12:49:41.000Z</time>
      </trkpt>
      <trkpt lat="42.561995" lon="-8.046625">
        <ele>829.0</ele>
        <time>2018-10-03T12:49:42.000Z</time>
      </trkpt>
      <trkpt lat="42.562005" lon="-8.04662833">
        <ele>829.0</ele>
        <time>2018-10-03T12:49:43.000Z</time>
      </trkpt>
      <trkpt lat="42.56201333" lon="-8.04663333">
        <ele>829.0</ele>
        <time>2018-10-03T12:49:44.000Z</time>
      </trkpt>
      <trkpt lat="42.56202333" lon="-8.04663833">
        <ele>828.0</ele>
        <time>2018-10-03T12:49:45.000Z</time>
      </trkpt>
      <trkpt lat="42.562035" lon="-8.04664667">
        <ele>828.0</ele>
        <time>2018-10-03T12:49:46.000Z</time>
      </trkpt>
      <trkpt lat="42.56204333" lon="-8.04665333">
        <ele>828.0</ele>
        <time>2018-10-03T12:49:47.000Z</time>
      </trkpt>
      <trkpt lat="42.56205333" lon="-8.04666">
        <ele>828.0</ele>
        <time>2018-10-03T12:49:48.000Z</time>
      </trkpt>
      <trkpt lat="42.562065" lon="-8.04666667">
        <ele>828.0</ele>
        <time>2018-10-03T12:49:49.000Z</time>
      </trkpt>
      <trkpt lat="42.56207667" lon="-8.04667">
        <ele>828.0</ele>
        <time>2018-10-03T12:49:50.000Z</time>
      </trkpt>
      <trkpt lat="42.56208667" lon="-8.04667667">
        <ele>828.0</ele>
        <time>2018-10-03T12:49:51.000Z</time>
      </trkpt>
      <trkpt lat="42.56209833" lon="-8.04668333">
        <ele>828.0</ele>
        <time>2018-10-03T12:49:52.000Z</time>
      </trkpt>
      <trkpt lat="42.56211167" lon="-8.04669167">
        <ele>828.0</ele>
        <time>2018-10-03T12:49:53.000Z</time>
      </trkpt>
      <trkpt lat="42.56212333" lon="-8.0467">
        <ele>828.0</ele>
        <time>2018-10-03T12:49:54.000Z</time>
      </trkpt>
      <trkpt lat="42.562135" lon="-8.04670667">
        <ele>828.0</ele>
        <time>2018-10-03T12:49:55.000Z</time>
      </trkpt>
      <trkpt lat="42.56214667" lon="-8.04671333">
        <ele>828.0</ele>
        <time>2018-10-03T12:49:56.000Z</time>
      </trkpt>
      <trkpt lat="42.56215833" lon="-8.04672167">
        <ele>828.0</ele>
        <time>2018-10-03T12:49:57.000Z</time>
      </trkpt>
      <trkpt lat="42.56217167" lon="-8.04673">
        <ele>828.0</ele>
        <time>2018-10-03T12:49:58.000Z</time>
      </trkpt>
      <trkpt lat="42.56218333" lon="-8.04673833">
        <ele>828.0</ele>
        <time>2018-10-03T12:49:59.000Z</time>
      </trkpt>
      <trkpt lat="42.56219667" lon="-8.04674833">
        <ele>828.0</ele>
        <time>2018-10-03T12:50:00.000Z</time>
      </trkpt>
      <trkpt lat="42.56220833" lon="-8.046755">
        <ele>828.0</ele>
        <time>2018-10-03T12:50:01.000Z</time>
      </trkpt>
      <trkpt lat="42.56222167" lon="-8.04676167">
        <ele>828.0</ele>
        <time>2018-10-03T12:50:02.000Z</time>
      </trkpt>
      <trkpt lat="42.562235" lon="-8.04677167">
        <ele>828.0</ele>
        <time>2018-10-03T12:50:03.000Z</time>
      </trkpt>
      <trkpt lat="42.56224833" lon="-8.04678">
        <ele>828.0</ele>
        <time>2018-10-03T12:50:04.000Z</time>
      </trkpt>
      <trkpt lat="42.56226167" lon="-8.04678833">
        <ele>828.0</ele>
        <time>2018-10-03T12:50:05.000Z</time>
      </trkpt>
      <trkpt lat="42.562275" lon="-8.04679333">
        <ele>828.0</ele>
        <time>2018-10-03T12:50:06.000Z</time>
      </trkpt>
      <trkpt lat="42.56229" lon="-8.046795">
        <ele>829.0</ele>
        <time>2018-10-03T12:50:07.000Z</time>
      </trkpt>
      <trkpt lat="42.56229833" lon="-8.046805">
        <ele>828.0</ele>
        <time>2018-10-03T12:50:08.000Z</time>
      </trkpt>
      <trkpt lat="42.56230667" lon="-8.046815">
        <ele>828.0</ele>
        <time>2018-10-03T12:50:09.000Z</time>
      </trkpt>
      <trkpt lat="42.56231667" lon="-8.04682333">
        <ele>828.0</ele>
        <time>2018-10-03T12:50:10.000Z</time>
      </trkpt>
      <trkpt lat="42.56232833" lon="-8.04683167">
        <ele>828.0</ele>
        <time>2018-10-03T12:50:11.000Z</time>
      </trkpt>
      <trkpt lat="42.56233833" lon="-8.04684333">
        <ele>828.0</ele>
        <time>2018-10-03T12:50:12.000Z</time>
      </trkpt>
      <trkpt lat="42.56235" lon="-8.046855">
        <ele>828.0</ele>
        <time>2018-10-03T12:50:13.000Z</time>
      </trkpt>
      <trkpt lat="42.56236167" lon="-8.04686667">
        <ele>828.0</ele>
        <time>2018-10-03T12:50:14.000Z</time>
      </trkpt>
      <trkpt lat="42.562375" lon="-8.04688">
        <ele>828.0</ele>
        <time>2018-10-03T12:50:15.000Z</time>
      </trkpt>
      <trkpt lat="42.56238667" lon="-8.04689">
        <ele>828.0</ele>
        <time>2018-10-03T12:50:16.000Z</time>
      </trkpt>
      <trkpt lat="42.56240167" lon="-8.04690333">
        <ele>828.0</ele>
        <time>2018-10-03T12:50:17.000Z</time>
      </trkpt>
      <trkpt lat="42.56241667" lon="-8.046915">
        <ele>828.0</ele>
        <time>2018-10-03T12:50:18.000Z</time>
      </trkpt>
      <trkpt lat="42.56243167" lon="-8.04692667">
        <ele>828.0</ele>
        <time>2018-10-03T12:50:19.000Z</time>
      </trkpt>
      <trkpt lat="42.56244333" lon="-8.04693833">
        <ele>828.0</ele>
        <time>2018-10-03T12:50:20.000Z</time>
      </trkpt>
      <trkpt lat="42.56245833" lon="-8.04694833">
        <ele>828.0</ele>
        <time>2018-10-03T12:50:21.000Z</time>
      </trkpt>
      <trkpt lat="42.56247333" lon="-8.04695667">
        <ele>828.0</ele>
        <time>2018-10-03T12:50:22.000Z</time>
      </trkpt>
      <trkpt lat="42.56248667" lon="-8.04696667">
        <ele>828.0</ele>
        <time>2018-10-03T12:50:23.000Z</time>
      </trkpt>
      <trkpt lat="42.56250167" lon="-8.04697167">
        <ele>828.0</ele>
        <time>2018-10-03T12:50:24.000Z</time>
      </trkpt>
      <trkpt lat="42.56251333" lon="-8.04697833">
        <ele>828.0</ele>
        <time>2018-10-03T12:50:25.000Z</time>
      </trkpt>
      <trkpt lat="42.562525" lon="-8.04698667">
        <ele>828.0</ele>
        <time>2018-10-03T12:50:26.000Z</time>
      </trkpt>
      <trkpt lat="42.56253667" lon="-8.046995">
        <ele>828.0</ele>
        <time>2018-10-03T12:50:27.000Z</time>
      </trkpt>
      <trkpt lat="42.56254833" lon="-8.04700333">
        <ele>828.0</ele>
        <time>2018-10-03T12:50:28.000Z</time>
      </trkpt>
      <trkpt lat="42.56256" lon="-8.04701333">
        <ele>828.0</ele>
        <time>2018-10-03T12:50:29.000Z</time>
      </trkpt>
      <trkpt lat="42.56257167" lon="-8.04702167">
        <ele>828.0</ele>
        <time>2018-10-03T12:50:30.000Z</time>
      </trkpt>
      <trkpt lat="42.56258333" lon="-8.04703">
        <ele>828.0</ele>
        <time>2018-10-03T12:50:31.000Z</time>
      </trkpt>
      <trkpt lat="42.56259333" lon="-8.04703667">
        <ele>827.0</ele>
        <time>2018-10-03T12:50:32.000Z</time>
      </trkpt>
      <trkpt lat="42.56260167" lon="-8.04704333">
        <ele>827.0</ele>
        <time>2018-10-03T12:50:33.000Z</time>
      </trkpt>
      <trkpt lat="42.56261" lon="-8.04705167">
        <ele>827.0</ele>
        <time>2018-10-03T12:50:34.000Z</time>
      </trkpt>
      <trkpt lat="42.562615" lon="-8.04706">
        <ele>827.0</ele>
        <time>2018-10-03T12:50:35.000Z</time>
      </trkpt>
      <trkpt lat="42.56262333" lon="-8.04706833">
        <ele>827.0</ele>
        <time>2018-10-03T12:50:36.000Z</time>
      </trkpt>
      <trkpt lat="42.56263" lon="-8.04707333">
        <ele>827.0</ele>
        <time>2018-10-03T12:50:37.000Z</time>
      </trkpt>
      <trkpt lat="42.56263833" lon="-8.04707833">
        <ele>827.0</ele>
        <time>2018-10-03T12:50:38.000Z</time>
      </trkpt>
      <trkpt lat="42.56264667" lon="-8.047085">
        <ele>826.0</ele>
        <time>2018-10-03T12:50:39.000Z</time>
      </trkpt>
      <trkpt lat="42.562655" lon="-8.04709">
        <ele>826.0</ele>
        <time>2018-10-03T12:50:40.000Z</time>
      </trkpt>
      <trkpt lat="42.56266333" lon="-8.04709333">
        <ele>826.0</ele>
        <time>2018-10-03T12:50:41.000Z</time>
      </trkpt>
      <trkpt lat="42.56267" lon="-8.0471">
        <ele>826.0</ele>
        <time>2018-10-03T12:50:42.000Z</time>
      </trkpt>
      <trkpt lat="42.56267667" lon="-8.04711">
        <ele>825.0</ele>
        <time>2018-10-03T12:50:43.000Z</time>
      </trkpt>
      <trkpt lat="42.56268" lon="-8.04711833">
        <ele>825.0</ele>
        <time>2018-10-03T12:50:44.000Z</time>
      </trkpt>
      <trkpt lat="42.562685" lon="-8.04712833">
        <ele>825.0</ele>
        <time>2018-10-03T12:50:45.000Z</time>
      </trkpt>
      <trkpt lat="42.56269167" lon="-8.04713833">
        <ele>825.0</ele>
        <time>2018-10-03T12:50:46.000Z</time>
      </trkpt>
      <trkpt lat="42.5627" lon="-8.04714667">
        <ele>825.0</ele>
        <time>2018-10-03T12:50:47.000Z</time>
      </trkpt>
      <trkpt lat="42.56270667" lon="-8.04715333">
        <ele>825.0</ele>
        <time>2018-10-03T12:50:48.000Z</time>
      </trkpt>
      <trkpt lat="42.56271333" lon="-8.04716">
        <ele>824.0</ele>
        <time>2018-10-03T12:50:49.000Z</time>
      </trkpt>
      <trkpt lat="42.56271833" lon="-8.047165">
        <ele>824.0</ele>
        <time>2018-10-03T12:50:50.000Z</time>
      </trkpt>
      <trkpt lat="42.562725" lon="-8.04717">
        <ele>824.0</ele>
        <time>2018-10-03T12:50:51.000Z</time>
      </trkpt>
      <trkpt lat="42.56273167" lon="-8.04718">
        <ele>824.0</ele>
        <time>2018-10-03T12:50:52.000Z</time>
      </trkpt>
      <trkpt lat="42.56273833" lon="-8.04719167">
        <ele>823.0</ele>
        <time>2018-10-03T12:50:53.000Z</time>
      </trkpt>
      <trkpt lat="42.562745" lon="-8.047205">
        <ele>823.0</ele>
        <time>2018-10-03T12:50:54.000Z</time>
      </trkpt>
      <trkpt lat="42.562755" lon="-8.04721333">
        <ele>823.0</ele>
        <time>2018-10-03T12:50:55.000Z</time>
      </trkpt>
      <trkpt lat="42.56276667" lon="-8.04721667">
        <ele>823.0</ele>
        <time>2018-10-03T12:50:56.000Z</time>
      </trkpt>
      <trkpt lat="42.56277833" lon="-8.04722167">
        <ele>822.0</ele>
        <time>2018-10-03T12:50:57.000Z</time>
      </trkpt>
      <trkpt lat="42.56278833" lon="-8.04722833">
        <ele>822.0</ele>
        <time>2018-10-03T12:50:58.000Z</time>
      </trkpt>
      <trkpt lat="42.56279667" lon="-8.04723667">
        <ele>822.0</ele>
        <time>2018-10-03T12:50:59.000Z</time>
      </trkpt>
      <trkpt lat="42.562805" lon="-8.047245">
        <ele>822.0</ele>
        <time>2018-10-03T12:51:00.000Z</time>
      </trkpt>
      <trkpt lat="42.562815" lon="-8.04725333">
        <ele>821.0</ele>
        <time>2018-10-03T12:51:01.000Z</time>
      </trkpt>
      <trkpt lat="42.56282333" lon="-8.04726167">
        <ele>821.0</ele>
        <time>2018-10-03T12:51:02.000Z</time>
      </trkpt>
      <trkpt lat="42.56283" lon="-8.04727">
        <ele>821.0</ele>
        <time>2018-10-03T12:51:03.000Z</time>
      </trkpt>
      <trkpt lat="42.56283833" lon="-8.04728">
        <ele>821.0</ele>
        <time>2018-10-03T12:51:04.000Z</time>
      </trkpt>
      <trkpt lat="42.562845" lon="-8.04728833">
        <ele>820.0</ele>
        <time>2018-10-03T12:51:05.000Z</time>
      </trkpt>
      <trkpt lat="42.56285333" lon="-8.04729833">
        <ele>820.0</ele>
        <time>2018-10-03T12:51:06.000Z</time>
      </trkpt>
      <trkpt lat="42.56286333" lon="-8.04730667">
        <ele>820.0</ele>
        <time>2018-10-03T12:51:07.000Z</time>
      </trkpt>
      <trkpt lat="42.56287" lon="-8.04731667">
        <ele>820.0</ele>
        <time>2018-10-03T12:51:08.000Z</time>
      </trkpt>
      <trkpt lat="42.56287667" lon="-8.047325">
        <ele>819.0</ele>
        <time>2018-10-03T12:51:09.000Z</time>
      </trkpt>
      <trkpt lat="42.56288" lon="-8.04733167">
        <ele>819.0</ele>
        <time>2018-10-03T12:51:10.000Z</time>
      </trkpt>
      <trkpt lat="42.56288833" lon="-8.04733667">
        <ele>819.0</ele>
        <time>2018-10-03T12:51:11.000Z</time>
      </trkpt>
      <trkpt lat="42.562895" lon="-8.04734167">
        <ele>819.0</ele>
        <time>2018-10-03T12:51:12.000Z</time>
      </trkpt>
      <trkpt lat="42.562905" lon="-8.04734667">
        <ele>818.0</ele>
        <time>2018-10-03T12:51:13.000Z</time>
      </trkpt>
      <trkpt lat="42.56291333" lon="-8.04735333">
        <ele>818.0</ele>
        <time>2018-10-03T12:51:14.000Z</time>
      </trkpt>
      <trkpt lat="42.56292333" lon="-8.04736333">
        <ele>818.0</ele>
        <time>2018-10-03T12:51:15.000Z</time>
      </trkpt>
      <trkpt lat="42.56293667" lon="-8.04737333">
        <ele>818.0</ele>
        <time>2018-10-03T12:51:16.000Z</time>
      </trkpt>
      <trkpt lat="42.56294833" lon="-8.04738167">
        <ele>817.0</ele>
        <time>2018-10-03T12:51:17.000Z</time>
      </trkpt>
      <trkpt lat="42.56296" lon="-8.04739167">
        <ele>817.0</ele>
        <time>2018-10-03T12:51:18.000Z</time>
      </trkpt>
      <trkpt lat="42.56297333" lon="-8.04740167">
        <ele>817.0</ele>
        <time>2018-10-03T12:51:19.000Z</time>
      </trkpt>
      <trkpt lat="42.56298667" lon="-8.04741">
        <ele>817.0</ele>
        <time>2018-10-03T12:51:20.000Z</time>
      </trkpt>
      <trkpt lat="42.56299833" lon="-8.04741833">
        <ele>817.0</ele>
        <time>2018-10-03T12:51:21.000Z</time>
      </trkpt>
      <trkpt lat="42.56300833" lon="-8.04742833">
        <ele>817.0</ele>
        <time>2018-10-03T12:51:22.000Z</time>
      </trkpt>
      <trkpt lat="42.56301833" lon="-8.04743833">
        <ele>817.0</ele>
        <time>2018-10-03T12:51:23.000Z</time>
      </trkpt>
      <trkpt lat="42.56303167" lon="-8.04744667">
        <ele>817.0</ele>
        <time>2018-10-03T12:51:24.000Z</time>
      </trkpt>
      <trkpt lat="42.563045" lon="-8.047455">
        <ele>817.0</ele>
        <time>2018-10-03T12:51:25.000Z</time>
      </trkpt>
      <trkpt lat="42.56305667" lon="-8.047465">
        <ele>816.0</ele>
        <time>2018-10-03T12:51:26.000Z</time>
      </trkpt>
      <trkpt lat="42.56306833" lon="-8.047475">
        <ele>816.0</ele>
        <time>2018-10-03T12:51:27.000Z</time>
      </trkpt>
      <trkpt lat="42.56308" lon="-8.04748333">
        <ele>816.0</ele>
        <time>2018-10-03T12:51:28.000Z</time>
      </trkpt>
      <trkpt lat="42.56309" lon="-8.04749167">
        <ele>816.0</ele>
        <time>2018-10-03T12:51:29.000Z</time>
      </trkpt>
      <trkpt lat="42.56310167" lon="-8.04750167">
        <ele>816.0</ele>
        <time>2018-10-03T12:51:30.000Z</time>
      </trkpt>
      <trkpt lat="42.56311333" lon="-8.04750833">
        <ele>816.0</ele>
        <time>2018-10-03T12:51:31.000Z</time>
      </trkpt>
      <trkpt lat="42.56312667" lon="-8.04751667">
        <ele>816.0</ele>
        <time>2018-10-03T12:51:32.000Z</time>
      </trkpt>
      <trkpt lat="42.56314" lon="-8.047525">
        <ele>816.0</ele>
        <time>2018-10-03T12:51:33.000Z</time>
      </trkpt>
      <trkpt lat="42.563155" lon="-8.04753167">
        <ele>815.0</ele>
        <time>2018-10-03T12:51:34.000Z</time>
      </trkpt>
      <trkpt lat="42.56317" lon="-8.04753667">
        <ele>815.0</ele>
        <time>2018-10-03T12:51:35.000Z</time>
      </trkpt>
      <trkpt lat="42.56318167" lon="-8.04754333">
        <ele>815.0</ele>
        <time>2018-10-03T12:51:36.000Z</time>
      </trkpt>
      <trkpt lat="42.56319833" lon="-8.04754667">
        <ele>815.0</ele>
        <time>2018-10-03T12:51:37.000Z</time>
      </trkpt>
      <trkpt lat="42.56321" lon="-8.047555">
        <ele>815.0</ele>
        <time>2018-10-03T12:51:38.000Z</time>
      </trkpt>
      <trkpt lat="42.56322167" lon="-8.04756167">
        <ele>814.0</ele>
        <time>2018-10-03T12:51:39.000Z</time>
      </trkpt>
      <trkpt lat="42.56323667" lon="-8.04756833">
        <ele>814.0</ele>
        <time>2018-10-03T12:51:40.000Z</time>
      </trkpt>
      <trkpt lat="42.56324833" lon="-8.047575">
        <ele>814.0</ele>
        <time>2018-10-03T12:51:41.000Z</time>
      </trkpt>
      <trkpt lat="42.56326333" lon="-8.04758333">
        <ele>814.0</ele>
        <time>2018-10-03T12:51:42.000Z</time>
      </trkpt>
      <trkpt lat="42.56327667" lon="-8.04758833">
        <ele>813.0</ele>
        <time>2018-10-03T12:51:43.000Z</time>
      </trkpt>
      <trkpt lat="42.56329" lon="-8.04759667">
        <ele>813.0</ele>
        <time>2018-10-03T12:51:44.000Z</time>
      </trkpt>
      <trkpt lat="42.56330333" lon="-8.04760333">
        <ele>813.0</ele>
        <time>2018-10-03T12:51:45.000Z</time>
      </trkpt>
      <trkpt lat="42.56331667" lon="-8.04760833">
        <ele>813.0</ele>
        <time>2018-10-03T12:51:46.000Z</time>
      </trkpt>
      <trkpt lat="42.56332833" lon="-8.04761333">
        <ele>812.0</ele>
        <time>2018-10-03T12:51:47.000Z</time>
      </trkpt>
      <trkpt lat="42.56334" lon="-8.04761667">
        <ele>812.0</ele>
        <time>2018-10-03T12:51:48.000Z</time>
      </trkpt>
      <trkpt lat="42.56335167" lon="-8.04762333">
        <ele>812.0</ele>
        <time>2018-10-03T12:51:49.000Z</time>
      </trkpt>
      <trkpt lat="42.563365" lon="-8.04762833">
        <ele>812.0</ele>
        <time>2018-10-03T12:51:50.000Z</time>
      </trkpt>
      <trkpt lat="42.563375" lon="-8.047635">
        <ele>811.0</ele>
        <time>2018-10-03T12:51:51.000Z</time>
      </trkpt>
      <trkpt lat="42.56338833" lon="-8.04763833">
        <ele>811.0</ele>
        <time>2018-10-03T12:51:52.000Z</time>
      </trkpt>
      <trkpt lat="42.56339833" lon="-8.047645">
        <ele>811.0</ele>
        <time>2018-10-03T12:51:53.000Z</time>
      </trkpt>
      <trkpt lat="42.56341" lon="-8.04765167">
        <ele>811.0</ele>
        <time>2018-10-03T12:51:54.000Z</time>
      </trkpt>
      <trkpt lat="42.56342333" lon="-8.04765667">
        <ele>810.0</ele>
        <time>2018-10-03T12:51:55.000Z</time>
      </trkpt>
      <trkpt lat="42.563435" lon="-8.047665">
        <ele>810.0</ele>
        <time>2018-10-03T12:51:56.000Z</time>
      </trkpt>
      <trkpt lat="42.56344667" lon="-8.04767167">
        <ele>810.0</ele>
        <time>2018-10-03T12:51:57.000Z</time>
      </trkpt>
      <trkpt lat="42.56346" lon="-8.04768">
        <ele>809.0</ele>
        <time>2018-10-03T12:51:58.000Z</time>
      </trkpt>
      <trkpt lat="42.56347333" lon="-8.04768667">
        <ele>809.0</ele>
        <time>2018-10-03T12:51:59.000Z</time>
      </trkpt>
      <trkpt lat="42.563485" lon="-8.04769333">
        <ele>809.0</ele>
        <time>2018-10-03T12:52:00.000Z</time>
      </trkpt>
      <trkpt lat="42.56349667" lon="-8.0477">
        <ele>808.0</ele>
        <time>2018-10-03T12:52:01.000Z</time>
      </trkpt>
      <trkpt lat="42.56350833" lon="-8.04770833">
        <ele>808.0</ele>
        <time>2018-10-03T12:52:02.000Z</time>
      </trkpt>
      <trkpt lat="42.56352167" lon="-8.04771333">
        <ele>808.0</ele>
        <time>2018-10-03T12:52:03.000Z</time>
      </trkpt>
      <trkpt lat="42.563535" lon="-8.04772333">
        <ele>807.0</ele>
        <time>2018-10-03T12:52:04.000Z</time>
      </trkpt>
      <trkpt lat="42.56354833" lon="-8.04773333">
        <ele>807.0</ele>
        <time>2018-10-03T12:52:05.000Z</time>
      </trkpt>
      <trkpt lat="42.56356" lon="-8.04774167">
        <ele>807.0</ele>
        <time>2018-10-03T12:52:06.000Z</time>
      </trkpt>
      <trkpt lat="42.56357167" lon="-8.04775167">
        <ele>806.0</ele>
        <time>2018-10-03T12:52:07.000Z</time>
      </trkpt>
      <trkpt lat="42.56358333" lon="-8.04776333">
        <ele>806.0</ele>
        <time>2018-10-03T12:52:08.000Z</time>
      </trkpt>
      <trkpt lat="42.56359167" lon="-8.04777667">
        <ele>806.0</ele>
        <time>2018-10-03T12:52:09.000Z</time>
      </trkpt>
      <trkpt lat="42.56360167" lon="-8.04779167">
        <ele>806.0</ele>
        <time>2018-10-03T12:52:10.000Z</time>
      </trkpt>
      <trkpt lat="42.56361333" lon="-8.04780667">
        <ele>806.0</ele>
        <time>2018-10-03T12:52:11.000Z</time>
      </trkpt>
      <trkpt lat="42.563625" lon="-8.04781833">
        <ele>805.0</ele>
        <time>2018-10-03T12:52:12.000Z</time>
      </trkpt>
      <trkpt lat="42.56363667" lon="-8.04783">
        <ele>805.0</ele>
        <time>2018-10-03T12:52:13.000Z</time>
      </trkpt>
      <trkpt lat="42.56364667" lon="-8.04784167">
        <ele>805.0</ele>
        <time>2018-10-03T12:52:14.000Z</time>
      </trkpt>
      <trkpt lat="42.56365833" lon="-8.047855">
        <ele>805.0</ele>
        <time>2018-10-03T12:52:15.000Z</time>
      </trkpt>
      <trkpt lat="42.56366833" lon="-8.04786667">
        <ele>805.0</ele>
        <time>2018-10-03T12:52:16.000Z</time>
      </trkpt>
      <trkpt lat="42.56368" lon="-8.04787833">
        <ele>804.0</ele>
        <time>2018-10-03T12:52:17.000Z</time>
      </trkpt>
      <trkpt lat="42.56369" lon="-8.04789333">
        <ele>804.0</ele>
        <time>2018-10-03T12:52:18.000Z</time>
      </trkpt>
      <trkpt lat="42.56370167" lon="-8.047905">
        <ele>804.0</ele>
        <time>2018-10-03T12:52:19.000Z</time>
      </trkpt>
      <trkpt lat="42.56371333" lon="-8.04792">
        <ele>804.0</ele>
        <time>2018-10-03T12:52:20.000Z</time>
      </trkpt>
      <trkpt lat="42.563725" lon="-8.04793333">
        <ele>804.0</ele>
        <time>2018-10-03T12:52:21.000Z</time>
      </trkpt>
      <trkpt lat="42.56373667" lon="-8.047945">
        <ele>803.0</ele>
        <time>2018-10-03T12:52:22.000Z</time>
      </trkpt>
      <trkpt lat="42.56374667" lon="-8.04796">
        <ele>803.0</ele>
        <time>2018-10-03T12:52:23.000Z</time>
      </trkpt>
      <trkpt lat="42.56375667" lon="-8.04797667">
        <ele>803.0</ele>
        <time>2018-10-03T12:52:24.000Z</time>
      </trkpt>
      <trkpt lat="42.56376667" lon="-8.04799167">
        <ele>803.0</ele>
        <time>2018-10-03T12:52:25.000Z</time>
      </trkpt>
      <trkpt lat="42.56377833" lon="-8.04800667">
        <ele>803.0</ele>
        <time>2018-10-03T12:52:26.000Z</time>
      </trkpt>
      <trkpt lat="42.56379" lon="-8.04802">
        <ele>803.0</ele>
        <time>2018-10-03T12:52:27.000Z</time>
      </trkpt>
      <trkpt lat="42.56380167" lon="-8.048035">
        <ele>802.0</ele>
        <time>2018-10-03T12:52:28.000Z</time>
      </trkpt>
      <trkpt lat="42.56381167" lon="-8.04804833">
        <ele>802.0</ele>
        <time>2018-10-03T12:52:29.000Z</time>
      </trkpt>
      <trkpt lat="42.56382167" lon="-8.04806167">
        <ele>802.0</ele>
        <time>2018-10-03T12:52:30.000Z</time>
      </trkpt>
      <trkpt lat="42.56383167" lon="-8.04807333">
        <ele>802.0</ele>
        <time>2018-10-03T12:52:31.000Z</time>
      </trkpt>
      <trkpt lat="42.56384167" lon="-8.04808833">
        <ele>801.0</ele>
        <time>2018-10-03T12:52:32.000Z</time>
      </trkpt>
      <trkpt lat="42.56385167" lon="-8.048105">
        <ele>801.0</ele>
        <time>2018-10-03T12:52:33.000Z</time>
      </trkpt>
      <trkpt lat="42.56386333" lon="-8.04812167">
        <ele>801.0</ele>
        <time>2018-10-03T12:52:34.000Z</time>
      </trkpt>
      <trkpt lat="42.56387833" lon="-8.048135">
        <ele>801.0</ele>
        <time>2018-10-03T12:52:35.000Z</time>
      </trkpt>
      <trkpt lat="42.56389333" lon="-8.048145">
        <ele>801.0</ele>
        <time>2018-10-03T12:52:36.000Z</time>
      </trkpt>
      <trkpt lat="42.563905" lon="-8.04815833">
        <ele>801.0</ele>
        <time>2018-10-03T12:52:37.000Z</time>
      </trkpt>
      <trkpt lat="42.56391667" lon="-8.04817333">
        <ele>801.0</ele>
        <time>2018-10-03T12:52:38.000Z</time>
      </trkpt>
      <trkpt lat="42.563925" lon="-8.04819">
        <ele>801.0</ele>
        <time>2018-10-03T12:52:39.000Z</time>
      </trkpt>
      <trkpt lat="42.56393167" lon="-8.04820667">
        <ele>800.0</ele>
        <time>2018-10-03T12:52:40.000Z</time>
      </trkpt>
      <trkpt lat="42.56393833" lon="-8.04822333">
        <ele>800.0</ele>
        <time>2018-10-03T12:52:41.000Z</time>
      </trkpt>
      <trkpt lat="42.56394667" lon="-8.04823833">
        <ele>800.0</ele>
        <time>2018-10-03T12:52:42.000Z</time>
      </trkpt>
      <trkpt lat="42.56395833" lon="-8.04825333">
        <ele>800.0</ele>
        <time>2018-10-03T12:52:43.000Z</time>
      </trkpt>
      <trkpt lat="42.56397" lon="-8.04826833">
        <ele>800.0</ele>
        <time>2018-10-03T12:52:44.000Z</time>
      </trkpt>
      <trkpt lat="42.56398" lon="-8.04828333">
        <ele>800.0</ele>
        <time>2018-10-03T12:52:45.000Z</time>
      </trkpt>
      <trkpt lat="42.56399167" lon="-8.04829667">
        <ele>800.0</ele>
        <time>2018-10-03T12:52:46.000Z</time>
      </trkpt>
      <trkpt lat="42.564005" lon="-8.04831">
        <ele>800.0</ele>
        <time>2018-10-03T12:52:47.000Z</time>
      </trkpt>
      <trkpt lat="42.56401833" lon="-8.04832333">
        <ele>800.0</ele>
        <time>2018-10-03T12:52:48.000Z</time>
      </trkpt>
      <trkpt lat="42.56403167" lon="-8.048335">
        <ele>799.0</ele>
        <time>2018-10-03T12:52:49.000Z</time>
      </trkpt>
      <trkpt lat="42.56404333" lon="-8.04834833">
        <ele>799.0</ele>
        <time>2018-10-03T12:52:50.000Z</time>
      </trkpt>
      <trkpt lat="42.56405667" lon="-8.04836">
        <ele>799.0</ele>
        <time>2018-10-03T12:52:51.000Z</time>
      </trkpt>
      <trkpt lat="42.56407" lon="-8.048375">
        <ele>799.0</ele>
        <time>2018-10-03T12:52:52.000Z</time>
      </trkpt>
      <trkpt lat="42.56408167" lon="-8.04839167">
        <ele>799.0</ele>
        <time>2018-10-03T12:52:53.000Z</time>
      </trkpt>
      <trkpt lat="42.56409167" lon="-8.048405">
        <ele>798.0</ele>
        <time>2018-10-03T12:52:54.000Z</time>
      </trkpt>
      <trkpt lat="42.56410333" lon="-8.04842">
        <ele>798.0</ele>
        <time>2018-10-03T12:52:55.000Z</time>
      </trkpt>
      <trkpt lat="42.564115" lon="-8.04843333">
        <ele>798.0</ele>
        <time>2018-10-03T12:52:56.000Z</time>
      </trkpt>
      <trkpt lat="42.564125" lon="-8.04844833">
        <ele>797.0</ele>
        <time>2018-10-03T12:52:57.000Z</time>
      </trkpt>
      <trkpt lat="42.564135" lon="-8.04846333">
        <ele>797.0</ele>
        <time>2018-10-03T12:52:58.000Z</time>
      </trkpt>
      <trkpt lat="42.56414333" lon="-8.04848167">
        <ele>797.0</ele>
        <time>2018-10-03T12:52:59.000Z</time>
      </trkpt>
      <trkpt lat="42.56415167" lon="-8.04849667">
        <ele>797.0</ele>
        <time>2018-10-03T12:53:00.000Z</time>
      </trkpt>
      <trkpt lat="42.56416167" lon="-8.04851167">
        <ele>797.0</ele>
        <time>2018-10-03T12:53:01.000Z</time>
      </trkpt>
      <trkpt lat="42.56417" lon="-8.04852833">
        <ele>797.0</ele>
        <time>2018-10-03T12:53:02.000Z</time>
      </trkpt>
      <trkpt lat="42.56418" lon="-8.04854833">
        <ele>797.0</ele>
        <time>2018-10-03T12:53:03.000Z</time>
      </trkpt>
      <trkpt lat="42.56418833" lon="-8.048565">
        <ele>797.0</ele>
        <time>2018-10-03T12:53:04.000Z</time>
      </trkpt>
      <trkpt lat="42.56419667" lon="-8.04858167">
        <ele>797.0</ele>
        <time>2018-10-03T12:53:05.000Z</time>
      </trkpt>
      <trkpt lat="42.564205" lon="-8.04859667">
        <ele>796.0</ele>
        <time>2018-10-03T12:53:06.000Z</time>
      </trkpt>
      <trkpt lat="42.56421333" lon="-8.04861">
        <ele>796.0</ele>
        <time>2018-10-03T12:53:07.000Z</time>
      </trkpt>
      <trkpt lat="42.56422" lon="-8.04862333">
        <ele>796.0</ele>
        <time>2018-10-03T12:53:08.000Z</time>
      </trkpt>
      <trkpt lat="42.56422667" lon="-8.04863667">
        <ele>796.0</ele>
        <time>2018-10-03T12:53:09.000Z</time>
      </trkpt>
      <trkpt lat="42.56423167" lon="-8.04865167">
        <ele>796.0</ele>
        <time>2018-10-03T12:53:10.000Z</time>
      </trkpt>
      <trkpt lat="42.56423667" lon="-8.04866667">
        <ele>796.0</ele>
        <time>2018-10-03T12:53:11.000Z</time>
      </trkpt>
      <trkpt lat="42.56424333" lon="-8.04868167">
        <ele>795.0</ele>
        <time>2018-10-03T12:53:12.000Z</time>
      </trkpt>
      <trkpt lat="42.56425" lon="-8.0487">
        <ele>795.0</ele>
        <time>2018-10-03T12:53:13.000Z</time>
      </trkpt>
      <trkpt lat="42.56425833" lon="-8.04871667">
        <ele>795.0</ele>
        <time>2018-10-03T12:53:14.000Z</time>
      </trkpt>
      <trkpt lat="42.56426667" lon="-8.048735">
        <ele>795.0</ele>
        <time>2018-10-03T12:53:15.000Z</time>
      </trkpt>
      <trkpt lat="42.56427333" lon="-8.04875333">
        <ele>795.0</ele>
        <time>2018-10-03T12:53:16.000Z</time>
      </trkpt>
      <trkpt lat="42.56427833" lon="-8.04877167">
        <ele>795.0</ele>
        <time>2018-10-03T12:53:17.000Z</time>
      </trkpt>
      <trkpt lat="42.56428167" lon="-8.04879">
        <ele>794.0</ele>
        <time>2018-10-03T12:53:18.000Z</time>
      </trkpt>
      <trkpt lat="42.56428667" lon="-8.04880833">
        <ele>794.0</ele>
        <time>2018-10-03T12:53:19.000Z</time>
      </trkpt>
      <trkpt lat="42.56429" lon="-8.04882833">
        <ele>794.0</ele>
        <time>2018-10-03T12:53:20.000Z</time>
      </trkpt>
      <trkpt lat="42.56429667" lon="-8.04884667">
        <ele>794.0</ele>
        <time>2018-10-03T12:53:21.000Z</time>
      </trkpt>
      <trkpt lat="42.5643" lon="-8.04886667">
        <ele>794.0</ele>
        <time>2018-10-03T12:53:22.000Z</time>
      </trkpt>
      <trkpt lat="42.56430333" lon="-8.04888667">
        <ele>794.0</ele>
        <time>2018-10-03T12:53:23.000Z</time>
      </trkpt>
      <trkpt lat="42.56430333" lon="-8.04890667">
        <ele>794.0</ele>
        <time>2018-10-03T12:53:24.000Z</time>
      </trkpt>
      <trkpt lat="42.564305" lon="-8.048925">
        <ele>793.0</ele>
        <time>2018-10-03T12:53:25.000Z</time>
      </trkpt>
      <trkpt lat="42.564305" lon="-8.048945">
        <ele>793.0</ele>
        <time>2018-10-03T12:53:26.000Z</time>
      </trkpt>
      <trkpt lat="42.56430667" lon="-8.04896167">
        <ele>793.0</ele>
        <time>2018-10-03T12:53:27.000Z</time>
      </trkpt>
      <trkpt lat="42.56430833" lon="-8.04898333">
        <ele>793.0</ele>
        <time>2018-10-03T12:53:28.000Z</time>
      </trkpt>
      <trkpt lat="42.56431" lon="-8.04900333">
        <ele>792.0</ele>
        <time>2018-10-03T12:53:29.000Z</time>
      </trkpt>
      <trkpt lat="42.56431167" lon="-8.04902">
        <ele>792.0</ele>
        <time>2018-10-03T12:53:30.000Z</time>
      </trkpt>
      <trkpt lat="42.564315" lon="-8.04904">
        <ele>792.0</ele>
        <time>2018-10-03T12:53:31.000Z</time>
      </trkpt>
      <trkpt lat="42.564315" lon="-8.04906">
        <ele>792.0</ele>
        <time>2018-10-03T12:53:32.000Z</time>
      </trkpt>
      <trkpt lat="42.56431667" lon="-8.04907833">
        <ele>792.0</ele>
        <time>2018-10-03T12:53:33.000Z</time>
      </trkpt>
      <trkpt lat="42.56431667" lon="-8.04909667">
        <ele>792.0</ele>
        <time>2018-10-03T12:53:34.000Z</time>
      </trkpt>
      <trkpt lat="42.564315" lon="-8.04911333">
        <ele>792.0</ele>
        <time>2018-10-03T12:53:35.000Z</time>
      </trkpt>
      <trkpt lat="42.564315" lon="-8.04913167">
        <ele>792.0</ele>
        <time>2018-10-03T12:53:36.000Z</time>
      </trkpt>
      <trkpt lat="42.56431667" lon="-8.04914833">
        <ele>792.0</ele>
        <time>2018-10-03T12:53:37.000Z</time>
      </trkpt>
      <trkpt lat="42.56431833" lon="-8.04916333">
        <ele>791.0</ele>
        <time>2018-10-03T12:53:38.000Z</time>
      </trkpt>
      <trkpt lat="42.56432333" lon="-8.04917833">
        <ele>791.0</ele>
        <time>2018-10-03T12:53:39.000Z</time>
      </trkpt>
      <trkpt lat="42.56432833" lon="-8.049195">
        <ele>791.0</ele>
        <time>2018-10-03T12:53:40.000Z</time>
      </trkpt>
      <trkpt lat="42.56433167" lon="-8.04921167">
        <ele>791.0</ele>
        <time>2018-10-03T12:53:41.000Z</time>
      </trkpt>
      <trkpt lat="42.564335" lon="-8.04922833">
        <ele>791.0</ele>
        <time>2018-10-03T12:53:42.000Z</time>
      </trkpt>
      <trkpt lat="42.564335" lon="-8.049245">
        <ele>791.0</ele>
        <time>2018-10-03T12:53:43.000Z</time>
      </trkpt>
      <trkpt lat="42.56433667" lon="-8.04926167">
        <ele>791.0</ele>
        <time>2018-10-03T12:53:44.000Z</time>
      </trkpt>
      <trkpt lat="42.56434" lon="-8.04927667">
        <ele>790.0</ele>
        <time>2018-10-03T12:53:45.000Z</time>
      </trkpt>
      <trkpt lat="42.56434167" lon="-8.04929167">
        <ele>790.0</ele>
        <time>2018-10-03T12:53:46.000Z</time>
      </trkpt>
      <trkpt lat="42.564345" lon="-8.04930833">
        <ele>790.0</ele>
        <time>2018-10-03T12:53:47.000Z</time>
      </trkpt>
      <trkpt lat="42.56434667" lon="-8.04932">
        <ele>790.0</ele>
        <time>2018-10-03T12:53:48.000Z</time>
      </trkpt>
      <trkpt lat="42.56435" lon="-8.049335">
        <ele>790.0</ele>
        <time>2018-10-03T12:53:49.000Z</time>
      </trkpt>
      <trkpt lat="42.56435167" lon="-8.04934667">
        <ele>790.0</ele>
        <time>2018-10-03T12:53:50.000Z</time>
      </trkpt>
      <trkpt lat="42.56435333" lon="-8.04936167">
        <ele>789.0</ele>
        <time>2018-10-03T12:53:51.000Z</time>
      </trkpt>
      <trkpt lat="42.56435667" lon="-8.04937667">
        <ele>789.0</ele>
        <time>2018-10-03T12:53:52.000Z</time>
      </trkpt>
      <trkpt lat="42.56436" lon="-8.04939167">
        <ele>789.0</ele>
        <time>2018-10-03T12:53:53.000Z</time>
      </trkpt>
      <trkpt lat="42.56436333" lon="-8.04940333">
        <ele>789.0</ele>
        <time>2018-10-03T12:53:54.000Z</time>
      </trkpt>
      <trkpt lat="42.564365" lon="-8.04941667">
        <ele>789.0</ele>
        <time>2018-10-03T12:53:55.000Z</time>
      </trkpt>
      <trkpt lat="42.56436833" lon="-8.04942833">
        <ele>789.0</ele>
        <time>2018-10-03T12:53:56.000Z</time>
      </trkpt>
      <trkpt lat="42.56437333" lon="-8.04943833">
        <ele>789.0</ele>
        <time>2018-10-03T12:53:57.000Z</time>
      </trkpt>
      <trkpt lat="42.56438" lon="-8.04945">
        <ele>789.0</ele>
        <time>2018-10-03T12:53:58.000Z</time>
      </trkpt>
      <trkpt lat="42.564385" lon="-8.04946">
        <ele>789.0</ele>
        <time>2018-10-03T12:53:59.000Z</time>
      </trkpt>
      <trkpt lat="42.56439167" lon="-8.04947333">
        <ele>789.0</ele>
        <time>2018-10-03T12:54:00.000Z</time>
      </trkpt>
      <trkpt lat="42.56439667" lon="-8.04948">
        <ele>789.0</ele>
        <time>2018-10-03T12:54:01.000Z</time>
      </trkpt>
      <trkpt lat="42.56440167" lon="-8.04948667">
        <ele>789.0</ele>
        <time>2018-10-03T12:54:02.000Z</time>
      </trkpt>
      <trkpt lat="42.56440667" lon="-8.04949167">
        <ele>788.0</ele>
        <time>2018-10-03T12:54:03.000Z</time>
      </trkpt>
      <trkpt lat="42.56441167" lon="-8.04949333">
        <ele>788.0</ele>
        <time>2018-10-03T12:54:04.000Z</time>
      </trkpt>
      <trkpt lat="42.56441667" lon="-8.04949167">
        <ele>788.0</ele>
        <time>2018-10-03T12:54:05.000Z</time>
      </trkpt>
      <trkpt lat="42.56442167" lon="-8.04949333">
        <ele>788.0</ele>
        <time>2018-10-03T12:54:06.000Z</time>
      </trkpt>
      <trkpt lat="42.56442667" lon="-8.04949667">
        <ele>788.0</ele>
        <time>2018-10-03T12:54:07.000Z</time>
      </trkpt>
      <trkpt lat="42.56443333" lon="-8.0495">
        <ele>788.0</ele>
        <time>2018-10-03T12:54:08.000Z</time>
      </trkpt>
      <trkpt lat="42.56444" lon="-8.04950167">
        <ele>788.0</ele>
        <time>2018-10-03T12:54:09.000Z</time>
      </trkpt>
      <trkpt lat="42.56444667" lon="-8.04950333">
        <ele>788.0</ele>
        <time>2018-10-03T12:54:10.000Z</time>
      </trkpt>
      <trkpt lat="42.56445167" lon="-8.04950167">
        <ele>788.0</ele>
        <time>2018-10-03T12:54:11.000Z</time>
      </trkpt>
      <trkpt lat="42.56446" lon="-8.04950167">
        <ele>788.0</ele>
        <time>2018-10-03T12:54:12.000Z</time>
      </trkpt>
      <trkpt lat="42.564465" lon="-8.049505">
        <ele>788.0</ele>
        <time>2018-10-03T12:54:13.000Z</time>
      </trkpt>
      <trkpt lat="42.56447333" lon="-8.04951167">
        <ele>788.0</ele>
        <time>2018-10-03T12:54:14.000Z</time>
      </trkpt>
      <trkpt lat="42.56448167" lon="-8.04951667">
        <ele>788.0</ele>
        <time>2018-10-03T12:54:15.000Z</time>
      </trkpt>
      <trkpt lat="42.56448833" lon="-8.04952167">
        <ele>788.0</ele>
        <time>2018-10-03T12:54:16.000Z</time>
      </trkpt>
      <trkpt lat="42.56449833" lon="-8.04953">
        <ele>788.0</ele>
        <time>2018-10-03T12:54:17.000Z</time>
      </trkpt>
      <trkpt lat="42.56450667" lon="-8.04953833">
        <ele>788.0</ele>
        <time>2018-10-03T12:54:18.000Z</time>
      </trkpt>
      <trkpt lat="42.564515" lon="-8.04954833">
        <ele>787.0</ele>
        <time>2018-10-03T12:54:19.000Z</time>
      </trkpt>
      <trkpt lat="42.56452333" lon="-8.04956">
        <ele>787.0</ele>
        <time>2018-10-03T12:54:20.000Z</time>
      </trkpt>
      <trkpt lat="42.56453" lon="-8.04957833">
        <ele>787.0</ele>
        <time>2018-10-03T12:54:21.000Z</time>
      </trkpt>
      <trkpt lat="42.56453833" lon="-8.04959667">
        <ele>787.0</ele>
        <time>2018-10-03T12:54:22.000Z</time>
      </trkpt>
      <trkpt lat="42.56454667" lon="-8.04961167">
        <ele>787.0</ele>
        <time>2018-10-03T12:54:23.000Z</time>
      </trkpt>
      <trkpt lat="42.56455333" lon="-8.04962167">
        <ele>787.0</ele>
        <time>2018-10-03T12:54:24.000Z</time>
      </trkpt>
      <trkpt lat="42.56456167" lon="-8.04963">
        <ele>787.0</ele>
        <time>2018-10-03T12:54:25.000Z</time>
      </trkpt>
      <trkpt lat="42.56456667" lon="-8.04964">
        <ele>786.0</ele>
        <time>2018-10-03T12:54:26.000Z</time>
      </trkpt>
      <trkpt lat="42.56457333" lon="-8.04964667">
        <ele>786.0</ele>
        <time>2018-10-03T12:54:27.000Z</time>
      </trkpt>
      <trkpt lat="42.56458167" lon="-8.04965167">
        <ele>786.0</ele>
        <time>2018-10-03T12:54:28.000Z</time>
      </trkpt>
      <trkpt lat="42.56459167" lon="-8.04965667">
        <ele>786.0</ele>
        <time>2018-10-03T12:54:29.000Z</time>
      </trkpt>
      <trkpt lat="42.564605" lon="-8.04966167">
        <ele>786.0</ele>
        <time>2018-10-03T12:54:30.000Z</time>
      </trkpt>
      <trkpt lat="42.56461833" lon="-8.04966667">
        <ele>786.0</ele>
        <time>2018-10-03T12:54:31.000Z</time>
      </trkpt>
      <trkpt lat="42.56463" lon="-8.04967167">
        <ele>786.0</ele>
        <time>2018-10-03T12:54:32.000Z</time>
      </trkpt>
      <trkpt lat="42.56464167" lon="-8.04967333">
        <ele>786.0</ele>
        <time>2018-10-03T12:54:33.000Z</time>
      </trkpt>
      <trkpt lat="42.56465667" lon="-8.04968">
        <ele>786.0</ele>
        <time>2018-10-03T12:54:34.000Z</time>
      </trkpt>
      <trkpt lat="42.56467167" lon="-8.04969">
        <ele>786.0</ele>
        <time>2018-10-03T12:54:35.000Z</time>
      </trkpt>
      <trkpt lat="42.56468333" lon="-8.04969667">
        <ele>786.0</ele>
        <time>2018-10-03T12:54:36.000Z</time>
      </trkpt>
      <trkpt lat="42.56469667" lon="-8.049705">
        <ele>786.0</ele>
        <time>2018-10-03T12:54:37.000Z</time>
      </trkpt>
      <trkpt lat="42.56471" lon="-8.04971333">
        <ele>786.0</ele>
        <time>2018-10-03T12:54:38.000Z</time>
      </trkpt>
      <trkpt lat="42.56472333" lon="-8.04972">
        <ele>786.0</ele>
        <time>2018-10-03T12:54:39.000Z</time>
      </trkpt>
      <trkpt lat="42.56473667" lon="-8.04972667">
        <ele>785.0</ele>
        <time>2018-10-03T12:54:40.000Z</time>
      </trkpt>
      <trkpt lat="42.56475167" lon="-8.049735">
        <ele>785.0</ele>
        <time>2018-10-03T12:54:41.000Z</time>
      </trkpt>
      <trkpt lat="42.56476833" lon="-8.049745">
        <ele>785.0</ele>
        <time>2018-10-03T12:54:42.000Z</time>
      </trkpt>
      <trkpt lat="42.56478333" lon="-8.04975167">
        <ele>785.0</ele>
        <time>2018-10-03T12:54:43.000Z</time>
      </trkpt>
      <trkpt lat="42.564795" lon="-8.04976167">
        <ele>785.0</ele>
        <time>2018-10-03T12:54:44.000Z</time>
      </trkpt>
      <trkpt lat="42.56480833" lon="-8.04977">
        <ele>785.0</ele>
        <time>2018-10-03T12:54:45.000Z</time>
      </trkpt>
      <trkpt lat="42.56482" lon="-8.04977667">
        <ele>785.0</ele>
        <time>2018-10-03T12:54:46.000Z</time>
      </trkpt>
      <trkpt lat="42.564835" lon="-8.04978">
        <ele>784.0</ele>
        <time>2018-10-03T12:54:47.000Z</time>
      </trkpt>
      <trkpt lat="42.56484833" lon="-8.04978167">
        <ele>784.0</ele>
        <time>2018-10-03T12:54:48.000Z</time>
      </trkpt>
      <trkpt lat="42.56486333" lon="-8.04978167">
        <ele>784.0</ele>
        <time>2018-10-03T12:54:49.000Z</time>
      </trkpt>
      <trkpt lat="42.56487667" lon="-8.04978">
        <ele>784.0</ele>
        <time>2018-10-03T12:54:50.000Z</time>
      </trkpt>
      <trkpt lat="42.56489167" lon="-8.04977333">
        <ele>784.0</ele>
        <time>2018-10-03T12:54:51.000Z</time>
      </trkpt>
      <trkpt lat="42.56490833" lon="-8.04976667">
        <ele>783.0</ele>
        <time>2018-10-03T12:54:52.000Z</time>
      </trkpt>
      <trkpt lat="42.564925" lon="-8.04975833">
        <ele>783.0</ele>
        <time>2018-10-03T12:54:53.000Z</time>
      </trkpt>
      <trkpt lat="42.56494" lon="-8.04975">
        <ele>783.0</ele>
        <time>2018-10-03T12:54:54.000Z</time>
      </trkpt>
      <trkpt lat="42.564955" lon="-8.04974">
        <ele>783.0</ele>
        <time>2018-10-03T12:54:55.000Z</time>
      </trkpt>
      <trkpt lat="42.56496833" lon="-8.04973">
        <ele>782.0</ele>
        <time>2018-10-03T12:54:56.000Z</time>
      </trkpt>
      <trkpt lat="42.56498" lon="-8.04972167">
        <ele>782.0</ele>
        <time>2018-10-03T12:54:57.000Z</time>
      </trkpt>
      <trkpt lat="42.56499333" lon="-8.04970667">
        <ele>782.0</ele>
        <time>2018-10-03T12:54:58.000Z</time>
      </trkpt>
      <trkpt lat="42.565005" lon="-8.04969167">
        <ele>782.0</ele>
        <time>2018-10-03T12:54:59.000Z</time>
      </trkpt>
      <trkpt lat="42.56501833" lon="-8.04967833">
        <ele>782.0</ele>
        <time>2018-10-03T12:55:00.000Z</time>
      </trkpt>
      <trkpt lat="42.56503" lon="-8.04966333">
        <ele>781.0</ele>
        <time>2018-10-03T12:55:01.000Z</time>
      </trkpt>
      <trkpt lat="42.56504167" lon="-8.04964833">
        <ele>781.0</ele>
        <time>2018-10-03T12:55:02.000Z</time>
      </trkpt>
      <trkpt lat="42.56505333" lon="-8.04963333">
        <ele>781.0</ele>
        <time>2018-10-03T12:55:03.000Z</time>
      </trkpt>
      <trkpt lat="42.56506833" lon="-8.04962167">
        <ele>781.0</ele>
        <time>2018-10-03T12:55:04.000Z</time>
      </trkpt>
      <trkpt lat="42.56508333" lon="-8.04961">
        <ele>780.0</ele>
        <time>2018-10-03T12:55:05.000Z</time>
      </trkpt>
      <trkpt lat="42.5651" lon="-8.04959667">
        <ele>780.0</ele>
        <time>2018-10-03T12:55:06.000Z</time>
      </trkpt>
      <trkpt lat="42.565115" lon="-8.049585">
        <ele>780.0</ele>
        <time>2018-10-03T12:55:07.000Z</time>
      </trkpt>
      <trkpt lat="42.56513167" lon="-8.049575">
        <ele>780.0</ele>
        <time>2018-10-03T12:55:08.000Z</time>
      </trkpt>
      <trkpt lat="42.56514667" lon="-8.04956833">
        <ele>780.0</ele>
        <time>2018-10-03T12:55:09.000Z</time>
      </trkpt>
      <trkpt lat="42.56516167" lon="-8.04956333">
        <ele>780.0</ele>
        <time>2018-10-03T12:55:10.000Z</time>
      </trkpt>
      <trkpt lat="42.56517833" lon="-8.04956">
        <ele>780.0</ele>
        <time>2018-10-03T12:55:11.000Z</time>
      </trkpt>
      <trkpt lat="42.56519167" lon="-8.04955833">
        <ele>779.0</ele>
        <time>2018-10-03T12:55:12.000Z</time>
      </trkpt>
      <trkpt lat="42.56520667" lon="-8.04956">
        <ele>779.0</ele>
        <time>2018-10-03T12:55:13.000Z</time>
      </trkpt>
      <trkpt lat="42.56522" lon="-8.049565">
        <ele>779.0</ele>
        <time>2018-10-03T12:55:14.000Z</time>
      </trkpt>
      <trkpt lat="42.56522833" lon="-8.049575">
        <ele>779.0</ele>
        <time>2018-10-03T12:55:15.000Z</time>
      </trkpt>
      <trkpt lat="42.56523667" lon="-8.04958833">
        <ele>779.0</ele>
        <time>2018-10-03T12:55:16.000Z</time>
      </trkpt>
      <trkpt lat="42.56524333" lon="-8.04960167">
        <ele>778.0</ele>
        <time>2018-10-03T12:55:17.000Z</time>
      </trkpt>
      <trkpt lat="42.56525" lon="-8.04961667">
        <ele>778.0</ele>
        <time>2018-10-03T12:55:18.000Z</time>
      </trkpt>
      <trkpt lat="42.56525667" lon="-8.04963167">
        <ele>778.0</ele>
        <time>2018-10-03T12:55:19.000Z</time>
      </trkpt>
      <trkpt lat="42.56526167" lon="-8.04964833">
        <ele>778.0</ele>
        <time>2018-10-03T12:55:20.000Z</time>
      </trkpt>
      <trkpt lat="42.56526333" lon="-8.04966">
        <ele>777.0</ele>
        <time>2018-10-03T12:55:21.000Z</time>
      </trkpt>
      <trkpt lat="42.56526667" lon="-8.049675">
        <ele>777.0</ele>
        <time>2018-10-03T12:55:22.000Z</time>
      </trkpt>
      <trkpt lat="42.56527" lon="-8.04969333">
        <ele>776.0</ele>
        <time>2018-10-03T12:55:23.000Z</time>
      </trkpt>
      <trkpt lat="42.56527167" lon="-8.049715">
        <ele>776.0</ele>
        <time>2018-10-03T12:55:24.000Z</time>
      </trkpt>
      <trkpt lat="42.56527667" lon="-8.04973667">
        <ele>776.0</ele>
        <time>2018-10-03T12:55:25.000Z</time>
      </trkpt>
      <trkpt lat="42.56528167" lon="-8.04975667">
        <ele>776.0</ele>
        <time>2018-10-03T12:55:26.000Z</time>
      </trkpt>
      <trkpt lat="42.565285" lon="-8.04977667">
        <ele>775.0</ele>
        <time>2018-10-03T12:55:27.000Z</time>
      </trkpt>
      <trkpt lat="42.56529" lon="-8.04979833">
        <ele>775.0</ele>
        <time>2018-10-03T12:55:28.000Z</time>
      </trkpt>
      <trkpt lat="42.56529333" lon="-8.04982">
        <ele>775.0</ele>
        <time>2018-10-03T12:55:29.000Z</time>
      </trkpt>
      <trkpt lat="42.56529333" lon="-8.04984167">
        <ele>775.0</ele>
        <time>2018-10-03T12:55:30.000Z</time>
      </trkpt>
      <trkpt lat="42.565295" lon="-8.04986167">
        <ele>775.0</ele>
        <time>2018-10-03T12:55:31.000Z</time>
      </trkpt>
      <trkpt lat="42.565295" lon="-8.04988">
        <ele>774.0</ele>
        <time>2018-10-03T12:55:32.000Z</time>
      </trkpt>
      <trkpt lat="42.56529333" lon="-8.04989833">
        <ele>774.0</ele>
        <time>2018-10-03T12:55:33.000Z</time>
      </trkpt>
      <trkpt lat="42.56529333" lon="-8.04991667">
        <ele>774.0</ele>
        <time>2018-10-03T12:55:34.000Z</time>
      </trkpt>
      <trkpt lat="42.56529833" lon="-8.04993333">
        <ele>774.0</ele>
        <time>2018-10-03T12:55:35.000Z</time>
      </trkpt>
      <trkpt lat="42.5653" lon="-8.04995333">
        <ele>773.0</ele>
        <time>2018-10-03T12:55:36.000Z</time>
      </trkpt>
      <trkpt lat="42.56530333" lon="-8.049975">
        <ele>773.0</ele>
        <time>2018-10-03T12:55:37.000Z</time>
      </trkpt>
      <trkpt lat="42.565305" lon="-8.04999667">
        <ele>773.0</ele>
        <time>2018-10-03T12:55:38.000Z</time>
      </trkpt>
      <trkpt lat="42.565305" lon="-8.05001833">
        <ele>773.0</ele>
        <time>2018-10-03T12:55:39.000Z</time>
      </trkpt>
      <trkpt lat="42.565305" lon="-8.05004">
        <ele>772.0</ele>
        <time>2018-10-03T12:55:40.000Z</time>
      </trkpt>
      <trkpt lat="42.56530667" lon="-8.05005833">
        <ele>772.0</ele>
        <time>2018-10-03T12:55:41.000Z</time>
      </trkpt>
      <trkpt lat="42.56530667" lon="-8.05006">
        <ele>772.0</ele>
        <time>2018-10-03T12:55:42.000Z</time>
      </trkpt>
      <trkpt lat="42.56530833" lon="-8.05006">
        <ele>772.0</ele>
        <time>2018-10-03T12:55:43.000Z</time>
      </trkpt>
      <trkpt lat="42.56530667" lon="-8.05005833">
        <ele>772.0</ele>
        <time>2018-10-03T12:55:44.000Z</time>
      </trkpt>
      <trkpt lat="42.56530667" lon="-8.05006333">
        <ele>772.0</ele>
        <time>2018-10-03T12:55:45.000Z</time>
      </trkpt>
      <trkpt lat="42.56530833" lon="-8.050075">
        <ele>771.0</ele>
        <time>2018-10-03T12:55:46.000Z</time>
      </trkpt>
      <trkpt lat="42.56531" lon="-8.05009">
        <ele>771.0</ele>
        <time>2018-10-03T12:55:47.000Z</time>
      </trkpt>
      <trkpt lat="42.56531333" lon="-8.050105">
        <ele>771.0</ele>
        <time>2018-10-03T12:55:48.000Z</time>
      </trkpt>
      <trkpt lat="42.565315" lon="-8.05012333">
        <ele>771.0</ele>
        <time>2018-10-03T12:55:49.000Z</time>
      </trkpt>
      <trkpt lat="42.56531833" lon="-8.05014">
        <ele>771.0</ele>
        <time>2018-10-03T12:55:50.000Z</time>
      </trkpt>
      <trkpt lat="42.56532" lon="-8.05015667">
        <ele>771.0</ele>
        <time>2018-10-03T12:55:51.000Z</time>
      </trkpt>
      <trkpt lat="42.565325" lon="-8.050175">
        <ele>770.0</ele>
        <time>2018-10-03T12:55:52.000Z</time>
      </trkpt>
      <trkpt lat="42.56533" lon="-8.050195">
        <ele>770.0</ele>
        <time>2018-10-03T12:55:53.000Z</time>
      </trkpt>
      <trkpt lat="42.565335" lon="-8.050215">
        <ele>770.0</ele>
        <time>2018-10-03T12:55:54.000Z</time>
      </trkpt>
      <trkpt lat="42.56534" lon="-8.050235">
        <ele>770.0</ele>
        <time>2018-10-03T12:55:55.000Z</time>
      </trkpt>
      <trkpt lat="42.565345" lon="-8.050255">
        <ele>769.0</ele>
        <time>2018-10-03T12:55:56.000Z</time>
      </trkpt>
      <trkpt lat="42.56535" lon="-8.050275">
        <ele>769.0</ele>
        <time>2018-10-03T12:55:57.000Z</time>
      </trkpt>
      <trkpt lat="42.56535333" lon="-8.05029333">
        <ele>769.0</ele>
        <time>2018-10-03T12:55:58.000Z</time>
      </trkpt>
      <trkpt lat="42.56535833" lon="-8.05031167">
        <ele>768.0</ele>
        <time>2018-10-03T12:55:59.000Z</time>
      </trkpt>
      <trkpt lat="42.56536" lon="-8.05032833">
        <ele>768.0</ele>
        <time>2018-10-03T12:56:00.000Z</time>
      </trkpt>
      <trkpt lat="42.56536333" lon="-8.050345">
        <ele>768.0</ele>
        <time>2018-10-03T12:56:01.000Z</time>
      </trkpt>
      <trkpt lat="42.56537" lon="-8.05036333">
        <ele>768.0</ele>
        <time>2018-10-03T12:56:02.000Z</time>
      </trkpt>
      <trkpt lat="42.565375" lon="-8.05038167">
        <ele>768.0</ele>
        <time>2018-10-03T12:56:03.000Z</time>
      </trkpt>
      <trkpt lat="42.56537833" lon="-8.0504">
        <ele>767.0</ele>
        <time>2018-10-03T12:56:04.000Z</time>
      </trkpt>
      <trkpt lat="42.56538" lon="-8.050415">
        <ele>767.0</ele>
        <time>2018-10-03T12:56:05.000Z</time>
      </trkpt>
      <trkpt lat="42.565385" lon="-8.05043333">
        <ele>767.0</ele>
        <time>2018-10-03T12:56:06.000Z</time>
      </trkpt>
      <trkpt lat="42.56539" lon="-8.05045333">
        <ele>766.0</ele>
        <time>2018-10-03T12:56:07.000Z</time>
      </trkpt>
      <trkpt lat="42.565395" lon="-8.05047333">
        <ele>766.0</ele>
        <time>2018-10-03T12:56:08.000Z</time>
      </trkpt>
      <trkpt lat="42.565395" lon="-8.05049333">
        <ele>766.0</ele>
        <time>2018-10-03T12:56:09.000Z</time>
      </trkpt>
      <trkpt lat="42.56539833" lon="-8.05051">
        <ele>765.0</ele>
        <time>2018-10-03T12:56:10.000Z</time>
      </trkpt>
      <trkpt lat="42.56540167" lon="-8.05052833">
        <ele>765.0</ele>
        <time>2018-10-03T12:56:11.000Z</time>
      </trkpt>
      <trkpt lat="42.56540667" lon="-8.05054333">
        <ele>765.0</ele>
        <time>2018-10-03T12:56:12.000Z</time>
      </trkpt>
      <trkpt lat="42.56541333" lon="-8.05056">
        <ele>765.0</ele>
        <time>2018-10-03T12:56:13.000Z</time>
      </trkpt>
      <trkpt lat="42.56542" lon="-8.05057667">
        <ele>764.0</ele>
        <time>2018-10-03T12:56:14.000Z</time>
      </trkpt>
      <trkpt lat="42.56542333" lon="-8.05059167">
        <ele>764.0</ele>
        <time>2018-10-03T12:56:15.000Z</time>
      </trkpt>
      <trkpt lat="42.56542333" lon="-8.05060833">
        <ele>764.0</ele>
        <time>2018-10-03T12:56:16.000Z</time>
      </trkpt>
      <trkpt lat="42.565425" lon="-8.050625">
        <ele>764.0</ele>
        <time>2018-10-03T12:56:17.000Z</time>
      </trkpt>
      <trkpt lat="42.565425" lon="-8.05063833">
        <ele>764.0</ele>
        <time>2018-10-03T12:56:18.000Z</time>
      </trkpt>
      <trkpt lat="42.565425" lon="-8.050655">
        <ele>764.0</ele>
        <time>2018-10-03T12:56:19.000Z</time>
      </trkpt>
      <trkpt lat="42.56542667" lon="-8.05067333">
        <ele>763.0</ele>
        <time>2018-10-03T12:56:20.000Z</time>
      </trkpt>
      <trkpt lat="42.56543" lon="-8.05069167">
        <ele>763.0</ele>
        <time>2018-10-03T12:56:21.000Z</time>
      </trkpt>
      <trkpt lat="42.56543" lon="-8.05070333">
        <ele>763.0</ele>
        <time>2018-10-03T12:56:22.000Z</time>
      </trkpt>
      <trkpt lat="42.56543" lon="-8.05070667">
        <ele>763.0</ele>
        <time>2018-10-03T12:56:23.000Z</time>
      </trkpt>
      <trkpt lat="42.56543" lon="-8.05070667">
        <ele>763.0</ele>
        <time>2018-10-03T12:56:24.000Z</time>
      </trkpt>
      <trkpt lat="42.56543" lon="-8.05070667">
        <ele>763.0</ele>
        <time>2018-10-03T12:56:25.000Z</time>
      </trkpt>
      <trkpt lat="42.56543167" lon="-8.05070833">
        <ele>763.0</ele>
        <time>2018-10-03T12:56:26.000Z</time>
      </trkpt>
      <trkpt lat="42.56543167" lon="-8.05071">
        <ele>763.0</ele>
        <time>2018-10-03T12:56:27.000Z</time>
      </trkpt>
      <trkpt lat="42.56543167" lon="-8.05071">
        <ele>763.0</ele>
        <time>2018-10-03T12:56:28.000Z</time>
      </trkpt>
      <trkpt lat="42.565435" lon="-8.05071667">
        <ele>763.0</ele>
        <time>2018-10-03T12:56:29.000Z</time>
      </trkpt>
      <trkpt lat="42.56543833" lon="-8.050725">
        <ele>763.0</ele>
        <time>2018-10-03T12:56:30.000Z</time>
      </trkpt>
      <trkpt lat="42.56544167" lon="-8.05073833">
        <ele>763.0</ele>
        <time>2018-10-03T12:56:31.000Z</time>
      </trkpt>
      <trkpt lat="42.56544333" lon="-8.05075333">
        <ele>762.0</ele>
        <time>2018-10-03T12:56:32.000Z</time>
      </trkpt>
      <trkpt lat="42.565445" lon="-8.05077">
        <ele>762.0</ele>
        <time>2018-10-03T12:56:33.000Z</time>
      </trkpt>
      <trkpt lat="42.565445" lon="-8.05078667">
        <ele>762.0</ele>
        <time>2018-10-03T12:56:34.000Z</time>
      </trkpt>
      <trkpt lat="42.565445" lon="-8.05080333">
        <ele>762.0</ele>
        <time>2018-10-03T12:56:35.000Z</time>
      </trkpt>
      <trkpt lat="42.56544667" lon="-8.05082167">
        <ele>762.0</ele>
        <time>2018-10-03T12:56:36.000Z</time>
      </trkpt>
      <trkpt lat="42.56545" lon="-8.05084">
        <ele>762.0</ele>
        <time>2018-10-03T12:56:37.000Z</time>
      </trkpt>
      <trkpt lat="42.56545167" lon="-8.05085833">
        <ele>762.0</ele>
        <time>2018-10-03T12:56:38.000Z</time>
      </trkpt>
      <trkpt lat="42.565455" lon="-8.05087833">
        <ele>761.0</ele>
        <time>2018-10-03T12:56:39.000Z</time>
      </trkpt>
      <trkpt lat="42.56545667" lon="-8.0509">
        <ele>761.0</ele>
        <time>2018-10-03T12:56:40.000Z</time>
      </trkpt>
      <trkpt lat="42.56546" lon="-8.05092167">
        <ele>761.0</ele>
        <time>2018-10-03T12:56:41.000Z</time>
      </trkpt>
      <trkpt lat="42.565465" lon="-8.05094333">
        <ele>761.0</ele>
        <time>2018-10-03T12:56:42.000Z</time>
      </trkpt>
      <trkpt lat="42.56546833" lon="-8.05096333">
        <ele>761.0</ele>
        <time>2018-10-03T12:56:43.000Z</time>
      </trkpt>
      <trkpt lat="42.56547167" lon="-8.05098167">
        <ele>761.0</ele>
        <time>2018-10-03T12:56:44.000Z</time>
      </trkpt>
      <trkpt lat="42.56547667" lon="-8.051005">
        <ele>760.0</ele>
        <time>2018-10-03T12:56:45.000Z</time>
      </trkpt>
      <trkpt lat="42.565485" lon="-8.051025">
        <ele>760.0</ele>
        <time>2018-10-03T12:56:46.000Z</time>
      </trkpt>
      <trkpt lat="42.56549" lon="-8.05104167">
        <ele>760.0</ele>
        <time>2018-10-03T12:56:47.000Z</time>
      </trkpt>
      <trkpt lat="42.56549667" lon="-8.05105833">
        <ele>759.0</ele>
        <time>2018-10-03T12:56:48.000Z</time>
      </trkpt>
      <trkpt lat="42.56550167" lon="-8.051075">
        <ele>759.0</ele>
        <time>2018-10-03T12:56:49.000Z</time>
      </trkpt>
      <trkpt lat="42.565505" lon="-8.05109167">
        <ele>759.0</ele>
        <time>2018-10-03T12:56:50.000Z</time>
      </trkpt>
      <trkpt lat="42.56551" lon="-8.05111">
        <ele>759.0</ele>
        <time>2018-10-03T12:56:51.000Z</time>
      </trkpt>
      <trkpt lat="42.56551333" lon="-8.05112833">
        <ele>759.0</ele>
        <time>2018-10-03T12:56:52.000Z</time>
      </trkpt>
      <trkpt lat="42.56552" lon="-8.05114833">
        <ele>759.0</ele>
        <time>2018-10-03T12:56:53.000Z</time>
      </trkpt>
      <trkpt lat="42.565525" lon="-8.05116833">
        <ele>758.0</ele>
        <time>2018-10-03T12:56:54.000Z</time>
      </trkpt>
      <trkpt lat="42.56552833" lon="-8.05118667">
        <ele>758.0</ele>
        <time>2018-10-03T12:56:55.000Z</time>
      </trkpt>
      <trkpt lat="42.56553667" lon="-8.05120333">
        <ele>758.0</ele>
        <time>2018-10-03T12:56:56.000Z</time>
      </trkpt>
      <trkpt lat="42.565545" lon="-8.051215">
        <ele>758.0</ele>
        <time>2018-10-03T12:56:57.000Z</time>
      </trkpt>
      <trkpt lat="42.56555667" lon="-8.05121833">
        <ele>758.0</ele>
        <time>2018-10-03T12:56:58.000Z</time>
      </trkpt>
      <trkpt lat="42.56557" lon="-8.05121">
        <ele>757.0</ele>
        <time>2018-10-03T12:56:59.000Z</time>
      </trkpt>
      <trkpt lat="42.56558" lon="-8.05119333">
        <ele>757.0</ele>
        <time>2018-10-03T12:57:00.000Z</time>
      </trkpt>
      <trkpt lat="42.56558833" lon="-8.05117667">
        <ele>757.0</ele>
        <time>2018-10-03T12:57:01.000Z</time>
      </trkpt>
      <trkpt lat="42.565595" lon="-8.05115667">
        <ele>757.0</ele>
        <time>2018-10-03T12:57:02.000Z</time>
      </trkpt>
      <trkpt lat="42.56560333" lon="-8.05113667">
        <ele>757.0</ele>
        <time>2018-10-03T12:57:03.000Z</time>
      </trkpt>
      <trkpt lat="42.56561333" lon="-8.05112333">
        <ele>757.0</ele>
        <time>2018-10-03T12:57:04.000Z</time>
      </trkpt>
      <trkpt lat="42.56562167" lon="-8.05111">
        <ele>756.0</ele>
        <time>2018-10-03T12:57:05.000Z</time>
      </trkpt>
      <trkpt lat="42.56563333" lon="-8.05109833">
        <ele>756.0</ele>
        <time>2018-10-03T12:57:06.000Z</time>
      </trkpt>
      <trkpt lat="42.56564333" lon="-8.05108833">
        <ele>756.0</ele>
        <time>2018-10-03T12:57:07.000Z</time>
      </trkpt>
      <trkpt lat="42.56565833" lon="-8.05108167">
        <ele>756.0</ele>
        <time>2018-10-03T12:57:08.000Z</time>
      </trkpt>
      <trkpt lat="42.565675" lon="-8.051075">
        <ele>756.0</ele>
        <time>2018-10-03T12:57:09.000Z</time>
      </trkpt>
      <trkpt lat="42.56569167" lon="-8.05107">
        <ele>756.0</ele>
        <time>2018-10-03T12:57:10.000Z</time>
      </trkpt>
      <trkpt lat="42.56570833" lon="-8.05106">
        <ele>756.0</ele>
        <time>2018-10-03T12:57:11.000Z</time>
      </trkpt>
      <trkpt lat="42.56572333" lon="-8.05104667">
        <ele>756.0</ele>
        <time>2018-10-03T12:57:12.000Z</time>
      </trkpt>
      <trkpt lat="42.56573833" lon="-8.05103">
        <ele>756.0</ele>
        <time>2018-10-03T12:57:13.000Z</time>
      </trkpt>
      <trkpt lat="42.56575167" lon="-8.05101167">
        <ele>756.0</ele>
        <time>2018-10-03T12:57:14.000Z</time>
      </trkpt>
      <trkpt lat="42.56576167" lon="-8.050995">
        <ele>756.0</ele>
        <time>2018-10-03T12:57:15.000Z</time>
      </trkpt>
      <trkpt lat="42.56577" lon="-8.050975">
        <ele>756.0</ele>
        <time>2018-10-03T12:57:16.000Z</time>
      </trkpt>
      <trkpt lat="42.56577667" lon="-8.050955">
        <ele>755.0</ele>
        <time>2018-10-03T12:57:17.000Z</time>
      </trkpt>
      <trkpt lat="42.56578333" lon="-8.05093333">
        <ele>755.0</ele>
        <time>2018-10-03T12:57:18.000Z</time>
      </trkpt>
      <trkpt lat="42.56579" lon="-8.05091167">
        <ele>755.0</ele>
        <time>2018-10-03T12:57:19.000Z</time>
      </trkpt>
      <trkpt lat="42.56579667" lon="-8.05089167">
        <ele>755.0</ele>
        <time>2018-10-03T12:57:20.000Z</time>
      </trkpt>
      <trkpt lat="42.56580167" lon="-8.05087">
        <ele>755.0</ele>
        <time>2018-10-03T12:57:21.000Z</time>
      </trkpt>
      <trkpt lat="42.56580833" lon="-8.05084833">
        <ele>755.0</ele>
        <time>2018-10-03T12:57:22.000Z</time>
      </trkpt>
      <trkpt lat="42.56581333" lon="-8.05082833">
        <ele>755.0</ele>
        <time>2018-10-03T12:57:23.000Z</time>
      </trkpt>
      <trkpt lat="42.56582167" lon="-8.05080833">
        <ele>755.0</ele>
        <time>2018-10-03T12:57:24.000Z</time>
      </trkpt>
      <trkpt lat="42.56582833" lon="-8.050785">
        <ele>755.0</ele>
        <time>2018-10-03T12:57:25.000Z</time>
      </trkpt>
      <trkpt lat="42.56583667" lon="-8.050765">
        <ele>754.0</ele>
        <time>2018-10-03T12:57:26.000Z</time>
      </trkpt>
      <trkpt lat="42.56584333" lon="-8.05074333">
        <ele>754.0</ele>
        <time>2018-10-03T12:57:27.000Z</time>
      </trkpt>
      <trkpt lat="42.56585167" lon="-8.050725">
        <ele>754.0</ele>
        <time>2018-10-03T12:57:28.000Z</time>
      </trkpt>
      <trkpt lat="42.56586" lon="-8.05071167">
        <ele>754.0</ele>
        <time>2018-10-03T12:57:29.000Z</time>
      </trkpt>
      <trkpt lat="42.56587" lon="-8.050695">
        <ele>754.0</ele>
        <time>2018-10-03T12:57:30.000Z</time>
      </trkpt>
      <trkpt lat="42.56588" lon="-8.050675">
        <ele>754.0</ele>
        <time>2018-10-03T12:57:31.000Z</time>
      </trkpt>
      <trkpt lat="42.56589" lon="-8.050655">
        <ele>754.0</ele>
        <time>2018-10-03T12:57:32.000Z</time>
      </trkpt>
      <trkpt lat="42.56590167" lon="-8.050635">
        <ele>753.0</ele>
        <time>2018-10-03T12:57:33.000Z</time>
      </trkpt>
      <trkpt lat="42.56591333" lon="-8.05061333">
        <ele>753.0</ele>
        <time>2018-10-03T12:57:34.000Z</time>
      </trkpt>
      <trkpt lat="42.56592" lon="-8.05059">
        <ele>753.0</ele>
        <time>2018-10-03T12:57:35.000Z</time>
      </trkpt>
      <trkpt lat="42.565925" lon="-8.05057">
        <ele>753.0</ele>
        <time>2018-10-03T12:57:36.000Z</time>
      </trkpt>
      <trkpt lat="42.56593" lon="-8.05055">
        <ele>753.0</ele>
        <time>2018-10-03T12:57:37.000Z</time>
      </trkpt>
      <trkpt lat="42.565935" lon="-8.05053167">
        <ele>753.0</ele>
        <time>2018-10-03T12:57:38.000Z</time>
      </trkpt>
      <trkpt lat="42.56593833" lon="-8.05051667">
        <ele>753.0</ele>
        <time>2018-10-03T12:57:39.000Z</time>
      </trkpt>
      <trkpt lat="42.56594333" lon="-8.05050167">
        <ele>753.0</ele>
        <time>2018-10-03T12:57:40.000Z</time>
      </trkpt>
      <trkpt lat="42.56594833" lon="-8.05048667">
        <ele>753.0</ele>
        <time>2018-10-03T12:57:41.000Z</time>
      </trkpt>
      <trkpt lat="42.565955" lon="-8.05047">
        <ele>753.0</ele>
        <time>2018-10-03T12:57:42.000Z</time>
      </trkpt>
      <trkpt lat="42.56596333" lon="-8.05045333">
        <ele>752.0</ele>
        <time>2018-10-03T12:57:43.000Z</time>
      </trkpt>
      <trkpt lat="42.56597167" lon="-8.05043333">
        <ele>752.0</ele>
        <time>2018-10-03T12:57:44.000Z</time>
      </trkpt>
      <trkpt lat="42.56598167" lon="-8.050415">
        <ele>752.0</ele>
        <time>2018-10-03T12:57:45.000Z</time>
      </trkpt>
      <trkpt lat="42.56599167" lon="-8.05039167">
        <ele>752.0</ele>
        <time>2018-10-03T12:57:46.000Z</time>
      </trkpt>
      <trkpt lat="42.56600167" lon="-8.05037">
        <ele>752.0</ele>
        <time>2018-10-03T12:57:47.000Z</time>
      </trkpt>
      <trkpt lat="42.56601" lon="-8.05035167">
        <ele>753.0</ele>
        <time>2018-10-03T12:57:48.000Z</time>
      </trkpt>
      <trkpt lat="42.56601833" lon="-8.05033">
        <ele>753.0</ele>
        <time>2018-10-03T12:57:49.000Z</time>
      </trkpt>
      <trkpt lat="42.566025" lon="-8.05031333">
        <ele>753.0</ele>
        <time>2018-10-03T12:57:50.000Z</time>
      </trkpt>
      <trkpt lat="42.56603333" lon="-8.050295">
        <ele>753.0</ele>
        <time>2018-10-03T12:57:51.000Z</time>
      </trkpt>
      <trkpt lat="42.56604" lon="-8.05027833">
        <ele>753.0</ele>
        <time>2018-10-03T12:57:52.000Z</time>
      </trkpt>
      <trkpt lat="42.56604833" lon="-8.05025667">
        <ele>753.0</ele>
        <time>2018-10-03T12:57:53.000Z</time>
      </trkpt>
      <trkpt lat="42.566055" lon="-8.050235">
        <ele>753.0</ele>
        <time>2018-10-03T12:57:54.000Z</time>
      </trkpt>
      <trkpt lat="42.56606" lon="-8.05021333">
        <ele>753.0</ele>
        <time>2018-10-03T12:57:55.000Z</time>
      </trkpt>
      <trkpt lat="42.56606667" lon="-8.05019167">
        <ele>753.0</ele>
        <time>2018-10-03T12:57:56.000Z</time>
      </trkpt>
      <trkpt lat="42.56607167" lon="-8.05017167">
        <ele>753.0</ele>
        <time>2018-10-03T12:57:57.000Z</time>
      </trkpt>
      <trkpt lat="42.56607667" lon="-8.05015">
        <ele>753.0</ele>
        <time>2018-10-03T12:57:58.000Z</time>
      </trkpt>
      <trkpt lat="42.56608167" lon="-8.05012833">
        <ele>753.0</ele>
        <time>2018-10-03T12:57:59.000Z</time>
      </trkpt>
      <trkpt lat="42.566085" lon="-8.05010833">
        <ele>753.0</ele>
        <time>2018-10-03T12:58:00.000Z</time>
      </trkpt>
      <trkpt lat="42.56609" lon="-8.05008667">
        <ele>753.0</ele>
        <time>2018-10-03T12:58:01.000Z</time>
      </trkpt>
      <trkpt lat="42.566095" lon="-8.05006667">
        <ele>753.0</ele>
        <time>2018-10-03T12:58:02.000Z</time>
      </trkpt>
      <trkpt lat="42.5661" lon="-8.05004667">
        <ele>753.0</ele>
        <time>2018-10-03T12:58:03.000Z</time>
      </trkpt>
      <trkpt lat="42.56610333" lon="-8.05002667">
        <ele>753.0</ele>
        <time>2018-10-03T12:58:04.000Z</time>
      </trkpt>
      <trkpt lat="42.56610833" lon="-8.050005">
        <ele>753.0</ele>
        <time>2018-10-03T12:58:05.000Z</time>
      </trkpt>
      <trkpt lat="42.566115" lon="-8.04998667">
        <ele>753.0</ele>
        <time>2018-10-03T12:58:06.000Z</time>
      </trkpt>
      <trkpt lat="42.566125" lon="-8.04996667">
        <ele>753.0</ele>
        <time>2018-10-03T12:58:07.000Z</time>
      </trkpt>
      <trkpt lat="42.56613333" lon="-8.04994667">
        <ele>753.0</ele>
        <time>2018-10-03T12:58:08.000Z</time>
      </trkpt>
      <trkpt lat="42.56614333" lon="-8.04992833">
        <ele>753.0</ele>
        <time>2018-10-03T12:58:09.000Z</time>
      </trkpt>
      <trkpt lat="42.56614833" lon="-8.04990833">
        <ele>753.0</ele>
        <time>2018-10-03T12:58:10.000Z</time>
      </trkpt>
      <trkpt lat="42.566155" lon="-8.04988833">
        <ele>753.0</ele>
        <time>2018-10-03T12:58:11.000Z</time>
      </trkpt>
      <trkpt lat="42.56616" lon="-8.04987167">
        <ele>753.0</ele>
        <time>2018-10-03T12:58:12.000Z</time>
      </trkpt>
      <trkpt lat="42.56616667" lon="-8.049855">
        <ele>753.0</ele>
        <time>2018-10-03T12:58:13.000Z</time>
      </trkpt>
      <trkpt lat="42.56617333" lon="-8.04984">
        <ele>753.0</ele>
        <time>2018-10-03T12:58:14.000Z</time>
      </trkpt>
      <trkpt lat="42.56618" lon="-8.04982167">
        <ele>753.0</ele>
        <time>2018-10-03T12:58:15.000Z</time>
      </trkpt>
      <trkpt lat="42.566185" lon="-8.049805">
        <ele>753.0</ele>
        <time>2018-10-03T12:58:16.000Z</time>
      </trkpt>
      <trkpt lat="42.56619" lon="-8.04978333">
        <ele>754.0</ele>
        <time>2018-10-03T12:58:17.000Z</time>
      </trkpt>
      <trkpt lat="42.56619667" lon="-8.04976333">
        <ele>754.0</ele>
        <time>2018-10-03T12:58:18.000Z</time>
      </trkpt>
      <trkpt lat="42.56620167" lon="-8.04974833">
        <ele>754.0</ele>
        <time>2018-10-03T12:58:19.000Z</time>
      </trkpt>
      <trkpt lat="42.56620667" lon="-8.04972667">
        <ele>754.0</ele>
        <time>2018-10-03T12:58:20.000Z</time>
      </trkpt>
      <trkpt lat="42.56621167" lon="-8.04970667">
        <ele>754.0</ele>
        <time>2018-10-03T12:58:21.000Z</time>
      </trkpt>
      <trkpt lat="42.56621833" lon="-8.049685">
        <ele>754.0</ele>
        <time>2018-10-03T12:58:22.000Z</time>
      </trkpt>
      <trkpt lat="42.566225" lon="-8.049665">
        <ele>754.0</ele>
        <time>2018-10-03T12:58:23.000Z</time>
      </trkpt>
      <trkpt lat="42.56623167" lon="-8.04964333">
        <ele>754.0</ele>
        <time>2018-10-03T12:58:24.000Z</time>
      </trkpt>
      <trkpt lat="42.56623667" lon="-8.04962333">
        <ele>754.0</ele>
        <time>2018-10-03T12:58:25.000Z</time>
      </trkpt>
      <trkpt lat="42.56624167" lon="-8.04960667">
        <ele>754.0</ele>
        <time>2018-10-03T12:58:26.000Z</time>
      </trkpt>
      <trkpt lat="42.56624667" lon="-8.04958667">
        <ele>754.0</ele>
        <time>2018-10-03T12:58:27.000Z</time>
      </trkpt>
      <trkpt lat="42.56625" lon="-8.04956333">
        <ele>754.0</ele>
        <time>2018-10-03T12:58:28.000Z</time>
      </trkpt>
      <trkpt lat="42.56625667" lon="-8.04954667">
        <ele>754.0</ele>
        <time>2018-10-03T12:58:29.000Z</time>
      </trkpt>
      <trkpt lat="42.56626167" lon="-8.04952667">
        <ele>755.0</ele>
        <time>2018-10-03T12:58:30.000Z</time>
      </trkpt>
      <trkpt lat="42.56626667" lon="-8.04950667">
        <ele>754.0</ele>
        <time>2018-10-03T12:58:31.000Z</time>
      </trkpt>
      <trkpt lat="42.56627167" lon="-8.04948667">
        <ele>754.0</ele>
        <time>2018-10-03T12:58:32.000Z</time>
      </trkpt>
      <trkpt lat="42.56627833" lon="-8.04946833">
        <ele>754.0</ele>
        <time>2018-10-03T12:58:33.000Z</time>
      </trkpt>
      <trkpt lat="42.56628333" lon="-8.04944833">
        <ele>754.0</ele>
        <time>2018-10-03T12:58:34.000Z</time>
      </trkpt>
      <trkpt lat="42.56628833" lon="-8.04942833">
        <ele>754.0</ele>
        <time>2018-10-03T12:58:35.000Z</time>
      </trkpt>
      <trkpt lat="42.56629167" lon="-8.04940833">
        <ele>754.0</ele>
        <time>2018-10-03T12:58:36.000Z</time>
      </trkpt>
      <trkpt lat="42.56629667" lon="-8.04938833">
        <ele>754.0</ele>
        <time>2018-10-03T12:58:37.000Z</time>
      </trkpt>
      <trkpt lat="42.56630167" lon="-8.04937">
        <ele>754.0</ele>
        <time>2018-10-03T12:58:38.000Z</time>
      </trkpt>
      <trkpt lat="42.56630667" lon="-8.04935">
        <ele>754.0</ele>
        <time>2018-10-03T12:58:39.000Z</time>
      </trkpt>
      <trkpt lat="42.56631" lon="-8.04933">
        <ele>754.0</ele>
        <time>2018-10-03T12:58:40.000Z</time>
      </trkpt>
      <trkpt lat="42.56631667" lon="-8.04931">
        <ele>754.0</ele>
        <time>2018-10-03T12:58:41.000Z</time>
      </trkpt>
      <trkpt lat="42.56632" lon="-8.04929">
        <ele>754.0</ele>
        <time>2018-10-03T12:58:42.000Z</time>
      </trkpt>
      <trkpt lat="42.566325" lon="-8.04927">
        <ele>754.0</ele>
        <time>2018-10-03T12:58:43.000Z</time>
      </trkpt>
      <trkpt lat="42.56633" lon="-8.04925">
        <ele>754.0</ele>
        <time>2018-10-03T12:58:44.000Z</time>
      </trkpt>
      <trkpt lat="42.56633333" lon="-8.04923">
        <ele>754.0</ele>
        <time>2018-10-03T12:58:45.000Z</time>
      </trkpt>
      <trkpt lat="42.56633667" lon="-8.04920833">
        <ele>754.0</ele>
        <time>2018-10-03T12:58:46.000Z</time>
      </trkpt>
      <trkpt lat="42.56633833" lon="-8.04918833">
        <ele>754.0</ele>
        <time>2018-10-03T12:58:47.000Z</time>
      </trkpt>
      <trkpt lat="42.56634167" lon="-8.04916833">
        <ele>754.0</ele>
        <time>2018-10-03T12:58:48.000Z</time>
      </trkpt>
      <trkpt lat="42.566345" lon="-8.04914833">
        <ele>754.0</ele>
        <time>2018-10-03T12:58:49.000Z</time>
      </trkpt>
      <trkpt lat="42.56634833" lon="-8.049125">
        <ele>754.0</ele>
        <time>2018-10-03T12:58:50.000Z</time>
      </trkpt>
      <trkpt lat="42.56635" lon="-8.04910333">
        <ele>754.0</ele>
        <time>2018-10-03T12:58:51.000Z</time>
      </trkpt>
      <trkpt lat="42.56635167" lon="-8.04908333">
        <ele>754.0</ele>
        <time>2018-10-03T12:58:52.000Z</time>
      </trkpt>
      <trkpt lat="42.566355" lon="-8.04906167">
        <ele>754.0</ele>
        <time>2018-10-03T12:58:53.000Z</time>
      </trkpt>
      <trkpt lat="42.56635833" lon="-8.04904167">
        <ele>754.0</ele>
        <time>2018-10-03T12:58:54.000Z</time>
      </trkpt>
      <trkpt lat="42.56636167" lon="-8.04902167">
        <ele>754.0</ele>
        <time>2018-10-03T12:58:55.000Z</time>
      </trkpt>
      <trkpt lat="42.56636333" lon="-8.04900333">
        <ele>754.0</ele>
        <time>2018-10-03T12:58:56.000Z</time>
      </trkpt>
      <trkpt lat="42.566365" lon="-8.04898333">
        <ele>754.0</ele>
        <time>2018-10-03T12:58:57.000Z</time>
      </trkpt>
      <trkpt lat="42.56636667" lon="-8.048965">
        <ele>754.0</ele>
        <time>2018-10-03T12:58:58.000Z</time>
      </trkpt>
      <trkpt lat="42.56637" lon="-8.04894833">
        <ele>754.0</ele>
        <time>2018-10-03T12:58:59.000Z</time>
      </trkpt>
      <trkpt lat="42.56637" lon="-8.048925">
        <ele>754.0</ele>
        <time>2018-10-03T12:59:00.000Z</time>
      </trkpt>
      <trkpt lat="42.56637167" lon="-8.048905">
        <ele>754.0</ele>
        <time>2018-10-03T12:59:01.000Z</time>
      </trkpt>
      <trkpt lat="42.56637333" lon="-8.048885">
        <ele>754.0</ele>
        <time>2018-10-03T12:59:02.000Z</time>
      </trkpt>
      <trkpt lat="42.566375" lon="-8.04886333">
        <ele>754.0</ele>
        <time>2018-10-03T12:59:03.000Z</time>
      </trkpt>
      <trkpt lat="42.56637667" lon="-8.04884167">
        <ele>754.0</ele>
        <time>2018-10-03T12:59:04.000Z</time>
      </trkpt>
      <trkpt lat="42.566375" lon="-8.04882167">
        <ele>753.0</ele>
        <time>2018-10-03T12:59:05.000Z</time>
      </trkpt>
      <trkpt lat="42.566375" lon="-8.04879833">
        <ele>753.0</ele>
        <time>2018-10-03T12:59:06.000Z</time>
      </trkpt>
      <trkpt lat="42.56637333" lon="-8.04877833">
        <ele>753.0</ele>
        <time>2018-10-03T12:59:07.000Z</time>
      </trkpt>
      <trkpt lat="42.56637333" lon="-8.048755">
        <ele>753.0</ele>
        <time>2018-10-03T12:59:08.000Z</time>
      </trkpt>
      <trkpt lat="42.56637" lon="-8.048735">
        <ele>753.0</ele>
        <time>2018-10-03T12:59:09.000Z</time>
      </trkpt>
      <trkpt lat="42.56636833" lon="-8.048715">
        <ele>753.0</ele>
        <time>2018-10-03T12:59:10.000Z</time>
      </trkpt>
      <trkpt lat="42.56636833" lon="-8.04869333">
        <ele>753.0</ele>
        <time>2018-10-03T12:59:11.000Z</time>
      </trkpt>
      <trkpt lat="42.566365" lon="-8.04867">
        <ele>753.0</ele>
        <time>2018-10-03T12:59:12.000Z</time>
      </trkpt>
      <trkpt lat="42.56636167" lon="-8.04865">
        <ele>753.0</ele>
        <time>2018-10-03T12:59:13.000Z</time>
      </trkpt>
      <trkpt lat="42.56636" lon="-8.04863">
        <ele>753.0</ele>
        <time>2018-10-03T12:59:14.000Z</time>
      </trkpt>
      <trkpt lat="42.56635667" lon="-8.04861">
        <ele>753.0</ele>
        <time>2018-10-03T12:59:15.000Z</time>
      </trkpt>
      <trkpt lat="42.56635667" lon="-8.04859">
        <ele>753.0</ele>
        <time>2018-10-03T12:59:16.000Z</time>
      </trkpt>
      <trkpt lat="42.56635667" lon="-8.04856833">
        <ele>753.0</ele>
        <time>2018-10-03T12:59:17.000Z</time>
      </trkpt>
      <trkpt lat="42.56635667" lon="-8.04854667">
        <ele>753.0</ele>
        <time>2018-10-03T12:59:18.000Z</time>
      </trkpt>
      <trkpt lat="42.566355" lon="-8.04852667">
        <ele>753.0</ele>
        <time>2018-10-03T12:59:19.000Z</time>
      </trkpt>
      <trkpt lat="42.56635333" lon="-8.048505">
        <ele>753.0</ele>
        <time>2018-10-03T12:59:20.000Z</time>
      </trkpt>
      <trkpt lat="42.56635" lon="-8.048485">
        <ele>753.0</ele>
        <time>2018-10-03T12:59:21.000Z</time>
      </trkpt>
      <trkpt lat="42.56634667" lon="-8.04846667">
        <ele>753.0</ele>
        <time>2018-10-03T12:59:22.000Z</time>
      </trkpt>
      <trkpt lat="42.566345" lon="-8.04844833">
        <ele>752.0</ele>
        <time>2018-10-03T12:59:23.000Z</time>
      </trkpt>
      <trkpt lat="42.56634333" lon="-8.04842833">
        <ele>752.0</ele>
        <time>2018-10-03T12:59:24.000Z</time>
      </trkpt>
      <trkpt lat="42.56634333" lon="-8.04840833">
        <ele>752.0</ele>
        <time>2018-10-03T12:59:25.000Z</time>
      </trkpt>
      <trkpt lat="42.566345" lon="-8.04839167">
        <ele>752.0</ele>
        <time>2018-10-03T12:59:26.000Z</time>
      </trkpt>
      <trkpt lat="42.56634333" lon="-8.04837667">
        <ele>752.0</ele>
        <time>2018-10-03T12:59:27.000Z</time>
      </trkpt>
      <trkpt lat="42.56634" lon="-8.04835833">
        <ele>752.0</ele>
        <time>2018-10-03T12:59:28.000Z</time>
      </trkpt>
      <trkpt lat="42.56633333" lon="-8.04834333">
        <ele>751.0</ele>
        <time>2018-10-03T12:59:29.000Z</time>
      </trkpt>
      <trkpt lat="42.56632667" lon="-8.048325">
        <ele>751.0</ele>
        <time>2018-10-03T12:59:30.000Z</time>
      </trkpt>
      <trkpt lat="42.56632" lon="-8.048305">
        <ele>751.0</ele>
        <time>2018-10-03T12:59:31.000Z</time>
      </trkpt>
      <trkpt lat="42.56631833" lon="-8.048285">
        <ele>751.0</ele>
        <time>2018-10-03T12:59:32.000Z</time>
      </trkpt>
      <trkpt lat="42.56631667" lon="-8.04826667">
        <ele>751.0</ele>
        <time>2018-10-03T12:59:33.000Z</time>
      </trkpt>
      <trkpt lat="42.56631667" lon="-8.04824667">
        <ele>751.0</ele>
        <time>2018-10-03T12:59:34.000Z</time>
      </trkpt>
      <trkpt lat="42.56631667" lon="-8.04823">
        <ele>751.0</ele>
        <time>2018-10-03T12:59:35.000Z</time>
      </trkpt>
      <trkpt lat="42.56631333" lon="-8.04821833">
        <ele>751.0</ele>
        <time>2018-10-03T12:59:36.000Z</time>
      </trkpt>
      <trkpt lat="42.56630667" lon="-8.04821167">
        <ele>751.0</ele>
        <time>2018-10-03T12:59:37.000Z</time>
      </trkpt>
      <trkpt lat="42.566305" lon="-8.04821">
        <ele>751.0</ele>
        <time>2018-10-03T12:59:38.000Z</time>
      </trkpt>
      <trkpt lat="42.566305" lon="-8.04820833">
        <ele>751.0</ele>
        <time>2018-10-03T12:59:39.000Z</time>
      </trkpt>
      <trkpt lat="42.56630333" lon="-8.04820833">
        <ele>751.0</ele>
        <time>2018-10-03T12:59:40.000Z</time>
      </trkpt>
      <trkpt lat="42.56630167" lon="-8.04820667">
        <ele>751.0</ele>
        <time>2018-10-03T12:59:41.000Z</time>
      </trkpt>
      <trkpt lat="42.56630167" lon="-8.04820667">
        <ele>751.0</ele>
        <time>2018-10-03T12:59:42.000Z</time>
      </trkpt>
      <trkpt lat="42.5663" lon="-8.04820667">
        <ele>751.0</ele>
        <time>2018-10-03T12:59:43.000Z</time>
      </trkpt>
      <trkpt lat="42.5663" lon="-8.04820333">
        <ele>751.0</ele>
        <time>2018-10-03T12:59:44.000Z</time>
      </trkpt>
      <trkpt lat="42.5663" lon="-8.0482">
        <ele>751.0</ele>
        <time>2018-10-03T12:59:45.000Z</time>
      </trkpt>
      <trkpt lat="42.56630167" lon="-8.04818833">
        <ele>751.0</ele>
        <time>2018-10-03T12:59:46.000Z</time>
      </trkpt>
      <trkpt lat="42.56630333" lon="-8.04817333">
        <ele>751.0</ele>
        <time>2018-10-03T12:59:47.000Z</time>
      </trkpt>
      <trkpt lat="42.566305" lon="-8.04816167">
        <ele>751.0</ele>
        <time>2018-10-03T12:59:48.000Z</time>
      </trkpt>
      <trkpt lat="42.56631" lon="-8.04814833">
        <ele>750.0</ele>
        <time>2018-10-03T12:59:49.000Z</time>
      </trkpt>
      <trkpt lat="42.566315" lon="-8.04813167">
        <ele>750.0</ele>
        <time>2018-10-03T12:59:50.000Z</time>
      </trkpt>
      <trkpt lat="42.56632" lon="-8.04811667">
        <ele>750.0</ele>
        <time>2018-10-03T12:59:51.000Z</time>
      </trkpt>
      <trkpt lat="42.56632667" lon="-8.0481">
        <ele>750.0</ele>
        <time>2018-10-03T12:59:52.000Z</time>
      </trkpt>
      <trkpt lat="42.566335" lon="-8.04808667">
        <ele>750.0</ele>
        <time>2018-10-03T12:59:53.000Z</time>
      </trkpt>
      <trkpt lat="42.56634167" lon="-8.04806667">
        <ele>750.0</ele>
        <time>2018-10-03T12:59:54.000Z</time>
      </trkpt>
      <trkpt lat="42.56635167" lon="-8.04804833">
        <ele>750.0</ele>
        <time>2018-10-03T12:59:55.000Z</time>
      </trkpt>
      <trkpt lat="42.56636333" lon="-8.04803167">
        <ele>750.0</ele>
        <time>2018-10-03T12:59:56.000Z</time>
      </trkpt>
      <trkpt lat="42.566375" lon="-8.048015">
        <ele>751.0</ele>
        <time>2018-10-03T12:59:57.000Z</time>
      </trkpt>
      <trkpt lat="42.566385" lon="-8.048">
        <ele>751.0</ele>
        <time>2018-10-03T12:59:58.000Z</time>
      </trkpt>
      <trkpt lat="42.56639333" lon="-8.047985">
        <ele>751.0</ele>
        <time>2018-10-03T12:59:59.000Z</time>
      </trkpt>
      <trkpt lat="42.56640333" lon="-8.04797">
        <ele>751.0</ele>
        <time>2018-10-03T13:00:00.000Z</time>
      </trkpt>
      <trkpt lat="42.56641167" lon="-8.04795833">
        <ele>751.0</ele>
        <time>2018-10-03T13:00:01.000Z</time>
      </trkpt>
      <trkpt lat="42.56642" lon="-8.04794667">
        <ele>751.0</ele>
        <time>2018-10-03T13:00:02.000Z</time>
      </trkpt>
      <trkpt lat="42.56643" lon="-8.047935">
        <ele>751.0</ele>
        <time>2018-10-03T13:00:03.000Z</time>
      </trkpt>
      <trkpt lat="42.56644167" lon="-8.047925">
        <ele>750.0</ele>
        <time>2018-10-03T13:00:04.000Z</time>
      </trkpt>
      <trkpt lat="42.56645" lon="-8.04791333">
        <ele>750.0</ele>
        <time>2018-10-03T13:00:05.000Z</time>
      </trkpt>
      <trkpt lat="42.56646" lon="-8.04790167">
        <ele>750.0</ele>
        <time>2018-10-03T13:00:06.000Z</time>
      </trkpt>
      <trkpt lat="42.56647333" lon="-8.04789">
        <ele>750.0</ele>
        <time>2018-10-03T13:00:07.000Z</time>
      </trkpt>
      <trkpt lat="42.56648667" lon="-8.04787333">
        <ele>750.0</ele>
        <time>2018-10-03T13:00:08.000Z</time>
      </trkpt>
      <trkpt lat="42.56649833" lon="-8.04786">
        <ele>750.0</ele>
        <time>2018-10-03T13:00:09.000Z</time>
      </trkpt>
      <trkpt lat="42.56651" lon="-8.04784833">
        <ele>750.0</ele>
        <time>2018-10-03T13:00:10.000Z</time>
      </trkpt>
      <trkpt lat="42.56652" lon="-8.04783833">
        <ele>750.0</ele>
        <time>2018-10-03T13:00:11.000Z</time>
      </trkpt>
      <trkpt lat="42.56653" lon="-8.04783167">
        <ele>749.0</ele>
        <time>2018-10-03T13:00:12.000Z</time>
      </trkpt>
      <trkpt lat="42.56654167" lon="-8.047825">
        <ele>749.0</ele>
        <time>2018-10-03T13:00:13.000Z</time>
      </trkpt>
      <trkpt lat="42.566555" lon="-8.047815">
        <ele>749.0</ele>
        <time>2018-10-03T13:00:14.000Z</time>
      </trkpt>
      <trkpt lat="42.56657" lon="-8.04780667">
        <ele>749.0</ele>
        <time>2018-10-03T13:00:15.000Z</time>
      </trkpt>
      <trkpt lat="42.566585" lon="-8.04779667">
        <ele>749.0</ele>
        <time>2018-10-03T13:00:16.000Z</time>
      </trkpt>
      <trkpt lat="42.56660167" lon="-8.04778833">
        <ele>748.0</ele>
        <time>2018-10-03T13:00:17.000Z</time>
      </trkpt>
      <trkpt lat="42.56661667" lon="-8.04778167">
        <ele>748.0</ele>
        <time>2018-10-03T13:00:18.000Z</time>
      </trkpt>
      <trkpt lat="42.56663" lon="-8.047775">
        <ele>748.0</ele>
        <time>2018-10-03T13:00:19.000Z</time>
      </trkpt>
      <trkpt lat="42.56664333" lon="-8.04776667">
        <ele>748.0</ele>
        <time>2018-10-03T13:00:20.000Z</time>
      </trkpt>
      <trkpt lat="42.566655" lon="-8.04776167">
        <ele>747.0</ele>
        <time>2018-10-03T13:00:21.000Z</time>
      </trkpt>
      <trkpt lat="42.56666833" lon="-8.04775167">
        <ele>747.0</ele>
        <time>2018-10-03T13:00:22.000Z</time>
      </trkpt>
      <trkpt lat="42.56668167" lon="-8.047745">
        <ele>747.0</ele>
        <time>2018-10-03T13:00:23.000Z</time>
      </trkpt>
      <trkpt lat="42.566695" lon="-8.04774">
        <ele>747.0</ele>
        <time>2018-10-03T13:00:24.000Z</time>
      </trkpt>
      <trkpt lat="42.56670667" lon="-8.04773167">
        <ele>747.0</ele>
        <time>2018-10-03T13:00:25.000Z</time>
      </trkpt>
      <trkpt lat="42.56671833" lon="-8.04772333">
        <ele>746.0</ele>
        <time>2018-10-03T13:00:26.000Z</time>
      </trkpt>
      <trkpt lat="42.56672833" lon="-8.04771333">
        <ele>746.0</ele>
        <time>2018-10-03T13:00:27.000Z</time>
      </trkpt>
      <trkpt lat="42.56674" lon="-8.04770333">
        <ele>746.0</ele>
        <time>2018-10-03T13:00:28.000Z</time>
      </trkpt>
      <trkpt lat="42.56675167" lon="-8.04769167">
        <ele>746.0</ele>
        <time>2018-10-03T13:00:29.000Z</time>
      </trkpt>
      <trkpt lat="42.566765" lon="-8.04768">
        <ele>746.0</ele>
        <time>2018-10-03T13:00:30.000Z</time>
      </trkpt>
      <trkpt lat="42.56677667" lon="-8.04767167">
        <ele>746.0</ele>
        <time>2018-10-03T13:00:31.000Z</time>
      </trkpt>
      <trkpt lat="42.56678833" lon="-8.04766333">
        <ele>746.0</ele>
        <time>2018-10-03T13:00:32.000Z</time>
      </trkpt>
      <trkpt lat="42.5668" lon="-8.047655">
        <ele>746.0</ele>
        <time>2018-10-03T13:00:33.000Z</time>
      </trkpt>
      <trkpt lat="42.56681167" lon="-8.04764667">
        <ele>745.0</ele>
        <time>2018-10-03T13:00:34.000Z</time>
      </trkpt>
      <trkpt lat="42.56682333" lon="-8.04763833">
        <ele>745.0</ele>
        <time>2018-10-03T13:00:35.000Z</time>
      </trkpt>
      <trkpt lat="42.56683667" lon="-8.04763167">
        <ele>745.0</ele>
        <time>2018-10-03T13:00:36.000Z</time>
      </trkpt>
      <trkpt lat="42.56685" lon="-8.047625">
        <ele>745.0</ele>
        <time>2018-10-03T13:00:37.000Z</time>
      </trkpt>
      <trkpt lat="42.56686167" lon="-8.04761667">
        <ele>745.0</ele>
        <time>2018-10-03T13:00:38.000Z</time>
      </trkpt>
      <trkpt lat="42.56687333" lon="-8.04760833">
        <ele>745.0</ele>
        <time>2018-10-03T13:00:39.000Z</time>
      </trkpt>
      <trkpt lat="42.566885" lon="-8.04759833">
        <ele>745.0</ele>
        <time>2018-10-03T13:00:40.000Z</time>
      </trkpt>
      <trkpt lat="42.56689833" lon="-8.04758833">
        <ele>746.0</ele>
        <time>2018-10-03T13:00:41.000Z</time>
      </trkpt>
      <trkpt lat="42.56690833" lon="-8.04757833">
        <ele>746.0</ele>
        <time>2018-10-03T13:00:42.000Z</time>
      </trkpt>
      <trkpt lat="42.56691833" lon="-8.04756667">
        <ele>746.0</ele>
        <time>2018-10-03T13:00:43.000Z</time>
      </trkpt>
      <trkpt lat="42.56692333" lon="-8.04755167">
        <ele>746.0</ele>
        <time>2018-10-03T13:00:44.000Z</time>
      </trkpt>
      <trkpt lat="42.56692833" lon="-8.04754333">
        <ele>746.0</ele>
        <time>2018-10-03T13:00:45.000Z</time>
      </trkpt>
      <trkpt lat="42.56693" lon="-8.04754167">
        <ele>746.0</ele>
        <time>2018-10-03T13:00:46.000Z</time>
      </trkpt>
      <trkpt lat="42.56693167" lon="-8.04754">
        <ele>746.0</ele>
        <time>2018-10-03T13:00:47.000Z</time>
      </trkpt>
      <trkpt lat="42.56693333" lon="-8.04754">
        <ele>746.0</ele>
        <time>2018-10-03T13:00:48.000Z</time>
      </trkpt>
      <trkpt lat="42.56693333" lon="-8.04754">
        <ele>747.0</ele>
        <time>2018-10-03T13:00:49.000Z</time>
      </trkpt>
      <trkpt lat="42.56693333" lon="-8.04754">
        <ele>747.0</ele>
        <time>2018-10-03T13:00:50.000Z</time>
      </trkpt>
      <trkpt lat="42.56693333" lon="-8.04754167">
        <ele>747.0</ele>
        <time>2018-10-03T13:00:51.000Z</time>
      </trkpt>
      <trkpt lat="42.566935" lon="-8.04754167">
        <ele>747.0</ele>
        <time>2018-10-03T13:00:52.000Z</time>
      </trkpt>
      <trkpt lat="42.566935" lon="-8.04754167">
        <ele>747.0</ele>
        <time>2018-10-03T13:00:53.000Z</time>
      </trkpt>
      <trkpt lat="42.566935" lon="-8.04754167">
        <ele>747.0</ele>
        <time>2018-10-03T13:00:54.000Z</time>
      </trkpt>
      <trkpt lat="42.56693667" lon="-8.04754167">
        <ele>747.0</ele>
        <time>2018-10-03T13:00:55.000Z</time>
      </trkpt>
      <trkpt lat="42.56693667" lon="-8.04754333">
        <ele>747.0</ele>
        <time>2018-10-03T13:00:56.000Z</time>
      </trkpt>
      <trkpt lat="42.56693667" lon="-8.04754333">
        <ele>748.0</ele>
        <time>2018-10-03T13:00:57.000Z</time>
      </trkpt>
      <trkpt lat="42.56693667" lon="-8.04754333">
        <ele>748.0</ele>
        <time>2018-10-03T13:00:58.000Z</time>
      </trkpt>
      <trkpt lat="42.56693667" lon="-8.04754333">
        <ele>748.0</ele>
        <time>2018-10-03T13:00:59.000Z</time>
      </trkpt>
      <trkpt lat="42.56693667" lon="-8.04754333">
        <ele>748.0</ele>
        <time>2018-10-03T13:01:00.000Z</time>
      </trkpt>
      <trkpt lat="42.56693833" lon="-8.04754333">
        <ele>748.0</ele>
        <time>2018-10-03T13:01:01.000Z</time>
      </trkpt>
      <trkpt lat="42.56693833" lon="-8.047545">
        <ele>748.0</ele>
        <time>2018-10-03T13:01:02.000Z</time>
      </trkpt>
      <trkpt lat="42.56693833" lon="-8.047545">
        <ele>748.0</ele>
        <time>2018-10-03T13:01:03.000Z</time>
      </trkpt>
      <trkpt lat="42.56693833" lon="-8.047545">
        <ele>748.0</ele>
        <time>2018-10-03T13:01:04.000Z</time>
      </trkpt>
      <trkpt lat="42.56693833" lon="-8.047545">
        <ele>748.0</ele>
        <time>2018-10-03T13:01:05.000Z</time>
      </trkpt>
      <trkpt lat="42.56693833" lon="-8.047545">
        <ele>748.0</ele>
        <time>2018-10-03T13:01:06.000Z</time>
      </trkpt>
      <trkpt lat="42.56693833" lon="-8.047545">
        <ele>748.0</ele>
        <time>2018-10-03T13:01:07.000Z</time>
      </trkpt>
      <trkpt lat="42.56693833" lon="-8.047545">
        <ele>748.0</ele>
        <time>2018-10-03T13:01:08.000Z</time>
      </trkpt>
      <trkpt lat="42.56693833" lon="-8.047545">
        <ele>748.0</ele>
        <time>2018-10-03T13:01:09.000Z</time>
      </trkpt>
      <trkpt lat="42.56693833" lon="-8.047545">
        <ele>748.0</ele>
        <time>2018-10-03T13:01:10.000Z</time>
      </trkpt>
      <trkpt lat="42.56693833" lon="-8.047545">
        <ele>748.0</ele>
        <time>2018-10-03T13:01:11.000Z</time>
      </trkpt>
      <trkpt lat="42.56693833" lon="-8.047545">
        <ele>748.0</ele>
        <time>2018-10-03T13:01:12.000Z</time>
      </trkpt>
      <trkpt lat="42.56694" lon="-8.047545">
        <ele>748.0</ele>
        <time>2018-10-03T13:01:13.000Z</time>
      </trkpt>
      <trkpt lat="42.56694" lon="-8.04754667">
        <ele>748.0</ele>
        <time>2018-10-03T13:01:14.000Z</time>
      </trkpt>
      <trkpt lat="42.56694" lon="-8.04754833">
        <ele>748.0</ele>
        <time>2018-10-03T13:01:15.000Z</time>
      </trkpt>
      <trkpt lat="42.56694" lon="-8.04754833">
        <ele>749.0</ele>
        <time>2018-10-03T13:01:16.000Z</time>
      </trkpt>
      <trkpt lat="42.56694" lon="-8.04754833">
        <ele>749.0</ele>
        <time>2018-10-03T13:01:17.000Z</time>
      </trkpt>
      <trkpt lat="42.56694" lon="-8.04754833">
        <ele>749.0</ele>
        <time>2018-10-03T13:01:18.000Z</time>
      </trkpt>
      <trkpt lat="42.56694" lon="-8.04754833">
        <ele>749.0</ele>
        <time>2018-10-03T13:01:19.000Z</time>
      </trkpt>
      <trkpt lat="42.56694" lon="-8.04754833">
        <ele>749.0</ele>
        <time>2018-10-03T13:01:20.000Z</time>
      </trkpt>
      <trkpt lat="42.56694" lon="-8.04754833">
        <ele>749.0</ele>
        <time>2018-10-03T13:01:21.000Z</time>
      </trkpt>
      <trkpt lat="42.56694167" lon="-8.04754833">
        <ele>749.0</ele>
        <time>2018-10-03T13:01:22.000Z</time>
      </trkpt>
      <trkpt lat="42.56694333" lon="-8.04754833">
        <ele>749.0</ele>
        <time>2018-10-03T13:01:23.000Z</time>
      </trkpt>
      <trkpt lat="42.56694833" lon="-8.04754667">
        <ele>749.0</ele>
        <time>2018-10-03T13:01:24.000Z</time>
      </trkpt>
      <trkpt lat="42.566955" lon="-8.04754667">
        <ele>749.0</ele>
        <time>2018-10-03T13:01:25.000Z</time>
      </trkpt>
      <trkpt lat="42.56696333" lon="-8.04754167">
        <ele>749.0</ele>
        <time>2018-10-03T13:01:26.000Z</time>
      </trkpt>
      <trkpt lat="42.56697" lon="-8.047535">
        <ele>749.0</ele>
        <time>2018-10-03T13:01:27.000Z</time>
      </trkpt>
      <trkpt lat="42.56697833" lon="-8.04752833">
        <ele>749.0</ele>
        <time>2018-10-03T13:01:28.000Z</time>
      </trkpt>
      <trkpt lat="42.56698833" lon="-8.04752">
        <ele>749.0</ele>
        <time>2018-10-03T13:01:29.000Z</time>
      </trkpt>
      <trkpt lat="42.567" lon="-8.04751333">
        <ele>749.0</ele>
        <time>2018-10-03T13:01:30.000Z</time>
      </trkpt>
      <trkpt lat="42.56701333" lon="-8.04750333">
        <ele>748.0</ele>
        <time>2018-10-03T13:01:31.000Z</time>
      </trkpt>
      <trkpt lat="42.56702667" lon="-8.04749667">
        <ele>748.0</ele>
        <time>2018-10-03T13:01:32.000Z</time>
      </trkpt>
      <trkpt lat="42.56704" lon="-8.04748833">
        <ele>748.0</ele>
        <time>2018-10-03T13:01:33.000Z</time>
      </trkpt>
      <trkpt lat="42.56705167" lon="-8.04748167">
        <ele>748.0</ele>
        <time>2018-10-03T13:01:34.000Z</time>
      </trkpt>
      <trkpt lat="42.56706333" lon="-8.04748">
        <ele>748.0</ele>
        <time>2018-10-03T13:01:35.000Z</time>
      </trkpt>
      <trkpt lat="42.56707833" lon="-8.04747833">
        <ele>748.0</ele>
        <time>2018-10-03T13:01:36.000Z</time>
      </trkpt>
      <trkpt lat="42.56709333" lon="-8.047475">
        <ele>748.0</ele>
        <time>2018-10-03T13:01:37.000Z</time>
      </trkpt>
      <trkpt lat="42.56711" lon="-8.04747167">
        <ele>748.0</ele>
        <time>2018-10-03T13:01:38.000Z</time>
      </trkpt>
      <trkpt lat="42.56713" lon="-8.04747167">
        <ele>748.0</ele>
        <time>2018-10-03T13:01:39.000Z</time>
      </trkpt>
      <trkpt lat="42.56714833" lon="-8.04747">
        <ele>748.0</ele>
        <time>2018-10-03T13:01:40.000Z</time>
      </trkpt>
      <trkpt lat="42.567165" lon="-8.04746667">
        <ele>748.0</ele>
        <time>2018-10-03T13:01:41.000Z</time>
      </trkpt>
      <trkpt lat="42.56717833" lon="-8.04746167">
        <ele>748.0</ele>
        <time>2018-10-03T13:01:42.000Z</time>
      </trkpt>
      <trkpt lat="42.56719167" lon="-8.04745333">
        <ele>748.0</ele>
        <time>2018-10-03T13:01:43.000Z</time>
      </trkpt>
      <trkpt lat="42.56720667" lon="-8.04744833">
        <ele>747.0</ele>
        <time>2018-10-03T13:01:44.000Z</time>
      </trkpt>
      <trkpt lat="42.56722" lon="-8.04744333">
        <ele>747.0</ele>
        <time>2018-10-03T13:01:45.000Z</time>
      </trkpt>
      <trkpt lat="42.56723333" lon="-8.04744">
        <ele>747.0</ele>
        <time>2018-10-03T13:01:46.000Z</time>
      </trkpt>
      <trkpt lat="42.56724333" lon="-8.04743833">
        <ele>747.0</ele>
        <time>2018-10-03T13:01:47.000Z</time>
      </trkpt>
      <trkpt lat="42.567255" lon="-8.04743333">
        <ele>747.0</ele>
        <time>2018-10-03T13:01:48.000Z</time>
      </trkpt>
      <trkpt lat="42.56726833" lon="-8.04743">
        <ele>746.0</ele>
        <time>2018-10-03T13:01:49.000Z</time>
      </trkpt>
      <trkpt lat="42.56728167" lon="-8.04742667">
        <ele>746.0</ele>
        <time>2018-10-03T13:01:50.000Z</time>
      </trkpt>
      <trkpt lat="42.567295" lon="-8.047425">
        <ele>746.0</ele>
        <time>2018-10-03T13:01:51.000Z</time>
      </trkpt>
      <trkpt lat="42.56730667" lon="-8.04742667">
        <ele>746.0</ele>
        <time>2018-10-03T13:01:52.000Z</time>
      </trkpt>
      <trkpt lat="42.56731833" lon="-8.04742833">
        <ele>746.0</ele>
        <time>2018-10-03T13:01:53.000Z</time>
      </trkpt>
      <trkpt lat="42.56733167" lon="-8.04743">
        <ele>746.0</ele>
        <time>2018-10-03T13:01:54.000Z</time>
      </trkpt>
      <trkpt lat="42.567345" lon="-8.04743167">
        <ele>746.0</ele>
        <time>2018-10-03T13:01:55.000Z</time>
      </trkpt>
      <trkpt lat="42.56736" lon="-8.04743333">
        <ele>746.0</ele>
        <time>2018-10-03T13:01:56.000Z</time>
      </trkpt>
      <trkpt lat="42.56737333" lon="-8.04743667">
        <ele>746.0</ele>
        <time>2018-10-03T13:01:57.000Z</time>
      </trkpt>
      <trkpt lat="42.56738833" lon="-8.04744167">
        <ele>746.0</ele>
        <time>2018-10-03T13:01:58.000Z</time>
      </trkpt>
      <trkpt lat="42.56740333" lon="-8.04744833">
        <ele>745.0</ele>
        <time>2018-10-03T13:01:59.000Z</time>
      </trkpt>
      <trkpt lat="42.56741833" lon="-8.047455">
        <ele>745.0</ele>
        <time>2018-10-03T13:02:00.000Z</time>
      </trkpt>
      <trkpt lat="42.56743333" lon="-8.04746333">
        <ele>745.0</ele>
        <time>2018-10-03T13:02:01.000Z</time>
      </trkpt>
      <trkpt lat="42.567445" lon="-8.04747">
        <ele>745.0</ele>
        <time>2018-10-03T13:02:02.000Z</time>
      </trkpt>
      <trkpt lat="42.56745833" lon="-8.04747667">
        <ele>745.0</ele>
        <time>2018-10-03T13:02:03.000Z</time>
      </trkpt>
      <trkpt lat="42.56747333" lon="-8.04748333">
        <ele>745.0</ele>
        <time>2018-10-03T13:02:04.000Z</time>
      </trkpt>
      <trkpt lat="42.56748667" lon="-8.04749167">
        <ele>745.0</ele>
        <time>2018-10-03T13:02:05.000Z</time>
      </trkpt>
      <trkpt lat="42.56749833" lon="-8.04750167">
        <ele>745.0</ele>
        <time>2018-10-03T13:02:06.000Z</time>
      </trkpt>
      <trkpt lat="42.56751333" lon="-8.04751">
        <ele>745.0</ele>
        <time>2018-10-03T13:02:07.000Z</time>
      </trkpt>
      <trkpt lat="42.56753" lon="-8.04751667">
        <ele>745.0</ele>
        <time>2018-10-03T13:02:08.000Z</time>
      </trkpt>
      <trkpt lat="42.56754667" lon="-8.04752">
        <ele>745.0</ele>
        <time>2018-10-03T13:02:09.000Z</time>
      </trkpt>
      <trkpt lat="42.56756333" lon="-8.04752333">
        <ele>745.0</ele>
        <time>2018-10-03T13:02:10.000Z</time>
      </trkpt>
      <trkpt lat="42.56758" lon="-8.04752833">
        <ele>745.0</ele>
        <time>2018-10-03T13:02:11.000Z</time>
      </trkpt>
      <trkpt lat="42.56759667" lon="-8.04753833">
        <ele>745.0</ele>
        <time>2018-10-03T13:02:12.000Z</time>
      </trkpt>
      <trkpt lat="42.56761" lon="-8.047545">
        <ele>745.0</ele>
        <time>2018-10-03T13:02:13.000Z</time>
      </trkpt>
      <trkpt lat="42.56762333" lon="-8.04755167">
        <ele>745.0</ele>
        <time>2018-10-03T13:02:14.000Z</time>
      </trkpt>
      <trkpt lat="42.56763667" lon="-8.04755667">
        <ele>745.0</ele>
        <time>2018-10-03T13:02:15.000Z</time>
      </trkpt>
      <trkpt lat="42.56765" lon="-8.04756167">
        <ele>744.0</ele>
        <time>2018-10-03T13:02:16.000Z</time>
      </trkpt>
      <trkpt lat="42.567665" lon="-8.04756833">
        <ele>744.0</ele>
        <time>2018-10-03T13:02:17.000Z</time>
      </trkpt>
      <trkpt lat="42.56767833" lon="-8.04757333">
        <ele>744.0</ele>
        <time>2018-10-03T13:02:18.000Z</time>
      </trkpt>
      <trkpt lat="42.56769167" lon="-8.04757833">
        <ele>744.0</ele>
        <time>2018-10-03T13:02:19.000Z</time>
      </trkpt>
      <trkpt lat="42.56770667" lon="-8.047585">
        <ele>744.0</ele>
        <time>2018-10-03T13:02:20.000Z</time>
      </trkpt>
      <trkpt lat="42.56772" lon="-8.04759333">
        <ele>744.0</ele>
        <time>2018-10-03T13:02:21.000Z</time>
      </trkpt>
      <trkpt lat="42.56773333" lon="-8.04759833">
        <ele>744.0</ele>
        <time>2018-10-03T13:02:22.000Z</time>
      </trkpt>
      <trkpt lat="42.567745" lon="-8.04760167">
        <ele>744.0</ele>
        <time>2018-10-03T13:02:23.000Z</time>
      </trkpt>
      <trkpt lat="42.56775667" lon="-8.04760167">
        <ele>744.0</ele>
        <time>2018-10-03T13:02:24.000Z</time>
      </trkpt>
      <trkpt lat="42.56777" lon="-8.04760333">
        <ele>744.0</ele>
        <time>2018-10-03T13:02:25.000Z</time>
      </trkpt>
      <trkpt lat="42.56778333" lon="-8.04760667">
        <ele>744.0</ele>
        <time>2018-10-03T13:02:26.000Z</time>
      </trkpt>
      <trkpt lat="42.56779667" lon="-8.04761167">
        <ele>745.0</ele>
        <time>2018-10-03T13:02:27.000Z</time>
      </trkpt>
      <trkpt lat="42.56780833" lon="-8.04761667">
        <ele>745.0</ele>
        <time>2018-10-03T13:02:28.000Z</time>
      </trkpt>
      <trkpt lat="42.56782167" lon="-8.04762333">
        <ele>745.0</ele>
        <time>2018-10-03T13:02:29.000Z</time>
      </trkpt>
      <trkpt lat="42.56783333" lon="-8.04763">
        <ele>745.0</ele>
        <time>2018-10-03T13:02:30.000Z</time>
      </trkpt>
      <trkpt lat="42.567845" lon="-8.04763833">
        <ele>745.0</ele>
        <time>2018-10-03T13:02:31.000Z</time>
      </trkpt>
      <trkpt lat="42.56785667" lon="-8.047645">
        <ele>745.0</ele>
        <time>2018-10-03T13:02:32.000Z</time>
      </trkpt>
      <trkpt lat="42.56787" lon="-8.04765167">
        <ele>745.0</ele>
        <time>2018-10-03T13:02:33.000Z</time>
      </trkpt>
      <trkpt lat="42.56788333" lon="-8.04766">
        <ele>745.0</ele>
        <time>2018-10-03T13:02:34.000Z</time>
      </trkpt>
      <trkpt lat="42.56789667" lon="-8.04766833">
        <ele>745.0</ele>
        <time>2018-10-03T13:02:35.000Z</time>
      </trkpt>
      <trkpt lat="42.56791" lon="-8.047675">
        <ele>745.0</ele>
        <time>2018-10-03T13:02:36.000Z</time>
      </trkpt>
      <trkpt lat="42.56792167" lon="-8.047685">
        <ele>745.0</ele>
        <time>2018-10-03T13:02:37.000Z</time>
      </trkpt>
      <trkpt lat="42.567935" lon="-8.047695">
        <ele>745.0</ele>
        <time>2018-10-03T13:02:38.000Z</time>
      </trkpt>
      <trkpt lat="42.56794833" lon="-8.04770333">
        <ele>745.0</ele>
        <time>2018-10-03T13:02:39.000Z</time>
      </trkpt>
      <trkpt lat="42.56796167" lon="-8.04771">
        <ele>745.0</ele>
        <time>2018-10-03T13:02:40.000Z</time>
      </trkpt>
      <trkpt lat="42.56797333" lon="-8.04771667">
        <ele>745.0</ele>
        <time>2018-10-03T13:02:41.000Z</time>
      </trkpt>
      <trkpt lat="42.56798667" lon="-8.04772333">
        <ele>745.0</ele>
        <time>2018-10-03T13:02:42.000Z</time>
      </trkpt>
      <trkpt lat="42.56799833" lon="-8.047725">
        <ele>745.0</ele>
        <time>2018-10-03T13:02:43.000Z</time>
      </trkpt>
      <trkpt lat="42.56801" lon="-8.04773">
        <ele>745.0</ele>
        <time>2018-10-03T13:02:44.000Z</time>
      </trkpt>
      <trkpt lat="42.56802167" lon="-8.04773833">
        <ele>745.0</ele>
        <time>2018-10-03T13:02:45.000Z</time>
      </trkpt>
      <trkpt lat="42.56803333" lon="-8.04774833">
        <ele>745.0</ele>
        <time>2018-10-03T13:02:46.000Z</time>
      </trkpt>
      <trkpt lat="42.56804667" lon="-8.047755">
        <ele>745.0</ele>
        <time>2018-10-03T13:02:47.000Z</time>
      </trkpt>
      <trkpt lat="42.56805667" lon="-8.04776167">
        <ele>745.0</ele>
        <time>2018-10-03T13:02:48.000Z</time>
      </trkpt>
      <trkpt lat="42.568065" lon="-8.04776667">
        <ele>745.0</ele>
        <time>2018-10-03T13:02:49.000Z</time>
      </trkpt>
      <trkpt lat="42.56807333" lon="-8.04777">
        <ele>745.0</ele>
        <time>2018-10-03T13:02:50.000Z</time>
      </trkpt>
      <trkpt lat="42.56808" lon="-8.04777333">
        <ele>745.0</ele>
        <time>2018-10-03T13:02:51.000Z</time>
      </trkpt>
      <trkpt lat="42.56808333" lon="-8.04777">
        <ele>745.0</ele>
        <time>2018-10-03T13:02:52.000Z</time>
      </trkpt>
      <trkpt lat="42.56809" lon="-8.04775667">
        <ele>745.0</ele>
        <time>2018-10-03T13:02:53.000Z</time>
      </trkpt>
      <trkpt lat="42.568095" lon="-8.04774333">
        <ele>744.0</ele>
        <time>2018-10-03T13:02:54.000Z</time>
      </trkpt>
      <trkpt lat="42.56809667" lon="-8.04772667">
        <ele>744.0</ele>
        <time>2018-10-03T13:02:55.000Z</time>
      </trkpt>
      <trkpt lat="42.5681" lon="-8.04770667">
        <ele>744.0</ele>
        <time>2018-10-03T13:02:56.000Z</time>
      </trkpt>
      <trkpt lat="42.568105" lon="-8.04768667">
        <ele>744.0</ele>
        <time>2018-10-03T13:02:57.000Z</time>
      </trkpt>
      <trkpt lat="42.56810833" lon="-8.047665">
        <ele>743.0</ele>
        <time>2018-10-03T13:02:58.000Z</time>
      </trkpt>
      <trkpt lat="42.56811" lon="-8.04764333">
        <ele>743.0</ele>
        <time>2018-10-03T13:02:59.000Z</time>
      </trkpt>
      <trkpt lat="42.56811167" lon="-8.04762167">
        <ele>743.0</ele>
        <time>2018-10-03T13:03:00.000Z</time>
      </trkpt>
      <trkpt lat="42.56811333" lon="-8.0476">
        <ele>743.0</ele>
        <time>2018-10-03T13:03:01.000Z</time>
      </trkpt>
      <trkpt lat="42.568115" lon="-8.04758">
        <ele>743.0</ele>
        <time>2018-10-03T13:03:02.000Z</time>
      </trkpt>
      <trkpt lat="42.56811667" lon="-8.04756">
        <ele>743.0</ele>
        <time>2018-10-03T13:03:03.000Z</time>
      </trkpt>
      <trkpt lat="42.56812167" lon="-8.04754167">
        <ele>743.0</ele>
        <time>2018-10-03T13:03:04.000Z</time>
      </trkpt>
      <trkpt lat="42.56812833" lon="-8.047525">
        <ele>742.0</ele>
        <time>2018-10-03T13:03:05.000Z</time>
      </trkpt>
      <trkpt lat="42.56813333" lon="-8.047505">
        <ele>742.0</ele>
        <time>2018-10-03T13:03:06.000Z</time>
      </trkpt>
      <trkpt lat="42.56813833" lon="-8.04748333">
        <ele>742.0</ele>
        <time>2018-10-03T13:03:07.000Z</time>
      </trkpt>
      <trkpt lat="42.56814333" lon="-8.04746167">
        <ele>742.0</ele>
        <time>2018-10-03T13:03:08.000Z</time>
      </trkpt>
      <trkpt lat="42.56814667" lon="-8.04744167">
        <ele>742.0</ele>
        <time>2018-10-03T13:03:09.000Z</time>
      </trkpt>
      <trkpt lat="42.56815167" lon="-8.047425">
        <ele>742.0</ele>
        <time>2018-10-03T13:03:10.000Z</time>
      </trkpt>
      <trkpt lat="42.56815833" lon="-8.04741">
        <ele>741.0</ele>
        <time>2018-10-03T13:03:11.000Z</time>
      </trkpt>
      <trkpt lat="42.568165" lon="-8.0474">
        <ele>741.0</ele>
        <time>2018-10-03T13:03:12.000Z</time>
      </trkpt>
      <trkpt lat="42.568175" lon="-8.04738667">
        <ele>741.0</ele>
        <time>2018-10-03T13:03:13.000Z</time>
      </trkpt>
      <trkpt lat="42.56818167" lon="-8.04736833">
        <ele>741.0</ele>
        <time>2018-10-03T13:03:14.000Z</time>
      </trkpt>
      <trkpt lat="42.56818" lon="-8.04735">
        <ele>741.0</ele>
        <time>2018-10-03T13:03:15.000Z</time>
      </trkpt>
      <trkpt lat="42.56817667" lon="-8.04733167">
        <ele>741.0</ele>
        <time>2018-10-03T13:03:16.000Z</time>
      </trkpt>
      <trkpt lat="42.56817333" lon="-8.04731833">
        <ele>741.0</ele>
        <time>2018-10-03T13:03:17.000Z</time>
      </trkpt>
      <trkpt lat="42.56817" lon="-8.04730667">
        <ele>742.0</ele>
        <time>2018-10-03T13:03:18.000Z</time>
      </trkpt>
      <trkpt lat="42.56816667" lon="-8.0473">
        <ele>742.0</ele>
        <time>2018-10-03T13:03:19.000Z</time>
      </trkpt>
      <trkpt lat="42.56816333" lon="-8.04729833">
        <ele>742.0</ele>
        <time>2018-10-03T13:03:20.000Z</time>
      </trkpt>
      <trkpt lat="42.56816" lon="-8.04729667">
        <ele>742.0</ele>
        <time>2018-10-03T13:03:21.000Z</time>
      </trkpt>
      <trkpt lat="42.56815833" lon="-8.04729333">
        <ele>742.0</ele>
        <time>2018-10-03T13:03:22.000Z</time>
      </trkpt>
      <trkpt lat="42.56815667" lon="-8.04729">
        <ele>742.0</ele>
        <time>2018-10-03T13:03:23.000Z</time>
      </trkpt>
      <trkpt lat="42.56815667" lon="-8.04729">
        <ele>742.0</ele>
        <time>2018-10-03T13:03:24.000Z</time>
      </trkpt>
      <trkpt lat="42.56815667" lon="-8.04729">
        <ele>742.0</ele>
        <time>2018-10-03T13:03:25.000Z</time>
      </trkpt>
      <trkpt lat="42.56815667" lon="-8.04729">
        <ele>742.0</ele>
        <time>2018-10-03T13:03:26.000Z</time>
      </trkpt>
      <trkpt lat="42.56815667" lon="-8.04729">
        <ele>742.0</ele>
        <time>2018-10-03T13:03:27.000Z</time>
      </trkpt>
      <trkpt lat="42.568155" lon="-8.04729">
        <ele>742.0</ele>
        <time>2018-10-03T13:03:28.000Z</time>
      </trkpt>
      <trkpt lat="42.568155" lon="-8.04729167">
        <ele>742.0</ele>
        <time>2018-10-03T13:03:29.000Z</time>
      </trkpt>
      <trkpt lat="42.568155" lon="-8.04729333">
        <ele>742.0</ele>
        <time>2018-10-03T13:03:30.000Z</time>
      </trkpt>
      <trkpt lat="42.56815667" lon="-8.04729333">
        <ele>742.0</ele>
        <time>2018-10-03T13:03:31.000Z</time>
      </trkpt>
      <trkpt lat="42.56815667" lon="-8.04729333">
        <ele>742.0</ele>
        <time>2018-10-03T13:03:32.000Z</time>
      </trkpt>
      <trkpt lat="42.56815833" lon="-8.04729167">
        <ele>742.0</ele>
        <time>2018-10-03T13:03:33.000Z</time>
      </trkpt>
      <trkpt lat="42.56815833" lon="-8.04729">
        <ele>742.0</ele>
        <time>2018-10-03T13:03:34.000Z</time>
      </trkpt>
      <trkpt lat="42.56815833" lon="-8.04728833">
        <ele>742.0</ele>
        <time>2018-10-03T13:03:35.000Z</time>
      </trkpt>
      <trkpt lat="42.568155" lon="-8.04728667">
        <ele>742.0</ele>
        <time>2018-10-03T13:03:36.000Z</time>
      </trkpt>
      <trkpt lat="42.56815333" lon="-8.047285">
        <ele>742.0</ele>
        <time>2018-10-03T13:03:37.000Z</time>
      </trkpt>
      <trkpt lat="42.56815333" lon="-8.047285">
        <ele>742.0</ele>
        <time>2018-10-03T13:03:38.000Z</time>
      </trkpt>
      <trkpt lat="42.56815167" lon="-8.047285">
        <ele>742.0</ele>
        <time>2018-10-03T13:03:39.000Z</time>
      </trkpt>
      <trkpt lat="42.56815167" lon="-8.047285">
        <ele>742.0</ele>
        <time>2018-10-03T13:03:40.000Z</time>
      </trkpt>
      <trkpt lat="42.56815" lon="-8.04728667">
        <ele>742.0</ele>
        <time>2018-10-03T13:03:41.000Z</time>
      </trkpt>
      <trkpt lat="42.56814833" lon="-8.04728667">
        <ele>742.0</ele>
        <time>2018-10-03T13:03:42.000Z</time>
      </trkpt>
      <trkpt lat="42.568145" lon="-8.047285">
        <ele>742.0</ele>
        <time>2018-10-03T13:03:43.000Z</time>
      </trkpt>
      <trkpt lat="42.56814167" lon="-8.047285">
        <ele>742.0</ele>
        <time>2018-10-03T13:03:44.000Z</time>
      </trkpt>
      <trkpt lat="42.56814" lon="-8.04728333">
        <ele>741.0</ele>
        <time>2018-10-03T13:03:45.000Z</time>
      </trkpt>
      <trkpt lat="42.56813833" lon="-8.04728333">
        <ele>741.0</ele>
        <time>2018-10-03T13:03:46.000Z</time>
      </trkpt>
      <trkpt lat="42.568135" lon="-8.04728333">
        <ele>741.0</ele>
        <time>2018-10-03T13:03:47.000Z</time>
      </trkpt>
      <trkpt lat="42.56813333" lon="-8.04728">
        <ele>741.0</ele>
        <time>2018-10-03T13:03:48.000Z</time>
      </trkpt>
      <trkpt lat="42.56813" lon="-8.04728">
        <ele>741.0</ele>
        <time>2018-10-03T13:03:49.000Z</time>
      </trkpt>
      <trkpt lat="42.56812833" lon="-8.04728">
        <ele>741.0</ele>
        <time>2018-10-03T13:03:50.000Z</time>
      </trkpt>
      <trkpt lat="42.56812667" lon="-8.04728">
        <ele>741.0</ele>
        <time>2018-10-03T13:03:51.000Z</time>
      </trkpt>
      <trkpt lat="42.568125" lon="-8.04727833">
        <ele>740.0</ele>
        <time>2018-10-03T13:03:52.000Z</time>
      </trkpt>
      <trkpt lat="42.568125" lon="-8.04727833">
        <ele>740.0</ele>
        <time>2018-10-03T13:03:53.000Z</time>
      </trkpt>
      <trkpt lat="42.56812333" lon="-8.04727667">
        <ele>740.0</ele>
        <time>2018-10-03T13:03:54.000Z</time>
      </trkpt>
      <trkpt lat="42.56812" lon="-8.047275">
        <ele>740.0</ele>
        <time>2018-10-03T13:03:55.000Z</time>
      </trkpt>
      <trkpt lat="42.56811667" lon="-8.04727167">
        <ele>740.0</ele>
        <time>2018-10-03T13:03:56.000Z</time>
      </trkpt>
      <trkpt lat="42.568115" lon="-8.047265">
        <ele>740.0</ele>
        <time>2018-10-03T13:03:57.000Z</time>
      </trkpt>
      <trkpt lat="42.56811333" lon="-8.04726333">
        <ele>740.0</ele>
        <time>2018-10-03T13:03:58.000Z</time>
      </trkpt>
      <trkpt lat="42.56811333" lon="-8.04726167">
        <ele>740.0</ele>
        <time>2018-10-03T13:03:59.000Z</time>
      </trkpt>
      <trkpt lat="42.56811333" lon="-8.04726333">
        <ele>740.0</ele>
        <time>2018-10-03T13:04:00.000Z</time>
      </trkpt>
      <trkpt lat="42.56811333" lon="-8.04726667">
        <ele>740.0</ele>
        <time>2018-10-03T13:04:01.000Z</time>
      </trkpt>
      <trkpt lat="42.568115" lon="-8.04726833">
        <ele>740.0</ele>
        <time>2018-10-03T13:04:02.000Z</time>
      </trkpt>
      <trkpt lat="42.56811667" lon="-8.04727">
        <ele>740.0</ele>
        <time>2018-10-03T13:04:03.000Z</time>
      </trkpt>
      <trkpt lat="42.56811667" lon="-8.047275">
        <ele>740.0</ele>
        <time>2018-10-03T13:04:04.000Z</time>
      </trkpt>
      <trkpt lat="42.568115" lon="-8.04728667">
        <ele>739.0</ele>
        <time>2018-10-03T13:04:05.000Z</time>
      </trkpt>
      <trkpt lat="42.56811333" lon="-8.04730167">
        <ele>739.0</ele>
        <time>2018-10-03T13:04:06.000Z</time>
      </trkpt>
      <trkpt lat="42.56810667" lon="-8.047315">
        <ele>739.0</ele>
        <time>2018-10-03T13:04:07.000Z</time>
      </trkpt>
      <trkpt lat="42.5681" lon="-8.04733">
        <ele>739.0</ele>
        <time>2018-10-03T13:04:08.000Z</time>
      </trkpt>
      <trkpt lat="42.56809333" lon="-8.04734">
        <ele>739.0</ele>
        <time>2018-10-03T13:04:09.000Z</time>
      </trkpt>
      <trkpt lat="42.56809333" lon="-8.047345">
        <ele>739.0</ele>
        <time>2018-10-03T13:04:10.000Z</time>
      </trkpt>
      <trkpt lat="42.56808833" lon="-8.04734667">
        <ele>739.0</ele>
        <time>2018-10-03T13:04:11.000Z</time>
      </trkpt>
      <trkpt lat="42.56808333" lon="-8.04735333">
        <ele>739.0</ele>
        <time>2018-10-03T13:04:12.000Z</time>
      </trkpt>
      <trkpt lat="42.56807833" lon="-8.04735667">
        <ele>739.0</ele>
        <time>2018-10-03T13:04:13.000Z</time>
      </trkpt>
      <trkpt lat="42.56807833" lon="-8.04736">
        <ele>739.0</ele>
        <time>2018-10-03T13:04:14.000Z</time>
      </trkpt>
      <trkpt lat="42.56807667" lon="-8.04736167">
        <ele>739.0</ele>
        <time>2018-10-03T13:04:15.000Z</time>
      </trkpt>
      <trkpt lat="42.56808" lon="-8.04736667">
        <ele>739.0</ele>
        <time>2018-10-03T13:04:16.000Z</time>
      </trkpt>
      <trkpt lat="42.568085" lon="-8.04737">
        <ele>739.0</ele>
        <time>2018-10-03T13:04:17.000Z</time>
      </trkpt>
      <trkpt lat="42.568085" lon="-8.04737">
        <ele>739.0</ele>
        <time>2018-10-03T13:04:18.000Z</time>
      </trkpt>
      <trkpt lat="42.56808" lon="-8.047375">
        <ele>739.0</ele>
        <time>2018-10-03T13:04:19.000Z</time>
      </trkpt>
      <trkpt lat="42.56807667" lon="-8.04738667">
        <ele>739.0</ele>
        <time>2018-10-03T13:04:20.000Z</time>
      </trkpt>
      <trkpt lat="42.56807167" lon="-8.04740167">
        <ele>740.0</ele>
        <time>2018-10-03T13:04:21.000Z</time>
      </trkpt>
      <trkpt lat="42.56806667" lon="-8.04741333">
        <ele>740.0</ele>
        <time>2018-10-03T13:04:22.000Z</time>
      </trkpt>
      <trkpt lat="42.568065" lon="-8.04742333">
        <ele>740.0</ele>
        <time>2018-10-03T13:04:23.000Z</time>
      </trkpt>
      <trkpt lat="42.568065" lon="-8.04742667">
        <ele>740.0</ele>
        <time>2018-10-03T13:04:24.000Z</time>
      </trkpt>
      <trkpt lat="42.56806333" lon="-8.04742833">
        <ele>740.0</ele>
        <time>2018-10-03T13:04:25.000Z</time>
      </trkpt>
      <trkpt lat="42.56806333" lon="-8.04743">
        <ele>740.0</ele>
        <time>2018-10-03T13:04:26.000Z</time>
      </trkpt>
      <trkpt lat="42.56806333" lon="-8.04743167">
        <ele>740.0</ele>
        <time>2018-10-03T13:04:27.000Z</time>
      </trkpt>
      <trkpt lat="42.56806333" lon="-8.04743167">
        <ele>740.0</ele>
        <time>2018-10-03T13:04:28.000Z</time>
      </trkpt>
      <trkpt lat="42.56806333" lon="-8.04743333">
        <ele>740.0</ele>
        <time>2018-10-03T13:04:29.000Z</time>
      </trkpt>
      <trkpt lat="42.56806333" lon="-8.047435">
        <ele>740.0</ele>
        <time>2018-10-03T13:04:30.000Z</time>
      </trkpt>
      <trkpt lat="42.56806333" lon="-8.04744">
        <ele>740.0</ele>
        <time>2018-10-03T13:04:31.000Z</time>
      </trkpt>
      <trkpt lat="42.56806833" lon="-8.04745167">
        <ele>740.0</ele>
        <time>2018-10-03T13:04:32.000Z</time>
      </trkpt>
      <trkpt lat="42.56807333" lon="-8.04746667">
        <ele>740.0</ele>
        <time>2018-10-03T13:04:33.000Z</time>
      </trkpt>
      <trkpt lat="42.56807833" lon="-8.04748333">
        <ele>740.0</ele>
        <time>2018-10-03T13:04:34.000Z</time>
      </trkpt>
      <trkpt lat="42.56808167" lon="-8.0475">
        <ele>740.0</ele>
        <time>2018-10-03T13:04:35.000Z</time>
      </trkpt>
      <trkpt lat="42.56808667" lon="-8.04751667">
        <ele>740.0</ele>
        <time>2018-10-03T13:04:36.000Z</time>
      </trkpt>
      <trkpt lat="42.56809" lon="-8.047535">
        <ele>740.0</ele>
        <time>2018-10-03T13:04:37.000Z</time>
      </trkpt>
      <trkpt lat="42.56809333" lon="-8.04755167">
        <ele>740.0</ele>
        <time>2018-10-03T13:04:38.000Z</time>
      </trkpt>
      <trkpt lat="42.5681" lon="-8.047565">
        <ele>740.0</ele>
        <time>2018-10-03T13:04:39.000Z</time>
      </trkpt>
      <trkpt lat="42.56811" lon="-8.047575">
        <ele>740.0</ele>
        <time>2018-10-03T13:04:40.000Z</time>
      </trkpt>
      <trkpt lat="42.56811833" lon="-8.04758167">
        <ele>740.0</ele>
        <time>2018-10-03T13:04:41.000Z</time>
      </trkpt>
      <trkpt lat="42.568125" lon="-8.04758833">
        <ele>740.0</ele>
        <time>2018-10-03T13:04:42.000Z</time>
      </trkpt>
      <trkpt lat="42.568125" lon="-8.04759">
        <ele>740.0</ele>
        <time>2018-10-03T13:04:43.000Z</time>
      </trkpt>
      <trkpt lat="42.568125" lon="-8.04759167">
        <ele>740.0</ele>
        <time>2018-10-03T13:04:44.000Z</time>
      </trkpt>
      <trkpt lat="42.568125" lon="-8.04759167">
        <ele>740.0</ele>
        <time>2018-10-03T13:04:45.000Z</time>
      </trkpt>
      <trkpt lat="42.568125" lon="-8.04759167">
        <ele>740.0</ele>
        <time>2018-10-03T13:04:46.000Z</time>
      </trkpt>
      <trkpt lat="42.568125" lon="-8.04759167">
        <ele>740.0</ele>
        <time>2018-10-03T13:04:47.000Z</time>
      </trkpt>
      <trkpt lat="42.56812333" lon="-8.04759333">
        <ele>740.0</ele>
        <time>2018-10-03T13:04:48.000Z</time>
      </trkpt>
      <trkpt lat="42.56811833" lon="-8.04760167">
        <ele>740.0</ele>
        <time>2018-10-03T13:04:49.000Z</time>
      </trkpt>
      <trkpt lat="42.568115" lon="-8.047615">
        <ele>740.0</ele>
        <time>2018-10-03T13:04:50.000Z</time>
      </trkpt>
      <trkpt lat="42.56811333" lon="-8.04763333">
        <ele>740.0</ele>
        <time>2018-10-03T13:04:51.000Z</time>
      </trkpt>
      <trkpt lat="42.56811167" lon="-8.04765167">
        <ele>740.0</ele>
        <time>2018-10-03T13:04:52.000Z</time>
      </trkpt>
      <trkpt lat="42.56811" lon="-8.04767">
        <ele>740.0</ele>
        <time>2018-10-03T13:04:53.000Z</time>
      </trkpt>
      <trkpt lat="42.56811167" lon="-8.04769">
        <ele>740.0</ele>
        <time>2018-10-03T13:04:54.000Z</time>
      </trkpt>
      <trkpt lat="42.56811333" lon="-8.04770833">
        <ele>740.0</ele>
        <time>2018-10-03T13:04:55.000Z</time>
      </trkpt>
      <trkpt lat="42.56811667" lon="-8.047725">
        <ele>740.0</ele>
        <time>2018-10-03T13:04:56.000Z</time>
      </trkpt>
      <trkpt lat="42.56812667" lon="-8.04774333">
        <ele>740.0</ele>
        <time>2018-10-03T13:04:57.000Z</time>
      </trkpt>
      <trkpt lat="42.56813833" lon="-8.04775667">
        <ele>740.0</ele>
        <time>2018-10-03T13:04:58.000Z</time>
      </trkpt>
      <trkpt lat="42.56814833" lon="-8.04777">
        <ele>740.0</ele>
        <time>2018-10-03T13:04:59.000Z</time>
      </trkpt>
      <trkpt lat="42.56816167" lon="-8.04778167">
        <ele>740.0</ele>
        <time>2018-10-03T13:05:00.000Z</time>
      </trkpt>
      <trkpt lat="42.568175" lon="-8.04779">
        <ele>740.0</ele>
        <time>2018-10-03T13:05:01.000Z</time>
      </trkpt>
      <trkpt lat="42.56818667" lon="-8.0478">
        <ele>740.0</ele>
        <time>2018-10-03T13:05:02.000Z</time>
      </trkpt>
      <trkpt lat="42.56819667" lon="-8.04781167">
        <ele>740.0</ele>
        <time>2018-10-03T13:05:03.000Z</time>
      </trkpt>
      <trkpt lat="42.56820333" lon="-8.04782">
        <ele>740.0</ele>
        <time>2018-10-03T13:05:04.000Z</time>
      </trkpt>
      <trkpt lat="42.56821" lon="-8.04782833">
        <ele>740.0</ele>
        <time>2018-10-03T13:05:05.000Z</time>
      </trkpt>
      <trkpt lat="42.56822" lon="-8.04783833">
        <ele>740.0</ele>
        <time>2018-10-03T13:05:06.000Z</time>
      </trkpt>
      <trkpt lat="42.56823167" lon="-8.04784667">
        <ele>740.0</ele>
        <time>2018-10-03T13:05:07.000Z</time>
      </trkpt>
      <trkpt lat="42.56824167" lon="-8.04785167">
        <ele>741.0</ele>
        <time>2018-10-03T13:05:08.000Z</time>
      </trkpt>
      <trkpt lat="42.56825333" lon="-8.04785667">
        <ele>741.0</ele>
        <time>2018-10-03T13:05:09.000Z</time>
      </trkpt>
      <trkpt lat="42.56826667" lon="-8.04786333">
        <ele>741.0</ele>
        <time>2018-10-03T13:05:10.000Z</time>
      </trkpt>
      <trkpt lat="42.56828" lon="-8.04787">
        <ele>741.0</ele>
        <time>2018-10-03T13:05:11.000Z</time>
      </trkpt>
      <trkpt lat="42.568295" lon="-8.04787833">
        <ele>741.0</ele>
        <time>2018-10-03T13:05:12.000Z</time>
      </trkpt>
      <trkpt lat="42.56830833" lon="-8.04788333">
        <ele>741.0</ele>
        <time>2018-10-03T13:05:13.000Z</time>
      </trkpt>
      <trkpt lat="42.56832167" lon="-8.04788667">
        <ele>741.0</ele>
        <time>2018-10-03T13:05:14.000Z</time>
      </trkpt>
      <trkpt lat="42.568335" lon="-8.047895">
        <ele>741.0</ele>
        <time>2018-10-03T13:05:15.000Z</time>
      </trkpt>
      <trkpt lat="42.56834833" lon="-8.047905">
        <ele>741.0</ele>
        <time>2018-10-03T13:05:16.000Z</time>
      </trkpt>
      <trkpt lat="42.56836" lon="-8.047915">
        <ele>741.0</ele>
        <time>2018-10-03T13:05:17.000Z</time>
      </trkpt>
      <trkpt lat="42.56837333" lon="-8.04792667">
        <ele>741.0</ele>
        <time>2018-10-03T13:05:18.000Z</time>
      </trkpt>
      <trkpt lat="42.56838667" lon="-8.04793833">
        <ele>741.0</ele>
        <time>2018-10-03T13:05:19.000Z</time>
      </trkpt>
      <trkpt lat="42.56840167" lon="-8.04794833">
        <ele>741.0</ele>
        <time>2018-10-03T13:05:20.000Z</time>
      </trkpt>
      <trkpt lat="42.56841667" lon="-8.04795667">
        <ele>741.0</ele>
        <time>2018-10-03T13:05:21.000Z</time>
      </trkpt>
      <trkpt lat="42.56843" lon="-8.04796333">
        <ele>741.0</ele>
        <time>2018-10-03T13:05:22.000Z</time>
      </trkpt>
      <trkpt lat="42.56844667" lon="-8.04797167">
        <ele>741.0</ele>
        <time>2018-10-03T13:05:23.000Z</time>
      </trkpt>
      <trkpt lat="42.56846167" lon="-8.04798">
        <ele>742.0</ele>
        <time>2018-10-03T13:05:24.000Z</time>
      </trkpt>
      <trkpt lat="42.56847667" lon="-8.04799">
        <ele>742.0</ele>
        <time>2018-10-03T13:05:25.000Z</time>
      </trkpt>
      <trkpt lat="42.56848833" lon="-8.04799833">
        <ele>742.0</ele>
        <time>2018-10-03T13:05:26.000Z</time>
      </trkpt>
      <trkpt lat="42.56850167" lon="-8.04800667">
        <ele>742.0</ele>
        <time>2018-10-03T13:05:27.000Z</time>
      </trkpt>
      <trkpt lat="42.568515" lon="-8.04801333">
        <ele>742.0</ele>
        <time>2018-10-03T13:05:28.000Z</time>
      </trkpt>
      <trkpt lat="42.56852667" lon="-8.04801833">
        <ele>742.0</ele>
        <time>2018-10-03T13:05:29.000Z</time>
      </trkpt>
      <trkpt lat="42.568535" lon="-8.048025">
        <ele>742.0</ele>
        <time>2018-10-03T13:05:30.000Z</time>
      </trkpt>
      <trkpt lat="42.568545" lon="-8.04803">
        <ele>742.0</ele>
        <time>2018-10-03T13:05:31.000Z</time>
      </trkpt>
      <trkpt lat="42.56855667" lon="-8.04803833">
        <ele>742.0</ele>
        <time>2018-10-03T13:05:32.000Z</time>
      </trkpt>
      <trkpt lat="42.56856833" lon="-8.048045">
        <ele>742.0</ele>
        <time>2018-10-03T13:05:33.000Z</time>
      </trkpt>
      <trkpt lat="42.56858" lon="-8.04805">
        <ele>742.0</ele>
        <time>2018-10-03T13:05:34.000Z</time>
      </trkpt>
      <trkpt lat="42.56858833" lon="-8.04805333">
        <ele>742.0</ele>
        <time>2018-10-03T13:05:35.000Z</time>
      </trkpt>
      <trkpt lat="42.56859167" lon="-8.048055">
        <ele>742.0</ele>
        <time>2018-10-03T13:05:36.000Z</time>
      </trkpt>
      <trkpt lat="42.568595" lon="-8.04805667">
        <ele>742.0</ele>
        <time>2018-10-03T13:05:37.000Z</time>
      </trkpt>
      <trkpt lat="42.56859667" lon="-8.04805833">
        <ele>742.0</ele>
        <time>2018-10-03T13:05:38.000Z</time>
      </trkpt>
      <trkpt lat="42.56859667" lon="-8.04805833">
        <ele>742.0</ele>
        <time>2018-10-03T13:05:39.000Z</time>
      </trkpt>
      <trkpt lat="42.5686" lon="-8.048055">
        <ele>742.0</ele>
        <time>2018-10-03T13:05:40.000Z</time>
      </trkpt>
      <trkpt lat="42.568605" lon="-8.048055">
        <ele>742.0</ele>
        <time>2018-10-03T13:05:41.000Z</time>
      </trkpt>
      <trkpt lat="42.56861667" lon="-8.04805833">
        <ele>742.0</ele>
        <time>2018-10-03T13:05:42.000Z</time>
      </trkpt>
      <trkpt lat="42.56863" lon="-8.04806667">
        <ele>741.0</ele>
        <time>2018-10-03T13:05:43.000Z</time>
      </trkpt>
      <trkpt lat="42.56864333" lon="-8.04807333">
        <ele>741.0</ele>
        <time>2018-10-03T13:05:44.000Z</time>
      </trkpt>
      <trkpt lat="42.56865667" lon="-8.04808167">
        <ele>741.0</ele>
        <time>2018-10-03T13:05:45.000Z</time>
      </trkpt>
      <trkpt lat="42.56867167" lon="-8.04809">
        <ele>741.0</ele>
        <time>2018-10-03T13:05:46.000Z</time>
      </trkpt>
      <trkpt lat="42.56868667" lon="-8.04809833">
        <ele>741.0</ele>
        <time>2018-10-03T13:05:47.000Z</time>
      </trkpt>
      <trkpt lat="42.568705" lon="-8.048105">
        <ele>741.0</ele>
        <time>2018-10-03T13:05:48.000Z</time>
      </trkpt>
      <trkpt lat="42.56873" lon="-8.048115">
        <ele>741.0</ele>
        <time>2018-10-03T13:05:49.000Z</time>
      </trkpt>
      <trkpt lat="42.56875833" lon="-8.048125">
        <ele>741.0</ele>
        <time>2018-10-03T13:05:50.000Z</time>
      </trkpt>
      <trkpt lat="42.568785" lon="-8.04812833">
        <ele>741.0</ele>
        <time>2018-10-03T13:05:51.000Z</time>
      </trkpt>
      <trkpt lat="42.56881" lon="-8.04812667">
        <ele>741.0</ele>
        <time>2018-10-03T13:05:52.000Z</time>
      </trkpt>
      <trkpt lat="42.56882667" lon="-8.04812833">
        <ele>741.0</ele>
        <time>2018-10-03T13:05:53.000Z</time>
      </trkpt>
      <trkpt lat="42.56884167" lon="-8.04813">
        <ele>741.0</ele>
        <time>2018-10-03T13:05:54.000Z</time>
      </trkpt>
      <trkpt lat="42.56885" lon="-8.04813833">
        <ele>741.0</ele>
        <time>2018-10-03T13:05:55.000Z</time>
      </trkpt>
      <trkpt lat="42.56885833" lon="-8.048145">
        <ele>741.0</ele>
        <time>2018-10-03T13:05:56.000Z</time>
      </trkpt>
      <trkpt lat="42.56886333" lon="-8.04814833">
        <ele>741.0</ele>
        <time>2018-10-03T13:05:57.000Z</time>
      </trkpt>
      <trkpt lat="42.56887667" lon="-8.04815">
        <ele>741.0</ele>
        <time>2018-10-03T13:05:58.000Z</time>
      </trkpt>
      <trkpt lat="42.56888833" lon="-8.04814833">
        <ele>741.0</ele>
        <time>2018-10-03T13:05:59.000Z</time>
      </trkpt>
      <trkpt lat="42.5689" lon="-8.04815167">
        <ele>741.0</ele>
        <time>2018-10-03T13:06:00.000Z</time>
      </trkpt>
      <trkpt lat="42.56890667" lon="-8.04815833">
        <ele>741.0</ele>
        <time>2018-10-03T13:06:01.000Z</time>
      </trkpt>
      <trkpt lat="42.568915" lon="-8.04816667">
        <ele>741.0</ele>
        <time>2018-10-03T13:06:02.000Z</time>
      </trkpt>
      <trkpt lat="42.56892333" lon="-8.04817667">
        <ele>741.0</ele>
        <time>2018-10-03T13:06:03.000Z</time>
      </trkpt>
      <trkpt lat="42.56893333" lon="-8.04818667">
        <ele>741.0</ele>
        <time>2018-10-03T13:06:04.000Z</time>
      </trkpt>
      <trkpt lat="42.56893833" lon="-8.04819667">
        <ele>741.0</ele>
        <time>2018-10-03T13:06:05.000Z</time>
      </trkpt>
      <trkpt lat="42.56894667" lon="-8.048205">
        <ele>741.0</ele>
        <time>2018-10-03T13:06:06.000Z</time>
      </trkpt>
      <trkpt lat="42.568955" lon="-8.04821667">
        <ele>741.0</ele>
        <time>2018-10-03T13:06:07.000Z</time>
      </trkpt>
      <trkpt lat="42.568965" lon="-8.04823">
        <ele>741.0</ele>
        <time>2018-10-03T13:06:08.000Z</time>
      </trkpt>
      <trkpt lat="42.568975" lon="-8.048245">
        <ele>741.0</ele>
        <time>2018-10-03T13:06:09.000Z</time>
      </trkpt>
      <trkpt lat="42.568985" lon="-8.04826333">
        <ele>741.0</ele>
        <time>2018-10-03T13:06:10.000Z</time>
      </trkpt>
      <trkpt lat="42.568995" lon="-8.04827833">
        <ele>741.0</ele>
        <time>2018-10-03T13:06:11.000Z</time>
      </trkpt>
      <trkpt lat="42.56900667" lon="-8.04829">
        <ele>741.0</ele>
        <time>2018-10-03T13:06:12.000Z</time>
      </trkpt>
      <trkpt lat="42.56902" lon="-8.04830167">
        <ele>741.0</ele>
        <time>2018-10-03T13:06:13.000Z</time>
      </trkpt>
      <trkpt lat="42.56903167" lon="-8.04831167">
        <ele>741.0</ele>
        <time>2018-10-03T13:06:14.000Z</time>
      </trkpt>
      <trkpt lat="42.56904167" lon="-8.048325">
        <ele>741.0</ele>
        <time>2018-10-03T13:06:15.000Z</time>
      </trkpt>
      <trkpt lat="42.569055" lon="-8.048335">
        <ele>741.0</ele>
        <time>2018-10-03T13:06:16.000Z</time>
      </trkpt>
      <trkpt lat="42.56906833" lon="-8.04834667">
        <ele>741.0</ele>
        <time>2018-10-03T13:06:17.000Z</time>
      </trkpt>
      <trkpt lat="42.56908" lon="-8.04835833">
        <ele>741.0</ele>
        <time>2018-10-03T13:06:18.000Z</time>
      </trkpt>
      <trkpt lat="42.56909" lon="-8.04837167">
        <ele>742.0</ele>
        <time>2018-10-03T13:06:19.000Z</time>
      </trkpt>
      <trkpt lat="42.56909833" lon="-8.04838333">
        <ele>742.0</ele>
        <time>2018-10-03T13:06:20.000Z</time>
      </trkpt>
      <trkpt lat="42.56910667" lon="-8.04839333">
        <ele>742.0</ele>
        <time>2018-10-03T13:06:21.000Z</time>
      </trkpt>
      <trkpt lat="42.56911167" lon="-8.04840333">
        <ele>742.0</ele>
        <time>2018-10-03T13:06:22.000Z</time>
      </trkpt>
      <trkpt lat="42.56911833" lon="-8.04841333">
        <ele>742.0</ele>
        <time>2018-10-03T13:06:23.000Z</time>
      </trkpt>
      <trkpt lat="42.569125" lon="-8.04842333">
        <ele>742.0</ele>
        <time>2018-10-03T13:06:24.000Z</time>
      </trkpt>
      <trkpt lat="42.56913333" lon="-8.048435">
        <ele>742.0</ele>
        <time>2018-10-03T13:06:25.000Z</time>
      </trkpt>
      <trkpt lat="42.56914" lon="-8.04844667">
        <ele>742.0</ele>
        <time>2018-10-03T13:06:26.000Z</time>
      </trkpt>
      <trkpt lat="42.56914833" lon="-8.04845833">
        <ele>742.0</ele>
        <time>2018-10-03T13:06:27.000Z</time>
      </trkpt>
      <trkpt lat="42.569155" lon="-8.048475">
        <ele>743.0</ele>
        <time>2018-10-03T13:06:28.000Z</time>
      </trkpt>
      <trkpt lat="42.56916167" lon="-8.04848667">
        <ele>743.0</ele>
        <time>2018-10-03T13:06:29.000Z</time>
      </trkpt>
      <trkpt lat="42.56917333" lon="-8.0485">
        <ele>743.0</ele>
        <time>2018-10-03T13:06:30.000Z</time>
      </trkpt>
      <trkpt lat="42.56918167" lon="-8.04851667">
        <ele>743.0</ele>
        <time>2018-10-03T13:06:31.000Z</time>
      </trkpt>
      <trkpt lat="42.56919167" lon="-8.04853333">
        <ele>743.0</ele>
        <time>2018-10-03T13:06:32.000Z</time>
      </trkpt>
      <trkpt lat="42.56920667" lon="-8.04855">
        <ele>743.0</ele>
        <time>2018-10-03T13:06:33.000Z</time>
      </trkpt>
      <trkpt lat="42.56921833" lon="-8.04856667">
        <ele>743.0</ele>
        <time>2018-10-03T13:06:34.000Z</time>
      </trkpt>
      <trkpt lat="42.56923333" lon="-8.04858833">
        <ele>742.0</ele>
        <time>2018-10-03T13:06:35.000Z</time>
      </trkpt>
      <trkpt lat="42.56924667" lon="-8.048605">
        <ele>742.0</ele>
        <time>2018-10-03T13:06:36.000Z</time>
      </trkpt>
      <trkpt lat="42.56926167" lon="-8.04862">
        <ele>742.0</ele>
        <time>2018-10-03T13:06:37.000Z</time>
      </trkpt>
      <trkpt lat="42.56927667" lon="-8.04863333">
        <ele>742.0</ele>
        <time>2018-10-03T13:06:38.000Z</time>
      </trkpt>
      <trkpt lat="42.56929" lon="-8.048645">
        <ele>742.0</ele>
        <time>2018-10-03T13:06:39.000Z</time>
      </trkpt>
      <trkpt lat="42.56930333" lon="-8.04866">
        <ele>742.0</ele>
        <time>2018-10-03T13:06:40.000Z</time>
      </trkpt>
      <trkpt lat="42.56931667" lon="-8.04867333">
        <ele>742.0</ele>
        <time>2018-10-03T13:06:41.000Z</time>
      </trkpt>
      <trkpt lat="42.56932833" lon="-8.048685">
        <ele>742.0</ele>
        <time>2018-10-03T13:06:42.000Z</time>
      </trkpt>
      <trkpt lat="42.56933667" lon="-8.0487">
        <ele>742.0</ele>
        <time>2018-10-03T13:06:43.000Z</time>
      </trkpt>
      <trkpt lat="42.56934167" lon="-8.04871333">
        <ele>742.0</ele>
        <time>2018-10-03T13:06:44.000Z</time>
      </trkpt>
      <trkpt lat="42.56934667" lon="-8.04872833">
        <ele>742.0</ele>
        <time>2018-10-03T13:06:45.000Z</time>
      </trkpt>
      <trkpt lat="42.569355" lon="-8.04873667">
        <ele>742.0</ele>
        <time>2018-10-03T13:06:46.000Z</time>
      </trkpt>
      <trkpt lat="42.56936333" lon="-8.04875333">
        <ele>743.0</ele>
        <time>2018-10-03T13:06:47.000Z</time>
      </trkpt>
      <trkpt lat="42.56937167" lon="-8.04876833">
        <ele>743.0</ele>
        <time>2018-10-03T13:06:48.000Z</time>
      </trkpt>
      <trkpt lat="42.56937833" lon="-8.04878">
        <ele>743.0</ele>
        <time>2018-10-03T13:06:49.000Z</time>
      </trkpt>
      <trkpt lat="42.569385" lon="-8.04879167">
        <ele>742.0</ele>
        <time>2018-10-03T13:06:50.000Z</time>
      </trkpt>
      <trkpt lat="42.56939167" lon="-8.048805">
        <ele>742.0</ele>
        <time>2018-10-03T13:06:51.000Z</time>
      </trkpt>
      <trkpt lat="42.56939833" lon="-8.04882667">
        <ele>742.0</ele>
        <time>2018-10-03T13:06:52.000Z</time>
      </trkpt>
      <trkpt lat="42.56940667" lon="-8.04884667">
        <ele>742.0</ele>
        <time>2018-10-03T13:06:53.000Z</time>
      </trkpt>
      <trkpt lat="42.56941333" lon="-8.04886833">
        <ele>742.0</ele>
        <time>2018-10-03T13:06:54.000Z</time>
      </trkpt>
      <trkpt lat="42.56942333" lon="-8.04889">
        <ele>742.0</ele>
        <time>2018-10-03T13:06:55.000Z</time>
      </trkpt>
      <trkpt lat="42.569435" lon="-8.04890833">
        <ele>743.0</ele>
        <time>2018-10-03T13:06:56.000Z</time>
      </trkpt>
      <trkpt lat="42.56944333" lon="-8.04892667">
        <ele>743.0</ele>
        <time>2018-10-03T13:06:57.000Z</time>
      </trkpt>
      <trkpt lat="42.56945333" lon="-8.04894333">
        <ele>743.0</ele>
        <time>2018-10-03T13:06:58.000Z</time>
      </trkpt>
      <trkpt lat="42.569465" lon="-8.04896167">
        <ele>743.0</ele>
        <time>2018-10-03T13:06:59.000Z</time>
      </trkpt>
      <trkpt lat="42.569475" lon="-8.04898">
        <ele>743.0</ele>
        <time>2018-10-03T13:07:00.000Z</time>
      </trkpt>
      <trkpt lat="42.569485" lon="-8.04899667">
        <ele>743.0</ele>
        <time>2018-10-03T13:07:01.000Z</time>
      </trkpt>
      <trkpt lat="42.569495" lon="-8.049015">
        <ele>743.0</ele>
        <time>2018-10-03T13:07:02.000Z</time>
      </trkpt>
      <trkpt lat="42.56950333" lon="-8.04903333">
        <ele>743.0</ele>
        <time>2018-10-03T13:07:03.000Z</time>
      </trkpt>
      <trkpt lat="42.56951167" lon="-8.04905167">
        <ele>743.0</ele>
        <time>2018-10-03T13:07:04.000Z</time>
      </trkpt>
      <trkpt lat="42.56951667" lon="-8.04906833">
        <ele>743.0</ele>
        <time>2018-10-03T13:07:05.000Z</time>
      </trkpt>
      <trkpt lat="42.56952333" lon="-8.04908167">
        <ele>743.0</ele>
        <time>2018-10-03T13:07:06.000Z</time>
      </trkpt>
      <trkpt lat="42.56953" lon="-8.04909333">
        <ele>743.0</ele>
        <time>2018-10-03T13:07:07.000Z</time>
      </trkpt>
      <trkpt lat="42.56953667" lon="-8.04910667">
        <ele>744.0</ele>
        <time>2018-10-03T13:07:08.000Z</time>
      </trkpt>
      <trkpt lat="42.56954" lon="-8.04912167">
        <ele>744.0</ele>
        <time>2018-10-03T13:07:09.000Z</time>
      </trkpt>
      <trkpt lat="42.569545" lon="-8.049135">
        <ele>744.0</ele>
        <time>2018-10-03T13:07:10.000Z</time>
      </trkpt>
      <trkpt lat="42.56954833" lon="-8.04914833">
        <ele>744.0</ele>
        <time>2018-10-03T13:07:11.000Z</time>
      </trkpt>
      <trkpt lat="42.56955333" lon="-8.04916333">
        <ele>744.0</ele>
        <time>2018-10-03T13:07:12.000Z</time>
      </trkpt>
      <trkpt lat="42.56955667" lon="-8.04917833">
        <ele>744.0</ele>
        <time>2018-10-03T13:07:13.000Z</time>
      </trkpt>
      <trkpt lat="42.56955833" lon="-8.04919667">
        <ele>744.0</ele>
        <time>2018-10-03T13:07:14.000Z</time>
      </trkpt>
      <trkpt lat="42.56956333" lon="-8.04921167">
        <ele>744.0</ele>
        <time>2018-10-03T13:07:15.000Z</time>
      </trkpt>
      <trkpt lat="42.56956833" lon="-8.04922833">
        <ele>744.0</ele>
        <time>2018-10-03T13:07:16.000Z</time>
      </trkpt>
      <trkpt lat="42.56957333" lon="-8.04924667">
        <ele>744.0</ele>
        <time>2018-10-03T13:07:17.000Z</time>
      </trkpt>
      <trkpt lat="42.56958" lon="-8.04926667">
        <ele>744.0</ele>
        <time>2018-10-03T13:07:18.000Z</time>
      </trkpt>
      <trkpt lat="42.56958333" lon="-8.04928833">
        <ele>744.0</ele>
        <time>2018-10-03T13:07:19.000Z</time>
      </trkpt>
      <trkpt lat="42.56958833" lon="-8.04930833">
        <ele>744.0</ele>
        <time>2018-10-03T13:07:20.000Z</time>
      </trkpt>
      <trkpt lat="42.56959333" lon="-8.04933">
        <ele>744.0</ele>
        <time>2018-10-03T13:07:21.000Z</time>
      </trkpt>
      <trkpt lat="42.56959833" lon="-8.04935">
        <ele>744.0</ele>
        <time>2018-10-03T13:07:22.000Z</time>
      </trkpt>
      <trkpt lat="42.569605" lon="-8.04937">
        <ele>744.0</ele>
        <time>2018-10-03T13:07:23.000Z</time>
      </trkpt>
      <trkpt lat="42.56961" lon="-8.04939167">
        <ele>744.0</ele>
        <time>2018-10-03T13:07:24.000Z</time>
      </trkpt>
      <trkpt lat="42.569615" lon="-8.04940167">
        <ele>745.0</ele>
        <time>2018-10-03T13:07:25.000Z</time>
      </trkpt>
      <trkpt lat="42.56961333" lon="-8.04940833">
        <ele>745.0</ele>
        <time>2018-10-03T13:07:26.000Z</time>
      </trkpt>
      <trkpt lat="42.56961333" lon="-8.04940833">
        <ele>745.0</ele>
        <time>2018-10-03T13:07:27.000Z</time>
      </trkpt>
      <trkpt lat="42.569615" lon="-8.04940833">
        <ele>745.0</ele>
        <time>2018-10-03T13:07:28.000Z</time>
      </trkpt>
      <trkpt lat="42.56961833" lon="-8.049415">
        <ele>745.0</ele>
        <time>2018-10-03T13:07:29.000Z</time>
      </trkpt>
      <trkpt lat="42.56962167" lon="-8.04941667">
        <ele>744.0</ele>
        <time>2018-10-03T13:07:30.000Z</time>
      </trkpt>
      <trkpt lat="42.56962667" lon="-8.049425">
        <ele>744.0</ele>
        <time>2018-10-03T13:07:31.000Z</time>
      </trkpt>
      <trkpt lat="42.56963167" lon="-8.04944">
        <ele>744.0</ele>
        <time>2018-10-03T13:07:32.000Z</time>
      </trkpt>
      <trkpt lat="42.56963833" lon="-8.04945667">
        <ele>744.0</ele>
        <time>2018-10-03T13:07:33.000Z</time>
      </trkpt>
      <trkpt lat="42.569645" lon="-8.04947667">
        <ele>744.0</ele>
        <time>2018-10-03T13:07:34.000Z</time>
      </trkpt>
      <trkpt lat="42.56965167" lon="-8.04949833">
        <ele>745.0</ele>
        <time>2018-10-03T13:07:35.000Z</time>
      </trkpt>
      <trkpt lat="42.56965833" lon="-8.04952">
        <ele>745.0</ele>
        <time>2018-10-03T13:07:36.000Z</time>
      </trkpt>
      <trkpt lat="42.56966667" lon="-8.04954167">
        <ele>745.0</ele>
        <time>2018-10-03T13:07:37.000Z</time>
      </trkpt>
      <trkpt lat="42.56967333" lon="-8.04956333">
        <ele>745.0</ele>
        <time>2018-10-03T13:07:38.000Z</time>
      </trkpt>
      <trkpt lat="42.56968167" lon="-8.04958333">
        <ele>746.0</ele>
        <time>2018-10-03T13:07:39.000Z</time>
      </trkpt>
      <trkpt lat="42.56968833" lon="-8.049605">
        <ele>746.0</ele>
        <time>2018-10-03T13:07:40.000Z</time>
      </trkpt>
      <trkpt lat="42.56969333" lon="-8.049625">
        <ele>746.0</ele>
        <time>2018-10-03T13:07:41.000Z</time>
      </trkpt>
      <trkpt lat="42.56969833" lon="-8.04964667">
        <ele>746.0</ele>
        <time>2018-10-03T13:07:42.000Z</time>
      </trkpt>
      <trkpt lat="42.569705" lon="-8.049665">
        <ele>747.0</ele>
        <time>2018-10-03T13:07:43.000Z</time>
      </trkpt>
      <trkpt lat="42.56971333" lon="-8.04968667">
        <ele>747.0</ele>
        <time>2018-10-03T13:07:44.000Z</time>
      </trkpt>
      <trkpt lat="42.56971833" lon="-8.04970333">
        <ele>747.0</ele>
        <time>2018-10-03T13:07:45.000Z</time>
      </trkpt>
      <trkpt lat="42.569725" lon="-8.04972">
        <ele>747.0</ele>
        <time>2018-10-03T13:07:46.000Z</time>
      </trkpt>
      <trkpt lat="42.56973167" lon="-8.04973833">
        <ele>747.0</ele>
        <time>2018-10-03T13:07:47.000Z</time>
      </trkpt>
      <trkpt lat="42.56974" lon="-8.04975333">
        <ele>747.0</ele>
        <time>2018-10-03T13:07:48.000Z</time>
      </trkpt>
      <trkpt lat="42.56975" lon="-8.04977">
        <ele>747.0</ele>
        <time>2018-10-03T13:07:49.000Z</time>
      </trkpt>
      <trkpt lat="42.56975667" lon="-8.04979167">
        <ele>747.0</ele>
        <time>2018-10-03T13:07:50.000Z</time>
      </trkpt>
      <trkpt lat="42.56976167" lon="-8.04981167">
        <ele>747.0</ele>
        <time>2018-10-03T13:07:51.000Z</time>
      </trkpt>
      <trkpt lat="42.56976667" lon="-8.049835">
        <ele>747.0</ele>
        <time>2018-10-03T13:07:52.000Z</time>
      </trkpt>
      <trkpt lat="42.56976667" lon="-8.04985667">
        <ele>747.0</ele>
        <time>2018-10-03T13:07:53.000Z</time>
      </trkpt>
      <trkpt lat="42.56976667" lon="-8.04987167">
        <ele>747.0</ele>
        <time>2018-10-03T13:07:54.000Z</time>
      </trkpt>
      <trkpt lat="42.569765" lon="-8.04988833">
        <ele>747.0</ele>
        <time>2018-10-03T13:07:55.000Z</time>
      </trkpt>
      <trkpt lat="42.56976167" lon="-8.049905">
        <ele>748.0</ele>
        <time>2018-10-03T13:07:56.000Z</time>
      </trkpt>
      <trkpt lat="42.56975833" lon="-8.04991667">
        <ele>748.0</ele>
        <time>2018-10-03T13:07:57.000Z</time>
      </trkpt>
      <trkpt lat="42.569755" lon="-8.049925">
        <ele>748.0</ele>
        <time>2018-10-03T13:07:58.000Z</time>
      </trkpt>
      <trkpt lat="42.56975167" lon="-8.04993167">
        <ele>748.0</ele>
        <time>2018-10-03T13:07:59.000Z</time>
      </trkpt>
      <trkpt lat="42.56975333" lon="-8.04994333">
        <ele>748.0</ele>
        <time>2018-10-03T13:08:00.000Z</time>
      </trkpt>
      <trkpt lat="42.56974833" lon="-8.04994833">
        <ele>748.0</ele>
        <time>2018-10-03T13:08:01.000Z</time>
      </trkpt>
      <trkpt lat="42.569745" lon="-8.04995333">
        <ele>749.0</ele>
        <time>2018-10-03T13:08:02.000Z</time>
      </trkpt>
      <trkpt lat="42.56974333" lon="-8.04995833">
        <ele>749.0</ele>
        <time>2018-10-03T13:08:03.000Z</time>
      </trkpt>
      <trkpt lat="42.56974167" lon="-8.04996667">
        <ele>749.0</ele>
        <time>2018-10-03T13:08:04.000Z</time>
      </trkpt>
      <trkpt lat="42.56974167" lon="-8.04998">
        <ele>749.0</ele>
        <time>2018-10-03T13:08:05.000Z</time>
      </trkpt>
      <trkpt lat="42.56974167" lon="-8.049995">
        <ele>749.0</ele>
        <time>2018-10-03T13:08:06.000Z</time>
      </trkpt>
      <trkpt lat="42.569745" lon="-8.05001167">
        <ele>750.0</ele>
        <time>2018-10-03T13:08:07.000Z</time>
      </trkpt>
      <trkpt lat="42.56974833" lon="-8.05003167">
        <ele>750.0</ele>
        <time>2018-10-03T13:08:08.000Z</time>
      </trkpt>
      <trkpt lat="42.56975333" lon="-8.05005167">
        <ele>751.0</ele>
        <time>2018-10-03T13:08:09.000Z</time>
      </trkpt>
      <trkpt lat="42.56975833" lon="-8.05007333">
        <ele>751.0</ele>
        <time>2018-10-03T13:08:10.000Z</time>
      </trkpt>
      <trkpt lat="42.569765" lon="-8.050095">
        <ele>751.0</ele>
        <time>2018-10-03T13:08:11.000Z</time>
      </trkpt>
      <trkpt lat="42.56977" lon="-8.05011">
        <ele>751.0</ele>
        <time>2018-10-03T13:08:12.000Z</time>
      </trkpt>
      <trkpt lat="42.56977667" lon="-8.05012333">
        <ele>752.0</ele>
        <time>2018-10-03T13:08:13.000Z</time>
      </trkpt>
      <trkpt lat="42.56978667" lon="-8.05013833">
        <ele>752.0</ele>
        <time>2018-10-03T13:08:14.000Z</time>
      </trkpt>
      <trkpt lat="42.569795" lon="-8.05015667">
        <ele>752.0</ele>
        <time>2018-10-03T13:08:15.000Z</time>
      </trkpt>
      <trkpt lat="42.56980167" lon="-8.05018">
        <ele>752.0</ele>
        <time>2018-10-03T13:08:16.000Z</time>
      </trkpt>
      <trkpt lat="42.56980833" lon="-8.050205">
        <ele>753.0</ele>
        <time>2018-10-03T13:08:17.000Z</time>
      </trkpt>
      <trkpt lat="42.56982" lon="-8.05022667">
        <ele>753.0</ele>
        <time>2018-10-03T13:08:18.000Z</time>
      </trkpt>
      <trkpt lat="42.56983833" lon="-8.05024667">
        <ele>753.0</ele>
        <time>2018-10-03T13:08:19.000Z</time>
      </trkpt>
      <trkpt lat="42.56985333" lon="-8.05026833">
        <ele>753.0</ele>
        <time>2018-10-03T13:08:20.000Z</time>
      </trkpt>
      <trkpt lat="42.56987167" lon="-8.050295">
        <ele>753.0</ele>
        <time>2018-10-03T13:08:21.000Z</time>
      </trkpt>
      <trkpt lat="42.56989167" lon="-8.05032167">
        <ele>753.0</ele>
        <time>2018-10-03T13:08:22.000Z</time>
      </trkpt>
      <trkpt lat="42.56991167" lon="-8.05034833">
        <ele>753.0</ele>
        <time>2018-10-03T13:08:23.000Z</time>
      </trkpt>
      <trkpt lat="42.56993167" lon="-8.050375">
        <ele>753.0</ele>
        <time>2018-10-03T13:08:24.000Z</time>
      </trkpt>
      <trkpt lat="42.569945" lon="-8.05039333">
        <ele>753.0</ele>
        <time>2018-10-03T13:08:25.000Z</time>
      </trkpt>
      <trkpt lat="42.56995667" lon="-8.05041">
        <ele>753.0</ele>
        <time>2018-10-03T13:08:26.000Z</time>
      </trkpt>
      <trkpt lat="42.56997" lon="-8.05042667">
        <ele>753.0</ele>
        <time>2018-10-03T13:08:27.000Z</time>
      </trkpt>
      <trkpt lat="42.56997833" lon="-8.05043667">
        <ele>753.0</ele>
        <time>2018-10-03T13:08:28.000Z</time>
      </trkpt>
      <trkpt lat="42.56998833" lon="-8.05044833">
        <ele>753.0</ele>
        <time>2018-10-03T13:08:29.000Z</time>
      </trkpt>
      <trkpt lat="42.56999333" lon="-8.05046">
        <ele>753.0</ele>
        <time>2018-10-03T13:08:30.000Z</time>
      </trkpt>
      <trkpt lat="42.56999833" lon="-8.05047167">
        <ele>753.0</ele>
        <time>2018-10-03T13:08:31.000Z</time>
      </trkpt>
      <trkpt lat="42.57000167" lon="-8.05048333">
        <ele>753.0</ele>
        <time>2018-10-03T13:08:32.000Z</time>
      </trkpt>
      <trkpt lat="42.57000333" lon="-8.05049333">
        <ele>753.0</ele>
        <time>2018-10-03T13:08:33.000Z</time>
      </trkpt>
      <trkpt lat="42.57000333" lon="-8.050505">
        <ele>753.0</ele>
        <time>2018-10-03T13:08:34.000Z</time>
      </trkpt>
      <trkpt lat="42.57000333" lon="-8.05051833">
        <ele>753.0</ele>
        <time>2018-10-03T13:08:35.000Z</time>
      </trkpt>
      <trkpt lat="42.57000333" lon="-8.05053333">
        <ele>753.0</ele>
        <time>2018-10-03T13:08:36.000Z</time>
      </trkpt>
      <trkpt lat="42.57" lon="-8.050545">
        <ele>753.0</ele>
        <time>2018-10-03T13:08:37.000Z</time>
      </trkpt>
      <trkpt lat="42.57" lon="-8.05055667">
        <ele>753.0</ele>
        <time>2018-10-03T13:08:38.000Z</time>
      </trkpt>
      <trkpt lat="42.57000167" lon="-8.05057">
        <ele>753.0</ele>
        <time>2018-10-03T13:08:39.000Z</time>
      </trkpt>
      <trkpt lat="42.57000333" lon="-8.05058833">
        <ele>753.0</ele>
        <time>2018-10-03T13:08:40.000Z</time>
      </trkpt>
      <trkpt lat="42.57000667" lon="-8.05061">
        <ele>753.0</ele>
        <time>2018-10-03T13:08:41.000Z</time>
      </trkpt>
      <trkpt lat="42.57001333" lon="-8.05063167">
        <ele>753.0</ele>
        <time>2018-10-03T13:08:42.000Z</time>
      </trkpt>
      <trkpt lat="42.57002167" lon="-8.05065333">
        <ele>753.0</ele>
        <time>2018-10-03T13:08:43.000Z</time>
      </trkpt>
      <trkpt lat="42.57003167" lon="-8.050675">
        <ele>753.0</ele>
        <time>2018-10-03T13:08:44.000Z</time>
      </trkpt>
      <trkpt lat="42.57004" lon="-8.05069833">
        <ele>753.0</ele>
        <time>2018-10-03T13:08:45.000Z</time>
      </trkpt>
      <trkpt lat="42.57005333" lon="-8.050725">
        <ele>753.0</ele>
        <time>2018-10-03T13:08:46.000Z</time>
      </trkpt>
      <trkpt lat="42.570065" lon="-8.05075167">
        <ele>753.0</ele>
        <time>2018-10-03T13:08:47.000Z</time>
      </trkpt>
      <trkpt lat="42.57007667" lon="-8.05078">
        <ele>753.0</ele>
        <time>2018-10-03T13:08:48.000Z</time>
      </trkpt>
      <trkpt lat="42.570085" lon="-8.05080833">
        <ele>753.0</ele>
        <time>2018-10-03T13:08:49.000Z</time>
      </trkpt>
      <trkpt lat="42.57009667" lon="-8.05083333">
        <ele>753.0</ele>
        <time>2018-10-03T13:08:50.000Z</time>
      </trkpt>
      <trkpt lat="42.57010667" lon="-8.05086">
        <ele>753.0</ele>
        <time>2018-10-03T13:08:51.000Z</time>
      </trkpt>
      <trkpt lat="42.57011833" lon="-8.05088833">
        <ele>753.0</ele>
        <time>2018-10-03T13:08:52.000Z</time>
      </trkpt>
      <trkpt lat="42.57013" lon="-8.050915">
        <ele>753.0</ele>
        <time>2018-10-03T13:08:53.000Z</time>
      </trkpt>
      <trkpt lat="42.57014" lon="-8.05094167">
        <ele>754.0</ele>
        <time>2018-10-03T13:08:54.000Z</time>
      </trkpt>
      <trkpt lat="42.57015" lon="-8.050965">
        <ele>754.0</ele>
        <time>2018-10-03T13:08:55.000Z</time>
      </trkpt>
      <trkpt lat="42.57015833" lon="-8.05098667">
        <ele>754.0</ele>
        <time>2018-10-03T13:08:56.000Z</time>
      </trkpt>
      <trkpt lat="42.57016667" lon="-8.05100167">
        <ele>754.0</ele>
        <time>2018-10-03T13:08:57.000Z</time>
      </trkpt>
      <trkpt lat="42.57017167" lon="-8.05101333">
        <ele>754.0</ele>
        <time>2018-10-03T13:08:58.000Z</time>
      </trkpt>
      <trkpt lat="42.57017833" lon="-8.05102333">
        <ele>754.0</ele>
        <time>2018-10-03T13:08:59.000Z</time>
      </trkpt>
      <trkpt lat="42.57018" lon="-8.05103333">
        <ele>754.0</ele>
        <time>2018-10-03T13:09:00.000Z</time>
      </trkpt>
      <trkpt lat="42.57017833" lon="-8.05104167">
        <ele>754.0</ele>
        <time>2018-10-03T13:09:01.000Z</time>
      </trkpt>
      <trkpt lat="42.570175" lon="-8.05104833">
        <ele>755.0</ele>
        <time>2018-10-03T13:09:02.000Z</time>
      </trkpt>
      <trkpt lat="42.57017167" lon="-8.05106">
        <ele>755.0</ele>
        <time>2018-10-03T13:09:03.000Z</time>
      </trkpt>
      <trkpt lat="42.57017167" lon="-8.05107333">
        <ele>755.0</ele>
        <time>2018-10-03T13:09:04.000Z</time>
      </trkpt>
      <trkpt lat="42.57017333" lon="-8.05108833">
        <ele>755.0</ele>
        <time>2018-10-03T13:09:05.000Z</time>
      </trkpt>
      <trkpt lat="42.570175" lon="-8.05110667">
        <ele>755.0</ele>
        <time>2018-10-03T13:09:06.000Z</time>
      </trkpt>
      <trkpt lat="42.57018167" lon="-8.05112333">
        <ele>755.0</ele>
        <time>2018-10-03T13:09:07.000Z</time>
      </trkpt>
      <trkpt lat="42.57018833" lon="-8.05114833">
        <ele>755.0</ele>
        <time>2018-10-03T13:09:08.000Z</time>
      </trkpt>
      <trkpt lat="42.57019833" lon="-8.05117333">
        <ele>754.0</ele>
        <time>2018-10-03T13:09:09.000Z</time>
      </trkpt>
      <trkpt lat="42.57020333" lon="-8.051195">
        <ele>754.0</ele>
        <time>2018-10-03T13:09:10.000Z</time>
      </trkpt>
      <trkpt lat="42.57021167" lon="-8.05122">
        <ele>754.0</ele>
        <time>2018-10-03T13:09:11.000Z</time>
      </trkpt>
      <trkpt lat="42.57021667" lon="-8.05124">
        <ele>754.0</ele>
        <time>2018-10-03T13:09:12.000Z</time>
      </trkpt>
      <trkpt lat="42.57022167" lon="-8.05125667">
        <ele>754.0</ele>
        <time>2018-10-03T13:09:13.000Z</time>
      </trkpt>
      <trkpt lat="42.57022833" lon="-8.05127333">
        <ele>754.0</ele>
        <time>2018-10-03T13:09:14.000Z</time>
      </trkpt>
      <trkpt lat="42.57023333" lon="-8.05129333">
        <ele>754.0</ele>
        <time>2018-10-03T13:09:15.000Z</time>
      </trkpt>
      <trkpt lat="42.57023833" lon="-8.05131333">
        <ele>754.0</ele>
        <time>2018-10-03T13:09:16.000Z</time>
      </trkpt>
      <trkpt lat="42.57024667" lon="-8.05133">
        <ele>754.0</ele>
        <time>2018-10-03T13:09:17.000Z</time>
      </trkpt>
      <trkpt lat="42.57025" lon="-8.05135">
        <ele>754.0</ele>
        <time>2018-10-03T13:09:18.000Z</time>
      </trkpt>
      <trkpt lat="42.57025333" lon="-8.05136667">
        <ele>754.0</ele>
        <time>2018-10-03T13:09:19.000Z</time>
      </trkpt>
      <trkpt lat="42.57025167" lon="-8.051385">
        <ele>753.0</ele>
        <time>2018-10-03T13:09:20.000Z</time>
      </trkpt>
      <trkpt lat="42.57024833" lon="-8.05140167">
        <ele>753.0</ele>
        <time>2018-10-03T13:09:21.000Z</time>
      </trkpt>
      <trkpt lat="42.57024167" lon="-8.05140333">
        <ele>753.0</ele>
        <time>2018-10-03T13:09:22.000Z</time>
      </trkpt>
      <trkpt lat="42.570235" lon="-8.051405">
        <ele>753.0</ele>
        <time>2018-10-03T13:09:23.000Z</time>
      </trkpt>
      <trkpt lat="42.570225" lon="-8.05141">
        <ele>753.0</ele>
        <time>2018-10-03T13:09:24.000Z</time>
      </trkpt>
      <trkpt lat="42.57021667" lon="-8.05142">
        <ele>753.0</ele>
        <time>2018-10-03T13:09:25.000Z</time>
      </trkpt>
      <trkpt lat="42.57021167" lon="-8.051435">
        <ele>753.0</ele>
        <time>2018-10-03T13:09:26.000Z</time>
      </trkpt>
      <trkpt lat="42.57020333" lon="-8.05145333">
        <ele>753.0</ele>
        <time>2018-10-03T13:09:27.000Z</time>
      </trkpt>
      <trkpt lat="42.57019667" lon="-8.05147">
        <ele>753.0</ele>
        <time>2018-10-03T13:09:28.000Z</time>
      </trkpt>
      <trkpt lat="42.57019" lon="-8.05148667">
        <ele>753.0</ele>
        <time>2018-10-03T13:09:29.000Z</time>
      </trkpt>
      <trkpt lat="42.570185" lon="-8.05150167">
        <ele>753.0</ele>
        <time>2018-10-03T13:09:30.000Z</time>
      </trkpt>
      <trkpt lat="42.57018" lon="-8.051515">
        <ele>752.0</ele>
        <time>2018-10-03T13:09:31.000Z</time>
      </trkpt>
      <trkpt lat="42.57017167" lon="-8.05152667">
        <ele>752.0</ele>
        <time>2018-10-03T13:09:32.000Z</time>
      </trkpt>
      <trkpt lat="42.57016333" lon="-8.05154">
        <ele>752.0</ele>
        <time>2018-10-03T13:09:33.000Z</time>
      </trkpt>
    </trkseg>
  </trk>
</gpx>
